<?xml version="1.0" encoding="UTF-8"?>
<gpx version="1.1" creator="https://www.www-youtrack-es.amenigma.com" xsi:schemaLocation="http://www.topografix.com/GPX/1/1 http://www.topografix.com/GPX/1/1/gpx.xsd http://www.garmin.com/xmlschemas/GpxExtensions/v3 http://www.garmin.com/xmlschemas/GpxExtensionsv3.xsd http://www.garmin.com/xmlschemas/TrackPointExtension/v1 http://www.garmin.com/xmlschemas/TrackPointExtensionv1.xsd" xmlns:gpxtpx="http://www.garmin.com/xmlschemas/TrackPointExtension/v1" xmlns:gpxx="http://www.garmin.com/xmlschemas/GpxExtensions/v3" xmlns:xsi="http://www.w3.org/2001/XMLSchema-instance">
  <metadata>
    <author>
      <name>Guido luiz Niehues Junior</name>
      <email id="gniehues" domain="gmail.com"/>
    </author>
    <link href="https://www.www-youtrack-es.amenigma.com">
      <text>YouTrack.es</text>
    </link>
    <time>2026-09-02T05:21:54Z</time>
  </metadata>
  <trk>
    <src>https://www.www-youtrack-es.amenigma.com</src>
    <link href="https://www.www-youtrack-es.amenigma.com/ruta/21236-morro-canal-completo">
      <text>YouTrack.es</text>
    </link>
    <trkseg>
      <trkpt lat="-25.4715340" lon="-49.2202770">
        <ele>925.0</ele>
        <time>2021-04-17T09:54:34Z</time>
      </trkpt>
      <trkpt lat="-25.4715330" lon="-49.2202760">
        <ele>925.0</ele>
        <time>2021-04-17T09:54:35Z</time>
      </trkpt>
      <trkpt lat="-25.4715530" lon="-49.2203150">
        <ele>924.8</ele>
        <time>2021-04-17T09:54:40Z</time>
      </trkpt>
      <trkpt lat="-25.4715560" lon="-49.2203340">
        <ele>924.8</ele>
        <time>2021-04-17T09:54:41Z</time>
      </trkpt>
      <trkpt lat="-25.4715240" lon="-49.2203940">
        <ele>924.8</ele>
        <time>2021-04-17T09:54:44Z</time>
      </trkpt>
      <trkpt lat="-25.4714660" lon="-49.2204530">
        <ele>925.0</ele>
        <time>2021-04-17T09:54:47Z</time>
      </trkpt>
      <trkpt lat="-25.4713550" lon="-49.2205640">
        <ele>925.0</ele>
        <time>2021-04-17T09:54:52Z</time>
      </trkpt>
      <trkpt lat="-25.4712140" lon="-49.2207210">
        <ele>925.0</ele>
        <time>2021-04-17T09:54:58Z</time>
      </trkpt>
      <trkpt lat="-25.4711910" lon="-49.2207480">
        <ele>925.0</ele>
        <time>2021-04-17T09:54:59Z</time>
      </trkpt>
      <trkpt lat="-25.4710580" lon="-49.2208590">
        <ele>925.0</ele>
        <time>2021-04-17T09:55:04Z</time>
      </trkpt>
      <trkpt lat="-25.4710290" lon="-49.2208510">
        <ele>925.0</ele>
        <time>2021-04-17T09:55:05Z</time>
      </trkpt>
      <trkpt lat="-25.4709450" lon="-49.2207330">
        <ele>925.0</ele>
        <time>2021-04-17T09:55:09Z</time>
      </trkpt>
      <trkpt lat="-25.4707920" lon="-49.2204830">
        <ele>924.6</ele>
        <time>2021-04-17T09:55:16Z</time>
      </trkpt>
      <trkpt lat="-25.4706070" lon="-49.2202000">
        <ele>924.2</ele>
        <time>2021-04-17T09:55:23Z</time>
      </trkpt>
      <trkpt lat="-25.4705810" lon="-49.2201600">
        <ele>924.2</ele>
        <time>2021-04-17T09:55:25Z</time>
      </trkpt>
      <trkpt lat="-25.4705020" lon="-49.2200380">
        <ele>924.2</ele>
        <time>2021-04-17T09:55:27Z</time>
      </trkpt>
      <trkpt lat="-25.4704730" lon="-49.2199990">
        <ele>924.0</ele>
        <time>2021-04-17T09:55:28Z</time>
      </trkpt>
      <trkpt lat="-25.4704470" lon="-49.2199590">
        <ele>924.0</ele>
        <time>2021-04-17T09:55:29Z</time>
      </trkpt>
      <trkpt lat="-25.4704220" lon="-49.2199190">
        <ele>924.0</ele>
        <time>2021-04-17T09:55:30Z</time>
      </trkpt>
      <trkpt lat="-25.4704220" lon="-49.2199190">
        <ele>924.0</ele>
        <time>2021-04-17T09:55:31Z</time>
      </trkpt>
      <trkpt lat="-25.4703480" lon="-49.2198020">
        <ele>924.0</ele>
        <time>2021-04-17T09:55:33Z</time>
      </trkpt>
      <trkpt lat="-25.4702970" lon="-49.2197260">
        <ele>923.8</ele>
        <time>2021-04-17T09:55:35Z</time>
      </trkpt>
      <trkpt lat="-25.4702710" lon="-49.2196880">
        <ele>924.0</ele>
        <time>2021-04-17T09:55:37Z</time>
      </trkpt>
      <trkpt lat="-25.4701960" lon="-49.2195790">
        <ele>924.0</ele>
        <time>2021-04-17T09:55:39Z</time>
      </trkpt>
      <trkpt lat="-25.4701730" lon="-49.2195420">
        <ele>923.8</ele>
        <time>2021-04-17T09:55:40Z</time>
      </trkpt>
      <trkpt lat="-25.4701500" lon="-49.2195050">
        <ele>923.8</ele>
        <time>2021-04-17T09:55:41Z</time>
      </trkpt>
      <trkpt lat="-25.4701250" lon="-49.2194670">
        <ele>923.8</ele>
        <time>2021-04-17T09:55:43Z</time>
      </trkpt>
      <trkpt lat="-25.4700510" lon="-49.2193500">
        <ele>923.6</ele>
        <time>2021-04-17T09:55:45Z</time>
      </trkpt>
      <trkpt lat="-25.4700040" lon="-49.2192750">
        <ele>923.6</ele>
        <time>2021-04-17T09:55:47Z</time>
      </trkpt>
      <trkpt lat="-25.4699800" lon="-49.2192380">
        <ele>923.4</ele>
        <time>2021-04-17T09:55:49Z</time>
      </trkpt>
      <trkpt lat="-25.4699460" lon="-49.2191620">
        <ele>923.4</ele>
        <time>2021-04-17T09:55:50Z</time>
      </trkpt>
      <trkpt lat="-25.4699480" lon="-49.2191200">
        <ele>923.4</ele>
        <time>2021-04-17T09:55:51Z</time>
      </trkpt>
      <trkpt lat="-25.4699620" lon="-49.2190800">
        <ele>923.2</ele>
        <time>2021-04-17T09:55:52Z</time>
      </trkpt>
      <trkpt lat="-25.4699800" lon="-49.2190430">
        <ele>923.2</ele>
        <time>2021-04-17T09:55:53Z</time>
      </trkpt>
      <trkpt lat="-25.4700010" lon="-49.2190080">
        <ele>923.2</ele>
        <time>2021-04-17T09:55:55Z</time>
      </trkpt>
      <trkpt lat="-25.4700520" lon="-49.2189390">
        <ele>923.2</ele>
        <time>2021-04-17T09:55:56Z</time>
      </trkpt>
      <trkpt lat="-25.4700790" lon="-49.2189030">
        <ele>923.2</ele>
        <time>2021-04-17T09:55:57Z</time>
      </trkpt>
      <trkpt lat="-25.4701050" lon="-49.2188660">
        <ele>923.2</ele>
        <time>2021-04-17T09:55:58Z</time>
      </trkpt>
      <trkpt lat="-25.4701300" lon="-49.2188270">
        <ele>923.2</ele>
        <time>2021-04-17T09:55:59Z</time>
      </trkpt>
      <trkpt lat="-25.4701550" lon="-49.2187860">
        <ele>923.2</ele>
        <time>2021-04-17T09:56:01Z</time>
      </trkpt>
      <trkpt lat="-25.4702050" lon="-49.2187080">
        <ele>923.2</ele>
        <time>2021-04-17T09:56:02Z</time>
      </trkpt>
      <trkpt lat="-25.4702310" lon="-49.2186680">
        <ele>923.2</ele>
        <time>2021-04-17T09:56:03Z</time>
      </trkpt>
      <trkpt lat="-25.4702850" lon="-49.2185890">
        <ele>923.2</ele>
        <time>2021-04-17T09:56:05Z</time>
      </trkpt>
      <trkpt lat="-25.4703130" lon="-49.2185480">
        <ele>923.2</ele>
        <time>2021-04-17T09:56:07Z</time>
      </trkpt>
      <trkpt lat="-25.4703710" lon="-49.2184610">
        <ele>923.2</ele>
        <time>2021-04-17T09:56:08Z</time>
      </trkpt>
      <trkpt lat="-25.4704050" lon="-49.2184170">
        <ele>923.2</ele>
        <time>2021-04-17T09:56:09Z</time>
      </trkpt>
      <trkpt lat="-25.4704370" lon="-49.2183690">
        <ele>923.2</ele>
        <time>2021-04-17T09:56:10Z</time>
      </trkpt>
      <trkpt lat="-25.4704690" lon="-49.2183200">
        <ele>923.2</ele>
        <time>2021-04-17T09:56:11Z</time>
      </trkpt>
      <trkpt lat="-25.4705020" lon="-49.2182700">
        <ele>923.0</ele>
        <time>2021-04-17T09:56:12Z</time>
      </trkpt>
      <trkpt lat="-25.4705550" lon="-49.2181910">
        <ele>923.0</ele>
        <time>2021-04-17T09:56:13Z</time>
      </trkpt>
      <trkpt lat="-25.4706080" lon="-49.2181110">
        <ele>922.8</ele>
        <time>2021-04-17T09:56:15Z</time>
      </trkpt>
      <trkpt lat="-25.4706790" lon="-49.2180040">
        <ele>922.4</ele>
        <time>2021-04-17T09:56:17Z</time>
      </trkpt>
      <trkpt lat="-25.4707150" lon="-49.2179530">
        <ele>922.0</ele>
        <time>2021-04-17T09:56:19Z</time>
      </trkpt>
      <trkpt lat="-25.4708070" lon="-49.2178200">
        <ele>921.8</ele>
        <time>2021-04-17T09:56:21Z</time>
      </trkpt>
      <trkpt lat="-25.4708550" lon="-49.2177460">
        <ele>921.8</ele>
        <time>2021-04-17T09:56:23Z</time>
      </trkpt>
      <trkpt lat="-25.4708790" lon="-49.2177120">
        <ele>921.8</ele>
        <time>2021-04-17T09:56:24Z</time>
      </trkpt>
      <trkpt lat="-25.4708790" lon="-49.2177120">
        <ele>921.6</ele>
        <time>2021-04-17T09:56:25Z</time>
      </trkpt>
      <trkpt lat="-25.4709540" lon="-49.2176160">
        <ele>921.6</ele>
        <time>2021-04-17T09:56:27Z</time>
      </trkpt>
      <trkpt lat="-25.4710020" lon="-49.2175560">
        <ele>921.6</ele>
        <time>2021-04-17T09:56:29Z</time>
      </trkpt>
      <trkpt lat="-25.4710260" lon="-49.2175290">
        <ele>921.8</ele>
        <time>2021-04-17T09:56:31Z</time>
      </trkpt>
      <trkpt lat="-25.4710980" lon="-49.2174540">
        <ele>922.2</ele>
        <time>2021-04-17T09:56:33Z</time>
      </trkpt>
      <trkpt lat="-25.4711510" lon="-49.2174290">
        <ele>922.6</ele>
        <time>2021-04-17T09:56:35Z</time>
      </trkpt>
      <trkpt lat="-25.4712010" lon="-49.2174030">
        <ele>922.8</ele>
        <time>2021-04-17T09:56:37Z</time>
      </trkpt>
      <trkpt lat="-25.4712250" lon="-49.2173890">
        <ele>923.0</ele>
        <time>2021-04-17T09:56:38Z</time>
      </trkpt>
      <trkpt lat="-25.4712480" lon="-49.2173750">
        <ele>923.2</ele>
        <time>2021-04-17T09:56:39Z</time>
      </trkpt>
      <trkpt lat="-25.4712710" lon="-49.2173690">
        <ele>923.2</ele>
        <time>2021-04-17T09:56:40Z</time>
      </trkpt>
      <trkpt lat="-25.4712920" lon="-49.2173680">
        <ele>923.4</ele>
        <time>2021-04-17T09:56:41Z</time>
      </trkpt>
      <trkpt lat="-25.4713060" lon="-49.2173600">
        <ele>923.6</ele>
        <time>2021-04-17T09:56:42Z</time>
      </trkpt>
      <trkpt lat="-25.4713060" lon="-49.2173600">
        <ele>923.8</ele>
        <time>2021-04-17T09:56:43Z</time>
      </trkpt>
      <trkpt lat="-25.4713170" lon="-49.2173510">
        <ele>924.0</ele>
        <time>2021-04-17T09:56:45Z</time>
      </trkpt>
      <trkpt lat="-25.4713170" lon="-49.2173500">
        <ele>924.2</ele>
        <time>2021-04-17T09:56:47Z</time>
      </trkpt>
      <trkpt lat="-25.4713170" lon="-49.2173510">
        <ele>924.2</ele>
        <time>2021-04-17T09:56:49Z</time>
      </trkpt>
      <trkpt lat="-25.4713160" lon="-49.2173500">
        <ele>924.2</ele>
        <time>2021-04-17T09:56:51Z</time>
      </trkpt>
      <trkpt lat="-25.4713160" lon="-49.2173490">
        <ele>924.2</ele>
        <time>2021-04-17T09:56:52Z</time>
      </trkpt>
      <trkpt lat="-25.4713140" lon="-49.2173480">
        <ele>924.4</ele>
        <time>2021-04-17T09:56:53Z</time>
      </trkpt>
      <trkpt lat="-25.4713140" lon="-49.2173490">
        <ele>924.4</ele>
        <time>2021-04-17T09:56:55Z</time>
      </trkpt>
      <trkpt lat="-25.4713140" lon="-49.2173500">
        <ele>924.4</ele>
        <time>2021-04-17T09:56:57Z</time>
      </trkpt>
      <trkpt lat="-25.4713140" lon="-49.2173500">
        <ele>924.4</ele>
        <time>2021-04-17T09:56:58Z</time>
      </trkpt>
      <trkpt lat="-25.4713140" lon="-49.2173500">
        <ele>924.4</ele>
        <time>2021-04-17T09:56:59Z</time>
      </trkpt>
      <trkpt lat="-25.4713140" lon="-49.2173500">
        <ele>924.4</ele>
        <time>2021-04-17T09:57:01Z</time>
      </trkpt>
      <trkpt lat="-25.4713130" lon="-49.2173500">
        <ele>924.4</ele>
        <time>2021-04-17T09:57:03Z</time>
      </trkpt>
      <trkpt lat="-25.4713130" lon="-49.2173500">
        <ele>924.4</ele>
        <time>2021-04-17T09:57:05Z</time>
      </trkpt>
      <trkpt lat="-25.4713130" lon="-49.2173500">
        <ele>924.4</ele>
        <time>2021-04-17T09:57:07Z</time>
      </trkpt>
      <trkpt lat="-25.4713130" lon="-49.2173500">
        <ele>924.4</ele>
        <time>2021-04-17T09:57:09Z</time>
      </trkpt>
      <trkpt lat="-25.4713130" lon="-49.2173500">
        <ele>924.6</ele>
        <time>2021-04-17T09:57:11Z</time>
      </trkpt>
      <trkpt lat="-25.4713130" lon="-49.2173510">
        <ele>924.6</ele>
        <time>2021-04-17T09:57:13Z</time>
      </trkpt>
      <trkpt lat="-25.4713130" lon="-49.2173510">
        <ele>924.6</ele>
        <time>2021-04-17T09:57:15Z</time>
      </trkpt>
      <trkpt lat="-25.4713130" lon="-49.2173510">
        <ele>924.6</ele>
        <time>2021-04-17T09:57:17Z</time>
      </trkpt>
      <trkpt lat="-25.4713130" lon="-49.2173510">
        <ele>924.6</ele>
        <time>2021-04-17T09:57:19Z</time>
      </trkpt>
      <trkpt lat="-25.4713130" lon="-49.2173510">
        <ele>924.4</ele>
        <time>2021-04-17T09:57:21Z</time>
      </trkpt>
      <trkpt lat="-25.4713130" lon="-49.2173520">
        <ele>924.4</ele>
        <time>2021-04-17T09:57:23Z</time>
      </trkpt>
      <trkpt lat="-25.4713130" lon="-49.2173520">
        <ele>924.4</ele>
        <time>2021-04-17T09:57:25Z</time>
      </trkpt>
      <trkpt lat="-25.4713130" lon="-49.2173520">
        <ele>924.4</ele>
        <time>2021-04-17T09:57:27Z</time>
      </trkpt>
      <trkpt lat="-25.4713130" lon="-49.2173520">
        <ele>924.4</ele>
        <time>2021-04-17T09:57:29Z</time>
      </trkpt>
      <trkpt lat="-25.4713130" lon="-49.2173520">
        <ele>924.4</ele>
        <time>2021-04-17T09:57:31Z</time>
      </trkpt>
      <trkpt lat="-25.4713130" lon="-49.2173520">
        <ele>924.4</ele>
        <time>2021-04-17T09:57:33Z</time>
      </trkpt>
      <trkpt lat="-25.4713130" lon="-49.2173520">
        <ele>924.4</ele>
        <time>2021-04-17T09:57:35Z</time>
      </trkpt>
      <trkpt lat="-25.4713130" lon="-49.2173520">
        <ele>924.4</ele>
        <time>2021-04-17T09:57:37Z</time>
      </trkpt>
      <trkpt lat="-25.4713130" lon="-49.2173520">
        <ele>924.4</ele>
        <time>2021-04-17T09:57:39Z</time>
      </trkpt>
      <trkpt lat="-25.4713130" lon="-49.2173520">
        <ele>924.4</ele>
        <time>2021-04-17T09:57:41Z</time>
      </trkpt>
      <trkpt lat="-25.4713130" lon="-49.2173520">
        <ele>924.4</ele>
        <time>2021-04-17T09:57:43Z</time>
      </trkpt>
      <trkpt lat="-25.4713130" lon="-49.2173520">
        <ele>924.4</ele>
        <time>2021-04-17T09:57:45Z</time>
      </trkpt>
      <trkpt lat="-25.4713130" lon="-49.2173520">
        <ele>924.4</ele>
        <time>2021-04-17T09:57:47Z</time>
      </trkpt>
      <trkpt lat="-25.4713130" lon="-49.2173520">
        <ele>924.4</ele>
        <time>2021-04-17T09:57:49Z</time>
      </trkpt>
      <trkpt lat="-25.4713130" lon="-49.2173520">
        <ele>924.4</ele>
        <time>2021-04-17T09:57:51Z</time>
      </trkpt>
      <trkpt lat="-25.4713130" lon="-49.2173520">
        <ele>924.4</ele>
        <time>2021-04-17T09:57:52Z</time>
      </trkpt>
      <trkpt lat="-25.4713140" lon="-49.2173520">
        <ele>924.4</ele>
        <time>2021-04-17T09:57:53Z</time>
      </trkpt>
      <trkpt lat="-25.4713140" lon="-49.2173520">
        <ele>924.4</ele>
        <time>2021-04-17T09:57:55Z</time>
      </trkpt>
      <trkpt lat="-25.4713140" lon="-49.2173520">
        <ele>924.4</ele>
        <time>2021-04-17T09:57:57Z</time>
      </trkpt>
      <trkpt lat="-25.4713140" lon="-49.2173520">
        <ele>924.4</ele>
        <time>2021-04-17T09:57:59Z</time>
      </trkpt>
      <trkpt lat="-25.4713130" lon="-49.2173520">
        <ele>924.4</ele>
        <time>2021-04-17T09:58:01Z</time>
      </trkpt>
      <trkpt lat="-25.4713130" lon="-49.2173520">
        <ele>924.4</ele>
        <time>2021-04-17T09:58:03Z</time>
      </trkpt>
      <trkpt lat="-25.4713130" lon="-49.2173530">
        <ele>924.4</ele>
        <time>2021-04-17T09:58:05Z</time>
      </trkpt>
      <trkpt lat="-25.4713130" lon="-49.2173530">
        <ele>924.4</ele>
        <time>2021-04-17T09:58:07Z</time>
      </trkpt>
      <trkpt lat="-25.4713130" lon="-49.2173530">
        <ele>924.4</ele>
        <time>2021-04-17T09:58:09Z</time>
      </trkpt>
      <trkpt lat="-25.4713130" lon="-49.2173530">
        <ele>924.2</ele>
        <time>2021-04-17T09:58:11Z</time>
      </trkpt>
      <trkpt lat="-25.4713130" lon="-49.2173530">
        <ele>924.2</ele>
        <time>2021-04-17T09:58:13Z</time>
      </trkpt>
      <trkpt lat="-25.4713130" lon="-49.2173530">
        <ele>924.2</ele>
        <time>2021-04-17T09:58:15Z</time>
      </trkpt>
      <trkpt lat="-25.4713130" lon="-49.2173540">
        <ele>924.2</ele>
        <time>2021-04-17T09:58:17Z</time>
      </trkpt>
      <trkpt lat="-25.4713130" lon="-49.2173540">
        <ele>924.2</ele>
        <time>2021-04-17T09:58:19Z</time>
      </trkpt>
      <trkpt lat="-25.4713120" lon="-49.2173540">
        <ele>924.2</ele>
        <time>2021-04-17T09:58:21Z</time>
      </trkpt>
      <trkpt lat="-25.4713120" lon="-49.2173540">
        <ele>924.4</ele>
        <time>2021-04-17T09:58:23Z</time>
      </trkpt>
      <trkpt lat="-25.4713120" lon="-49.2173540">
        <ele>924.4</ele>
        <time>2021-04-17T09:58:24Z</time>
      </trkpt>
      <trkpt lat="-25.4713120" lon="-49.2173540">
        <ele>924.4</ele>
        <time>2021-04-17T09:58:25Z</time>
      </trkpt>
      <trkpt lat="-25.4713120" lon="-49.2173550">
        <ele>924.4</ele>
        <time>2021-04-17T09:58:27Z</time>
      </trkpt>
      <trkpt lat="-25.4713120" lon="-49.2173550">
        <ele>924.4</ele>
        <time>2021-04-17T09:58:29Z</time>
      </trkpt>
      <trkpt lat="-25.4713120" lon="-49.2173550">
        <ele>924.4</ele>
        <time>2021-04-17T09:58:31Z</time>
      </trkpt>
      <trkpt lat="-25.4713120" lon="-49.2173560">
        <ele>924.4</ele>
        <time>2021-04-17T09:58:33Z</time>
      </trkpt>
      <trkpt lat="-25.4713120" lon="-49.2173560">
        <ele>924.4</ele>
        <time>2021-04-17T09:58:35Z</time>
      </trkpt>
      <trkpt lat="-25.4713120" lon="-49.2173560">
        <ele>924.4</ele>
        <time>2021-04-17T09:58:37Z</time>
      </trkpt>
      <trkpt lat="-25.4713120" lon="-49.2173560">
        <ele>924.4</ele>
        <time>2021-04-17T09:58:39Z</time>
      </trkpt>
      <trkpt lat="-25.4713120" lon="-49.2173560">
        <ele>924.4</ele>
        <time>2021-04-17T09:58:41Z</time>
      </trkpt>
      <trkpt lat="-25.4713120" lon="-49.2173560">
        <ele>924.4</ele>
        <time>2021-04-17T09:58:43Z</time>
      </trkpt>
      <trkpt lat="-25.4713110" lon="-49.2173560">
        <ele>924.4</ele>
        <time>2021-04-17T09:58:45Z</time>
      </trkpt>
      <trkpt lat="-25.4713110" lon="-49.2173560">
        <ele>924.4</ele>
        <time>2021-04-17T09:58:47Z</time>
      </trkpt>
      <trkpt lat="-25.4713110" lon="-49.2173560">
        <ele>924.4</ele>
        <time>2021-04-17T09:58:49Z</time>
      </trkpt>
      <trkpt lat="-25.4713110" lon="-49.2173560">
        <ele>924.4</ele>
        <time>2021-04-17T09:58:51Z</time>
      </trkpt>
      <trkpt lat="-25.4713110" lon="-49.2173570">
        <ele>924.4</ele>
        <time>2021-04-17T09:58:53Z</time>
      </trkpt>
      <trkpt lat="-25.4713110" lon="-49.2173570">
        <ele>924.4</ele>
        <time>2021-04-17T09:58:55Z</time>
      </trkpt>
      <trkpt lat="-25.4713110" lon="-49.2173570">
        <ele>924.4</ele>
        <time>2021-04-17T09:58:57Z</time>
      </trkpt>
      <trkpt lat="-25.4713110" lon="-49.2173570">
        <ele>924.4</ele>
        <time>2021-04-17T09:58:59Z</time>
      </trkpt>
      <trkpt lat="-25.4713110" lon="-49.2173570">
        <ele>924.4</ele>
        <time>2021-04-17T09:59:01Z</time>
      </trkpt>
      <trkpt lat="-25.4713100" lon="-49.2173570">
        <ele>924.4</ele>
        <time>2021-04-17T09:59:03Z</time>
      </trkpt>
      <trkpt lat="-25.4713100" lon="-49.2173570">
        <ele>924.4</ele>
        <time>2021-04-17T09:59:05Z</time>
      </trkpt>
      <trkpt lat="-25.4713100" lon="-49.2173570">
        <ele>924.4</ele>
        <time>2021-04-17T09:59:07Z</time>
      </trkpt>
      <trkpt lat="-25.4713100" lon="-49.2173560">
        <ele>924.4</ele>
        <time>2021-04-17T09:59:09Z</time>
      </trkpt>
      <trkpt lat="-25.4713100" lon="-49.2173560">
        <ele>924.4</ele>
        <time>2021-04-17T09:59:11Z</time>
      </trkpt>
      <trkpt lat="-25.4713100" lon="-49.2173560">
        <ele>924.4</ele>
        <time>2021-04-17T09:59:13Z</time>
      </trkpt>
      <trkpt lat="-25.4713100" lon="-49.2173560">
        <ele>924.6</ele>
        <time>2021-04-17T09:59:15Z</time>
      </trkpt>
      <trkpt lat="-25.4713100" lon="-49.2173560">
        <ele>924.6</ele>
        <time>2021-04-17T09:59:17Z</time>
      </trkpt>
      <trkpt lat="-25.4713100" lon="-49.2173560">
        <ele>924.6</ele>
        <time>2021-04-17T09:59:19Z</time>
      </trkpt>
      <trkpt lat="-25.4713090" lon="-49.2173560">
        <ele>924.6</ele>
        <time>2021-04-17T09:59:21Z</time>
      </trkpt>
      <trkpt lat="-25.4713090" lon="-49.2173560">
        <ele>924.6</ele>
        <time>2021-04-17T09:59:23Z</time>
      </trkpt>
      <trkpt lat="-25.4713090" lon="-49.2173560">
        <ele>924.6</ele>
        <time>2021-04-17T09:59:25Z</time>
      </trkpt>
      <trkpt lat="-25.4713090" lon="-49.2173570">
        <ele>924.4</ele>
        <time>2021-04-17T09:59:27Z</time>
      </trkpt>
      <trkpt lat="-25.4713090" lon="-49.2173570">
        <ele>924.4</ele>
        <time>2021-04-17T09:59:29Z</time>
      </trkpt>
      <trkpt lat="-25.4713090" lon="-49.2173570">
        <ele>924.4</ele>
        <time>2021-04-17T09:59:31Z</time>
      </trkpt>
      <trkpt lat="-25.4713090" lon="-49.2173570">
        <ele>924.4</ele>
        <time>2021-04-17T09:59:33Z</time>
      </trkpt>
      <trkpt lat="-25.4713090" lon="-49.2173570">
        <ele>924.6</ele>
        <time>2021-04-17T09:59:35Z</time>
      </trkpt>
      <trkpt lat="-25.4713090" lon="-49.2173570">
        <ele>924.4</ele>
        <time>2021-04-17T09:59:37Z</time>
      </trkpt>
      <trkpt lat="-25.4713080" lon="-49.2173570">
        <ele>924.4</ele>
        <time>2021-04-17T09:59:39Z</time>
      </trkpt>
      <trkpt lat="-25.4713080" lon="-49.2173570">
        <ele>924.4</ele>
        <time>2021-04-17T09:59:41Z</time>
      </trkpt>
      <trkpt lat="-25.4713080" lon="-49.2173570">
        <ele>924.6</ele>
        <time>2021-04-17T09:59:43Z</time>
      </trkpt>
      <trkpt lat="-25.4713080" lon="-49.2173570">
        <ele>924.6</ele>
        <time>2021-04-17T09:59:45Z</time>
      </trkpt>
      <trkpt lat="-25.4713080" lon="-49.2173570">
        <ele>924.6</ele>
        <time>2021-04-17T09:59:47Z</time>
      </trkpt>
      <trkpt lat="-25.4713080" lon="-49.2173570">
        <ele>924.6</ele>
        <time>2021-04-17T09:59:49Z</time>
      </trkpt>
      <trkpt lat="-25.4713080" lon="-49.2173570">
        <ele>924.6</ele>
        <time>2021-04-17T09:59:51Z</time>
      </trkpt>
      <trkpt lat="-25.4713070" lon="-49.2173580">
        <ele>924.4</ele>
        <time>2021-04-17T09:59:53Z</time>
      </trkpt>
      <trkpt lat="-25.4713070" lon="-49.2173580">
        <ele>924.4</ele>
        <time>2021-04-17T09:59:55Z</time>
      </trkpt>
      <trkpt lat="-25.4713070" lon="-49.2173580">
        <ele>924.4</ele>
        <time>2021-04-17T09:59:57Z</time>
      </trkpt>
      <trkpt lat="-25.4713070" lon="-49.2173580">
        <ele>924.4</ele>
        <time>2021-04-17T09:59:59Z</time>
      </trkpt>
      <trkpt lat="-25.4713070" lon="-49.2173580">
        <ele>924.4</ele>
        <time>2021-04-17T10:00:01Z</time>
      </trkpt>
      <trkpt lat="-25.4713070" lon="-49.2173580">
        <ele>924.4</ele>
        <time>2021-04-17T10:00:03Z</time>
      </trkpt>
      <trkpt lat="-25.4713070" lon="-49.2173580">
        <ele>924.4</ele>
        <time>2021-04-17T10:00:05Z</time>
      </trkpt>
      <trkpt lat="-25.4713070" lon="-49.2173580">
        <ele>924.4</ele>
        <time>2021-04-17T10:00:07Z</time>
      </trkpt>
      <trkpt lat="-25.4713070" lon="-49.2173580">
        <ele>924.4</ele>
        <time>2021-04-17T10:00:09Z</time>
      </trkpt>
      <trkpt lat="-25.4713060" lon="-49.2173580">
        <ele>924.4</ele>
        <time>2021-04-17T10:00:11Z</time>
      </trkpt>
      <trkpt lat="-25.4713070" lon="-49.2173580">
        <ele>924.4</ele>
        <time>2021-04-17T10:00:13Z</time>
      </trkpt>
      <trkpt lat="-25.4713060" lon="-49.2173580">
        <ele>924.4</ele>
        <time>2021-04-17T10:00:14Z</time>
      </trkpt>
      <trkpt lat="-25.4713070" lon="-49.2173580">
        <ele>924.4</ele>
        <time>2021-04-17T10:00:15Z</time>
      </trkpt>
      <trkpt lat="-25.4713060" lon="-49.2173580">
        <ele>924.4</ele>
        <time>2021-04-17T10:00:17Z</time>
      </trkpt>
      <trkpt lat="-25.4713070" lon="-49.2173580">
        <ele>924.4</ele>
        <time>2021-04-17T10:00:19Z</time>
      </trkpt>
      <trkpt lat="-25.4713070" lon="-49.2173580">
        <ele>924.4</ele>
        <time>2021-04-17T10:00:21Z</time>
      </trkpt>
      <trkpt lat="-25.4713070" lon="-49.2173580">
        <ele>924.4</ele>
        <time>2021-04-17T10:00:23Z</time>
      </trkpt>
      <trkpt lat="-25.4713080" lon="-49.2173580">
        <ele>924.4</ele>
        <time>2021-04-17T10:00:25Z</time>
      </trkpt>
      <trkpt lat="-25.4713070" lon="-49.2173580">
        <ele>924.4</ele>
        <time>2021-04-17T10:00:27Z</time>
      </trkpt>
      <trkpt lat="-25.4713070" lon="-49.2173580">
        <ele>924.4</ele>
        <time>2021-04-17T10:00:29Z</time>
      </trkpt>
      <trkpt lat="-25.4713070" lon="-49.2173580">
        <ele>924.4</ele>
        <time>2021-04-17T10:00:31Z</time>
      </trkpt>
      <trkpt lat="-25.4713070" lon="-49.2173590">
        <ele>924.4</ele>
        <time>2021-04-17T10:00:33Z</time>
      </trkpt>
      <trkpt lat="-25.4713070" lon="-49.2173590">
        <ele>924.4</ele>
        <time>2021-04-17T10:00:35Z</time>
      </trkpt>
      <trkpt lat="-25.4713070" lon="-49.2173590">
        <ele>924.4</ele>
        <time>2021-04-17T10:00:37Z</time>
      </trkpt>
      <trkpt lat="-25.4713070" lon="-49.2173590">
        <ele>924.4</ele>
        <time>2021-04-17T10:00:39Z</time>
      </trkpt>
      <trkpt lat="-25.4713070" lon="-49.2173590">
        <ele>924.4</ele>
        <time>2021-04-17T10:00:41Z</time>
      </trkpt>
      <trkpt lat="-25.4713070" lon="-49.2173590">
        <ele>924.4</ele>
        <time>2021-04-17T10:00:43Z</time>
      </trkpt>
      <trkpt lat="-25.4713070" lon="-49.2173590">
        <ele>924.4</ele>
        <time>2021-04-17T10:00:45Z</time>
      </trkpt>
      <trkpt lat="-25.4713070" lon="-49.2173590">
        <ele>924.4</ele>
        <time>2021-04-17T10:00:46Z</time>
      </trkpt>
      <trkpt lat="-25.4713070" lon="-49.2173590">
        <ele>924.4</ele>
        <time>2021-04-17T10:00:47Z</time>
      </trkpt>
      <trkpt lat="-25.4713070" lon="-49.2173590">
        <ele>924.4</ele>
        <time>2021-04-17T10:00:49Z</time>
      </trkpt>
      <trkpt lat="-25.4713070" lon="-49.2173590">
        <ele>924.4</ele>
        <time>2021-04-17T10:00:51Z</time>
      </trkpt>
      <trkpt lat="-25.4713070" lon="-49.2173590">
        <ele>924.4</ele>
        <time>2021-04-17T10:00:53Z</time>
      </trkpt>
      <trkpt lat="-25.4713070" lon="-49.2173590">
        <ele>924.4</ele>
        <time>2021-04-17T10:00:55Z</time>
      </trkpt>
      <trkpt lat="-25.4713070" lon="-49.2173590">
        <ele>924.4</ele>
        <time>2021-04-17T10:00:57Z</time>
      </trkpt>
      <trkpt lat="-25.4713060" lon="-49.2173590">
        <ele>924.4</ele>
        <time>2021-04-17T10:01:00Z</time>
      </trkpt>
      <trkpt lat="-25.4713060" lon="-49.2173590">
        <ele>924.4</ele>
        <time>2021-04-17T10:01:03Z</time>
      </trkpt>
      <trkpt lat="-25.4713060" lon="-49.2173600">
        <ele>924.4</ele>
        <time>2021-04-17T10:01:05Z</time>
      </trkpt>
      <trkpt lat="-25.4713060" lon="-49.2173600">
        <ele>924.4</ele>
        <time>2021-04-17T10:01:07Z</time>
      </trkpt>
      <trkpt lat="-25.4713060" lon="-49.2173600">
        <ele>924.4</ele>
        <time>2021-04-17T10:01:09Z</time>
      </trkpt>
      <trkpt lat="-25.4713060" lon="-49.2173600">
        <ele>924.4</ele>
        <time>2021-04-17T10:01:11Z</time>
      </trkpt>
      <trkpt lat="-25.4713060" lon="-49.2173600">
        <ele>924.4</ele>
        <time>2021-04-17T10:01:13Z</time>
      </trkpt>
      <trkpt lat="-25.4713060" lon="-49.2173600">
        <ele>924.4</ele>
        <time>2021-04-17T10:01:15Z</time>
      </trkpt>
      <trkpt lat="-25.4713060" lon="-49.2173600">
        <ele>924.4</ele>
        <time>2021-04-17T10:01:17Z</time>
      </trkpt>
      <trkpt lat="-25.4713060" lon="-49.2173600">
        <ele>924.4</ele>
        <time>2021-04-17T10:01:19Z</time>
      </trkpt>
      <trkpt lat="-25.4713060" lon="-49.2173600">
        <ele>924.4</ele>
        <time>2021-04-17T10:01:21Z</time>
      </trkpt>
      <trkpt lat="-25.4713060" lon="-49.2173600">
        <ele>924.4</ele>
        <time>2021-04-17T10:01:23Z</time>
      </trkpt>
      <trkpt lat="-25.4713050" lon="-49.2173600">
        <ele>924.4</ele>
        <time>2021-04-17T10:01:25Z</time>
      </trkpt>
      <trkpt lat="-25.4713050" lon="-49.2173600">
        <ele>924.4</ele>
        <time>2021-04-17T10:01:27Z</time>
      </trkpt>
      <trkpt lat="-25.4713050" lon="-49.2173600">
        <ele>924.6</ele>
        <time>2021-04-17T10:01:29Z</time>
      </trkpt>
      <trkpt lat="-25.4713050" lon="-49.2173600">
        <ele>924.6</ele>
        <time>2021-04-17T10:01:31Z</time>
      </trkpt>
      <trkpt lat="-25.4713050" lon="-49.2173600">
        <ele>924.6</ele>
        <time>2021-04-17T10:01:33Z</time>
      </trkpt>
      <trkpt lat="-25.4713050" lon="-49.2173600">
        <ele>924.6</ele>
        <time>2021-04-17T10:01:35Z</time>
      </trkpt>
      <trkpt lat="-25.4713050" lon="-49.2173600">
        <ele>924.6</ele>
        <time>2021-04-17T10:01:36Z</time>
      </trkpt>
      <trkpt lat="-25.4713050" lon="-49.2173600">
        <ele>924.6</ele>
        <time>2021-04-17T10:01:37Z</time>
      </trkpt>
      <trkpt lat="-25.4713060" lon="-49.2173580">
        <ele>924.6</ele>
        <time>2021-04-17T10:01:39Z</time>
      </trkpt>
      <trkpt lat="-25.4713050" lon="-49.2173580">
        <ele>924.6</ele>
        <time>2021-04-17T10:01:41Z</time>
      </trkpt>
      <trkpt lat="-25.4713050" lon="-49.2173580">
        <ele>924.6</ele>
        <time>2021-04-17T10:01:43Z</time>
      </trkpt>
      <trkpt lat="-25.4713050" lon="-49.2173580">
        <ele>924.6</ele>
        <time>2021-04-17T10:01:45Z</time>
      </trkpt>
      <trkpt lat="-25.4713050" lon="-49.2173580">
        <ele>924.6</ele>
        <time>2021-04-17T10:01:47Z</time>
      </trkpt>
      <trkpt lat="-25.4713050" lon="-49.2173580">
        <ele>924.6</ele>
        <time>2021-04-17T10:01:49Z</time>
      </trkpt>
      <trkpt lat="-25.4713050" lon="-49.2173580">
        <ele>924.6</ele>
        <time>2021-04-17T10:01:51Z</time>
      </trkpt>
      <trkpt lat="-25.4713050" lon="-49.2173580">
        <ele>924.6</ele>
        <time>2021-04-17T10:01:53Z</time>
      </trkpt>
      <trkpt lat="-25.4713050" lon="-49.2173580">
        <ele>924.6</ele>
        <time>2021-04-17T10:01:55Z</time>
      </trkpt>
      <trkpt lat="-25.4713050" lon="-49.2173580">
        <ele>924.6</ele>
        <time>2021-04-17T10:01:57Z</time>
      </trkpt>
      <trkpt lat="-25.4713040" lon="-49.2173590">
        <ele>924.6</ele>
        <time>2021-04-17T10:01:59Z</time>
      </trkpt>
      <trkpt lat="-25.4713040" lon="-49.2173590">
        <ele>924.6</ele>
        <time>2021-04-17T10:02:01Z</time>
      </trkpt>
      <trkpt lat="-25.4713040" lon="-49.2173590">
        <ele>924.6</ele>
        <time>2021-04-17T10:02:03Z</time>
      </trkpt>
      <trkpt lat="-25.4713040" lon="-49.2173590">
        <ele>924.6</ele>
        <time>2021-04-17T10:02:05Z</time>
      </trkpt>
      <trkpt lat="-25.4713040" lon="-49.2173590">
        <ele>924.6</ele>
        <time>2021-04-17T10:02:07Z</time>
      </trkpt>
      <trkpt lat="-25.4713040" lon="-49.2173590">
        <ele>924.6</ele>
        <time>2021-04-17T10:02:09Z</time>
      </trkpt>
      <trkpt lat="-25.4713040" lon="-49.2173600">
        <ele>924.6</ele>
        <time>2021-04-17T10:02:11Z</time>
      </trkpt>
      <trkpt lat="-25.4713040" lon="-49.2173600">
        <ele>924.6</ele>
        <time>2021-04-17T10:02:13Z</time>
      </trkpt>
      <trkpt lat="-25.4713040" lon="-49.2173600">
        <ele>924.6</ele>
        <time>2021-04-17T10:02:15Z</time>
      </trkpt>
      <trkpt lat="-25.4713040" lon="-49.2173600">
        <ele>924.6</ele>
        <time>2021-04-17T10:02:17Z</time>
      </trkpt>
      <trkpt lat="-25.4713040" lon="-49.2173600">
        <ele>924.6</ele>
        <time>2021-04-17T10:02:19Z</time>
      </trkpt>
      <trkpt lat="-25.4713040" lon="-49.2173600">
        <ele>924.6</ele>
        <time>2021-04-17T10:02:21Z</time>
      </trkpt>
      <trkpt lat="-25.4713030" lon="-49.2173600">
        <ele>924.6</ele>
        <time>2021-04-17T10:02:23Z</time>
      </trkpt>
      <trkpt lat="-25.4713030" lon="-49.2173600">
        <ele>924.4</ele>
        <time>2021-04-17T10:02:25Z</time>
      </trkpt>
      <trkpt lat="-25.4713030" lon="-49.2173600">
        <ele>924.4</ele>
        <time>2021-04-17T10:02:27Z</time>
      </trkpt>
      <trkpt lat="-25.4713030" lon="-49.2173600">
        <ele>924.4</ele>
        <time>2021-04-17T10:02:29Z</time>
      </trkpt>
      <trkpt lat="-25.4713030" lon="-49.2173600">
        <ele>924.4</ele>
        <time>2021-04-17T10:02:31Z</time>
      </trkpt>
      <trkpt lat="-25.4713030" lon="-49.2173600">
        <ele>924.4</ele>
        <time>2021-04-17T10:02:33Z</time>
      </trkpt>
      <trkpt lat="-25.4713020" lon="-49.2173600">
        <ele>924.4</ele>
        <time>2021-04-17T10:02:35Z</time>
      </trkpt>
      <trkpt lat="-25.4713020" lon="-49.2173600">
        <ele>924.4</ele>
        <time>2021-04-17T10:02:37Z</time>
      </trkpt>
      <trkpt lat="-25.4713020" lon="-49.2173600">
        <ele>924.6</ele>
        <time>2021-04-17T10:02:39Z</time>
      </trkpt>
      <trkpt lat="-25.4713020" lon="-49.2173600">
        <ele>924.6</ele>
        <time>2021-04-17T10:02:40Z</time>
      </trkpt>
      <trkpt lat="-25.4713020" lon="-49.2173600">
        <ele>924.6</ele>
        <time>2021-04-17T10:02:41Z</time>
      </trkpt>
      <trkpt lat="-25.4713020" lon="-49.2173600">
        <ele>924.6</ele>
        <time>2021-04-17T10:02:43Z</time>
      </trkpt>
      <trkpt lat="-25.4713020" lon="-49.2173600">
        <ele>924.6</ele>
        <time>2021-04-17T10:02:45Z</time>
      </trkpt>
      <trkpt lat="-25.4713020" lon="-49.2173600">
        <ele>924.6</ele>
        <time>2021-04-17T10:02:47Z</time>
      </trkpt>
      <trkpt lat="-25.4713020" lon="-49.2173600">
        <ele>924.6</ele>
        <time>2021-04-17T10:02:49Z</time>
      </trkpt>
      <trkpt lat="-25.4713020" lon="-49.2173600">
        <ele>924.6</ele>
        <time>2021-04-17T10:02:51Z</time>
      </trkpt>
      <trkpt lat="-25.4713020" lon="-49.2173600">
        <ele>924.6</ele>
        <time>2021-04-17T10:02:53Z</time>
      </trkpt>
      <trkpt lat="-25.4713020" lon="-49.2173600">
        <ele>924.6</ele>
        <time>2021-04-17T10:02:55Z</time>
      </trkpt>
      <trkpt lat="-25.4713020" lon="-49.2173600">
        <ele>924.6</ele>
        <time>2021-04-17T10:02:57Z</time>
      </trkpt>
      <trkpt lat="-25.4713020" lon="-49.2173600">
        <ele>924.6</ele>
        <time>2021-04-17T10:02:59Z</time>
      </trkpt>
      <trkpt lat="-25.4713020" lon="-49.2173600">
        <ele>924.6</ele>
        <time>2021-04-17T10:03:01Z</time>
      </trkpt>
      <trkpt lat="-25.4713020" lon="-49.2173600">
        <ele>924.6</ele>
        <time>2021-04-17T10:03:03Z</time>
      </trkpt>
      <trkpt lat="-25.4713020" lon="-49.2173600">
        <ele>924.6</ele>
        <time>2021-04-17T10:03:05Z</time>
      </trkpt>
      <trkpt lat="-25.4713020" lon="-49.2173600">
        <ele>924.6</ele>
        <time>2021-04-17T10:03:07Z</time>
      </trkpt>
      <trkpt lat="-25.4713020" lon="-49.2173610">
        <ele>924.6</ele>
        <time>2021-04-17T10:03:09Z</time>
      </trkpt>
      <trkpt lat="-25.4713020" lon="-49.2173610">
        <ele>924.6</ele>
        <time>2021-04-17T10:03:11Z</time>
      </trkpt>
      <trkpt lat="-25.4713020" lon="-49.2173610">
        <ele>924.6</ele>
        <time>2021-04-17T10:03:13Z</time>
      </trkpt>
      <trkpt lat="-25.4713020" lon="-49.2173610">
        <ele>924.6</ele>
        <time>2021-04-17T10:03:15Z</time>
      </trkpt>
      <trkpt lat="-25.4713020" lon="-49.2173610">
        <ele>924.6</ele>
        <time>2021-04-17T10:03:17Z</time>
      </trkpt>
      <trkpt lat="-25.4713010" lon="-49.2173610">
        <ele>924.6</ele>
        <time>2021-04-17T10:03:19Z</time>
      </trkpt>
      <trkpt lat="-25.4713010" lon="-49.2173610">
        <ele>924.6</ele>
        <time>2021-04-17T10:03:21Z</time>
      </trkpt>
      <trkpt lat="-25.4713010" lon="-49.2173610">
        <ele>924.6</ele>
        <time>2021-04-17T10:03:23Z</time>
      </trkpt>
      <trkpt lat="-25.4713010" lon="-49.2173610">
        <ele>924.6</ele>
        <time>2021-04-17T10:03:25Z</time>
      </trkpt>
      <trkpt lat="-25.4713010" lon="-49.2173610">
        <ele>924.6</ele>
        <time>2021-04-17T10:03:27Z</time>
      </trkpt>
      <trkpt lat="-25.4713010" lon="-49.2173620">
        <ele>924.6</ele>
        <time>2021-04-17T10:03:29Z</time>
      </trkpt>
      <trkpt lat="-25.4713010" lon="-49.2173620">
        <ele>924.6</ele>
        <time>2021-04-17T10:03:31Z</time>
      </trkpt>
      <trkpt lat="-25.4713010" lon="-49.2173620">
        <ele>924.4</ele>
        <time>2021-04-17T10:03:33Z</time>
      </trkpt>
      <trkpt lat="-25.4713010" lon="-49.2173620">
        <ele>924.4</ele>
        <time>2021-04-17T10:03:35Z</time>
      </trkpt>
      <trkpt lat="-25.4713010" lon="-49.2173620">
        <ele>924.4</ele>
        <time>2021-04-17T10:03:37Z</time>
      </trkpt>
      <trkpt lat="-25.4713010" lon="-49.2173620">
        <ele>924.4</ele>
        <time>2021-04-17T10:03:39Z</time>
      </trkpt>
      <trkpt lat="-25.4713010" lon="-49.2173620">
        <ele>924.4</ele>
        <time>2021-04-17T10:03:41Z</time>
      </trkpt>
      <trkpt lat="-25.4713000" lon="-49.2173620">
        <ele>924.4</ele>
        <time>2021-04-17T10:03:43Z</time>
      </trkpt>
      <trkpt lat="-25.4713000" lon="-49.2173620">
        <ele>924.4</ele>
        <time>2021-04-17T10:03:45Z</time>
      </trkpt>
      <trkpt lat="-25.4713000" lon="-49.2173620">
        <ele>924.4</ele>
        <time>2021-04-17T10:03:47Z</time>
      </trkpt>
      <trkpt lat="-25.4713000" lon="-49.2173620">
        <ele>924.4</ele>
        <time>2021-04-17T10:03:49Z</time>
      </trkpt>
      <trkpt lat="-25.4713000" lon="-49.2173630">
        <ele>924.4</ele>
        <time>2021-04-17T10:03:51Z</time>
      </trkpt>
      <trkpt lat="-25.4713000" lon="-49.2173630">
        <ele>924.4</ele>
        <time>2021-04-17T10:03:52Z</time>
      </trkpt>
      <trkpt lat="-25.4713000" lon="-49.2173630">
        <ele>924.4</ele>
        <time>2021-04-17T10:03:53Z</time>
      </trkpt>
      <trkpt lat="-25.4713000" lon="-49.2173630">
        <ele>924.4</ele>
        <time>2021-04-17T10:03:55Z</time>
      </trkpt>
      <trkpt lat="-25.4713000" lon="-49.2173620">
        <ele>924.4</ele>
        <time>2021-04-17T10:03:57Z</time>
      </trkpt>
      <trkpt lat="-25.4713000" lon="-49.2173630">
        <ele>924.6</ele>
        <time>2021-04-17T10:03:59Z</time>
      </trkpt>
      <trkpt lat="-25.4713000" lon="-49.2173620">
        <ele>924.6</ele>
        <time>2021-04-17T10:04:01Z</time>
      </trkpt>
      <trkpt lat="-25.4713000" lon="-49.2173630">
        <ele>924.6</ele>
        <time>2021-04-17T10:04:03Z</time>
      </trkpt>
      <trkpt lat="-25.4713000" lon="-49.2173630">
        <ele>924.4</ele>
        <time>2021-04-17T10:04:05Z</time>
      </trkpt>
      <trkpt lat="-25.4712990" lon="-49.2173630">
        <ele>924.6</ele>
        <time>2021-04-17T10:04:07Z</time>
      </trkpt>
      <trkpt lat="-25.4712990" lon="-49.2173630">
        <ele>924.6</ele>
        <time>2021-04-17T10:04:09Z</time>
      </trkpt>
      <trkpt lat="-25.4712990" lon="-49.2173630">
        <ele>924.6</ele>
        <time>2021-04-17T10:04:11Z</time>
      </trkpt>
      <trkpt lat="-25.4712990" lon="-49.2173630">
        <ele>924.6</ele>
        <time>2021-04-17T10:04:13Z</time>
      </trkpt>
      <trkpt lat="-25.4712990" lon="-49.2173630">
        <ele>924.6</ele>
        <time>2021-04-17T10:04:15Z</time>
      </trkpt>
      <trkpt lat="-25.4712990" lon="-49.2173630">
        <ele>924.6</ele>
        <time>2021-04-17T10:04:17Z</time>
      </trkpt>
      <trkpt lat="-25.4712990" lon="-49.2173630">
        <ele>924.6</ele>
        <time>2021-04-17T10:04:19Z</time>
      </trkpt>
      <trkpt lat="-25.4712990" lon="-49.2173630">
        <ele>924.6</ele>
        <time>2021-04-17T10:04:21Z</time>
      </trkpt>
      <trkpt lat="-25.4712990" lon="-49.2173630">
        <ele>924.6</ele>
        <time>2021-04-17T10:04:23Z</time>
      </trkpt>
      <trkpt lat="-25.4713000" lon="-49.2173630">
        <ele>924.6</ele>
        <time>2021-04-17T10:04:25Z</time>
      </trkpt>
      <trkpt lat="-25.4713000" lon="-49.2173630">
        <ele>924.6</ele>
        <time>2021-04-17T10:04:27Z</time>
      </trkpt>
      <trkpt lat="-25.4713000" lon="-49.2173630">
        <ele>924.6</ele>
        <time>2021-04-17T10:04:29Z</time>
      </trkpt>
      <trkpt lat="-25.4713000" lon="-49.2173630">
        <ele>924.4</ele>
        <time>2021-04-17T10:04:31Z</time>
      </trkpt>
      <trkpt lat="-25.4713000" lon="-49.2173630">
        <ele>924.4</ele>
        <time>2021-04-17T10:04:33Z</time>
      </trkpt>
      <trkpt lat="-25.4713000" lon="-49.2173630">
        <ele>924.4</ele>
        <time>2021-04-17T10:04:35Z</time>
      </trkpt>
      <trkpt lat="-25.4713000" lon="-49.2173630">
        <ele>924.4</ele>
        <time>2021-04-17T10:04:37Z</time>
      </trkpt>
      <trkpt lat="-25.4713000" lon="-49.2173630">
        <ele>924.4</ele>
        <time>2021-04-17T10:04:39Z</time>
      </trkpt>
      <trkpt lat="-25.4713000" lon="-49.2173630">
        <ele>924.4</ele>
        <time>2021-04-17T10:04:41Z</time>
      </trkpt>
      <trkpt lat="-25.4713000" lon="-49.2173630">
        <ele>924.4</ele>
        <time>2021-04-17T10:04:43Z</time>
      </trkpt>
      <trkpt lat="-25.4713000" lon="-49.2173630">
        <ele>924.4</ele>
        <time>2021-04-17T10:04:45Z</time>
      </trkpt>
      <trkpt lat="-25.4713000" lon="-49.2173630">
        <ele>924.4</ele>
        <time>2021-04-17T10:04:47Z</time>
      </trkpt>
      <trkpt lat="-25.4713000" lon="-49.2173630">
        <ele>924.4</ele>
        <time>2021-04-17T10:04:49Z</time>
      </trkpt>
      <trkpt lat="-25.4712990" lon="-49.2173630">
        <ele>924.4</ele>
        <time>2021-04-17T10:04:51Z</time>
      </trkpt>
      <trkpt lat="-25.4712990" lon="-49.2173630">
        <ele>924.4</ele>
        <time>2021-04-17T10:04:53Z</time>
      </trkpt>
      <trkpt lat="-25.4712990" lon="-49.2173640">
        <ele>924.4</ele>
        <time>2021-04-17T10:04:55Z</time>
      </trkpt>
      <trkpt lat="-25.4712990" lon="-49.2173630">
        <ele>924.4</ele>
        <time>2021-04-17T10:04:57Z</time>
      </trkpt>
      <trkpt lat="-25.4712990" lon="-49.2173630">
        <ele>924.4</ele>
        <time>2021-04-17T10:04:59Z</time>
      </trkpt>
      <trkpt lat="-25.4713000" lon="-49.2173640">
        <ele>924.4</ele>
        <time>2021-04-17T10:05:01Z</time>
      </trkpt>
      <trkpt lat="-25.4712990" lon="-49.2173640">
        <ele>924.4</ele>
        <time>2021-04-17T10:05:03Z</time>
      </trkpt>
      <trkpt lat="-25.4712990" lon="-49.2173640">
        <ele>924.4</ele>
        <time>2021-04-17T10:05:05Z</time>
      </trkpt>
      <trkpt lat="-25.4712990" lon="-49.2173650">
        <ele>924.4</ele>
        <time>2021-04-17T10:05:06Z</time>
      </trkpt>
      <trkpt lat="-25.4712990" lon="-49.2173650">
        <ele>924.4</ele>
        <time>2021-04-17T10:05:07Z</time>
      </trkpt>
      <trkpt lat="-25.4712990" lon="-49.2173650">
        <ele>924.4</ele>
        <time>2021-04-17T10:05:09Z</time>
      </trkpt>
      <trkpt lat="-25.4712990" lon="-49.2173650">
        <ele>924.4</ele>
        <time>2021-04-17T10:05:11Z</time>
      </trkpt>
      <trkpt lat="-25.4712990" lon="-49.2173640">
        <ele>924.4</ele>
        <time>2021-04-17T10:05:13Z</time>
      </trkpt>
      <trkpt lat="-25.4712990" lon="-49.2173650">
        <ele>924.4</ele>
        <time>2021-04-17T10:05:15Z</time>
      </trkpt>
      <trkpt lat="-25.4712990" lon="-49.2173650">
        <ele>924.4</ele>
        <time>2021-04-17T10:05:17Z</time>
      </trkpt>
      <trkpt lat="-25.4712990" lon="-49.2173650">
        <ele>924.4</ele>
        <time>2021-04-17T10:05:19Z</time>
      </trkpt>
      <trkpt lat="-25.4712990" lon="-49.2173650">
        <ele>924.4</ele>
        <time>2021-04-17T10:05:21Z</time>
      </trkpt>
      <trkpt lat="-25.4712990" lon="-49.2173650">
        <ele>924.2</ele>
        <time>2021-04-17T10:05:22Z</time>
      </trkpt>
      <trkpt lat="-25.4712990" lon="-49.2173650">
        <ele>924.2</ele>
        <time>2021-04-17T10:05:23Z</time>
      </trkpt>
      <trkpt lat="-25.4712990" lon="-49.2173650">
        <ele>924.2</ele>
        <time>2021-04-17T10:05:25Z</time>
      </trkpt>
      <trkpt lat="-25.4712990" lon="-49.2173650">
        <ele>924.2</ele>
        <time>2021-04-17T10:05:27Z</time>
      </trkpt>
      <trkpt lat="-25.4712990" lon="-49.2173650">
        <ele>924.2</ele>
        <time>2021-04-17T10:05:29Z</time>
      </trkpt>
      <trkpt lat="-25.4712990" lon="-49.2173650">
        <ele>924.2</ele>
        <time>2021-04-17T10:05:31Z</time>
      </trkpt>
      <trkpt lat="-25.4712990" lon="-49.2173650">
        <ele>924.2</ele>
        <time>2021-04-17T10:05:33Z</time>
      </trkpt>
      <trkpt lat="-25.4713000" lon="-49.2173650">
        <ele>924.2</ele>
        <time>2021-04-17T10:05:35Z</time>
      </trkpt>
      <trkpt lat="-25.4713000" lon="-49.2173650">
        <ele>924.2</ele>
        <time>2021-04-17T10:05:37Z</time>
      </trkpt>
      <trkpt lat="-25.4712990" lon="-49.2173650">
        <ele>924.2</ele>
        <time>2021-04-17T10:05:39Z</time>
      </trkpt>
      <trkpt lat="-25.4712990" lon="-49.2173650">
        <ele>924.2</ele>
        <time>2021-04-17T10:05:41Z</time>
      </trkpt>
      <trkpt lat="-25.4712990" lon="-49.2173650">
        <ele>924.2</ele>
        <time>2021-04-17T10:05:43Z</time>
      </trkpt>
      <trkpt lat="-25.4712990" lon="-49.2173650">
        <ele>924.0</ele>
        <time>2021-04-17T10:05:45Z</time>
      </trkpt>
      <trkpt lat="-25.4712990" lon="-49.2173650">
        <ele>924.0</ele>
        <time>2021-04-17T10:05:47Z</time>
      </trkpt>
      <trkpt lat="-25.4712990" lon="-49.2173650">
        <ele>924.0</ele>
        <time>2021-04-17T10:05:49Z</time>
      </trkpt>
      <trkpt lat="-25.4712990" lon="-49.2173650">
        <ele>924.0</ele>
        <time>2021-04-17T10:05:51Z</time>
      </trkpt>
      <trkpt lat="-25.4712990" lon="-49.2173650">
        <ele>924.0</ele>
        <time>2021-04-17T10:05:53Z</time>
      </trkpt>
      <trkpt lat="-25.4712990" lon="-49.2173650">
        <ele>924.0</ele>
        <time>2021-04-17T10:05:54Z</time>
      </trkpt>
      <trkpt lat="-25.4703810" lon="-49.2161470">
        <ele>921.2</ele>
        <time>2021-04-17T10:07:59Z</time>
      </trkpt>
      <trkpt lat="-25.4703420" lon="-49.2160880">
        <ele>921.2</ele>
        <time>2021-04-17T10:08:00Z</time>
      </trkpt>
      <trkpt lat="-25.4703020" lon="-49.2160300">
        <ele>920.8</ele>
        <time>2021-04-17T10:08:01Z</time>
      </trkpt>
      <trkpt lat="-25.4702190" lon="-49.2159200">
        <ele>920.4</ele>
        <time>2021-04-17T10:08:03Z</time>
      </trkpt>
      <trkpt lat="-25.4701770" lon="-49.2158660">
        <ele>920.0</ele>
        <time>2021-04-17T10:08:04Z</time>
      </trkpt>
      <trkpt lat="-25.4701350" lon="-49.2158080">
        <ele>919.8</ele>
        <time>2021-04-17T10:08:05Z</time>
      </trkpt>
      <trkpt lat="-25.4700930" lon="-49.2157500">
        <ele>919.6</ele>
        <time>2021-04-17T10:08:06Z</time>
      </trkpt>
      <trkpt lat="-25.4700500" lon="-49.2156910">
        <ele>919.6</ele>
        <time>2021-04-17T10:08:07Z</time>
      </trkpt>
      <trkpt lat="-25.4699680" lon="-49.2155740">
        <ele>919.2</ele>
        <time>2021-04-17T10:08:09Z</time>
      </trkpt>
      <trkpt lat="-25.4698880" lon="-49.2154540">
        <ele>919.0</ele>
        <time>2021-04-17T10:08:11Z</time>
      </trkpt>
      <trkpt lat="-25.4698080" lon="-49.2153330">
        <ele>918.8</ele>
        <time>2021-04-17T10:08:13Z</time>
      </trkpt>
      <trkpt lat="-25.4697260" lon="-49.2152120">
        <ele>918.6</ele>
        <time>2021-04-17T10:08:15Z</time>
      </trkpt>
      <trkpt lat="-25.4696440" lon="-49.2150870">
        <ele>918.4</ele>
        <time>2021-04-17T10:08:17Z</time>
      </trkpt>
      <trkpt lat="-25.4695590" lon="-49.2149620">
        <ele>917.8</ele>
        <time>2021-04-17T10:08:19Z</time>
      </trkpt>
      <trkpt lat="-25.4695320" lon="-49.2149210">
        <ele>917.6</ele>
        <time>2021-04-17T10:08:20Z</time>
      </trkpt>
      <trkpt lat="-25.4695040" lon="-49.2148810">
        <ele>917.4</ele>
        <time>2021-04-17T10:08:21Z</time>
      </trkpt>
      <trkpt lat="-25.4693950" lon="-49.2147200">
        <ele>917.0</ele>
        <time>2021-04-17T10:08:23Z</time>
      </trkpt>
      <trkpt lat="-25.4693560" lon="-49.2146590">
        <ele>916.8</ele>
        <time>2021-04-17T10:08:24Z</time>
      </trkpt>
      <trkpt lat="-25.4693200" lon="-49.2146010">
        <ele>916.8</ele>
        <time>2021-04-17T10:08:25Z</time>
      </trkpt>
      <trkpt lat="-25.4692500" lon="-49.2144850">
        <ele>916.6</ele>
        <time>2021-04-17T10:08:27Z</time>
      </trkpt>
      <trkpt lat="-25.4691720" lon="-49.2143720">
        <ele>916.4</ele>
        <time>2021-04-17T10:08:29Z</time>
      </trkpt>
      <trkpt lat="-25.4691350" lon="-49.2143170">
        <ele>916.4</ele>
        <time>2021-04-17T10:08:30Z</time>
      </trkpt>
      <trkpt lat="-25.4690980" lon="-49.2142620">
        <ele>916.2</ele>
        <time>2021-04-17T10:08:31Z</time>
      </trkpt>
      <trkpt lat="-25.4690290" lon="-49.2141560">
        <ele>916.2</ele>
        <time>2021-04-17T10:08:33Z</time>
      </trkpt>
      <trkpt lat="-25.4689640" lon="-49.2140490">
        <ele>915.8</ele>
        <time>2021-04-17T10:08:35Z</time>
      </trkpt>
      <trkpt lat="-25.4689310" lon="-49.2139980">
        <ele>915.0</ele>
        <time>2021-04-17T10:08:36Z</time>
      </trkpt>
      <trkpt lat="-25.4689020" lon="-49.2139560">
        <ele>914.8</ele>
        <time>2021-04-17T10:08:37Z</time>
      </trkpt>
      <trkpt lat="-25.4688610" lon="-49.2138970">
        <ele>914.6</ele>
        <time>2021-04-17T10:08:39Z</time>
      </trkpt>
      <trkpt lat="-25.4688440" lon="-49.2138680">
        <ele>914.6</ele>
        <time>2021-04-17T10:08:41Z</time>
      </trkpt>
      <trkpt lat="-25.4688420" lon="-49.2138620">
        <ele>914.4</ele>
        <time>2021-04-17T10:08:43Z</time>
      </trkpt>
      <trkpt lat="-25.4688430" lon="-49.2138560">
        <ele>914.4</ele>
        <time>2021-04-17T10:08:45Z</time>
      </trkpt>
      <trkpt lat="-25.4688440" lon="-49.2138550">
        <ele>914.2</ele>
        <time>2021-04-17T10:08:47Z</time>
      </trkpt>
      <trkpt lat="-25.4688440" lon="-49.2138550">
        <ele>914.0</ele>
        <time>2021-04-17T10:08:48Z</time>
      </trkpt>
      <trkpt lat="-25.4688440" lon="-49.2138550">
        <ele>914.0</ele>
        <time>2021-04-17T10:08:49Z</time>
      </trkpt>
      <trkpt lat="-25.4688440" lon="-49.2138540">
        <ele>914.0</ele>
        <time>2021-04-17T10:08:51Z</time>
      </trkpt>
      <trkpt lat="-25.4688440" lon="-49.2138540">
        <ele>914.0</ele>
        <time>2021-04-17T10:08:53Z</time>
      </trkpt>
      <trkpt lat="-25.4688440" lon="-49.2138450">
        <ele>914.0</ele>
        <time>2021-04-17T10:08:54Z</time>
      </trkpt>
      <trkpt lat="-25.4688450" lon="-49.2138310">
        <ele>914.0</ele>
        <time>2021-04-17T10:08:55Z</time>
      </trkpt>
      <trkpt lat="-25.4688450" lon="-49.2138310">
        <ele>914.0</ele>
        <time>2021-04-17T10:08:56Z</time>
      </trkpt>
      <trkpt lat="-25.4688460" lon="-49.2138020">
        <ele>914.0</ele>
        <time>2021-04-17T10:08:57Z</time>
      </trkpt>
      <trkpt lat="-25.4688490" lon="-49.2137840">
        <ele>913.8</ele>
        <time>2021-04-17T10:08:59Z</time>
      </trkpt>
      <trkpt lat="-25.4688720" lon="-49.2137100">
        <ele>913.8</ele>
        <time>2021-04-17T10:09:01Z</time>
      </trkpt>
      <trkpt lat="-25.4688920" lon="-49.2136820">
        <ele>913.8</ele>
        <time>2021-04-17T10:09:02Z</time>
      </trkpt>
      <trkpt lat="-25.4689110" lon="-49.2136540">
        <ele>913.8</ele>
        <time>2021-04-17T10:09:03Z</time>
      </trkpt>
      <trkpt lat="-25.4689640" lon="-49.2135940">
        <ele>913.8</ele>
        <time>2021-04-17T10:09:05Z</time>
      </trkpt>
      <trkpt lat="-25.4689950" lon="-49.2135650">
        <ele>913.8</ele>
        <time>2021-04-17T10:09:06Z</time>
      </trkpt>
      <trkpt lat="-25.4690280" lon="-49.2135360">
        <ele>913.8</ele>
        <time>2021-04-17T10:09:07Z</time>
      </trkpt>
      <trkpt lat="-25.4691010" lon="-49.2134770">
        <ele>913.8</ele>
        <time>2021-04-17T10:09:09Z</time>
      </trkpt>
      <trkpt lat="-25.4691800" lon="-49.2134160">
        <ele>913.8</ele>
        <time>2021-04-17T10:09:11Z</time>
      </trkpt>
      <trkpt lat="-25.4692640" lon="-49.2133560">
        <ele>913.8</ele>
        <time>2021-04-17T10:09:13Z</time>
      </trkpt>
      <trkpt lat="-25.4693610" lon="-49.2132970">
        <ele>913.8</ele>
        <time>2021-04-17T10:09:15Z</time>
      </trkpt>
      <trkpt lat="-25.4694640" lon="-49.2132380">
        <ele>913.8</ele>
        <time>2021-04-17T10:09:17Z</time>
      </trkpt>
      <trkpt lat="-25.4695130" lon="-49.2132000">
        <ele>913.8</ele>
        <time>2021-04-17T10:09:18Z</time>
      </trkpt>
      <trkpt lat="-25.4695610" lon="-49.2131620">
        <ele>913.8</ele>
        <time>2021-04-17T10:09:19Z</time>
      </trkpt>
      <trkpt lat="-25.4696530" lon="-49.2130840">
        <ele>914.0</ele>
        <time>2021-04-17T10:09:21Z</time>
      </trkpt>
      <trkpt lat="-25.4697440" lon="-49.2130120">
        <ele>914.2</ele>
        <time>2021-04-17T10:09:23Z</time>
      </trkpt>
      <trkpt lat="-25.4698290" lon="-49.2129380">
        <ele>914.2</ele>
        <time>2021-04-17T10:09:25Z</time>
      </trkpt>
      <trkpt lat="-25.4699100" lon="-49.2128640">
        <ele>914.4</ele>
        <time>2021-04-17T10:09:27Z</time>
      </trkpt>
      <trkpt lat="-25.4699900" lon="-49.2127900">
        <ele>914.4</ele>
        <time>2021-04-17T10:09:29Z</time>
      </trkpt>
      <trkpt lat="-25.4700760" lon="-49.2127200">
        <ele>914.4</ele>
        <time>2021-04-17T10:09:31Z</time>
      </trkpt>
      <trkpt lat="-25.4701640" lon="-49.2126500">
        <ele>914.4</ele>
        <time>2021-04-17T10:09:33Z</time>
      </trkpt>
      <trkpt lat="-25.4702090" lon="-49.2126160">
        <ele>914.6</ele>
        <time>2021-04-17T10:09:35Z</time>
      </trkpt>
      <trkpt lat="-25.4702960" lon="-49.2125480">
        <ele>914.6</ele>
        <time>2021-04-17T10:09:36Z</time>
      </trkpt>
      <trkpt lat="-25.4703400" lon="-49.2125170">
        <ele>914.6</ele>
        <time>2021-04-17T10:09:37Z</time>
      </trkpt>
      <trkpt lat="-25.4704280" lon="-49.2124500">
        <ele>914.6</ele>
        <time>2021-04-17T10:09:39Z</time>
      </trkpt>
      <trkpt lat="-25.4705150" lon="-49.2123800">
        <ele>914.6</ele>
        <time>2021-04-17T10:09:41Z</time>
      </trkpt>
      <trkpt lat="-25.4705560" lon="-49.2123480">
        <ele>914.4</ele>
        <time>2021-04-17T10:09:43Z</time>
      </trkpt>
      <trkpt lat="-25.4706760" lon="-49.2122520">
        <ele>914.4</ele>
        <time>2021-04-17T10:09:45Z</time>
      </trkpt>
      <trkpt lat="-25.4707610" lon="-49.2121740">
        <ele>914.4</ele>
        <time>2021-04-17T10:09:47Z</time>
      </trkpt>
      <trkpt lat="-25.4708530" lon="-49.2120910">
        <ele>914.4</ele>
        <time>2021-04-17T10:09:49Z</time>
      </trkpt>
      <trkpt lat="-25.4709540" lon="-49.2120150">
        <ele>914.4</ele>
        <time>2021-04-17T10:09:51Z</time>
      </trkpt>
      <trkpt lat="-25.4710060" lon="-49.2119750">
        <ele>914.4</ele>
        <time>2021-04-17T10:09:52Z</time>
      </trkpt>
      <trkpt lat="-25.4710580" lon="-49.2119340">
        <ele>914.2</ele>
        <time>2021-04-17T10:09:53Z</time>
      </trkpt>
      <trkpt lat="-25.4711670" lon="-49.2118490">
        <ele>914.0</ele>
        <time>2021-04-17T10:09:55Z</time>
      </trkpt>
      <trkpt lat="-25.4712240" lon="-49.2118050">
        <ele>913.8</ele>
        <time>2021-04-17T10:09:57Z</time>
      </trkpt>
      <trkpt lat="-25.4713990" lon="-49.2116660">
        <ele>913.6</ele>
        <time>2021-04-17T10:09:59Z</time>
      </trkpt>
      <trkpt lat="-25.4714600" lon="-49.2116180">
        <ele>913.4</ele>
        <time>2021-04-17T10:10:00Z</time>
      </trkpt>
      <trkpt lat="-25.4715210" lon="-49.2115690">
        <ele>913.2</ele>
        <time>2021-04-17T10:10:01Z</time>
      </trkpt>
      <trkpt lat="-25.4715620" lon="-49.2115370">
        <ele>913.0</ele>
        <time>2021-04-17T10:10:02Z</time>
      </trkpt>
      <trkpt lat="-25.4716030" lon="-49.2115040">
        <ele>912.8</ele>
        <time>2021-04-17T10:10:03Z</time>
      </trkpt>
      <trkpt lat="-25.4717680" lon="-49.2113730">
        <ele>912.2</ele>
        <time>2021-04-17T10:10:05Z</time>
      </trkpt>
      <trkpt lat="-25.4718290" lon="-49.2113250">
        <ele>912.0</ele>
        <time>2021-04-17T10:10:06Z</time>
      </trkpt>
      <trkpt lat="-25.4718900" lon="-49.2112770">
        <ele>911.8</ele>
        <time>2021-04-17T10:10:07Z</time>
      </trkpt>
      <trkpt lat="-25.4720090" lon="-49.2111810">
        <ele>911.0</ele>
        <time>2021-04-17T10:10:09Z</time>
      </trkpt>
      <trkpt lat="-25.4720680" lon="-49.2111340">
        <ele>910.6</ele>
        <time>2021-04-17T10:10:10Z</time>
      </trkpt>
      <trkpt lat="-25.4721260" lon="-49.2110890">
        <ele>910.2</ele>
        <time>2021-04-17T10:10:11Z</time>
      </trkpt>
      <trkpt lat="-25.4722410" lon="-49.2110000">
        <ele>909.8</ele>
        <time>2021-04-17T10:10:13Z</time>
      </trkpt>
      <trkpt lat="-25.4723600" lon="-49.2109130">
        <ele>909.6</ele>
        <time>2021-04-17T10:10:15Z</time>
      </trkpt>
      <trkpt lat="-25.4724230" lon="-49.2108700">
        <ele>909.6</ele>
        <time>2021-04-17T10:10:16Z</time>
      </trkpt>
      <trkpt lat="-25.4724880" lon="-49.2108280">
        <ele>909.4</ele>
        <time>2021-04-17T10:10:17Z</time>
      </trkpt>
      <trkpt lat="-25.4725540" lon="-49.2107860">
        <ele>909.4</ele>
        <time>2021-04-17T10:10:18Z</time>
      </trkpt>
      <trkpt lat="-25.4726220" lon="-49.2107430">
        <ele>909.2</ele>
        <time>2021-04-17T10:10:19Z</time>
      </trkpt>
      <trkpt lat="-25.4727630" lon="-49.2106600">
        <ele>908.8</ele>
        <time>2021-04-17T10:10:21Z</time>
      </trkpt>
      <trkpt lat="-25.4728360" lon="-49.2106220">
        <ele>908.8</ele>
        <time>2021-04-17T10:10:22Z</time>
      </trkpt>
      <trkpt lat="-25.4729120" lon="-49.2105890">
        <ele>908.6</ele>
        <time>2021-04-17T10:10:23Z</time>
      </trkpt>
      <trkpt lat="-25.4729900" lon="-49.2105610">
        <ele>908.4</ele>
        <time>2021-04-17T10:10:24Z</time>
      </trkpt>
      <trkpt lat="-25.4730690" lon="-49.2105370">
        <ele>908.0</ele>
        <time>2021-04-17T10:10:25Z</time>
      </trkpt>
      <trkpt lat="-25.4731180" lon="-49.2105100">
        <ele>907.6</ele>
        <time>2021-04-17T10:10:26Z</time>
      </trkpt>
      <trkpt lat="-25.4731660" lon="-49.2104830">
        <ele>907.2</ele>
        <time>2021-04-17T10:10:27Z</time>
      </trkpt>
      <trkpt lat="-25.4733600" lon="-49.2103760">
        <ele>906.6</ele>
        <time>2021-04-17T10:10:29Z</time>
      </trkpt>
      <trkpt lat="-25.4734130" lon="-49.2103100">
        <ele>906.4</ele>
        <time>2021-04-17T10:10:30Z</time>
      </trkpt>
      <trkpt lat="-25.4734570" lon="-49.2102370">
        <ele>906.2</ele>
        <time>2021-04-17T10:10:31Z</time>
      </trkpt>
      <trkpt lat="-25.4734840" lon="-49.2101920">
        <ele>906.0</ele>
        <time>2021-04-17T10:10:32Z</time>
      </trkpt>
      <trkpt lat="-25.4735110" lon="-49.2101460">
        <ele>905.8</ele>
        <time>2021-04-17T10:10:33Z</time>
      </trkpt>
      <trkpt lat="-25.4736180" lon="-49.2099640">
        <ele>905.6</ele>
        <time>2021-04-17T10:10:35Z</time>
      </trkpt>
      <trkpt lat="-25.4737090" lon="-49.2098620">
        <ele>905.6</ele>
        <time>2021-04-17T10:10:37Z</time>
      </trkpt>
      <trkpt lat="-25.4738070" lon="-49.2097790">
        <ele>905.6</ele>
        <time>2021-04-17T10:10:39Z</time>
      </trkpt>
      <trkpt lat="-25.4739010" lon="-49.2097010">
        <ele>905.6</ele>
        <time>2021-04-17T10:10:41Z</time>
      </trkpt>
      <trkpt lat="-25.4739920" lon="-49.2096290">
        <ele>905.6</ele>
        <time>2021-04-17T10:10:43Z</time>
      </trkpt>
      <trkpt lat="-25.4740790" lon="-49.2095600">
        <ele>905.6</ele>
        <time>2021-04-17T10:10:45Z</time>
      </trkpt>
      <trkpt lat="-25.4741650" lon="-49.2094950">
        <ele>906.0</ele>
        <time>2021-04-17T10:10:47Z</time>
      </trkpt>
      <trkpt lat="-25.4742090" lon="-49.2094670">
        <ele>906.2</ele>
        <time>2021-04-17T10:10:49Z</time>
      </trkpt>
      <trkpt lat="-25.4742530" lon="-49.2094430">
        <ele>906.4</ele>
        <time>2021-04-17T10:10:50Z</time>
      </trkpt>
      <trkpt lat="-25.4743470" lon="-49.2094140">
        <ele>906.8</ele>
        <time>2021-04-17T10:10:51Z</time>
      </trkpt>
      <trkpt lat="-25.4744420" lon="-49.2094080">
        <ele>907.2</ele>
        <time>2021-04-17T10:10:53Z</time>
      </trkpt>
      <trkpt lat="-25.4745370" lon="-49.2094210">
        <ele>908.0</ele>
        <time>2021-04-17T10:10:55Z</time>
      </trkpt>
      <trkpt lat="-25.4746290" lon="-49.2094390">
        <ele>908.2</ele>
        <time>2021-04-17T10:10:57Z</time>
      </trkpt>
      <trkpt lat="-25.4747140" lon="-49.2094580">
        <ele>908.8</ele>
        <time>2021-04-17T10:10:59Z</time>
      </trkpt>
      <trkpt lat="-25.4747530" lon="-49.2094640">
        <ele>909.2</ele>
        <time>2021-04-17T10:11:00Z</time>
      </trkpt>
      <trkpt lat="-25.4747890" lon="-49.2094690">
        <ele>909.4</ele>
        <time>2021-04-17T10:11:01Z</time>
      </trkpt>
      <trkpt lat="-25.4748690" lon="-49.2094800">
        <ele>909.6</ele>
        <time>2021-04-17T10:11:03Z</time>
      </trkpt>
      <trkpt lat="-25.4749610" lon="-49.2094900">
        <ele>910.0</ele>
        <time>2021-04-17T10:11:05Z</time>
      </trkpt>
      <trkpt lat="-25.4750570" lon="-49.2095060">
        <ele>910.2</ele>
        <time>2021-04-17T10:11:07Z</time>
      </trkpt>
      <trkpt lat="-25.4751040" lon="-49.2095140">
        <ele>910.2</ele>
        <time>2021-04-17T10:11:08Z</time>
      </trkpt>
      <trkpt lat="-25.4751510" lon="-49.2095220">
        <ele>910.4</ele>
        <time>2021-04-17T10:11:09Z</time>
      </trkpt>
      <trkpt lat="-25.4751970" lon="-49.2095290">
        <ele>910.6</ele>
        <time>2021-04-17T10:11:10Z</time>
      </trkpt>
      <trkpt lat="-25.4752410" lon="-49.2095350">
        <ele>910.8</ele>
        <time>2021-04-17T10:11:11Z</time>
      </trkpt>
      <trkpt lat="-25.4753300" lon="-49.2095480">
        <ele>911.0</ele>
        <time>2021-04-17T10:11:13Z</time>
      </trkpt>
      <trkpt lat="-25.4754160" lon="-49.2095610">
        <ele>911.0</ele>
        <time>2021-04-17T10:11:15Z</time>
      </trkpt>
      <trkpt lat="-25.4755010" lon="-49.2095760">
        <ele>911.4</ele>
        <time>2021-04-17T10:11:17Z</time>
      </trkpt>
      <trkpt lat="-25.4755860" lon="-49.2095900">
        <ele>911.6</ele>
        <time>2021-04-17T10:11:19Z</time>
      </trkpt>
      <trkpt lat="-25.4756710" lon="-49.2096040">
        <ele>911.6</ele>
        <time>2021-04-17T10:11:21Z</time>
      </trkpt>
      <trkpt lat="-25.4757580" lon="-49.2096150">
        <ele>911.8</ele>
        <time>2021-04-17T10:11:23Z</time>
      </trkpt>
      <trkpt lat="-25.4758410" lon="-49.2096200">
        <ele>912.6</ele>
        <time>2021-04-17T10:11:25Z</time>
      </trkpt>
      <trkpt lat="-25.4759240" lon="-49.2096330">
        <ele>913.0</ele>
        <time>2021-04-17T10:11:27Z</time>
      </trkpt>
      <trkpt lat="-25.4760060" lon="-49.2096460">
        <ele>913.2</ele>
        <time>2021-04-17T10:11:29Z</time>
      </trkpt>
      <trkpt lat="-25.4760840" lon="-49.2096580">
        <ele>913.4</ele>
        <time>2021-04-17T10:11:31Z</time>
      </trkpt>
      <trkpt lat="-25.4761230" lon="-49.2096630">
        <ele>913.6</ele>
        <time>2021-04-17T10:11:32Z</time>
      </trkpt>
      <trkpt lat="-25.4761610" lon="-49.2096690">
        <ele>913.8</ele>
        <time>2021-04-17T10:11:33Z</time>
      </trkpt>
      <trkpt lat="-25.4762390" lon="-49.2096830">
        <ele>914.4</ele>
        <time>2021-04-17T10:11:35Z</time>
      </trkpt>
      <trkpt lat="-25.4762790" lon="-49.2096880">
        <ele>914.6</ele>
        <time>2021-04-17T10:11:36Z</time>
      </trkpt>
      <trkpt lat="-25.4763190" lon="-49.2096930">
        <ele>914.8</ele>
        <time>2021-04-17T10:11:37Z</time>
      </trkpt>
      <trkpt lat="-25.4764000" lon="-49.2097040">
        <ele>915.2</ele>
        <time>2021-04-17T10:11:39Z</time>
      </trkpt>
      <trkpt lat="-25.4764810" lon="-49.2097160">
        <ele>915.4</ele>
        <time>2021-04-17T10:11:41Z</time>
      </trkpt>
      <trkpt lat="-25.4765220" lon="-49.2097210">
        <ele>915.6</ele>
        <time>2021-04-17T10:11:42Z</time>
      </trkpt>
      <trkpt lat="-25.4765630" lon="-49.2097260">
        <ele>915.8</ele>
        <time>2021-04-17T10:11:43Z</time>
      </trkpt>
      <trkpt lat="-25.4766440" lon="-49.2097370">
        <ele>916.2</ele>
        <time>2021-04-17T10:11:45Z</time>
      </trkpt>
      <trkpt lat="-25.4767240" lon="-49.2097490">
        <ele>916.6</ele>
        <time>2021-04-17T10:11:47Z</time>
      </trkpt>
      <trkpt lat="-25.4767630" lon="-49.2097540">
        <ele>916.8</ele>
        <time>2021-04-17T10:11:48Z</time>
      </trkpt>
      <trkpt lat="-25.4768040" lon="-49.2097580">
        <ele>916.8</ele>
        <time>2021-04-17T10:11:49Z</time>
      </trkpt>
      <trkpt lat="-25.4768450" lon="-49.2097620">
        <ele>917.0</ele>
        <time>2021-04-17T10:11:50Z</time>
      </trkpt>
      <trkpt lat="-25.4768850" lon="-49.2097670">
        <ele>917.0</ele>
        <time>2021-04-17T10:11:51Z</time>
      </trkpt>
      <trkpt lat="-25.4769670" lon="-49.2097670">
        <ele>917.2</ele>
        <time>2021-04-17T10:11:53Z</time>
      </trkpt>
      <trkpt lat="-25.4770470" lon="-49.2097640">
        <ele>917.6</ele>
        <time>2021-04-17T10:11:55Z</time>
      </trkpt>
      <trkpt lat="-25.4771250" lon="-49.2097660">
        <ele>917.6</ele>
        <time>2021-04-17T10:11:57Z</time>
      </trkpt>
      <trkpt lat="-25.4771630" lon="-49.2097660">
        <ele>917.8</ele>
        <time>2021-04-17T10:11:58Z</time>
      </trkpt>
      <trkpt lat="-25.4772020" lon="-49.2097670">
        <ele>917.8</ele>
        <time>2021-04-17T10:11:59Z</time>
      </trkpt>
      <trkpt lat="-25.4772790" lon="-49.2097700">
        <ele>918.0</ele>
        <time>2021-04-17T10:12:01Z</time>
      </trkpt>
      <trkpt lat="-25.4773580" lon="-49.2097720">
        <ele>918.4</ele>
        <time>2021-04-17T10:12:03Z</time>
      </trkpt>
      <trkpt lat="-25.4774390" lon="-49.2097750">
        <ele>918.6</ele>
        <time>2021-04-17T10:12:05Z</time>
      </trkpt>
      <trkpt lat="-25.4774810" lon="-49.2097770">
        <ele>918.8</ele>
        <time>2021-04-17T10:12:06Z</time>
      </trkpt>
      <trkpt lat="-25.4775230" lon="-49.2097800">
        <ele>919.0</ele>
        <time>2021-04-17T10:12:07Z</time>
      </trkpt>
      <trkpt lat="-25.4775670" lon="-49.2097820">
        <ele>919.0</ele>
        <time>2021-04-17T10:12:08Z</time>
      </trkpt>
      <trkpt lat="-25.4776100" lon="-49.2097840">
        <ele>919.2</ele>
        <time>2021-04-17T10:12:09Z</time>
      </trkpt>
      <trkpt lat="-25.4777000" lon="-49.2097850">
        <ele>919.2</ele>
        <time>2021-04-17T10:12:11Z</time>
      </trkpt>
      <trkpt lat="-25.4777890" lon="-49.2097850">
        <ele>919.6</ele>
        <time>2021-04-17T10:12:13Z</time>
      </trkpt>
      <trkpt lat="-25.4778800" lon="-49.2097880">
        <ele>919.8</ele>
        <time>2021-04-17T10:12:15Z</time>
      </trkpt>
      <trkpt lat="-25.4779250" lon="-49.2097880">
        <ele>919.8</ele>
        <time>2021-04-17T10:12:16Z</time>
      </trkpt>
      <trkpt lat="-25.4779710" lon="-49.2097890">
        <ele>919.8</ele>
        <time>2021-04-17T10:12:17Z</time>
      </trkpt>
      <trkpt lat="-25.4780610" lon="-49.2097960">
        <ele>920.0</ele>
        <time>2021-04-17T10:12:19Z</time>
      </trkpt>
      <trkpt lat="-25.4781060" lon="-49.2098120">
        <ele>920.0</ele>
        <time>2021-04-17T10:12:20Z</time>
      </trkpt>
      <trkpt lat="-25.4781500" lon="-49.2098280">
        <ele>920.2</ele>
        <time>2021-04-17T10:12:21Z</time>
      </trkpt>
      <trkpt lat="-25.4781890" lon="-49.2098570">
        <ele>920.2</ele>
        <time>2021-04-17T10:12:22Z</time>
      </trkpt>
      <trkpt lat="-25.4782250" lon="-49.2098910">
        <ele>920.2</ele>
        <time>2021-04-17T10:12:23Z</time>
      </trkpt>
      <trkpt lat="-25.4783000" lon="-49.2099580">
        <ele>920.2</ele>
        <time>2021-04-17T10:12:25Z</time>
      </trkpt>
      <trkpt lat="-25.4783460" lon="-49.2099750">
        <ele>920.2</ele>
        <time>2021-04-17T10:12:26Z</time>
      </trkpt>
      <trkpt lat="-25.4783910" lon="-49.2099930">
        <ele>920.2</ele>
        <time>2021-04-17T10:12:27Z</time>
      </trkpt>
      <trkpt lat="-25.4784790" lon="-49.2099860">
        <ele>920.2</ele>
        <time>2021-04-17T10:12:29Z</time>
      </trkpt>
      <trkpt lat="-25.4785590" lon="-49.2099600">
        <ele>920.2</ele>
        <time>2021-04-17T10:12:31Z</time>
      </trkpt>
      <trkpt lat="-25.4786020" lon="-49.2099600">
        <ele>920.2</ele>
        <time>2021-04-17T10:12:32Z</time>
      </trkpt>
      <trkpt lat="-25.4786450" lon="-49.2099600">
        <ele>920.4</ele>
        <time>2021-04-17T10:12:33Z</time>
      </trkpt>
      <trkpt lat="-25.4787330" lon="-49.2099910">
        <ele>920.4</ele>
        <time>2021-04-17T10:12:35Z</time>
      </trkpt>
      <trkpt lat="-25.4788160" lon="-49.2100400">
        <ele>920.4</ele>
        <time>2021-04-17T10:12:37Z</time>
      </trkpt>
      <trkpt lat="-25.4788980" lon="-49.2100940">
        <ele>920.4</ele>
        <time>2021-04-17T10:12:39Z</time>
      </trkpt>
      <trkpt lat="-25.4789370" lon="-49.2101230">
        <ele>920.4</ele>
        <time>2021-04-17T10:12:40Z</time>
      </trkpt>
      <trkpt lat="-25.4789710" lon="-49.2101560">
        <ele>920.6</ele>
        <time>2021-04-17T10:12:41Z</time>
      </trkpt>
      <trkpt lat="-25.4789990" lon="-49.2101930">
        <ele>920.6</ele>
        <time>2021-04-17T10:12:42Z</time>
      </trkpt>
      <trkpt lat="-25.4790210" lon="-49.2102310">
        <ele>920.6</ele>
        <time>2021-04-17T10:12:43Z</time>
      </trkpt>
      <trkpt lat="-25.4790410" lon="-49.2102710">
        <ele>920.8</ele>
        <time>2021-04-17T10:12:44Z</time>
      </trkpt>
      <trkpt lat="-25.4790620" lon="-49.2103080">
        <ele>920.8</ele>
        <time>2021-04-17T10:12:45Z</time>
      </trkpt>
      <trkpt lat="-25.4791120" lon="-49.2103770">
        <ele>921.2</ele>
        <time>2021-04-17T10:12:47Z</time>
      </trkpt>
      <trkpt lat="-25.4791390" lon="-49.2104110">
        <ele>921.2</ele>
        <time>2021-04-17T10:12:48Z</time>
      </trkpt>
      <trkpt lat="-25.4791680" lon="-49.2104410">
        <ele>921.4</ele>
        <time>2021-04-17T10:12:49Z</time>
      </trkpt>
      <trkpt lat="-25.4792330" lon="-49.2104960">
        <ele>921.8</ele>
        <time>2021-04-17T10:12:51Z</time>
      </trkpt>
      <trkpt lat="-25.4792990" lon="-49.2105480">
        <ele>922.4</ele>
        <time>2021-04-17T10:12:53Z</time>
      </trkpt>
      <trkpt lat="-25.4793620" lon="-49.2105970">
        <ele>922.8</ele>
        <time>2021-04-17T10:12:55Z</time>
      </trkpt>
      <trkpt lat="-25.4794270" lon="-49.2106460">
        <ele>923.2</ele>
        <time>2021-04-17T10:12:57Z</time>
      </trkpt>
      <trkpt lat="-25.4794610" lon="-49.2106700">
        <ele>923.6</ele>
        <time>2021-04-17T10:12:58Z</time>
      </trkpt>
      <trkpt lat="-25.4794930" lon="-49.2106950">
        <ele>923.8</ele>
        <time>2021-04-17T10:12:59Z</time>
      </trkpt>
      <trkpt lat="-25.4795560" lon="-49.2107450">
        <ele>924.0</ele>
        <time>2021-04-17T10:13:01Z</time>
      </trkpt>
      <trkpt lat="-25.4796230" lon="-49.2107980">
        <ele>924.2</ele>
        <time>2021-04-17T10:13:03Z</time>
      </trkpt>
      <trkpt lat="-25.4796590" lon="-49.2108260">
        <ele>924.2</ele>
        <time>2021-04-17T10:13:04Z</time>
      </trkpt>
      <trkpt lat="-25.4796970" lon="-49.2108560">
        <ele>924.4</ele>
        <time>2021-04-17T10:13:05Z</time>
      </trkpt>
      <trkpt lat="-25.4797800" lon="-49.2109210">
        <ele>924.4</ele>
        <time>2021-04-17T10:13:07Z</time>
      </trkpt>
      <trkpt lat="-25.4798720" lon="-49.2109930">
        <ele>924.6</ele>
        <time>2021-04-17T10:13:09Z</time>
      </trkpt>
      <trkpt lat="-25.4799210" lon="-49.2110320">
        <ele>924.6</ele>
        <time>2021-04-17T10:13:10Z</time>
      </trkpt>
      <trkpt lat="-25.4799710" lon="-49.2110710">
        <ele>924.6</ele>
        <time>2021-04-17T10:13:11Z</time>
      </trkpt>
      <trkpt lat="-25.4800700" lon="-49.2111470">
        <ele>924.6</ele>
        <time>2021-04-17T10:13:13Z</time>
      </trkpt>
      <trkpt lat="-25.4801630" lon="-49.2112170">
        <ele>924.6</ele>
        <time>2021-04-17T10:13:15Z</time>
      </trkpt>
      <trkpt lat="-25.4802520" lon="-49.2112830">
        <ele>924.4</ele>
        <time>2021-04-17T10:13:17Z</time>
      </trkpt>
      <trkpt lat="-25.4802950" lon="-49.2113170">
        <ele>924.4</ele>
        <time>2021-04-17T10:13:18Z</time>
      </trkpt>
      <trkpt lat="-25.4803380" lon="-49.2113500">
        <ele>924.4</ele>
        <time>2021-04-17T10:13:19Z</time>
      </trkpt>
      <trkpt lat="-25.4804260" lon="-49.2114170">
        <ele>924.2</ele>
        <time>2021-04-17T10:13:21Z</time>
      </trkpt>
      <trkpt lat="-25.4805170" lon="-49.2114850">
        <ele>924.2</ele>
        <time>2021-04-17T10:13:23Z</time>
      </trkpt>
      <trkpt lat="-25.4806080" lon="-49.2115570">
        <ele>924.0</ele>
        <time>2021-04-17T10:13:25Z</time>
      </trkpt>
      <trkpt lat="-25.4807000" lon="-49.2116300">
        <ele>924.0</ele>
        <time>2021-04-17T10:13:27Z</time>
      </trkpt>
      <trkpt lat="-25.4807450" lon="-49.2116660">
        <ele>924.0</ele>
        <time>2021-04-17T10:13:28Z</time>
      </trkpt>
      <trkpt lat="-25.4807900" lon="-49.2117020">
        <ele>923.8</ele>
        <time>2021-04-17T10:13:29Z</time>
      </trkpt>
      <trkpt lat="-25.4808770" lon="-49.2117770">
        <ele>924.0</ele>
        <time>2021-04-17T10:13:31Z</time>
      </trkpt>
      <trkpt lat="-25.4809650" lon="-49.2118400">
        <ele>924.0</ele>
        <time>2021-04-17T10:13:33Z</time>
      </trkpt>
      <trkpt lat="-25.4810450" lon="-49.2118970">
        <ele>924.0</ele>
        <time>2021-04-17T10:13:35Z</time>
      </trkpt>
      <trkpt lat="-25.4810810" lon="-49.2119240">
        <ele>924.0</ele>
        <time>2021-04-17T10:13:36Z</time>
      </trkpt>
      <trkpt lat="-25.4811140" lon="-49.2119510">
        <ele>924.0</ele>
        <time>2021-04-17T10:13:37Z</time>
      </trkpt>
      <trkpt lat="-25.4811760" lon="-49.2120010">
        <ele>924.0</ele>
        <time>2021-04-17T10:13:39Z</time>
      </trkpt>
      <trkpt lat="-25.4812360" lon="-49.2120460">
        <ele>924.2</ele>
        <time>2021-04-17T10:13:41Z</time>
      </trkpt>
      <trkpt lat="-25.4812950" lon="-49.2120910">
        <ele>924.4</ele>
        <time>2021-04-17T10:13:43Z</time>
      </trkpt>
      <trkpt lat="-25.4813240" lon="-49.2121140">
        <ele>924.6</ele>
        <time>2021-04-17T10:13:44Z</time>
      </trkpt>
      <trkpt lat="-25.4813520" lon="-49.2121380">
        <ele>924.8</ele>
        <time>2021-04-17T10:13:45Z</time>
      </trkpt>
      <trkpt lat="-25.4814090" lon="-49.2121820">
        <ele>925.4</ele>
        <time>2021-04-17T10:13:47Z</time>
      </trkpt>
      <trkpt lat="-25.4814660" lon="-49.2122260">
        <ele>925.8</ele>
        <time>2021-04-17T10:13:49Z</time>
      </trkpt>
      <trkpt lat="-25.4815210" lon="-49.2122680">
        <ele>926.2</ele>
        <time>2021-04-17T10:13:51Z</time>
      </trkpt>
      <trkpt lat="-25.4815750" lon="-49.2123100">
        <ele>926.6</ele>
        <time>2021-04-17T10:13:53Z</time>
      </trkpt>
      <trkpt lat="-25.4816020" lon="-49.2123300">
        <ele>927.0</ele>
        <time>2021-04-17T10:13:54Z</time>
      </trkpt>
      <trkpt lat="-25.4816300" lon="-49.2123510">
        <ele>927.2</ele>
        <time>2021-04-17T10:13:55Z</time>
      </trkpt>
      <trkpt lat="-25.4816890" lon="-49.2124000">
        <ele>927.6</ele>
        <time>2021-04-17T10:13:57Z</time>
      </trkpt>
      <trkpt lat="-25.4817490" lon="-49.2124450">
        <ele>928.0</ele>
        <time>2021-04-17T10:13:59Z</time>
      </trkpt>
      <trkpt lat="-25.4818120" lon="-49.2124920">
        <ele>928.8</ele>
        <time>2021-04-17T10:14:01Z</time>
      </trkpt>
      <trkpt lat="-25.4818810" lon="-49.2125450">
        <ele>929.2</ele>
        <time>2021-04-17T10:14:03Z</time>
      </trkpt>
      <trkpt lat="-25.4819560" lon="-49.2126020">
        <ele>929.4</ele>
        <time>2021-04-17T10:14:05Z</time>
      </trkpt>
      <trkpt lat="-25.4820340" lon="-49.2126610">
        <ele>929.4</ele>
        <time>2021-04-17T10:14:07Z</time>
      </trkpt>
      <trkpt lat="-25.4821170" lon="-49.2127270">
        <ele>929.4</ele>
        <time>2021-04-17T10:14:09Z</time>
      </trkpt>
      <trkpt lat="-25.4822060" lon="-49.2127980">
        <ele>929.4</ele>
        <time>2021-04-17T10:14:11Z</time>
      </trkpt>
      <trkpt lat="-25.4823020" lon="-49.2128720">
        <ele>929.4</ele>
        <time>2021-04-17T10:14:13Z</time>
      </trkpt>
      <trkpt lat="-25.4823970" lon="-49.2129480">
        <ele>929.4</ele>
        <time>2021-04-17T10:14:15Z</time>
      </trkpt>
      <trkpt lat="-25.4824880" lon="-49.2130200">
        <ele>929.2</ele>
        <time>2021-04-17T10:14:17Z</time>
      </trkpt>
      <trkpt lat="-25.4825670" lon="-49.2130870">
        <ele>928.8</ele>
        <time>2021-04-17T10:14:19Z</time>
      </trkpt>
      <trkpt lat="-25.4826390" lon="-49.2131470">
        <ele>928.6</ele>
        <time>2021-04-17T10:14:21Z</time>
      </trkpt>
      <trkpt lat="-25.4827050" lon="-49.2132010">
        <ele>928.6</ele>
        <time>2021-04-17T10:14:23Z</time>
      </trkpt>
      <trkpt lat="-25.4827760" lon="-49.2132570">
        <ele>928.6</ele>
        <time>2021-04-17T10:14:25Z</time>
      </trkpt>
      <trkpt lat="-25.4828130" lon="-49.2132870">
        <ele>928.6</ele>
        <time>2021-04-17T10:14:26Z</time>
      </trkpt>
      <trkpt lat="-25.4828500" lon="-49.2133170">
        <ele>928.6</ele>
        <time>2021-04-17T10:14:27Z</time>
      </trkpt>
      <trkpt lat="-25.4829280" lon="-49.2133750">
        <ele>928.6</ele>
        <time>2021-04-17T10:14:29Z</time>
      </trkpt>
      <trkpt lat="-25.4830180" lon="-49.2134310">
        <ele>928.6</ele>
        <time>2021-04-17T10:14:31Z</time>
      </trkpt>
      <trkpt lat="-25.4831250" lon="-49.2134890">
        <ele>928.6</ele>
        <time>2021-04-17T10:14:33Z</time>
      </trkpt>
      <trkpt lat="-25.4832500" lon="-49.2135490">
        <ele>928.6</ele>
        <time>2021-04-17T10:14:35Z</time>
      </trkpt>
      <trkpt lat="-25.4833900" lon="-49.2135920">
        <ele>928.6</ele>
        <time>2021-04-17T10:14:37Z</time>
      </trkpt>
      <trkpt lat="-25.4834400" lon="-49.2135810">
        <ele>928.6</ele>
        <time>2021-04-17T10:14:38Z</time>
      </trkpt>
      <trkpt lat="-25.4834900" lon="-49.2135700">
        <ele>928.4</ele>
        <time>2021-04-17T10:14:39Z</time>
      </trkpt>
      <trkpt lat="-25.4836910" lon="-49.2135260">
        <ele>928.0</ele>
        <time>2021-04-17T10:14:41Z</time>
      </trkpt>
      <trkpt lat="-25.4838460" lon="-49.2134790">
        <ele>927.4</ele>
        <time>2021-04-17T10:14:43Z</time>
      </trkpt>
      <trkpt lat="-25.4838970" lon="-49.2134580">
        <ele>927.0</ele>
        <time>2021-04-17T10:14:44Z</time>
      </trkpt>
      <trkpt lat="-25.4839480" lon="-49.2134360">
        <ele>926.8</ele>
        <time>2021-04-17T10:14:45Z</time>
      </trkpt>
      <trkpt lat="-25.4841510" lon="-49.2133500">
        <ele>926.2</ele>
        <time>2021-04-17T10:14:47Z</time>
      </trkpt>
      <trkpt lat="-25.4842230" lon="-49.2133130">
        <ele>926.0</ele>
        <time>2021-04-17T10:14:48Z</time>
      </trkpt>
      <trkpt lat="-25.4842930" lon="-49.2132730">
        <ele>925.2</ele>
        <time>2021-04-17T10:14:49Z</time>
      </trkpt>
      <trkpt lat="-25.4844310" lon="-49.2131860">
        <ele>924.8</ele>
        <time>2021-04-17T10:14:51Z</time>
      </trkpt>
      <trkpt lat="-25.4845610" lon="-49.2131000">
        <ele>924.4</ele>
        <time>2021-04-17T10:14:53Z</time>
      </trkpt>
      <trkpt lat="-25.4846880" lon="-49.2130190">
        <ele>923.8</ele>
        <time>2021-04-17T10:14:55Z</time>
      </trkpt>
      <trkpt lat="-25.4848220" lon="-49.2129620">
        <ele>923.4</ele>
        <time>2021-04-17T10:14:57Z</time>
      </trkpt>
      <trkpt lat="-25.4849590" lon="-49.2129310">
        <ele>922.8</ele>
        <time>2021-04-17T10:14:59Z</time>
      </trkpt>
      <trkpt lat="-25.4850320" lon="-49.2129370">
        <ele>922.4</ele>
        <time>2021-04-17T10:15:00Z</time>
      </trkpt>
      <trkpt lat="-25.4851040" lon="-49.2129530">
        <ele>922.2</ele>
        <time>2021-04-17T10:15:01Z</time>
      </trkpt>
      <trkpt lat="-25.4851510" lon="-49.2129700">
        <ele>922.0</ele>
        <time>2021-04-17T10:15:02Z</time>
      </trkpt>
      <trkpt lat="-25.4851980" lon="-49.2129870">
        <ele>921.8</ele>
        <time>2021-04-17T10:15:03Z</time>
      </trkpt>
      <trkpt lat="-25.4853850" lon="-49.2130540">
        <ele>921.6</ele>
        <time>2021-04-17T10:15:05Z</time>
      </trkpt>
      <trkpt lat="-25.4854530" lon="-49.2130780">
        <ele>921.4</ele>
        <time>2021-04-17T10:15:06Z</time>
      </trkpt>
      <trkpt lat="-25.4855190" lon="-49.2131000">
        <ele>921.4</ele>
        <time>2021-04-17T10:15:07Z</time>
      </trkpt>
      <trkpt lat="-25.4856510" lon="-49.2131440">
        <ele>921.0</ele>
        <time>2021-04-17T10:15:09Z</time>
      </trkpt>
      <trkpt lat="-25.4857800" lon="-49.2131860">
        <ele>920.8</ele>
        <time>2021-04-17T10:15:11Z</time>
      </trkpt>
      <trkpt lat="-25.4858450" lon="-49.2132080">
        <ele>920.8</ele>
        <time>2021-04-17T10:15:12Z</time>
      </trkpt>
      <trkpt lat="-25.4859090" lon="-49.2132300">
        <ele>920.6</ele>
        <time>2021-04-17T10:15:13Z</time>
      </trkpt>
      <trkpt lat="-25.4860360" lon="-49.2132740">
        <ele>920.4</ele>
        <time>2021-04-17T10:15:15Z</time>
      </trkpt>
      <trkpt lat="-25.4861630" lon="-49.2133170">
        <ele>920.2</ele>
        <time>2021-04-17T10:15:17Z</time>
      </trkpt>
      <trkpt lat="-25.4862870" lon="-49.2133610">
        <ele>920.0</ele>
        <time>2021-04-17T10:15:19Z</time>
      </trkpt>
      <trkpt lat="-25.4864080" lon="-49.2134040">
        <ele>919.8</ele>
        <time>2021-04-17T10:15:21Z</time>
      </trkpt>
      <trkpt lat="-25.4865230" lon="-49.2134420">
        <ele>919.8</ele>
        <time>2021-04-17T10:15:23Z</time>
      </trkpt>
      <trkpt lat="-25.4866320" lon="-49.2134810">
        <ele>919.8</ele>
        <time>2021-04-17T10:15:25Z</time>
      </trkpt>
      <trkpt lat="-25.4867390" lon="-49.2135200">
        <ele>919.8</ele>
        <time>2021-04-17T10:15:27Z</time>
      </trkpt>
      <trkpt lat="-25.4868400" lon="-49.2135530">
        <ele>919.8</ele>
        <time>2021-04-17T10:15:29Z</time>
      </trkpt>
      <trkpt lat="-25.4868890" lon="-49.2135690">
        <ele>919.8</ele>
        <time>2021-04-17T10:15:30Z</time>
      </trkpt>
      <trkpt lat="-25.4869350" lon="-49.2135840">
        <ele>919.8</ele>
        <time>2021-04-17T10:15:31Z</time>
      </trkpt>
      <trkpt lat="-25.4870270" lon="-49.2136130">
        <ele>920.2</ele>
        <time>2021-04-17T10:15:33Z</time>
      </trkpt>
      <trkpt lat="-25.4871180" lon="-49.2136420">
        <ele>921.0</ele>
        <time>2021-04-17T10:15:35Z</time>
      </trkpt>
      <trkpt lat="-25.4872130" lon="-49.2136730">
        <ele>921.4</ele>
        <time>2021-04-17T10:15:37Z</time>
      </trkpt>
      <trkpt lat="-25.4873160" lon="-49.2137110">
        <ele>921.4</ele>
        <time>2021-04-17T10:15:39Z</time>
      </trkpt>
      <trkpt lat="-25.4873730" lon="-49.2137300">
        <ele>921.4</ele>
        <time>2021-04-17T10:15:40Z</time>
      </trkpt>
      <trkpt lat="-25.4874330" lon="-49.2137490">
        <ele>921.4</ele>
        <time>2021-04-17T10:15:41Z</time>
      </trkpt>
      <trkpt lat="-25.4875570" lon="-49.2137880">
        <ele>921.4</ele>
        <time>2021-04-17T10:15:43Z</time>
      </trkpt>
      <trkpt lat="-25.4876710" lon="-49.2138280">
        <ele>921.4</ele>
        <time>2021-04-17T10:15:45Z</time>
      </trkpt>
      <trkpt lat="-25.4877840" lon="-49.2138680">
        <ele>921.2</ele>
        <time>2021-04-17T10:15:47Z</time>
      </trkpt>
      <trkpt lat="-25.4879000" lon="-49.2139060">
        <ele>920.8</ele>
        <time>2021-04-17T10:15:49Z</time>
      </trkpt>
      <trkpt lat="-25.4880160" lon="-49.2139450">
        <ele>920.4</ele>
        <time>2021-04-17T10:15:51Z</time>
      </trkpt>
      <trkpt lat="-25.4881330" lon="-49.2139860">
        <ele>919.8</ele>
        <time>2021-04-17T10:15:53Z</time>
      </trkpt>
      <trkpt lat="-25.4881920" lon="-49.2140040">
        <ele>919.6</ele>
        <time>2021-04-17T10:15:54Z</time>
      </trkpt>
      <trkpt lat="-25.4882500" lon="-49.2140220">
        <ele>919.4</ele>
        <time>2021-04-17T10:15:55Z</time>
      </trkpt>
      <trkpt lat="-25.4883610" lon="-49.2140560">
        <ele>919.2</ele>
        <time>2021-04-17T10:15:57Z</time>
      </trkpt>
      <trkpt lat="-25.4884600" lon="-49.2140860">
        <ele>919.0</ele>
        <time>2021-04-17T10:15:59Z</time>
      </trkpt>
      <trkpt lat="-25.4885500" lon="-49.2141140">
        <ele>919.0</ele>
        <time>2021-04-17T10:16:01Z</time>
      </trkpt>
      <trkpt lat="-25.4886460" lon="-49.2141390">
        <ele>918.8</ele>
        <time>2021-04-17T10:16:03Z</time>
      </trkpt>
      <trkpt lat="-25.4887450" lon="-49.2141690">
        <ele>918.6</ele>
        <time>2021-04-17T10:16:05Z</time>
      </trkpt>
      <trkpt lat="-25.4888530" lon="-49.2142010">
        <ele>918.6</ele>
        <time>2021-04-17T10:16:07Z</time>
      </trkpt>
      <trkpt lat="-25.4888950" lon="-49.2142110">
        <ele>918.4</ele>
        <time>2021-04-17T10:16:08Z</time>
      </trkpt>
      <trkpt lat="-25.4889360" lon="-49.2142210">
        <ele>918.4</ele>
        <time>2021-04-17T10:16:09Z</time>
      </trkpt>
      <trkpt lat="-25.4891010" lon="-49.2142600">
        <ele>918.2</ele>
        <time>2021-04-17T10:16:11Z</time>
      </trkpt>
      <trkpt lat="-25.4891670" lon="-49.2142810">
        <ele>918.2</ele>
        <time>2021-04-17T10:16:12Z</time>
      </trkpt>
      <trkpt lat="-25.4892320" lon="-49.2143080">
        <ele>918.2</ele>
        <time>2021-04-17T10:16:13Z</time>
      </trkpt>
      <trkpt lat="-25.4893680" lon="-49.2143550">
        <ele>918.0</ele>
        <time>2021-04-17T10:16:15Z</time>
      </trkpt>
      <trkpt lat="-25.4895140" lon="-49.2144000">
        <ele>917.8</ele>
        <time>2021-04-17T10:16:17Z</time>
      </trkpt>
      <trkpt lat="-25.4896610" lon="-49.2144440">
        <ele>916.6</ele>
        <time>2021-04-17T10:16:19Z</time>
      </trkpt>
      <trkpt lat="-25.4898070" lon="-49.2144860">
        <ele>915.8</ele>
        <time>2021-04-17T10:16:21Z</time>
      </trkpt>
      <trkpt lat="-25.4898800" lon="-49.2145060">
        <ele>915.2</ele>
        <time>2021-04-17T10:16:22Z</time>
      </trkpt>
      <trkpt lat="-25.4899530" lon="-49.2145270">
        <ele>914.4</ele>
        <time>2021-04-17T10:16:23Z</time>
      </trkpt>
      <trkpt lat="-25.4900240" lon="-49.2145480">
        <ele>914.0</ele>
        <time>2021-04-17T10:16:24Z</time>
      </trkpt>
      <trkpt lat="-25.4900930" lon="-49.2145720">
        <ele>913.6</ele>
        <time>2021-04-17T10:16:25Z</time>
      </trkpt>
      <trkpt lat="-25.4901440" lon="-49.2145880">
        <ele>913.4</ele>
        <time>2021-04-17T10:16:26Z</time>
      </trkpt>
      <trkpt lat="-25.4901940" lon="-49.2146040">
        <ele>913.0</ele>
        <time>2021-04-17T10:16:27Z</time>
      </trkpt>
      <trkpt lat="-25.4902950" lon="-49.2146360">
        <ele>912.8</ele>
        <time>2021-04-17T10:16:28Z</time>
      </trkpt>
      <trkpt lat="-25.4903630" lon="-49.2146570">
        <ele>912.4</ele>
        <time>2021-04-17T10:16:29Z</time>
      </trkpt>
      <trkpt lat="-25.4904970" lon="-49.2146990">
        <ele>912.0</ele>
        <time>2021-04-17T10:16:31Z</time>
      </trkpt>
      <trkpt lat="-25.4905380" lon="-49.2147120">
        <ele>911.6</ele>
        <time>2021-04-17T10:16:32Z</time>
      </trkpt>
      <trkpt lat="-25.4905790" lon="-49.2147250">
        <ele>911.4</ele>
        <time>2021-04-17T10:16:33Z</time>
      </trkpt>
      <trkpt lat="-25.4907430" lon="-49.2147760">
        <ele>911.0</ele>
        <time>2021-04-17T10:16:35Z</time>
      </trkpt>
      <trkpt lat="-25.4907960" lon="-49.2147910">
        <ele>910.8</ele>
        <time>2021-04-17T10:16:36Z</time>
      </trkpt>
      <trkpt lat="-25.4908460" lon="-49.2148070">
        <ele>910.8</ele>
        <time>2021-04-17T10:16:37Z</time>
      </trkpt>
      <trkpt lat="-25.4908760" lon="-49.2148160">
        <ele>910.6</ele>
        <time>2021-04-17T10:16:38Z</time>
      </trkpt>
      <trkpt lat="-25.4909060" lon="-49.2148260">
        <ele>910.4</ele>
        <time>2021-04-17T10:16:39Z</time>
      </trkpt>
      <trkpt lat="-25.4910270" lon="-49.2148640">
        <ele>909.8</ele>
        <time>2021-04-17T10:16:41Z</time>
      </trkpt>
      <trkpt lat="-25.4910980" lon="-49.2148850">
        <ele>909.6</ele>
        <time>2021-04-17T10:16:43Z</time>
      </trkpt>
      <trkpt lat="-25.4911630" lon="-49.2149020">
        <ele>909.2</ele>
        <time>2021-04-17T10:16:45Z</time>
      </trkpt>
      <trkpt lat="-25.4912320" lon="-49.2149280">
        <ele>909.2</ele>
        <time>2021-04-17T10:16:47Z</time>
      </trkpt>
      <trkpt lat="-25.4912990" lon="-49.2149780">
        <ele>909.2</ele>
        <time>2021-04-17T10:16:49Z</time>
      </trkpt>
      <trkpt lat="-25.4913670" lon="-49.2150130">
        <ele>909.2</ele>
        <time>2021-04-17T10:16:51Z</time>
      </trkpt>
      <trkpt lat="-25.4914180" lon="-49.2150180">
        <ele>909.2</ele>
        <time>2021-04-17T10:16:53Z</time>
      </trkpt>
      <trkpt lat="-25.4914720" lon="-49.2150220">
        <ele>909.2</ele>
        <time>2021-04-17T10:16:55Z</time>
      </trkpt>
      <trkpt lat="-25.4915270" lon="-49.2150420">
        <ele>909.0</ele>
        <time>2021-04-17T10:16:57Z</time>
      </trkpt>
      <trkpt lat="-25.4915530" lon="-49.2150490">
        <ele>909.0</ele>
        <time>2021-04-17T10:16:58Z</time>
      </trkpt>
      <trkpt lat="-25.4915710" lon="-49.2150520">
        <ele>909.0</ele>
        <time>2021-04-17T10:16:59Z</time>
      </trkpt>
      <trkpt lat="-25.4915740" lon="-49.2150510">
        <ele>909.0</ele>
        <time>2021-04-17T10:17:01Z</time>
      </trkpt>
      <trkpt lat="-25.4915760" lon="-49.2150500">
        <ele>909.0</ele>
        <time>2021-04-17T10:17:03Z</time>
      </trkpt>
      <trkpt lat="-25.4915790" lon="-49.2150490">
        <ele>908.8</ele>
        <time>2021-04-17T10:17:05Z</time>
      </trkpt>
      <trkpt lat="-25.4915810" lon="-49.2150490">
        <ele>908.4</ele>
        <time>2021-04-17T10:17:07Z</time>
      </trkpt>
      <trkpt lat="-25.4915840" lon="-49.2150480">
        <ele>908.2</ele>
        <time>2021-04-17T10:17:09Z</time>
      </trkpt>
      <trkpt lat="-25.4915860" lon="-49.2150470">
        <ele>908.0</ele>
        <time>2021-04-17T10:17:11Z</time>
      </trkpt>
      <trkpt lat="-25.4915890" lon="-49.2150460">
        <ele>908.0</ele>
        <time>2021-04-17T10:17:13Z</time>
      </trkpt>
      <trkpt lat="-25.4915910" lon="-49.2150450">
        <ele>908.0</ele>
        <time>2021-04-17T10:17:15Z</time>
      </trkpt>
      <trkpt lat="-25.4915930" lon="-49.2150440">
        <ele>908.0</ele>
        <time>2021-04-17T10:17:17Z</time>
      </trkpt>
      <trkpt lat="-25.4915960" lon="-49.2150430">
        <ele>908.0</ele>
        <time>2021-04-17T10:17:19Z</time>
      </trkpt>
      <trkpt lat="-25.4915980" lon="-49.2150420">
        <ele>908.0</ele>
        <time>2021-04-17T10:17:21Z</time>
      </trkpt>
      <trkpt lat="-25.4916010" lon="-49.2150410">
        <ele>908.0</ele>
        <time>2021-04-17T10:17:23Z</time>
      </trkpt>
      <trkpt lat="-25.4916030" lon="-49.2150400">
        <ele>908.0</ele>
        <time>2021-04-17T10:17:25Z</time>
      </trkpt>
      <trkpt lat="-25.4916060" lon="-49.2150400">
        <ele>908.0</ele>
        <time>2021-04-17T10:17:27Z</time>
      </trkpt>
      <trkpt lat="-25.4916080" lon="-49.2150390">
        <ele>908.0</ele>
        <time>2021-04-17T10:17:29Z</time>
      </trkpt>
      <trkpt lat="-25.4916110" lon="-49.2150380">
        <ele>908.0</ele>
        <time>2021-04-17T10:17:31Z</time>
      </trkpt>
      <trkpt lat="-25.4916130" lon="-49.2150370">
        <ele>908.0</ele>
        <time>2021-04-17T10:17:33Z</time>
      </trkpt>
      <trkpt lat="-25.4916150" lon="-49.2150360">
        <ele>908.0</ele>
        <time>2021-04-17T10:17:34Z</time>
      </trkpt>
      <trkpt lat="-25.4916180" lon="-49.2150350">
        <ele>908.0</ele>
        <time>2021-04-17T10:17:35Z</time>
      </trkpt>
      <trkpt lat="-25.4916200" lon="-49.2150340">
        <ele>907.8</ele>
        <time>2021-04-17T10:17:37Z</time>
      </trkpt>
      <trkpt lat="-25.4916230" lon="-49.2150330">
        <ele>907.8</ele>
        <time>2021-04-17T10:17:39Z</time>
      </trkpt>
      <trkpt lat="-25.4916250" lon="-49.2150320">
        <ele>907.8</ele>
        <time>2021-04-17T10:17:41Z</time>
      </trkpt>
      <trkpt lat="-25.4916280" lon="-49.2150310">
        <ele>907.8</ele>
        <time>2021-04-17T10:17:43Z</time>
      </trkpt>
      <trkpt lat="-25.4916300" lon="-49.2150310">
        <ele>907.8</ele>
        <time>2021-04-17T10:17:45Z</time>
      </trkpt>
      <trkpt lat="-25.4916330" lon="-49.2150300">
        <ele>907.8</ele>
        <time>2021-04-17T10:17:47Z</time>
      </trkpt>
      <trkpt lat="-25.4916350" lon="-49.2150290">
        <ele>907.8</ele>
        <time>2021-04-17T10:17:49Z</time>
      </trkpt>
      <trkpt lat="-25.4916370" lon="-49.2150280">
        <ele>907.8</ele>
        <time>2021-04-17T10:17:51Z</time>
      </trkpt>
      <trkpt lat="-25.4916400" lon="-49.2150270">
        <ele>907.8</ele>
        <time>2021-04-17T10:17:53Z</time>
      </trkpt>
      <trkpt lat="-25.4916420" lon="-49.2150260">
        <ele>907.8</ele>
        <time>2021-04-17T10:17:55Z</time>
      </trkpt>
      <trkpt lat="-25.4916450" lon="-49.2150250">
        <ele>907.8</ele>
        <time>2021-04-17T10:17:57Z</time>
      </trkpt>
      <trkpt lat="-25.4916470" lon="-49.2150240">
        <ele>907.8</ele>
        <time>2021-04-17T10:17:59Z</time>
      </trkpt>
      <trkpt lat="-25.4916500" lon="-49.2150230">
        <ele>907.8</ele>
        <time>2021-04-17T10:18:01Z</time>
      </trkpt>
      <trkpt lat="-25.4916520" lon="-49.2150230">
        <ele>907.8</ele>
        <time>2021-04-17T10:18:03Z</time>
      </trkpt>
      <trkpt lat="-25.4916550" lon="-49.2150220">
        <ele>907.8</ele>
        <time>2021-04-17T10:18:05Z</time>
      </trkpt>
      <trkpt lat="-25.4916570" lon="-49.2150210">
        <ele>907.8</ele>
        <time>2021-04-17T10:18:07Z</time>
      </trkpt>
      <trkpt lat="-25.4916590" lon="-49.2150200">
        <ele>907.8</ele>
        <time>2021-04-17T10:18:09Z</time>
      </trkpt>
      <trkpt lat="-25.4916620" lon="-49.2150190">
        <ele>907.8</ele>
        <time>2021-04-17T10:18:11Z</time>
      </trkpt>
      <trkpt lat="-25.4916640" lon="-49.2150180">
        <ele>907.8</ele>
        <time>2021-04-17T10:18:13Z</time>
      </trkpt>
      <trkpt lat="-25.4916670" lon="-49.2150170">
        <ele>907.8</ele>
        <time>2021-04-17T10:18:15Z</time>
      </trkpt>
      <trkpt lat="-25.4916690" lon="-49.2150160">
        <ele>907.8</ele>
        <time>2021-04-17T10:18:17Z</time>
      </trkpt>
      <trkpt lat="-25.4916720" lon="-49.2150150">
        <ele>907.8</ele>
        <time>2021-04-17T10:18:19Z</time>
      </trkpt>
      <trkpt lat="-25.4916740" lon="-49.2150140">
        <ele>907.8</ele>
        <time>2021-04-17T10:18:21Z</time>
      </trkpt>
      <trkpt lat="-25.4916770" lon="-49.2150140">
        <ele>907.8</ele>
        <time>2021-04-17T10:18:23Z</time>
      </trkpt>
      <trkpt lat="-25.4916790" lon="-49.2150130">
        <ele>907.6</ele>
        <time>2021-04-17T10:18:25Z</time>
      </trkpt>
      <trkpt lat="-25.4916810" lon="-49.2150120">
        <ele>907.6</ele>
        <time>2021-04-17T10:18:27Z</time>
      </trkpt>
      <trkpt lat="-25.4916840" lon="-49.2150110">
        <ele>907.6</ele>
        <time>2021-04-17T10:18:29Z</time>
      </trkpt>
      <trkpt lat="-25.4916860" lon="-49.2150100">
        <ele>907.6</ele>
        <time>2021-04-17T10:18:31Z</time>
      </trkpt>
      <trkpt lat="-25.4916890" lon="-49.2150090">
        <ele>907.6</ele>
        <time>2021-04-17T10:18:33Z</time>
      </trkpt>
      <trkpt lat="-25.4916910" lon="-49.2150080">
        <ele>907.6</ele>
        <time>2021-04-17T10:18:35Z</time>
      </trkpt>
      <trkpt lat="-25.4916940" lon="-49.2150070">
        <ele>907.6</ele>
        <time>2021-04-17T10:18:36Z</time>
      </trkpt>
      <trkpt lat="-25.4916960" lon="-49.2150060">
        <ele>907.6</ele>
        <time>2021-04-17T10:18:37Z</time>
      </trkpt>
      <trkpt lat="-25.4916990" lon="-49.2150050">
        <ele>907.6</ele>
        <time>2021-04-17T10:18:39Z</time>
      </trkpt>
      <trkpt lat="-25.4917010" lon="-49.2150050">
        <ele>907.6</ele>
        <time>2021-04-17T10:18:41Z</time>
      </trkpt>
      <trkpt lat="-25.4917030" lon="-49.2150040">
        <ele>907.6</ele>
        <time>2021-04-17T10:18:43Z</time>
      </trkpt>
      <trkpt lat="-25.4917060" lon="-49.2150030">
        <ele>907.8</ele>
        <time>2021-04-17T10:18:45Z</time>
      </trkpt>
      <trkpt lat="-25.4917080" lon="-49.2150020">
        <ele>907.8</ele>
        <time>2021-04-17T10:18:47Z</time>
      </trkpt>
      <trkpt lat="-25.4917110" lon="-49.2150010">
        <ele>907.8</ele>
        <time>2021-04-17T10:18:49Z</time>
      </trkpt>
      <trkpt lat="-25.4917130" lon="-49.2150000">
        <ele>907.8</ele>
        <time>2021-04-17T10:18:51Z</time>
      </trkpt>
      <trkpt lat="-25.4917160" lon="-49.2149990">
        <ele>907.8</ele>
        <time>2021-04-17T10:18:53Z</time>
      </trkpt>
      <trkpt lat="-25.4917180" lon="-49.2149980">
        <ele>907.8</ele>
        <time>2021-04-17T10:18:55Z</time>
      </trkpt>
      <trkpt lat="-25.4917210" lon="-49.2149970">
        <ele>907.8</ele>
        <time>2021-04-17T10:18:57Z</time>
      </trkpt>
      <trkpt lat="-25.4917230" lon="-49.2149970">
        <ele>907.8</ele>
        <time>2021-04-17T10:18:59Z</time>
      </trkpt>
      <trkpt lat="-25.4917250" lon="-49.2149960">
        <ele>907.8</ele>
        <time>2021-04-17T10:19:01Z</time>
      </trkpt>
      <trkpt lat="-25.4917280" lon="-49.2149950">
        <ele>907.8</ele>
        <time>2021-04-17T10:19:03Z</time>
      </trkpt>
      <trkpt lat="-25.4917300" lon="-49.2149940">
        <ele>907.8</ele>
        <time>2021-04-17T10:19:05Z</time>
      </trkpt>
      <trkpt lat="-25.4917330" lon="-49.2149930">
        <ele>907.8</ele>
        <time>2021-04-17T10:19:07Z</time>
      </trkpt>
      <trkpt lat="-25.4917350" lon="-49.2149920">
        <ele>907.8</ele>
        <time>2021-04-17T10:19:09Z</time>
      </trkpt>
      <trkpt lat="-25.4917380" lon="-49.2149910">
        <ele>907.8</ele>
        <time>2021-04-17T10:19:11Z</time>
      </trkpt>
      <trkpt lat="-25.4917400" lon="-49.2149900">
        <ele>907.8</ele>
        <time>2021-04-17T10:19:13Z</time>
      </trkpt>
      <trkpt lat="-25.4917430" lon="-49.2149890">
        <ele>907.8</ele>
        <time>2021-04-17T10:19:15Z</time>
      </trkpt>
      <trkpt lat="-25.4917450" lon="-49.2149880">
        <ele>907.8</ele>
        <time>2021-04-17T10:19:17Z</time>
      </trkpt>
      <trkpt lat="-25.4917470" lon="-49.2149880">
        <ele>908.0</ele>
        <time>2021-04-17T10:19:19Z</time>
      </trkpt>
      <trkpt lat="-25.4917500" lon="-49.2149870">
        <ele>908.0</ele>
        <time>2021-04-17T10:19:21Z</time>
      </trkpt>
      <trkpt lat="-25.4917520" lon="-49.2149860">
        <ele>908.0</ele>
        <time>2021-04-17T10:19:23Z</time>
      </trkpt>
      <trkpt lat="-25.4917550" lon="-49.2149850">
        <ele>908.0</ele>
        <time>2021-04-17T10:19:25Z</time>
      </trkpt>
      <trkpt lat="-25.4917570" lon="-49.2149840">
        <ele>908.0</ele>
        <time>2021-04-17T10:19:27Z</time>
      </trkpt>
      <trkpt lat="-25.4917600" lon="-49.2149830">
        <ele>908.0</ele>
        <time>2021-04-17T10:19:29Z</time>
      </trkpt>
      <trkpt lat="-25.4917620" lon="-49.2149820">
        <ele>908.0</ele>
        <time>2021-04-17T10:19:31Z</time>
      </trkpt>
      <trkpt lat="-25.4917650" lon="-49.2149810">
        <ele>908.0</ele>
        <time>2021-04-17T10:19:33Z</time>
      </trkpt>
      <trkpt lat="-25.4917670" lon="-49.2149800">
        <ele>908.0</ele>
        <time>2021-04-17T10:19:35Z</time>
      </trkpt>
      <trkpt lat="-25.4917690" lon="-49.2149790">
        <ele>908.0</ele>
        <time>2021-04-17T10:19:37Z</time>
      </trkpt>
      <trkpt lat="-25.4917720" lon="-49.2149790">
        <ele>908.0</ele>
        <time>2021-04-17T10:19:39Z</time>
      </trkpt>
      <trkpt lat="-25.4917740" lon="-49.2149780">
        <ele>908.0</ele>
        <time>2021-04-17T10:19:41Z</time>
      </trkpt>
      <trkpt lat="-25.4917770" lon="-49.2149770">
        <ele>908.0</ele>
        <time>2021-04-17T10:19:43Z</time>
      </trkpt>
      <trkpt lat="-25.4917790" lon="-49.2149760">
        <ele>908.0</ele>
        <time>2021-04-17T10:19:45Z</time>
      </trkpt>
      <trkpt lat="-25.4917820" lon="-49.2149750">
        <ele>908.0</ele>
        <time>2021-04-17T10:19:47Z</time>
      </trkpt>
      <trkpt lat="-25.4917840" lon="-49.2149740">
        <ele>908.0</ele>
        <time>2021-04-17T10:19:49Z</time>
      </trkpt>
      <trkpt lat="-25.4917870" lon="-49.2149730">
        <ele>908.0</ele>
        <time>2021-04-17T10:19:51Z</time>
      </trkpt>
      <trkpt lat="-25.4917890" lon="-49.2149720">
        <ele>908.0</ele>
        <time>2021-04-17T10:19:53Z</time>
      </trkpt>
      <trkpt lat="-25.4917910" lon="-49.2149710">
        <ele>908.0</ele>
        <time>2021-04-17T10:19:55Z</time>
      </trkpt>
      <trkpt lat="-25.4917940" lon="-49.2149710">
        <ele>908.0</ele>
        <time>2021-04-17T10:19:57Z</time>
      </trkpt>
      <trkpt lat="-25.4917960" lon="-49.2149700">
        <ele>908.0</ele>
        <time>2021-04-17T10:19:59Z</time>
      </trkpt>
      <trkpt lat="-25.4917990" lon="-49.2149690">
        <ele>908.0</ele>
        <time>2021-04-17T10:20:01Z</time>
      </trkpt>
      <trkpt lat="-25.4918010" lon="-49.2149680">
        <ele>908.0</ele>
        <time>2021-04-17T10:20:03Z</time>
      </trkpt>
      <trkpt lat="-25.4918040" lon="-49.2149670">
        <ele>908.0</ele>
        <time>2021-04-17T10:20:05Z</time>
      </trkpt>
      <trkpt lat="-25.4918060" lon="-49.2149660">
        <ele>908.0</ele>
        <time>2021-04-17T10:20:07Z</time>
      </trkpt>
      <trkpt lat="-25.4918090" lon="-49.2149650">
        <ele>908.0</ele>
        <time>2021-04-17T10:20:09Z</time>
      </trkpt>
      <trkpt lat="-25.4918110" lon="-49.2149640">
        <ele>908.0</ele>
        <time>2021-04-17T10:20:11Z</time>
      </trkpt>
      <trkpt lat="-25.4918130" lon="-49.2149630">
        <ele>908.0</ele>
        <time>2021-04-17T10:20:13Z</time>
      </trkpt>
      <trkpt lat="-25.4918160" lon="-49.2149620">
        <ele>908.0</ele>
        <time>2021-04-17T10:20:15Z</time>
      </trkpt>
      <trkpt lat="-25.4918180" lon="-49.2149620">
        <ele>908.0</ele>
        <time>2021-04-17T10:20:17Z</time>
      </trkpt>
      <trkpt lat="-25.4918210" lon="-49.2149610">
        <ele>908.0</ele>
        <time>2021-04-17T10:20:19Z</time>
      </trkpt>
      <trkpt lat="-25.4918230" lon="-49.2149600">
        <ele>908.0</ele>
        <time>2021-04-17T10:20:20Z</time>
      </trkpt>
      <trkpt lat="-25.4918260" lon="-49.2149590">
        <ele>908.0</ele>
        <time>2021-04-17T10:20:21Z</time>
      </trkpt>
      <trkpt lat="-25.4918280" lon="-49.2149580">
        <ele>908.0</ele>
        <time>2021-04-17T10:20:23Z</time>
      </trkpt>
      <trkpt lat="-25.4918310" lon="-49.2149570">
        <ele>908.0</ele>
        <time>2021-04-17T10:20:25Z</time>
      </trkpt>
      <trkpt lat="-25.4918330" lon="-49.2149560">
        <ele>908.0</ele>
        <time>2021-04-17T10:20:27Z</time>
      </trkpt>
      <trkpt lat="-25.4918350" lon="-49.2149550">
        <ele>908.0</ele>
        <time>2021-04-17T10:20:29Z</time>
      </trkpt>
      <trkpt lat="-25.4918380" lon="-49.2149540">
        <ele>908.0</ele>
        <time>2021-04-17T10:20:31Z</time>
      </trkpt>
      <trkpt lat="-25.4918400" lon="-49.2149530">
        <ele>908.0</ele>
        <time>2021-04-17T10:20:33Z</time>
      </trkpt>
      <trkpt lat="-25.4918430" lon="-49.2149530">
        <ele>908.0</ele>
        <time>2021-04-17T10:20:35Z</time>
      </trkpt>
      <trkpt lat="-25.4918450" lon="-49.2149520">
        <ele>908.0</ele>
        <time>2021-04-17T10:20:37Z</time>
      </trkpt>
      <trkpt lat="-25.4918480" lon="-49.2149510">
        <ele>908.0</ele>
        <time>2021-04-17T10:20:39Z</time>
      </trkpt>
      <trkpt lat="-25.4918500" lon="-49.2149500">
        <ele>908.0</ele>
        <time>2021-04-17T10:20:41Z</time>
      </trkpt>
      <trkpt lat="-25.4918530" lon="-49.2149490">
        <ele>908.0</ele>
        <time>2021-04-17T10:20:42Z</time>
      </trkpt>
      <trkpt lat="-25.4918550" lon="-49.2149480">
        <ele>908.0</ele>
        <time>2021-04-17T10:20:43Z</time>
      </trkpt>
      <trkpt lat="-25.4918570" lon="-49.2149470">
        <ele>908.0</ele>
        <time>2021-04-17T10:20:45Z</time>
      </trkpt>
      <trkpt lat="-25.4918600" lon="-49.2149460">
        <ele>908.0</ele>
        <time>2021-04-17T10:20:47Z</time>
      </trkpt>
      <trkpt lat="-25.4918620" lon="-49.2149450">
        <ele>908.0</ele>
        <time>2021-04-17T10:20:49Z</time>
      </trkpt>
      <trkpt lat="-25.4918650" lon="-49.2149450">
        <ele>908.0</ele>
        <time>2021-04-17T10:20:51Z</time>
      </trkpt>
      <trkpt lat="-25.4918670" lon="-49.2149440">
        <ele>908.0</ele>
        <time>2021-04-17T10:20:53Z</time>
      </trkpt>
      <trkpt lat="-25.4918700" lon="-49.2149430">
        <ele>908.0</ele>
        <time>2021-04-17T10:20:55Z</time>
      </trkpt>
      <trkpt lat="-25.4918720" lon="-49.2149420">
        <ele>908.0</ele>
        <time>2021-04-17T10:20:57Z</time>
      </trkpt>
      <trkpt lat="-25.4918740" lon="-49.2149410">
        <ele>908.0</ele>
        <time>2021-04-17T10:20:59Z</time>
      </trkpt>
      <trkpt lat="-25.4918770" lon="-49.2149400">
        <ele>908.0</ele>
        <time>2021-04-17T10:21:01Z</time>
      </trkpt>
      <trkpt lat="-25.4918790" lon="-49.2149390">
        <ele>908.0</ele>
        <time>2021-04-17T10:21:03Z</time>
      </trkpt>
      <trkpt lat="-25.4918820" lon="-49.2149380">
        <ele>908.0</ele>
        <time>2021-04-17T10:21:05Z</time>
      </trkpt>
      <trkpt lat="-25.4918840" lon="-49.2149370">
        <ele>908.0</ele>
        <time>2021-04-17T10:21:07Z</time>
      </trkpt>
      <trkpt lat="-25.4918870" lon="-49.2149360">
        <ele>908.0</ele>
        <time>2021-04-17T10:21:08Z</time>
      </trkpt>
      <trkpt lat="-25.4918890" lon="-49.2149360">
        <ele>908.0</ele>
        <time>2021-04-17T10:21:09Z</time>
      </trkpt>
      <trkpt lat="-25.4918920" lon="-49.2149350">
        <ele>908.0</ele>
        <time>2021-04-17T10:21:11Z</time>
      </trkpt>
      <trkpt lat="-25.4918940" lon="-49.2149340">
        <ele>907.8</ele>
        <time>2021-04-17T10:21:13Z</time>
      </trkpt>
      <trkpt lat="-25.4918960" lon="-49.2149330">
        <ele>907.8</ele>
        <time>2021-04-17T10:21:15Z</time>
      </trkpt>
      <trkpt lat="-25.4918990" lon="-49.2149320">
        <ele>907.8</ele>
        <time>2021-04-17T10:21:17Z</time>
      </trkpt>
      <trkpt lat="-25.4919010" lon="-49.2149310">
        <ele>907.8</ele>
        <time>2021-04-17T10:21:19Z</time>
      </trkpt>
      <trkpt lat="-25.4919040" lon="-49.2149300">
        <ele>907.8</ele>
        <time>2021-04-17T10:21:21Z</time>
      </trkpt>
      <trkpt lat="-25.4919060" lon="-49.2149290">
        <ele>907.8</ele>
        <time>2021-04-17T10:21:23Z</time>
      </trkpt>
      <trkpt lat="-25.4919090" lon="-49.2149280">
        <ele>907.8</ele>
        <time>2021-04-17T10:21:25Z</time>
      </trkpt>
      <trkpt lat="-25.4919110" lon="-49.2149270">
        <ele>907.8</ele>
        <time>2021-04-17T10:21:27Z</time>
      </trkpt>
      <trkpt lat="-25.4919140" lon="-49.2149270">
        <ele>907.8</ele>
        <time>2021-04-17T10:21:29Z</time>
      </trkpt>
      <trkpt lat="-25.4919160" lon="-49.2149260">
        <ele>907.8</ele>
        <time>2021-04-17T10:21:31Z</time>
      </trkpt>
      <trkpt lat="-25.4919180" lon="-49.2149250">
        <ele>907.8</ele>
        <time>2021-04-17T10:21:33Z</time>
      </trkpt>
      <trkpt lat="-25.4919210" lon="-49.2149240">
        <ele>907.8</ele>
        <time>2021-04-17T10:21:35Z</time>
      </trkpt>
      <trkpt lat="-25.4919230" lon="-49.2149230">
        <ele>907.8</ele>
        <time>2021-04-17T10:21:37Z</time>
      </trkpt>
      <trkpt lat="-25.4919260" lon="-49.2149220">
        <ele>907.8</ele>
        <time>2021-04-17T10:21:39Z</time>
      </trkpt>
      <trkpt lat="-25.4919280" lon="-49.2149210">
        <ele>907.8</ele>
        <time>2021-04-17T10:21:41Z</time>
      </trkpt>
      <trkpt lat="-25.4919310" lon="-49.2149200">
        <ele>907.8</ele>
        <time>2021-04-17T10:21:43Z</time>
      </trkpt>
      <trkpt lat="-25.4919330" lon="-49.2149190">
        <ele>907.6</ele>
        <time>2021-04-17T10:21:45Z</time>
      </trkpt>
      <trkpt lat="-25.4919360" lon="-49.2149190">
        <ele>907.6</ele>
        <time>2021-04-17T10:21:46Z</time>
      </trkpt>
      <trkpt lat="-25.4919380" lon="-49.2149180">
        <ele>907.6</ele>
        <time>2021-04-17T10:21:47Z</time>
      </trkpt>
      <trkpt lat="-25.4919400" lon="-49.2149170">
        <ele>907.6</ele>
        <time>2021-04-17T10:21:49Z</time>
      </trkpt>
      <trkpt lat="-25.4919430" lon="-49.2149160">
        <ele>907.6</ele>
        <time>2021-04-17T10:21:51Z</time>
      </trkpt>
      <trkpt lat="-25.4919450" lon="-49.2149150">
        <ele>907.6</ele>
        <time>2021-04-17T10:21:53Z</time>
      </trkpt>
      <trkpt lat="-25.4919480" lon="-49.2149140">
        <ele>907.6</ele>
        <time>2021-04-17T10:21:55Z</time>
      </trkpt>
      <trkpt lat="-25.4919500" lon="-49.2149130">
        <ele>907.6</ele>
        <time>2021-04-17T10:21:57Z</time>
      </trkpt>
      <trkpt lat="-25.4919530" lon="-49.2149120">
        <ele>907.6</ele>
        <time>2021-04-17T10:21:59Z</time>
      </trkpt>
      <trkpt lat="-25.4919550" lon="-49.2149110">
        <ele>907.6</ele>
        <time>2021-04-17T10:22:01Z</time>
      </trkpt>
      <trkpt lat="-25.4919580" lon="-49.2149100">
        <ele>907.6</ele>
        <time>2021-04-17T10:22:03Z</time>
      </trkpt>
      <trkpt lat="-25.4919600" lon="-49.2149100">
        <ele>907.6</ele>
        <time>2021-04-17T10:22:05Z</time>
      </trkpt>
      <trkpt lat="-25.4919620" lon="-49.2149090">
        <ele>907.6</ele>
        <time>2021-04-17T10:22:07Z</time>
      </trkpt>
      <trkpt lat="-25.4919650" lon="-49.2149080">
        <ele>907.6</ele>
        <time>2021-04-17T10:22:09Z</time>
      </trkpt>
      <trkpt lat="-25.4919670" lon="-49.2149070">
        <ele>907.6</ele>
        <time>2021-04-17T10:22:11Z</time>
      </trkpt>
      <trkpt lat="-25.4919700" lon="-49.2149060">
        <ele>907.6</ele>
        <time>2021-04-17T10:22:13Z</time>
      </trkpt>
      <trkpt lat="-25.4919720" lon="-49.2149050">
        <ele>907.6</ele>
        <time>2021-04-17T10:22:15Z</time>
      </trkpt>
      <trkpt lat="-25.4919750" lon="-49.2149040">
        <ele>907.6</ele>
        <time>2021-04-17T10:22:17Z</time>
      </trkpt>
      <trkpt lat="-25.4919770" lon="-49.2149030">
        <ele>907.6</ele>
        <time>2021-04-17T10:22:19Z</time>
      </trkpt>
      <trkpt lat="-25.4919800" lon="-49.2149020">
        <ele>907.6</ele>
        <time>2021-04-17T10:22:21Z</time>
      </trkpt>
      <trkpt lat="-25.4919820" lon="-49.2149010">
        <ele>907.6</ele>
        <time>2021-04-17T10:22:23Z</time>
      </trkpt>
      <trkpt lat="-25.4919840" lon="-49.2149010">
        <ele>907.6</ele>
        <time>2021-04-17T10:22:25Z</time>
      </trkpt>
      <trkpt lat="-25.4919870" lon="-49.2149000">
        <ele>907.6</ele>
        <time>2021-04-17T10:22:27Z</time>
      </trkpt>
      <trkpt lat="-25.4919890" lon="-49.2148990">
        <ele>907.6</ele>
        <time>2021-04-17T10:22:29Z</time>
      </trkpt>
      <trkpt lat="-25.4919920" lon="-49.2148980">
        <ele>907.6</ele>
        <time>2021-04-17T10:22:31Z</time>
      </trkpt>
      <trkpt lat="-25.4919940" lon="-49.2148970">
        <ele>907.4</ele>
        <time>2021-04-17T10:22:33Z</time>
      </trkpt>
      <trkpt lat="-25.4919970" lon="-49.2148960">
        <ele>907.4</ele>
        <time>2021-04-17T10:22:35Z</time>
      </trkpt>
      <trkpt lat="-25.4919990" lon="-49.2148950">
        <ele>907.4</ele>
        <time>2021-04-17T10:22:37Z</time>
      </trkpt>
      <trkpt lat="-25.4920020" lon="-49.2148940">
        <ele>907.4</ele>
        <time>2021-04-17T10:22:39Z</time>
      </trkpt>
      <trkpt lat="-25.4920040" lon="-49.2148930">
        <ele>907.4</ele>
        <time>2021-04-17T10:22:41Z</time>
      </trkpt>
      <trkpt lat="-25.4920060" lon="-49.2148930">
        <ele>907.4</ele>
        <time>2021-04-17T10:22:43Z</time>
      </trkpt>
      <trkpt lat="-25.4920090" lon="-49.2148920">
        <ele>907.4</ele>
        <time>2021-04-17T10:22:45Z</time>
      </trkpt>
      <trkpt lat="-25.4920110" lon="-49.2148910">
        <ele>907.4</ele>
        <time>2021-04-17T10:22:47Z</time>
      </trkpt>
      <trkpt lat="-25.4920140" lon="-49.2148900">
        <ele>907.4</ele>
        <time>2021-04-17T10:22:49Z</time>
      </trkpt>
      <trkpt lat="-25.4920160" lon="-49.2148890">
        <ele>907.4</ele>
        <time>2021-04-17T10:22:51Z</time>
      </trkpt>
      <trkpt lat="-25.4920190" lon="-49.2148880">
        <ele>907.4</ele>
        <time>2021-04-17T10:22:53Z</time>
      </trkpt>
      <trkpt lat="-25.4920210" lon="-49.2148870">
        <ele>907.4</ele>
        <time>2021-04-17T10:22:55Z</time>
      </trkpt>
      <trkpt lat="-25.4920240" lon="-49.2148860">
        <ele>907.6</ele>
        <time>2021-04-17T10:22:57Z</time>
      </trkpt>
      <trkpt lat="-25.4920260" lon="-49.2148850">
        <ele>907.4</ele>
        <time>2021-04-17T10:22:59Z</time>
      </trkpt>
      <trkpt lat="-25.4920280" lon="-49.2148840">
        <ele>907.4</ele>
        <time>2021-04-17T10:23:01Z</time>
      </trkpt>
      <trkpt lat="-25.4920310" lon="-49.2148840">
        <ele>907.6</ele>
        <time>2021-04-17T10:23:03Z</time>
      </trkpt>
      <trkpt lat="-25.4920330" lon="-49.2148830">
        <ele>907.6</ele>
        <time>2021-04-17T10:23:05Z</time>
      </trkpt>
      <trkpt lat="-25.4920360" lon="-49.2148820">
        <ele>907.6</ele>
        <time>2021-04-17T10:23:06Z</time>
      </trkpt>
      <trkpt lat="-25.4920380" lon="-49.2148810">
        <ele>907.6</ele>
        <time>2021-04-17T10:23:07Z</time>
      </trkpt>
      <trkpt lat="-25.4920410" lon="-49.2148800">
        <ele>907.6</ele>
        <time>2021-04-17T10:23:09Z</time>
      </trkpt>
      <trkpt lat="-25.4920430" lon="-49.2148790">
        <ele>907.6</ele>
        <time>2021-04-17T10:23:11Z</time>
      </trkpt>
      <trkpt lat="-25.4920460" lon="-49.2148780">
        <ele>907.6</ele>
        <time>2021-04-17T10:23:13Z</time>
      </trkpt>
      <trkpt lat="-25.4920480" lon="-49.2148770">
        <ele>907.6</ele>
        <time>2021-04-17T10:23:15Z</time>
      </trkpt>
      <trkpt lat="-25.4920500" lon="-49.2148760">
        <ele>907.6</ele>
        <time>2021-04-17T10:23:17Z</time>
      </trkpt>
      <trkpt lat="-25.4920530" lon="-49.2148750">
        <ele>907.6</ele>
        <time>2021-04-17T10:23:19Z</time>
      </trkpt>
      <trkpt lat="-25.4920550" lon="-49.2148750">
        <ele>907.6</ele>
        <time>2021-04-17T10:23:21Z</time>
      </trkpt>
      <trkpt lat="-25.4920580" lon="-49.2148740">
        <ele>907.6</ele>
        <time>2021-04-17T10:23:23Z</time>
      </trkpt>
      <trkpt lat="-25.4920600" lon="-49.2148730">
        <ele>907.6</ele>
        <time>2021-04-17T10:23:25Z</time>
      </trkpt>
      <trkpt lat="-25.4920630" lon="-49.2148720">
        <ele>907.6</ele>
        <time>2021-04-17T10:23:27Z</time>
      </trkpt>
      <trkpt lat="-25.4920650" lon="-49.2148710">
        <ele>907.6</ele>
        <time>2021-04-17T10:23:29Z</time>
      </trkpt>
      <trkpt lat="-25.4920680" lon="-49.2148700">
        <ele>907.6</ele>
        <time>2021-04-17T10:23:31Z</time>
      </trkpt>
      <trkpt lat="-25.4920700" lon="-49.2148690">
        <ele>907.6</ele>
        <time>2021-04-17T10:23:33Z</time>
      </trkpt>
      <trkpt lat="-25.4920720" lon="-49.2148680">
        <ele>907.6</ele>
        <time>2021-04-17T10:23:35Z</time>
      </trkpt>
      <trkpt lat="-25.4920750" lon="-49.2148670">
        <ele>907.6</ele>
        <time>2021-04-17T10:23:37Z</time>
      </trkpt>
      <trkpt lat="-25.4920770" lon="-49.2148670">
        <ele>907.6</ele>
        <time>2021-04-17T10:23:39Z</time>
      </trkpt>
      <trkpt lat="-25.4920800" lon="-49.2148660">
        <ele>907.6</ele>
        <time>2021-04-17T10:23:41Z</time>
      </trkpt>
      <trkpt lat="-25.4920820" lon="-49.2148650">
        <ele>907.6</ele>
        <time>2021-04-17T10:23:43Z</time>
      </trkpt>
      <trkpt lat="-25.4920850" lon="-49.2148640">
        <ele>907.6</ele>
        <time>2021-04-17T10:23:45Z</time>
      </trkpt>
      <trkpt lat="-25.4920870" lon="-49.2148630">
        <ele>907.6</ele>
        <time>2021-04-17T10:23:46Z</time>
      </trkpt>
      <trkpt lat="-25.4920900" lon="-49.2148620">
        <ele>907.6</ele>
        <time>2021-04-17T10:23:47Z</time>
      </trkpt>
      <trkpt lat="-25.4920920" lon="-49.2148610">
        <ele>907.6</ele>
        <time>2021-04-17T10:23:49Z</time>
      </trkpt>
      <trkpt lat="-25.4920940" lon="-49.2148600">
        <ele>907.6</ele>
        <time>2021-04-17T10:23:51Z</time>
      </trkpt>
      <trkpt lat="-25.4920970" lon="-49.2148590">
        <ele>907.6</ele>
        <time>2021-04-17T10:23:53Z</time>
      </trkpt>
      <trkpt lat="-25.4920990" lon="-49.2148580">
        <ele>907.6</ele>
        <time>2021-04-17T10:23:55Z</time>
      </trkpt>
      <trkpt lat="-25.4921020" lon="-49.2148580">
        <ele>907.6</ele>
        <time>2021-04-17T10:23:57Z</time>
      </trkpt>
      <trkpt lat="-25.4921040" lon="-49.2148570">
        <ele>907.4</ele>
        <time>2021-04-17T10:23:59Z</time>
      </trkpt>
      <trkpt lat="-25.4921070" lon="-49.2148560">
        <ele>907.4</ele>
        <time>2021-04-17T10:24:01Z</time>
      </trkpt>
      <trkpt lat="-25.4921090" lon="-49.2148550">
        <ele>907.4</ele>
        <time>2021-04-17T10:24:03Z</time>
      </trkpt>
      <trkpt lat="-25.4921120" lon="-49.2148540">
        <ele>907.4</ele>
        <time>2021-04-17T10:24:05Z</time>
      </trkpt>
      <trkpt lat="-25.4921140" lon="-49.2148530">
        <ele>907.4</ele>
        <time>2021-04-17T10:24:07Z</time>
      </trkpt>
      <trkpt lat="-25.4921160" lon="-49.2148520">
        <ele>907.4</ele>
        <time>2021-04-17T10:24:08Z</time>
      </trkpt>
      <trkpt lat="-25.4921190" lon="-49.2148510">
        <ele>907.4</ele>
        <time>2021-04-17T10:24:09Z</time>
      </trkpt>
      <trkpt lat="-25.4921210" lon="-49.2148500">
        <ele>907.4</ele>
        <time>2021-04-17T10:24:11Z</time>
      </trkpt>
      <trkpt lat="-25.4921240" lon="-49.2148490">
        <ele>907.4</ele>
        <time>2021-04-17T10:24:13Z</time>
      </trkpt>
      <trkpt lat="-25.4921260" lon="-49.2148490">
        <ele>907.4</ele>
        <time>2021-04-17T10:24:15Z</time>
      </trkpt>
      <trkpt lat="-25.4921290" lon="-49.2148480">
        <ele>907.4</ele>
        <time>2021-04-17T10:24:17Z</time>
      </trkpt>
      <trkpt lat="-25.4921310" lon="-49.2148470">
        <ele>907.4</ele>
        <time>2021-04-17T10:24:19Z</time>
      </trkpt>
      <trkpt lat="-25.4921340" lon="-49.2148460">
        <ele>906.2</ele>
        <time>2021-04-17T10:27:34Z</time>
      </trkpt>
      <trkpt lat="-25.4921360" lon="-49.2148450">
        <ele>906.0</ele>
        <time>2021-04-17T10:27:35Z</time>
      </trkpt>
      <trkpt lat="-25.4921730" lon="-49.2148180">
        <ele>906.0</ele>
        <time>2021-04-17T10:27:36Z</time>
      </trkpt>
      <trkpt lat="-25.4922120" lon="-49.2147930">
        <ele>905.6</ele>
        <time>2021-04-17T10:27:37Z</time>
      </trkpt>
      <trkpt lat="-25.4922460" lon="-49.2147710">
        <ele>905.4</ele>
        <time>2021-04-17T10:27:38Z</time>
      </trkpt>
      <trkpt lat="-25.4922790" lon="-49.2147480">
        <ele>905.4</ele>
        <time>2021-04-17T10:27:39Z</time>
      </trkpt>
      <trkpt lat="-25.4923460" lon="-49.2147050">
        <ele>905.2</ele>
        <time>2021-04-17T10:27:41Z</time>
      </trkpt>
      <trkpt lat="-25.4923780" lon="-49.2146790">
        <ele>905.0</ele>
        <time>2021-04-17T10:27:42Z</time>
      </trkpt>
      <trkpt lat="-25.4924100" lon="-49.2146510">
        <ele>904.6</ele>
        <time>2021-04-17T10:27:43Z</time>
      </trkpt>
      <trkpt lat="-25.4924830" lon="-49.2145910">
        <ele>904.2</ele>
        <time>2021-04-17T10:27:45Z</time>
      </trkpt>
      <trkpt lat="-25.4925600" lon="-49.2145340">
        <ele>903.8</ele>
        <time>2021-04-17T10:27:47Z</time>
      </trkpt>
      <trkpt lat="-25.4926000" lon="-49.2145030">
        <ele>903.6</ele>
        <time>2021-04-17T10:27:48Z</time>
      </trkpt>
      <trkpt lat="-25.4926410" lon="-49.2144700">
        <ele>903.6</ele>
        <time>2021-04-17T10:27:49Z</time>
      </trkpt>
      <trkpt lat="-25.4927280" lon="-49.2144110">
        <ele>903.2</ele>
        <time>2021-04-17T10:27:51Z</time>
      </trkpt>
      <trkpt lat="-25.4928200" lon="-49.2143490">
        <ele>902.6</ele>
        <time>2021-04-17T10:27:53Z</time>
      </trkpt>
      <trkpt lat="-25.4929200" lon="-49.2142750">
        <ele>902.2</ele>
        <time>2021-04-17T10:27:55Z</time>
      </trkpt>
      <trkpt lat="-25.4930270" lon="-49.2142010">
        <ele>901.8</ele>
        <time>2021-04-17T10:27:57Z</time>
      </trkpt>
      <trkpt lat="-25.4931390" lon="-49.2141240">
        <ele>901.6</ele>
        <time>2021-04-17T10:27:59Z</time>
      </trkpt>
      <trkpt lat="-25.4932000" lon="-49.2140820">
        <ele>901.4</ele>
        <time>2021-04-17T10:28:00Z</time>
      </trkpt>
      <trkpt lat="-25.4932620" lon="-49.2140400">
        <ele>901.2</ele>
        <time>2021-04-17T10:28:01Z</time>
      </trkpt>
      <trkpt lat="-25.4933040" lon="-49.2140110">
        <ele>901.0</ele>
        <time>2021-04-17T10:28:02Z</time>
      </trkpt>
      <trkpt lat="-25.4933450" lon="-49.2139820">
        <ele>900.8</ele>
        <time>2021-04-17T10:28:03Z</time>
      </trkpt>
      <trkpt lat="-25.4935100" lon="-49.2138650">
        <ele>900.4</ele>
        <time>2021-04-17T10:28:05Z</time>
      </trkpt>
      <trkpt lat="-25.4935730" lon="-49.2138240">
        <ele>900.0</ele>
        <time>2021-04-17T10:28:06Z</time>
      </trkpt>
      <trkpt lat="-25.4936380" lon="-49.2137830">
        <ele>899.8</ele>
        <time>2021-04-17T10:28:07Z</time>
      </trkpt>
      <trkpt lat="-25.4937710" lon="-49.2136930">
        <ele>899.2</ele>
        <time>2021-04-17T10:28:09Z</time>
      </trkpt>
      <trkpt lat="-25.4938350" lon="-49.2136410">
        <ele>899.0</ele>
        <time>2021-04-17T10:28:10Z</time>
      </trkpt>
      <trkpt lat="-25.4939020" lon="-49.2135910">
        <ele>898.8</ele>
        <time>2021-04-17T10:28:11Z</time>
      </trkpt>
      <trkpt lat="-25.4940370" lon="-49.2134940">
        <ele>898.2</ele>
        <time>2021-04-17T10:28:13Z</time>
      </trkpt>
      <trkpt lat="-25.4940900" lon="-49.2134590">
        <ele>897.8</ele>
        <time>2021-04-17T10:28:14Z</time>
      </trkpt>
      <trkpt lat="-25.4941430" lon="-49.2134240">
        <ele>897.0</ele>
        <time>2021-04-17T10:28:15Z</time>
      </trkpt>
      <trkpt lat="-25.4942480" lon="-49.2133530">
        <ele>896.6</ele>
        <time>2021-04-17T10:28:16Z</time>
      </trkpt>
      <trkpt lat="-25.4943540" lon="-49.2132790">
        <ele>896.2</ele>
        <time>2021-04-17T10:28:17Z</time>
      </trkpt>
      <trkpt lat="-25.4944600" lon="-49.2132040">
        <ele>895.8</ele>
        <time>2021-04-17T10:28:19Z</time>
      </trkpt>
      <trkpt lat="-25.4945070" lon="-49.2131720">
        <ele>895.4</ele>
        <time>2021-04-17T10:28:20Z</time>
      </trkpt>
      <trkpt lat="-25.4945530" lon="-49.2131390">
        <ele>895.0</ele>
        <time>2021-04-17T10:28:21Z</time>
      </trkpt>
      <trkpt lat="-25.4947400" lon="-49.2130100">
        <ele>894.4</ele>
        <time>2021-04-17T10:28:23Z</time>
      </trkpt>
      <trkpt lat="-25.4948720" lon="-49.2129190">
        <ele>894.0</ele>
        <time>2021-04-17T10:28:25Z</time>
      </trkpt>
      <trkpt lat="-25.4949990" lon="-49.2128310">
        <ele>893.6</ele>
        <time>2021-04-17T10:28:27Z</time>
      </trkpt>
      <trkpt lat="-25.4950610" lon="-49.2127870">
        <ele>893.2</ele>
        <time>2021-04-17T10:28:28Z</time>
      </trkpt>
      <trkpt lat="-25.4951230" lon="-49.2127450">
        <ele>892.8</ele>
        <time>2021-04-17T10:28:29Z</time>
      </trkpt>
      <trkpt lat="-25.4952430" lon="-49.2126680">
        <ele>892.0</ele>
        <time>2021-04-17T10:28:31Z</time>
      </trkpt>
      <trkpt lat="-25.4953510" lon="-49.2125990">
        <ele>891.6</ele>
        <time>2021-04-17T10:28:33Z</time>
      </trkpt>
      <trkpt lat="-25.4954580" lon="-49.2125260">
        <ele>891.2</ele>
        <time>2021-04-17T10:28:35Z</time>
      </trkpt>
      <trkpt lat="-25.4955080" lon="-49.2124930">
        <ele>891.0</ele>
        <time>2021-04-17T10:28:36Z</time>
      </trkpt>
      <trkpt lat="-25.4955540" lon="-49.2124600">
        <ele>890.8</ele>
        <time>2021-04-17T10:28:37Z</time>
      </trkpt>
      <trkpt lat="-25.4956450" lon="-49.2124070">
        <ele>890.4</ele>
        <time>2021-04-17T10:28:39Z</time>
      </trkpt>
      <trkpt lat="-25.4956950" lon="-49.2123830">
        <ele>890.2</ele>
        <time>2021-04-17T10:28:40Z</time>
      </trkpt>
      <trkpt lat="-25.4957470" lon="-49.2123540">
        <ele>890.0</ele>
        <time>2021-04-17T10:28:41Z</time>
      </trkpt>
      <trkpt lat="-25.4958570" lon="-49.2122850">
        <ele>889.8</ele>
        <time>2021-04-17T10:28:43Z</time>
      </trkpt>
      <trkpt lat="-25.4959690" lon="-49.2122150">
        <ele>889.4</ele>
        <time>2021-04-17T10:28:45Z</time>
      </trkpt>
      <trkpt lat="-25.4960260" lon="-49.2121790">
        <ele>889.0</ele>
        <time>2021-04-17T10:28:46Z</time>
      </trkpt>
      <trkpt lat="-25.4960820" lon="-49.2121420">
        <ele>888.8</ele>
        <time>2021-04-17T10:28:47Z</time>
      </trkpt>
      <trkpt lat="-25.4961920" lon="-49.2120600">
        <ele>888.6</ele>
        <time>2021-04-17T10:28:49Z</time>
      </trkpt>
      <trkpt lat="-25.4963010" lon="-49.2119860">
        <ele>888.6</ele>
        <time>2021-04-17T10:28:51Z</time>
      </trkpt>
      <trkpt lat="-25.4963560" lon="-49.2119500">
        <ele>888.4</ele>
        <time>2021-04-17T10:28:52Z</time>
      </trkpt>
      <trkpt lat="-25.4964100" lon="-49.2119160">
        <ele>888.2</ele>
        <time>2021-04-17T10:28:53Z</time>
      </trkpt>
      <trkpt lat="-25.4964630" lon="-49.2118840">
        <ele>888.2</ele>
        <time>2021-04-17T10:28:54Z</time>
      </trkpt>
      <trkpt lat="-25.4965120" lon="-49.2118520">
        <ele>888.0</ele>
        <time>2021-04-17T10:28:55Z</time>
      </trkpt>
      <trkpt lat="-25.4965510" lon="-49.2118270">
        <ele>887.8</ele>
        <time>2021-04-17T10:28:56Z</time>
      </trkpt>
      <trkpt lat="-25.4965890" lon="-49.2118010">
        <ele>887.6</ele>
        <time>2021-04-17T10:28:57Z</time>
      </trkpt>
      <trkpt lat="-25.4966660" lon="-49.2117490">
        <ele>887.4</ele>
        <time>2021-04-17T10:28:58Z</time>
      </trkpt>
      <trkpt lat="-25.4967160" lon="-49.2117150">
        <ele>887.2</ele>
        <time>2021-04-17T10:28:59Z</time>
      </trkpt>
      <trkpt lat="-25.4967640" lon="-49.2116830">
        <ele>886.6</ele>
        <time>2021-04-17T10:29:01Z</time>
      </trkpt>
      <trkpt lat="-25.4969150" lon="-49.2115850">
        <ele>886.4</ele>
        <time>2021-04-17T10:29:03Z</time>
      </trkpt>
      <trkpt lat="-25.4970170" lon="-49.2115180">
        <ele>886.0</ele>
        <time>2021-04-17T10:29:05Z</time>
      </trkpt>
      <trkpt lat="-25.4971200" lon="-49.2114540">
        <ele>885.8</ele>
        <time>2021-04-17T10:29:07Z</time>
      </trkpt>
      <trkpt lat="-25.4971710" lon="-49.2114290">
        <ele>885.6</ele>
        <time>2021-04-17T10:29:09Z</time>
      </trkpt>
      <trkpt lat="-25.4972770" lon="-49.2114090">
        <ele>885.6</ele>
        <time>2021-04-17T10:29:10Z</time>
      </trkpt>
      <trkpt lat="-25.4973300" lon="-49.2114180">
        <ele>885.4</ele>
        <time>2021-04-17T10:29:11Z</time>
      </trkpt>
      <trkpt lat="-25.4974350" lon="-49.2114390">
        <ele>885.2</ele>
        <time>2021-04-17T10:29:13Z</time>
      </trkpt>
      <trkpt lat="-25.4975380" lon="-49.2114670">
        <ele>885.2</ele>
        <time>2021-04-17T10:29:15Z</time>
      </trkpt>
      <trkpt lat="-25.4976480" lon="-49.2115010">
        <ele>885.0</ele>
        <time>2021-04-17T10:29:17Z</time>
      </trkpt>
      <trkpt lat="-25.4977630" lon="-49.2115280">
        <ele>884.6</ele>
        <time>2021-04-17T10:29:19Z</time>
      </trkpt>
      <trkpt lat="-25.4978060" lon="-49.2115340">
        <ele>884.4</ele>
        <time>2021-04-17T10:29:20Z</time>
      </trkpt>
      <trkpt lat="-25.4978490" lon="-49.2115410">
        <ele>884.2</ele>
        <time>2021-04-17T10:29:21Z</time>
      </trkpt>
      <trkpt lat="-25.4979350" lon="-49.2115550">
        <ele>884.0</ele>
        <time>2021-04-17T10:29:22Z</time>
      </trkpt>
      <trkpt lat="-25.4979870" lon="-49.2115740">
        <ele>884.0</ele>
        <time>2021-04-17T10:29:23Z</time>
      </trkpt>
      <trkpt lat="-25.4980870" lon="-49.2116090">
        <ele>884.0</ele>
        <time>2021-04-17T10:29:25Z</time>
      </trkpt>
      <trkpt lat="-25.4981210" lon="-49.2116160">
        <ele>884.0</ele>
        <time>2021-04-17T10:29:26Z</time>
      </trkpt>
      <trkpt lat="-25.4981550" lon="-49.2116240">
        <ele>884.0</ele>
        <time>2021-04-17T10:29:27Z</time>
      </trkpt>
      <trkpt lat="-25.4982910" lon="-49.2116540">
        <ele>884.0</ele>
        <time>2021-04-17T10:29:29Z</time>
      </trkpt>
      <trkpt lat="-25.4983990" lon="-49.2116710">
        <ele>884.0</ele>
        <time>2021-04-17T10:29:31Z</time>
      </trkpt>
      <trkpt lat="-25.4985080" lon="-49.2116900">
        <ele>884.0</ele>
        <time>2021-04-17T10:29:33Z</time>
      </trkpt>
      <trkpt lat="-25.4985600" lon="-49.2117040">
        <ele>884.0</ele>
        <time>2021-04-17T10:29:34Z</time>
      </trkpt>
      <trkpt lat="-25.4986100" lon="-49.2117190">
        <ele>884.0</ele>
        <time>2021-04-17T10:29:35Z</time>
      </trkpt>
      <trkpt lat="-25.4987110" lon="-49.2117590">
        <ele>884.0</ele>
        <time>2021-04-17T10:29:37Z</time>
      </trkpt>
      <trkpt lat="-25.4988120" lon="-49.2117860">
        <ele>884.0</ele>
        <time>2021-04-17T10:29:39Z</time>
      </trkpt>
      <trkpt lat="-25.4988640" lon="-49.2118000">
        <ele>884.0</ele>
        <time>2021-04-17T10:29:40Z</time>
      </trkpt>
      <trkpt lat="-25.4989170" lon="-49.2118140">
        <ele>884.0</ele>
        <time>2021-04-17T10:29:41Z</time>
      </trkpt>
      <trkpt lat="-25.4990210" lon="-49.2118370">
        <ele>884.0</ele>
        <time>2021-04-17T10:29:43Z</time>
      </trkpt>
      <trkpt lat="-25.4991240" lon="-49.2118630">
        <ele>884.0</ele>
        <time>2021-04-17T10:29:45Z</time>
      </trkpt>
      <trkpt lat="-25.4992260" lon="-49.2118880">
        <ele>884.0</ele>
        <time>2021-04-17T10:29:47Z</time>
      </trkpt>
      <trkpt lat="-25.4993280" lon="-49.2119120">
        <ele>884.0</ele>
        <time>2021-04-17T10:29:49Z</time>
      </trkpt>
      <trkpt lat="-25.4993620" lon="-49.2119190">
        <ele>884.0</ele>
        <time>2021-04-17T10:29:50Z</time>
      </trkpt>
      <trkpt lat="-25.4993950" lon="-49.2119270">
        <ele>884.0</ele>
        <time>2021-04-17T10:29:51Z</time>
      </trkpt>
      <trkpt lat="-25.4995280" lon="-49.2119580">
        <ele>884.0</ele>
        <time>2021-04-17T10:29:53Z</time>
      </trkpt>
      <trkpt lat="-25.4996190" lon="-49.2119840">
        <ele>884.0</ele>
        <time>2021-04-17T10:29:55Z</time>
      </trkpt>
      <trkpt lat="-25.4996850" lon="-49.2120280">
        <ele>883.8</ele>
        <time>2021-04-17T10:29:57Z</time>
      </trkpt>
      <trkpt lat="-25.4997150" lon="-49.2120710">
        <ele>883.8</ele>
        <time>2021-04-17T10:29:59Z</time>
      </trkpt>
      <trkpt lat="-25.4997310" lon="-49.2120860">
        <ele>883.8</ele>
        <time>2021-04-17T10:30:00Z</time>
      </trkpt>
      <trkpt lat="-25.4997310" lon="-49.2120860">
        <ele>883.6</ele>
        <time>2021-04-17T10:30:01Z</time>
      </trkpt>
      <trkpt lat="-25.4997950" lon="-49.2121540">
        <ele>883.6</ele>
        <time>2021-04-17T10:30:03Z</time>
      </trkpt>
      <trkpt lat="-25.4998400" lon="-49.2122200">
        <ele>883.6</ele>
        <time>2021-04-17T10:30:05Z</time>
      </trkpt>
      <trkpt lat="-25.4998660" lon="-49.2122530">
        <ele>883.6</ele>
        <time>2021-04-17T10:30:06Z</time>
      </trkpt>
      <trkpt lat="-25.4998850" lon="-49.2122620">
        <ele>883.6</ele>
        <time>2021-04-17T10:30:07Z</time>
      </trkpt>
      <trkpt lat="-25.4999030" lon="-49.2122710">
        <ele>883.6</ele>
        <time>2021-04-17T10:30:08Z</time>
      </trkpt>
      <trkpt lat="-25.4999460" lon="-49.2122710">
        <ele>883.6</ele>
        <time>2021-04-17T10:30:09Z</time>
      </trkpt>
      <trkpt lat="-25.5000240" lon="-49.2122090">
        <ele>883.6</ele>
        <time>2021-04-17T10:30:10Z</time>
      </trkpt>
      <trkpt lat="-25.5000510" lon="-49.2121640">
        <ele>883.6</ele>
        <time>2021-04-17T10:30:11Z</time>
      </trkpt>
      <trkpt lat="-25.5001010" lon="-49.2120700">
        <ele>883.6</ele>
        <time>2021-04-17T10:30:13Z</time>
      </trkpt>
      <trkpt lat="-25.5001580" lon="-49.2119910">
        <ele>883.6</ele>
        <time>2021-04-17T10:30:15Z</time>
      </trkpt>
      <trkpt lat="-25.5002260" lon="-49.2119230">
        <ele>883.6</ele>
        <time>2021-04-17T10:30:17Z</time>
      </trkpt>
      <trkpt lat="-25.5002640" lon="-49.2118930">
        <ele>883.6</ele>
        <time>2021-04-17T10:30:18Z</time>
      </trkpt>
      <trkpt lat="-25.5003050" lon="-49.2118680">
        <ele>883.6</ele>
        <time>2021-04-17T10:30:19Z</time>
      </trkpt>
      <trkpt lat="-25.5003880" lon="-49.2118240">
        <ele>883.6</ele>
        <time>2021-04-17T10:30:21Z</time>
      </trkpt>
      <trkpt lat="-25.5004720" lon="-49.2117850">
        <ele>883.6</ele>
        <time>2021-04-17T10:30:23Z</time>
      </trkpt>
      <trkpt lat="-25.5005540" lon="-49.2117550">
        <ele>883.6</ele>
        <time>2021-04-17T10:30:25Z</time>
      </trkpt>
      <trkpt lat="-25.5005920" lon="-49.2117320">
        <ele>883.6</ele>
        <time>2021-04-17T10:30:27Z</time>
      </trkpt>
      <trkpt lat="-25.5006430" lon="-49.2116510">
        <ele>883.6</ele>
        <time>2021-04-17T10:30:28Z</time>
      </trkpt>
      <trkpt lat="-25.5006640" lon="-49.2116010">
        <ele>883.6</ele>
        <time>2021-04-17T10:30:29Z</time>
      </trkpt>
      <trkpt lat="-25.5007120" lon="-49.2115010">
        <ele>883.6</ele>
        <time>2021-04-17T10:30:31Z</time>
      </trkpt>
      <trkpt lat="-25.5007780" lon="-49.2114130">
        <ele>883.6</ele>
        <time>2021-04-17T10:30:33Z</time>
      </trkpt>
      <trkpt lat="-25.5008160" lon="-49.2113750">
        <ele>883.6</ele>
        <time>2021-04-17T10:30:34Z</time>
      </trkpt>
      <trkpt lat="-25.5008540" lon="-49.2113380">
        <ele>883.4</ele>
        <time>2021-04-17T10:30:35Z</time>
      </trkpt>
      <trkpt lat="-25.5009310" lon="-49.2112640">
        <ele>883.4</ele>
        <time>2021-04-17T10:30:37Z</time>
      </trkpt>
      <trkpt lat="-25.5010040" lon="-49.2111870">
        <ele>883.4</ele>
        <time>2021-04-17T10:30:39Z</time>
      </trkpt>
      <trkpt lat="-25.5010790" lon="-49.2111100">
        <ele>883.4</ele>
        <time>2021-04-17T10:30:41Z</time>
      </trkpt>
      <trkpt lat="-25.5011180" lon="-49.2110710">
        <ele>883.4</ele>
        <time>2021-04-17T10:30:42Z</time>
      </trkpt>
      <trkpt lat="-25.5011580" lon="-49.2110330">
        <ele>883.4</ele>
        <time>2021-04-17T10:30:43Z</time>
      </trkpt>
      <trkpt lat="-25.5012340" lon="-49.2109550">
        <ele>883.4</ele>
        <time>2021-04-17T10:30:45Z</time>
      </trkpt>
      <trkpt lat="-25.5013100" lon="-49.2108800">
        <ele>883.4</ele>
        <time>2021-04-17T10:30:47Z</time>
      </trkpt>
      <trkpt lat="-25.5013520" lon="-49.2108540">
        <ele>883.4</ele>
        <time>2021-04-17T10:30:48Z</time>
      </trkpt>
      <trkpt lat="-25.5013980" lon="-49.2108410">
        <ele>883.4</ele>
        <time>2021-04-17T10:30:49Z</time>
      </trkpt>
      <trkpt lat="-25.5014370" lon="-49.2108190">
        <ele>883.4</ele>
        <time>2021-04-17T10:30:50Z</time>
      </trkpt>
      <trkpt lat="-25.5014760" lon="-49.2107970">
        <ele>883.4</ele>
        <time>2021-04-17T10:30:51Z</time>
      </trkpt>
      <trkpt lat="-25.5014950" lon="-49.2107620">
        <ele>883.4</ele>
        <time>2021-04-17T10:30:52Z</time>
      </trkpt>
      <trkpt lat="-25.5015030" lon="-49.2107250">
        <ele>883.4</ele>
        <time>2021-04-17T10:30:53Z</time>
      </trkpt>
      <trkpt lat="-25.5015410" lon="-49.2106650">
        <ele>883.6</ele>
        <time>2021-04-17T10:30:55Z</time>
      </trkpt>
      <trkpt lat="-25.5015730" lon="-49.2106340">
        <ele>883.6</ele>
        <time>2021-04-17T10:30:56Z</time>
      </trkpt>
      <trkpt lat="-25.5016050" lon="-49.2106020">
        <ele>883.6</ele>
        <time>2021-04-17T10:30:57Z</time>
      </trkpt>
      <trkpt lat="-25.5016750" lon="-49.2105380">
        <ele>883.8</ele>
        <time>2021-04-17T10:30:59Z</time>
      </trkpt>
      <trkpt lat="-25.5017440" lon="-49.2104730">
        <ele>884.0</ele>
        <time>2021-04-17T10:31:01Z</time>
      </trkpt>
      <trkpt lat="-25.5017770" lon="-49.2104410">
        <ele>884.2</ele>
        <time>2021-04-17T10:31:02Z</time>
      </trkpt>
      <trkpt lat="-25.5018100" lon="-49.2104090">
        <ele>884.4</ele>
        <time>2021-04-17T10:31:03Z</time>
      </trkpt>
      <trkpt lat="-25.5018420" lon="-49.2103760">
        <ele>884.4</ele>
        <time>2021-04-17T10:31:04Z</time>
      </trkpt>
      <trkpt lat="-25.5018740" lon="-49.2103440">
        <ele>884.6</ele>
        <time>2021-04-17T10:31:05Z</time>
      </trkpt>
      <trkpt lat="-25.5019360" lon="-49.2102840">
        <ele>885.4</ele>
        <time>2021-04-17T10:31:07Z</time>
      </trkpt>
      <trkpt lat="-25.5019960" lon="-49.2102250">
        <ele>886.2</ele>
        <time>2021-04-17T10:31:09Z</time>
      </trkpt>
      <trkpt lat="-25.5020580" lon="-49.2101680">
        <ele>886.4</ele>
        <time>2021-04-17T10:31:11Z</time>
      </trkpt>
      <trkpt lat="-25.5020880" lon="-49.2101400">
        <ele>886.6</ele>
        <time>2021-04-17T10:31:12Z</time>
      </trkpt>
      <trkpt lat="-25.5021190" lon="-49.2101110">
        <ele>887.0</ele>
        <time>2021-04-17T10:31:13Z</time>
      </trkpt>
      <trkpt lat="-25.5021780" lon="-49.2100540">
        <ele>887.4</ele>
        <time>2021-04-17T10:31:15Z</time>
      </trkpt>
      <trkpt lat="-25.5022090" lon="-49.2100280">
        <ele>887.6</ele>
        <time>2021-04-17T10:31:16Z</time>
      </trkpt>
      <trkpt lat="-25.5022390" lon="-49.2100000">
        <ele>888.0</ele>
        <time>2021-04-17T10:31:17Z</time>
      </trkpt>
      <trkpt lat="-25.5022990" lon="-49.2099430">
        <ele>888.4</ele>
        <time>2021-04-17T10:31:19Z</time>
      </trkpt>
      <trkpt lat="-25.5023600" lon="-49.2098860">
        <ele>888.8</ele>
        <time>2021-04-17T10:31:21Z</time>
      </trkpt>
      <trkpt lat="-25.5023910" lon="-49.2098570">
        <ele>889.2</ele>
        <time>2021-04-17T10:31:22Z</time>
      </trkpt>
      <trkpt lat="-25.5024210" lon="-49.2098280">
        <ele>889.6</ele>
        <time>2021-04-17T10:31:23Z</time>
      </trkpt>
      <trkpt lat="-25.5024530" lon="-49.2097990">
        <ele>889.8</ele>
        <time>2021-04-17T10:31:24Z</time>
      </trkpt>
      <trkpt lat="-25.5024840" lon="-49.2097680">
        <ele>890.2</ele>
        <time>2021-04-17T10:31:25Z</time>
      </trkpt>
      <trkpt lat="-25.5025470" lon="-49.2097100">
        <ele>890.4</ele>
        <time>2021-04-17T10:31:27Z</time>
      </trkpt>
      <trkpt lat="-25.5026080" lon="-49.2096530">
        <ele>891.0</ele>
        <time>2021-04-17T10:31:29Z</time>
      </trkpt>
      <trkpt lat="-25.5026700" lon="-49.2095950">
        <ele>891.4</ele>
        <time>2021-04-17T10:31:31Z</time>
      </trkpt>
      <trkpt lat="-25.5027340" lon="-49.2095380">
        <ele>891.6</ele>
        <time>2021-04-17T10:31:33Z</time>
      </trkpt>
      <trkpt lat="-25.5027980" lon="-49.2094790">
        <ele>891.8</ele>
        <time>2021-04-17T10:31:35Z</time>
      </trkpt>
      <trkpt lat="-25.5028650" lon="-49.2094150">
        <ele>892.0</ele>
        <time>2021-04-17T10:31:37Z</time>
      </trkpt>
      <trkpt lat="-25.5028990" lon="-49.2093850">
        <ele>892.0</ele>
        <time>2021-04-17T10:31:38Z</time>
      </trkpt>
      <trkpt lat="-25.5029330" lon="-49.2093540">
        <ele>892.2</ele>
        <time>2021-04-17T10:31:39Z</time>
      </trkpt>
      <trkpt lat="-25.5030010" lon="-49.2092920">
        <ele>892.2</ele>
        <time>2021-04-17T10:31:41Z</time>
      </trkpt>
      <trkpt lat="-25.5030360" lon="-49.2092610">
        <ele>892.2</ele>
        <time>2021-04-17T10:31:42Z</time>
      </trkpt>
      <trkpt lat="-25.5030710" lon="-49.2092290">
        <ele>892.2</ele>
        <time>2021-04-17T10:31:43Z</time>
      </trkpt>
      <trkpt lat="-25.5031460" lon="-49.2091620">
        <ele>892.2</ele>
        <time>2021-04-17T10:31:45Z</time>
      </trkpt>
      <trkpt lat="-25.5032260" lon="-49.2090880">
        <ele>892.2</ele>
        <time>2021-04-17T10:31:47Z</time>
      </trkpt>
      <trkpt lat="-25.5033130" lon="-49.2090050">
        <ele>892.2</ele>
        <time>2021-04-17T10:31:49Z</time>
      </trkpt>
      <trkpt lat="-25.5033470" lon="-49.2089740">
        <ele>892.2</ele>
        <time>2021-04-17T10:31:50Z</time>
      </trkpt>
      <trkpt lat="-25.5033810" lon="-49.2089420">
        <ele>892.0</ele>
        <time>2021-04-17T10:31:51Z</time>
      </trkpt>
      <trkpt lat="-25.5035170" lon="-49.2088150">
        <ele>891.8</ele>
        <time>2021-04-17T10:31:53Z</time>
      </trkpt>
      <trkpt lat="-25.5036320" lon="-49.2087080">
        <ele>891.6</ele>
        <time>2021-04-17T10:31:55Z</time>
      </trkpt>
      <trkpt lat="-25.5037440" lon="-49.2086040">
        <ele>891.0</ele>
        <time>2021-04-17T10:31:57Z</time>
      </trkpt>
      <trkpt lat="-25.5038500" lon="-49.2085060">
        <ele>890.4</ele>
        <time>2021-04-17T10:31:59Z</time>
      </trkpt>
      <trkpt lat="-25.5039540" lon="-49.2084090">
        <ele>889.8</ele>
        <time>2021-04-17T10:32:01Z</time>
      </trkpt>
      <trkpt lat="-25.5039950" lon="-49.2083760">
        <ele>889.4</ele>
        <time>2021-04-17T10:32:02Z</time>
      </trkpt>
      <trkpt lat="-25.5040360" lon="-49.2083430">
        <ele>889.0</ele>
        <time>2021-04-17T10:32:03Z</time>
      </trkpt>
      <trkpt lat="-25.5041180" lon="-49.2082770">
        <ele>888.6</ele>
        <time>2021-04-17T10:32:04Z</time>
      </trkpt>
      <trkpt lat="-25.5041740" lon="-49.2082310">
        <ele>888.4</ele>
        <time>2021-04-17T10:32:05Z</time>
      </trkpt>
      <trkpt lat="-25.5042870" lon="-49.2081320">
        <ele>887.4</ele>
        <time>2021-04-17T10:32:07Z</time>
      </trkpt>
      <trkpt lat="-25.5043970" lon="-49.2080320">
        <ele>886.4</ele>
        <time>2021-04-17T10:32:09Z</time>
      </trkpt>
      <trkpt lat="-25.5044490" lon="-49.2079870">
        <ele>885.6</ele>
        <time>2021-04-17T10:32:10Z</time>
      </trkpt>
      <trkpt lat="-25.5044990" lon="-49.2079430">
        <ele>885.2</ele>
        <time>2021-04-17T10:32:11Z</time>
      </trkpt>
      <trkpt lat="-25.5045890" lon="-49.2078530">
        <ele>884.8</ele>
        <time>2021-04-17T10:32:13Z</time>
      </trkpt>
      <trkpt lat="-25.5046230" lon="-49.2078220">
        <ele>884.4</ele>
        <time>2021-04-17T10:32:14Z</time>
      </trkpt>
      <trkpt lat="-25.5046560" lon="-49.2077910">
        <ele>884.0</ele>
        <time>2021-04-17T10:32:15Z</time>
      </trkpt>
      <trkpt lat="-25.5047230" lon="-49.2077280">
        <ele>884.0</ele>
        <time>2021-04-17T10:32:16Z</time>
      </trkpt>
      <trkpt lat="-25.5047700" lon="-49.2076850">
        <ele>883.8</ele>
        <time>2021-04-17T10:32:17Z</time>
      </trkpt>
      <trkpt lat="-25.5048650" lon="-49.2075980">
        <ele>883.8</ele>
        <time>2021-04-17T10:32:19Z</time>
      </trkpt>
      <trkpt lat="-25.5049570" lon="-49.2075140">
        <ele>883.8</ele>
        <time>2021-04-17T10:32:21Z</time>
      </trkpt>
      <trkpt lat="-25.5050460" lon="-49.2074310">
        <ele>883.6</ele>
        <time>2021-04-17T10:32:23Z</time>
      </trkpt>
      <trkpt lat="-25.5051330" lon="-49.2073490">
        <ele>883.6</ele>
        <time>2021-04-17T10:32:25Z</time>
      </trkpt>
      <trkpt lat="-25.5052210" lon="-49.2072670">
        <ele>883.6</ele>
        <time>2021-04-17T10:32:27Z</time>
      </trkpt>
      <trkpt lat="-25.5053070" lon="-49.2071860">
        <ele>883.6</ele>
        <time>2021-04-17T10:32:29Z</time>
      </trkpt>
      <trkpt lat="-25.5053500" lon="-49.2071470">
        <ele>883.6</ele>
        <time>2021-04-17T10:32:30Z</time>
      </trkpt>
      <trkpt lat="-25.5053910" lon="-49.2071070">
        <ele>883.4</ele>
        <time>2021-04-17T10:32:31Z</time>
      </trkpt>
      <trkpt lat="-25.5054740" lon="-49.2070290">
        <ele>883.4</ele>
        <time>2021-04-17T10:32:33Z</time>
      </trkpt>
      <trkpt lat="-25.5055580" lon="-49.2069530">
        <ele>883.4</ele>
        <time>2021-04-17T10:32:35Z</time>
      </trkpt>
      <trkpt lat="-25.5056020" lon="-49.2069200">
        <ele>883.4</ele>
        <time>2021-04-17T10:32:36Z</time>
      </trkpt>
      <trkpt lat="-25.5056480" lon="-49.2068890">
        <ele>883.4</ele>
        <time>2021-04-17T10:32:37Z</time>
      </trkpt>
      <trkpt lat="-25.5056780" lon="-49.2068650">
        <ele>883.4</ele>
        <time>2021-04-17T10:32:38Z</time>
      </trkpt>
      <trkpt lat="-25.5057070" lon="-49.2068410">
        <ele>883.4</ele>
        <time>2021-04-17T10:32:39Z</time>
      </trkpt>
      <trkpt lat="-25.5058260" lon="-49.2067450">
        <ele>883.4</ele>
        <time>2021-04-17T10:32:41Z</time>
      </trkpt>
      <trkpt lat="-25.5059110" lon="-49.2066640">
        <ele>883.4</ele>
        <time>2021-04-17T10:32:43Z</time>
      </trkpt>
      <trkpt lat="-25.5059950" lon="-49.2065830">
        <ele>883.4</ele>
        <time>2021-04-17T10:32:45Z</time>
      </trkpt>
      <trkpt lat="-25.5060360" lon="-49.2065440">
        <ele>883.4</ele>
        <time>2021-04-17T10:32:46Z</time>
      </trkpt>
      <trkpt lat="-25.5060750" lon="-49.2065060">
        <ele>883.4</ele>
        <time>2021-04-17T10:32:47Z</time>
      </trkpt>
      <trkpt lat="-25.5061510" lon="-49.2064330">
        <ele>883.4</ele>
        <time>2021-04-17T10:32:49Z</time>
      </trkpt>
      <trkpt lat="-25.5062240" lon="-49.2063630">
        <ele>883.6</ele>
        <time>2021-04-17T10:32:51Z</time>
      </trkpt>
      <trkpt lat="-25.5062960" lon="-49.2062950">
        <ele>883.6</ele>
        <time>2021-04-17T10:32:53Z</time>
      </trkpt>
      <trkpt lat="-25.5063650" lon="-49.2062260">
        <ele>883.6</ele>
        <time>2021-04-17T10:32:55Z</time>
      </trkpt>
      <trkpt lat="-25.5064260" lon="-49.2061510">
        <ele>883.8</ele>
        <time>2021-04-17T10:32:57Z</time>
      </trkpt>
      <trkpt lat="-25.5064840" lon="-49.2060750">
        <ele>884.0</ele>
        <time>2021-04-17T10:32:59Z</time>
      </trkpt>
      <trkpt lat="-25.5065410" lon="-49.2059970">
        <ele>884.0</ele>
        <time>2021-04-17T10:33:01Z</time>
      </trkpt>
      <trkpt lat="-25.5065720" lon="-49.2059620">
        <ele>884.2</ele>
        <time>2021-04-17T10:33:02Z</time>
      </trkpt>
      <trkpt lat="-25.5066030" lon="-49.2059260">
        <ele>884.2</ele>
        <time>2021-04-17T10:33:03Z</time>
      </trkpt>
      <trkpt lat="-25.5066350" lon="-49.2058910">
        <ele>884.4</ele>
        <time>2021-04-17T10:33:04Z</time>
      </trkpt>
      <trkpt lat="-25.5066670" lon="-49.2058570">
        <ele>884.6</ele>
        <time>2021-04-17T10:33:05Z</time>
      </trkpt>
      <trkpt lat="-25.5067310" lon="-49.2057920">
        <ele>885.0</ele>
        <time>2021-04-17T10:33:07Z</time>
      </trkpt>
      <trkpt lat="-25.5067950" lon="-49.2057260">
        <ele>885.4</ele>
        <time>2021-04-17T10:33:09Z</time>
      </trkpt>
      <trkpt lat="-25.5068280" lon="-49.2056950">
        <ele>885.4</ele>
        <time>2021-04-17T10:33:10Z</time>
      </trkpt>
      <trkpt lat="-25.5068600" lon="-49.2056660">
        <ele>885.6</ele>
        <time>2021-04-17T10:33:11Z</time>
      </trkpt>
      <trkpt lat="-25.5069180" lon="-49.2056070">
        <ele>885.8</ele>
        <time>2021-04-17T10:33:13Z</time>
      </trkpt>
      <trkpt lat="-25.5069600" lon="-49.2055340">
        <ele>885.8</ele>
        <time>2021-04-17T10:33:15Z</time>
      </trkpt>
      <trkpt lat="-25.5069780" lon="-49.2054990">
        <ele>885.8</ele>
        <time>2021-04-17T10:33:16Z</time>
      </trkpt>
      <trkpt lat="-25.5070010" lon="-49.2054670">
        <ele>886.0</ele>
        <time>2021-04-17T10:33:17Z</time>
      </trkpt>
      <trkpt lat="-25.5070300" lon="-49.2054380">
        <ele>886.0</ele>
        <time>2021-04-17T10:33:18Z</time>
      </trkpt>
      <trkpt lat="-25.5070630" lon="-49.2054110">
        <ele>886.0</ele>
        <time>2021-04-17T10:33:19Z</time>
      </trkpt>
      <trkpt lat="-25.5071330" lon="-49.2053550">
        <ele>886.2</ele>
        <time>2021-04-17T10:33:21Z</time>
      </trkpt>
      <trkpt lat="-25.5072000" lon="-49.2052960">
        <ele>886.4</ele>
        <time>2021-04-17T10:33:23Z</time>
      </trkpt>
      <trkpt lat="-25.5072700" lon="-49.2052400">
        <ele>886.6</ele>
        <time>2021-04-17T10:33:25Z</time>
      </trkpt>
      <trkpt lat="-25.5073390" lon="-49.2051850">
        <ele>886.6</ele>
        <time>2021-04-17T10:33:27Z</time>
      </trkpt>
      <trkpt lat="-25.5074060" lon="-49.2051340">
        <ele>886.6</ele>
        <time>2021-04-17T10:33:29Z</time>
      </trkpt>
      <trkpt lat="-25.5074750" lon="-49.2050880">
        <ele>886.6</ele>
        <time>2021-04-17T10:33:31Z</time>
      </trkpt>
      <trkpt lat="-25.5075460" lon="-49.2050450">
        <ele>886.6</ele>
        <time>2021-04-17T10:33:33Z</time>
      </trkpt>
      <trkpt lat="-25.5076180" lon="-49.2049930">
        <ele>886.6</ele>
        <time>2021-04-17T10:33:35Z</time>
      </trkpt>
      <trkpt lat="-25.5076550" lon="-49.2049690">
        <ele>886.6</ele>
        <time>2021-04-17T10:33:36Z</time>
      </trkpt>
      <trkpt lat="-25.5076930" lon="-49.2049430">
        <ele>886.6</ele>
        <time>2021-04-17T10:33:37Z</time>
      </trkpt>
      <trkpt lat="-25.5077700" lon="-49.2048940">
        <ele>886.6</ele>
        <time>2021-04-17T10:33:39Z</time>
      </trkpt>
      <trkpt lat="-25.5078430" lon="-49.2048450">
        <ele>886.4</ele>
        <time>2021-04-17T10:33:41Z</time>
      </trkpt>
      <trkpt lat="-25.5079200" lon="-49.2047980">
        <ele>886.2</ele>
        <time>2021-04-17T10:33:43Z</time>
      </trkpt>
      <trkpt lat="-25.5079600" lon="-49.2047750">
        <ele>886.0</ele>
        <time>2021-04-17T10:33:44Z</time>
      </trkpt>
      <trkpt lat="-25.5079990" lon="-49.2047520">
        <ele>886.0</ele>
        <time>2021-04-17T10:33:45Z</time>
      </trkpt>
      <trkpt lat="-25.5080790" lon="-49.2047050">
        <ele>886.0</ele>
        <time>2021-04-17T10:33:47Z</time>
      </trkpt>
      <trkpt lat="-25.5081630" lon="-49.2046590">
        <ele>885.8</ele>
        <time>2021-04-17T10:33:49Z</time>
      </trkpt>
      <trkpt lat="-25.5082530" lon="-49.2046120">
        <ele>885.8</ele>
        <time>2021-04-17T10:33:51Z</time>
      </trkpt>
      <trkpt lat="-25.5083400" lon="-49.2045620">
        <ele>885.4</ele>
        <time>2021-04-17T10:33:53Z</time>
      </trkpt>
      <trkpt lat="-25.5083830" lon="-49.2045400">
        <ele>885.2</ele>
        <time>2021-04-17T10:33:54Z</time>
      </trkpt>
      <trkpt lat="-25.5084280" lon="-49.2045200">
        <ele>885.2</ele>
        <time>2021-04-17T10:33:55Z</time>
      </trkpt>
      <trkpt lat="-25.5085160" lon="-49.2044760">
        <ele>885.0</ele>
        <time>2021-04-17T10:33:57Z</time>
      </trkpt>
      <trkpt lat="-25.5086070" lon="-49.2044360">
        <ele>884.8</ele>
        <time>2021-04-17T10:33:59Z</time>
      </trkpt>
      <trkpt lat="-25.5087000" lon="-49.2043960">
        <ele>884.6</ele>
        <time>2021-04-17T10:34:01Z</time>
      </trkpt>
      <trkpt lat="-25.5087950" lon="-49.2043550">
        <ele>884.4</ele>
        <time>2021-04-17T10:34:03Z</time>
      </trkpt>
      <trkpt lat="-25.5088920" lon="-49.2043110">
        <ele>884.4</ele>
        <time>2021-04-17T10:34:05Z</time>
      </trkpt>
      <trkpt lat="-25.5089420" lon="-49.2042910">
        <ele>884.2</ele>
        <time>2021-04-17T10:34:06Z</time>
      </trkpt>
      <trkpt lat="-25.5089930" lon="-49.2042700">
        <ele>884.2</ele>
        <time>2021-04-17T10:34:07Z</time>
      </trkpt>
      <trkpt lat="-25.5090930" lon="-49.2042240">
        <ele>884.0</ele>
        <time>2021-04-17T10:34:09Z</time>
      </trkpt>
      <trkpt lat="-25.5091440" lon="-49.2042000">
        <ele>883.8</ele>
        <time>2021-04-17T10:34:10Z</time>
      </trkpt>
      <trkpt lat="-25.5091970" lon="-49.2041750">
        <ele>883.8</ele>
        <time>2021-04-17T10:34:11Z</time>
      </trkpt>
      <trkpt lat="-25.5093050" lon="-49.2041250">
        <ele>883.6</ele>
        <time>2021-04-17T10:34:13Z</time>
      </trkpt>
      <trkpt lat="-25.5094130" lon="-49.2040740">
        <ele>883.6</ele>
        <time>2021-04-17T10:34:15Z</time>
      </trkpt>
      <trkpt lat="-25.5095180" lon="-49.2040220">
        <ele>883.6</ele>
        <time>2021-04-17T10:34:17Z</time>
      </trkpt>
      <trkpt lat="-25.5096230" lon="-49.2039720">
        <ele>883.4</ele>
        <time>2021-04-17T10:34:19Z</time>
      </trkpt>
      <trkpt lat="-25.5097270" lon="-49.2039210">
        <ele>883.4</ele>
        <time>2021-04-17T10:34:21Z</time>
      </trkpt>
      <trkpt lat="-25.5098300" lon="-49.2038700">
        <ele>883.4</ele>
        <time>2021-04-17T10:34:23Z</time>
      </trkpt>
      <trkpt lat="-25.5099320" lon="-49.2038200">
        <ele>883.4</ele>
        <time>2021-04-17T10:34:25Z</time>
      </trkpt>
      <trkpt lat="-25.5100340" lon="-49.2037720">
        <ele>883.4</ele>
        <time>2021-04-17T10:34:27Z</time>
      </trkpt>
      <trkpt lat="-25.5101370" lon="-49.2037260">
        <ele>883.4</ele>
        <time>2021-04-17T10:34:29Z</time>
      </trkpt>
      <trkpt lat="-25.5102390" lon="-49.2036790">
        <ele>883.4</ele>
        <time>2021-04-17T10:34:31Z</time>
      </trkpt>
      <trkpt lat="-25.5103400" lon="-49.2036350">
        <ele>883.4</ele>
        <time>2021-04-17T10:34:33Z</time>
      </trkpt>
      <trkpt lat="-25.5103890" lon="-49.2036140">
        <ele>883.4</ele>
        <time>2021-04-17T10:34:34Z</time>
      </trkpt>
      <trkpt lat="-25.5104370" lon="-49.2035930">
        <ele>883.4</ele>
        <time>2021-04-17T10:34:35Z</time>
      </trkpt>
      <trkpt lat="-25.5105320" lon="-49.2035500">
        <ele>883.4</ele>
        <time>2021-04-17T10:34:37Z</time>
      </trkpt>
      <trkpt lat="-25.5106280" lon="-49.2035060">
        <ele>883.4</ele>
        <time>2021-04-17T10:34:39Z</time>
      </trkpt>
      <trkpt lat="-25.5107250" lon="-49.2034610">
        <ele>883.4</ele>
        <time>2021-04-17T10:34:41Z</time>
      </trkpt>
      <trkpt lat="-25.5108240" lon="-49.2034170">
        <ele>883.4</ele>
        <time>2021-04-17T10:34:43Z</time>
      </trkpt>
      <trkpt lat="-25.5109210" lon="-49.2033740">
        <ele>883.4</ele>
        <time>2021-04-17T10:34:45Z</time>
      </trkpt>
      <trkpt lat="-25.5109680" lon="-49.2033530">
        <ele>883.4</ele>
        <time>2021-04-17T10:34:46Z</time>
      </trkpt>
      <trkpt lat="-25.5110160" lon="-49.2033310">
        <ele>883.4</ele>
        <time>2021-04-17T10:34:47Z</time>
      </trkpt>
      <trkpt lat="-25.5111090" lon="-49.2032870">
        <ele>883.4</ele>
        <time>2021-04-17T10:34:49Z</time>
      </trkpt>
      <trkpt lat="-25.5112030" lon="-49.2032420">
        <ele>883.4</ele>
        <time>2021-04-17T10:34:51Z</time>
      </trkpt>
      <trkpt lat="-25.5112990" lon="-49.2031950">
        <ele>883.6</ele>
        <time>2021-04-17T10:34:53Z</time>
      </trkpt>
      <trkpt lat="-25.5113960" lon="-49.2031470">
        <ele>883.6</ele>
        <time>2021-04-17T10:34:55Z</time>
      </trkpt>
      <trkpt lat="-25.5114280" lon="-49.2031320">
        <ele>883.6</ele>
        <time>2021-04-17T10:34:56Z</time>
      </trkpt>
      <trkpt lat="-25.5114590" lon="-49.2031170">
        <ele>883.6</ele>
        <time>2021-04-17T10:34:57Z</time>
      </trkpt>
      <trkpt lat="-25.5115860" lon="-49.2030560">
        <ele>883.6</ele>
        <time>2021-04-17T10:34:59Z</time>
      </trkpt>
      <trkpt lat="-25.5116820" lon="-49.2030060">
        <ele>883.6</ele>
        <time>2021-04-17T10:35:01Z</time>
      </trkpt>
      <trkpt lat="-25.5117800" lon="-49.2029570">
        <ele>883.4</ele>
        <time>2021-04-17T10:35:03Z</time>
      </trkpt>
      <trkpt lat="-25.5118790" lon="-49.2029070">
        <ele>883.4</ele>
        <time>2021-04-17T10:35:05Z</time>
      </trkpt>
      <trkpt lat="-25.5119280" lon="-49.2028810">
        <ele>883.4</ele>
        <time>2021-04-17T10:35:06Z</time>
      </trkpt>
      <trkpt lat="-25.5119770" lon="-49.2028540">
        <ele>883.4</ele>
        <time>2021-04-17T10:35:07Z</time>
      </trkpt>
      <trkpt lat="-25.5120740" lon="-49.2027990">
        <ele>883.4</ele>
        <time>2021-04-17T10:35:09Z</time>
      </trkpt>
      <trkpt lat="-25.5121730" lon="-49.2027440">
        <ele>883.4</ele>
        <time>2021-04-17T10:35:11Z</time>
      </trkpt>
      <trkpt lat="-25.5122680" lon="-49.2026850">
        <ele>883.4</ele>
        <time>2021-04-17T10:35:13Z</time>
      </trkpt>
      <trkpt lat="-25.5123650" lon="-49.2026250">
        <ele>883.2</ele>
        <time>2021-04-17T10:35:15Z</time>
      </trkpt>
      <trkpt lat="-25.5124620" lon="-49.2025630">
        <ele>883.2</ele>
        <time>2021-04-17T10:35:17Z</time>
      </trkpt>
      <trkpt lat="-25.5125590" lon="-49.2025010">
        <ele>883.4</ele>
        <time>2021-04-17T10:35:19Z</time>
      </trkpt>
      <trkpt lat="-25.5126560" lon="-49.2024390">
        <ele>883.2</ele>
        <time>2021-04-17T10:35:21Z</time>
      </trkpt>
      <trkpt lat="-25.5127570" lon="-49.2023830">
        <ele>883.4</ele>
        <time>2021-04-17T10:35:23Z</time>
      </trkpt>
      <trkpt lat="-25.5128580" lon="-49.2023270">
        <ele>883.4</ele>
        <time>2021-04-17T10:35:25Z</time>
      </trkpt>
      <trkpt lat="-25.5129620" lon="-49.2022720">
        <ele>883.4</ele>
        <time>2021-04-17T10:35:27Z</time>
      </trkpt>
      <trkpt lat="-25.5130660" lon="-49.2022170">
        <ele>883.4</ele>
        <time>2021-04-17T10:35:29Z</time>
      </trkpt>
      <trkpt lat="-25.5131680" lon="-49.2021640">
        <ele>883.4</ele>
        <time>2021-04-17T10:35:31Z</time>
      </trkpt>
      <trkpt lat="-25.5132730" lon="-49.2021120">
        <ele>883.4</ele>
        <time>2021-04-17T10:35:33Z</time>
      </trkpt>
      <trkpt lat="-25.5133800" lon="-49.2020600">
        <ele>883.4</ele>
        <time>2021-04-17T10:35:35Z</time>
      </trkpt>
      <trkpt lat="-25.5134870" lon="-49.2020130">
        <ele>883.4</ele>
        <time>2021-04-17T10:35:37Z</time>
      </trkpt>
      <trkpt lat="-25.5135910" lon="-49.2019650">
        <ele>883.4</ele>
        <time>2021-04-17T10:35:39Z</time>
      </trkpt>
      <trkpt lat="-25.5136980" lon="-49.2019150">
        <ele>883.4</ele>
        <time>2021-04-17T10:35:41Z</time>
      </trkpt>
      <trkpt lat="-25.5138050" lon="-49.2018660">
        <ele>883.4</ele>
        <time>2021-04-17T10:35:43Z</time>
      </trkpt>
      <trkpt lat="-25.5139130" lon="-49.2018180">
        <ele>883.4</ele>
        <time>2021-04-17T10:35:45Z</time>
      </trkpt>
      <trkpt lat="-25.5140210" lon="-49.2017690">
        <ele>883.6</ele>
        <time>2021-04-17T10:35:47Z</time>
      </trkpt>
      <trkpt lat="-25.5141290" lon="-49.2017220">
        <ele>883.6</ele>
        <time>2021-04-17T10:35:49Z</time>
      </trkpt>
      <trkpt lat="-25.5142360" lon="-49.2016720">
        <ele>883.6</ele>
        <time>2021-04-17T10:35:51Z</time>
      </trkpt>
      <trkpt lat="-25.5142880" lon="-49.2016480">
        <ele>883.6</ele>
        <time>2021-04-17T10:35:52Z</time>
      </trkpt>
      <trkpt lat="-25.5143370" lon="-49.2016260">
        <ele>883.6</ele>
        <time>2021-04-17T10:35:53Z</time>
      </trkpt>
      <trkpt lat="-25.5144430" lon="-49.2015750">
        <ele>883.6</ele>
        <time>2021-04-17T10:35:55Z</time>
      </trkpt>
      <trkpt lat="-25.5145560" lon="-49.2015220">
        <ele>883.8</ele>
        <time>2021-04-17T10:35:57Z</time>
      </trkpt>
      <trkpt lat="-25.5146670" lon="-49.2014690">
        <ele>883.8</ele>
        <time>2021-04-17T10:35:59Z</time>
      </trkpt>
      <trkpt lat="-25.5147790" lon="-49.2014200">
        <ele>883.8</ele>
        <time>2021-04-17T10:36:01Z</time>
      </trkpt>
      <trkpt lat="-25.5148920" lon="-49.2013740">
        <ele>883.8</ele>
        <time>2021-04-17T10:36:03Z</time>
      </trkpt>
      <trkpt lat="-25.5150060" lon="-49.2013320">
        <ele>883.8</ele>
        <time>2021-04-17T10:36:05Z</time>
      </trkpt>
      <trkpt lat="-25.5151230" lon="-49.2012960">
        <ele>883.8</ele>
        <time>2021-04-17T10:36:07Z</time>
      </trkpt>
      <trkpt lat="-25.5152420" lon="-49.2012610">
        <ele>883.8</ele>
        <time>2021-04-17T10:36:09Z</time>
      </trkpt>
      <trkpt lat="-25.5153620" lon="-49.2012290">
        <ele>883.6</ele>
        <time>2021-04-17T10:36:11Z</time>
      </trkpt>
      <trkpt lat="-25.5154830" lon="-49.2012100">
        <ele>883.6</ele>
        <time>2021-04-17T10:36:13Z</time>
      </trkpt>
      <trkpt lat="-25.5156080" lon="-49.2012010">
        <ele>883.6</ele>
        <time>2021-04-17T10:36:15Z</time>
      </trkpt>
      <trkpt lat="-25.5156700" lon="-49.2011970">
        <ele>883.4</ele>
        <time>2021-04-17T10:36:16Z</time>
      </trkpt>
      <trkpt lat="-25.5157320" lon="-49.2011970">
        <ele>883.4</ele>
        <time>2021-04-17T10:36:17Z</time>
      </trkpt>
      <trkpt lat="-25.5158570" lon="-49.2011980">
        <ele>883.4</ele>
        <time>2021-04-17T10:36:19Z</time>
      </trkpt>
      <trkpt lat="-25.5159810" lon="-49.2011930">
        <ele>883.4</ele>
        <time>2021-04-17T10:36:21Z</time>
      </trkpt>
      <trkpt lat="-25.5161020" lon="-49.2011930">
        <ele>883.4</ele>
        <time>2021-04-17T10:36:23Z</time>
      </trkpt>
      <trkpt lat="-25.5161630" lon="-49.2011930">
        <ele>883.4</ele>
        <time>2021-04-17T10:36:24Z</time>
      </trkpt>
      <trkpt lat="-25.5162230" lon="-49.2011910">
        <ele>883.4</ele>
        <time>2021-04-17T10:36:25Z</time>
      </trkpt>
      <trkpt lat="-25.5163420" lon="-49.2011880">
        <ele>883.2</ele>
        <time>2021-04-17T10:36:27Z</time>
      </trkpt>
      <trkpt lat="-25.5164570" lon="-49.2011840">
        <ele>883.4</ele>
        <time>2021-04-17T10:36:29Z</time>
      </trkpt>
      <trkpt lat="-25.5165720" lon="-49.2011830">
        <ele>883.4</ele>
        <time>2021-04-17T10:36:31Z</time>
      </trkpt>
      <trkpt lat="-25.5166860" lon="-49.2011810">
        <ele>883.2</ele>
        <time>2021-04-17T10:36:33Z</time>
      </trkpt>
      <trkpt lat="-25.5167960" lon="-49.2011780">
        <ele>883.4</ele>
        <time>2021-04-17T10:36:35Z</time>
      </trkpt>
      <trkpt lat="-25.5169060" lon="-49.2011770">
        <ele>883.4</ele>
        <time>2021-04-17T10:36:37Z</time>
      </trkpt>
      <trkpt lat="-25.5170120" lon="-49.2011740">
        <ele>883.4</ele>
        <time>2021-04-17T10:36:39Z</time>
      </trkpt>
      <trkpt lat="-25.5171190" lon="-49.2011710">
        <ele>883.6</ele>
        <time>2021-04-17T10:36:41Z</time>
      </trkpt>
      <trkpt lat="-25.5172240" lon="-49.2011690">
        <ele>883.6</ele>
        <time>2021-04-17T10:36:43Z</time>
      </trkpt>
      <trkpt lat="-25.5173250" lon="-49.2011670">
        <ele>883.8</ele>
        <time>2021-04-17T10:36:45Z</time>
      </trkpt>
      <trkpt lat="-25.5174260" lon="-49.2011630">
        <ele>884.0</ele>
        <time>2021-04-17T10:36:47Z</time>
      </trkpt>
      <trkpt lat="-25.5175260" lon="-49.2011580">
        <ele>884.4</ele>
        <time>2021-04-17T10:36:49Z</time>
      </trkpt>
      <trkpt lat="-25.5176260" lon="-49.2011560">
        <ele>884.6</ele>
        <time>2021-04-17T10:36:51Z</time>
      </trkpt>
      <trkpt lat="-25.5176770" lon="-49.2011550">
        <ele>884.8</ele>
        <time>2021-04-17T10:36:52Z</time>
      </trkpt>
      <trkpt lat="-25.5177280" lon="-49.2011530">
        <ele>884.8</ele>
        <time>2021-04-17T10:36:53Z</time>
      </trkpt>
      <trkpt lat="-25.5177790" lon="-49.2011520">
        <ele>885.0</ele>
        <time>2021-04-17T10:36:54Z</time>
      </trkpt>
      <trkpt lat="-25.5178300" lon="-49.2011500">
        <ele>885.0</ele>
        <time>2021-04-17T10:36:55Z</time>
      </trkpt>
      <trkpt lat="-25.5179310" lon="-49.2011490">
        <ele>885.4</ele>
        <time>2021-04-17T10:36:57Z</time>
      </trkpt>
      <trkpt lat="-25.5180340" lon="-49.2011430">
        <ele>885.6</ele>
        <time>2021-04-17T10:36:59Z</time>
      </trkpt>
      <trkpt lat="-25.5181380" lon="-49.2011340">
        <ele>885.8</ele>
        <time>2021-04-17T10:37:01Z</time>
      </trkpt>
      <trkpt lat="-25.5181730" lon="-49.2011310">
        <ele>886.0</ele>
        <time>2021-04-17T10:37:02Z</time>
      </trkpt>
      <trkpt lat="-25.5182070" lon="-49.2011280">
        <ele>886.2</ele>
        <time>2021-04-17T10:37:03Z</time>
      </trkpt>
      <trkpt lat="-25.5183440" lon="-49.2011170">
        <ele>886.4</ele>
        <time>2021-04-17T10:37:05Z</time>
      </trkpt>
      <trkpt lat="-25.5184450" lon="-49.2011020">
        <ele>886.8</ele>
        <time>2021-04-17T10:37:07Z</time>
      </trkpt>
      <trkpt lat="-25.5185390" lon="-49.2010850">
        <ele>887.0</ele>
        <time>2021-04-17T10:37:09Z</time>
      </trkpt>
      <trkpt lat="-25.5186250" lon="-49.2010700">
        <ele>887.2</ele>
        <time>2021-04-17T10:37:11Z</time>
      </trkpt>
      <trkpt lat="-25.5187000" lon="-49.2010550">
        <ele>887.4</ele>
        <time>2021-04-17T10:37:13Z</time>
      </trkpt>
      <trkpt lat="-25.5187730" lon="-49.2010410">
        <ele>887.6</ele>
        <time>2021-04-17T10:37:15Z</time>
      </trkpt>
      <trkpt lat="-25.5188520" lon="-49.2010240">
        <ele>888.0</ele>
        <time>2021-04-17T10:37:17Z</time>
      </trkpt>
      <trkpt lat="-25.5189380" lon="-49.2010010">
        <ele>888.2</ele>
        <time>2021-04-17T10:37:19Z</time>
      </trkpt>
      <trkpt lat="-25.5190300" lon="-49.2009740">
        <ele>888.4</ele>
        <time>2021-04-17T10:37:21Z</time>
      </trkpt>
      <trkpt lat="-25.5190780" lon="-49.2009630">
        <ele>888.4</ele>
        <time>2021-04-17T10:37:22Z</time>
      </trkpt>
      <trkpt lat="-25.5191250" lon="-49.2009500">
        <ele>888.6</ele>
        <time>2021-04-17T10:37:23Z</time>
      </trkpt>
      <trkpt lat="-25.5192210" lon="-49.2009220">
        <ele>888.6</ele>
        <time>2021-04-17T10:37:25Z</time>
      </trkpt>
      <trkpt lat="-25.5193180" lon="-49.2008940">
        <ele>889.0</ele>
        <time>2021-04-17T10:37:27Z</time>
      </trkpt>
      <trkpt lat="-25.5194140" lon="-49.2008690">
        <ele>889.2</ele>
        <time>2021-04-17T10:37:29Z</time>
      </trkpt>
      <trkpt lat="-25.5195080" lon="-49.2008450">
        <ele>889.4</ele>
        <time>2021-04-17T10:37:31Z</time>
      </trkpt>
      <trkpt lat="-25.5196010" lon="-49.2008200">
        <ele>889.6</ele>
        <time>2021-04-17T10:37:33Z</time>
      </trkpt>
      <trkpt lat="-25.5196970" lon="-49.2007940">
        <ele>889.8</ele>
        <time>2021-04-17T10:37:35Z</time>
      </trkpt>
      <trkpt lat="-25.5197910" lon="-49.2007680">
        <ele>890.2</ele>
        <time>2021-04-17T10:37:37Z</time>
      </trkpt>
      <trkpt lat="-25.5198380" lon="-49.2007560">
        <ele>890.2</ele>
        <time>2021-04-17T10:37:38Z</time>
      </trkpt>
      <trkpt lat="-25.5198850" lon="-49.2007440">
        <ele>890.4</ele>
        <time>2021-04-17T10:37:39Z</time>
      </trkpt>
      <trkpt lat="-25.5199770" lon="-49.2007200">
        <ele>890.6</ele>
        <time>2021-04-17T10:37:41Z</time>
      </trkpt>
      <trkpt lat="-25.5200700" lon="-49.2006920">
        <ele>890.8</ele>
        <time>2021-04-17T10:37:43Z</time>
      </trkpt>
      <trkpt lat="-25.5201670" lon="-49.2006690">
        <ele>891.0</ele>
        <time>2021-04-17T10:37:45Z</time>
      </trkpt>
      <trkpt lat="-25.5202630" lon="-49.2006530">
        <ele>891.0</ele>
        <time>2021-04-17T10:37:47Z</time>
      </trkpt>
      <trkpt lat="-25.5203550" lon="-49.2006430">
        <ele>891.4</ele>
        <time>2021-04-17T10:37:49Z</time>
      </trkpt>
      <trkpt lat="-25.5204460" lon="-49.2006440">
        <ele>891.8</ele>
        <time>2021-04-17T10:37:51Z</time>
      </trkpt>
      <trkpt lat="-25.5205370" lon="-49.2006510">
        <ele>892.0</ele>
        <time>2021-04-17T10:37:53Z</time>
      </trkpt>
      <trkpt lat="-25.5205820" lon="-49.2006560">
        <ele>892.2</ele>
        <time>2021-04-17T10:37:54Z</time>
      </trkpt>
      <trkpt lat="-25.5206280" lon="-49.2006620">
        <ele>892.4</ele>
        <time>2021-04-17T10:37:55Z</time>
      </trkpt>
      <trkpt lat="-25.5207220" lon="-49.2006750">
        <ele>892.6</ele>
        <time>2021-04-17T10:37:57Z</time>
      </trkpt>
      <trkpt lat="-25.5208160" lon="-49.2006880">
        <ele>892.6</ele>
        <time>2021-04-17T10:37:59Z</time>
      </trkpt>
      <trkpt lat="-25.5209080" lon="-49.2006990">
        <ele>892.8</ele>
        <time>2021-04-17T10:38:01Z</time>
      </trkpt>
      <trkpt lat="-25.5209990" lon="-49.2007110">
        <ele>893.2</ele>
        <time>2021-04-17T10:38:03Z</time>
      </trkpt>
      <trkpt lat="-25.5210880" lon="-49.2007270">
        <ele>893.2</ele>
        <time>2021-04-17T10:38:05Z</time>
      </trkpt>
      <trkpt lat="-25.5211330" lon="-49.2007330">
        <ele>893.4</ele>
        <time>2021-04-17T10:38:06Z</time>
      </trkpt>
      <trkpt lat="-25.5211800" lon="-49.2007390">
        <ele>893.6</ele>
        <time>2021-04-17T10:38:07Z</time>
      </trkpt>
      <trkpt lat="-25.5212730" lon="-49.2007440">
        <ele>893.6</ele>
        <time>2021-04-17T10:38:09Z</time>
      </trkpt>
      <trkpt lat="-25.5213640" lon="-49.2007460">
        <ele>893.8</ele>
        <time>2021-04-17T10:38:11Z</time>
      </trkpt>
      <trkpt lat="-25.5214550" lon="-49.2007440">
        <ele>894.2</ele>
        <time>2021-04-17T10:38:13Z</time>
      </trkpt>
      <trkpt lat="-25.5215470" lon="-49.2007380">
        <ele>894.6</ele>
        <time>2021-04-17T10:38:15Z</time>
      </trkpt>
      <trkpt lat="-25.5216360" lon="-49.2007310">
        <ele>895.0</ele>
        <time>2021-04-17T10:38:17Z</time>
      </trkpt>
      <trkpt lat="-25.5217250" lon="-49.2007230">
        <ele>895.2</ele>
        <time>2021-04-17T10:38:19Z</time>
      </trkpt>
      <trkpt lat="-25.5218110" lon="-49.2007170">
        <ele>895.4</ele>
        <time>2021-04-17T10:38:21Z</time>
      </trkpt>
      <trkpt lat="-25.5218900" lon="-49.2007130">
        <ele>895.8</ele>
        <time>2021-04-17T10:38:23Z</time>
      </trkpt>
      <trkpt lat="-25.5219610" lon="-49.2007060">
        <ele>896.0</ele>
        <time>2021-04-17T10:38:25Z</time>
      </trkpt>
      <trkpt lat="-25.5220180" lon="-49.2007070">
        <ele>896.2</ele>
        <time>2021-04-17T10:38:27Z</time>
      </trkpt>
      <trkpt lat="-25.5220670" lon="-49.2007110">
        <ele>896.2</ele>
        <time>2021-04-17T10:38:29Z</time>
      </trkpt>
      <trkpt lat="-25.5220900" lon="-49.2007120">
        <ele>896.2</ele>
        <time>2021-04-17T10:38:30Z</time>
      </trkpt>
      <trkpt lat="-25.5221130" lon="-49.2007120">
        <ele>896.2</ele>
        <time>2021-04-17T10:38:31Z</time>
      </trkpt>
      <trkpt lat="-25.5221600" lon="-49.2007070">
        <ele>896.2</ele>
        <time>2021-04-17T10:38:33Z</time>
      </trkpt>
      <trkpt lat="-25.5222180" lon="-49.2007060">
        <ele>896.4</ele>
        <time>2021-04-17T10:38:35Z</time>
      </trkpt>
      <trkpt lat="-25.5222810" lon="-49.2007000">
        <ele>896.4</ele>
        <time>2021-04-17T10:38:37Z</time>
      </trkpt>
      <trkpt lat="-25.5223480" lon="-49.2006760">
        <ele>896.4</ele>
        <time>2021-04-17T10:38:39Z</time>
      </trkpt>
      <trkpt lat="-25.5223870" lon="-49.2006640">
        <ele>896.4</ele>
        <time>2021-04-17T10:38:40Z</time>
      </trkpt>
      <trkpt lat="-25.5224280" lon="-49.2006580">
        <ele>896.4</ele>
        <time>2021-04-17T10:38:41Z</time>
      </trkpt>
      <trkpt lat="-25.5224710" lon="-49.2006580">
        <ele>896.4</ele>
        <time>2021-04-17T10:38:42Z</time>
      </trkpt>
      <trkpt lat="-25.5225140" lon="-49.2006600">
        <ele>896.4</ele>
        <time>2021-04-17T10:38:43Z</time>
      </trkpt>
      <trkpt lat="-25.5225990" lon="-49.2006560">
        <ele>896.4</ele>
        <time>2021-04-17T10:38:45Z</time>
      </trkpt>
      <trkpt lat="-25.5226850" lon="-49.2006550">
        <ele>896.4</ele>
        <time>2021-04-17T10:38:47Z</time>
      </trkpt>
      <trkpt lat="-25.5227740" lon="-49.2006530">
        <ele>896.4</ele>
        <time>2021-04-17T10:38:49Z</time>
      </trkpt>
      <trkpt lat="-25.5228680" lon="-49.2006550">
        <ele>896.4</ele>
        <time>2021-04-17T10:38:51Z</time>
      </trkpt>
      <trkpt lat="-25.5229620" lon="-49.2006560">
        <ele>896.4</ele>
        <time>2021-04-17T10:38:53Z</time>
      </trkpt>
      <trkpt lat="-25.5230560" lon="-49.2006690">
        <ele>896.2</ele>
        <time>2021-04-17T10:38:55Z</time>
      </trkpt>
      <trkpt lat="-25.5231540" lon="-49.2006910">
        <ele>896.0</ele>
        <time>2021-04-17T10:38:57Z</time>
      </trkpt>
      <trkpt lat="-25.5232080" lon="-49.2007000">
        <ele>896.0</ele>
        <time>2021-04-17T10:38:58Z</time>
      </trkpt>
      <trkpt lat="-25.5232610" lon="-49.2007110">
        <ele>896.0</ele>
        <time>2021-04-17T10:38:59Z</time>
      </trkpt>
      <trkpt lat="-25.5233690" lon="-49.2007340">
        <ele>895.8</ele>
        <time>2021-04-17T10:39:01Z</time>
      </trkpt>
      <trkpt lat="-25.5234760" lon="-49.2007590">
        <ele>895.6</ele>
        <time>2021-04-17T10:39:03Z</time>
      </trkpt>
      <trkpt lat="-25.5235810" lon="-49.2007800">
        <ele>895.6</ele>
        <time>2021-04-17T10:39:05Z</time>
      </trkpt>
      <trkpt lat="-25.5236850" lon="-49.2008020">
        <ele>895.4</ele>
        <time>2021-04-17T10:39:07Z</time>
      </trkpt>
      <trkpt lat="-25.5237890" lon="-49.2008240">
        <ele>895.4</ele>
        <time>2021-04-17T10:39:09Z</time>
      </trkpt>
      <trkpt lat="-25.5238920" lon="-49.2008430">
        <ele>895.4</ele>
        <time>2021-04-17T10:39:11Z</time>
      </trkpt>
      <trkpt lat="-25.5239940" lon="-49.2008660">
        <ele>895.4</ele>
        <time>2021-04-17T10:39:13Z</time>
      </trkpt>
      <trkpt lat="-25.5240970" lon="-49.2008910">
        <ele>895.4</ele>
        <time>2021-04-17T10:39:15Z</time>
      </trkpt>
      <trkpt lat="-25.5241990" lon="-49.2009150">
        <ele>895.4</ele>
        <time>2021-04-17T10:39:17Z</time>
      </trkpt>
      <trkpt lat="-25.5243020" lon="-49.2009430">
        <ele>895.4</ele>
        <time>2021-04-17T10:39:19Z</time>
      </trkpt>
      <trkpt lat="-25.5243530" lon="-49.2009580">
        <ele>895.4</ele>
        <time>2021-04-17T10:39:20Z</time>
      </trkpt>
      <trkpt lat="-25.5244040" lon="-49.2009730">
        <ele>895.4</ele>
        <time>2021-04-17T10:39:21Z</time>
      </trkpt>
      <trkpt lat="-25.5245030" lon="-49.2010100">
        <ele>895.6</ele>
        <time>2021-04-17T10:39:23Z</time>
      </trkpt>
      <trkpt lat="-25.5245980" lon="-49.2010470">
        <ele>895.6</ele>
        <time>2021-04-17T10:39:25Z</time>
      </trkpt>
      <trkpt lat="-25.5246920" lon="-49.2010820">
        <ele>895.8</ele>
        <time>2021-04-17T10:39:27Z</time>
      </trkpt>
      <trkpt lat="-25.5247380" lon="-49.2011010">
        <ele>895.8</ele>
        <time>2021-04-17T10:39:28Z</time>
      </trkpt>
      <trkpt lat="-25.5247850" lon="-49.2011200">
        <ele>896.0</ele>
        <time>2021-04-17T10:39:29Z</time>
      </trkpt>
      <trkpt lat="-25.5248760" lon="-49.2011560">
        <ele>896.0</ele>
        <time>2021-04-17T10:39:31Z</time>
      </trkpt>
      <trkpt lat="-25.5249630" lon="-49.2011910">
        <ele>896.2</ele>
        <time>2021-04-17T10:39:33Z</time>
      </trkpt>
      <trkpt lat="-25.5250500" lon="-49.2012230">
        <ele>896.6</ele>
        <time>2021-04-17T10:39:35Z</time>
      </trkpt>
      <trkpt lat="-25.5250930" lon="-49.2012400">
        <ele>896.8</ele>
        <time>2021-04-17T10:39:36Z</time>
      </trkpt>
      <trkpt lat="-25.5251360" lon="-49.2012580">
        <ele>897.0</ele>
        <time>2021-04-17T10:39:37Z</time>
      </trkpt>
      <trkpt lat="-25.5252220" lon="-49.2012910">
        <ele>897.4</ele>
        <time>2021-04-17T10:39:39Z</time>
      </trkpt>
      <trkpt lat="-25.5253080" lon="-49.2013250">
        <ele>897.8</ele>
        <time>2021-04-17T10:39:41Z</time>
      </trkpt>
      <trkpt lat="-25.5253520" lon="-49.2013410">
        <ele>898.0</ele>
        <time>2021-04-17T10:39:42Z</time>
      </trkpt>
      <trkpt lat="-25.5253960" lon="-49.2013570">
        <ele>898.2</ele>
        <time>2021-04-17T10:39:43Z</time>
      </trkpt>
      <trkpt lat="-25.5254840" lon="-49.2013920">
        <ele>898.8</ele>
        <time>2021-04-17T10:39:45Z</time>
      </trkpt>
      <trkpt lat="-25.5255280" lon="-49.2014080">
        <ele>899.2</ele>
        <time>2021-04-17T10:39:46Z</time>
      </trkpt>
      <trkpt lat="-25.5255730" lon="-49.2014250">
        <ele>899.4</ele>
        <time>2021-04-17T10:39:47Z</time>
      </trkpt>
      <trkpt lat="-25.5256650" lon="-49.2014600">
        <ele>899.6</ele>
        <time>2021-04-17T10:39:49Z</time>
      </trkpt>
      <trkpt lat="-25.5257550" lon="-49.2014940">
        <ele>899.8</ele>
        <time>2021-04-17T10:39:51Z</time>
      </trkpt>
      <trkpt lat="-25.5258440" lon="-49.2015300">
        <ele>899.8</ele>
        <time>2021-04-17T10:39:53Z</time>
      </trkpt>
      <trkpt lat="-25.5259350" lon="-49.2015650">
        <ele>900.0</ele>
        <time>2021-04-17T10:39:55Z</time>
      </trkpt>
      <trkpt lat="-25.5260270" lon="-49.2016040">
        <ele>900.2</ele>
        <time>2021-04-17T10:39:57Z</time>
      </trkpt>
      <trkpt lat="-25.5261170" lon="-49.2016440">
        <ele>900.4</ele>
        <time>2021-04-17T10:39:59Z</time>
      </trkpt>
      <trkpt lat="-25.5262080" lon="-49.2016830">
        <ele>900.6</ele>
        <time>2021-04-17T10:40:01Z</time>
      </trkpt>
      <trkpt lat="-25.5263000" lon="-49.2017210">
        <ele>900.6</ele>
        <time>2021-04-17T10:40:03Z</time>
      </trkpt>
      <trkpt lat="-25.5263900" lon="-49.2017590">
        <ele>900.8</ele>
        <time>2021-04-17T10:40:05Z</time>
      </trkpt>
      <trkpt lat="-25.5264790" lon="-49.2017970">
        <ele>901.0</ele>
        <time>2021-04-17T10:40:07Z</time>
      </trkpt>
      <trkpt lat="-25.5265670" lon="-49.2018380">
        <ele>901.0</ele>
        <time>2021-04-17T10:40:09Z</time>
      </trkpt>
      <trkpt lat="-25.5266600" lon="-49.2018810">
        <ele>901.2</ele>
        <time>2021-04-17T10:40:11Z</time>
      </trkpt>
      <trkpt lat="-25.5267490" lon="-49.2019270">
        <ele>901.2</ele>
        <time>2021-04-17T10:40:13Z</time>
      </trkpt>
      <trkpt lat="-25.5268380" lon="-49.2019740">
        <ele>901.4</ele>
        <time>2021-04-17T10:40:15Z</time>
      </trkpt>
      <trkpt lat="-25.5269300" lon="-49.2020220">
        <ele>901.6</ele>
        <time>2021-04-17T10:40:17Z</time>
      </trkpt>
      <trkpt lat="-25.5270230" lon="-49.2020630">
        <ele>902.0</ele>
        <time>2021-04-17T10:40:19Z</time>
      </trkpt>
      <trkpt lat="-25.5271130" lon="-49.2021090">
        <ele>902.2</ele>
        <time>2021-04-17T10:40:21Z</time>
      </trkpt>
      <trkpt lat="-25.5271580" lon="-49.2021320">
        <ele>902.2</ele>
        <time>2021-04-17T10:40:22Z</time>
      </trkpt>
      <trkpt lat="-25.5272030" lon="-49.2021550">
        <ele>902.2</ele>
        <time>2021-04-17T10:40:23Z</time>
      </trkpt>
      <trkpt lat="-25.5272950" lon="-49.2022000">
        <ele>902.4</ele>
        <time>2021-04-17T10:40:25Z</time>
      </trkpt>
      <trkpt lat="-25.5273270" lon="-49.2022150">
        <ele>902.4</ele>
        <time>2021-04-17T10:40:26Z</time>
      </trkpt>
      <trkpt lat="-25.5273590" lon="-49.2022300">
        <ele>902.4</ele>
        <time>2021-04-17T10:40:27Z</time>
      </trkpt>
      <trkpt lat="-25.5274860" lon="-49.2022910">
        <ele>902.6</ele>
        <time>2021-04-17T10:40:29Z</time>
      </trkpt>
      <trkpt lat="-25.5275800" lon="-49.2023380">
        <ele>902.8</ele>
        <time>2021-04-17T10:40:31Z</time>
      </trkpt>
      <trkpt lat="-25.5276770" lon="-49.2023860">
        <ele>902.8</ele>
        <time>2021-04-17T10:40:33Z</time>
      </trkpt>
      <trkpt lat="-25.5277730" lon="-49.2024340">
        <ele>903.0</ele>
        <time>2021-04-17T10:40:35Z</time>
      </trkpt>
      <trkpt lat="-25.5278690" lon="-49.2024820">
        <ele>903.0</ele>
        <time>2021-04-17T10:40:37Z</time>
      </trkpt>
      <trkpt lat="-25.5279650" lon="-49.2025300">
        <ele>903.0</ele>
        <time>2021-04-17T10:40:39Z</time>
      </trkpt>
      <trkpt lat="-25.5280600" lon="-49.2025770">
        <ele>903.2</ele>
        <time>2021-04-17T10:40:41Z</time>
      </trkpt>
      <trkpt lat="-25.5281540" lon="-49.2026230">
        <ele>903.4</ele>
        <time>2021-04-17T10:40:43Z</time>
      </trkpt>
      <trkpt lat="-25.5281900" lon="-49.2026400">
        <ele>903.4</ele>
        <time>2021-04-17T10:40:44Z</time>
      </trkpt>
      <trkpt lat="-25.5282260" lon="-49.2026570">
        <ele>903.6</ele>
        <time>2021-04-17T10:40:45Z</time>
      </trkpt>
      <trkpt lat="-25.5282980" lon="-49.2026920">
        <ele>903.8</ele>
        <time>2021-04-17T10:40:46Z</time>
      </trkpt>
      <trkpt lat="-25.5283460" lon="-49.2027160">
        <ele>903.8</ele>
        <time>2021-04-17T10:40:47Z</time>
      </trkpt>
      <trkpt lat="-25.5284400" lon="-49.2027650">
        <ele>904.0</ele>
        <time>2021-04-17T10:40:49Z</time>
      </trkpt>
      <trkpt lat="-25.5285350" lon="-49.2028140">
        <ele>904.2</ele>
        <time>2021-04-17T10:40:51Z</time>
      </trkpt>
      <trkpt lat="-25.5286290" lon="-49.2028630">
        <ele>904.4</ele>
        <time>2021-04-17T10:40:53Z</time>
      </trkpt>
      <trkpt lat="-25.5287210" lon="-49.2029120">
        <ele>904.6</ele>
        <time>2021-04-17T10:40:55Z</time>
      </trkpt>
      <trkpt lat="-25.5288120" lon="-49.2029530">
        <ele>904.8</ele>
        <time>2021-04-17T10:40:57Z</time>
      </trkpt>
      <trkpt lat="-25.5289010" lon="-49.2029940">
        <ele>905.0</ele>
        <time>2021-04-17T10:40:59Z</time>
      </trkpt>
      <trkpt lat="-25.5289860" lon="-49.2030280">
        <ele>905.2</ele>
        <time>2021-04-17T10:41:01Z</time>
      </trkpt>
      <trkpt lat="-25.5290730" lon="-49.2030480">
        <ele>905.6</ele>
        <time>2021-04-17T10:41:03Z</time>
      </trkpt>
      <trkpt lat="-25.5291170" lon="-49.2030530">
        <ele>905.8</ele>
        <time>2021-04-17T10:41:04Z</time>
      </trkpt>
      <trkpt lat="-25.5291600" lon="-49.2030590">
        <ele>905.8</ele>
        <time>2021-04-17T10:41:05Z</time>
      </trkpt>
      <trkpt lat="-25.5292450" lon="-49.2030730">
        <ele>906.0</ele>
        <time>2021-04-17T10:41:07Z</time>
      </trkpt>
      <trkpt lat="-25.5293210" lon="-49.2030970">
        <ele>906.0</ele>
        <time>2021-04-17T10:41:09Z</time>
      </trkpt>
      <trkpt lat="-25.5293890" lon="-49.2031300">
        <ele>906.4</ele>
        <time>2021-04-17T10:41:11Z</time>
      </trkpt>
      <trkpt lat="-25.5294220" lon="-49.2031490">
        <ele>906.4</ele>
        <time>2021-04-17T10:41:12Z</time>
      </trkpt>
      <trkpt lat="-25.5294560" lon="-49.2031680">
        <ele>906.4</ele>
        <time>2021-04-17T10:41:13Z</time>
      </trkpt>
      <trkpt lat="-25.5295230" lon="-49.2032060">
        <ele>906.6</ele>
        <time>2021-04-17T10:41:15Z</time>
      </trkpt>
      <trkpt lat="-25.5295910" lon="-49.2032440">
        <ele>906.6</ele>
        <time>2021-04-17T10:41:17Z</time>
      </trkpt>
      <trkpt lat="-25.5296600" lon="-49.2032840">
        <ele>906.8</ele>
        <time>2021-04-17T10:41:19Z</time>
      </trkpt>
      <trkpt lat="-25.5297210" lon="-49.2032860">
        <ele>907.0</ele>
        <time>2021-04-17T10:41:21Z</time>
      </trkpt>
      <trkpt lat="-25.5297490" lon="-49.2032270">
        <ele>907.0</ele>
        <time>2021-04-17T10:41:23Z</time>
      </trkpt>
      <trkpt lat="-25.5297590" lon="-49.2031920">
        <ele>907.0</ele>
        <time>2021-04-17T10:41:24Z</time>
      </trkpt>
      <trkpt lat="-25.5297690" lon="-49.2031560">
        <ele>907.2</ele>
        <time>2021-04-17T10:41:25Z</time>
      </trkpt>
      <trkpt lat="-25.5297940" lon="-49.2030830">
        <ele>907.2</ele>
        <time>2021-04-17T10:41:27Z</time>
      </trkpt>
      <trkpt lat="-25.5298180" lon="-49.2030040">
        <ele>907.4</ele>
        <time>2021-04-17T10:41:29Z</time>
      </trkpt>
      <trkpt lat="-25.5298510" lon="-49.2029250">
        <ele>907.4</ele>
        <time>2021-04-17T10:41:31Z</time>
      </trkpt>
      <trkpt lat="-25.5298680" lon="-49.2028890">
        <ele>907.8</ele>
        <time>2021-04-17T10:41:32Z</time>
      </trkpt>
      <trkpt lat="-25.5298840" lon="-49.2028520">
        <ele>907.8</ele>
        <time>2021-04-17T10:41:33Z</time>
      </trkpt>
      <trkpt lat="-25.5299160" lon="-49.2027820">
        <ele>908.0</ele>
        <time>2021-04-17T10:41:35Z</time>
      </trkpt>
      <trkpt lat="-25.5299480" lon="-49.2027070">
        <ele>908.0</ele>
        <time>2021-04-17T10:41:37Z</time>
      </trkpt>
      <trkpt lat="-25.5299810" lon="-49.2026260">
        <ele>908.2</ele>
        <time>2021-04-17T10:41:39Z</time>
      </trkpt>
      <trkpt lat="-25.5299980" lon="-49.2025860">
        <ele>908.2</ele>
        <time>2021-04-17T10:41:40Z</time>
      </trkpt>
      <trkpt lat="-25.5300150" lon="-49.2025460">
        <ele>908.2</ele>
        <time>2021-04-17T10:41:41Z</time>
      </trkpt>
      <trkpt lat="-25.5300500" lon="-49.2024640">
        <ele>908.4</ele>
        <time>2021-04-17T10:41:43Z</time>
      </trkpt>
      <trkpt lat="-25.5300880" lon="-49.2023850">
        <ele>908.6</ele>
        <time>2021-04-17T10:41:45Z</time>
      </trkpt>
      <trkpt lat="-25.5301220" lon="-49.2023010">
        <ele>908.6</ele>
        <time>2021-04-17T10:41:47Z</time>
      </trkpt>
      <trkpt lat="-25.5301600" lon="-49.2022150">
        <ele>908.8</ele>
        <time>2021-04-17T10:41:49Z</time>
      </trkpt>
      <trkpt lat="-25.5301780" lon="-49.2021720">
        <ele>908.8</ele>
        <time>2021-04-17T10:41:50Z</time>
      </trkpt>
      <trkpt lat="-25.5301960" lon="-49.2021280">
        <ele>908.8</ele>
        <time>2021-04-17T10:41:51Z</time>
      </trkpt>
      <trkpt lat="-25.5302300" lon="-49.2020430">
        <ele>908.8</ele>
        <time>2021-04-17T10:41:53Z</time>
      </trkpt>
      <trkpt lat="-25.5302640" lon="-49.2019620">
        <ele>908.8</ele>
        <time>2021-04-17T10:41:55Z</time>
      </trkpt>
      <trkpt lat="-25.5303020" lon="-49.2018780">
        <ele>908.8</ele>
        <time>2021-04-17T10:41:57Z</time>
      </trkpt>
      <trkpt lat="-25.5303230" lon="-49.2018340">
        <ele>908.8</ele>
        <time>2021-04-17T10:41:58Z</time>
      </trkpt>
      <trkpt lat="-25.5303440" lon="-49.2017900">
        <ele>908.8</ele>
        <time>2021-04-17T10:41:59Z</time>
      </trkpt>
      <trkpt lat="-25.5303860" lon="-49.2016980">
        <ele>908.8</ele>
        <time>2021-04-17T10:42:01Z</time>
      </trkpt>
      <trkpt lat="-25.5304280" lon="-49.2016030">
        <ele>908.8</ele>
        <time>2021-04-17T10:42:03Z</time>
      </trkpt>
      <trkpt lat="-25.5304710" lon="-49.2015060">
        <ele>908.6</ele>
        <time>2021-04-17T10:42:05Z</time>
      </trkpt>
      <trkpt lat="-25.5305170" lon="-49.2014070">
        <ele>908.4</ele>
        <time>2021-04-17T10:42:07Z</time>
      </trkpt>
      <trkpt lat="-25.5305630" lon="-49.2013100">
        <ele>908.2</ele>
        <time>2021-04-17T10:42:09Z</time>
      </trkpt>
      <trkpt lat="-25.5306060" lon="-49.2012220">
        <ele>908.2</ele>
        <time>2021-04-17T10:42:11Z</time>
      </trkpt>
      <trkpt lat="-25.5306430" lon="-49.2011410">
        <ele>908.2</ele>
        <time>2021-04-17T10:42:13Z</time>
      </trkpt>
      <trkpt lat="-25.5306800" lon="-49.2010580">
        <ele>907.8</ele>
        <time>2021-04-17T10:42:15Z</time>
      </trkpt>
      <trkpt lat="-25.5307000" lon="-49.2010140">
        <ele>907.8</ele>
        <time>2021-04-17T10:42:16Z</time>
      </trkpt>
      <trkpt lat="-25.5307210" lon="-49.2009700">
        <ele>907.8</ele>
        <time>2021-04-17T10:42:17Z</time>
      </trkpt>
      <trkpt lat="-25.5307640" lon="-49.2008790">
        <ele>907.6</ele>
        <time>2021-04-17T10:42:19Z</time>
      </trkpt>
      <trkpt lat="-25.5308050" lon="-49.2007860">
        <ele>907.6</ele>
        <time>2021-04-17T10:42:21Z</time>
      </trkpt>
      <trkpt lat="-25.5308480" lon="-49.2006930">
        <ele>907.6</ele>
        <time>2021-04-17T10:42:23Z</time>
      </trkpt>
      <trkpt lat="-25.5308920" lon="-49.2005990">
        <ele>907.6</ele>
        <time>2021-04-17T10:42:25Z</time>
      </trkpt>
      <trkpt lat="-25.5309360" lon="-49.2005080">
        <ele>907.4</ele>
        <time>2021-04-17T10:42:27Z</time>
      </trkpt>
      <trkpt lat="-25.5309700" lon="-49.2004140">
        <ele>907.4</ele>
        <time>2021-04-17T10:42:29Z</time>
      </trkpt>
      <trkpt lat="-25.5309890" lon="-49.2003070">
        <ele>907.4</ele>
        <time>2021-04-17T10:42:31Z</time>
      </trkpt>
      <trkpt lat="-25.5310020" lon="-49.2002720">
        <ele>907.2</ele>
        <time>2021-04-17T10:42:32Z</time>
      </trkpt>
      <trkpt lat="-25.5310150" lon="-49.2002360">
        <ele>907.2</ele>
        <time>2021-04-17T10:42:33Z</time>
      </trkpt>
      <trkpt lat="-25.5310660" lon="-49.2000940">
        <ele>907.2</ele>
        <time>2021-04-17T10:42:35Z</time>
      </trkpt>
      <trkpt lat="-25.5311110" lon="-49.1999880">
        <ele>907.2</ele>
        <time>2021-04-17T10:42:37Z</time>
      </trkpt>
      <trkpt lat="-25.5311580" lon="-49.1998830">
        <ele>906.8</ele>
        <time>2021-04-17T10:42:39Z</time>
      </trkpt>
      <trkpt lat="-25.5311810" lon="-49.1998300">
        <ele>906.6</ele>
        <time>2021-04-17T10:42:40Z</time>
      </trkpt>
      <trkpt lat="-25.5312040" lon="-49.1997770">
        <ele>906.6</ele>
        <time>2021-04-17T10:42:41Z</time>
      </trkpt>
      <trkpt lat="-25.5312510" lon="-49.1996690">
        <ele>906.4</ele>
        <time>2021-04-17T10:42:43Z</time>
      </trkpt>
      <trkpt lat="-25.5313010" lon="-49.1995560">
        <ele>906.2</ele>
        <time>2021-04-17T10:42:45Z</time>
      </trkpt>
      <trkpt lat="-25.5313260" lon="-49.1994980">
        <ele>906.2</ele>
        <time>2021-04-17T10:42:46Z</time>
      </trkpt>
      <trkpt lat="-25.5313520" lon="-49.1994410">
        <ele>906.2</ele>
        <time>2021-04-17T10:42:47Z</time>
      </trkpt>
      <trkpt lat="-25.5314030" lon="-49.1993210">
        <ele>905.8</ele>
        <time>2021-04-17T10:42:49Z</time>
      </trkpt>
      <trkpt lat="-25.5314540" lon="-49.1992010">
        <ele>905.8</ele>
        <time>2021-04-17T10:42:51Z</time>
      </trkpt>
      <trkpt lat="-25.5315060" lon="-49.1990790">
        <ele>905.6</ele>
        <time>2021-04-17T10:42:53Z</time>
      </trkpt>
      <trkpt lat="-25.5315620" lon="-49.1989530">
        <ele>905.6</ele>
        <time>2021-04-17T10:42:55Z</time>
      </trkpt>
      <trkpt lat="-25.5315850" lon="-49.1989060">
        <ele>905.6</ele>
        <time>2021-04-17T10:42:56Z</time>
      </trkpt>
      <trkpt lat="-25.5316070" lon="-49.1988590">
        <ele>905.6</ele>
        <time>2021-04-17T10:42:57Z</time>
      </trkpt>
      <trkpt lat="-25.5316520" lon="-49.1987650">
        <ele>905.6</ele>
        <time>2021-04-17T10:42:58Z</time>
      </trkpt>
      <trkpt lat="-25.5316840" lon="-49.1987070">
        <ele>905.4</ele>
        <time>2021-04-17T10:42:59Z</time>
      </trkpt>
      <trkpt lat="-25.5317380" lon="-49.1985930">
        <ele>905.4</ele>
        <time>2021-04-17T10:43:01Z</time>
      </trkpt>
      <trkpt lat="-25.5317900" lon="-49.1984790">
        <ele>905.2</ele>
        <time>2021-04-17T10:43:03Z</time>
      </trkpt>
      <trkpt lat="-25.5318420" lon="-49.1983580">
        <ele>905.0</ele>
        <time>2021-04-17T10:43:05Z</time>
      </trkpt>
      <trkpt lat="-25.5318980" lon="-49.1982310">
        <ele>904.8</ele>
        <time>2021-04-17T10:43:07Z</time>
      </trkpt>
      <trkpt lat="-25.5319540" lon="-49.1981090">
        <ele>904.8</ele>
        <time>2021-04-17T10:43:09Z</time>
      </trkpt>
      <trkpt lat="-25.5320120" lon="-49.1979840">
        <ele>904.6</ele>
        <time>2021-04-17T10:43:11Z</time>
      </trkpt>
      <trkpt lat="-25.5320640" lon="-49.1978640">
        <ele>904.4</ele>
        <time>2021-04-17T10:43:13Z</time>
      </trkpt>
      <trkpt lat="-25.5321150" lon="-49.1977460">
        <ele>904.4</ele>
        <time>2021-04-17T10:43:15Z</time>
      </trkpt>
      <trkpt lat="-25.5321670" lon="-49.1976300">
        <ele>904.4</ele>
        <time>2021-04-17T10:43:17Z</time>
      </trkpt>
      <trkpt lat="-25.5321920" lon="-49.1975710">
        <ele>904.2</ele>
        <time>2021-04-17T10:43:18Z</time>
      </trkpt>
      <trkpt lat="-25.5322180" lon="-49.1975150">
        <ele>904.2</ele>
        <time>2021-04-17T10:43:19Z</time>
      </trkpt>
      <trkpt lat="-25.5322680" lon="-49.1974100">
        <ele>904.0</ele>
        <time>2021-04-17T10:43:21Z</time>
      </trkpt>
      <trkpt lat="-25.5322850" lon="-49.1973630">
        <ele>904.0</ele>
        <time>2021-04-17T10:43:22Z</time>
      </trkpt>
      <trkpt lat="-25.5322990" lon="-49.1973190">
        <ele>904.0</ele>
        <time>2021-04-17T10:43:23Z</time>
      </trkpt>
      <trkpt lat="-25.5323490" lon="-49.1972160">
        <ele>904.0</ele>
        <time>2021-04-17T10:43:25Z</time>
      </trkpt>
      <trkpt lat="-25.5324070" lon="-49.1971010">
        <ele>904.0</ele>
        <time>2021-04-17T10:43:27Z</time>
      </trkpt>
      <trkpt lat="-25.5324520" lon="-49.1969700">
        <ele>903.8</ele>
        <time>2021-04-17T10:43:29Z</time>
      </trkpt>
      <trkpt lat="-25.5325070" lon="-49.1968470">
        <ele>903.8</ele>
        <time>2021-04-17T10:43:31Z</time>
      </trkpt>
      <trkpt lat="-25.5325630" lon="-49.1967250">
        <ele>903.6</ele>
        <time>2021-04-17T10:43:33Z</time>
      </trkpt>
      <trkpt lat="-25.5326160" lon="-49.1966010">
        <ele>903.6</ele>
        <time>2021-04-17T10:43:35Z</time>
      </trkpt>
      <trkpt lat="-25.5326740" lon="-49.1964750">
        <ele>903.6</ele>
        <time>2021-04-17T10:43:37Z</time>
      </trkpt>
      <trkpt lat="-25.5326930" lon="-49.1964310">
        <ele>903.6</ele>
        <time>2021-04-17T10:43:38Z</time>
      </trkpt>
      <trkpt lat="-25.5327120" lon="-49.1963870">
        <ele>903.6</ele>
        <time>2021-04-17T10:43:39Z</time>
      </trkpt>
      <trkpt lat="-25.5327890" lon="-49.1962110">
        <ele>903.4</ele>
        <time>2021-04-17T10:43:41Z</time>
      </trkpt>
      <trkpt lat="-25.5328160" lon="-49.1961460">
        <ele>903.4</ele>
        <time>2021-04-17T10:43:42Z</time>
      </trkpt>
      <trkpt lat="-25.5328430" lon="-49.1960790">
        <ele>903.4</ele>
        <time>2021-04-17T10:43:43Z</time>
      </trkpt>
      <trkpt lat="-25.5328940" lon="-49.1959450">
        <ele>903.4</ele>
        <time>2021-04-17T10:43:45Z</time>
      </trkpt>
      <trkpt lat="-25.5329390" lon="-49.1958100">
        <ele>903.2</ele>
        <time>2021-04-17T10:43:47Z</time>
      </trkpt>
      <trkpt lat="-25.5329860" lon="-49.1956790">
        <ele>903.0</ele>
        <time>2021-04-17T10:43:49Z</time>
      </trkpt>
      <trkpt lat="-25.5330030" lon="-49.1956380">
        <ele>903.0</ele>
        <time>2021-04-17T10:43:50Z</time>
      </trkpt>
      <trkpt lat="-25.5330200" lon="-49.1955960">
        <ele>903.0</ele>
        <time>2021-04-17T10:43:51Z</time>
      </trkpt>
      <trkpt lat="-25.5330890" lon="-49.1954310">
        <ele>902.6</ele>
        <time>2021-04-17T10:43:53Z</time>
      </trkpt>
      <trkpt lat="-25.5331420" lon="-49.1953050">
        <ele>902.4</ele>
        <time>2021-04-17T10:43:55Z</time>
      </trkpt>
      <trkpt lat="-25.5331920" lon="-49.1951750">
        <ele>902.2</ele>
        <time>2021-04-17T10:43:57Z</time>
      </trkpt>
      <trkpt lat="-25.5332220" lon="-49.1951110">
        <ele>902.2</ele>
        <time>2021-04-17T10:43:58Z</time>
      </trkpt>
      <trkpt lat="-25.5332570" lon="-49.1950460">
        <ele>902.2</ele>
        <time>2021-04-17T10:43:59Z</time>
      </trkpt>
      <trkpt lat="-25.5333400" lon="-49.1949220">
        <ele>902.2</ele>
        <time>2021-04-17T10:44:01Z</time>
      </trkpt>
      <trkpt lat="-25.5334410" lon="-49.1948110">
        <ele>902.0</ele>
        <time>2021-04-17T10:44:03Z</time>
      </trkpt>
      <trkpt lat="-25.5335530" lon="-49.1947360">
        <ele>901.8</ele>
        <time>2021-04-17T10:44:05Z</time>
      </trkpt>
      <trkpt lat="-25.5336790" lon="-49.1946760">
        <ele>901.6</ele>
        <time>2021-04-17T10:44:07Z</time>
      </trkpt>
      <trkpt lat="-25.5338210" lon="-49.1946220">
        <ele>901.4</ele>
        <time>2021-04-17T10:44:09Z</time>
      </trkpt>
      <trkpt lat="-25.5339640" lon="-49.1945730">
        <ele>901.0</ele>
        <time>2021-04-17T10:44:11Z</time>
      </trkpt>
      <trkpt lat="-25.5341010" lon="-49.1945260">
        <ele>900.6</ele>
        <time>2021-04-17T10:44:13Z</time>
      </trkpt>
      <trkpt lat="-25.5341440" lon="-49.1945120">
        <ele>900.6</ele>
        <time>2021-04-17T10:44:14Z</time>
      </trkpt>
      <trkpt lat="-25.5341860" lon="-49.1944980">
        <ele>900.4</ele>
        <time>2021-04-17T10:44:15Z</time>
      </trkpt>
      <trkpt lat="-25.5343570" lon="-49.1944420">
        <ele>900.4</ele>
        <time>2021-04-17T10:44:17Z</time>
      </trkpt>
      <trkpt lat="-25.5344760" lon="-49.1944030">
        <ele>900.4</ele>
        <time>2021-04-17T10:44:19Z</time>
      </trkpt>
      <trkpt lat="-25.5345150" lon="-49.1943900">
        <ele>900.4</ele>
        <time>2021-04-17T10:44:20Z</time>
      </trkpt>
      <trkpt lat="-25.5345540" lon="-49.1943760">
        <ele>900.4</ele>
        <time>2021-04-17T10:44:21Z</time>
      </trkpt>
      <trkpt lat="-25.5347090" lon="-49.1943220">
        <ele>900.4</ele>
        <time>2021-04-17T10:44:23Z</time>
      </trkpt>
      <trkpt lat="-25.5348270" lon="-49.1942830">
        <ele>900.6</ele>
        <time>2021-04-17T10:44:25Z</time>
      </trkpt>
      <trkpt lat="-25.5349440" lon="-49.1942430">
        <ele>900.6</ele>
        <time>2021-04-17T10:44:27Z</time>
      </trkpt>
      <trkpt lat="-25.5350610" lon="-49.1942050">
        <ele>900.6</ele>
        <time>2021-04-17T10:44:29Z</time>
      </trkpt>
      <trkpt lat="-25.5351770" lon="-49.1941680">
        <ele>900.6</ele>
        <time>2021-04-17T10:44:31Z</time>
      </trkpt>
      <trkpt lat="-25.5352920" lon="-49.1941290">
        <ele>900.8</ele>
        <time>2021-04-17T10:44:33Z</time>
      </trkpt>
      <trkpt lat="-25.5354070" lon="-49.1940910">
        <ele>900.8</ele>
        <time>2021-04-17T10:44:35Z</time>
      </trkpt>
      <trkpt lat="-25.5355200" lon="-49.1940510">
        <ele>900.8</ele>
        <time>2021-04-17T10:44:37Z</time>
      </trkpt>
      <trkpt lat="-25.5356310" lon="-49.1940140">
        <ele>900.8</ele>
        <time>2021-04-17T10:44:39Z</time>
      </trkpt>
      <trkpt lat="-25.5357380" lon="-49.1939760">
        <ele>900.8</ele>
        <time>2021-04-17T10:44:41Z</time>
      </trkpt>
      <trkpt lat="-25.5357900" lon="-49.1939580">
        <ele>900.8</ele>
        <time>2021-04-17T10:44:42Z</time>
      </trkpt>
      <trkpt lat="-25.5358420" lon="-49.1939390">
        <ele>900.8</ele>
        <time>2021-04-17T10:44:43Z</time>
      </trkpt>
      <trkpt lat="-25.5359430" lon="-49.1939010">
        <ele>901.0</ele>
        <time>2021-04-17T10:44:45Z</time>
      </trkpt>
      <trkpt lat="-25.5360450" lon="-49.1938660">
        <ele>901.0</ele>
        <time>2021-04-17T10:44:47Z</time>
      </trkpt>
      <trkpt lat="-25.5361430" lon="-49.1938310">
        <ele>901.0</ele>
        <time>2021-04-17T10:44:49Z</time>
      </trkpt>
      <trkpt lat="-25.5362380" lon="-49.1937970">
        <ele>901.2</ele>
        <time>2021-04-17T10:44:51Z</time>
      </trkpt>
      <trkpt lat="-25.5362860" lon="-49.1937800">
        <ele>901.2</ele>
        <time>2021-04-17T10:44:52Z</time>
      </trkpt>
      <trkpt lat="-25.5363320" lon="-49.1937640">
        <ele>901.4</ele>
        <time>2021-04-17T10:44:53Z</time>
      </trkpt>
      <trkpt lat="-25.5364250" lon="-49.1937320">
        <ele>901.4</ele>
        <time>2021-04-17T10:44:55Z</time>
      </trkpt>
      <trkpt lat="-25.5365190" lon="-49.1937040">
        <ele>901.6</ele>
        <time>2021-04-17T10:44:57Z</time>
      </trkpt>
      <trkpt lat="-25.5366120" lon="-49.1936740">
        <ele>901.8</ele>
        <time>2021-04-17T10:44:59Z</time>
      </trkpt>
      <trkpt lat="-25.5367040" lon="-49.1936420">
        <ele>901.8</ele>
        <time>2021-04-17T10:45:01Z</time>
      </trkpt>
      <trkpt lat="-25.5368010" lon="-49.1936110">
        <ele>902.0</ele>
        <time>2021-04-17T10:45:03Z</time>
      </trkpt>
      <trkpt lat="-25.5369000" lon="-49.1935800">
        <ele>902.2</ele>
        <time>2021-04-17T10:45:05Z</time>
      </trkpt>
      <trkpt lat="-25.5370060" lon="-49.1935470">
        <ele>902.4</ele>
        <time>2021-04-17T10:45:07Z</time>
      </trkpt>
      <trkpt lat="-25.5371230" lon="-49.1935070">
        <ele>902.4</ele>
        <time>2021-04-17T10:45:09Z</time>
      </trkpt>
      <trkpt lat="-25.5371830" lon="-49.1934870">
        <ele>902.4</ele>
        <time>2021-04-17T10:45:10Z</time>
      </trkpt>
      <trkpt lat="-25.5372420" lon="-49.1934660">
        <ele>902.4</ele>
        <time>2021-04-17T10:45:11Z</time>
      </trkpt>
      <trkpt lat="-25.5373610" lon="-49.1934250">
        <ele>902.4</ele>
        <time>2021-04-17T10:45:13Z</time>
      </trkpt>
      <trkpt lat="-25.5374760" lon="-49.1933870">
        <ele>902.2</ele>
        <time>2021-04-17T10:45:15Z</time>
      </trkpt>
      <trkpt lat="-25.5375880" lon="-49.1933490">
        <ele>902.0</ele>
        <time>2021-04-17T10:45:17Z</time>
      </trkpt>
      <trkpt lat="-25.5376940" lon="-49.1933140">
        <ele>902.0</ele>
        <time>2021-04-17T10:45:19Z</time>
      </trkpt>
      <trkpt lat="-25.5377970" lon="-49.1932770">
        <ele>901.8</ele>
        <time>2021-04-17T10:45:21Z</time>
      </trkpt>
      <trkpt lat="-25.5378970" lon="-49.1932410">
        <ele>901.8</ele>
        <time>2021-04-17T10:45:23Z</time>
      </trkpt>
      <trkpt lat="-25.5379920" lon="-49.1932080">
        <ele>901.8</ele>
        <time>2021-04-17T10:45:25Z</time>
      </trkpt>
      <trkpt lat="-25.5380920" lon="-49.1931770">
        <ele>901.8</ele>
        <time>2021-04-17T10:45:27Z</time>
      </trkpt>
      <trkpt lat="-25.5381440" lon="-49.1931610">
        <ele>902.2</ele>
        <time>2021-04-17T10:45:28Z</time>
      </trkpt>
      <trkpt lat="-25.5381940" lon="-49.1931430">
        <ele>902.4</ele>
        <time>2021-04-17T10:45:29Z</time>
      </trkpt>
      <trkpt lat="-25.5382450" lon="-49.1931270">
        <ele>902.6</ele>
        <time>2021-04-17T10:45:30Z</time>
      </trkpt>
      <trkpt lat="-25.5382950" lon="-49.1931100">
        <ele>902.8</ele>
        <time>2021-04-17T10:45:31Z</time>
      </trkpt>
      <trkpt lat="-25.5383940" lon="-49.1930770">
        <ele>903.4</ele>
        <time>2021-04-17T10:45:33Z</time>
      </trkpt>
      <trkpt lat="-25.5384430" lon="-49.1930590">
        <ele>903.8</ele>
        <time>2021-04-17T10:45:34Z</time>
      </trkpt>
      <trkpt lat="-25.5384920" lon="-49.1930420">
        <ele>904.0</ele>
        <time>2021-04-17T10:45:35Z</time>
      </trkpt>
      <trkpt lat="-25.5385900" lon="-49.1930100">
        <ele>904.8</ele>
        <time>2021-04-17T10:45:37Z</time>
      </trkpt>
      <trkpt lat="-25.5386880" lon="-49.1929780">
        <ele>905.6</ele>
        <time>2021-04-17T10:45:39Z</time>
      </trkpt>
      <trkpt lat="-25.5387380" lon="-49.1929640">
        <ele>906.2</ele>
        <time>2021-04-17T10:45:40Z</time>
      </trkpt>
      <trkpt lat="-25.5387880" lon="-49.1929500">
        <ele>906.6</ele>
        <time>2021-04-17T10:45:41Z</time>
      </trkpt>
      <trkpt lat="-25.5388840" lon="-49.1929200">
        <ele>907.6</ele>
        <time>2021-04-17T10:45:43Z</time>
      </trkpt>
      <trkpt lat="-25.5389800" lon="-49.1928880">
        <ele>908.2</ele>
        <time>2021-04-17T10:45:45Z</time>
      </trkpt>
      <trkpt lat="-25.5390720" lon="-49.1928600">
        <ele>909.0</ele>
        <time>2021-04-17T10:45:47Z</time>
      </trkpt>
      <trkpt lat="-25.5391160" lon="-49.1928470">
        <ele>909.2</ele>
        <time>2021-04-17T10:45:48Z</time>
      </trkpt>
      <trkpt lat="-25.5391590" lon="-49.1928340">
        <ele>909.4</ele>
        <time>2021-04-17T10:45:49Z</time>
      </trkpt>
      <trkpt lat="-25.5392420" lon="-49.1928050">
        <ele>910.0</ele>
        <time>2021-04-17T10:45:51Z</time>
      </trkpt>
      <trkpt lat="-25.5393260" lon="-49.1927800">
        <ele>910.4</ele>
        <time>2021-04-17T10:45:53Z</time>
      </trkpt>
      <trkpt lat="-25.5394090" lon="-49.1927510">
        <ele>911.0</ele>
        <time>2021-04-17T10:45:55Z</time>
      </trkpt>
      <trkpt lat="-25.5394960" lon="-49.1927200">
        <ele>911.2</ele>
        <time>2021-04-17T10:45:57Z</time>
      </trkpt>
      <trkpt lat="-25.5395850" lon="-49.1926870">
        <ele>911.2</ele>
        <time>2021-04-17T10:45:59Z</time>
      </trkpt>
      <trkpt lat="-25.5396750" lon="-49.1926520">
        <ele>911.2</ele>
        <time>2021-04-17T10:46:01Z</time>
      </trkpt>
      <trkpt lat="-25.5397610" lon="-49.1926210">
        <ele>911.2</ele>
        <time>2021-04-17T10:46:03Z</time>
      </trkpt>
      <trkpt lat="-25.5398020" lon="-49.1926060">
        <ele>911.2</ele>
        <time>2021-04-17T10:46:04Z</time>
      </trkpt>
      <trkpt lat="-25.5398440" lon="-49.1925920">
        <ele>911.2</ele>
        <time>2021-04-17T10:46:05Z</time>
      </trkpt>
      <trkpt lat="-25.5399290" lon="-49.1925670">
        <ele>911.0</ele>
        <time>2021-04-17T10:46:07Z</time>
      </trkpt>
      <trkpt lat="-25.5400030" lon="-49.1925430">
        <ele>910.8</ele>
        <time>2021-04-17T10:46:09Z</time>
      </trkpt>
      <trkpt lat="-25.5400760" lon="-49.1925200">
        <ele>910.4</ele>
        <time>2021-04-17T10:46:11Z</time>
      </trkpt>
      <trkpt lat="-25.5401350" lon="-49.1925140">
        <ele>910.4</ele>
        <time>2021-04-17T10:46:13Z</time>
      </trkpt>
      <trkpt lat="-25.5401590" lon="-49.1925100">
        <ele>910.0</ele>
        <time>2021-04-17T10:46:14Z</time>
      </trkpt>
      <trkpt lat="-25.5401820" lon="-49.1925060">
        <ele>910.0</ele>
        <time>2021-04-17T10:46:15Z</time>
      </trkpt>
      <trkpt lat="-25.5402240" lon="-49.1924800">
        <ele>909.6</ele>
        <time>2021-04-17T10:46:17Z</time>
      </trkpt>
      <trkpt lat="-25.5402520" lon="-49.1924610">
        <ele>909.6</ele>
        <time>2021-04-17T10:46:18Z</time>
      </trkpt>
      <trkpt lat="-25.5402880" lon="-49.1924460">
        <ele>909.4</ele>
        <time>2021-04-17T10:46:19Z</time>
      </trkpt>
      <trkpt lat="-25.5403790" lon="-49.1924150">
        <ele>909.4</ele>
        <time>2021-04-17T10:46:21Z</time>
      </trkpt>
      <trkpt lat="-25.5404830" lon="-49.1923810">
        <ele>909.4</ele>
        <time>2021-04-17T10:46:23Z</time>
      </trkpt>
      <trkpt lat="-25.5405870" lon="-49.1923440">
        <ele>909.4</ele>
        <time>2021-04-17T10:46:25Z</time>
      </trkpt>
      <trkpt lat="-25.5406810" lon="-49.1923140">
        <ele>909.4</ele>
        <time>2021-04-17T10:46:27Z</time>
      </trkpt>
      <trkpt lat="-25.5407750" lon="-49.1922850">
        <ele>909.4</ele>
        <time>2021-04-17T10:46:29Z</time>
      </trkpt>
      <trkpt lat="-25.5408210" lon="-49.1922710">
        <ele>909.6</ele>
        <time>2021-04-17T10:46:30Z</time>
      </trkpt>
      <trkpt lat="-25.5408670" lon="-49.1922570">
        <ele>909.8</ele>
        <time>2021-04-17T10:46:31Z</time>
      </trkpt>
      <trkpt lat="-25.5409590" lon="-49.1922250">
        <ele>910.2</ele>
        <time>2021-04-17T10:46:33Z</time>
      </trkpt>
      <trkpt lat="-25.5410510" lon="-49.1921940">
        <ele>910.4</ele>
        <time>2021-04-17T10:46:35Z</time>
      </trkpt>
      <trkpt lat="-25.5411410" lon="-49.1921670">
        <ele>910.4</ele>
        <time>2021-04-17T10:46:37Z</time>
      </trkpt>
      <trkpt lat="-25.5412320" lon="-49.1921330">
        <ele>910.6</ele>
        <time>2021-04-17T10:46:39Z</time>
      </trkpt>
      <trkpt lat="-25.5413270" lon="-49.1920970">
        <ele>911.0</ele>
        <time>2021-04-17T10:46:41Z</time>
      </trkpt>
      <trkpt lat="-25.5414260" lon="-49.1920650">
        <ele>911.4</ele>
        <time>2021-04-17T10:46:43Z</time>
      </trkpt>
      <trkpt lat="-25.5415240" lon="-49.1920330">
        <ele>911.4</ele>
        <time>2021-04-17T10:46:45Z</time>
      </trkpt>
      <trkpt lat="-25.5416140" lon="-49.1920030">
        <ele>911.4</ele>
        <time>2021-04-17T10:46:47Z</time>
      </trkpt>
      <trkpt lat="-25.5416970" lon="-49.1919720">
        <ele>911.4</ele>
        <time>2021-04-17T10:46:49Z</time>
      </trkpt>
      <trkpt lat="-25.5417830" lon="-49.1919420">
        <ele>911.4</ele>
        <time>2021-04-17T10:46:51Z</time>
      </trkpt>
      <trkpt lat="-25.5418720" lon="-49.1919100">
        <ele>911.4</ele>
        <time>2021-04-17T10:46:53Z</time>
      </trkpt>
      <trkpt lat="-25.5419180" lon="-49.1918950">
        <ele>911.4</ele>
        <time>2021-04-17T10:46:54Z</time>
      </trkpt>
      <trkpt lat="-25.5419630" lon="-49.1918800">
        <ele>911.4</ele>
        <time>2021-04-17T10:46:55Z</time>
      </trkpt>
      <trkpt lat="-25.5420550" lon="-49.1918470">
        <ele>911.2</ele>
        <time>2021-04-17T10:46:57Z</time>
      </trkpt>
      <trkpt lat="-25.5421470" lon="-49.1918160">
        <ele>911.0</ele>
        <time>2021-04-17T10:46:59Z</time>
      </trkpt>
      <trkpt lat="-25.5422380" lon="-49.1917840">
        <ele>911.0</ele>
        <time>2021-04-17T10:47:01Z</time>
      </trkpt>
      <trkpt lat="-25.5423300" lon="-49.1917540">
        <ele>911.0</ele>
        <time>2021-04-17T10:47:03Z</time>
      </trkpt>
      <trkpt lat="-25.5424220" lon="-49.1917240">
        <ele>910.8</ele>
        <time>2021-04-17T10:47:05Z</time>
      </trkpt>
      <trkpt lat="-25.5425150" lon="-49.1916940">
        <ele>910.6</ele>
        <time>2021-04-17T10:47:07Z</time>
      </trkpt>
      <trkpt lat="-25.5426040" lon="-49.1916620">
        <ele>910.4</ele>
        <time>2021-04-17T10:47:09Z</time>
      </trkpt>
      <trkpt lat="-25.5426850" lon="-49.1916370">
        <ele>910.0</ele>
        <time>2021-04-17T10:47:11Z</time>
      </trkpt>
      <trkpt lat="-25.5427220" lon="-49.1916220">
        <ele>910.0</ele>
        <time>2021-04-17T10:47:12Z</time>
      </trkpt>
      <trkpt lat="-25.5427570" lon="-49.1916060">
        <ele>910.0</ele>
        <time>2021-04-17T10:47:13Z</time>
      </trkpt>
      <trkpt lat="-25.5428120" lon="-49.1915760">
        <ele>909.8</ele>
        <time>2021-04-17T10:47:15Z</time>
      </trkpt>
      <trkpt lat="-25.5428330" lon="-49.1915640">
        <ele>909.6</ele>
        <time>2021-04-17T10:47:16Z</time>
      </trkpt>
      <trkpt lat="-25.5428470" lon="-49.1915530">
        <ele>909.6</ele>
        <time>2021-04-17T10:47:17Z</time>
      </trkpt>
      <trkpt lat="-25.5428800" lon="-49.1915400">
        <ele>909.4</ele>
        <time>2021-04-17T10:47:19Z</time>
      </trkpt>
      <trkpt lat="-25.5429180" lon="-49.1915270">
        <ele>909.4</ele>
        <time>2021-04-17T10:47:21Z</time>
      </trkpt>
      <trkpt lat="-25.5429290" lon="-49.1915260">
        <ele>909.4</ele>
        <time>2021-04-17T10:47:23Z</time>
      </trkpt>
      <trkpt lat="-25.5429360" lon="-49.1915290">
        <ele>909.4</ele>
        <time>2021-04-17T10:47:24Z</time>
      </trkpt>
      <trkpt lat="-25.5429510" lon="-49.1915300">
        <ele>909.4</ele>
        <time>2021-04-17T10:47:25Z</time>
      </trkpt>
      <trkpt lat="-25.5429940" lon="-49.1915250">
        <ele>909.2</ele>
        <time>2021-04-17T10:47:27Z</time>
      </trkpt>
      <trkpt lat="-25.5430210" lon="-49.1915150">
        <ele>909.2</ele>
        <time>2021-04-17T10:47:28Z</time>
      </trkpt>
      <trkpt lat="-25.5430530" lon="-49.1915040">
        <ele>909.2</ele>
        <time>2021-04-17T10:47:29Z</time>
      </trkpt>
      <trkpt lat="-25.5431270" lon="-49.1914780">
        <ele>909.2</ele>
        <time>2021-04-17T10:47:31Z</time>
      </trkpt>
      <trkpt lat="-25.5432070" lon="-49.1914500">
        <ele>909.2</ele>
        <time>2021-04-17T10:47:33Z</time>
      </trkpt>
      <trkpt lat="-25.5432890" lon="-49.1914190">
        <ele>909.4</ele>
        <time>2021-04-17T10:47:35Z</time>
      </trkpt>
      <trkpt lat="-25.5433750" lon="-49.1913880">
        <ele>909.4</ele>
        <time>2021-04-17T10:47:37Z</time>
      </trkpt>
      <trkpt lat="-25.5434630" lon="-49.1913560">
        <ele>909.4</ele>
        <time>2021-04-17T10:47:39Z</time>
      </trkpt>
      <trkpt lat="-25.5435550" lon="-49.1913280">
        <ele>909.4</ele>
        <time>2021-04-17T10:47:41Z</time>
      </trkpt>
      <trkpt lat="-25.5436470" lon="-49.1912980">
        <ele>909.4</ele>
        <time>2021-04-17T10:47:43Z</time>
      </trkpt>
      <trkpt lat="-25.5437370" lon="-49.1912660">
        <ele>909.4</ele>
        <time>2021-04-17T10:47:45Z</time>
      </trkpt>
      <trkpt lat="-25.5437820" lon="-49.1912580">
        <ele>909.4</ele>
        <time>2021-04-17T10:47:46Z</time>
      </trkpt>
      <trkpt lat="-25.5438260" lon="-49.1912540">
        <ele>909.4</ele>
        <time>2021-04-17T10:47:47Z</time>
      </trkpt>
      <trkpt lat="-25.5438690" lon="-49.1912400">
        <ele>909.4</ele>
        <time>2021-04-17T10:47:48Z</time>
      </trkpt>
      <trkpt lat="-25.5439140" lon="-49.1912180">
        <ele>909.4</ele>
        <time>2021-04-17T10:47:49Z</time>
      </trkpt>
      <trkpt lat="-25.5440080" lon="-49.1911730">
        <ele>909.4</ele>
        <time>2021-04-17T10:47:51Z</time>
      </trkpt>
      <trkpt lat="-25.5441070" lon="-49.1911350">
        <ele>909.4</ele>
        <time>2021-04-17T10:47:53Z</time>
      </trkpt>
      <trkpt lat="-25.5442050" lon="-49.1911010">
        <ele>909.4</ele>
        <time>2021-04-17T10:47:55Z</time>
      </trkpt>
      <trkpt lat="-25.5443020" lon="-49.1910700">
        <ele>909.4</ele>
        <time>2021-04-17T10:47:57Z</time>
      </trkpt>
      <trkpt lat="-25.5443970" lon="-49.1910380">
        <ele>909.4</ele>
        <time>2021-04-17T10:47:59Z</time>
      </trkpt>
      <trkpt lat="-25.5444910" lon="-49.1910060">
        <ele>909.2</ele>
        <time>2021-04-17T10:48:01Z</time>
      </trkpt>
      <trkpt lat="-25.5445890" lon="-49.1909740">
        <ele>909.0</ele>
        <time>2021-04-17T10:48:03Z</time>
      </trkpt>
      <trkpt lat="-25.5446370" lon="-49.1909590">
        <ele>908.8</ele>
        <time>2021-04-17T10:48:04Z</time>
      </trkpt>
      <trkpt lat="-25.5446850" lon="-49.1909420">
        <ele>908.6</ele>
        <time>2021-04-17T10:48:05Z</time>
      </trkpt>
      <trkpt lat="-25.5447840" lon="-49.1909060">
        <ele>908.2</ele>
        <time>2021-04-17T10:48:07Z</time>
      </trkpt>
      <trkpt lat="-25.5448880" lon="-49.1908740">
        <ele>908.0</ele>
        <time>2021-04-17T10:48:09Z</time>
      </trkpt>
      <trkpt lat="-25.5449950" lon="-49.1908400">
        <ele>907.6</ele>
        <time>2021-04-17T10:48:11Z</time>
      </trkpt>
      <trkpt lat="-25.5450490" lon="-49.1908230">
        <ele>907.4</ele>
        <time>2021-04-17T10:48:12Z</time>
      </trkpt>
      <trkpt lat="-25.5451020" lon="-49.1908050">
        <ele>907.4</ele>
        <time>2021-04-17T10:48:13Z</time>
      </trkpt>
      <trkpt lat="-25.5452110" lon="-49.1907680">
        <ele>907.0</ele>
        <time>2021-04-17T10:48:15Z</time>
      </trkpt>
      <trkpt lat="-25.5452650" lon="-49.1907480">
        <ele>907.0</ele>
        <time>2021-04-17T10:48:16Z</time>
      </trkpt>
      <trkpt lat="-25.5453210" lon="-49.1907290">
        <ele>906.8</ele>
        <time>2021-04-17T10:48:17Z</time>
      </trkpt>
      <trkpt lat="-25.5453780" lon="-49.1907090">
        <ele>906.6</ele>
        <time>2021-04-17T10:48:18Z</time>
      </trkpt>
      <trkpt lat="-25.5454360" lon="-49.1906900">
        <ele>906.6</ele>
        <time>2021-04-17T10:48:19Z</time>
      </trkpt>
      <trkpt lat="-25.5455540" lon="-49.1906500">
        <ele>906.4</ele>
        <time>2021-04-17T10:48:21Z</time>
      </trkpt>
      <trkpt lat="-25.5456150" lon="-49.1906280">
        <ele>906.2</ele>
        <time>2021-04-17T10:48:22Z</time>
      </trkpt>
      <trkpt lat="-25.5456800" lon="-49.1906050">
        <ele>906.2</ele>
        <time>2021-04-17T10:48:23Z</time>
      </trkpt>
      <trkpt lat="-25.5458160" lon="-49.1905600">
        <ele>905.8</ele>
        <time>2021-04-17T10:48:25Z</time>
      </trkpt>
      <trkpt lat="-25.5459600" lon="-49.1905130">
        <ele>905.4</ele>
        <time>2021-04-17T10:48:27Z</time>
      </trkpt>
      <trkpt lat="-25.5460340" lon="-49.1904880">
        <ele>905.4</ele>
        <time>2021-04-17T10:48:28Z</time>
      </trkpt>
      <trkpt lat="-25.5461100" lon="-49.1904630">
        <ele>905.0</ele>
        <time>2021-04-17T10:48:29Z</time>
      </trkpt>
      <trkpt lat="-25.5462600" lon="-49.1904160">
        <ele>904.4</ele>
        <time>2021-04-17T10:48:31Z</time>
      </trkpt>
      <trkpt lat="-25.5463970" lon="-49.1903680">
        <ele>903.6</ele>
        <time>2021-04-17T10:48:33Z</time>
      </trkpt>
      <trkpt lat="-25.5464570" lon="-49.1903460">
        <ele>903.2</ele>
        <time>2021-04-17T10:48:34Z</time>
      </trkpt>
      <trkpt lat="-25.5465130" lon="-49.1903280">
        <ele>903.0</ele>
        <time>2021-04-17T10:48:35Z</time>
      </trkpt>
      <trkpt lat="-25.5466160" lon="-49.1902950">
        <ele>902.8</ele>
        <time>2021-04-17T10:48:37Z</time>
      </trkpt>
      <trkpt lat="-25.5467050" lon="-49.1902650">
        <ele>902.8</ele>
        <time>2021-04-17T10:48:39Z</time>
      </trkpt>
      <trkpt lat="-25.5467860" lon="-49.1902440">
        <ele>902.8</ele>
        <time>2021-04-17T10:48:41Z</time>
      </trkpt>
      <trkpt lat="-25.5468620" lon="-49.1902210">
        <ele>903.0</ele>
        <time>2021-04-17T10:48:43Z</time>
      </trkpt>
      <trkpt lat="-25.5469350" lon="-49.1901950">
        <ele>904.0</ele>
        <time>2021-04-17T10:48:45Z</time>
      </trkpt>
      <trkpt lat="-25.5469740" lon="-49.1901800">
        <ele>904.4</ele>
        <time>2021-04-17T10:48:46Z</time>
      </trkpt>
      <trkpt lat="-25.5470150" lon="-49.1901650">
        <ele>905.0</ele>
        <time>2021-04-17T10:48:47Z</time>
      </trkpt>
      <trkpt lat="-25.5470980" lon="-49.1901340">
        <ele>905.8</ele>
        <time>2021-04-17T10:48:49Z</time>
      </trkpt>
      <trkpt lat="-25.5471850" lon="-49.1901090">
        <ele>906.8</ele>
        <time>2021-04-17T10:48:51Z</time>
      </trkpt>
      <trkpt lat="-25.5472280" lon="-49.1900950">
        <ele>907.2</ele>
        <time>2021-04-17T10:48:52Z</time>
      </trkpt>
      <trkpt lat="-25.5472710" lon="-49.1900820">
        <ele>907.6</ele>
        <time>2021-04-17T10:48:53Z</time>
      </trkpt>
      <trkpt lat="-25.5473540" lon="-49.1900520">
        <ele>908.2</ele>
        <time>2021-04-17T10:48:55Z</time>
      </trkpt>
      <trkpt lat="-25.5474370" lon="-49.1900260">
        <ele>908.4</ele>
        <time>2021-04-17T10:48:57Z</time>
      </trkpt>
      <trkpt lat="-25.5474790" lon="-49.1900140">
        <ele>908.4</ele>
        <time>2021-04-17T10:48:58Z</time>
      </trkpt>
      <trkpt lat="-25.5475220" lon="-49.1900000">
        <ele>908.6</ele>
        <time>2021-04-17T10:48:59Z</time>
      </trkpt>
      <trkpt lat="-25.5476080" lon="-49.1899690">
        <ele>908.6</ele>
        <time>2021-04-17T10:49:01Z</time>
      </trkpt>
      <trkpt lat="-25.5476940" lon="-49.1899390">
        <ele>908.8</ele>
        <time>2021-04-17T10:49:03Z</time>
      </trkpt>
      <trkpt lat="-25.5477810" lon="-49.1899090">
        <ele>909.0</ele>
        <time>2021-04-17T10:49:05Z</time>
      </trkpt>
      <trkpt lat="-25.5478650" lon="-49.1898790">
        <ele>909.0</ele>
        <time>2021-04-17T10:49:07Z</time>
      </trkpt>
      <trkpt lat="-25.5479070" lon="-49.1898660">
        <ele>909.2</ele>
        <time>2021-04-17T10:49:08Z</time>
      </trkpt>
      <trkpt lat="-25.5479480" lon="-49.1898520">
        <ele>909.4</ele>
        <time>2021-04-17T10:49:09Z</time>
      </trkpt>
      <trkpt lat="-25.5480290" lon="-49.1898240">
        <ele>909.6</ele>
        <time>2021-04-17T10:49:11Z</time>
      </trkpt>
      <trkpt lat="-25.5481090" lon="-49.1897950">
        <ele>909.8</ele>
        <time>2021-04-17T10:49:13Z</time>
      </trkpt>
      <trkpt lat="-25.5481890" lon="-49.1897670">
        <ele>910.0</ele>
        <time>2021-04-17T10:49:15Z</time>
      </trkpt>
      <trkpt lat="-25.5482700" lon="-49.1897400">
        <ele>910.2</ele>
        <time>2021-04-17T10:49:17Z</time>
      </trkpt>
      <trkpt lat="-25.5483540" lon="-49.1897120">
        <ele>910.6</ele>
        <time>2021-04-17T10:49:19Z</time>
      </trkpt>
      <trkpt lat="-25.5484370" lon="-49.1896840">
        <ele>910.8</ele>
        <time>2021-04-17T10:49:21Z</time>
      </trkpt>
      <trkpt lat="-25.5485170" lon="-49.1896570">
        <ele>911.2</ele>
        <time>2021-04-17T10:49:23Z</time>
      </trkpt>
      <trkpt lat="-25.5486010" lon="-49.1896300">
        <ele>911.2</ele>
        <time>2021-04-17T10:49:25Z</time>
      </trkpt>
      <trkpt lat="-25.5486870" lon="-49.1896030">
        <ele>911.2</ele>
        <time>2021-04-17T10:49:27Z</time>
      </trkpt>
      <trkpt lat="-25.5487330" lon="-49.1895860">
        <ele>911.2</ele>
        <time>2021-04-17T10:49:28Z</time>
      </trkpt>
      <trkpt lat="-25.5487800" lon="-49.1895670">
        <ele>911.2</ele>
        <time>2021-04-17T10:49:29Z</time>
      </trkpt>
      <trkpt lat="-25.5488770" lon="-49.1895320">
        <ele>911.2</ele>
        <time>2021-04-17T10:49:31Z</time>
      </trkpt>
      <trkpt lat="-25.5489760" lon="-49.1895000">
        <ele>911.2</ele>
        <time>2021-04-17T10:49:33Z</time>
      </trkpt>
      <trkpt lat="-25.5490760" lon="-49.1894680">
        <ele>911.2</ele>
        <time>2021-04-17T10:49:35Z</time>
      </trkpt>
      <trkpt lat="-25.5491750" lon="-49.1894340">
        <ele>911.2</ele>
        <time>2021-04-17T10:49:37Z</time>
      </trkpt>
      <trkpt lat="-25.5492090" lon="-49.1894220">
        <ele>911.2</ele>
        <time>2021-04-17T10:49:38Z</time>
      </trkpt>
      <trkpt lat="-25.5492420" lon="-49.1894100">
        <ele>911.2</ele>
        <time>2021-04-17T10:49:39Z</time>
      </trkpt>
      <trkpt lat="-25.5493760" lon="-49.1893630">
        <ele>911.2</ele>
        <time>2021-04-17T10:49:41Z</time>
      </trkpt>
      <trkpt lat="-25.5494760" lon="-49.1893270">
        <ele>911.2</ele>
        <time>2021-04-17T10:49:43Z</time>
      </trkpt>
      <trkpt lat="-25.5495750" lon="-49.1892930">
        <ele>911.2</ele>
        <time>2021-04-17T10:49:45Z</time>
      </trkpt>
      <trkpt lat="-25.5496700" lon="-49.1892580">
        <ele>911.2</ele>
        <time>2021-04-17T10:49:47Z</time>
      </trkpt>
      <trkpt lat="-25.5497640" lon="-49.1892200">
        <ele>911.4</ele>
        <time>2021-04-17T10:49:49Z</time>
      </trkpt>
      <trkpt lat="-25.5498590" lon="-49.1891870">
        <ele>911.4</ele>
        <time>2021-04-17T10:49:51Z</time>
      </trkpt>
      <trkpt lat="-25.5499510" lon="-49.1891550">
        <ele>911.6</ele>
        <time>2021-04-17T10:49:53Z</time>
      </trkpt>
      <trkpt lat="-25.5500430" lon="-49.1891210">
        <ele>911.8</ele>
        <time>2021-04-17T10:49:55Z</time>
      </trkpt>
      <trkpt lat="-25.5501380" lon="-49.1890880">
        <ele>912.0</ele>
        <time>2021-04-17T10:49:57Z</time>
      </trkpt>
      <trkpt lat="-25.5502340" lon="-49.1890570">
        <ele>912.0</ele>
        <time>2021-04-17T10:49:59Z</time>
      </trkpt>
      <trkpt lat="-25.5503270" lon="-49.1890260">
        <ele>912.2</ele>
        <time>2021-04-17T10:50:01Z</time>
      </trkpt>
      <trkpt lat="-25.5504210" lon="-49.1889970">
        <ele>912.4</ele>
        <time>2021-04-17T10:50:03Z</time>
      </trkpt>
      <trkpt lat="-25.5504680" lon="-49.1889830">
        <ele>912.4</ele>
        <time>2021-04-17T10:50:04Z</time>
      </trkpt>
      <trkpt lat="-25.5505150" lon="-49.1889670">
        <ele>912.6</ele>
        <time>2021-04-17T10:50:05Z</time>
      </trkpt>
      <trkpt lat="-25.5506060" lon="-49.1889370">
        <ele>912.6</ele>
        <time>2021-04-17T10:50:07Z</time>
      </trkpt>
      <trkpt lat="-25.5506970" lon="-49.1889050">
        <ele>912.6</ele>
        <time>2021-04-17T10:50:09Z</time>
      </trkpt>
      <trkpt lat="-25.5507860" lon="-49.1888750">
        <ele>912.6</ele>
        <time>2021-04-17T10:50:11Z</time>
      </trkpt>
      <trkpt lat="-25.5508700" lon="-49.1888490">
        <ele>912.6</ele>
        <time>2021-04-17T10:50:13Z</time>
      </trkpt>
      <trkpt lat="-25.5509470" lon="-49.1888210">
        <ele>912.8</ele>
        <time>2021-04-17T10:50:15Z</time>
      </trkpt>
      <trkpt lat="-25.5510120" lon="-49.1887830">
        <ele>912.8</ele>
        <time>2021-04-17T10:50:17Z</time>
      </trkpt>
      <trkpt lat="-25.5510620" lon="-49.1887240">
        <ele>912.6</ele>
        <time>2021-04-17T10:50:19Z</time>
      </trkpt>
      <trkpt lat="-25.5510810" lon="-49.1886260">
        <ele>912.6</ele>
        <time>2021-04-17T10:50:21Z</time>
      </trkpt>
      <trkpt lat="-25.5510730" lon="-49.1885580">
        <ele>912.6</ele>
        <time>2021-04-17T10:50:22Z</time>
      </trkpt>
      <trkpt lat="-25.5510550" lon="-49.1884840">
        <ele>912.6</ele>
        <time>2021-04-17T10:50:23Z</time>
      </trkpt>
      <trkpt lat="-25.5510030" lon="-49.1883040">
        <ele>912.6</ele>
        <time>2021-04-17T10:50:25Z</time>
      </trkpt>
      <trkpt lat="-25.5509390" lon="-49.1880930">
        <ele>912.6</ele>
        <time>2021-04-17T10:50:27Z</time>
      </trkpt>
      <trkpt lat="-25.5508700" lon="-49.1878750">
        <ele>912.4</ele>
        <time>2021-04-17T10:50:29Z</time>
      </trkpt>
      <trkpt lat="-25.5507910" lon="-49.1876650">
        <ele>911.6</ele>
        <time>2021-04-17T10:50:31Z</time>
      </trkpt>
      <trkpt lat="-25.5507530" lon="-49.1875830">
        <ele>911.0</ele>
        <time>2021-04-17T10:50:32Z</time>
      </trkpt>
      <trkpt lat="-25.5507210" lon="-49.1875050">
        <ele>910.2</ele>
        <time>2021-04-17T10:50:33Z</time>
      </trkpt>
      <trkpt lat="-25.5506900" lon="-49.1874340">
        <ele>909.2</ele>
        <time>2021-04-17T10:50:34Z</time>
      </trkpt>
      <trkpt lat="-25.5506550" lon="-49.1873630">
        <ele>908.0</ele>
        <time>2021-04-17T10:50:35Z</time>
      </trkpt>
      <trkpt lat="-25.5506190" lon="-49.1872940">
        <ele>907.0</ele>
        <time>2021-04-17T10:50:36Z</time>
      </trkpt>
      <trkpt lat="-25.5505830" lon="-49.1872250">
        <ele>906.4</ele>
        <time>2021-04-17T10:50:37Z</time>
      </trkpt>
      <trkpt lat="-25.5505160" lon="-49.1870880">
        <ele>906.2</ele>
        <time>2021-04-17T10:50:39Z</time>
      </trkpt>
      <trkpt lat="-25.5504540" lon="-49.1869500">
        <ele>906.0</ele>
        <time>2021-04-17T10:50:41Z</time>
      </trkpt>
      <trkpt lat="-25.5503910" lon="-49.1868100">
        <ele>905.8</ele>
        <time>2021-04-17T10:50:43Z</time>
      </trkpt>
      <trkpt lat="-25.5503310" lon="-49.1866680">
        <ele>905.6</ele>
        <time>2021-04-17T10:50:45Z</time>
      </trkpt>
      <trkpt lat="-25.5503120" lon="-49.1865920">
        <ele>905.6</ele>
        <time>2021-04-17T10:50:46Z</time>
      </trkpt>
      <trkpt lat="-25.5503020" lon="-49.1865160">
        <ele>905.4</ele>
        <time>2021-04-17T10:50:47Z</time>
      </trkpt>
      <trkpt lat="-25.5502930" lon="-49.1864360">
        <ele>905.4</ele>
        <time>2021-04-17T10:50:48Z</time>
      </trkpt>
      <trkpt lat="-25.5502850" lon="-49.1863500">
        <ele>905.4</ele>
        <time>2021-04-17T10:50:49Z</time>
      </trkpt>
      <trkpt lat="-25.5502730" lon="-49.1861730">
        <ele>905.2</ele>
        <time>2021-04-17T10:50:51Z</time>
      </trkpt>
      <trkpt lat="-25.5502580" lon="-49.1859980">
        <ele>905.2</ele>
        <time>2021-04-17T10:50:53Z</time>
      </trkpt>
      <trkpt lat="-25.5502470" lon="-49.1859130">
        <ele>905.0</ele>
        <time>2021-04-17T10:50:54Z</time>
      </trkpt>
      <trkpt lat="-25.5502380" lon="-49.1858300">
        <ele>905.0</ele>
        <time>2021-04-17T10:50:55Z</time>
      </trkpt>
      <trkpt lat="-25.5502210" lon="-49.1856640">
        <ele>904.8</ele>
        <time>2021-04-17T10:50:57Z</time>
      </trkpt>
      <trkpt lat="-25.5501970" lon="-49.1854940">
        <ele>904.4</ele>
        <time>2021-04-17T10:50:59Z</time>
      </trkpt>
      <trkpt lat="-25.5501870" lon="-49.1854080">
        <ele>904.2</ele>
        <time>2021-04-17T10:51:00Z</time>
      </trkpt>
      <trkpt lat="-25.5501750" lon="-49.1853220">
        <ele>904.0</ele>
        <time>2021-04-17T10:51:01Z</time>
      </trkpt>
      <trkpt lat="-25.5501500" lon="-49.1851440">
        <ele>903.4</ele>
        <time>2021-04-17T10:51:03Z</time>
      </trkpt>
      <trkpt lat="-25.5501280" lon="-49.1849600">
        <ele>903.0</ele>
        <time>2021-04-17T10:51:05Z</time>
      </trkpt>
      <trkpt lat="-25.5501040" lon="-49.1847700">
        <ele>902.8</ele>
        <time>2021-04-17T10:51:07Z</time>
      </trkpt>
      <trkpt lat="-25.5500800" lon="-49.1845810">
        <ele>902.4</ele>
        <time>2021-04-17T10:51:09Z</time>
      </trkpt>
      <trkpt lat="-25.5500580" lon="-49.1843950">
        <ele>901.8</ele>
        <time>2021-04-17T10:51:11Z</time>
      </trkpt>
      <trkpt lat="-25.5500360" lon="-49.1842120">
        <ele>901.4</ele>
        <time>2021-04-17T10:51:13Z</time>
      </trkpt>
      <trkpt lat="-25.5500230" lon="-49.1840330">
        <ele>900.4</ele>
        <time>2021-04-17T10:51:15Z</time>
      </trkpt>
      <trkpt lat="-25.5500370" lon="-49.1838570">
        <ele>900.0</ele>
        <time>2021-04-17T10:51:17Z</time>
      </trkpt>
      <trkpt lat="-25.5500530" lon="-49.1837720">
        <ele>899.8</ele>
        <time>2021-04-17T10:51:18Z</time>
      </trkpt>
      <trkpt lat="-25.5500750" lon="-49.1836910">
        <ele>899.6</ele>
        <time>2021-04-17T10:51:19Z</time>
      </trkpt>
      <trkpt lat="-25.5501340" lon="-49.1835350">
        <ele>899.4</ele>
        <time>2021-04-17T10:51:21Z</time>
      </trkpt>
      <trkpt lat="-25.5502030" lon="-49.1833900">
        <ele>899.4</ele>
        <time>2021-04-17T10:51:23Z</time>
      </trkpt>
      <trkpt lat="-25.5502700" lon="-49.1832490">
        <ele>899.2</ele>
        <time>2021-04-17T10:51:25Z</time>
      </trkpt>
      <trkpt lat="-25.5503430" lon="-49.1831150">
        <ele>899.2</ele>
        <time>2021-04-17T10:51:27Z</time>
      </trkpt>
      <trkpt lat="-25.5504100" lon="-49.1829850">
        <ele>899.2</ele>
        <time>2021-04-17T10:51:29Z</time>
      </trkpt>
      <trkpt lat="-25.5504720" lon="-49.1828540">
        <ele>899.2</ele>
        <time>2021-04-17T10:51:31Z</time>
      </trkpt>
      <trkpt lat="-25.5505220" lon="-49.1827230">
        <ele>899.4</ele>
        <time>2021-04-17T10:51:33Z</time>
      </trkpt>
      <trkpt lat="-25.5505430" lon="-49.1826570">
        <ele>899.4</ele>
        <time>2021-04-17T10:51:34Z</time>
      </trkpt>
      <trkpt lat="-25.5505640" lon="-49.1825910">
        <ele>899.4</ele>
        <time>2021-04-17T10:51:35Z</time>
      </trkpt>
      <trkpt lat="-25.5506020" lon="-49.1824650">
        <ele>899.4</ele>
        <time>2021-04-17T10:51:37Z</time>
      </trkpt>
      <trkpt lat="-25.5506340" lon="-49.1823450">
        <ele>899.6</ele>
        <time>2021-04-17T10:51:39Z</time>
      </trkpt>
      <trkpt lat="-25.5506530" lon="-49.1822250">
        <ele>899.8</ele>
        <time>2021-04-17T10:51:41Z</time>
      </trkpt>
      <trkpt lat="-25.5506680" lon="-49.1821030">
        <ele>900.2</ele>
        <time>2021-04-17T10:51:43Z</time>
      </trkpt>
      <trkpt lat="-25.5506760" lon="-49.1819800">
        <ele>900.6</ele>
        <time>2021-04-17T10:51:45Z</time>
      </trkpt>
      <trkpt lat="-25.5506810" lon="-49.1818580">
        <ele>900.6</ele>
        <time>2021-04-17T10:51:47Z</time>
      </trkpt>
      <trkpt lat="-25.5506790" lon="-49.1817380">
        <ele>900.8</ele>
        <time>2021-04-17T10:51:49Z</time>
      </trkpt>
      <trkpt lat="-25.5506760" lon="-49.1816160">
        <ele>901.2</ele>
        <time>2021-04-17T10:51:51Z</time>
      </trkpt>
      <trkpt lat="-25.5506740" lon="-49.1814950">
        <ele>901.4</ele>
        <time>2021-04-17T10:51:53Z</time>
      </trkpt>
      <trkpt lat="-25.5506740" lon="-49.1814360">
        <ele>901.6</ele>
        <time>2021-04-17T10:51:54Z</time>
      </trkpt>
      <trkpt lat="-25.5506730" lon="-49.1813760">
        <ele>901.8</ele>
        <time>2021-04-17T10:51:55Z</time>
      </trkpt>
      <trkpt lat="-25.5506710" lon="-49.1812550">
        <ele>902.0</ele>
        <time>2021-04-17T10:51:57Z</time>
      </trkpt>
      <trkpt lat="-25.5506680" lon="-49.1811380">
        <ele>902.0</ele>
        <time>2021-04-17T10:51:59Z</time>
      </trkpt>
      <trkpt lat="-25.5506720" lon="-49.1810790">
        <ele>902.2</ele>
        <time>2021-04-17T10:52:00Z</time>
      </trkpt>
      <trkpt lat="-25.5506780" lon="-49.1810170">
        <ele>902.4</ele>
        <time>2021-04-17T10:52:01Z</time>
      </trkpt>
      <trkpt lat="-25.5506770" lon="-49.1808920">
        <ele>902.4</ele>
        <time>2021-04-17T10:52:03Z</time>
      </trkpt>
      <trkpt lat="-25.5506660" lon="-49.1807690">
        <ele>902.6</ele>
        <time>2021-04-17T10:52:05Z</time>
      </trkpt>
      <trkpt lat="-25.5506560" lon="-49.1806460">
        <ele>902.8</ele>
        <time>2021-04-17T10:52:07Z</time>
      </trkpt>
      <trkpt lat="-25.5506540" lon="-49.1805240">
        <ele>903.0</ele>
        <time>2021-04-17T10:52:09Z</time>
      </trkpt>
      <trkpt lat="-25.5506570" lon="-49.1804040">
        <ele>903.0</ele>
        <time>2021-04-17T10:52:11Z</time>
      </trkpt>
      <trkpt lat="-25.5506620" lon="-49.1803420">
        <ele>903.0</ele>
        <time>2021-04-17T10:52:12Z</time>
      </trkpt>
      <trkpt lat="-25.5506670" lon="-49.1802790">
        <ele>903.2</ele>
        <time>2021-04-17T10:52:13Z</time>
      </trkpt>
      <trkpt lat="-25.5506760" lon="-49.1801560">
        <ele>903.2</ele>
        <time>2021-04-17T10:52:15Z</time>
      </trkpt>
      <trkpt lat="-25.5506830" lon="-49.1800950">
        <ele>903.2</ele>
        <time>2021-04-17T10:52:16Z</time>
      </trkpt>
      <trkpt lat="-25.5506910" lon="-49.1800350">
        <ele>903.4</ele>
        <time>2021-04-17T10:52:17Z</time>
      </trkpt>
      <trkpt lat="-25.5507080" lon="-49.1799130">
        <ele>903.6</ele>
        <time>2021-04-17T10:52:19Z</time>
      </trkpt>
      <trkpt lat="-25.5507160" lon="-49.1798720">
        <ele>903.6</ele>
        <time>2021-04-17T10:52:20Z</time>
      </trkpt>
      <trkpt lat="-25.5507230" lon="-49.1798310">
        <ele>903.6</ele>
        <time>2021-04-17T10:52:21Z</time>
      </trkpt>
      <trkpt lat="-25.5507530" lon="-49.1796680">
        <ele>903.6</ele>
        <time>2021-04-17T10:52:23Z</time>
      </trkpt>
      <trkpt lat="-25.5507820" lon="-49.1795420">
        <ele>903.6</ele>
        <time>2021-04-17T10:52:25Z</time>
      </trkpt>
      <trkpt lat="-25.5508150" lon="-49.1794130">
        <ele>903.6</ele>
        <time>2021-04-17T10:52:27Z</time>
      </trkpt>
      <trkpt lat="-25.5508520" lon="-49.1792850">
        <ele>903.6</ele>
        <time>2021-04-17T10:52:29Z</time>
      </trkpt>
      <trkpt lat="-25.5508930" lon="-49.1791560">
        <ele>903.6</ele>
        <time>2021-04-17T10:52:31Z</time>
      </trkpt>
      <trkpt lat="-25.5509370" lon="-49.1790310">
        <ele>903.6</ele>
        <time>2021-04-17T10:52:33Z</time>
      </trkpt>
      <trkpt lat="-25.5509840" lon="-49.1789050">
        <ele>903.4</ele>
        <time>2021-04-17T10:52:35Z</time>
      </trkpt>
      <trkpt lat="-25.5510310" lon="-49.1787820">
        <ele>903.4</ele>
        <time>2021-04-17T10:52:37Z</time>
      </trkpt>
      <trkpt lat="-25.5510810" lon="-49.1786620">
        <ele>903.4</ele>
        <time>2021-04-17T10:52:39Z</time>
      </trkpt>
      <trkpt lat="-25.5511270" lon="-49.1785420">
        <ele>903.4</ele>
        <time>2021-04-17T10:52:41Z</time>
      </trkpt>
      <trkpt lat="-25.5511720" lon="-49.1784220">
        <ele>903.4</ele>
        <time>2021-04-17T10:52:43Z</time>
      </trkpt>
      <trkpt lat="-25.5512200" lon="-49.1783060">
        <ele>903.4</ele>
        <time>2021-04-17T10:52:45Z</time>
      </trkpt>
      <trkpt lat="-25.5512660" lon="-49.1781910">
        <ele>903.4</ele>
        <time>2021-04-17T10:52:47Z</time>
      </trkpt>
      <trkpt lat="-25.5513090" lon="-49.1780820">
        <ele>903.6</ele>
        <time>2021-04-17T10:52:49Z</time>
      </trkpt>
      <trkpt lat="-25.5513230" lon="-49.1780430">
        <ele>903.8</ele>
        <time>2021-04-17T10:52:50Z</time>
      </trkpt>
      <trkpt lat="-25.5513370" lon="-49.1780040">
        <ele>904.0</ele>
        <time>2021-04-17T10:52:51Z</time>
      </trkpt>
      <trkpt lat="-25.5513640" lon="-49.1779250">
        <ele>904.0</ele>
        <time>2021-04-17T10:52:52Z</time>
      </trkpt>
      <trkpt lat="-25.5513820" lon="-49.1778770">
        <ele>904.0</ele>
        <time>2021-04-17T10:52:53Z</time>
      </trkpt>
      <trkpt lat="-25.5514200" lon="-49.1777850">
        <ele>904.2</ele>
        <time>2021-04-17T10:52:55Z</time>
      </trkpt>
      <trkpt lat="-25.5514560" lon="-49.1776950">
        <ele>904.4</ele>
        <time>2021-04-17T10:52:57Z</time>
      </trkpt>
      <trkpt lat="-25.5514910" lon="-49.1776020">
        <ele>904.6</ele>
        <time>2021-04-17T10:52:59Z</time>
      </trkpt>
      <trkpt lat="-25.5515100" lon="-49.1775560">
        <ele>904.8</ele>
        <time>2021-04-17T10:53:00Z</time>
      </trkpt>
      <trkpt lat="-25.5515340" lon="-49.1775110">
        <ele>904.8</ele>
        <time>2021-04-17T10:53:01Z</time>
      </trkpt>
      <trkpt lat="-25.5515810" lon="-49.1774220">
        <ele>905.2</ele>
        <time>2021-04-17T10:53:03Z</time>
      </trkpt>
      <trkpt lat="-25.5516360" lon="-49.1773300">
        <ele>905.4</ele>
        <time>2021-04-17T10:53:05Z</time>
      </trkpt>
      <trkpt lat="-25.5516940" lon="-49.1772370">
        <ele>905.6</ele>
        <time>2021-04-17T10:53:07Z</time>
      </trkpt>
      <trkpt lat="-25.5517510" lon="-49.1771500">
        <ele>905.8</ele>
        <time>2021-04-17T10:53:09Z</time>
      </trkpt>
      <trkpt lat="-25.5517790" lon="-49.1771100">
        <ele>906.0</ele>
        <time>2021-04-17T10:53:10Z</time>
      </trkpt>
      <trkpt lat="-25.5518070" lon="-49.1770690">
        <ele>906.2</ele>
        <time>2021-04-17T10:53:11Z</time>
      </trkpt>
      <trkpt lat="-25.5518600" lon="-49.1769920">
        <ele>906.4</ele>
        <time>2021-04-17T10:53:13Z</time>
      </trkpt>
      <trkpt lat="-25.5519170" lon="-49.1769100">
        <ele>907.0</ele>
        <time>2021-04-17T10:53:15Z</time>
      </trkpt>
      <trkpt lat="-25.5519460" lon="-49.1768720">
        <ele>907.2</ele>
        <time>2021-04-17T10:53:16Z</time>
      </trkpt>
      <trkpt lat="-25.5519750" lon="-49.1768350">
        <ele>907.4</ele>
        <time>2021-04-17T10:53:17Z</time>
      </trkpt>
      <trkpt lat="-25.5520300" lon="-49.1767580">
        <ele>908.0</ele>
        <time>2021-04-17T10:53:19Z</time>
      </trkpt>
      <trkpt lat="-25.5520590" lon="-49.1767220">
        <ele>908.2</ele>
        <time>2021-04-17T10:53:20Z</time>
      </trkpt>
      <trkpt lat="-25.5520870" lon="-49.1766860">
        <ele>908.4</ele>
        <time>2021-04-17T10:53:21Z</time>
      </trkpt>
      <trkpt lat="-25.5521150" lon="-49.1766490">
        <ele>908.6</ele>
        <time>2021-04-17T10:53:22Z</time>
      </trkpt>
      <trkpt lat="-25.5521430" lon="-49.1766090">
        <ele>908.6</ele>
        <time>2021-04-17T10:53:23Z</time>
      </trkpt>
      <trkpt lat="-25.5522000" lon="-49.1765350">
        <ele>909.0</ele>
        <time>2021-04-17T10:53:25Z</time>
      </trkpt>
      <trkpt lat="-25.5522520" lon="-49.1764610">
        <ele>909.4</ele>
        <time>2021-04-17T10:53:27Z</time>
      </trkpt>
      <trkpt lat="-25.5523080" lon="-49.1763890">
        <ele>909.8</ele>
        <time>2021-04-17T10:53:29Z</time>
      </trkpt>
      <trkpt lat="-25.5523370" lon="-49.1763540">
        <ele>910.0</ele>
        <time>2021-04-17T10:53:30Z</time>
      </trkpt>
      <trkpt lat="-25.5523640" lon="-49.1763160">
        <ele>910.0</ele>
        <time>2021-04-17T10:53:31Z</time>
      </trkpt>
      <trkpt lat="-25.5524150" lon="-49.1762400">
        <ele>910.2</ele>
        <time>2021-04-17T10:53:33Z</time>
      </trkpt>
      <trkpt lat="-25.5524400" lon="-49.1762000">
        <ele>910.4</ele>
        <time>2021-04-17T10:53:34Z</time>
      </trkpt>
      <trkpt lat="-25.5524670" lon="-49.1761640">
        <ele>910.6</ele>
        <time>2021-04-17T10:53:35Z</time>
      </trkpt>
      <trkpt lat="-25.5525160" lon="-49.1760900">
        <ele>911.0</ele>
        <time>2021-04-17T10:53:37Z</time>
      </trkpt>
      <trkpt lat="-25.5525650" lon="-49.1760160">
        <ele>911.2</ele>
        <time>2021-04-17T10:53:39Z</time>
      </trkpt>
      <trkpt lat="-25.5525880" lon="-49.1759790">
        <ele>911.4</ele>
        <time>2021-04-17T10:53:40Z</time>
      </trkpt>
      <trkpt lat="-25.5526110" lon="-49.1759430">
        <ele>911.4</ele>
        <time>2021-04-17T10:53:41Z</time>
      </trkpt>
      <trkpt lat="-25.5526600" lon="-49.1758720">
        <ele>911.6</ele>
        <time>2021-04-17T10:53:43Z</time>
      </trkpt>
      <trkpt lat="-25.5527080" lon="-49.1758020">
        <ele>912.0</ele>
        <time>2021-04-17T10:53:45Z</time>
      </trkpt>
      <trkpt lat="-25.5527580" lon="-49.1757300">
        <ele>912.2</ele>
        <time>2021-04-17T10:53:47Z</time>
      </trkpt>
      <trkpt lat="-25.5527830" lon="-49.1756940">
        <ele>912.4</ele>
        <time>2021-04-17T10:53:48Z</time>
      </trkpt>
      <trkpt lat="-25.5528080" lon="-49.1756580">
        <ele>912.4</ele>
        <time>2021-04-17T10:53:49Z</time>
      </trkpt>
      <trkpt lat="-25.5528320" lon="-49.1756220">
        <ele>912.4</ele>
        <time>2021-04-17T10:53:50Z</time>
      </trkpt>
      <trkpt lat="-25.5528550" lon="-49.1755850">
        <ele>912.6</ele>
        <time>2021-04-17T10:53:51Z</time>
      </trkpt>
      <trkpt lat="-25.5529030" lon="-49.1755130">
        <ele>912.8</ele>
        <time>2021-04-17T10:53:53Z</time>
      </trkpt>
      <trkpt lat="-25.5529500" lon="-49.1754400">
        <ele>913.2</ele>
        <time>2021-04-17T10:53:55Z</time>
      </trkpt>
      <trkpt lat="-25.5529750" lon="-49.1754060">
        <ele>913.2</ele>
        <time>2021-04-17T10:53:56Z</time>
      </trkpt>
      <trkpt lat="-25.5529990" lon="-49.1753710">
        <ele>913.2</ele>
        <time>2021-04-17T10:53:57Z</time>
      </trkpt>
      <trkpt lat="-25.5530410" lon="-49.1753040">
        <ele>913.4</ele>
        <time>2021-04-17T10:53:59Z</time>
      </trkpt>
      <trkpt lat="-25.5530630" lon="-49.1752690">
        <ele>913.6</ele>
        <time>2021-04-17T10:54:00Z</time>
      </trkpt>
      <trkpt lat="-25.5530860" lon="-49.1752330">
        <ele>913.8</ele>
        <time>2021-04-17T10:54:01Z</time>
      </trkpt>
      <trkpt lat="-25.5531390" lon="-49.1751580">
        <ele>914.0</ele>
        <time>2021-04-17T10:54:03Z</time>
      </trkpt>
      <trkpt lat="-25.5531920" lon="-49.1750860">
        <ele>914.2</ele>
        <time>2021-04-17T10:54:05Z</time>
      </trkpt>
      <trkpt lat="-25.5532450" lon="-49.1750120">
        <ele>914.6</ele>
        <time>2021-04-17T10:54:07Z</time>
      </trkpt>
      <trkpt lat="-25.5532890" lon="-49.1749350">
        <ele>914.6</ele>
        <time>2021-04-17T10:54:09Z</time>
      </trkpt>
      <trkpt lat="-25.5533120" lon="-49.1748960">
        <ele>914.8</ele>
        <time>2021-04-17T10:54:10Z</time>
      </trkpt>
      <trkpt lat="-25.5533350" lon="-49.1748590">
        <ele>915.0</ele>
        <time>2021-04-17T10:54:11Z</time>
      </trkpt>
      <trkpt lat="-25.5533810" lon="-49.1747850">
        <ele>915.4</ele>
        <time>2021-04-17T10:54:13Z</time>
      </trkpt>
      <trkpt lat="-25.5534260" lon="-49.1747070">
        <ele>915.6</ele>
        <time>2021-04-17T10:54:15Z</time>
      </trkpt>
      <trkpt lat="-25.5534460" lon="-49.1746690">
        <ele>915.8</ele>
        <time>2021-04-17T10:54:16Z</time>
      </trkpt>
      <trkpt lat="-25.5534670" lon="-49.1746300">
        <ele>915.8</ele>
        <time>2021-04-17T10:54:17Z</time>
      </trkpt>
      <trkpt lat="-25.5534890" lon="-49.1745910">
        <ele>915.8</ele>
        <time>2021-04-17T10:54:18Z</time>
      </trkpt>
      <trkpt lat="-25.5535110" lon="-49.1745540">
        <ele>915.8</ele>
        <time>2021-04-17T10:54:19Z</time>
      </trkpt>
      <trkpt lat="-25.5535330" lon="-49.1745150">
        <ele>916.0</ele>
        <time>2021-04-17T10:54:20Z</time>
      </trkpt>
      <trkpt lat="-25.5535550" lon="-49.1744760">
        <ele>916.0</ele>
        <time>2021-04-17T10:54:21Z</time>
      </trkpt>
      <trkpt lat="-25.5536010" lon="-49.1743940">
        <ele>916.2</ele>
        <time>2021-04-17T10:54:23Z</time>
      </trkpt>
      <trkpt lat="-25.5536430" lon="-49.1743060">
        <ele>916.2</ele>
        <time>2021-04-17T10:54:25Z</time>
      </trkpt>
      <trkpt lat="-25.5536660" lon="-49.1742610">
        <ele>916.4</ele>
        <time>2021-04-17T10:54:26Z</time>
      </trkpt>
      <trkpt lat="-25.5536880" lon="-49.1742160">
        <ele>916.4</ele>
        <time>2021-04-17T10:54:27Z</time>
      </trkpt>
      <trkpt lat="-25.5537290" lon="-49.1741220">
        <ele>916.4</ele>
        <time>2021-04-17T10:54:29Z</time>
      </trkpt>
      <trkpt lat="-25.5537740" lon="-49.1740300">
        <ele>916.4</ele>
        <time>2021-04-17T10:54:31Z</time>
      </trkpt>
      <trkpt lat="-25.5538170" lon="-49.1739360">
        <ele>916.6</ele>
        <time>2021-04-17T10:54:33Z</time>
      </trkpt>
      <trkpt lat="-25.5538400" lon="-49.1738880">
        <ele>916.6</ele>
        <time>2021-04-17T10:54:34Z</time>
      </trkpt>
      <trkpt lat="-25.5538610" lon="-49.1738410">
        <ele>916.6</ele>
        <time>2021-04-17T10:54:35Z</time>
      </trkpt>
      <trkpt lat="-25.5539030" lon="-49.1737430">
        <ele>916.6</ele>
        <time>2021-04-17T10:54:37Z</time>
      </trkpt>
      <trkpt lat="-25.5539490" lon="-49.1736470">
        <ele>916.6</ele>
        <time>2021-04-17T10:54:39Z</time>
      </trkpt>
      <trkpt lat="-25.5539930" lon="-49.1735500">
        <ele>916.6</ele>
        <time>2021-04-17T10:54:41Z</time>
      </trkpt>
      <trkpt lat="-25.5540160" lon="-49.1735000">
        <ele>916.6</ele>
        <time>2021-04-17T10:54:42Z</time>
      </trkpt>
      <trkpt lat="-25.5540410" lon="-49.1734500">
        <ele>916.8</ele>
        <time>2021-04-17T10:54:43Z</time>
      </trkpt>
      <trkpt lat="-25.5540910" lon="-49.1733520">
        <ele>916.8</ele>
        <time>2021-04-17T10:54:45Z</time>
      </trkpt>
      <trkpt lat="-25.5541420" lon="-49.1732520">
        <ele>916.8</ele>
        <time>2021-04-17T10:54:47Z</time>
      </trkpt>
      <trkpt lat="-25.5541950" lon="-49.1731550">
        <ele>916.8</ele>
        <time>2021-04-17T10:54:49Z</time>
      </trkpt>
      <trkpt lat="-25.5542490" lon="-49.1730580">
        <ele>916.8</ele>
        <time>2021-04-17T10:54:51Z</time>
      </trkpt>
      <trkpt lat="-25.5542980" lon="-49.1729590">
        <ele>917.0</ele>
        <time>2021-04-17T10:54:53Z</time>
      </trkpt>
      <trkpt lat="-25.5543540" lon="-49.1728620">
        <ele>917.0</ele>
        <time>2021-04-17T10:54:55Z</time>
      </trkpt>
      <trkpt lat="-25.5544120" lon="-49.1727630">
        <ele>917.0</ele>
        <time>2021-04-17T10:54:57Z</time>
      </trkpt>
      <trkpt lat="-25.5544710" lon="-49.1726670">
        <ele>916.8</ele>
        <time>2021-04-17T10:54:59Z</time>
      </trkpt>
      <trkpt lat="-25.5545320" lon="-49.1725770">
        <ele>916.8</ele>
        <time>2021-04-17T10:55:01Z</time>
      </trkpt>
      <trkpt lat="-25.5545860" lon="-49.1724830">
        <ele>917.0</ele>
        <time>2021-04-17T10:55:03Z</time>
      </trkpt>
      <trkpt lat="-25.5546440" lon="-49.1723960">
        <ele>917.0</ele>
        <time>2021-04-17T10:55:05Z</time>
      </trkpt>
      <trkpt lat="-25.5547080" lon="-49.1723080">
        <ele>917.2</ele>
        <time>2021-04-17T10:55:07Z</time>
      </trkpt>
      <trkpt lat="-25.5547760" lon="-49.1722150">
        <ele>917.2</ele>
        <time>2021-04-17T10:55:09Z</time>
      </trkpt>
      <trkpt lat="-25.5548460" lon="-49.1721240">
        <ele>917.2</ele>
        <time>2021-04-17T10:55:11Z</time>
      </trkpt>
      <trkpt lat="-25.5549150" lon="-49.1720390">
        <ele>917.2</ele>
        <time>2021-04-17T10:55:13Z</time>
      </trkpt>
      <trkpt lat="-25.5549880" lon="-49.1719580">
        <ele>917.2</ele>
        <time>2021-04-17T10:55:15Z</time>
      </trkpt>
      <trkpt lat="-25.5550580" lon="-49.1718780">
        <ele>917.4</ele>
        <time>2021-04-17T10:55:17Z</time>
      </trkpt>
      <trkpt lat="-25.5551280" lon="-49.1717970">
        <ele>917.4</ele>
        <time>2021-04-17T10:55:19Z</time>
      </trkpt>
      <trkpt lat="-25.5552010" lon="-49.1717170">
        <ele>917.6</ele>
        <time>2021-04-17T10:55:21Z</time>
      </trkpt>
      <trkpt lat="-25.5552760" lon="-49.1716380">
        <ele>918.0</ele>
        <time>2021-04-17T10:55:23Z</time>
      </trkpt>
      <trkpt lat="-25.5553520" lon="-49.1715580">
        <ele>918.2</ele>
        <time>2021-04-17T10:55:25Z</time>
      </trkpt>
      <trkpt lat="-25.5554290" lon="-49.1714760">
        <ele>918.2</ele>
        <time>2021-04-17T10:55:27Z</time>
      </trkpt>
      <trkpt lat="-25.5555100" lon="-49.1713950">
        <ele>918.2</ele>
        <time>2021-04-17T10:55:29Z</time>
      </trkpt>
      <trkpt lat="-25.5555870" lon="-49.1713140">
        <ele>918.4</ele>
        <time>2021-04-17T10:55:31Z</time>
      </trkpt>
      <trkpt lat="-25.5556640" lon="-49.1712340">
        <ele>918.6</ele>
        <time>2021-04-17T10:55:33Z</time>
      </trkpt>
      <trkpt lat="-25.5557440" lon="-49.1711530">
        <ele>918.6</ele>
        <time>2021-04-17T10:55:35Z</time>
      </trkpt>
      <trkpt lat="-25.5557830" lon="-49.1711120">
        <ele>918.8</ele>
        <time>2021-04-17T10:55:36Z</time>
      </trkpt>
      <trkpt lat="-25.5558230" lon="-49.1710710">
        <ele>918.8</ele>
        <time>2021-04-17T10:55:37Z</time>
      </trkpt>
      <trkpt lat="-25.5559030" lon="-49.1709900">
        <ele>918.8</ele>
        <time>2021-04-17T10:55:39Z</time>
      </trkpt>
      <trkpt lat="-25.5559840" lon="-49.1709080">
        <ele>919.2</ele>
        <time>2021-04-17T10:55:41Z</time>
      </trkpt>
      <trkpt lat="-25.5560640" lon="-49.1708270">
        <ele>919.4</ele>
        <time>2021-04-17T10:55:43Z</time>
      </trkpt>
      <trkpt lat="-25.5561450" lon="-49.1707450">
        <ele>919.6</ele>
        <time>2021-04-17T10:55:45Z</time>
      </trkpt>
      <trkpt lat="-25.5562270" lon="-49.1706630">
        <ele>919.8</ele>
        <time>2021-04-17T10:55:47Z</time>
      </trkpt>
      <trkpt lat="-25.5562670" lon="-49.1706220">
        <ele>919.8</ele>
        <time>2021-04-17T10:55:48Z</time>
      </trkpt>
      <trkpt lat="-25.5563080" lon="-49.1705840">
        <ele>919.8</ele>
        <time>2021-04-17T10:55:49Z</time>
      </trkpt>
      <trkpt lat="-25.5563880" lon="-49.1705070">
        <ele>920.0</ele>
        <time>2021-04-17T10:55:51Z</time>
      </trkpt>
      <trkpt lat="-25.5564660" lon="-49.1704210">
        <ele>920.2</ele>
        <time>2021-04-17T10:55:53Z</time>
      </trkpt>
      <trkpt lat="-25.5565070" lon="-49.1703780">
        <ele>920.2</ele>
        <time>2021-04-17T10:55:54Z</time>
      </trkpt>
      <trkpt lat="-25.5565480" lon="-49.1703340">
        <ele>920.4</ele>
        <time>2021-04-17T10:55:55Z</time>
      </trkpt>
      <trkpt lat="-25.5566320" lon="-49.1702500">
        <ele>920.6</ele>
        <time>2021-04-17T10:55:57Z</time>
      </trkpt>
      <trkpt lat="-25.5567150" lon="-49.1701670">
        <ele>920.8</ele>
        <time>2021-04-17T10:55:59Z</time>
      </trkpt>
      <trkpt lat="-25.5567980" lon="-49.1700840">
        <ele>921.0</ele>
        <time>2021-04-17T10:56:01Z</time>
      </trkpt>
      <trkpt lat="-25.5568810" lon="-49.1699970">
        <ele>921.2</ele>
        <time>2021-04-17T10:56:03Z</time>
      </trkpt>
      <trkpt lat="-25.5569640" lon="-49.1699080">
        <ele>921.2</ele>
        <time>2021-04-17T10:56:05Z</time>
      </trkpt>
      <trkpt lat="-25.5570490" lon="-49.1698200">
        <ele>921.2</ele>
        <time>2021-04-17T10:56:07Z</time>
      </trkpt>
      <trkpt lat="-25.5570780" lon="-49.1697910">
        <ele>921.2</ele>
        <time>2021-04-17T10:56:08Z</time>
      </trkpt>
      <trkpt lat="-25.5571060" lon="-49.1697620">
        <ele>921.4</ele>
        <time>2021-04-17T10:56:09Z</time>
      </trkpt>
      <trkpt lat="-25.5572210" lon="-49.1696450">
        <ele>921.4</ele>
        <time>2021-04-17T10:56:11Z</time>
      </trkpt>
      <trkpt lat="-25.5573080" lon="-49.1695550">
        <ele>921.6</ele>
        <time>2021-04-17T10:56:13Z</time>
      </trkpt>
      <trkpt lat="-25.5573930" lon="-49.1694630">
        <ele>921.8</ele>
        <time>2021-04-17T10:56:15Z</time>
      </trkpt>
      <trkpt lat="-25.5574780" lon="-49.1693720">
        <ele>921.8</ele>
        <time>2021-04-17T10:56:17Z</time>
      </trkpt>
      <trkpt lat="-25.5575210" lon="-49.1693270">
        <ele>921.8</ele>
        <time>2021-04-17T10:56:18Z</time>
      </trkpt>
      <trkpt lat="-25.5575620" lon="-49.1692780">
        <ele>922.0</ele>
        <time>2021-04-17T10:56:19Z</time>
      </trkpt>
      <trkpt lat="-25.5576450" lon="-49.1691830">
        <ele>922.0</ele>
        <time>2021-04-17T10:56:21Z</time>
      </trkpt>
      <trkpt lat="-25.5577260" lon="-49.1690900">
        <ele>922.0</ele>
        <time>2021-04-17T10:56:23Z</time>
      </trkpt>
      <trkpt lat="-25.5578030" lon="-49.1689940">
        <ele>922.2</ele>
        <time>2021-04-17T10:56:25Z</time>
      </trkpt>
      <trkpt lat="-25.5578810" lon="-49.1688970">
        <ele>922.4</ele>
        <time>2021-04-17T10:56:27Z</time>
      </trkpt>
      <trkpt lat="-25.5579570" lon="-49.1688030">
        <ele>922.6</ele>
        <time>2021-04-17T10:56:29Z</time>
      </trkpt>
      <trkpt lat="-25.5580340" lon="-49.1687090">
        <ele>923.0</ele>
        <time>2021-04-17T10:56:31Z</time>
      </trkpt>
      <trkpt lat="-25.5581090" lon="-49.1686120">
        <ele>923.2</ele>
        <time>2021-04-17T10:56:33Z</time>
      </trkpt>
      <trkpt lat="-25.5581810" lon="-49.1685180">
        <ele>923.2</ele>
        <time>2021-04-17T10:56:35Z</time>
      </trkpt>
      <trkpt lat="-25.5582550" lon="-49.1684310">
        <ele>923.4</ele>
        <time>2021-04-17T10:56:37Z</time>
      </trkpt>
      <trkpt lat="-25.5582800" lon="-49.1683990">
        <ele>923.4</ele>
        <time>2021-04-17T10:56:38Z</time>
      </trkpt>
      <trkpt lat="-25.5583050" lon="-49.1683660">
        <ele>923.4</ele>
        <time>2021-04-17T10:56:39Z</time>
      </trkpt>
      <trkpt lat="-25.5584050" lon="-49.1682370">
        <ele>923.4</ele>
        <time>2021-04-17T10:56:41Z</time>
      </trkpt>
      <trkpt lat="-25.5584840" lon="-49.1681410">
        <ele>923.4</ele>
        <time>2021-04-17T10:56:43Z</time>
      </trkpt>
      <trkpt lat="-25.5585630" lon="-49.1680450">
        <ele>923.4</ele>
        <time>2021-04-17T10:56:45Z</time>
      </trkpt>
      <trkpt lat="-25.5586000" lon="-49.1679960">
        <ele>923.4</ele>
        <time>2021-04-17T10:56:46Z</time>
      </trkpt>
      <trkpt lat="-25.5586370" lon="-49.1679480">
        <ele>923.6</ele>
        <time>2021-04-17T10:56:47Z</time>
      </trkpt>
      <trkpt lat="-25.5587110" lon="-49.1678540">
        <ele>923.6</ele>
        <time>2021-04-17T10:56:49Z</time>
      </trkpt>
      <trkpt lat="-25.5587910" lon="-49.1677630">
        <ele>923.6</ele>
        <time>2021-04-17T10:56:51Z</time>
      </trkpt>
      <trkpt lat="-25.5588680" lon="-49.1676710">
        <ele>923.6</ele>
        <time>2021-04-17T10:56:53Z</time>
      </trkpt>
      <trkpt lat="-25.5589070" lon="-49.1676250">
        <ele>923.6</ele>
        <time>2021-04-17T10:56:54Z</time>
      </trkpt>
      <trkpt lat="-25.5589460" lon="-49.1675780">
        <ele>923.6</ele>
        <time>2021-04-17T10:56:55Z</time>
      </trkpt>
      <trkpt lat="-25.5590220" lon="-49.1674820">
        <ele>923.8</ele>
        <time>2021-04-17T10:56:57Z</time>
      </trkpt>
      <trkpt lat="-25.5591000" lon="-49.1673880">
        <ele>923.8</ele>
        <time>2021-04-17T10:56:59Z</time>
      </trkpt>
      <trkpt lat="-25.5591750" lon="-49.1672890">
        <ele>923.8</ele>
        <time>2021-04-17T10:57:01Z</time>
      </trkpt>
      <trkpt lat="-25.5592530" lon="-49.1671930">
        <ele>924.0</ele>
        <time>2021-04-17T10:57:03Z</time>
      </trkpt>
      <trkpt lat="-25.5593300" lon="-49.1670950">
        <ele>924.0</ele>
        <time>2021-04-17T10:57:05Z</time>
      </trkpt>
      <trkpt lat="-25.5594080" lon="-49.1670000">
        <ele>924.0</ele>
        <time>2021-04-17T10:57:07Z</time>
      </trkpt>
      <trkpt lat="-25.5594850" lon="-49.1669030">
        <ele>924.0</ele>
        <time>2021-04-17T10:57:09Z</time>
      </trkpt>
      <trkpt lat="-25.5595600" lon="-49.1668070">
        <ele>924.0</ele>
        <time>2021-04-17T10:57:11Z</time>
      </trkpt>
      <trkpt lat="-25.5596340" lon="-49.1667110">
        <ele>924.0</ele>
        <time>2021-04-17T10:57:13Z</time>
      </trkpt>
      <trkpt lat="-25.5597040" lon="-49.1666150">
        <ele>924.2</ele>
        <time>2021-04-17T10:57:15Z</time>
      </trkpt>
      <trkpt lat="-25.5597750" lon="-49.1665220">
        <ele>924.2</ele>
        <time>2021-04-17T10:57:17Z</time>
      </trkpt>
      <trkpt lat="-25.5598460" lon="-49.1664290">
        <ele>924.4</ele>
        <time>2021-04-17T10:57:19Z</time>
      </trkpt>
      <trkpt lat="-25.5599120" lon="-49.1663340">
        <ele>924.6</ele>
        <time>2021-04-17T10:57:21Z</time>
      </trkpt>
      <trkpt lat="-25.5599780" lon="-49.1662410">
        <ele>924.8</ele>
        <time>2021-04-17T10:57:23Z</time>
      </trkpt>
      <trkpt lat="-25.5600110" lon="-49.1661930">
        <ele>924.8</ele>
        <time>2021-04-17T10:57:24Z</time>
      </trkpt>
      <trkpt lat="-25.5600450" lon="-49.1661460">
        <ele>924.8</ele>
        <time>2021-04-17T10:57:25Z</time>
      </trkpt>
      <trkpt lat="-25.5601120" lon="-49.1660540">
        <ele>925.0</ele>
        <time>2021-04-17T10:57:27Z</time>
      </trkpt>
      <trkpt lat="-25.5601780" lon="-49.1659570">
        <ele>925.4</ele>
        <time>2021-04-17T10:57:29Z</time>
      </trkpt>
      <trkpt lat="-25.5602450" lon="-49.1658610">
        <ele>925.6</ele>
        <time>2021-04-17T10:57:31Z</time>
      </trkpt>
      <trkpt lat="-25.5603130" lon="-49.1657650">
        <ele>925.8</ele>
        <time>2021-04-17T10:57:33Z</time>
      </trkpt>
      <trkpt lat="-25.5603800" lon="-49.1656680">
        <ele>926.0</ele>
        <time>2021-04-17T10:57:35Z</time>
      </trkpt>
      <trkpt lat="-25.5604130" lon="-49.1656190">
        <ele>926.0</ele>
        <time>2021-04-17T10:57:36Z</time>
      </trkpt>
      <trkpt lat="-25.5604470" lon="-49.1655700">
        <ele>926.2</ele>
        <time>2021-04-17T10:57:37Z</time>
      </trkpt>
      <trkpt lat="-25.5605140" lon="-49.1654700">
        <ele>926.2</ele>
        <time>2021-04-17T10:57:39Z</time>
      </trkpt>
      <trkpt lat="-25.5605480" lon="-49.1654210">
        <ele>926.2</ele>
        <time>2021-04-17T10:57:41Z</time>
      </trkpt>
      <trkpt lat="-25.5606500" lon="-49.1652750">
        <ele>926.2</ele>
        <time>2021-04-17T10:57:43Z</time>
      </trkpt>
      <trkpt lat="-25.5607170" lon="-49.1651790">
        <ele>926.4</ele>
        <time>2021-04-17T10:57:45Z</time>
      </trkpt>
      <trkpt lat="-25.5607840" lon="-49.1650870">
        <ele>926.4</ele>
        <time>2021-04-17T10:57:47Z</time>
      </trkpt>
      <trkpt lat="-25.5608420" lon="-49.1649860">
        <ele>926.4</ele>
        <time>2021-04-17T10:57:49Z</time>
      </trkpt>
      <trkpt lat="-25.5608750" lon="-49.1649380">
        <ele>926.4</ele>
        <time>2021-04-17T10:57:51Z</time>
      </trkpt>
      <trkpt lat="-25.5609760" lon="-49.1647980">
        <ele>926.4</ele>
        <time>2021-04-17T10:57:53Z</time>
      </trkpt>
      <trkpt lat="-25.5610420" lon="-49.1647020">
        <ele>926.6</ele>
        <time>2021-04-17T10:57:55Z</time>
      </trkpt>
      <trkpt lat="-25.5610770" lon="-49.1646550">
        <ele>926.6</ele>
        <time>2021-04-17T10:57:57Z</time>
      </trkpt>
      <trkpt lat="-25.5611470" lon="-49.1645620">
        <ele>926.8</ele>
        <time>2021-04-17T10:57:59Z</time>
      </trkpt>
      <trkpt lat="-25.5612460" lon="-49.1644160">
        <ele>926.8</ele>
        <time>2021-04-17T10:58:01Z</time>
      </trkpt>
      <trkpt lat="-25.5612820" lon="-49.1643690">
        <ele>927.0</ele>
        <time>2021-04-17T10:58:03Z</time>
      </trkpt>
      <trkpt lat="-25.5613520" lon="-49.1642730">
        <ele>927.2</ele>
        <time>2021-04-17T10:58:04Z</time>
      </trkpt>
      <trkpt lat="-25.5613860" lon="-49.1642250">
        <ele>927.2</ele>
        <time>2021-04-17T10:58:05Z</time>
      </trkpt>
      <trkpt lat="-25.5614560" lon="-49.1641290">
        <ele>927.4</ele>
        <time>2021-04-17T10:58:07Z</time>
      </trkpt>
      <trkpt lat="-25.5615230" lon="-49.1640340">
        <ele>927.4</ele>
        <time>2021-04-17T10:58:09Z</time>
      </trkpt>
      <trkpt lat="-25.5615900" lon="-49.1639400">
        <ele>927.4</ele>
        <time>2021-04-17T10:58:11Z</time>
      </trkpt>
      <trkpt lat="-25.5616230" lon="-49.1638930">
        <ele>927.6</ele>
        <time>2021-04-17T10:58:13Z</time>
      </trkpt>
      <trkpt lat="-25.5617200" lon="-49.1637510">
        <ele>927.6</ele>
        <time>2021-04-17T10:58:15Z</time>
      </trkpt>
      <trkpt lat="-25.5617840" lon="-49.1636550">
        <ele>927.6</ele>
        <time>2021-04-17T10:58:17Z</time>
      </trkpt>
      <trkpt lat="-25.5618470" lon="-49.1635590">
        <ele>927.6</ele>
        <time>2021-04-17T10:58:19Z</time>
      </trkpt>
      <trkpt lat="-25.5619140" lon="-49.1634670">
        <ele>927.6</ele>
        <time>2021-04-17T10:58:21Z</time>
      </trkpt>
      <trkpt lat="-25.5619830" lon="-49.1633780">
        <ele>927.6</ele>
        <time>2021-04-17T10:58:23Z</time>
      </trkpt>
      <trkpt lat="-25.5620260" lon="-49.1633440">
        <ele>927.6</ele>
        <time>2021-04-17T10:58:24Z</time>
      </trkpt>
      <trkpt lat="-25.5620760" lon="-49.1633240">
        <ele>927.6</ele>
        <time>2021-04-17T10:58:25Z</time>
      </trkpt>
      <trkpt lat="-25.5621260" lon="-49.1633100">
        <ele>927.6</ele>
        <time>2021-04-17T10:58:27Z</time>
      </trkpt>
      <trkpt lat="-25.5622200" lon="-49.1632630">
        <ele>927.6</ele>
        <time>2021-04-17T10:58:28Z</time>
      </trkpt>
      <trkpt lat="-25.5622360" lon="-49.1632410">
        <ele>927.6</ele>
        <time>2021-04-17T10:58:29Z</time>
      </trkpt>
      <trkpt lat="-25.5622520" lon="-49.1632190">
        <ele>927.6</ele>
        <time>2021-04-17T10:58:30Z</time>
      </trkpt>
      <trkpt lat="-25.5622940" lon="-49.1631470">
        <ele>927.6</ele>
        <time>2021-04-17T10:58:31Z</time>
      </trkpt>
      <trkpt lat="-25.5623030" lon="-49.1631190">
        <ele>927.6</ele>
        <time>2021-04-17T10:58:32Z</time>
      </trkpt>
      <trkpt lat="-25.5623160" lon="-49.1630630">
        <ele>927.8</ele>
        <time>2021-04-17T10:58:33Z</time>
      </trkpt>
      <trkpt lat="-25.5623490" lon="-49.1629500">
        <ele>927.8</ele>
        <time>2021-04-17T10:58:34Z</time>
      </trkpt>
      <trkpt lat="-25.5623610" lon="-49.1629230">
        <ele>927.8</ele>
        <time>2021-04-17T10:58:35Z</time>
      </trkpt>
      <trkpt lat="-25.5623730" lon="-49.1628950">
        <ele>927.8</ele>
        <time>2021-04-17T10:58:36Z</time>
      </trkpt>
      <trkpt lat="-25.5624120" lon="-49.1628140">
        <ele>927.8</ele>
        <time>2021-04-17T10:58:37Z</time>
      </trkpt>
      <trkpt lat="-25.5624270" lon="-49.1627880">
        <ele>928.0</ele>
        <time>2021-04-17T10:58:38Z</time>
      </trkpt>
      <trkpt lat="-25.5624600" lon="-49.1627390">
        <ele>928.0</ele>
        <time>2021-04-17T10:58:39Z</time>
      </trkpt>
      <trkpt lat="-25.5625270" lon="-49.1626420">
        <ele>928.0</ele>
        <time>2021-04-17T10:58:41Z</time>
      </trkpt>
      <trkpt lat="-25.5626250" lon="-49.1625000">
        <ele>928.0</ele>
        <time>2021-04-17T10:58:43Z</time>
      </trkpt>
      <trkpt lat="-25.5626920" lon="-49.1624040">
        <ele>928.0</ele>
        <time>2021-04-17T10:58:45Z</time>
      </trkpt>
      <trkpt lat="-25.5627600" lon="-49.1623080">
        <ele>928.0</ele>
        <time>2021-04-17T10:58:47Z</time>
      </trkpt>
      <trkpt lat="-25.5627930" lon="-49.1622600">
        <ele>928.0</ele>
        <time>2021-04-17T10:58:49Z</time>
      </trkpt>
      <trkpt lat="-25.5628910" lon="-49.1621210">
        <ele>928.0</ele>
        <time>2021-04-17T10:58:51Z</time>
      </trkpt>
      <trkpt lat="-25.5629590" lon="-49.1620310">
        <ele>927.8</ele>
        <time>2021-04-17T10:58:53Z</time>
      </trkpt>
      <trkpt lat="-25.5630240" lon="-49.1619410">
        <ele>927.8</ele>
        <time>2021-04-17T10:58:55Z</time>
      </trkpt>
      <trkpt lat="-25.5630820" lon="-49.1618510">
        <ele>927.8</ele>
        <time>2021-04-17T10:58:57Z</time>
      </trkpt>
      <trkpt lat="-25.5631360" lon="-49.1617660">
        <ele>927.6</ele>
        <time>2021-04-17T10:58:59Z</time>
      </trkpt>
      <trkpt lat="-25.5631930" lon="-49.1616850">
        <ele>927.4</ele>
        <time>2021-04-17T10:59:01Z</time>
      </trkpt>
      <trkpt lat="-25.5632530" lon="-49.1616010">
        <ele>927.4</ele>
        <time>2021-04-17T10:59:03Z</time>
      </trkpt>
      <trkpt lat="-25.5633160" lon="-49.1615110">
        <ele>927.4</ele>
        <time>2021-04-17T10:59:05Z</time>
      </trkpt>
      <trkpt lat="-25.5633800" lon="-49.1614200">
        <ele>927.4</ele>
        <time>2021-04-17T10:59:07Z</time>
      </trkpt>
      <trkpt lat="-25.5634040" lon="-49.1613910">
        <ele>927.4</ele>
        <time>2021-04-17T10:59:08Z</time>
      </trkpt>
      <trkpt lat="-25.5634270" lon="-49.1613610">
        <ele>927.4</ele>
        <time>2021-04-17T10:59:09Z</time>
      </trkpt>
      <trkpt lat="-25.5635200" lon="-49.1612430">
        <ele>927.4</ele>
        <time>2021-04-17T10:59:11Z</time>
      </trkpt>
      <trkpt lat="-25.5635830" lon="-49.1611510">
        <ele>927.6</ele>
        <time>2021-04-17T10:59:13Z</time>
      </trkpt>
      <trkpt lat="-25.5636460" lon="-49.1610590">
        <ele>927.6</ele>
        <time>2021-04-17T10:59:15Z</time>
      </trkpt>
      <trkpt lat="-25.5637140" lon="-49.1609710">
        <ele>927.6</ele>
        <time>2021-04-17T10:59:17Z</time>
      </trkpt>
      <trkpt lat="-25.5637770" lon="-49.1608780">
        <ele>927.6</ele>
        <time>2021-04-17T10:59:19Z</time>
      </trkpt>
      <trkpt lat="-25.5638420" lon="-49.1607840">
        <ele>927.6</ele>
        <time>2021-04-17T10:59:21Z</time>
      </trkpt>
      <trkpt lat="-25.5639100" lon="-49.1606950">
        <ele>927.6</ele>
        <time>2021-04-17T10:59:23Z</time>
      </trkpt>
      <trkpt lat="-25.5639740" lon="-49.1606030">
        <ele>927.6</ele>
        <time>2021-04-17T10:59:25Z</time>
      </trkpt>
      <trkpt lat="-25.5640370" lon="-49.1605080">
        <ele>927.6</ele>
        <time>2021-04-17T10:59:27Z</time>
      </trkpt>
      <trkpt lat="-25.5640960" lon="-49.1604130">
        <ele>927.6</ele>
        <time>2021-04-17T10:59:29Z</time>
      </trkpt>
      <trkpt lat="-25.5641540" lon="-49.1603170">
        <ele>927.4</ele>
        <time>2021-04-17T10:59:31Z</time>
      </trkpt>
      <trkpt lat="-25.5641840" lon="-49.1602690">
        <ele>927.4</ele>
        <time>2021-04-17T10:59:33Z</time>
      </trkpt>
      <trkpt lat="-25.5642560" lon="-49.1601820">
        <ele>927.4</ele>
        <time>2021-04-17T10:59:34Z</time>
      </trkpt>
      <trkpt lat="-25.5642920" lon="-49.1601400">
        <ele>927.4</ele>
        <time>2021-04-17T10:59:35Z</time>
      </trkpt>
      <trkpt lat="-25.5643600" lon="-49.1600490">
        <ele>927.4</ele>
        <time>2021-04-17T10:59:37Z</time>
      </trkpt>
      <trkpt lat="-25.5644320" lon="-49.1599580">
        <ele>927.4</ele>
        <time>2021-04-17T10:59:39Z</time>
      </trkpt>
      <trkpt lat="-25.5645170" lon="-49.1598710">
        <ele>927.4</ele>
        <time>2021-04-17T10:59:41Z</time>
      </trkpt>
      <trkpt lat="-25.5645670" lon="-49.1598300">
        <ele>927.4</ele>
        <time>2021-04-17T10:59:42Z</time>
      </trkpt>
      <trkpt lat="-25.5645950" lon="-49.1598120">
        <ele>927.4</ele>
        <time>2021-04-17T10:59:43Z</time>
      </trkpt>
      <trkpt lat="-25.5646230" lon="-49.1597940">
        <ele>927.4</ele>
        <time>2021-04-17T10:59:44Z</time>
      </trkpt>
      <trkpt lat="-25.5647490" lon="-49.1597270">
        <ele>927.4</ele>
        <time>2021-04-17T10:59:45Z</time>
      </trkpt>
      <trkpt lat="-25.5648890" lon="-49.1596670">
        <ele>927.4</ele>
        <time>2021-04-17T10:59:47Z</time>
      </trkpt>
      <trkpt lat="-25.5650310" lon="-49.1596100">
        <ele>927.0</ele>
        <time>2021-04-17T10:59:49Z</time>
      </trkpt>
      <trkpt lat="-25.5651710" lon="-49.1595560">
        <ele>926.6</ele>
        <time>2021-04-17T10:59:51Z</time>
      </trkpt>
      <trkpt lat="-25.5653030" lon="-49.1594910">
        <ele>926.4</ele>
        <time>2021-04-17T10:59:53Z</time>
      </trkpt>
      <trkpt lat="-25.5653660" lon="-49.1594540">
        <ele>925.8</ele>
        <time>2021-04-17T10:59:54Z</time>
      </trkpt>
      <trkpt lat="-25.5654270" lon="-49.1594090">
        <ele>925.2</ele>
        <time>2021-04-17T10:59:55Z</time>
      </trkpt>
      <trkpt lat="-25.5654610" lon="-49.1593750">
        <ele>924.8</ele>
        <time>2021-04-17T10:59:56Z</time>
      </trkpt>
      <trkpt lat="-25.5654950" lon="-49.1593400">
        <ele>924.4</ele>
        <time>2021-04-17T10:59:57Z</time>
      </trkpt>
      <trkpt lat="-25.5656300" lon="-49.1592030">
        <ele>924.0</ele>
        <time>2021-04-17T10:59:59Z</time>
      </trkpt>
      <trkpt lat="-25.5657040" lon="-49.1590910">
        <ele>924.0</ele>
        <time>2021-04-17T11:00:01Z</time>
      </trkpt>
      <trkpt lat="-25.5657600" lon="-49.1589810">
        <ele>923.8</ele>
        <time>2021-04-17T11:00:03Z</time>
      </trkpt>
      <trkpt lat="-25.5657810" lon="-49.1589260">
        <ele>923.8</ele>
        <time>2021-04-17T11:00:04Z</time>
      </trkpt>
      <trkpt lat="-25.5658010" lon="-49.1588690">
        <ele>923.8</ele>
        <time>2021-04-17T11:00:05Z</time>
      </trkpt>
      <trkpt lat="-25.5658190" lon="-49.1588150">
        <ele>923.8</ele>
        <time>2021-04-17T11:00:07Z</time>
      </trkpt>
      <trkpt lat="-25.5658320" lon="-49.1587600">
        <ele>923.8</ele>
        <time>2021-04-17T11:00:08Z</time>
      </trkpt>
      <trkpt lat="-25.5658470" lon="-49.1586530">
        <ele>924.0</ele>
        <time>2021-04-17T11:00:09Z</time>
      </trkpt>
      <trkpt lat="-25.5658500" lon="-49.1586020">
        <ele>924.0</ele>
        <time>2021-04-17T11:00:10Z</time>
      </trkpt>
      <trkpt lat="-25.5658450" lon="-49.1585500">
        <ele>924.2</ele>
        <time>2021-04-17T11:00:11Z</time>
      </trkpt>
      <trkpt lat="-25.5658390" lon="-49.1584980">
        <ele>924.4</ele>
        <time>2021-04-17T11:00:12Z</time>
      </trkpt>
      <trkpt lat="-25.5658280" lon="-49.1584440">
        <ele>924.4</ele>
        <time>2021-04-17T11:00:13Z</time>
      </trkpt>
      <trkpt lat="-25.5658140" lon="-49.1583360">
        <ele>924.6</ele>
        <time>2021-04-17T11:00:15Z</time>
      </trkpt>
      <trkpt lat="-25.5658110" lon="-49.1582830">
        <ele>924.8</ele>
        <time>2021-04-17T11:00:16Z</time>
      </trkpt>
      <trkpt lat="-25.5658090" lon="-49.1582310">
        <ele>924.8</ele>
        <time>2021-04-17T11:00:17Z</time>
      </trkpt>
      <trkpt lat="-25.5658110" lon="-49.1581820">
        <ele>925.0</ele>
        <time>2021-04-17T11:00:19Z</time>
      </trkpt>
      <trkpt lat="-25.5658170" lon="-49.1581330">
        <ele>925.2</ele>
        <time>2021-04-17T11:00:20Z</time>
      </trkpt>
      <trkpt lat="-25.5658270" lon="-49.1580850">
        <ele>925.4</ele>
        <time>2021-04-17T11:00:21Z</time>
      </trkpt>
      <trkpt lat="-25.5658620" lon="-49.1579910">
        <ele>925.4</ele>
        <time>2021-04-17T11:00:22Z</time>
      </trkpt>
      <trkpt lat="-25.5658830" lon="-49.1579420">
        <ele>925.4</ele>
        <time>2021-04-17T11:00:23Z</time>
      </trkpt>
      <trkpt lat="-25.5659040" lon="-49.1578920">
        <ele>925.6</ele>
        <time>2021-04-17T11:00:25Z</time>
      </trkpt>
      <trkpt lat="-25.5659280" lon="-49.1578430">
        <ele>925.8</ele>
        <time>2021-04-17T11:00:26Z</time>
      </trkpt>
      <trkpt lat="-25.5659550" lon="-49.1577990">
        <ele>926.0</ele>
        <time>2021-04-17T11:00:27Z</time>
      </trkpt>
      <trkpt lat="-25.5660160" lon="-49.1577080">
        <ele>926.2</ele>
        <time>2021-04-17T11:00:28Z</time>
      </trkpt>
      <trkpt lat="-25.5660680" lon="-49.1576370">
        <ele>926.4</ele>
        <time>2021-04-17T11:00:29Z</time>
      </trkpt>
      <trkpt lat="-25.5661190" lon="-49.1575660">
        <ele>926.8</ele>
        <time>2021-04-17T11:00:31Z</time>
      </trkpt>
      <trkpt lat="-25.5661370" lon="-49.1575410">
        <ele>927.0</ele>
        <time>2021-04-17T11:00:32Z</time>
      </trkpt>
      <trkpt lat="-25.5661550" lon="-49.1575160">
        <ele>927.0</ele>
        <time>2021-04-17T11:00:33Z</time>
      </trkpt>
      <trkpt lat="-25.5662570" lon="-49.1573580">
        <ele>927.2</ele>
        <time>2021-04-17T11:00:35Z</time>
      </trkpt>
      <trkpt lat="-25.5662950" lon="-49.1573070">
        <ele>927.2</ele>
        <time>2021-04-17T11:00:36Z</time>
      </trkpt>
      <trkpt lat="-25.5663340" lon="-49.1572580">
        <ele>927.2</ele>
        <time>2021-04-17T11:00:37Z</time>
      </trkpt>
      <trkpt lat="-25.5664120" lon="-49.1571590">
        <ele>927.2</ele>
        <time>2021-04-17T11:00:39Z</time>
      </trkpt>
      <trkpt lat="-25.5664950" lon="-49.1570630">
        <ele>927.2</ele>
        <time>2021-04-17T11:00:41Z</time>
      </trkpt>
      <trkpt lat="-25.5665730" lon="-49.1569680">
        <ele>927.2</ele>
        <time>2021-04-17T11:00:43Z</time>
      </trkpt>
      <trkpt lat="-25.5666500" lon="-49.1568720">
        <ele>927.2</ele>
        <time>2021-04-17T11:00:45Z</time>
      </trkpt>
      <trkpt lat="-25.5667310" lon="-49.1567810">
        <ele>926.8</ele>
        <time>2021-04-17T11:00:47Z</time>
      </trkpt>
      <trkpt lat="-25.5667700" lon="-49.1567320">
        <ele>926.8</ele>
        <time>2021-04-17T11:00:49Z</time>
      </trkpt>
      <trkpt lat="-25.5668910" lon="-49.1565920">
        <ele>926.6</ele>
        <time>2021-04-17T11:00:51Z</time>
      </trkpt>
      <trkpt lat="-25.5669700" lon="-49.1565000">
        <ele>926.6</ele>
        <time>2021-04-17T11:00:53Z</time>
      </trkpt>
      <trkpt lat="-25.5670490" lon="-49.1564120">
        <ele>926.4</ele>
        <time>2021-04-17T11:00:55Z</time>
      </trkpt>
      <trkpt lat="-25.5671130" lon="-49.1563200">
        <ele>926.4</ele>
        <time>2021-04-17T11:00:57Z</time>
      </trkpt>
      <trkpt lat="-25.5671720" lon="-49.1562360">
        <ele>926.4</ele>
        <time>2021-04-17T11:00:59Z</time>
      </trkpt>
      <trkpt lat="-25.5672380" lon="-49.1561620">
        <ele>926.4</ele>
        <time>2021-04-17T11:01:01Z</time>
      </trkpt>
      <trkpt lat="-25.5673100" lon="-49.1560930">
        <ele>926.4</ele>
        <time>2021-04-17T11:01:03Z</time>
      </trkpt>
      <trkpt lat="-25.5673810" lon="-49.1560170">
        <ele>926.4</ele>
        <time>2021-04-17T11:01:05Z</time>
      </trkpt>
      <trkpt lat="-25.5674160" lon="-49.1559800">
        <ele>926.4</ele>
        <time>2021-04-17T11:01:06Z</time>
      </trkpt>
      <trkpt lat="-25.5674510" lon="-49.1559430">
        <ele>926.4</ele>
        <time>2021-04-17T11:01:07Z</time>
      </trkpt>
      <trkpt lat="-25.5675150" lon="-49.1558690">
        <ele>926.2</ele>
        <time>2021-04-17T11:01:09Z</time>
      </trkpt>
      <trkpt lat="-25.5675800" lon="-49.1557970">
        <ele>926.2</ele>
        <time>2021-04-17T11:01:11Z</time>
      </trkpt>
      <trkpt lat="-25.5676440" lon="-49.1557220">
        <ele>926.2</ele>
        <time>2021-04-17T11:01:13Z</time>
      </trkpt>
      <trkpt lat="-25.5677110" lon="-49.1556430">
        <ele>926.2</ele>
        <time>2021-04-17T11:01:15Z</time>
      </trkpt>
      <trkpt lat="-25.5677460" lon="-49.1556030">
        <ele>926.2</ele>
        <time>2021-04-17T11:01:16Z</time>
      </trkpt>
      <trkpt lat="-25.5677810" lon="-49.1555630">
        <ele>926.2</ele>
        <time>2021-04-17T11:01:17Z</time>
      </trkpt>
      <trkpt lat="-25.5678500" lon="-49.1554800">
        <ele>926.4</ele>
        <time>2021-04-17T11:01:19Z</time>
      </trkpt>
      <trkpt lat="-25.5679200" lon="-49.1553970">
        <ele>926.4</ele>
        <time>2021-04-17T11:01:21Z</time>
      </trkpt>
      <trkpt lat="-25.5679910" lon="-49.1553130">
        <ele>926.2</ele>
        <time>2021-04-17T11:01:23Z</time>
      </trkpt>
      <trkpt lat="-25.5680640" lon="-49.1552270">
        <ele>926.2</ele>
        <time>2021-04-17T11:01:25Z</time>
      </trkpt>
      <trkpt lat="-25.5681440" lon="-49.1551390">
        <ele>926.4</ele>
        <time>2021-04-17T11:01:27Z</time>
      </trkpt>
      <trkpt lat="-25.5681870" lon="-49.1550980">
        <ele>926.4</ele>
        <time>2021-04-17T11:01:28Z</time>
      </trkpt>
      <trkpt lat="-25.5682140" lon="-49.1550620">
        <ele>926.4</ele>
        <time>2021-04-17T11:01:29Z</time>
      </trkpt>
      <trkpt lat="-25.5682410" lon="-49.1550250">
        <ele>926.4</ele>
        <time>2021-04-17T11:01:30Z</time>
      </trkpt>
      <trkpt lat="-25.5682950" lon="-49.1549520">
        <ele>926.4</ele>
        <time>2021-04-17T11:01:31Z</time>
      </trkpt>
      <trkpt lat="-25.5683730" lon="-49.1548570">
        <ele>926.4</ele>
        <time>2021-04-17T11:01:33Z</time>
      </trkpt>
      <trkpt lat="-25.5684520" lon="-49.1547650">
        <ele>926.6</ele>
        <time>2021-04-17T11:01:35Z</time>
      </trkpt>
      <trkpt lat="-25.5684900" lon="-49.1547190">
        <ele>926.6</ele>
        <time>2021-04-17T11:01:37Z</time>
      </trkpt>
      <trkpt lat="-25.5685640" lon="-49.1546290">
        <ele>926.6</ele>
        <time>2021-04-17T11:01:39Z</time>
      </trkpt>
      <trkpt lat="-25.5686380" lon="-49.1545390">
        <ele>926.8</ele>
        <time>2021-04-17T11:01:41Z</time>
      </trkpt>
      <trkpt lat="-25.5687450" lon="-49.1544060">
        <ele>926.8</ele>
        <time>2021-04-17T11:01:43Z</time>
      </trkpt>
      <trkpt lat="-25.5687670" lon="-49.1543800">
        <ele>926.8</ele>
        <time>2021-04-17T11:01:44Z</time>
      </trkpt>
      <trkpt lat="-25.5687880" lon="-49.1543540">
        <ele>926.8</ele>
        <time>2021-04-17T11:01:45Z</time>
      </trkpt>
      <trkpt lat="-25.5688740" lon="-49.1542510">
        <ele>927.0</ele>
        <time>2021-04-17T11:01:47Z</time>
      </trkpt>
      <trkpt lat="-25.5689360" lon="-49.1541730">
        <ele>927.0</ele>
        <time>2021-04-17T11:01:49Z</time>
      </trkpt>
      <trkpt lat="-25.5689660" lon="-49.1541330">
        <ele>927.0</ele>
        <time>2021-04-17T11:01:50Z</time>
      </trkpt>
      <trkpt lat="-25.5689960" lon="-49.1540930">
        <ele>927.0</ele>
        <time>2021-04-17T11:01:51Z</time>
      </trkpt>
      <trkpt lat="-25.5690580" lon="-49.1540170">
        <ele>927.0</ele>
        <time>2021-04-17T11:01:53Z</time>
      </trkpt>
      <trkpt lat="-25.5691280" lon="-49.1539470">
        <ele>927.2</ele>
        <time>2021-04-17T11:01:55Z</time>
      </trkpt>
      <trkpt lat="-25.5691610" lon="-49.1539080">
        <ele>927.4</ele>
        <time>2021-04-17T11:01:57Z</time>
      </trkpt>
      <trkpt lat="-25.5692170" lon="-49.1538210">
        <ele>927.4</ele>
        <time>2021-04-17T11:01:58Z</time>
      </trkpt>
      <trkpt lat="-25.5692480" lon="-49.1537790">
        <ele>927.4</ele>
        <time>2021-04-17T11:01:59Z</time>
      </trkpt>
      <trkpt lat="-25.5692790" lon="-49.1537370">
        <ele>927.4</ele>
        <time>2021-04-17T11:02:00Z</time>
      </trkpt>
      <trkpt lat="-25.5692960" lon="-49.1537180">
        <ele>927.6</ele>
        <time>2021-04-17T11:02:01Z</time>
      </trkpt>
      <trkpt lat="-25.5693130" lon="-49.1536980">
        <ele>927.6</ele>
        <time>2021-04-17T11:02:02Z</time>
      </trkpt>
      <trkpt lat="-25.5693770" lon="-49.1536150">
        <ele>927.6</ele>
        <time>2021-04-17T11:02:03Z</time>
      </trkpt>
      <trkpt lat="-25.5694410" lon="-49.1535370">
        <ele>927.6</ele>
        <time>2021-04-17T11:02:05Z</time>
      </trkpt>
      <trkpt lat="-25.5695040" lon="-49.1534580">
        <ele>927.6</ele>
        <time>2021-04-17T11:02:07Z</time>
      </trkpt>
      <trkpt lat="-25.5695660" lon="-49.1533750">
        <ele>927.6</ele>
        <time>2021-04-17T11:02:09Z</time>
      </trkpt>
      <trkpt lat="-25.5695980" lon="-49.1533300">
        <ele>927.6</ele>
        <time>2021-04-17T11:02:10Z</time>
      </trkpt>
      <trkpt lat="-25.5696310" lon="-49.1532860">
        <ele>927.6</ele>
        <time>2021-04-17T11:02:11Z</time>
      </trkpt>
      <trkpt lat="-25.5696970" lon="-49.1531990">
        <ele>927.6</ele>
        <time>2021-04-17T11:02:13Z</time>
      </trkpt>
      <trkpt lat="-25.5697630" lon="-49.1531140">
        <ele>927.4</ele>
        <time>2021-04-17T11:02:15Z</time>
      </trkpt>
      <trkpt lat="-25.5698300" lon="-49.1530310">
        <ele>927.4</ele>
        <time>2021-04-17T11:02:17Z</time>
      </trkpt>
      <trkpt lat="-25.5698950" lon="-49.1529430">
        <ele>927.2</ele>
        <time>2021-04-17T11:02:19Z</time>
      </trkpt>
      <trkpt lat="-25.5699640" lon="-49.1528550">
        <ele>927.2</ele>
        <time>2021-04-17T11:02:21Z</time>
      </trkpt>
      <trkpt lat="-25.5699990" lon="-49.1528090">
        <ele>927.2</ele>
        <time>2021-04-17T11:02:22Z</time>
      </trkpt>
      <trkpt lat="-25.5700340" lon="-49.1527630">
        <ele>927.0</ele>
        <time>2021-04-17T11:02:23Z</time>
      </trkpt>
      <trkpt lat="-25.5701040" lon="-49.1526750">
        <ele>927.0</ele>
        <time>2021-04-17T11:02:25Z</time>
      </trkpt>
      <trkpt lat="-25.5701730" lon="-49.1525870">
        <ele>927.0</ele>
        <time>2021-04-17T11:02:27Z</time>
      </trkpt>
      <trkpt lat="-25.5702410" lon="-49.1525000">
        <ele>926.8</ele>
        <time>2021-04-17T11:02:29Z</time>
      </trkpt>
      <trkpt lat="-25.5702730" lon="-49.1524580">
        <ele>926.6</ele>
        <time>2021-04-17T11:02:30Z</time>
      </trkpt>
      <trkpt lat="-25.5703050" lon="-49.1524180">
        <ele>926.6</ele>
        <time>2021-04-17T11:02:31Z</time>
      </trkpt>
      <trkpt lat="-25.5703720" lon="-49.1523350">
        <ele>926.4</ele>
        <time>2021-04-17T11:02:33Z</time>
      </trkpt>
      <trkpt lat="-25.5704390" lon="-49.1522470">
        <ele>926.2</ele>
        <time>2021-04-17T11:02:35Z</time>
      </trkpt>
      <trkpt lat="-25.5705060" lon="-49.1521540">
        <ele>926.0</ele>
        <time>2021-04-17T11:02:37Z</time>
      </trkpt>
      <trkpt lat="-25.5705290" lon="-49.1521240">
        <ele>926.0</ele>
        <time>2021-04-17T11:02:38Z</time>
      </trkpt>
      <trkpt lat="-25.5705520" lon="-49.1520930">
        <ele>926.0</ele>
        <time>2021-04-17T11:02:39Z</time>
      </trkpt>
      <trkpt lat="-25.5706450" lon="-49.1519710">
        <ele>926.0</ele>
        <time>2021-04-17T11:02:41Z</time>
      </trkpt>
      <trkpt lat="-25.5707170" lon="-49.1518780">
        <ele>926.0</ele>
        <time>2021-04-17T11:02:43Z</time>
      </trkpt>
      <trkpt lat="-25.5707980" lon="-49.1517930">
        <ele>925.8</ele>
        <time>2021-04-17T11:02:45Z</time>
      </trkpt>
      <trkpt lat="-25.5708360" lon="-49.1517470">
        <ele>925.8</ele>
        <time>2021-04-17T11:02:46Z</time>
      </trkpt>
      <trkpt lat="-25.5708710" lon="-49.1516970">
        <ele>925.8</ele>
        <time>2021-04-17T11:02:47Z</time>
      </trkpt>
      <trkpt lat="-25.5709380" lon="-49.1515960">
        <ele>925.8</ele>
        <time>2021-04-17T11:02:49Z</time>
      </trkpt>
      <trkpt lat="-25.5709980" lon="-49.1514940">
        <ele>925.8</ele>
        <time>2021-04-17T11:02:51Z</time>
      </trkpt>
      <trkpt lat="-25.5710580" lon="-49.1513900">
        <ele>925.8</ele>
        <time>2021-04-17T11:02:53Z</time>
      </trkpt>
      <trkpt lat="-25.5710870" lon="-49.1513390">
        <ele>925.8</ele>
        <time>2021-04-17T11:02:54Z</time>
      </trkpt>
      <trkpt lat="-25.5711160" lon="-49.1512890">
        <ele>925.8</ele>
        <time>2021-04-17T11:02:55Z</time>
      </trkpt>
      <trkpt lat="-25.5711300" lon="-49.1512660">
        <ele>925.8</ele>
        <time>2021-04-17T11:02:56Z</time>
      </trkpt>
      <trkpt lat="-25.5711440" lon="-49.1512430">
        <ele>925.8</ele>
        <time>2021-04-17T11:02:57Z</time>
      </trkpt>
      <trkpt lat="-25.5711990" lon="-49.1511500">
        <ele>925.6</ele>
        <time>2021-04-17T11:02:59Z</time>
      </trkpt>
      <trkpt lat="-25.5712720" lon="-49.1510350">
        <ele>925.6</ele>
        <time>2021-04-17T11:03:01Z</time>
      </trkpt>
      <trkpt lat="-25.5713150" lon="-49.1509590">
        <ele>925.6</ele>
        <time>2021-04-17T11:03:03Z</time>
      </trkpt>
      <trkpt lat="-25.5713530" lon="-49.1508910">
        <ele>925.4</ele>
        <time>2021-04-17T11:03:05Z</time>
      </trkpt>
      <trkpt lat="-25.5713810" lon="-49.1508400">
        <ele>925.4</ele>
        <time>2021-04-17T11:03:07Z</time>
      </trkpt>
      <trkpt lat="-25.5713900" lon="-49.1508150">
        <ele>925.4</ele>
        <time>2021-04-17T11:03:09Z</time>
      </trkpt>
      <trkpt lat="-25.5714090" lon="-49.1507550">
        <ele>925.2</ele>
        <time>2021-04-17T11:03:11Z</time>
      </trkpt>
      <trkpt lat="-25.5714470" lon="-49.1506910">
        <ele>925.0</ele>
        <time>2021-04-17T11:03:12Z</time>
      </trkpt>
      <trkpt lat="-25.5714630" lon="-49.1506730">
        <ele>925.0</ele>
        <time>2021-04-17T11:03:13Z</time>
      </trkpt>
      <trkpt lat="-25.5714780" lon="-49.1506550">
        <ele>925.0</ele>
        <time>2021-04-17T11:03:14Z</time>
      </trkpt>
      <trkpt lat="-25.5715190" lon="-49.1506230">
        <ele>924.8</ele>
        <time>2021-04-17T11:03:15Z</time>
      </trkpt>
      <trkpt lat="-25.5716220" lon="-49.1505740">
        <ele>924.6</ele>
        <time>2021-04-17T11:03:17Z</time>
      </trkpt>
      <trkpt lat="-25.5717080" lon="-49.1504840">
        <ele>924.4</ele>
        <time>2021-04-17T11:03:18Z</time>
      </trkpt>
      <trkpt lat="-25.5717210" lon="-49.1504520">
        <ele>924.4</ele>
        <time>2021-04-17T11:03:19Z</time>
      </trkpt>
      <trkpt lat="-25.5717330" lon="-49.1504200">
        <ele>924.2</ele>
        <time>2021-04-17T11:03:20Z</time>
      </trkpt>
      <trkpt lat="-25.5717430" lon="-49.1503510">
        <ele>924.2</ele>
        <time>2021-04-17T11:03:21Z</time>
      </trkpt>
      <trkpt lat="-25.5717300" lon="-49.1502140">
        <ele>924.2</ele>
        <time>2021-04-17T11:03:22Z</time>
      </trkpt>
      <trkpt lat="-25.5717150" lon="-49.1501470">
        <ele>924.0</ele>
        <time>2021-04-17T11:03:23Z</time>
      </trkpt>
      <trkpt lat="-25.5717070" lon="-49.1500810">
        <ele>923.8</ele>
        <time>2021-04-17T11:03:24Z</time>
      </trkpt>
      <trkpt lat="-25.5717110" lon="-49.1500490">
        <ele>923.4</ele>
        <time>2021-04-17T11:03:25Z</time>
      </trkpt>
      <trkpt lat="-25.5717140" lon="-49.1500160">
        <ele>923.2</ele>
        <time>2021-04-17T11:03:26Z</time>
      </trkpt>
      <trkpt lat="-25.5717580" lon="-49.1498890">
        <ele>923.0</ele>
        <time>2021-04-17T11:03:27Z</time>
      </trkpt>
      <trkpt lat="-25.5717830" lon="-49.1498260">
        <ele>922.8</ele>
        <time>2021-04-17T11:03:29Z</time>
      </trkpt>
      <trkpt lat="-25.5718520" lon="-49.1496430">
        <ele>922.6</ele>
        <time>2021-04-17T11:03:31Z</time>
      </trkpt>
      <trkpt lat="-25.5718750" lon="-49.1495850">
        <ele>922.6</ele>
        <time>2021-04-17T11:03:33Z</time>
      </trkpt>
      <trkpt lat="-25.5719500" lon="-49.1494010">
        <ele>922.4</ele>
        <time>2021-04-17T11:03:35Z</time>
      </trkpt>
      <trkpt lat="-25.5719990" lon="-49.1492820">
        <ele>922.2</ele>
        <time>2021-04-17T11:03:37Z</time>
      </trkpt>
      <trkpt lat="-25.5720480" lon="-49.1491680">
        <ele>922.0</ele>
        <time>2021-04-17T11:03:39Z</time>
      </trkpt>
      <trkpt lat="-25.5720730" lon="-49.1491110">
        <ele>921.8</ele>
        <time>2021-04-17T11:03:40Z</time>
      </trkpt>
      <trkpt lat="-25.5721000" lon="-49.1490570">
        <ele>921.8</ele>
        <time>2021-04-17T11:03:41Z</time>
      </trkpt>
      <trkpt lat="-25.5721550" lon="-49.1489460">
        <ele>921.6</ele>
        <time>2021-04-17T11:03:43Z</time>
      </trkpt>
      <trkpt lat="-25.5722150" lon="-49.1488230">
        <ele>921.4</ele>
        <time>2021-04-17T11:03:45Z</time>
      </trkpt>
      <trkpt lat="-25.5722460" lon="-49.1487590">
        <ele>921.4</ele>
        <time>2021-04-17T11:03:46Z</time>
      </trkpt>
      <trkpt lat="-25.5722790" lon="-49.1486930">
        <ele>921.4</ele>
        <time>2021-04-17T11:03:47Z</time>
      </trkpt>
      <trkpt lat="-25.5723390" lon="-49.1485650">
        <ele>921.2</ele>
        <time>2021-04-17T11:03:49Z</time>
      </trkpt>
      <trkpt lat="-25.5723950" lon="-49.1484470">
        <ele>921.0</ele>
        <time>2021-04-17T11:03:51Z</time>
      </trkpt>
      <trkpt lat="-25.5724480" lon="-49.1483360">
        <ele>921.0</ele>
        <time>2021-04-17T11:03:53Z</time>
      </trkpt>
      <trkpt lat="-25.5725070" lon="-49.1482290">
        <ele>921.0</ele>
        <time>2021-04-17T11:03:55Z</time>
      </trkpt>
      <trkpt lat="-25.5725710" lon="-49.1481260">
        <ele>921.0</ele>
        <time>2021-04-17T11:03:57Z</time>
      </trkpt>
      <trkpt lat="-25.5726370" lon="-49.1480310">
        <ele>921.0</ele>
        <time>2021-04-17T11:03:59Z</time>
      </trkpt>
      <trkpt lat="-25.5726680" lon="-49.1479840">
        <ele>921.0</ele>
        <time>2021-04-17T11:04:00Z</time>
      </trkpt>
      <trkpt lat="-25.5727000" lon="-49.1479460">
        <ele>921.0</ele>
        <time>2021-04-17T11:04:01Z</time>
      </trkpt>
      <trkpt lat="-25.5727640" lon="-49.1478730">
        <ele>921.0</ele>
        <time>2021-04-17T11:04:03Z</time>
      </trkpt>
      <trkpt lat="-25.5728270" lon="-49.1477950">
        <ele>921.0</ele>
        <time>2021-04-17T11:04:05Z</time>
      </trkpt>
      <trkpt lat="-25.5728570" lon="-49.1477500">
        <ele>921.0</ele>
        <time>2021-04-17T11:04:06Z</time>
      </trkpt>
      <trkpt lat="-25.5728880" lon="-49.1477040">
        <ele>921.0</ele>
        <time>2021-04-17T11:04:07Z</time>
      </trkpt>
      <trkpt lat="-25.5729500" lon="-49.1476160">
        <ele>921.0</ele>
        <time>2021-04-17T11:04:09Z</time>
      </trkpt>
      <trkpt lat="-25.5730060" lon="-49.1475230">
        <ele>921.0</ele>
        <time>2021-04-17T11:04:11Z</time>
      </trkpt>
      <trkpt lat="-25.5730380" lon="-49.1474810">
        <ele>921.2</ele>
        <time>2021-04-17T11:04:13Z</time>
      </trkpt>
      <trkpt lat="-25.5731260" lon="-49.1473540">
        <ele>921.4</ele>
        <time>2021-04-17T11:04:15Z</time>
      </trkpt>
      <trkpt lat="-25.5731730" lon="-49.1472530">
        <ele>921.4</ele>
        <time>2021-04-17T11:04:17Z</time>
      </trkpt>
      <trkpt lat="-25.5731990" lon="-49.1472050">
        <ele>921.6</ele>
        <time>2021-04-17T11:04:18Z</time>
      </trkpt>
      <trkpt lat="-25.5732280" lon="-49.1471620">
        <ele>921.6</ele>
        <time>2021-04-17T11:04:19Z</time>
      </trkpt>
      <trkpt lat="-25.5732830" lon="-49.1470800">
        <ele>922.0</ele>
        <time>2021-04-17T11:04:21Z</time>
      </trkpt>
      <trkpt lat="-25.5733400" lon="-49.1469940">
        <ele>922.2</ele>
        <time>2021-04-17T11:04:23Z</time>
      </trkpt>
      <trkpt lat="-25.5733660" lon="-49.1469480">
        <ele>922.4</ele>
        <time>2021-04-17T11:04:24Z</time>
      </trkpt>
      <trkpt lat="-25.5733910" lon="-49.1469010">
        <ele>922.4</ele>
        <time>2021-04-17T11:04:25Z</time>
      </trkpt>
      <trkpt lat="-25.5734430" lon="-49.1468080">
        <ele>922.8</ele>
        <time>2021-04-17T11:04:27Z</time>
      </trkpt>
      <trkpt lat="-25.5734970" lon="-49.1467210">
        <ele>923.4</ele>
        <time>2021-04-17T11:04:29Z</time>
      </trkpt>
      <trkpt lat="-25.5735230" lon="-49.1466810">
        <ele>923.4</ele>
        <time>2021-04-17T11:04:30Z</time>
      </trkpt>
      <trkpt lat="-25.5735470" lon="-49.1466400">
        <ele>923.8</ele>
        <time>2021-04-17T11:04:31Z</time>
      </trkpt>
      <trkpt lat="-25.5735710" lon="-49.1465990">
        <ele>923.8</ele>
        <time>2021-04-17T11:04:32Z</time>
      </trkpt>
      <trkpt lat="-25.5735940" lon="-49.1465570">
        <ele>924.0</ele>
        <time>2021-04-17T11:04:33Z</time>
      </trkpt>
      <trkpt lat="-25.5736140" lon="-49.1465130">
        <ele>924.0</ele>
        <time>2021-04-17T11:04:34Z</time>
      </trkpt>
      <trkpt lat="-25.5736350" lon="-49.1464660">
        <ele>924.2</ele>
        <time>2021-04-17T11:04:35Z</time>
      </trkpt>
      <trkpt lat="-25.5736590" lon="-49.1464180">
        <ele>924.4</ele>
        <time>2021-04-17T11:04:36Z</time>
      </trkpt>
      <trkpt lat="-25.5736830" lon="-49.1463710">
        <ele>924.4</ele>
        <time>2021-04-17T11:04:37Z</time>
      </trkpt>
      <trkpt lat="-25.5737000" lon="-49.1463200">
        <ele>924.8</ele>
        <time>2021-04-17T11:04:39Z</time>
      </trkpt>
      <trkpt lat="-25.5737410" lon="-49.1461700">
        <ele>925.2</ele>
        <time>2021-04-17T11:04:41Z</time>
      </trkpt>
      <trkpt lat="-25.5737850" lon="-49.1460790">
        <ele>925.4</ele>
        <time>2021-04-17T11:04:43Z</time>
      </trkpt>
      <trkpt lat="-25.5738320" lon="-49.1459880">
        <ele>925.6</ele>
        <time>2021-04-17T11:04:45Z</time>
      </trkpt>
      <trkpt lat="-25.5738570" lon="-49.1459420">
        <ele>925.8</ele>
        <time>2021-04-17T11:04:47Z</time>
      </trkpt>
      <trkpt lat="-25.5739060" lon="-49.1458480">
        <ele>925.8</ele>
        <time>2021-04-17T11:04:49Z</time>
      </trkpt>
      <trkpt lat="-25.5739310" lon="-49.1458010">
        <ele>925.8</ele>
        <time>2021-04-17T11:04:50Z</time>
      </trkpt>
      <trkpt lat="-25.5739580" lon="-49.1457540">
        <ele>925.8</ele>
        <time>2021-04-17T11:04:51Z</time>
      </trkpt>
      <trkpt lat="-25.5740170" lon="-49.1456630">
        <ele>925.8</ele>
        <time>2021-04-17T11:04:53Z</time>
      </trkpt>
      <trkpt lat="-25.5740660" lon="-49.1455620">
        <ele>925.8</ele>
        <time>2021-04-17T11:04:54Z</time>
      </trkpt>
      <trkpt lat="-25.5740660" lon="-49.1455620">
        <ele>925.8</ele>
        <time>2021-04-17T11:04:55Z</time>
      </trkpt>
      <trkpt lat="-25.5741150" lon="-49.1454610">
        <ele>925.6</ele>
        <time>2021-04-17T11:04:57Z</time>
      </trkpt>
      <trkpt lat="-25.5741700" lon="-49.1453600">
        <ele>925.4</ele>
        <time>2021-04-17T11:04:59Z</time>
      </trkpt>
      <trkpt lat="-25.5742250" lon="-49.1452570">
        <ele>925.2</ele>
        <time>2021-04-17T11:05:01Z</time>
      </trkpt>
      <trkpt lat="-25.5742850" lon="-49.1451600">
        <ele>925.0</ele>
        <time>2021-04-17T11:05:03Z</time>
      </trkpt>
      <trkpt lat="-25.5743450" lon="-49.1450630">
        <ele>925.0</ele>
        <time>2021-04-17T11:05:04Z</time>
      </trkpt>
      <trkpt lat="-25.5743450" lon="-49.1450630">
        <ele>924.8</ele>
        <time>2021-04-17T11:05:05Z</time>
      </trkpt>
      <trkpt lat="-25.5744000" lon="-49.1449640">
        <ele>924.8</ele>
        <time>2021-04-17T11:05:07Z</time>
      </trkpt>
      <trkpt lat="-25.5744560" lon="-49.1448640">
        <ele>924.8</ele>
        <time>2021-04-17T11:05:09Z</time>
      </trkpt>
      <trkpt lat="-25.5745400" lon="-49.1447230">
        <ele>924.8</ele>
        <time>2021-04-17T11:05:11Z</time>
      </trkpt>
      <trkpt lat="-25.5745690" lon="-49.1446740">
        <ele>924.6</ele>
        <time>2021-04-17T11:05:13Z</time>
      </trkpt>
      <trkpt lat="-25.5746260" lon="-49.1445700">
        <ele>924.6</ele>
        <time>2021-04-17T11:05:15Z</time>
      </trkpt>
      <trkpt lat="-25.5746840" lon="-49.1444750">
        <ele>924.6</ele>
        <time>2021-04-17T11:05:16Z</time>
      </trkpt>
      <trkpt lat="-25.5747120" lon="-49.1444290">
        <ele>924.6</ele>
        <time>2021-04-17T11:05:17Z</time>
      </trkpt>
      <trkpt lat="-25.5747390" lon="-49.1443810">
        <ele>924.6</ele>
        <time>2021-04-17T11:05:19Z</time>
      </trkpt>
      <trkpt lat="-25.5747900" lon="-49.1442860">
        <ele>924.6</ele>
        <time>2021-04-17T11:05:21Z</time>
      </trkpt>
      <trkpt lat="-25.5748380" lon="-49.1441840">
        <ele>924.8</ele>
        <time>2021-04-17T11:05:23Z</time>
      </trkpt>
      <trkpt lat="-25.5748870" lon="-49.1440750">
        <ele>924.8</ele>
        <time>2021-04-17T11:05:25Z</time>
      </trkpt>
      <trkpt lat="-25.5749480" lon="-49.1439060">
        <ele>925.0</ele>
        <time>2021-04-17T11:05:27Z</time>
      </trkpt>
      <trkpt lat="-25.5749910" lon="-49.1437870">
        <ele>925.0</ele>
        <time>2021-04-17T11:05:29Z</time>
      </trkpt>
      <trkpt lat="-25.5750350" lon="-49.1436640">
        <ele>925.2</ele>
        <time>2021-04-17T11:05:31Z</time>
      </trkpt>
      <trkpt lat="-25.5750720" lon="-49.1435400">
        <ele>925.4</ele>
        <time>2021-04-17T11:05:33Z</time>
      </trkpt>
      <trkpt lat="-25.5751050" lon="-49.1434240">
        <ele>925.6</ele>
        <time>2021-04-17T11:05:35Z</time>
      </trkpt>
      <trkpt lat="-25.5751200" lon="-49.1433690">
        <ele>925.8</ele>
        <time>2021-04-17T11:05:37Z</time>
      </trkpt>
      <trkpt lat="-25.5751360" lon="-49.1433140">
        <ele>926.0</ele>
        <time>2021-04-17T11:05:38Z</time>
      </trkpt>
      <trkpt lat="-25.5751530" lon="-49.1432580">
        <ele>926.0</ele>
        <time>2021-04-17T11:05:39Z</time>
      </trkpt>
      <trkpt lat="-25.5751870" lon="-49.1431490">
        <ele>926.0</ele>
        <time>2021-04-17T11:05:41Z</time>
      </trkpt>
      <trkpt lat="-25.5752290" lon="-49.1429730">
        <ele>926.2</ele>
        <time>2021-04-17T11:05:43Z</time>
      </trkpt>
      <trkpt lat="-25.5752340" lon="-49.1429420">
        <ele>926.4</ele>
        <time>2021-04-17T11:05:44Z</time>
      </trkpt>
      <trkpt lat="-25.5752390" lon="-49.1429110">
        <ele>926.6</ele>
        <time>2021-04-17T11:05:45Z</time>
      </trkpt>
      <trkpt lat="-25.5752450" lon="-49.1427850">
        <ele>926.8</ele>
        <time>2021-04-17T11:05:46Z</time>
      </trkpt>
      <trkpt lat="-25.5752430" lon="-49.1427220">
        <ele>926.8</ele>
        <time>2021-04-17T11:05:47Z</time>
      </trkpt>
      <trkpt lat="-25.5752370" lon="-49.1425980">
        <ele>927.0</ele>
        <time>2021-04-17T11:05:49Z</time>
      </trkpt>
      <trkpt lat="-25.5752320" lon="-49.1425360">
        <ele>927.2</ele>
        <time>2021-04-17T11:05:51Z</time>
      </trkpt>
      <trkpt lat="-25.5752240" lon="-49.1424080">
        <ele>927.2</ele>
        <time>2021-04-17T11:05:53Z</time>
      </trkpt>
      <trkpt lat="-25.5752190" lon="-49.1422770">
        <ele>927.4</ele>
        <time>2021-04-17T11:05:55Z</time>
      </trkpt>
      <trkpt lat="-25.5752060" lon="-49.1420750">
        <ele>927.4</ele>
        <time>2021-04-17T11:05:57Z</time>
      </trkpt>
      <trkpt lat="-25.5752030" lon="-49.1420070">
        <ele>927.4</ele>
        <time>2021-04-17T11:05:58Z</time>
      </trkpt>
      <trkpt lat="-25.5752030" lon="-49.1420070">
        <ele>927.4</ele>
        <time>2021-04-17T11:05:59Z</time>
      </trkpt>
      <trkpt lat="-25.5752070" lon="-49.1418740">
        <ele>927.4</ele>
        <time>2021-04-17T11:06:01Z</time>
      </trkpt>
      <trkpt lat="-25.5752130" lon="-49.1418090">
        <ele>927.4</ele>
        <time>2021-04-17T11:06:02Z</time>
      </trkpt>
      <trkpt lat="-25.5752230" lon="-49.1417460">
        <ele>927.4</ele>
        <time>2021-04-17T11:06:03Z</time>
      </trkpt>
      <trkpt lat="-25.5752480" lon="-49.1416280">
        <ele>927.4</ele>
        <time>2021-04-17T11:06:05Z</time>
      </trkpt>
      <trkpt lat="-25.5752870" lon="-49.1415150">
        <ele>927.4</ele>
        <time>2021-04-17T11:06:06Z</time>
      </trkpt>
      <trkpt lat="-25.5752980" lon="-49.1414880">
        <ele>927.2</ele>
        <time>2021-04-17T11:06:07Z</time>
      </trkpt>
      <trkpt lat="-25.5753090" lon="-49.1414610">
        <ele>927.2</ele>
        <time>2021-04-17T11:06:08Z</time>
      </trkpt>
      <trkpt lat="-25.5753270" lon="-49.1414030">
        <ele>927.2</ele>
        <time>2021-04-17T11:06:09Z</time>
      </trkpt>
      <trkpt lat="-25.5753630" lon="-49.1412860">
        <ele>927.2</ele>
        <time>2021-04-17T11:06:11Z</time>
      </trkpt>
      <trkpt lat="-25.5753990" lon="-49.1411680">
        <ele>927.2</ele>
        <time>2021-04-17T11:06:13Z</time>
      </trkpt>
      <trkpt lat="-25.5754220" lon="-49.1411100">
        <ele>927.2</ele>
        <time>2021-04-17T11:06:14Z</time>
      </trkpt>
      <trkpt lat="-25.5754460" lon="-49.1410530">
        <ele>927.2</ele>
        <time>2021-04-17T11:06:15Z</time>
      </trkpt>
      <trkpt lat="-25.5755030" lon="-49.1409410">
        <ele>927.2</ele>
        <time>2021-04-17T11:06:17Z</time>
      </trkpt>
      <trkpt lat="-25.5755710" lon="-49.1408360">
        <ele>927.2</ele>
        <time>2021-04-17T11:06:18Z</time>
      </trkpt>
      <trkpt lat="-25.5755710" lon="-49.1408360">
        <ele>927.2</ele>
        <time>2021-04-17T11:06:19Z</time>
      </trkpt>
      <trkpt lat="-25.5756440" lon="-49.1407310">
        <ele>927.2</ele>
        <time>2021-04-17T11:06:21Z</time>
      </trkpt>
      <trkpt lat="-25.5757180" lon="-49.1406200">
        <ele>927.2</ele>
        <time>2021-04-17T11:06:22Z</time>
      </trkpt>
      <trkpt lat="-25.5757180" lon="-49.1406200">
        <ele>927.2</ele>
        <time>2021-04-17T11:06:23Z</time>
      </trkpt>
      <trkpt lat="-25.5757960" lon="-49.1405070">
        <ele>927.2</ele>
        <time>2021-04-17T11:06:25Z</time>
      </trkpt>
      <trkpt lat="-25.5758710" lon="-49.1403890">
        <ele>927.0</ele>
        <time>2021-04-17T11:06:27Z</time>
      </trkpt>
      <trkpt lat="-25.5759440" lon="-49.1402740">
        <ele>926.8</ele>
        <time>2021-04-17T11:06:29Z</time>
      </trkpt>
      <trkpt lat="-25.5760150" lon="-49.1401580">
        <ele>926.6</ele>
        <time>2021-04-17T11:06:30Z</time>
      </trkpt>
      <trkpt lat="-25.5760320" lon="-49.1401270">
        <ele>926.4</ele>
        <time>2021-04-17T11:06:31Z</time>
      </trkpt>
      <trkpt lat="-25.5760490" lon="-49.1400960">
        <ele>926.2</ele>
        <time>2021-04-17T11:06:32Z</time>
      </trkpt>
      <trkpt lat="-25.5760810" lon="-49.1400290">
        <ele>925.8</ele>
        <time>2021-04-17T11:06:33Z</time>
      </trkpt>
      <trkpt lat="-25.5761700" lon="-49.1398390">
        <ele>925.4</ele>
        <time>2021-04-17T11:06:35Z</time>
      </trkpt>
      <trkpt lat="-25.5761970" lon="-49.1397760">
        <ele>925.0</ele>
        <time>2021-04-17T11:06:36Z</time>
      </trkpt>
      <trkpt lat="-25.5762240" lon="-49.1397110">
        <ele>924.8</ele>
        <time>2021-04-17T11:06:37Z</time>
      </trkpt>
      <trkpt lat="-25.5762770" lon="-49.1395860">
        <ele>924.6</ele>
        <time>2021-04-17T11:06:39Z</time>
      </trkpt>
      <trkpt lat="-25.5763250" lon="-49.1394600">
        <ele>924.2</ele>
        <time>2021-04-17T11:06:41Z</time>
      </trkpt>
      <trkpt lat="-25.5763810" lon="-49.1393350">
        <ele>924.2</ele>
        <time>2021-04-17T11:06:43Z</time>
      </trkpt>
      <trkpt lat="-25.5764280" lon="-49.1392030">
        <ele>924.0</ele>
        <time>2021-04-17T11:06:45Z</time>
      </trkpt>
      <trkpt lat="-25.5764750" lon="-49.1390730">
        <ele>924.0</ele>
        <time>2021-04-17T11:06:47Z</time>
      </trkpt>
      <trkpt lat="-25.5765210" lon="-49.1389440">
        <ele>924.0</ele>
        <time>2021-04-17T11:06:49Z</time>
      </trkpt>
      <trkpt lat="-25.5765690" lon="-49.1388180">
        <ele>924.0</ele>
        <time>2021-04-17T11:06:51Z</time>
      </trkpt>
      <trkpt lat="-25.5766160" lon="-49.1386970">
        <ele>924.0</ele>
        <time>2021-04-17T11:06:53Z</time>
      </trkpt>
      <trkpt lat="-25.5766670" lon="-49.1385800">
        <ele>924.0</ele>
        <time>2021-04-17T11:06:55Z</time>
      </trkpt>
      <trkpt lat="-25.5767240" lon="-49.1384660">
        <ele>924.0</ele>
        <time>2021-04-17T11:06:57Z</time>
      </trkpt>
      <trkpt lat="-25.5767860" lon="-49.1383550">
        <ele>924.4</ele>
        <time>2021-04-17T11:06:59Z</time>
      </trkpt>
      <trkpt lat="-25.5768540" lon="-49.1382440">
        <ele>924.6</ele>
        <time>2021-04-17T11:07:01Z</time>
      </trkpt>
      <trkpt lat="-25.5769260" lon="-49.1381300">
        <ele>924.8</ele>
        <time>2021-04-17T11:07:03Z</time>
      </trkpt>
      <trkpt lat="-25.5770010" lon="-49.1380130">
        <ele>924.8</ele>
        <time>2021-04-17T11:07:05Z</time>
      </trkpt>
      <trkpt lat="-25.5770770" lon="-49.1378920">
        <ele>925.0</ele>
        <time>2021-04-17T11:07:07Z</time>
      </trkpt>
      <trkpt lat="-25.5771590" lon="-49.1377730">
        <ele>925.0</ele>
        <time>2021-04-17T11:07:09Z</time>
      </trkpt>
      <trkpt lat="-25.5772390" lon="-49.1376510">
        <ele>925.0</ele>
        <time>2021-04-17T11:07:11Z</time>
      </trkpt>
      <trkpt lat="-25.5773160" lon="-49.1375290">
        <ele>924.8</ele>
        <time>2021-04-17T11:07:13Z</time>
      </trkpt>
      <trkpt lat="-25.5773860" lon="-49.1374090">
        <ele>924.6</ele>
        <time>2021-04-17T11:07:15Z</time>
      </trkpt>
      <trkpt lat="-25.5774520" lon="-49.1372850">
        <ele>924.2</ele>
        <time>2021-04-17T11:07:17Z</time>
      </trkpt>
      <trkpt lat="-25.5774810" lon="-49.1372220">
        <ele>924.2</ele>
        <time>2021-04-17T11:07:18Z</time>
      </trkpt>
      <trkpt lat="-25.5775090" lon="-49.1371630">
        <ele>924.2</ele>
        <time>2021-04-17T11:07:19Z</time>
      </trkpt>
      <trkpt lat="-25.5775640" lon="-49.1370500">
        <ele>924.2</ele>
        <time>2021-04-17T11:07:21Z</time>
      </trkpt>
      <trkpt lat="-25.5776170" lon="-49.1369370">
        <ele>924.2</ele>
        <time>2021-04-17T11:07:23Z</time>
      </trkpt>
      <trkpt lat="-25.5776690" lon="-49.1368310">
        <ele>924.2</ele>
        <time>2021-04-17T11:07:25Z</time>
      </trkpt>
      <trkpt lat="-25.5777160" lon="-49.1367370">
        <ele>924.2</ele>
        <time>2021-04-17T11:07:27Z</time>
      </trkpt>
      <trkpt lat="-25.5777620" lon="-49.1366480">
        <ele>924.4</ele>
        <time>2021-04-17T11:07:29Z</time>
      </trkpt>
      <trkpt lat="-25.5778040" lon="-49.1365550">
        <ele>924.6</ele>
        <time>2021-04-17T11:07:31Z</time>
      </trkpt>
      <trkpt lat="-25.5778240" lon="-49.1365110">
        <ele>924.8</ele>
        <time>2021-04-17T11:07:32Z</time>
      </trkpt>
      <trkpt lat="-25.5778430" lon="-49.1364670">
        <ele>925.0</ele>
        <time>2021-04-17T11:07:33Z</time>
      </trkpt>
      <trkpt lat="-25.5778640" lon="-49.1364250">
        <ele>925.0</ele>
        <time>2021-04-17T11:07:34Z</time>
      </trkpt>
      <trkpt lat="-25.5778840" lon="-49.1363850">
        <ele>925.2</ele>
        <time>2021-04-17T11:07:35Z</time>
      </trkpt>
      <trkpt lat="-25.5779200" lon="-49.1363040">
        <ele>925.6</ele>
        <time>2021-04-17T11:07:37Z</time>
      </trkpt>
      <trkpt lat="-25.5779550" lon="-49.1362240">
        <ele>926.0</ele>
        <time>2021-04-17T11:07:39Z</time>
      </trkpt>
      <trkpt lat="-25.5779720" lon="-49.1361860">
        <ele>926.2</ele>
        <time>2021-04-17T11:07:40Z</time>
      </trkpt>
      <trkpt lat="-25.5779900" lon="-49.1361490">
        <ele>926.4</ele>
        <time>2021-04-17T11:07:41Z</time>
      </trkpt>
      <trkpt lat="-25.5780270" lon="-49.1360740">
        <ele>926.6</ele>
        <time>2021-04-17T11:07:43Z</time>
      </trkpt>
      <trkpt lat="-25.5780600" lon="-49.1359910">
        <ele>927.0</ele>
        <time>2021-04-17T11:07:45Z</time>
      </trkpt>
      <trkpt lat="-25.5780800" lon="-49.1359510">
        <ele>927.4</ele>
        <time>2021-04-17T11:07:46Z</time>
      </trkpt>
      <trkpt lat="-25.5781000" lon="-49.1359110">
        <ele>927.6</ele>
        <time>2021-04-17T11:07:47Z</time>
      </trkpt>
      <trkpt lat="-25.5781180" lon="-49.1358700">
        <ele>927.8</ele>
        <time>2021-04-17T11:07:48Z</time>
      </trkpt>
      <trkpt lat="-25.5781340" lon="-49.1358290">
        <ele>928.0</ele>
        <time>2021-04-17T11:07:49Z</time>
      </trkpt>
      <trkpt lat="-25.5781670" lon="-49.1357510">
        <ele>928.2</ele>
        <time>2021-04-17T11:07:51Z</time>
      </trkpt>
      <trkpt lat="-25.5781840" lon="-49.1357110">
        <ele>928.4</ele>
        <time>2021-04-17T11:07:52Z</time>
      </trkpt>
      <trkpt lat="-25.5782020" lon="-49.1356730">
        <ele>928.6</ele>
        <time>2021-04-17T11:07:53Z</time>
      </trkpt>
      <trkpt lat="-25.5782210" lon="-49.1356320">
        <ele>928.8</ele>
        <time>2021-04-17T11:07:54Z</time>
      </trkpt>
      <trkpt lat="-25.5782410" lon="-49.1355880">
        <ele>929.0</ele>
        <time>2021-04-17T11:07:55Z</time>
      </trkpt>
      <trkpt lat="-25.5782810" lon="-49.1354930">
        <ele>929.2</ele>
        <time>2021-04-17T11:07:57Z</time>
      </trkpt>
      <trkpt lat="-25.5783180" lon="-49.1353950">
        <ele>929.4</ele>
        <time>2021-04-17T11:07:59Z</time>
      </trkpt>
      <trkpt lat="-25.5783400" lon="-49.1353470">
        <ele>929.4</ele>
        <time>2021-04-17T11:08:00Z</time>
      </trkpt>
      <trkpt lat="-25.5783670" lon="-49.1353020">
        <ele>929.4</ele>
        <time>2021-04-17T11:08:01Z</time>
      </trkpt>
      <trkpt lat="-25.5783890" lon="-49.1352550">
        <ele>929.4</ele>
        <time>2021-04-17T11:08:02Z</time>
      </trkpt>
      <trkpt lat="-25.5784110" lon="-49.1352070">
        <ele>929.4</ele>
        <time>2021-04-17T11:08:03Z</time>
      </trkpt>
      <trkpt lat="-25.5784520" lon="-49.1351140">
        <ele>929.4</ele>
        <time>2021-04-17T11:08:05Z</time>
      </trkpt>
      <trkpt lat="-25.5784770" lon="-49.1350670">
        <ele>929.4</ele>
        <time>2021-04-17T11:08:06Z</time>
      </trkpt>
      <trkpt lat="-25.5785010" lon="-49.1350150">
        <ele>929.2</ele>
        <time>2021-04-17T11:08:07Z</time>
      </trkpt>
      <trkpt lat="-25.5785560" lon="-49.1349090">
        <ele>929.0</ele>
        <time>2021-04-17T11:08:09Z</time>
      </trkpt>
      <trkpt lat="-25.5786000" lon="-49.1348040">
        <ele>928.8</ele>
        <time>2021-04-17T11:08:11Z</time>
      </trkpt>
      <trkpt lat="-25.5786460" lon="-49.1347010">
        <ele>928.8</ele>
        <time>2021-04-17T11:08:13Z</time>
      </trkpt>
      <trkpt lat="-25.5786930" lon="-49.1345940">
        <ele>928.8</ele>
        <time>2021-04-17T11:08:15Z</time>
      </trkpt>
      <trkpt lat="-25.5787380" lon="-49.1344870">
        <ele>928.6</ele>
        <time>2021-04-17T11:08:17Z</time>
      </trkpt>
      <trkpt lat="-25.5787800" lon="-49.1343850">
        <ele>928.6</ele>
        <time>2021-04-17T11:08:19Z</time>
      </trkpt>
      <trkpt lat="-25.5788250" lon="-49.1342840">
        <ele>928.4</ele>
        <time>2021-04-17T11:08:21Z</time>
      </trkpt>
      <trkpt lat="-25.5788720" lon="-49.1341810">
        <ele>928.2</ele>
        <time>2021-04-17T11:08:23Z</time>
      </trkpt>
      <trkpt lat="-25.5789270" lon="-49.1340860">
        <ele>928.2</ele>
        <time>2021-04-17T11:08:25Z</time>
      </trkpt>
      <trkpt lat="-25.5789870" lon="-49.1340000">
        <ele>928.0</ele>
        <time>2021-04-17T11:08:27Z</time>
      </trkpt>
      <trkpt lat="-25.5790230" lon="-49.1339630">
        <ele>928.0</ele>
        <time>2021-04-17T11:08:28Z</time>
      </trkpt>
      <trkpt lat="-25.5790630" lon="-49.1339300">
        <ele>928.0</ele>
        <time>2021-04-17T11:08:29Z</time>
      </trkpt>
      <trkpt lat="-25.5791560" lon="-49.1338860">
        <ele>928.0</ele>
        <time>2021-04-17T11:08:31Z</time>
      </trkpt>
      <trkpt lat="-25.5791890" lon="-49.1338800">
        <ele>928.0</ele>
        <time>2021-04-17T11:08:32Z</time>
      </trkpt>
      <trkpt lat="-25.5792210" lon="-49.1338730">
        <ele>928.0</ele>
        <time>2021-04-17T11:08:33Z</time>
      </trkpt>
      <trkpt lat="-25.5793510" lon="-49.1338460">
        <ele>928.0</ele>
        <time>2021-04-17T11:08:35Z</time>
      </trkpt>
      <trkpt lat="-25.5793960" lon="-49.1338400">
        <ele>928.0</ele>
        <time>2021-04-17T11:08:37Z</time>
      </trkpt>
      <trkpt lat="-25.5794420" lon="-49.1338350">
        <ele>928.0</ele>
        <time>2021-04-17T11:08:38Z</time>
      </trkpt>
      <trkpt lat="-25.5795340" lon="-49.1338200">
        <ele>928.0</ele>
        <time>2021-04-17T11:08:39Z</time>
      </trkpt>
      <trkpt lat="-25.5796250" lon="-49.1338050">
        <ele>928.2</ele>
        <time>2021-04-17T11:08:41Z</time>
      </trkpt>
      <trkpt lat="-25.5797140" lon="-49.1337920">
        <ele>928.6</ele>
        <time>2021-04-17T11:08:43Z</time>
      </trkpt>
      <trkpt lat="-25.5798040" lon="-49.1337820">
        <ele>928.8</ele>
        <time>2021-04-17T11:08:45Z</time>
      </trkpt>
      <trkpt lat="-25.5798500" lon="-49.1337760">
        <ele>928.8</ele>
        <time>2021-04-17T11:08:46Z</time>
      </trkpt>
      <trkpt lat="-25.5798960" lon="-49.1337690">
        <ele>929.2</ele>
        <time>2021-04-17T11:08:47Z</time>
      </trkpt>
      <trkpt lat="-25.5799410" lon="-49.1337620">
        <ele>929.4</ele>
        <time>2021-04-17T11:08:48Z</time>
      </trkpt>
      <trkpt lat="-25.5799880" lon="-49.1337560">
        <ele>929.6</ele>
        <time>2021-04-17T11:08:49Z</time>
      </trkpt>
      <trkpt lat="-25.5800800" lon="-49.1337450">
        <ele>929.8</ele>
        <time>2021-04-17T11:08:51Z</time>
      </trkpt>
      <trkpt lat="-25.5801710" lon="-49.1337300">
        <ele>930.2</ele>
        <time>2021-04-17T11:08:53Z</time>
      </trkpt>
      <trkpt lat="-25.5802650" lon="-49.1337170">
        <ele>930.4</ele>
        <time>2021-04-17T11:08:55Z</time>
      </trkpt>
      <trkpt lat="-25.5803570" lon="-49.1337010">
        <ele>930.6</ele>
        <time>2021-04-17T11:08:57Z</time>
      </trkpt>
      <trkpt lat="-25.5804490" lon="-49.1336770">
        <ele>930.8</ele>
        <time>2021-04-17T11:08:59Z</time>
      </trkpt>
      <trkpt lat="-25.5805410" lon="-49.1336450">
        <ele>931.0</ele>
        <time>2021-04-17T11:09:01Z</time>
      </trkpt>
      <trkpt lat="-25.5806310" lon="-49.1336040">
        <ele>931.0</ele>
        <time>2021-04-17T11:09:03Z</time>
      </trkpt>
      <trkpt lat="-25.5807220" lon="-49.1335580">
        <ele>931.2</ele>
        <time>2021-04-17T11:09:05Z</time>
      </trkpt>
      <trkpt lat="-25.5808140" lon="-49.1335130">
        <ele>931.6</ele>
        <time>2021-04-17T11:09:07Z</time>
      </trkpt>
      <trkpt lat="-25.5809070" lon="-49.1334710">
        <ele>931.6</ele>
        <time>2021-04-17T11:09:09Z</time>
      </trkpt>
      <trkpt lat="-25.5809530" lon="-49.1334480">
        <ele>931.6</ele>
        <time>2021-04-17T11:09:10Z</time>
      </trkpt>
      <trkpt lat="-25.5810000" lon="-49.1334240">
        <ele>931.6</ele>
        <time>2021-04-17T11:09:11Z</time>
      </trkpt>
      <trkpt lat="-25.5810500" lon="-49.1334050">
        <ele>931.6</ele>
        <time>2021-04-17T11:09:13Z</time>
      </trkpt>
      <trkpt lat="-25.5811030" lon="-49.1333910">
        <ele>931.6</ele>
        <time>2021-04-17T11:09:14Z</time>
      </trkpt>
      <trkpt lat="-25.5812110" lon="-49.1333860">
        <ele>931.8</ele>
        <time>2021-04-17T11:09:15Z</time>
      </trkpt>
      <trkpt lat="-25.5812650" lon="-49.1333870">
        <ele>931.8</ele>
        <time>2021-04-17T11:09:16Z</time>
      </trkpt>
      <trkpt lat="-25.5813180" lon="-49.1333850">
        <ele>931.8</ele>
        <time>2021-04-17T11:09:17Z</time>
      </trkpt>
      <trkpt lat="-25.5814230" lon="-49.1333860">
        <ele>931.8</ele>
        <time>2021-04-17T11:09:19Z</time>
      </trkpt>
      <trkpt lat="-25.5814730" lon="-49.1333910">
        <ele>931.8</ele>
        <time>2021-04-17T11:09:21Z</time>
      </trkpt>
      <trkpt lat="-25.5816160" lon="-49.1334240">
        <ele>932.0</ele>
        <time>2021-04-17T11:09:23Z</time>
      </trkpt>
      <trkpt lat="-25.5817060" lon="-49.1334520">
        <ele>932.0</ele>
        <time>2021-04-17T11:09:25Z</time>
      </trkpt>
      <trkpt lat="-25.5817970" lon="-49.1334780">
        <ele>932.2</ele>
        <time>2021-04-17T11:09:27Z</time>
      </trkpt>
      <trkpt lat="-25.5818840" lon="-49.1335090">
        <ele>932.6</ele>
        <time>2021-04-17T11:09:29Z</time>
      </trkpt>
      <trkpt lat="-25.5819690" lon="-49.1335410">
        <ele>933.0</ele>
        <time>2021-04-17T11:09:31Z</time>
      </trkpt>
      <trkpt lat="-25.5820510" lon="-49.1335690">
        <ele>933.6</ele>
        <time>2021-04-17T11:09:33Z</time>
      </trkpt>
      <trkpt lat="-25.5820930" lon="-49.1335840">
        <ele>933.8</ele>
        <time>2021-04-17T11:09:34Z</time>
      </trkpt>
      <trkpt lat="-25.5821350" lon="-49.1335990">
        <ele>934.0</ele>
        <time>2021-04-17T11:09:35Z</time>
      </trkpt>
      <trkpt lat="-25.5822210" lon="-49.1336290">
        <ele>934.6</ele>
        <time>2021-04-17T11:09:37Z</time>
      </trkpt>
      <trkpt lat="-25.5823080" lon="-49.1336570">
        <ele>934.8</ele>
        <time>2021-04-17T11:09:39Z</time>
      </trkpt>
      <trkpt lat="-25.5823940" lon="-49.1336850">
        <ele>935.0</ele>
        <time>2021-04-17T11:09:41Z</time>
      </trkpt>
      <trkpt lat="-25.5824800" lon="-49.1337130">
        <ele>935.0</ele>
        <time>2021-04-17T11:09:43Z</time>
      </trkpt>
      <trkpt lat="-25.5825250" lon="-49.1337290">
        <ele>935.0</ele>
        <time>2021-04-17T11:09:44Z</time>
      </trkpt>
      <trkpt lat="-25.5825690" lon="-49.1337450">
        <ele>935.0</ele>
        <time>2021-04-17T11:09:45Z</time>
      </trkpt>
      <trkpt lat="-25.5826660" lon="-49.1337830">
        <ele>935.0</ele>
        <time>2021-04-17T11:09:47Z</time>
      </trkpt>
      <trkpt lat="-25.5827190" lon="-49.1337990">
        <ele>935.0</ele>
        <time>2021-04-17T11:09:48Z</time>
      </trkpt>
      <trkpt lat="-25.5827740" lon="-49.1338100">
        <ele>935.0</ele>
        <time>2021-04-17T11:09:49Z</time>
      </trkpt>
      <trkpt lat="-25.5828940" lon="-49.1338180">
        <ele>935.0</ele>
        <time>2021-04-17T11:09:51Z</time>
      </trkpt>
      <trkpt lat="-25.5830220" lon="-49.1337880">
        <ele>935.0</ele>
        <time>2021-04-17T11:09:53Z</time>
      </trkpt>
      <trkpt lat="-25.5831320" lon="-49.1337120">
        <ele>935.0</ele>
        <time>2021-04-17T11:09:55Z</time>
      </trkpt>
      <trkpt lat="-25.5831550" lon="-49.1336740">
        <ele>935.0</ele>
        <time>2021-04-17T11:09:56Z</time>
      </trkpt>
      <trkpt lat="-25.5831770" lon="-49.1336360">
        <ele>935.0</ele>
        <time>2021-04-17T11:09:57Z</time>
      </trkpt>
      <trkpt lat="-25.5832670" lon="-49.1334830">
        <ele>935.0</ele>
        <time>2021-04-17T11:09:59Z</time>
      </trkpt>
      <trkpt lat="-25.5833130" lon="-49.1333600">
        <ele>934.8</ele>
        <time>2021-04-17T11:10:01Z</time>
      </trkpt>
      <trkpt lat="-25.5833560" lon="-49.1332380">
        <ele>934.8</ele>
        <time>2021-04-17T11:10:03Z</time>
      </trkpt>
      <trkpt lat="-25.5833790" lon="-49.1331790">
        <ele>934.8</ele>
        <time>2021-04-17T11:10:04Z</time>
      </trkpt>
      <trkpt lat="-25.5834070" lon="-49.1331230">
        <ele>934.8</ele>
        <time>2021-04-17T11:10:05Z</time>
      </trkpt>
      <trkpt lat="-25.5834320" lon="-49.1330680">
        <ele>934.8</ele>
        <time>2021-04-17T11:10:06Z</time>
      </trkpt>
      <trkpt lat="-25.5834540" lon="-49.1330100">
        <ele>934.8</ele>
        <time>2021-04-17T11:10:07Z</time>
      </trkpt>
      <trkpt lat="-25.5834950" lon="-49.1328970">
        <ele>935.0</ele>
        <time>2021-04-17T11:10:09Z</time>
      </trkpt>
      <trkpt lat="-25.5835360" lon="-49.1327960">
        <ele>935.0</ele>
        <time>2021-04-17T11:10:11Z</time>
      </trkpt>
      <trkpt lat="-25.5835750" lon="-49.1327070">
        <ele>935.2</ele>
        <time>2021-04-17T11:10:13Z</time>
      </trkpt>
      <trkpt lat="-25.5836140" lon="-49.1326260">
        <ele>935.4</ele>
        <time>2021-04-17T11:10:15Z</time>
      </trkpt>
      <trkpt lat="-25.5836590" lon="-49.1325560">
        <ele>935.4</ele>
        <time>2021-04-17T11:10:17Z</time>
      </trkpt>
      <trkpt lat="-25.5837100" lon="-49.1324850">
        <ele>935.6</ele>
        <time>2021-04-17T11:10:19Z</time>
      </trkpt>
      <trkpt lat="-25.5837380" lon="-49.1324540">
        <ele>935.8</ele>
        <time>2021-04-17T11:10:20Z</time>
      </trkpt>
      <trkpt lat="-25.5837660" lon="-49.1324220">
        <ele>935.8</ele>
        <time>2021-04-17T11:10:21Z</time>
      </trkpt>
      <trkpt lat="-25.5838240" lon="-49.1323650">
        <ele>935.8</ele>
        <time>2021-04-17T11:10:23Z</time>
      </trkpt>
      <trkpt lat="-25.5838820" lon="-49.1323050">
        <ele>936.0</ele>
        <time>2021-04-17T11:10:25Z</time>
      </trkpt>
      <trkpt lat="-25.5839410" lon="-49.1322460">
        <ele>936.0</ele>
        <time>2021-04-17T11:10:27Z</time>
      </trkpt>
      <trkpt lat="-25.5840020" lon="-49.1321780">
        <ele>936.2</ele>
        <time>2021-04-17T11:10:29Z</time>
      </trkpt>
      <trkpt lat="-25.5840590" lon="-49.1321060">
        <ele>936.2</ele>
        <time>2021-04-17T11:10:31Z</time>
      </trkpt>
      <trkpt lat="-25.5841070" lon="-49.1320230">
        <ele>936.2</ele>
        <time>2021-04-17T11:10:33Z</time>
      </trkpt>
      <trkpt lat="-25.5841490" lon="-49.1319310">
        <ele>936.2</ele>
        <time>2021-04-17T11:10:35Z</time>
      </trkpt>
      <trkpt lat="-25.5841650" lon="-49.1318850">
        <ele>936.4</ele>
        <time>2021-04-17T11:10:36Z</time>
      </trkpt>
      <trkpt lat="-25.5841780" lon="-49.1318390">
        <ele>936.4</ele>
        <time>2021-04-17T11:10:37Z</time>
      </trkpt>
      <trkpt lat="-25.5842000" lon="-49.1317430">
        <ele>936.6</ele>
        <time>2021-04-17T11:10:39Z</time>
      </trkpt>
      <trkpt lat="-25.5842170" lon="-49.1316420">
        <ele>936.6</ele>
        <time>2021-04-17T11:10:41Z</time>
      </trkpt>
      <trkpt lat="-25.5842270" lon="-49.1315910">
        <ele>936.8</ele>
        <time>2021-04-17T11:10:42Z</time>
      </trkpt>
      <trkpt lat="-25.5842360" lon="-49.1315390">
        <ele>936.8</ele>
        <time>2021-04-17T11:10:43Z</time>
      </trkpt>
      <trkpt lat="-25.5842590" lon="-49.1314340">
        <ele>936.8</ele>
        <time>2021-04-17T11:10:45Z</time>
      </trkpt>
      <trkpt lat="-25.5842800" lon="-49.1313280">
        <ele>936.8</ele>
        <time>2021-04-17T11:10:47Z</time>
      </trkpt>
      <trkpt lat="-25.5843040" lon="-49.1312270">
        <ele>936.8</ele>
        <time>2021-04-17T11:10:49Z</time>
      </trkpt>
      <trkpt lat="-25.5843310" lon="-49.1311280">
        <ele>936.8</ele>
        <time>2021-04-17T11:10:51Z</time>
      </trkpt>
      <trkpt lat="-25.5843450" lon="-49.1310800">
        <ele>936.8</ele>
        <time>2021-04-17T11:10:52Z</time>
      </trkpt>
      <trkpt lat="-25.5843600" lon="-49.1310320">
        <ele>936.8</ele>
        <time>2021-04-17T11:10:53Z</time>
      </trkpt>
      <trkpt lat="-25.5843920" lon="-49.1309370">
        <ele>936.6</ele>
        <time>2021-04-17T11:10:55Z</time>
      </trkpt>
      <trkpt lat="-25.5844260" lon="-49.1308400">
        <ele>936.6</ele>
        <time>2021-04-17T11:10:57Z</time>
      </trkpt>
      <trkpt lat="-25.5844600" lon="-49.1307320">
        <ele>936.4</ele>
        <time>2021-04-17T11:10:59Z</time>
      </trkpt>
      <trkpt lat="-25.5844940" lon="-49.1306200">
        <ele>936.2</ele>
        <time>2021-04-17T11:11:01Z</time>
      </trkpt>
      <trkpt lat="-25.5845240" lon="-49.1305030">
        <ele>936.0</ele>
        <time>2021-04-17T11:11:03Z</time>
      </trkpt>
      <trkpt lat="-25.5845470" lon="-49.1303800">
        <ele>936.0</ele>
        <time>2021-04-17T11:11:05Z</time>
      </trkpt>
      <trkpt lat="-25.5845560" lon="-49.1303190">
        <ele>936.0</ele>
        <time>2021-04-17T11:11:06Z</time>
      </trkpt>
      <trkpt lat="-25.5845620" lon="-49.1302600">
        <ele>936.0</ele>
        <time>2021-04-17T11:11:07Z</time>
      </trkpt>
      <trkpt lat="-25.5845660" lon="-49.1301420">
        <ele>936.0</ele>
        <time>2021-04-17T11:11:09Z</time>
      </trkpt>
      <trkpt lat="-25.5845620" lon="-49.1300290">
        <ele>935.8</ele>
        <time>2021-04-17T11:11:11Z</time>
      </trkpt>
      <trkpt lat="-25.5845580" lon="-49.1299770">
        <ele>935.8</ele>
        <time>2021-04-17T11:11:12Z</time>
      </trkpt>
      <trkpt lat="-25.5845540" lon="-49.1299260">
        <ele>935.8</ele>
        <time>2021-04-17T11:11:13Z</time>
      </trkpt>
      <trkpt lat="-25.5845500" lon="-49.1298230">
        <ele>935.6</ele>
        <time>2021-04-17T11:11:15Z</time>
      </trkpt>
      <trkpt lat="-25.5845450" lon="-49.1297220">
        <ele>935.6</ele>
        <time>2021-04-17T11:11:17Z</time>
      </trkpt>
      <trkpt lat="-25.5845430" lon="-49.1296180">
        <ele>935.4</ele>
        <time>2021-04-17T11:11:19Z</time>
      </trkpt>
      <trkpt lat="-25.5845400" lon="-49.1295100">
        <ele>935.4</ele>
        <time>2021-04-17T11:11:21Z</time>
      </trkpt>
      <trkpt lat="-25.5845410" lon="-49.1293980">
        <ele>935.4</ele>
        <time>2021-04-17T11:11:23Z</time>
      </trkpt>
      <trkpt lat="-25.5845470" lon="-49.1292800">
        <ele>935.2</ele>
        <time>2021-04-17T11:11:25Z</time>
      </trkpt>
      <trkpt lat="-25.5845560" lon="-49.1291620">
        <ele>935.2</ele>
        <time>2021-04-17T11:11:27Z</time>
      </trkpt>
      <trkpt lat="-25.5845640" lon="-49.1290440">
        <ele>935.0</ele>
        <time>2021-04-17T11:11:29Z</time>
      </trkpt>
      <trkpt lat="-25.5845760" lon="-49.1289250">
        <ele>935.0</ele>
        <time>2021-04-17T11:11:31Z</time>
      </trkpt>
      <trkpt lat="-25.5845890" lon="-49.1288050">
        <ele>935.0</ele>
        <time>2021-04-17T11:11:33Z</time>
      </trkpt>
      <trkpt lat="-25.5846100" lon="-49.1286840">
        <ele>935.0</ele>
        <time>2021-04-17T11:11:35Z</time>
      </trkpt>
      <trkpt lat="-25.5846440" lon="-49.1285710">
        <ele>935.0</ele>
        <time>2021-04-17T11:11:37Z</time>
      </trkpt>
      <trkpt lat="-25.5846830" lon="-49.1284590">
        <ele>935.0</ele>
        <time>2021-04-17T11:11:39Z</time>
      </trkpt>
      <trkpt lat="-25.5847300" lon="-49.1283500">
        <ele>935.2</ele>
        <time>2021-04-17T11:11:41Z</time>
      </trkpt>
      <trkpt lat="-25.5847570" lon="-49.1282990">
        <ele>935.2</ele>
        <time>2021-04-17T11:11:42Z</time>
      </trkpt>
      <trkpt lat="-25.5847860" lon="-49.1282500">
        <ele>935.2</ele>
        <time>2021-04-17T11:11:43Z</time>
      </trkpt>
      <trkpt lat="-25.5848470" lon="-49.1281540">
        <ele>935.4</ele>
        <time>2021-04-17T11:11:45Z</time>
      </trkpt>
      <trkpt lat="-25.5849080" lon="-49.1280570">
        <ele>935.4</ele>
        <time>2021-04-17T11:11:47Z</time>
      </trkpt>
      <trkpt lat="-25.5849710" lon="-49.1279610">
        <ele>935.4</ele>
        <time>2021-04-17T11:11:49Z</time>
      </trkpt>
      <trkpt lat="-25.5849930" lon="-49.1279320">
        <ele>935.6</ele>
        <time>2021-04-17T11:11:50Z</time>
      </trkpt>
      <trkpt lat="-25.5850140" lon="-49.1279030">
        <ele>935.6</ele>
        <time>2021-04-17T11:11:51Z</time>
      </trkpt>
      <trkpt lat="-25.5851000" lon="-49.1277870">
        <ele>935.8</ele>
        <time>2021-04-17T11:11:53Z</time>
      </trkpt>
      <trkpt lat="-25.5851680" lon="-49.1277060">
        <ele>936.0</ele>
        <time>2021-04-17T11:11:55Z</time>
      </trkpt>
      <trkpt lat="-25.5852350" lon="-49.1276260">
        <ele>936.2</ele>
        <time>2021-04-17T11:11:57Z</time>
      </trkpt>
      <trkpt lat="-25.5852680" lon="-49.1275870">
        <ele>936.2</ele>
        <time>2021-04-17T11:11:58Z</time>
      </trkpt>
      <trkpt lat="-25.5853030" lon="-49.1275490">
        <ele>936.2</ele>
        <time>2021-04-17T11:11:59Z</time>
      </trkpt>
      <trkpt lat="-25.5853740" lon="-49.1274770">
        <ele>936.2</ele>
        <time>2021-04-17T11:12:01Z</time>
      </trkpt>
      <trkpt lat="-25.5854450" lon="-49.1274050">
        <ele>936.6</ele>
        <time>2021-04-17T11:12:03Z</time>
      </trkpt>
      <trkpt lat="-25.5855170" lon="-49.1273370">
        <ele>936.8</ele>
        <time>2021-04-17T11:12:05Z</time>
      </trkpt>
      <trkpt lat="-25.5855530" lon="-49.1273040">
        <ele>937.0</ele>
        <time>2021-04-17T11:12:06Z</time>
      </trkpt>
      <trkpt lat="-25.5855880" lon="-49.1272720">
        <ele>937.0</ele>
        <time>2021-04-17T11:12:07Z</time>
      </trkpt>
      <trkpt lat="-25.5856620" lon="-49.1272130">
        <ele>937.2</ele>
        <time>2021-04-17T11:12:09Z</time>
      </trkpt>
      <trkpt lat="-25.5857310" lon="-49.1271550">
        <ele>937.2</ele>
        <time>2021-04-17T11:12:11Z</time>
      </trkpt>
      <trkpt lat="-25.5857640" lon="-49.1271270">
        <ele>937.6</ele>
        <time>2021-04-17T11:12:12Z</time>
      </trkpt>
      <trkpt lat="-25.5857980" lon="-49.1271000">
        <ele>937.8</ele>
        <time>2021-04-17T11:12:13Z</time>
      </trkpt>
      <trkpt lat="-25.5858650" lon="-49.1270450">
        <ele>938.2</ele>
        <time>2021-04-17T11:12:15Z</time>
      </trkpt>
      <trkpt lat="-25.5859330" lon="-49.1269940">
        <ele>938.6</ele>
        <time>2021-04-17T11:12:17Z</time>
      </trkpt>
      <trkpt lat="-25.5859670" lon="-49.1269690">
        <ele>939.0</ele>
        <time>2021-04-17T11:12:18Z</time>
      </trkpt>
      <trkpt lat="-25.5860000" lon="-49.1269410">
        <ele>939.2</ele>
        <time>2021-04-17T11:12:19Z</time>
      </trkpt>
      <trkpt lat="-25.5860670" lon="-49.1268880">
        <ele>939.4</ele>
        <time>2021-04-17T11:12:21Z</time>
      </trkpt>
      <trkpt lat="-25.5861310" lon="-49.1268370">
        <ele>939.8</ele>
        <time>2021-04-17T11:12:23Z</time>
      </trkpt>
      <trkpt lat="-25.5861620" lon="-49.1268100">
        <ele>940.2</ele>
        <time>2021-04-17T11:12:24Z</time>
      </trkpt>
      <trkpt lat="-25.5861950" lon="-49.1267840">
        <ele>940.2</ele>
        <time>2021-04-17T11:12:25Z</time>
      </trkpt>
      <trkpt lat="-25.5862650" lon="-49.1267290">
        <ele>940.6</ele>
        <time>2021-04-17T11:12:27Z</time>
      </trkpt>
      <trkpt lat="-25.5863410" lon="-49.1266650">
        <ele>940.6</ele>
        <time>2021-04-17T11:12:29Z</time>
      </trkpt>
      <trkpt lat="-25.5864260" lon="-49.1266000">
        <ele>940.6</ele>
        <time>2021-04-17T11:12:31Z</time>
      </trkpt>
      <trkpt lat="-25.5865140" lon="-49.1265270">
        <ele>940.6</ele>
        <time>2021-04-17T11:12:33Z</time>
      </trkpt>
      <trkpt lat="-25.5866040" lon="-49.1264500">
        <ele>940.6</ele>
        <time>2021-04-17T11:12:35Z</time>
      </trkpt>
      <trkpt lat="-25.5866950" lon="-49.1263630">
        <ele>940.4</ele>
        <time>2021-04-17T11:12:37Z</time>
      </trkpt>
      <trkpt lat="-25.5867880" lon="-49.1262650">
        <ele>939.8</ele>
        <time>2021-04-17T11:12:39Z</time>
      </trkpt>
      <trkpt lat="-25.5868810" lon="-49.1261570">
        <ele>939.2</ele>
        <time>2021-04-17T11:12:41Z</time>
      </trkpt>
      <trkpt lat="-25.5869270" lon="-49.1260990">
        <ele>939.0</ele>
        <time>2021-04-17T11:12:42Z</time>
      </trkpt>
      <trkpt lat="-25.5869740" lon="-49.1260400">
        <ele>939.0</ele>
        <time>2021-04-17T11:12:43Z</time>
      </trkpt>
      <trkpt lat="-25.5870690" lon="-49.1259200">
        <ele>938.8</ele>
        <time>2021-04-17T11:12:45Z</time>
      </trkpt>
      <trkpt lat="-25.5871160" lon="-49.1258590">
        <ele>938.6</ele>
        <time>2021-04-17T11:12:46Z</time>
      </trkpt>
      <trkpt lat="-25.5871650" lon="-49.1257980">
        <ele>938.4</ele>
        <time>2021-04-17T11:12:47Z</time>
      </trkpt>
      <trkpt lat="-25.5872120" lon="-49.1257380">
        <ele>938.0</ele>
        <time>2021-04-17T11:12:48Z</time>
      </trkpt>
      <trkpt lat="-25.5872600" lon="-49.1256800">
        <ele>937.8</ele>
        <time>2021-04-17T11:12:49Z</time>
      </trkpt>
      <trkpt lat="-25.5873520" lon="-49.1255660">
        <ele>937.4</ele>
        <time>2021-04-17T11:12:51Z</time>
      </trkpt>
      <trkpt lat="-25.5874440" lon="-49.1254570">
        <ele>936.8</ele>
        <time>2021-04-17T11:12:53Z</time>
      </trkpt>
      <trkpt lat="-25.5875370" lon="-49.1253500">
        <ele>936.4</ele>
        <time>2021-04-17T11:12:55Z</time>
      </trkpt>
      <trkpt lat="-25.5876380" lon="-49.1252480">
        <ele>936.2</ele>
        <time>2021-04-17T11:12:57Z</time>
      </trkpt>
      <trkpt lat="-25.5877480" lon="-49.1251530">
        <ele>935.8</ele>
        <time>2021-04-17T11:12:59Z</time>
      </trkpt>
      <trkpt lat="-25.5878050" lon="-49.1251110">
        <ele>935.6</ele>
        <time>2021-04-17T11:13:00Z</time>
      </trkpt>
      <trkpt lat="-25.5878630" lon="-49.1250720">
        <ele>935.6</ele>
        <time>2021-04-17T11:13:01Z</time>
      </trkpt>
      <trkpt lat="-25.5879810" lon="-49.1250000">
        <ele>935.2</ele>
        <time>2021-04-17T11:13:03Z</time>
      </trkpt>
      <trkpt lat="-25.5880980" lon="-49.1249390">
        <ele>935.0</ele>
        <time>2021-04-17T11:13:05Z</time>
      </trkpt>
      <trkpt lat="-25.5882060" lon="-49.1248770">
        <ele>934.6</ele>
        <time>2021-04-17T11:13:07Z</time>
      </trkpt>
      <trkpt lat="-25.5883060" lon="-49.1248110">
        <ele>934.0</ele>
        <time>2021-04-17T11:13:09Z</time>
      </trkpt>
      <trkpt lat="-25.5883950" lon="-49.1247350">
        <ele>933.8</ele>
        <time>2021-04-17T11:13:11Z</time>
      </trkpt>
      <trkpt lat="-25.5884740" lon="-49.1246530">
        <ele>933.6</ele>
        <time>2021-04-17T11:13:13Z</time>
      </trkpt>
      <trkpt lat="-25.5884960" lon="-49.1246270">
        <ele>933.4</ele>
        <time>2021-04-17T11:13:14Z</time>
      </trkpt>
      <trkpt lat="-25.5885170" lon="-49.1246010">
        <ele>933.2</ele>
        <time>2021-04-17T11:13:15Z</time>
      </trkpt>
      <trkpt lat="-25.5886030" lon="-49.1244960">
        <ele>933.0</ele>
        <time>2021-04-17T11:13:17Z</time>
      </trkpt>
      <trkpt lat="-25.5886620" lon="-49.1244260">
        <ele>932.8</ele>
        <time>2021-04-17T11:13:19Z</time>
      </trkpt>
      <trkpt lat="-25.5887150" lon="-49.1243560">
        <ele>932.8</ele>
        <time>2021-04-17T11:13:21Z</time>
      </trkpt>
      <trkpt lat="-25.5887690" lon="-49.1242880">
        <ele>932.8</ele>
        <time>2021-04-17T11:13:23Z</time>
      </trkpt>
      <trkpt lat="-25.5888290" lon="-49.1242160">
        <ele>932.8</ele>
        <time>2021-04-17T11:13:25Z</time>
      </trkpt>
      <trkpt lat="-25.5888850" lon="-49.1241390">
        <ele>932.8</ele>
        <time>2021-04-17T11:13:27Z</time>
      </trkpt>
      <trkpt lat="-25.5889080" lon="-49.1241030">
        <ele>932.8</ele>
        <time>2021-04-17T11:13:28Z</time>
      </trkpt>
      <trkpt lat="-25.5889300" lon="-49.1240710">
        <ele>933.0</ele>
        <time>2021-04-17T11:13:29Z</time>
      </trkpt>
      <trkpt lat="-25.5889790" lon="-49.1240110">
        <ele>933.0</ele>
        <time>2021-04-17T11:13:31Z</time>
      </trkpt>
      <trkpt lat="-25.5890380" lon="-49.1239450">
        <ele>933.2</ele>
        <time>2021-04-17T11:13:33Z</time>
      </trkpt>
      <trkpt lat="-25.5890690" lon="-49.1239120">
        <ele>933.2</ele>
        <time>2021-04-17T11:13:34Z</time>
      </trkpt>
      <trkpt lat="-25.5891000" lon="-49.1238790">
        <ele>933.2</ele>
        <time>2021-04-17T11:13:35Z</time>
      </trkpt>
      <trkpt lat="-25.5891620" lon="-49.1238200">
        <ele>933.4</ele>
        <time>2021-04-17T11:13:37Z</time>
      </trkpt>
      <trkpt lat="-25.5892230" lon="-49.1237730">
        <ele>933.6</ele>
        <time>2021-04-17T11:13:39Z</time>
      </trkpt>
      <trkpt lat="-25.5892850" lon="-49.1237360">
        <ele>933.6</ele>
        <time>2021-04-17T11:13:41Z</time>
      </trkpt>
      <trkpt lat="-25.5893490" lon="-49.1237040">
        <ele>933.8</ele>
        <time>2021-04-17T11:13:43Z</time>
      </trkpt>
      <trkpt lat="-25.5894020" lon="-49.1236720">
        <ele>933.8</ele>
        <time>2021-04-17T11:13:45Z</time>
      </trkpt>
      <trkpt lat="-25.5894480" lon="-49.1236710">
        <ele>934.0</ele>
        <time>2021-04-17T11:13:47Z</time>
      </trkpt>
      <trkpt lat="-25.5894730" lon="-49.1236800">
        <ele>934.0</ele>
        <time>2021-04-17T11:13:49Z</time>
      </trkpt>
      <trkpt lat="-25.5894820" lon="-49.1236810">
        <ele>933.8</ele>
        <time>2021-04-17T11:13:51Z</time>
      </trkpt>
      <trkpt lat="-25.5894860" lon="-49.1236800">
        <ele>933.8</ele>
        <time>2021-04-17T11:13:52Z</time>
      </trkpt>
      <trkpt lat="-25.5894860" lon="-49.1236800">
        <ele>933.4</ele>
        <time>2021-04-17T11:13:53Z</time>
      </trkpt>
      <trkpt lat="-25.5894880" lon="-49.1236790">
        <ele>933.0</ele>
        <time>2021-04-17T11:13:55Z</time>
      </trkpt>
      <trkpt lat="-25.5894880" lon="-49.1236790">
        <ele>932.8</ele>
        <time>2021-04-17T11:13:57Z</time>
      </trkpt>
      <trkpt lat="-25.5894880" lon="-49.1236790">
        <ele>932.8</ele>
        <time>2021-04-17T11:13:59Z</time>
      </trkpt>
      <trkpt lat="-25.5894880" lon="-49.1236790">
        <ele>932.6</ele>
        <time>2021-04-17T11:14:01Z</time>
      </trkpt>
      <trkpt lat="-25.5894880" lon="-49.1236790">
        <ele>932.6</ele>
        <time>2021-04-17T11:14:02Z</time>
      </trkpt>
      <trkpt lat="-25.5894880" lon="-49.1236790">
        <ele>932.6</ele>
        <time>2021-04-17T11:14:03Z</time>
      </trkpt>
      <trkpt lat="-25.5894880" lon="-49.1236790">
        <ele>932.6</ele>
        <time>2021-04-17T11:14:05Z</time>
      </trkpt>
      <trkpt lat="-25.5894880" lon="-49.1236780">
        <ele>932.6</ele>
        <time>2021-04-17T11:14:07Z</time>
      </trkpt>
      <trkpt lat="-25.5894880" lon="-49.1236790">
        <ele>932.6</ele>
        <time>2021-04-17T11:14:09Z</time>
      </trkpt>
      <trkpt lat="-25.5894880" lon="-49.1236790">
        <ele>932.6</ele>
        <time>2021-04-17T11:14:11Z</time>
      </trkpt>
      <trkpt lat="-25.5894880" lon="-49.1236790">
        <ele>932.6</ele>
        <time>2021-04-17T11:14:13Z</time>
      </trkpt>
      <trkpt lat="-25.5894880" lon="-49.1236790">
        <ele>932.6</ele>
        <time>2021-04-17T11:14:15Z</time>
      </trkpt>
      <trkpt lat="-25.5894880" lon="-49.1236780">
        <ele>932.6</ele>
        <time>2021-04-17T11:14:17Z</time>
      </trkpt>
      <trkpt lat="-25.5894880" lon="-49.1236790">
        <ele>932.6</ele>
        <time>2021-04-17T11:14:19Z</time>
      </trkpt>
      <trkpt lat="-25.5894880" lon="-49.1236790">
        <ele>932.6</ele>
        <time>2021-04-17T11:14:20Z</time>
      </trkpt>
      <trkpt lat="-25.5894880" lon="-49.1236790">
        <ele>932.6</ele>
        <time>2021-04-17T11:14:21Z</time>
      </trkpt>
      <trkpt lat="-25.5894880" lon="-49.1236790">
        <ele>932.6</ele>
        <time>2021-04-17T11:14:23Z</time>
      </trkpt>
      <trkpt lat="-25.5894880" lon="-49.1236790">
        <ele>932.6</ele>
        <time>2021-04-17T11:14:25Z</time>
      </trkpt>
      <trkpt lat="-25.5894880" lon="-49.1236790">
        <ele>932.6</ele>
        <time>2021-04-17T11:14:27Z</time>
      </trkpt>
      <trkpt lat="-25.5894880" lon="-49.1236790">
        <ele>932.6</ele>
        <time>2021-04-17T11:14:29Z</time>
      </trkpt>
      <trkpt lat="-25.5894880" lon="-49.1236780">
        <ele>932.6</ele>
        <time>2021-04-17T11:14:31Z</time>
      </trkpt>
      <trkpt lat="-25.5894880" lon="-49.1236780">
        <ele>932.6</ele>
        <time>2021-04-17T11:14:33Z</time>
      </trkpt>
      <trkpt lat="-25.5894880" lon="-49.1236780">
        <ele>932.6</ele>
        <time>2021-04-17T11:14:35Z</time>
      </trkpt>
      <trkpt lat="-25.5894880" lon="-49.1236780">
        <ele>932.6</ele>
        <time>2021-04-17T11:14:37Z</time>
      </trkpt>
      <trkpt lat="-25.5895070" lon="-49.1236570">
        <ele>932.6</ele>
        <time>2021-04-17T11:14:39Z</time>
      </trkpt>
      <trkpt lat="-25.5895140" lon="-49.1236380">
        <ele>932.6</ele>
        <time>2021-04-17T11:14:40Z</time>
      </trkpt>
      <trkpt lat="-25.5895150" lon="-49.1236150">
        <ele>932.6</ele>
        <time>2021-04-17T11:14:41Z</time>
      </trkpt>
      <trkpt lat="-25.5895180" lon="-49.1235590">
        <ele>932.6</ele>
        <time>2021-04-17T11:14:43Z</time>
      </trkpt>
      <trkpt lat="-25.5895360" lon="-49.1234950">
        <ele>932.4</ele>
        <time>2021-04-17T11:14:45Z</time>
      </trkpt>
      <trkpt lat="-25.5895580" lon="-49.1234610">
        <ele>932.2</ele>
        <time>2021-04-17T11:14:46Z</time>
      </trkpt>
      <trkpt lat="-25.5895840" lon="-49.1234280">
        <ele>932.2</ele>
        <time>2021-04-17T11:14:47Z</time>
      </trkpt>
      <trkpt lat="-25.5896490" lon="-49.1233620">
        <ele>932.2</ele>
        <time>2021-04-17T11:14:49Z</time>
      </trkpt>
      <trkpt lat="-25.5897240" lon="-49.1232990">
        <ele>932.2</ele>
        <time>2021-04-17T11:14:51Z</time>
      </trkpt>
      <trkpt lat="-25.5898030" lon="-49.1232310">
        <ele>932.0</ele>
        <time>2021-04-17T11:14:53Z</time>
      </trkpt>
      <trkpt lat="-25.5898830" lon="-49.1231630">
        <ele>931.8</ele>
        <time>2021-04-17T11:14:55Z</time>
      </trkpt>
      <trkpt lat="-25.5899700" lon="-49.1230920">
        <ele>931.4</ele>
        <time>2021-04-17T11:14:57Z</time>
      </trkpt>
      <trkpt lat="-25.5900610" lon="-49.1230180">
        <ele>931.2</ele>
        <time>2021-04-17T11:14:59Z</time>
      </trkpt>
      <trkpt lat="-25.5901070" lon="-49.1229810">
        <ele>931.0</ele>
        <time>2021-04-17T11:15:00Z</time>
      </trkpt>
      <trkpt lat="-25.5901550" lon="-49.1229450">
        <ele>930.8</ele>
        <time>2021-04-17T11:15:01Z</time>
      </trkpt>
      <trkpt lat="-25.5902550" lon="-49.1228700">
        <ele>930.4</ele>
        <time>2021-04-17T11:15:03Z</time>
      </trkpt>
      <trkpt lat="-25.5903060" lon="-49.1228320">
        <ele>930.4</ele>
        <time>2021-04-17T11:15:04Z</time>
      </trkpt>
      <trkpt lat="-25.5903580" lon="-49.1227940">
        <ele>930.2</ele>
        <time>2021-04-17T11:15:05Z</time>
      </trkpt>
      <trkpt lat="-25.5904640" lon="-49.1227200">
        <ele>930.0</ele>
        <time>2021-04-17T11:15:07Z</time>
      </trkpt>
      <trkpt lat="-25.5905720" lon="-49.1226500">
        <ele>929.8</ele>
        <time>2021-04-17T11:15:09Z</time>
      </trkpt>
      <trkpt lat="-25.5906790" lon="-49.1225840">
        <ele>929.6</ele>
        <time>2021-04-17T11:15:11Z</time>
      </trkpt>
      <trkpt lat="-25.5907830" lon="-49.1225160">
        <ele>929.2</ele>
        <time>2021-04-17T11:15:13Z</time>
      </trkpt>
      <trkpt lat="-25.5908130" lon="-49.1224900">
        <ele>929.2</ele>
        <time>2021-04-17T11:15:14Z</time>
      </trkpt>
      <trkpt lat="-25.5908430" lon="-49.1224640">
        <ele>929.2</ele>
        <time>2021-04-17T11:15:15Z</time>
      </trkpt>
      <trkpt lat="-25.5909640" lon="-49.1223610">
        <ele>929.2</ele>
        <time>2021-04-17T11:15:17Z</time>
      </trkpt>
      <trkpt lat="-25.5910390" lon="-49.1222820">
        <ele>929.0</ele>
        <time>2021-04-17T11:15:19Z</time>
      </trkpt>
      <trkpt lat="-25.5911060" lon="-49.1222010">
        <ele>929.0</ele>
        <time>2021-04-17T11:15:21Z</time>
      </trkpt>
      <trkpt lat="-25.5911710" lon="-49.1221220">
        <ele>929.2</ele>
        <time>2021-04-17T11:15:23Z</time>
      </trkpt>
      <trkpt lat="-25.5912290" lon="-49.1220430">
        <ele>929.4</ele>
        <time>2021-04-17T11:15:25Z</time>
      </trkpt>
      <trkpt lat="-25.5912770" lon="-49.1219660">
        <ele>929.8</ele>
        <time>2021-04-17T11:15:27Z</time>
      </trkpt>
      <trkpt lat="-25.5912990" lon="-49.1219290">
        <ele>930.2</ele>
        <time>2021-04-17T11:15:28Z</time>
      </trkpt>
      <trkpt lat="-25.5913210" lon="-49.1218910">
        <ele>930.4</ele>
        <time>2021-04-17T11:15:29Z</time>
      </trkpt>
      <trkpt lat="-25.5913620" lon="-49.1218200">
        <ele>930.6</ele>
        <time>2021-04-17T11:15:31Z</time>
      </trkpt>
      <trkpt lat="-25.5913980" lon="-49.1217520">
        <ele>930.8</ele>
        <time>2021-04-17T11:15:33Z</time>
      </trkpt>
      <trkpt lat="-25.5914320" lon="-49.1216810">
        <ele>931.0</ele>
        <time>2021-04-17T11:15:35Z</time>
      </trkpt>
      <trkpt lat="-25.5914490" lon="-49.1216460">
        <ele>931.2</ele>
        <time>2021-04-17T11:15:36Z</time>
      </trkpt>
      <trkpt lat="-25.5914640" lon="-49.1216110">
        <ele>931.6</ele>
        <time>2021-04-17T11:15:37Z</time>
      </trkpt>
      <trkpt lat="-25.5914950" lon="-49.1215440">
        <ele>932.2</ele>
        <time>2021-04-17T11:15:39Z</time>
      </trkpt>
      <trkpt lat="-25.5915260" lon="-49.1214800">
        <ele>932.8</ele>
        <time>2021-04-17T11:15:41Z</time>
      </trkpt>
      <trkpt lat="-25.5915530" lon="-49.1214140">
        <ele>933.4</ele>
        <time>2021-04-17T11:15:43Z</time>
      </trkpt>
      <trkpt lat="-25.5915800" lon="-49.1213480">
        <ele>934.0</ele>
        <time>2021-04-17T11:15:45Z</time>
      </trkpt>
      <trkpt lat="-25.5916100" lon="-49.1212820">
        <ele>934.4</ele>
        <time>2021-04-17T11:15:47Z</time>
      </trkpt>
      <trkpt lat="-25.5916430" lon="-49.1212130">
        <ele>934.6</ele>
        <time>2021-04-17T11:15:49Z</time>
      </trkpt>
      <trkpt lat="-25.5916760" lon="-49.1211380">
        <ele>934.8</ele>
        <time>2021-04-17T11:15:51Z</time>
      </trkpt>
      <trkpt lat="-25.5917130" lon="-49.1210550">
        <ele>934.8</ele>
        <time>2021-04-17T11:15:53Z</time>
      </trkpt>
      <trkpt lat="-25.5917530" lon="-49.1209660">
        <ele>934.8</ele>
        <time>2021-04-17T11:15:55Z</time>
      </trkpt>
      <trkpt lat="-25.5917930" lon="-49.1208790">
        <ele>934.8</ele>
        <time>2021-04-17T11:15:57Z</time>
      </trkpt>
      <trkpt lat="-25.5918390" lon="-49.1207980">
        <ele>934.8</ele>
        <time>2021-04-17T11:15:59Z</time>
      </trkpt>
      <trkpt lat="-25.5918790" lon="-49.1207130">
        <ele>934.4</ele>
        <time>2021-04-17T11:16:01Z</time>
      </trkpt>
      <trkpt lat="-25.5919230" lon="-49.1206290">
        <ele>934.2</ele>
        <time>2021-04-17T11:16:03Z</time>
      </trkpt>
      <trkpt lat="-25.5919670" lon="-49.1205460">
        <ele>934.0</ele>
        <time>2021-04-17T11:16:05Z</time>
      </trkpt>
      <trkpt lat="-25.5920070" lon="-49.1204660">
        <ele>933.8</ele>
        <time>2021-04-17T11:16:07Z</time>
      </trkpt>
      <trkpt lat="-25.5920510" lon="-49.1203880">
        <ele>933.6</ele>
        <time>2021-04-17T11:16:09Z</time>
      </trkpt>
      <trkpt lat="-25.5920720" lon="-49.1203470">
        <ele>933.6</ele>
        <time>2021-04-17T11:16:10Z</time>
      </trkpt>
      <trkpt lat="-25.5920940" lon="-49.1203050">
        <ele>933.6</ele>
        <time>2021-04-17T11:16:11Z</time>
      </trkpt>
      <trkpt lat="-25.5921380" lon="-49.1202210">
        <ele>933.2</ele>
        <time>2021-04-17T11:16:13Z</time>
      </trkpt>
      <trkpt lat="-25.5921880" lon="-49.1201330">
        <ele>933.4</ele>
        <time>2021-04-17T11:16:15Z</time>
      </trkpt>
      <trkpt lat="-25.5922130" lon="-49.1200870">
        <ele>933.2</ele>
        <time>2021-04-17T11:16:16Z</time>
      </trkpt>
      <trkpt lat="-25.5922400" lon="-49.1200410">
        <ele>933.2</ele>
        <time>2021-04-17T11:16:17Z</time>
      </trkpt>
      <trkpt lat="-25.5922680" lon="-49.1199920">
        <ele>933.2</ele>
        <time>2021-04-17T11:16:18Z</time>
      </trkpt>
      <trkpt lat="-25.5922970" lon="-49.1199410">
        <ele>933.2</ele>
        <time>2021-04-17T11:16:19Z</time>
      </trkpt>
      <trkpt lat="-25.5923580" lon="-49.1198310">
        <ele>933.2</ele>
        <time>2021-04-17T11:16:21Z</time>
      </trkpt>
      <trkpt lat="-25.5924220" lon="-49.1197020">
        <ele>932.8</ele>
        <time>2021-04-17T11:16:23Z</time>
      </trkpt>
      <trkpt lat="-25.5924510" lon="-49.1196320">
        <ele>932.8</ele>
        <time>2021-04-17T11:16:24Z</time>
      </trkpt>
      <trkpt lat="-25.5924760" lon="-49.1195570">
        <ele>932.6</ele>
        <time>2021-04-17T11:16:25Z</time>
      </trkpt>
      <trkpt lat="-25.5925120" lon="-49.1193970">
        <ele>932.0</ele>
        <time>2021-04-17T11:16:27Z</time>
      </trkpt>
      <trkpt lat="-25.5925200" lon="-49.1192280">
        <ele>931.6</ele>
        <time>2021-04-17T11:16:29Z</time>
      </trkpt>
      <trkpt lat="-25.5925110" lon="-49.1190460">
        <ele>931.0</ele>
        <time>2021-04-17T11:16:31Z</time>
      </trkpt>
      <trkpt lat="-25.5925070" lon="-49.1189780">
        <ele>930.8</ele>
        <time>2021-04-17T11:16:32Z</time>
      </trkpt>
      <trkpt lat="-25.5925030" lon="-49.1189110">
        <ele>930.6</ele>
        <time>2021-04-17T11:16:33Z</time>
      </trkpt>
      <trkpt lat="-25.5924880" lon="-49.1186420">
        <ele>929.2</ele>
        <time>2021-04-17T11:16:35Z</time>
      </trkpt>
      <trkpt lat="-25.5924750" lon="-49.1184280">
        <ele>928.2</ele>
        <time>2021-04-17T11:16:37Z</time>
      </trkpt>
      <trkpt lat="-25.5924700" lon="-49.1183530">
        <ele>927.6</ele>
        <time>2021-04-17T11:16:38Z</time>
      </trkpt>
      <trkpt lat="-25.5924650" lon="-49.1182790">
        <ele>927.4</ele>
        <time>2021-04-17T11:16:39Z</time>
      </trkpt>
      <trkpt lat="-25.5924460" lon="-49.1179810">
        <ele>926.8</ele>
        <time>2021-04-17T11:16:41Z</time>
      </trkpt>
      <trkpt lat="-25.5924370" lon="-49.1178620">
        <ele>926.2</ele>
        <time>2021-04-17T11:16:42Z</time>
      </trkpt>
      <trkpt lat="-25.5924290" lon="-49.1177420">
        <ele>925.2</ele>
        <time>2021-04-17T11:16:43Z</time>
      </trkpt>
      <trkpt lat="-25.5924250" lon="-49.1176480">
        <ele>924.4</ele>
        <time>2021-04-17T11:16:44Z</time>
      </trkpt>
      <trkpt lat="-25.5924200" lon="-49.1175550">
        <ele>923.4</ele>
        <time>2021-04-17T11:16:45Z</time>
      </trkpt>
      <trkpt lat="-25.5924110" lon="-49.1173690">
        <ele>922.6</ele>
        <time>2021-04-17T11:16:46Z</time>
      </trkpt>
      <trkpt lat="-25.5924100" lon="-49.1172360">
        <ele>921.8</ele>
        <time>2021-04-17T11:16:47Z</time>
      </trkpt>
      <trkpt lat="-25.5924160" lon="-49.1170970">
        <ele>921.0</ele>
        <time>2021-04-17T11:16:48Z</time>
      </trkpt>
      <trkpt lat="-25.5924250" lon="-49.1169510">
        <ele>920.2</ele>
        <time>2021-04-17T11:16:49Z</time>
      </trkpt>
      <trkpt lat="-25.5924390" lon="-49.1168000">
        <ele>919.4</ele>
        <time>2021-04-17T11:16:50Z</time>
      </trkpt>
      <trkpt lat="-25.5924550" lon="-49.1166430">
        <ele>918.6</ele>
        <time>2021-04-17T11:16:51Z</time>
      </trkpt>
      <trkpt lat="-25.5924750" lon="-49.1164790">
        <ele>917.6</ele>
        <time>2021-04-17T11:16:52Z</time>
      </trkpt>
      <trkpt lat="-25.5924980" lon="-49.1163060">
        <ele>916.6</ele>
        <time>2021-04-17T11:16:53Z</time>
      </trkpt>
      <trkpt lat="-25.5925200" lon="-49.1161300">
        <ele>915.8</ele>
        <time>2021-04-17T11:16:54Z</time>
      </trkpt>
      <trkpt lat="-25.5925420" lon="-49.1159530">
        <ele>915.0</ele>
        <time>2021-04-17T11:16:55Z</time>
      </trkpt>
      <trkpt lat="-25.5925630" lon="-49.1157750">
        <ele>914.0</ele>
        <time>2021-04-17T11:16:56Z</time>
      </trkpt>
      <trkpt lat="-25.5925840" lon="-49.1156010">
        <ele>912.6</ele>
        <time>2021-04-17T11:16:57Z</time>
      </trkpt>
      <trkpt lat="-25.5926050" lon="-49.1154390">
        <ele>911.2</ele>
        <time>2021-04-17T11:16:58Z</time>
      </trkpt>
      <trkpt lat="-25.5926210" lon="-49.1152860">
        <ele>909.8</ele>
        <time>2021-04-17T11:16:59Z</time>
      </trkpt>
      <trkpt lat="-25.5926300" lon="-49.1151390">
        <ele>908.2</ele>
        <time>2021-04-17T11:17:00Z</time>
      </trkpt>
      <trkpt lat="-25.5926330" lon="-49.1149950">
        <ele>906.4</ele>
        <time>2021-04-17T11:17:01Z</time>
      </trkpt>
      <trkpt lat="-25.5926270" lon="-49.1148540">
        <ele>904.4</ele>
        <time>2021-04-17T11:17:02Z</time>
      </trkpt>
      <trkpt lat="-25.5926110" lon="-49.1147190">
        <ele>900.6</ele>
        <time>2021-04-17T11:17:03Z</time>
      </trkpt>
      <trkpt lat="-25.5925840" lon="-49.1145900">
        <ele>899.4</ele>
        <time>2021-04-17T11:17:04Z</time>
      </trkpt>
      <trkpt lat="-25.5925450" lon="-49.1144700">
        <ele>898.8</ele>
        <time>2021-04-17T11:17:05Z</time>
      </trkpt>
      <trkpt lat="-25.5924920" lon="-49.1143630">
        <ele>897.8</ele>
        <time>2021-04-17T11:17:06Z</time>
      </trkpt>
      <trkpt lat="-25.5924260" lon="-49.1142720">
        <ele>896.2</ele>
        <time>2021-04-17T11:17:07Z</time>
      </trkpt>
      <trkpt lat="-25.5923510" lon="-49.1141940">
        <ele>895.0</ele>
        <time>2021-04-17T11:17:08Z</time>
      </trkpt>
      <trkpt lat="-25.5922690" lon="-49.1141250">
        <ele>893.8</ele>
        <time>2021-04-17T11:17:09Z</time>
      </trkpt>
      <trkpt lat="-25.5921860" lon="-49.1140650">
        <ele>892.8</ele>
        <time>2021-04-17T11:17:10Z</time>
      </trkpt>
      <trkpt lat="-25.5921030" lon="-49.1140150">
        <ele>891.6</ele>
        <time>2021-04-17T11:17:11Z</time>
      </trkpt>
      <trkpt lat="-25.5920260" lon="-49.1139670">
        <ele>891.0</ele>
        <time>2021-04-17T11:17:12Z</time>
      </trkpt>
      <trkpt lat="-25.5919530" lon="-49.1139220">
        <ele>890.6</ele>
        <time>2021-04-17T11:17:13Z</time>
      </trkpt>
      <trkpt lat="-25.5918180" lon="-49.1138350">
        <ele>889.4</ele>
        <time>2021-04-17T11:17:15Z</time>
      </trkpt>
      <trkpt lat="-25.5916910" lon="-49.1137540">
        <ele>888.8</ele>
        <time>2021-04-17T11:17:17Z</time>
      </trkpt>
      <trkpt lat="-25.5916320" lon="-49.1137130">
        <ele>888.6</ele>
        <time>2021-04-17T11:17:18Z</time>
      </trkpt>
      <trkpt lat="-25.5915740" lon="-49.1136710">
        <ele>888.6</ele>
        <time>2021-04-17T11:17:19Z</time>
      </trkpt>
      <trkpt lat="-25.5914600" lon="-49.1135960">
        <ele>888.6</ele>
        <time>2021-04-17T11:17:21Z</time>
      </trkpt>
      <trkpt lat="-25.5913540" lon="-49.1135190">
        <ele>888.4</ele>
        <time>2021-04-17T11:17:23Z</time>
      </trkpt>
      <trkpt lat="-25.5912500" lon="-49.1134490">
        <ele>888.6</ele>
        <time>2021-04-17T11:17:25Z</time>
      </trkpt>
      <trkpt lat="-25.5911520" lon="-49.1133790">
        <ele>888.6</ele>
        <time>2021-04-17T11:17:27Z</time>
      </trkpt>
      <trkpt lat="-25.5910610" lon="-49.1133060">
        <ele>888.8</ele>
        <time>2021-04-17T11:17:29Z</time>
      </trkpt>
      <trkpt lat="-25.5909790" lon="-49.1132300">
        <ele>889.0</ele>
        <time>2021-04-17T11:17:31Z</time>
      </trkpt>
      <trkpt lat="-25.5909430" lon="-49.1131890">
        <ele>889.2</ele>
        <time>2021-04-17T11:17:32Z</time>
      </trkpt>
      <trkpt lat="-25.5909090" lon="-49.1131460">
        <ele>889.2</ele>
        <time>2021-04-17T11:17:33Z</time>
      </trkpt>
      <trkpt lat="-25.5908500" lon="-49.1130550">
        <ele>889.4</ele>
        <time>2021-04-17T11:17:35Z</time>
      </trkpt>
      <trkpt lat="-25.5908050" lon="-49.1129590">
        <ele>889.4</ele>
        <time>2021-04-17T11:17:37Z</time>
      </trkpt>
      <trkpt lat="-25.5907870" lon="-49.1129110">
        <ele>889.6</ele>
        <time>2021-04-17T11:17:38Z</time>
      </trkpt>
      <trkpt lat="-25.5907740" lon="-49.1128600">
        <ele>889.6</ele>
        <time>2021-04-17T11:17:39Z</time>
      </trkpt>
      <trkpt lat="-25.5907570" lon="-49.1127590">
        <ele>889.8</ele>
        <time>2021-04-17T11:17:41Z</time>
      </trkpt>
      <trkpt lat="-25.5907450" lon="-49.1126720">
        <ele>890.0</ele>
        <time>2021-04-17T11:17:43Z</time>
      </trkpt>
      <trkpt lat="-25.5907380" lon="-49.1126350">
        <ele>890.0</ele>
        <time>2021-04-17T11:17:44Z</time>
      </trkpt>
      <trkpt lat="-25.5907360" lon="-49.1125990">
        <ele>890.0</ele>
        <time>2021-04-17T11:17:45Z</time>
      </trkpt>
      <trkpt lat="-25.5907390" lon="-49.1125370">
        <ele>890.4</ele>
        <time>2021-04-17T11:17:47Z</time>
      </trkpt>
      <trkpt lat="-25.5907400" lon="-49.1124850">
        <ele>891.0</ele>
        <time>2021-04-17T11:17:49Z</time>
      </trkpt>
      <trkpt lat="-25.5907450" lon="-49.1124540">
        <ele>891.2</ele>
        <time>2021-04-17T11:17:50Z</time>
      </trkpt>
      <trkpt lat="-25.5907520" lon="-49.1124220">
        <ele>891.6</ele>
        <time>2021-04-17T11:17:51Z</time>
      </trkpt>
      <trkpt lat="-25.5907660" lon="-49.1123610">
        <ele>891.8</ele>
        <time>2021-04-17T11:17:53Z</time>
      </trkpt>
      <trkpt lat="-25.5907790" lon="-49.1122960">
        <ele>892.4</ele>
        <time>2021-04-17T11:17:55Z</time>
      </trkpt>
      <trkpt lat="-25.5907900" lon="-49.1122600">
        <ele>892.6</ele>
        <time>2021-04-17T11:17:56Z</time>
      </trkpt>
      <trkpt lat="-25.5908010" lon="-49.1122240">
        <ele>893.0</ele>
        <time>2021-04-17T11:17:57Z</time>
      </trkpt>
      <trkpt lat="-25.5908120" lon="-49.1121890">
        <ele>893.2</ele>
        <time>2021-04-17T11:17:58Z</time>
      </trkpt>
      <trkpt lat="-25.5908210" lon="-49.1121560">
        <ele>893.4</ele>
        <time>2021-04-17T11:17:59Z</time>
      </trkpt>
      <trkpt lat="-25.5908430" lon="-49.1120940">
        <ele>894.0</ele>
        <time>2021-04-17T11:18:01Z</time>
      </trkpt>
      <trkpt lat="-25.5908640" lon="-49.1120280">
        <ele>894.8</ele>
        <time>2021-04-17T11:18:03Z</time>
      </trkpt>
      <trkpt lat="-25.5908870" lon="-49.1119540">
        <ele>895.2</ele>
        <time>2021-04-17T11:18:05Z</time>
      </trkpt>
      <trkpt lat="-25.5909130" lon="-49.1118750">
        <ele>895.6</ele>
        <time>2021-04-17T11:18:07Z</time>
      </trkpt>
      <trkpt lat="-25.5909330" lon="-49.1117940">
        <ele>895.8</ele>
        <time>2021-04-17T11:18:09Z</time>
      </trkpt>
      <trkpt lat="-25.5909550" lon="-49.1117090">
        <ele>896.0</ele>
        <time>2021-04-17T11:18:11Z</time>
      </trkpt>
      <trkpt lat="-25.5909760" lon="-49.1116180">
        <ele>896.0</ele>
        <time>2021-04-17T11:18:13Z</time>
      </trkpt>
      <trkpt lat="-25.5909960" lon="-49.1115270">
        <ele>896.2</ele>
        <time>2021-04-17T11:18:15Z</time>
      </trkpt>
      <trkpt lat="-25.5910120" lon="-49.1114350">
        <ele>896.2</ele>
        <time>2021-04-17T11:18:17Z</time>
      </trkpt>
      <trkpt lat="-25.5910290" lon="-49.1113430">
        <ele>896.2</ele>
        <time>2021-04-17T11:18:19Z</time>
      </trkpt>
      <trkpt lat="-25.5910430" lon="-49.1112450">
        <ele>896.4</ele>
        <time>2021-04-17T11:18:21Z</time>
      </trkpt>
      <trkpt lat="-25.5910570" lon="-49.1111480">
        <ele>896.4</ele>
        <time>2021-04-17T11:18:23Z</time>
      </trkpt>
      <trkpt lat="-25.5910700" lon="-49.1110540">
        <ele>896.4</ele>
        <time>2021-04-17T11:18:25Z</time>
      </trkpt>
      <trkpt lat="-25.5910830" lon="-49.1109590">
        <ele>896.6</ele>
        <time>2021-04-17T11:18:27Z</time>
      </trkpt>
      <trkpt lat="-25.5911010" lon="-49.1108680">
        <ele>896.6</ele>
        <time>2021-04-17T11:18:29Z</time>
      </trkpt>
      <trkpt lat="-25.5911180" lon="-49.1107800">
        <ele>896.8</ele>
        <time>2021-04-17T11:18:31Z</time>
      </trkpt>
      <trkpt lat="-25.5911270" lon="-49.1107370">
        <ele>896.8</ele>
        <time>2021-04-17T11:18:32Z</time>
      </trkpt>
      <trkpt lat="-25.5911360" lon="-49.1106960">
        <ele>896.8</ele>
        <time>2021-04-17T11:18:33Z</time>
      </trkpt>
      <trkpt lat="-25.5911550" lon="-49.1106130">
        <ele>896.8</ele>
        <time>2021-04-17T11:18:35Z</time>
      </trkpt>
      <trkpt lat="-25.5911740" lon="-49.1105270">
        <ele>897.0</ele>
        <time>2021-04-17T11:18:37Z</time>
      </trkpt>
      <trkpt lat="-25.5911940" lon="-49.1104410">
        <ele>897.2</ele>
        <time>2021-04-17T11:18:39Z</time>
      </trkpt>
      <trkpt lat="-25.5912180" lon="-49.1103580">
        <ele>897.2</ele>
        <time>2021-04-17T11:18:41Z</time>
      </trkpt>
      <trkpt lat="-25.5912470" lon="-49.1102770">
        <ele>897.4</ele>
        <time>2021-04-17T11:18:43Z</time>
      </trkpt>
      <trkpt lat="-25.5912720" lon="-49.1101940">
        <ele>897.4</ele>
        <time>2021-04-17T11:18:45Z</time>
      </trkpt>
      <trkpt lat="-25.5913000" lon="-49.1101130">
        <ele>897.4</ele>
        <time>2021-04-17T11:18:47Z</time>
      </trkpt>
      <trkpt lat="-25.5913290" lon="-49.1100330">
        <ele>897.4</ele>
        <time>2021-04-17T11:18:49Z</time>
      </trkpt>
      <trkpt lat="-25.5913590" lon="-49.1099460">
        <ele>897.4</ele>
        <time>2021-04-17T11:18:51Z</time>
      </trkpt>
      <trkpt lat="-25.5913820" lon="-49.1098700">
        <ele>897.6</ele>
        <time>2021-04-17T11:18:53Z</time>
      </trkpt>
      <trkpt lat="-25.5914150" lon="-49.1097930">
        <ele>897.6</ele>
        <time>2021-04-17T11:18:55Z</time>
      </trkpt>
      <trkpt lat="-25.5914500" lon="-49.1097220">
        <ele>897.8</ele>
        <time>2021-04-17T11:18:57Z</time>
      </trkpt>
      <trkpt lat="-25.5914750" lon="-49.1096550">
        <ele>897.8</ele>
        <time>2021-04-17T11:18:59Z</time>
      </trkpt>
      <trkpt lat="-25.5915040" lon="-49.1095880">
        <ele>898.2</ele>
        <time>2021-04-17T11:19:01Z</time>
      </trkpt>
      <trkpt lat="-25.5915190" lon="-49.1095560">
        <ele>898.2</ele>
        <time>2021-04-17T11:19:02Z</time>
      </trkpt>
      <trkpt lat="-25.5915330" lon="-49.1095240">
        <ele>898.4</ele>
        <time>2021-04-17T11:19:03Z</time>
      </trkpt>
      <trkpt lat="-25.5915590" lon="-49.1094640">
        <ele>898.8</ele>
        <time>2021-04-17T11:19:05Z</time>
      </trkpt>
      <trkpt lat="-25.5915710" lon="-49.1094340">
        <ele>898.8</ele>
        <time>2021-04-17T11:19:06Z</time>
      </trkpt>
      <trkpt lat="-25.5915850" lon="-49.1094060">
        <ele>898.8</ele>
        <time>2021-04-17T11:19:07Z</time>
      </trkpt>
      <trkpt lat="-25.5916120" lon="-49.1093490">
        <ele>899.0</ele>
        <time>2021-04-17T11:19:09Z</time>
      </trkpt>
      <trkpt lat="-25.5916380" lon="-49.1092900">
        <ele>899.2</ele>
        <time>2021-04-17T11:19:11Z</time>
      </trkpt>
      <trkpt lat="-25.5916490" lon="-49.1092600">
        <ele>899.4</ele>
        <time>2021-04-17T11:19:12Z</time>
      </trkpt>
      <trkpt lat="-25.5916590" lon="-49.1092310">
        <ele>899.6</ele>
        <time>2021-04-17T11:19:13Z</time>
      </trkpt>
      <trkpt lat="-25.5916840" lon="-49.1091690">
        <ele>899.8</ele>
        <time>2021-04-17T11:19:15Z</time>
      </trkpt>
      <trkpt lat="-25.5917100" lon="-49.1091070">
        <ele>900.0</ele>
        <time>2021-04-17T11:19:17Z</time>
      </trkpt>
      <trkpt lat="-25.5917330" lon="-49.1090470">
        <ele>900.2</ele>
        <time>2021-04-17T11:19:19Z</time>
      </trkpt>
      <trkpt lat="-25.5917440" lon="-49.1090180">
        <ele>900.4</ele>
        <time>2021-04-17T11:19:20Z</time>
      </trkpt>
      <trkpt lat="-25.5917540" lon="-49.1089870">
        <ele>900.6</ele>
        <time>2021-04-17T11:19:21Z</time>
      </trkpt>
      <trkpt lat="-25.5917750" lon="-49.1089260">
        <ele>900.8</ele>
        <time>2021-04-17T11:19:23Z</time>
      </trkpt>
      <trkpt lat="-25.5917950" lon="-49.1088650">
        <ele>901.2</ele>
        <time>2021-04-17T11:19:25Z</time>
      </trkpt>
      <trkpt lat="-25.5918080" lon="-49.1088360">
        <ele>901.6</ele>
        <time>2021-04-17T11:19:26Z</time>
      </trkpt>
      <trkpt lat="-25.5918190" lon="-49.1088060">
        <ele>901.8</ele>
        <time>2021-04-17T11:19:27Z</time>
      </trkpt>
      <trkpt lat="-25.5918390" lon="-49.1087430">
        <ele>902.2</ele>
        <time>2021-04-17T11:19:29Z</time>
      </trkpt>
      <trkpt lat="-25.5918500" lon="-49.1087120">
        <ele>902.2</ele>
        <time>2021-04-17T11:19:30Z</time>
      </trkpt>
      <trkpt lat="-25.5918620" lon="-49.1086830">
        <ele>902.4</ele>
        <time>2021-04-17T11:19:31Z</time>
      </trkpt>
      <trkpt lat="-25.5918850" lon="-49.1086230">
        <ele>902.6</ele>
        <time>2021-04-17T11:19:33Z</time>
      </trkpt>
      <trkpt lat="-25.5919080" lon="-49.1085610">
        <ele>903.2</ele>
        <time>2021-04-17T11:19:35Z</time>
      </trkpt>
      <trkpt lat="-25.5919290" lon="-49.1085000">
        <ele>903.8</ele>
        <time>2021-04-17T11:19:37Z</time>
      </trkpt>
      <trkpt lat="-25.5919500" lon="-49.1084410">
        <ele>904.0</ele>
        <time>2021-04-17T11:19:39Z</time>
      </trkpt>
      <trkpt lat="-25.5919620" lon="-49.1084110">
        <ele>904.2</ele>
        <time>2021-04-17T11:19:40Z</time>
      </trkpt>
      <trkpt lat="-25.5919740" lon="-49.1083820">
        <ele>904.4</ele>
        <time>2021-04-17T11:19:41Z</time>
      </trkpt>
      <trkpt lat="-25.5919940" lon="-49.1083230">
        <ele>904.6</ele>
        <time>2021-04-17T11:19:43Z</time>
      </trkpt>
      <trkpt lat="-25.5920190" lon="-49.1082640">
        <ele>904.8</ele>
        <time>2021-04-17T11:19:45Z</time>
      </trkpt>
      <trkpt lat="-25.5920440" lon="-49.1082040">
        <ele>905.0</ele>
        <time>2021-04-17T11:19:47Z</time>
      </trkpt>
      <trkpt lat="-25.5920680" lon="-49.1081440">
        <ele>905.2</ele>
        <time>2021-04-17T11:19:49Z</time>
      </trkpt>
      <trkpt lat="-25.5920920" lon="-49.1080840">
        <ele>905.4</ele>
        <time>2021-04-17T11:19:51Z</time>
      </trkpt>
      <trkpt lat="-25.5921150" lon="-49.1080240">
        <ele>905.8</ele>
        <time>2021-04-17T11:19:53Z</time>
      </trkpt>
      <trkpt lat="-25.5921410" lon="-49.1079610">
        <ele>906.0</ele>
        <time>2021-04-17T11:19:55Z</time>
      </trkpt>
      <trkpt lat="-25.5921620" lon="-49.1078980">
        <ele>906.2</ele>
        <time>2021-04-17T11:19:57Z</time>
      </trkpt>
      <trkpt lat="-25.5921830" lon="-49.1078360">
        <ele>906.4</ele>
        <time>2021-04-17T11:19:59Z</time>
      </trkpt>
      <trkpt lat="-25.5922040" lon="-49.1077740">
        <ele>906.6</ele>
        <time>2021-04-17T11:20:01Z</time>
      </trkpt>
      <trkpt lat="-25.5922240" lon="-49.1077170">
        <ele>906.8</ele>
        <time>2021-04-17T11:20:03Z</time>
      </trkpt>
      <trkpt lat="-25.5922330" lon="-49.1076900">
        <ele>906.8</ele>
        <time>2021-04-17T11:20:04Z</time>
      </trkpt>
      <trkpt lat="-25.5922410" lon="-49.1076620">
        <ele>906.8</ele>
        <time>2021-04-17T11:20:05Z</time>
      </trkpt>
      <trkpt lat="-25.5922490" lon="-49.1076360">
        <ele>907.0</ele>
        <time>2021-04-17T11:20:06Z</time>
      </trkpt>
      <trkpt lat="-25.5922570" lon="-49.1076090">
        <ele>907.2</ele>
        <time>2021-04-17T11:20:07Z</time>
      </trkpt>
      <trkpt lat="-25.5922720" lon="-49.1075580">
        <ele>907.4</ele>
        <time>2021-04-17T11:20:09Z</time>
      </trkpt>
      <trkpt lat="-25.5922850" lon="-49.1075100">
        <ele>907.8</ele>
        <time>2021-04-17T11:20:11Z</time>
      </trkpt>
      <trkpt lat="-25.5922910" lon="-49.1074870">
        <ele>908.0</ele>
        <time>2021-04-17T11:20:12Z</time>
      </trkpt>
      <trkpt lat="-25.5922970" lon="-49.1074650">
        <ele>908.2</ele>
        <time>2021-04-17T11:20:13Z</time>
      </trkpt>
      <trkpt lat="-25.5923030" lon="-49.1074440">
        <ele>908.4</ele>
        <time>2021-04-17T11:20:14Z</time>
      </trkpt>
      <trkpt lat="-25.5923080" lon="-49.1074230">
        <ele>908.6</ele>
        <time>2021-04-17T11:20:15Z</time>
      </trkpt>
      <trkpt lat="-25.5923150" lon="-49.1073800">
        <ele>909.0</ele>
        <time>2021-04-17T11:20:17Z</time>
      </trkpt>
      <trkpt lat="-25.5923220" lon="-49.1073380">
        <ele>909.6</ele>
        <time>2021-04-17T11:20:19Z</time>
      </trkpt>
      <trkpt lat="-25.5923290" lon="-49.1072960">
        <ele>910.2</ele>
        <time>2021-04-17T11:20:21Z</time>
      </trkpt>
      <trkpt lat="-25.5923360" lon="-49.1072510">
        <ele>910.8</ele>
        <time>2021-04-17T11:20:23Z</time>
      </trkpt>
      <trkpt lat="-25.5923490" lon="-49.1072070">
        <ele>911.4</ele>
        <time>2021-04-17T11:20:25Z</time>
      </trkpt>
      <trkpt lat="-25.5923550" lon="-49.1071840">
        <ele>911.6</ele>
        <time>2021-04-17T11:20:26Z</time>
      </trkpt>
      <trkpt lat="-25.5923600" lon="-49.1071630">
        <ele>912.0</ele>
        <time>2021-04-17T11:20:27Z</time>
      </trkpt>
      <trkpt lat="-25.5923640" lon="-49.1071420">
        <ele>912.4</ele>
        <time>2021-04-17T11:20:28Z</time>
      </trkpt>
      <trkpt lat="-25.5923690" lon="-49.1071210">
        <ele>912.8</ele>
        <time>2021-04-17T11:20:29Z</time>
      </trkpt>
      <trkpt lat="-25.5923770" lon="-49.1070760">
        <ele>913.2</ele>
        <time>2021-04-17T11:20:31Z</time>
      </trkpt>
      <trkpt lat="-25.5923790" lon="-49.1070530">
        <ele>913.4</ele>
        <time>2021-04-17T11:20:32Z</time>
      </trkpt>
      <trkpt lat="-25.5923800" lon="-49.1070290">
        <ele>913.6</ele>
        <time>2021-04-17T11:20:33Z</time>
      </trkpt>
      <trkpt lat="-25.5923840" lon="-49.1069860">
        <ele>914.2</ele>
        <time>2021-04-17T11:20:35Z</time>
      </trkpt>
      <trkpt lat="-25.5923880" lon="-49.1069320">
        <ele>914.6</ele>
        <time>2021-04-17T11:20:37Z</time>
      </trkpt>
      <trkpt lat="-25.5923970" lon="-49.1068730">
        <ele>915.2</ele>
        <time>2021-04-17T11:20:39Z</time>
      </trkpt>
      <trkpt lat="-25.5924030" lon="-49.1068160">
        <ele>915.6</ele>
        <time>2021-04-17T11:20:41Z</time>
      </trkpt>
      <trkpt lat="-25.5924050" lon="-49.1067890">
        <ele>915.8</ele>
        <time>2021-04-17T11:20:42Z</time>
      </trkpt>
      <trkpt lat="-25.5924080" lon="-49.1067640">
        <ele>916.0</ele>
        <time>2021-04-17T11:20:43Z</time>
      </trkpt>
      <trkpt lat="-25.5924160" lon="-49.1067100">
        <ele>916.4</ele>
        <time>2021-04-17T11:20:45Z</time>
      </trkpt>
      <trkpt lat="-25.5924230" lon="-49.1066570">
        <ele>916.8</ele>
        <time>2021-04-17T11:20:47Z</time>
      </trkpt>
      <trkpt lat="-25.5924260" lon="-49.1066300">
        <ele>917.0</ele>
        <time>2021-04-17T11:20:48Z</time>
      </trkpt>
      <trkpt lat="-25.5924300" lon="-49.1066040">
        <ele>917.2</ele>
        <time>2021-04-17T11:20:49Z</time>
      </trkpt>
      <trkpt lat="-25.5924370" lon="-49.1065510">
        <ele>917.6</ele>
        <time>2021-04-17T11:20:51Z</time>
      </trkpt>
      <trkpt lat="-25.5924450" lon="-49.1064980">
        <ele>917.8</ele>
        <time>2021-04-17T11:20:53Z</time>
      </trkpt>
      <trkpt lat="-25.5924510" lon="-49.1064450">
        <ele>918.2</ele>
        <time>2021-04-17T11:20:55Z</time>
      </trkpt>
      <trkpt lat="-25.5924560" lon="-49.1064180">
        <ele>918.4</ele>
        <time>2021-04-17T11:20:56Z</time>
      </trkpt>
      <trkpt lat="-25.5924600" lon="-49.1063900">
        <ele>918.4</ele>
        <time>2021-04-17T11:20:57Z</time>
      </trkpt>
      <trkpt lat="-25.5924690" lon="-49.1063340">
        <ele>918.8</ele>
        <time>2021-04-17T11:20:59Z</time>
      </trkpt>
      <trkpt lat="-25.5924740" lon="-49.1062810">
        <ele>919.2</ele>
        <time>2021-04-17T11:21:01Z</time>
      </trkpt>
      <trkpt lat="-25.5924810" lon="-49.1062300">
        <ele>919.4</ele>
        <time>2021-04-17T11:21:03Z</time>
      </trkpt>
      <trkpt lat="-25.5924910" lon="-49.1061810">
        <ele>919.6</ele>
        <time>2021-04-17T11:21:05Z</time>
      </trkpt>
      <trkpt lat="-25.5924970" lon="-49.1061310">
        <ele>919.8</ele>
        <time>2021-04-17T11:21:07Z</time>
      </trkpt>
      <trkpt lat="-25.5925000" lon="-49.1060810">
        <ele>920.4</ele>
        <time>2021-04-17T11:21:09Z</time>
      </trkpt>
      <trkpt lat="-25.5925060" lon="-49.1060270">
        <ele>920.8</ele>
        <time>2021-04-17T11:21:11Z</time>
      </trkpt>
      <trkpt lat="-25.5925120" lon="-49.1059710">
        <ele>921.2</ele>
        <time>2021-04-17T11:21:13Z</time>
      </trkpt>
      <trkpt lat="-25.5925180" lon="-49.1059370">
        <ele>921.4</ele>
        <time>2021-04-17T11:21:14Z</time>
      </trkpt>
      <trkpt lat="-25.5925240" lon="-49.1059020">
        <ele>921.6</ele>
        <time>2021-04-17T11:21:15Z</time>
      </trkpt>
      <trkpt lat="-25.5925380" lon="-49.1058110">
        <ele>921.6</ele>
        <time>2021-04-17T11:21:17Z</time>
      </trkpt>
      <trkpt lat="-25.5925440" lon="-49.1057590">
        <ele>921.6</ele>
        <time>2021-04-17T11:21:18Z</time>
      </trkpt>
      <trkpt lat="-25.5925500" lon="-49.1057040">
        <ele>921.6</ele>
        <time>2021-04-17T11:21:19Z</time>
      </trkpt>
      <trkpt lat="-25.5925640" lon="-49.1055840">
        <ele>921.6</ele>
        <time>2021-04-17T11:21:21Z</time>
      </trkpt>
      <trkpt lat="-25.5925790" lon="-49.1054490">
        <ele>921.6</ele>
        <time>2021-04-17T11:21:23Z</time>
      </trkpt>
      <trkpt lat="-25.5925880" lon="-49.1053780">
        <ele>921.6</ele>
        <time>2021-04-17T11:21:24Z</time>
      </trkpt>
      <trkpt lat="-25.5925960" lon="-49.1053040">
        <ele>921.6</ele>
        <time>2021-04-17T11:21:25Z</time>
      </trkpt>
      <trkpt lat="-25.5926130" lon="-49.1051520">
        <ele>921.0</ele>
        <time>2021-04-17T11:21:27Z</time>
      </trkpt>
      <trkpt lat="-25.5926310" lon="-49.1049910">
        <ele>920.6</ele>
        <time>2021-04-17T11:21:29Z</time>
      </trkpt>
      <trkpt lat="-25.5926440" lon="-49.1048210">
        <ele>920.0</ele>
        <time>2021-04-17T11:21:31Z</time>
      </trkpt>
      <trkpt lat="-25.5926600" lon="-49.1046510">
        <ele>919.6</ele>
        <time>2021-04-17T11:21:33Z</time>
      </trkpt>
      <trkpt lat="-25.5926780" lon="-49.1044830">
        <ele>918.8</ele>
        <time>2021-04-17T11:21:35Z</time>
      </trkpt>
      <trkpt lat="-25.5926930" lon="-49.1043140">
        <ele>918.0</ele>
        <time>2021-04-17T11:21:37Z</time>
      </trkpt>
      <trkpt lat="-25.5927000" lon="-49.1042600">
        <ele>917.8</ele>
        <time>2021-04-17T11:21:38Z</time>
      </trkpt>
      <trkpt lat="-25.5927070" lon="-49.1042060">
        <ele>917.6</ele>
        <time>2021-04-17T11:21:39Z</time>
      </trkpt>
      <trkpt lat="-25.5927360" lon="-49.1039890">
        <ele>917.0</ele>
        <time>2021-04-17T11:21:41Z</time>
      </trkpt>
      <trkpt lat="-25.5927770" lon="-49.1038320">
        <ele>916.2</ele>
        <time>2021-04-17T11:21:43Z</time>
      </trkpt>
      <trkpt lat="-25.5927980" lon="-49.1037830">
        <ele>915.8</ele>
        <time>2021-04-17T11:21:44Z</time>
      </trkpt>
      <trkpt lat="-25.5928190" lon="-49.1037340">
        <ele>915.6</ele>
        <time>2021-04-17T11:21:45Z</time>
      </trkpt>
      <trkpt lat="-25.5929040" lon="-49.1035390">
        <ele>915.4</ele>
        <time>2021-04-17T11:21:47Z</time>
      </trkpt>
      <trkpt lat="-25.5929430" lon="-49.1034670">
        <ele>915.2</ele>
        <time>2021-04-17T11:21:48Z</time>
      </trkpt>
      <trkpt lat="-25.5929840" lon="-49.1033950">
        <ele>915.0</ele>
        <time>2021-04-17T11:21:49Z</time>
      </trkpt>
      <trkpt lat="-25.5930720" lon="-49.1032490">
        <ele>913.8</ele>
        <time>2021-04-17T11:21:51Z</time>
      </trkpt>
      <trkpt lat="-25.5931710" lon="-49.1031070">
        <ele>913.2</ele>
        <time>2021-04-17T11:21:53Z</time>
      </trkpt>
      <trkpt lat="-25.5932240" lon="-49.1030370">
        <ele>912.8</ele>
        <time>2021-04-17T11:21:54Z</time>
      </trkpt>
      <trkpt lat="-25.5932790" lon="-49.1029640">
        <ele>912.6</ele>
        <time>2021-04-17T11:21:55Z</time>
      </trkpt>
      <trkpt lat="-25.5933960" lon="-49.1028180">
        <ele>911.8</ele>
        <time>2021-04-17T11:21:57Z</time>
      </trkpt>
      <trkpt lat="-25.5934590" lon="-49.1027460">
        <ele>911.4</ele>
        <time>2021-04-17T11:21:58Z</time>
      </trkpt>
      <trkpt lat="-25.5935280" lon="-49.1026760">
        <ele>911.2</ele>
        <time>2021-04-17T11:21:59Z</time>
      </trkpt>
      <trkpt lat="-25.5936760" lon="-49.1025330">
        <ele>910.8</ele>
        <time>2021-04-17T11:22:01Z</time>
      </trkpt>
      <trkpt lat="-25.5937340" lon="-49.1024850">
        <ele>910.2</ele>
        <time>2021-04-17T11:22:02Z</time>
      </trkpt>
      <trkpt lat="-25.5937920" lon="-49.1024370">
        <ele>909.6</ele>
        <time>2021-04-17T11:22:03Z</time>
      </trkpt>
      <trkpt lat="-25.5939070" lon="-49.1023410">
        <ele>909.0</ele>
        <time>2021-04-17T11:22:04Z</time>
      </trkpt>
      <trkpt lat="-25.5939810" lon="-49.1022780">
        <ele>908.6</ele>
        <time>2021-04-17T11:22:05Z</time>
      </trkpt>
      <trkpt lat="-25.5941270" lon="-49.1021430">
        <ele>907.8</ele>
        <time>2021-04-17T11:22:07Z</time>
      </trkpt>
      <trkpt lat="-25.5942740" lon="-49.1019710">
        <ele>906.4</ele>
        <time>2021-04-17T11:22:09Z</time>
      </trkpt>
      <trkpt lat="-25.5943420" lon="-49.1018680">
        <ele>905.4</ele>
        <time>2021-04-17T11:22:10Z</time>
      </trkpt>
      <trkpt lat="-25.5944040" lon="-49.1017580">
        <ele>904.2</ele>
        <time>2021-04-17T11:22:11Z</time>
      </trkpt>
      <trkpt lat="-25.5944570" lon="-49.1016410">
        <ele>902.8</ele>
        <time>2021-04-17T11:22:12Z</time>
      </trkpt>
      <trkpt lat="-25.5944970" lon="-49.1015150">
        <ele>901.6</ele>
        <time>2021-04-17T11:22:13Z</time>
      </trkpt>
      <trkpt lat="-25.5945190" lon="-49.1014280">
        <ele>900.6</ele>
        <time>2021-04-17T11:22:14Z</time>
      </trkpt>
      <trkpt lat="-25.5945400" lon="-49.1013400">
        <ele>899.8</ele>
        <time>2021-04-17T11:22:15Z</time>
      </trkpt>
      <trkpt lat="-25.5945830" lon="-49.1011650">
        <ele>899.2</ele>
        <time>2021-04-17T11:22:16Z</time>
      </trkpt>
      <trkpt lat="-25.5946000" lon="-49.1010560">
        <ele>898.2</ele>
        <time>2021-04-17T11:22:17Z</time>
      </trkpt>
      <trkpt lat="-25.5946100" lon="-49.1009510">
        <ele>897.2</ele>
        <time>2021-04-17T11:22:18Z</time>
      </trkpt>
      <trkpt lat="-25.5946160" lon="-49.1008490">
        <ele>895.8</ele>
        <time>2021-04-17T11:22:19Z</time>
      </trkpt>
      <trkpt lat="-25.5946190" lon="-49.1007510">
        <ele>895.0</ele>
        <time>2021-04-17T11:22:20Z</time>
      </trkpt>
      <trkpt lat="-25.5946220" lon="-49.1006550">
        <ele>894.4</ele>
        <time>2021-04-17T11:22:21Z</time>
      </trkpt>
      <trkpt lat="-25.5946220" lon="-49.1005630">
        <ele>893.4</ele>
        <time>2021-04-17T11:22:22Z</time>
      </trkpt>
      <trkpt lat="-25.5946210" lon="-49.1004720">
        <ele>892.6</ele>
        <time>2021-04-17T11:22:23Z</time>
      </trkpt>
      <trkpt lat="-25.5946190" lon="-49.1003860">
        <ele>892.2</ele>
        <time>2021-04-17T11:22:24Z</time>
      </trkpt>
      <trkpt lat="-25.5946180" lon="-49.1003040">
        <ele>892.0</ele>
        <time>2021-04-17T11:22:25Z</time>
      </trkpt>
      <trkpt lat="-25.5946190" lon="-49.1001500">
        <ele>891.4</ele>
        <time>2021-04-17T11:22:27Z</time>
      </trkpt>
      <trkpt lat="-25.5946200" lon="-49.1000110">
        <ele>891.2</ele>
        <time>2021-04-17T11:22:29Z</time>
      </trkpt>
      <trkpt lat="-25.5946230" lon="-49.0998880">
        <ele>891.2</ele>
        <time>2021-04-17T11:22:31Z</time>
      </trkpt>
      <trkpt lat="-25.5946270" lon="-49.0997730">
        <ele>891.2</ele>
        <time>2021-04-17T11:22:33Z</time>
      </trkpt>
      <trkpt lat="-25.5946270" lon="-49.0996640">
        <ele>891.2</ele>
        <time>2021-04-17T11:22:35Z</time>
      </trkpt>
      <trkpt lat="-25.5946280" lon="-49.0996110">
        <ele>891.4</ele>
        <time>2021-04-17T11:22:36Z</time>
      </trkpt>
      <trkpt lat="-25.5946290" lon="-49.0995590">
        <ele>891.4</ele>
        <time>2021-04-17T11:22:37Z</time>
      </trkpt>
      <trkpt lat="-25.5946270" lon="-49.0994610">
        <ele>891.8</ele>
        <time>2021-04-17T11:22:39Z</time>
      </trkpt>
      <trkpt lat="-25.5946260" lon="-49.0993650">
        <ele>892.2</ele>
        <time>2021-04-17T11:22:41Z</time>
      </trkpt>
      <trkpt lat="-25.5946260" lon="-49.0992730">
        <ele>892.4</ele>
        <time>2021-04-17T11:22:43Z</time>
      </trkpt>
      <trkpt lat="-25.5946270" lon="-49.0992280">
        <ele>892.6</ele>
        <time>2021-04-17T11:22:44Z</time>
      </trkpt>
      <trkpt lat="-25.5946260" lon="-49.0991860">
        <ele>892.6</ele>
        <time>2021-04-17T11:22:45Z</time>
      </trkpt>
      <trkpt lat="-25.5946230" lon="-49.0991050">
        <ele>892.8</ele>
        <time>2021-04-17T11:22:47Z</time>
      </trkpt>
      <trkpt lat="-25.5946240" lon="-49.0990270">
        <ele>893.2</ele>
        <time>2021-04-17T11:22:49Z</time>
      </trkpt>
      <trkpt lat="-25.5946260" lon="-49.0989530">
        <ele>893.4</ele>
        <time>2021-04-17T11:22:51Z</time>
      </trkpt>
      <trkpt lat="-25.5946250" lon="-49.0989150">
        <ele>893.6</ele>
        <time>2021-04-17T11:22:52Z</time>
      </trkpt>
      <trkpt lat="-25.5946230" lon="-49.0988760">
        <ele>893.8</ele>
        <time>2021-04-17T11:22:53Z</time>
      </trkpt>
      <trkpt lat="-25.5946180" lon="-49.0987970">
        <ele>894.2</ele>
        <time>2021-04-17T11:22:55Z</time>
      </trkpt>
      <trkpt lat="-25.5946110" lon="-49.0987260">
        <ele>894.6</ele>
        <time>2021-04-17T11:22:57Z</time>
      </trkpt>
      <trkpt lat="-25.5946090" lon="-49.0986520">
        <ele>894.8</ele>
        <time>2021-04-17T11:22:59Z</time>
      </trkpt>
      <trkpt lat="-25.5946100" lon="-49.0986100">
        <ele>894.8</ele>
        <time>2021-04-17T11:23:00Z</time>
      </trkpt>
      <trkpt lat="-25.5946100" lon="-49.0985660">
        <ele>895.0</ele>
        <time>2021-04-17T11:23:01Z</time>
      </trkpt>
      <trkpt lat="-25.5946120" lon="-49.0984790">
        <ele>895.2</ele>
        <time>2021-04-17T11:23:03Z</time>
      </trkpt>
      <trkpt lat="-25.5946180" lon="-49.0983920">
        <ele>895.6</ele>
        <time>2021-04-17T11:23:05Z</time>
      </trkpt>
      <trkpt lat="-25.5946160" lon="-49.0983090">
        <ele>895.8</ele>
        <time>2021-04-17T11:23:07Z</time>
      </trkpt>
      <trkpt lat="-25.5946130" lon="-49.0982250">
        <ele>896.2</ele>
        <time>2021-04-17T11:23:09Z</time>
      </trkpt>
      <trkpt lat="-25.5946100" lon="-49.0981830">
        <ele>896.2</ele>
        <time>2021-04-17T11:23:10Z</time>
      </trkpt>
      <trkpt lat="-25.5946080" lon="-49.0981410">
        <ele>896.4</ele>
        <time>2021-04-17T11:23:11Z</time>
      </trkpt>
      <trkpt lat="-25.5946060" lon="-49.0980590">
        <ele>896.4</ele>
        <time>2021-04-17T11:23:13Z</time>
      </trkpt>
      <trkpt lat="-25.5946050" lon="-49.0979820">
        <ele>896.8</ele>
        <time>2021-04-17T11:23:15Z</time>
      </trkpt>
      <trkpt lat="-25.5946040" lon="-49.0979440">
        <ele>897.0</ele>
        <time>2021-04-17T11:23:16Z</time>
      </trkpt>
      <trkpt lat="-25.5946040" lon="-49.0979050">
        <ele>897.2</ele>
        <time>2021-04-17T11:23:17Z</time>
      </trkpt>
      <trkpt lat="-25.5946030" lon="-49.0978260">
        <ele>897.8</ele>
        <time>2021-04-17T11:23:19Z</time>
      </trkpt>
      <trkpt lat="-25.5946010" lon="-49.0977500">
        <ele>898.2</ele>
        <time>2021-04-17T11:23:21Z</time>
      </trkpt>
      <trkpt lat="-25.5945990" lon="-49.0976770">
        <ele>898.4</ele>
        <time>2021-04-17T11:23:23Z</time>
      </trkpt>
      <trkpt lat="-25.5945990" lon="-49.0976050">
        <ele>898.8</ele>
        <time>2021-04-17T11:23:25Z</time>
      </trkpt>
      <trkpt lat="-25.5946000" lon="-49.0975680">
        <ele>899.0</ele>
        <time>2021-04-17T11:23:26Z</time>
      </trkpt>
      <trkpt lat="-25.5946010" lon="-49.0975310">
        <ele>899.2</ele>
        <time>2021-04-17T11:23:27Z</time>
      </trkpt>
      <trkpt lat="-25.5945980" lon="-49.0974970">
        <ele>899.2</ele>
        <time>2021-04-17T11:23:28Z</time>
      </trkpt>
      <trkpt lat="-25.5945970" lon="-49.0974640">
        <ele>899.6</ele>
        <time>2021-04-17T11:23:29Z</time>
      </trkpt>
      <trkpt lat="-25.5945950" lon="-49.0974060">
        <ele>900.0</ele>
        <time>2021-04-17T11:23:31Z</time>
      </trkpt>
      <trkpt lat="-25.5945940" lon="-49.0973790">
        <ele>900.2</ele>
        <time>2021-04-17T11:23:32Z</time>
      </trkpt>
      <trkpt lat="-25.5945910" lon="-49.0973510">
        <ele>900.4</ele>
        <time>2021-04-17T11:23:33Z</time>
      </trkpt>
      <trkpt lat="-25.5945900" lon="-49.0972900">
        <ele>900.8</ele>
        <time>2021-04-17T11:23:35Z</time>
      </trkpt>
      <trkpt lat="-25.5945910" lon="-49.0972260">
        <ele>901.4</ele>
        <time>2021-04-17T11:23:37Z</time>
      </trkpt>
      <trkpt lat="-25.5945920" lon="-49.0971930">
        <ele>901.6</ele>
        <time>2021-04-17T11:23:38Z</time>
      </trkpt>
      <trkpt lat="-25.5945910" lon="-49.0971620">
        <ele>902.0</ele>
        <time>2021-04-17T11:23:39Z</time>
      </trkpt>
      <trkpt lat="-25.5945900" lon="-49.0971000">
        <ele>902.6</ele>
        <time>2021-04-17T11:23:41Z</time>
      </trkpt>
      <trkpt lat="-25.5945850" lon="-49.0970400">
        <ele>903.2</ele>
        <time>2021-04-17T11:23:43Z</time>
      </trkpt>
      <trkpt lat="-25.5945840" lon="-49.0969810">
        <ele>903.8</ele>
        <time>2021-04-17T11:23:45Z</time>
      </trkpt>
      <trkpt lat="-25.5945820" lon="-49.0969510">
        <ele>904.0</ele>
        <time>2021-04-17T11:23:46Z</time>
      </trkpt>
      <trkpt lat="-25.5945800" lon="-49.0969210">
        <ele>904.2</ele>
        <time>2021-04-17T11:23:47Z</time>
      </trkpt>
      <trkpt lat="-25.5945760" lon="-49.0968590">
        <ele>904.8</ele>
        <time>2021-04-17T11:23:49Z</time>
      </trkpt>
      <trkpt lat="-25.5945770" lon="-49.0967960">
        <ele>905.2</ele>
        <time>2021-04-17T11:23:51Z</time>
      </trkpt>
      <trkpt lat="-25.5945750" lon="-49.0967330">
        <ele>905.6</ele>
        <time>2021-04-17T11:23:53Z</time>
      </trkpt>
      <trkpt lat="-25.5945740" lon="-49.0967020">
        <ele>905.8</ele>
        <time>2021-04-17T11:23:54Z</time>
      </trkpt>
      <trkpt lat="-25.5945730" lon="-49.0966700">
        <ele>906.0</ele>
        <time>2021-04-17T11:23:55Z</time>
      </trkpt>
      <trkpt lat="-25.5945720" lon="-49.0966380">
        <ele>906.2</ele>
        <time>2021-04-17T11:23:56Z</time>
      </trkpt>
      <trkpt lat="-25.5945720" lon="-49.0966050">
        <ele>906.4</ele>
        <time>2021-04-17T11:23:57Z</time>
      </trkpt>
      <trkpt lat="-25.5945700" lon="-49.0965370">
        <ele>906.6</ele>
        <time>2021-04-17T11:23:59Z</time>
      </trkpt>
      <trkpt lat="-25.5945700" lon="-49.0965040">
        <ele>906.8</ele>
        <time>2021-04-17T11:24:00Z</time>
      </trkpt>
      <trkpt lat="-25.5945720" lon="-49.0964710">
        <ele>907.0</ele>
        <time>2021-04-17T11:24:01Z</time>
      </trkpt>
      <trkpt lat="-25.5945780" lon="-49.0964070">
        <ele>907.4</ele>
        <time>2021-04-17T11:24:03Z</time>
      </trkpt>
      <trkpt lat="-25.5945820" lon="-49.0963740">
        <ele>907.6</ele>
        <time>2021-04-17T11:24:04Z</time>
      </trkpt>
      <trkpt lat="-25.5945850" lon="-49.0963410">
        <ele>907.6</ele>
        <time>2021-04-17T11:24:05Z</time>
      </trkpt>
      <trkpt lat="-25.5945880" lon="-49.0962770">
        <ele>908.0</ele>
        <time>2021-04-17T11:24:07Z</time>
      </trkpt>
      <trkpt lat="-25.5945900" lon="-49.0962150">
        <ele>908.4</ele>
        <time>2021-04-17T11:24:09Z</time>
      </trkpt>
      <trkpt lat="-25.5945870" lon="-49.0961530">
        <ele>909.0</ele>
        <time>2021-04-17T11:24:11Z</time>
      </trkpt>
      <trkpt lat="-25.5945820" lon="-49.0961220">
        <ele>909.2</ele>
        <time>2021-04-17T11:24:12Z</time>
      </trkpt>
      <trkpt lat="-25.5945740" lon="-49.0960910">
        <ele>909.4</ele>
        <time>2021-04-17T11:24:13Z</time>
      </trkpt>
      <trkpt lat="-25.5945660" lon="-49.0960260">
        <ele>909.6</ele>
        <time>2021-04-17T11:24:15Z</time>
      </trkpt>
      <trkpt lat="-25.5945600" lon="-49.0959590">
        <ele>910.0</ele>
        <time>2021-04-17T11:24:17Z</time>
      </trkpt>
      <trkpt lat="-25.5945590" lon="-49.0958890">
        <ele>910.2</ele>
        <time>2021-04-17T11:24:19Z</time>
      </trkpt>
      <trkpt lat="-25.5945600" lon="-49.0958160">
        <ele>910.6</ele>
        <time>2021-04-17T11:24:21Z</time>
      </trkpt>
      <trkpt lat="-25.5945520" lon="-49.0957450">
        <ele>910.8</ele>
        <time>2021-04-17T11:24:23Z</time>
      </trkpt>
      <trkpt lat="-25.5945460" lon="-49.0956780">
        <ele>911.0</ele>
        <time>2021-04-17T11:24:25Z</time>
      </trkpt>
      <trkpt lat="-25.5945450" lon="-49.0956480">
        <ele>911.0</ele>
        <time>2021-04-17T11:24:26Z</time>
      </trkpt>
      <trkpt lat="-25.5945430" lon="-49.0956210">
        <ele>911.2</ele>
        <time>2021-04-17T11:24:27Z</time>
      </trkpt>
      <trkpt lat="-25.5945380" lon="-49.0955600">
        <ele>911.4</ele>
        <time>2021-04-17T11:24:29Z</time>
      </trkpt>
      <trkpt lat="-25.5945280" lon="-49.0954890">
        <ele>911.4</ele>
        <time>2021-04-17T11:24:31Z</time>
      </trkpt>
      <trkpt lat="-25.5945150" lon="-49.0954140">
        <ele>911.4</ele>
        <time>2021-04-17T11:24:33Z</time>
      </trkpt>
      <trkpt lat="-25.5945050" lon="-49.0953310">
        <ele>911.4</ele>
        <time>2021-04-17T11:24:35Z</time>
      </trkpt>
      <trkpt lat="-25.5944930" lon="-49.0952430">
        <ele>911.4</ele>
        <time>2021-04-17T11:24:37Z</time>
      </trkpt>
      <trkpt lat="-25.5944830" lon="-49.0951520">
        <ele>911.0</ele>
        <time>2021-04-17T11:24:39Z</time>
      </trkpt>
      <trkpt lat="-25.5944780" lon="-49.0951070">
        <ele>911.0</ele>
        <time>2021-04-17T11:24:40Z</time>
      </trkpt>
      <trkpt lat="-25.5944750" lon="-49.0950620">
        <ele>910.8</ele>
        <time>2021-04-17T11:24:41Z</time>
      </trkpt>
      <trkpt lat="-25.5944690" lon="-49.0949750">
        <ele>910.8</ele>
        <time>2021-04-17T11:24:43Z</time>
      </trkpt>
      <trkpt lat="-25.5944620" lon="-49.0948890">
        <ele>910.6</ele>
        <time>2021-04-17T11:24:45Z</time>
      </trkpt>
      <trkpt lat="-25.5944590" lon="-49.0948060">
        <ele>910.4</ele>
        <time>2021-04-17T11:24:47Z</time>
      </trkpt>
      <trkpt lat="-25.5944580" lon="-49.0947170">
        <ele>910.2</ele>
        <time>2021-04-17T11:24:49Z</time>
      </trkpt>
      <trkpt lat="-25.5944530" lon="-49.0946230">
        <ele>910.0</ele>
        <time>2021-04-17T11:24:51Z</time>
      </trkpt>
      <trkpt lat="-25.5944520" lon="-49.0945740">
        <ele>910.0</ele>
        <time>2021-04-17T11:24:52Z</time>
      </trkpt>
      <trkpt lat="-25.5944520" lon="-49.0945220">
        <ele>910.0</ele>
        <time>2021-04-17T11:24:53Z</time>
      </trkpt>
      <trkpt lat="-25.5944470" lon="-49.0944030">
        <ele>909.8</ele>
        <time>2021-04-17T11:24:55Z</time>
      </trkpt>
      <trkpt lat="-25.5944450" lon="-49.0942500">
        <ele>909.6</ele>
        <time>2021-04-17T11:24:57Z</time>
      </trkpt>
      <trkpt lat="-25.5944340" lon="-49.0940660">
        <ele>909.4</ele>
        <time>2021-04-17T11:24:59Z</time>
      </trkpt>
      <trkpt lat="-25.5944220" lon="-49.0938570">
        <ele>909.0</ele>
        <time>2021-04-17T11:25:01Z</time>
      </trkpt>
      <trkpt lat="-25.5944150" lon="-49.0937480">
        <ele>908.8</ele>
        <time>2021-04-17T11:25:02Z</time>
      </trkpt>
      <trkpt lat="-25.5944100" lon="-49.0936370">
        <ele>908.6</ele>
        <time>2021-04-17T11:25:03Z</time>
      </trkpt>
      <trkpt lat="-25.5944070" lon="-49.0935240">
        <ele>908.2</ele>
        <time>2021-04-17T11:25:04Z</time>
      </trkpt>
      <trkpt lat="-25.5944040" lon="-49.0934110">
        <ele>908.0</ele>
        <time>2021-04-17T11:25:05Z</time>
      </trkpt>
      <trkpt lat="-25.5944020" lon="-49.0933000">
        <ele>907.6</ele>
        <time>2021-04-17T11:25:06Z</time>
      </trkpt>
      <trkpt lat="-25.5944030" lon="-49.0931900">
        <ele>907.2</ele>
        <time>2021-04-17T11:25:07Z</time>
      </trkpt>
      <trkpt lat="-25.5943980" lon="-49.0929860">
        <ele>906.4</ele>
        <time>2021-04-17T11:25:09Z</time>
      </trkpt>
      <trkpt lat="-25.5943950" lon="-49.0928930">
        <ele>905.8</ele>
        <time>2021-04-17T11:25:10Z</time>
      </trkpt>
      <trkpt lat="-25.5943920" lon="-49.0928050">
        <ele>905.4</ele>
        <time>2021-04-17T11:25:11Z</time>
      </trkpt>
      <trkpt lat="-25.5943870" lon="-49.0927260">
        <ele>905.4</ele>
        <time>2021-04-17T11:25:12Z</time>
      </trkpt>
      <trkpt lat="-25.5943840" lon="-49.0926560">
        <ele>905.2</ele>
        <time>2021-04-17T11:25:13Z</time>
      </trkpt>
      <trkpt lat="-25.5943810" lon="-49.0925950">
        <ele>905.2</ele>
        <time>2021-04-17T11:25:14Z</time>
      </trkpt>
      <trkpt lat="-25.5943770" lon="-49.0925370">
        <ele>905.2</ele>
        <time>2021-04-17T11:25:15Z</time>
      </trkpt>
      <trkpt lat="-25.5943720" lon="-49.0924810">
        <ele>905.2</ele>
        <time>2021-04-17T11:25:16Z</time>
      </trkpt>
      <trkpt lat="-25.5943720" lon="-49.0924290">
        <ele>905.2</ele>
        <time>2021-04-17T11:25:17Z</time>
      </trkpt>
      <trkpt lat="-25.5943670" lon="-49.0923380">
        <ele>905.2</ele>
        <time>2021-04-17T11:25:19Z</time>
      </trkpt>
      <trkpt lat="-25.5943700" lon="-49.0922500">
        <ele>906.0</ele>
        <time>2021-04-17T11:25:21Z</time>
      </trkpt>
      <trkpt lat="-25.5943720" lon="-49.0922060">
        <ele>906.4</ele>
        <time>2021-04-17T11:25:22Z</time>
      </trkpt>
      <trkpt lat="-25.5943750" lon="-49.0921640">
        <ele>907.4</ele>
        <time>2021-04-17T11:25:23Z</time>
      </trkpt>
      <trkpt lat="-25.5943760" lon="-49.0921220">
        <ele>908.0</ele>
        <time>2021-04-17T11:25:24Z</time>
      </trkpt>
      <trkpt lat="-25.5943760" lon="-49.0920800">
        <ele>908.8</ele>
        <time>2021-04-17T11:25:25Z</time>
      </trkpt>
      <trkpt lat="-25.5943730" lon="-49.0920400">
        <ele>909.2</ele>
        <time>2021-04-17T11:25:26Z</time>
      </trkpt>
      <trkpt lat="-25.5943670" lon="-49.0920030">
        <ele>909.6</ele>
        <time>2021-04-17T11:25:27Z</time>
      </trkpt>
      <trkpt lat="-25.5943520" lon="-49.0919440">
        <ele>910.8</ele>
        <time>2021-04-17T11:25:29Z</time>
      </trkpt>
      <trkpt lat="-25.5943520" lon="-49.0919190">
        <ele>911.2</ele>
        <time>2021-04-17T11:25:30Z</time>
      </trkpt>
      <trkpt lat="-25.5943530" lon="-49.0918960">
        <ele>911.8</ele>
        <time>2021-04-17T11:25:31Z</time>
      </trkpt>
      <trkpt lat="-25.5943550" lon="-49.0918510">
        <ele>912.8</ele>
        <time>2021-04-17T11:25:33Z</time>
      </trkpt>
      <trkpt lat="-25.5943560" lon="-49.0918040">
        <ele>913.8</ele>
        <time>2021-04-17T11:25:35Z</time>
      </trkpt>
      <trkpt lat="-25.5943580" lon="-49.0917820">
        <ele>914.0</ele>
        <time>2021-04-17T11:25:36Z</time>
      </trkpt>
      <trkpt lat="-25.5943590" lon="-49.0917600">
        <ele>914.4</ele>
        <time>2021-04-17T11:25:37Z</time>
      </trkpt>
      <trkpt lat="-25.5943580" lon="-49.0917160">
        <ele>914.8</ele>
        <time>2021-04-17T11:25:39Z</time>
      </trkpt>
      <trkpt lat="-25.5943540" lon="-49.0916760">
        <ele>915.2</ele>
        <time>2021-04-17T11:25:41Z</time>
      </trkpt>
      <trkpt lat="-25.5943530" lon="-49.0916350">
        <ele>915.6</ele>
        <time>2021-04-17T11:25:43Z</time>
      </trkpt>
      <trkpt lat="-25.5943550" lon="-49.0915960">
        <ele>916.2</ele>
        <time>2021-04-17T11:25:45Z</time>
      </trkpt>
      <trkpt lat="-25.5943570" lon="-49.0915760">
        <ele>916.6</ele>
        <time>2021-04-17T11:25:46Z</time>
      </trkpt>
      <trkpt lat="-25.5943590" lon="-49.0915560">
        <ele>917.0</ele>
        <time>2021-04-17T11:25:47Z</time>
      </trkpt>
      <trkpt lat="-25.5943570" lon="-49.0915190">
        <ele>917.2</ele>
        <time>2021-04-17T11:25:49Z</time>
      </trkpt>
      <trkpt lat="-25.5943500" lon="-49.0914830">
        <ele>917.6</ele>
        <time>2021-04-17T11:25:51Z</time>
      </trkpt>
      <trkpt lat="-25.5943460" lon="-49.0914470">
        <ele>918.0</ele>
        <time>2021-04-17T11:25:53Z</time>
      </trkpt>
      <trkpt lat="-25.5943430" lon="-49.0914300">
        <ele>918.2</ele>
        <time>2021-04-17T11:25:54Z</time>
      </trkpt>
      <trkpt lat="-25.5943400" lon="-49.0914130">
        <ele>918.6</ele>
        <time>2021-04-17T11:25:55Z</time>
      </trkpt>
      <trkpt lat="-25.5943340" lon="-49.0913750">
        <ele>918.8</ele>
        <time>2021-04-17T11:25:57Z</time>
      </trkpt>
      <trkpt lat="-25.5943320" lon="-49.0913320">
        <ele>919.2</ele>
        <time>2021-04-17T11:25:59Z</time>
      </trkpt>
      <trkpt lat="-25.5943340" lon="-49.0912830">
        <ele>919.4</ele>
        <time>2021-04-17T11:26:01Z</time>
      </trkpt>
      <trkpt lat="-25.5943390" lon="-49.0912270">
        <ele>919.6</ele>
        <time>2021-04-17T11:26:03Z</time>
      </trkpt>
      <trkpt lat="-25.5943440" lon="-49.0911690">
        <ele>919.8</ele>
        <time>2021-04-17T11:26:05Z</time>
      </trkpt>
      <trkpt lat="-25.5943480" lon="-49.0911080">
        <ele>919.8</ele>
        <time>2021-04-17T11:26:07Z</time>
      </trkpt>
      <trkpt lat="-25.5943460" lon="-49.0910480">
        <ele>920.2</ele>
        <time>2021-04-17T11:26:09Z</time>
      </trkpt>
      <trkpt lat="-25.5943450" lon="-49.0910170">
        <ele>920.2</ele>
        <time>2021-04-17T11:26:10Z</time>
      </trkpt>
      <trkpt lat="-25.5943440" lon="-49.0909880">
        <ele>920.4</ele>
        <time>2021-04-17T11:26:11Z</time>
      </trkpt>
      <trkpt lat="-25.5943430" lon="-49.0909260">
        <ele>920.6</ele>
        <time>2021-04-17T11:26:13Z</time>
      </trkpt>
      <trkpt lat="-25.5943360" lon="-49.0908660">
        <ele>920.6</ele>
        <time>2021-04-17T11:26:15Z</time>
      </trkpt>
      <trkpt lat="-25.5943310" lon="-49.0908040">
        <ele>920.8</ele>
        <time>2021-04-17T11:26:17Z</time>
      </trkpt>
      <trkpt lat="-25.5943280" lon="-49.0907720">
        <ele>920.8</ele>
        <time>2021-04-17T11:26:18Z</time>
      </trkpt>
      <trkpt lat="-25.5943240" lon="-49.0907410">
        <ele>920.8</ele>
        <time>2021-04-17T11:26:19Z</time>
      </trkpt>
      <trkpt lat="-25.5943240" lon="-49.0906770">
        <ele>920.8</ele>
        <time>2021-04-17T11:26:21Z</time>
      </trkpt>
      <trkpt lat="-25.5943210" lon="-49.0906100">
        <ele>920.8</ele>
        <time>2021-04-17T11:26:23Z</time>
      </trkpt>
      <trkpt lat="-25.5943170" lon="-49.0905430">
        <ele>921.0</ele>
        <time>2021-04-17T11:26:25Z</time>
      </trkpt>
      <trkpt lat="-25.5943160" lon="-49.0905100">
        <ele>921.0</ele>
        <time>2021-04-17T11:26:26Z</time>
      </trkpt>
      <trkpt lat="-25.5943130" lon="-49.0904760">
        <ele>921.0</ele>
        <time>2021-04-17T11:26:27Z</time>
      </trkpt>
      <trkpt lat="-25.5943100" lon="-49.0904040">
        <ele>921.2</ele>
        <time>2021-04-17T11:26:29Z</time>
      </trkpt>
      <trkpt lat="-25.5943080" lon="-49.0903320">
        <ele>921.2</ele>
        <time>2021-04-17T11:26:31Z</time>
      </trkpt>
      <trkpt lat="-25.5943080" lon="-49.0902640">
        <ele>921.2</ele>
        <time>2021-04-17T11:26:33Z</time>
      </trkpt>
      <trkpt lat="-25.5943130" lon="-49.0901970">
        <ele>921.4</ele>
        <time>2021-04-17T11:26:35Z</time>
      </trkpt>
      <trkpt lat="-25.5943140" lon="-49.0901240">
        <ele>921.4</ele>
        <time>2021-04-17T11:26:37Z</time>
      </trkpt>
      <trkpt lat="-25.5943110" lon="-49.0900460">
        <ele>921.4</ele>
        <time>2021-04-17T11:26:39Z</time>
      </trkpt>
      <trkpt lat="-25.5943090" lon="-49.0899660">
        <ele>921.6</ele>
        <time>2021-04-17T11:26:41Z</time>
      </trkpt>
      <trkpt lat="-25.5943080" lon="-49.0899250">
        <ele>921.6</ele>
        <time>2021-04-17T11:26:42Z</time>
      </trkpt>
      <trkpt lat="-25.5943070" lon="-49.0898850">
        <ele>921.6</ele>
        <time>2021-04-17T11:26:43Z</time>
      </trkpt>
      <trkpt lat="-25.5943060" lon="-49.0898070">
        <ele>921.6</ele>
        <time>2021-04-17T11:26:45Z</time>
      </trkpt>
      <trkpt lat="-25.5942980" lon="-49.0897300">
        <ele>921.8</ele>
        <time>2021-04-17T11:26:47Z</time>
      </trkpt>
      <trkpt lat="-25.5942950" lon="-49.0896560">
        <ele>921.8</ele>
        <time>2021-04-17T11:26:49Z</time>
      </trkpt>
      <trkpt lat="-25.5942930" lon="-49.0896200">
        <ele>921.8</ele>
        <time>2021-04-17T11:26:50Z</time>
      </trkpt>
      <trkpt lat="-25.5942910" lon="-49.0895840">
        <ele>922.0</ele>
        <time>2021-04-17T11:26:51Z</time>
      </trkpt>
      <trkpt lat="-25.5942870" lon="-49.0895110">
        <ele>922.0</ele>
        <time>2021-04-17T11:26:53Z</time>
      </trkpt>
      <trkpt lat="-25.5942850" lon="-49.0894380">
        <ele>922.2</ele>
        <time>2021-04-17T11:26:55Z</time>
      </trkpt>
      <trkpt lat="-25.5942850" lon="-49.0893670">
        <ele>922.2</ele>
        <time>2021-04-17T11:26:57Z</time>
      </trkpt>
      <trkpt lat="-25.5942850" lon="-49.0893310">
        <ele>922.2</ele>
        <time>2021-04-17T11:26:58Z</time>
      </trkpt>
      <trkpt lat="-25.5942830" lon="-49.0892960">
        <ele>922.2</ele>
        <time>2021-04-17T11:26:59Z</time>
      </trkpt>
      <trkpt lat="-25.5942750" lon="-49.0892230">
        <ele>922.4</ele>
        <time>2021-04-17T11:27:01Z</time>
      </trkpt>
      <trkpt lat="-25.5942710" lon="-49.0891490">
        <ele>922.6</ele>
        <time>2021-04-17T11:27:03Z</time>
      </trkpt>
      <trkpt lat="-25.5942660" lon="-49.0890770">
        <ele>922.8</ele>
        <time>2021-04-17T11:27:05Z</time>
      </trkpt>
      <trkpt lat="-25.5942580" lon="-49.0890050">
        <ele>923.0</ele>
        <time>2021-04-17T11:27:07Z</time>
      </trkpt>
      <trkpt lat="-25.5942540" lon="-49.0889290">
        <ele>923.4</ele>
        <time>2021-04-17T11:27:09Z</time>
      </trkpt>
      <trkpt lat="-25.5942510" lon="-49.0888530">
        <ele>923.8</ele>
        <time>2021-04-17T11:27:11Z</time>
      </trkpt>
      <trkpt lat="-25.5942490" lon="-49.0888140">
        <ele>924.0</ele>
        <time>2021-04-17T11:27:12Z</time>
      </trkpt>
      <trkpt lat="-25.5942480" lon="-49.0887740">
        <ele>924.2</ele>
        <time>2021-04-17T11:27:13Z</time>
      </trkpt>
      <trkpt lat="-25.5942420" lon="-49.0886940">
        <ele>924.4</ele>
        <time>2021-04-17T11:27:15Z</time>
      </trkpt>
      <trkpt lat="-25.5942390" lon="-49.0886500">
        <ele>924.6</ele>
        <time>2021-04-17T11:27:16Z</time>
      </trkpt>
      <trkpt lat="-25.5942370" lon="-49.0886050">
        <ele>924.8</ele>
        <time>2021-04-17T11:27:17Z</time>
      </trkpt>
      <trkpt lat="-25.5942340" lon="-49.0885640">
        <ele>925.0</ele>
        <time>2021-04-17T11:27:18Z</time>
      </trkpt>
      <trkpt lat="-25.5942320" lon="-49.0885230">
        <ele>925.2</ele>
        <time>2021-04-17T11:27:19Z</time>
      </trkpt>
      <trkpt lat="-25.5942310" lon="-49.0884400">
        <ele>925.8</ele>
        <time>2021-04-17T11:27:21Z</time>
      </trkpt>
      <trkpt lat="-25.5942280" lon="-49.0883570">
        <ele>926.0</ele>
        <time>2021-04-17T11:27:23Z</time>
      </trkpt>
      <trkpt lat="-25.5942270" lon="-49.0883160">
        <ele>926.2</ele>
        <time>2021-04-17T11:27:24Z</time>
      </trkpt>
      <trkpt lat="-25.5942280" lon="-49.0882760">
        <ele>926.4</ele>
        <time>2021-04-17T11:27:25Z</time>
      </trkpt>
      <trkpt lat="-25.5942260" lon="-49.0882000">
        <ele>926.6</ele>
        <time>2021-04-17T11:27:27Z</time>
      </trkpt>
      <trkpt lat="-25.5942250" lon="-49.0881240">
        <ele>926.6</ele>
        <time>2021-04-17T11:27:29Z</time>
      </trkpt>
      <trkpt lat="-25.5942340" lon="-49.0880490">
        <ele>927.0</ele>
        <time>2021-04-17T11:27:31Z</time>
      </trkpt>
      <trkpt lat="-25.5942410" lon="-49.0879780">
        <ele>927.2</ele>
        <time>2021-04-17T11:27:33Z</time>
      </trkpt>
      <trkpt lat="-25.5942580" lon="-49.0879030">
        <ele>927.4</ele>
        <time>2021-04-17T11:27:35Z</time>
      </trkpt>
      <trkpt lat="-25.5942780" lon="-49.0878260">
        <ele>927.8</ele>
        <time>2021-04-17T11:27:37Z</time>
      </trkpt>
      <trkpt lat="-25.5942890" lon="-49.0877870">
        <ele>928.0</ele>
        <time>2021-04-17T11:27:38Z</time>
      </trkpt>
      <trkpt lat="-25.5943040" lon="-49.0877470">
        <ele>928.0</ele>
        <time>2021-04-17T11:27:39Z</time>
      </trkpt>
      <trkpt lat="-25.5943420" lon="-49.0876610">
        <ele>928.0</ele>
        <time>2021-04-17T11:27:41Z</time>
      </trkpt>
      <trkpt lat="-25.5943900" lon="-49.0875660">
        <ele>928.2</ele>
        <time>2021-04-17T11:27:43Z</time>
      </trkpt>
      <trkpt lat="-25.5944150" lon="-49.0875160">
        <ele>928.2</ele>
        <time>2021-04-17T11:27:44Z</time>
      </trkpt>
      <trkpt lat="-25.5944390" lon="-49.0874650">
        <ele>928.2</ele>
        <time>2021-04-17T11:27:45Z</time>
      </trkpt>
      <trkpt lat="-25.5944860" lon="-49.0873650">
        <ele>928.0</ele>
        <time>2021-04-17T11:27:47Z</time>
      </trkpt>
      <trkpt lat="-25.5945310" lon="-49.0872710">
        <ele>928.0</ele>
        <time>2021-04-17T11:27:49Z</time>
      </trkpt>
      <trkpt lat="-25.5945750" lon="-49.0871850">
        <ele>927.6</ele>
        <time>2021-04-17T11:27:51Z</time>
      </trkpt>
      <trkpt lat="-25.5946200" lon="-49.0871000">
        <ele>927.4</ele>
        <time>2021-04-17T11:27:53Z</time>
      </trkpt>
      <trkpt lat="-25.5946640" lon="-49.0870150">
        <ele>927.0</ele>
        <time>2021-04-17T11:27:55Z</time>
      </trkpt>
      <trkpt lat="-25.5946850" lon="-49.0869740">
        <ele>927.0</ele>
        <time>2021-04-17T11:27:56Z</time>
      </trkpt>
      <trkpt lat="-25.5947050" lon="-49.0869320">
        <ele>926.8</ele>
        <time>2021-04-17T11:27:57Z</time>
      </trkpt>
      <trkpt lat="-25.5947440" lon="-49.0868550">
        <ele>926.8</ele>
        <time>2021-04-17T11:27:59Z</time>
      </trkpt>
      <trkpt lat="-25.5947640" lon="-49.0868210">
        <ele>926.8</ele>
        <time>2021-04-17T11:28:00Z</time>
      </trkpt>
      <trkpt lat="-25.5947830" lon="-49.0867880">
        <ele>926.8</ele>
        <time>2021-04-17T11:28:01Z</time>
      </trkpt>
      <trkpt lat="-25.5948220" lon="-49.0867190">
        <ele>926.6</ele>
        <time>2021-04-17T11:28:03Z</time>
      </trkpt>
      <trkpt lat="-25.5948660" lon="-49.0866370">
        <ele>926.4</ele>
        <time>2021-04-17T11:28:05Z</time>
      </trkpt>
      <trkpt lat="-25.5948900" lon="-49.0865840">
        <ele>926.4</ele>
        <time>2021-04-17T11:28:06Z</time>
      </trkpt>
      <trkpt lat="-25.5949150" lon="-49.0865380">
        <ele>926.2</ele>
        <time>2021-04-17T11:28:07Z</time>
      </trkpt>
      <trkpt lat="-25.5949580" lon="-49.0864470">
        <ele>926.0</ele>
        <time>2021-04-17T11:28:09Z</time>
      </trkpt>
      <trkpt lat="-25.5949960" lon="-49.0863560">
        <ele>925.8</ele>
        <time>2021-04-17T11:28:11Z</time>
      </trkpt>
      <trkpt lat="-25.5950370" lon="-49.0862670">
        <ele>925.6</ele>
        <time>2021-04-17T11:28:13Z</time>
      </trkpt>
      <trkpt lat="-25.5950790" lon="-49.0861860">
        <ele>925.6</ele>
        <time>2021-04-17T11:28:15Z</time>
      </trkpt>
      <trkpt lat="-25.5951180" lon="-49.0861070">
        <ele>925.6</ele>
        <time>2021-04-17T11:28:17Z</time>
      </trkpt>
      <trkpt lat="-25.5951570" lon="-49.0860340">
        <ele>925.6</ele>
        <time>2021-04-17T11:28:19Z</time>
      </trkpt>
      <trkpt lat="-25.5951760" lon="-49.0859960">
        <ele>925.6</ele>
        <time>2021-04-17T11:28:20Z</time>
      </trkpt>
      <trkpt lat="-25.5951940" lon="-49.0859590">
        <ele>925.8</ele>
        <time>2021-04-17T11:28:21Z</time>
      </trkpt>
      <trkpt lat="-25.5952270" lon="-49.0858810">
        <ele>926.0</ele>
        <time>2021-04-17T11:28:23Z</time>
      </trkpt>
      <trkpt lat="-25.5952570" lon="-49.0858040">
        <ele>926.4</ele>
        <time>2021-04-17T11:28:25Z</time>
      </trkpt>
      <trkpt lat="-25.5952850" lon="-49.0857250">
        <ele>926.8</ele>
        <time>2021-04-17T11:28:27Z</time>
      </trkpt>
      <trkpt lat="-25.5952990" lon="-49.0856840">
        <ele>927.2</ele>
        <time>2021-04-17T11:28:28Z</time>
      </trkpt>
      <trkpt lat="-25.5953120" lon="-49.0856450">
        <ele>927.4</ele>
        <time>2021-04-17T11:28:29Z</time>
      </trkpt>
      <trkpt lat="-25.5953360" lon="-49.0855640">
        <ele>927.8</ele>
        <time>2021-04-17T11:28:31Z</time>
      </trkpt>
      <trkpt lat="-25.5953540" lon="-49.0854900">
        <ele>928.0</ele>
        <time>2021-04-17T11:28:33Z</time>
      </trkpt>
      <trkpt lat="-25.5953600" lon="-49.0854500">
        <ele>928.2</ele>
        <time>2021-04-17T11:28:34Z</time>
      </trkpt>
      <trkpt lat="-25.5953650" lon="-49.0854110">
        <ele>928.2</ele>
        <time>2021-04-17T11:28:35Z</time>
      </trkpt>
      <trkpt lat="-25.5953740" lon="-49.0853320">
        <ele>928.4</ele>
        <time>2021-04-17T11:28:37Z</time>
      </trkpt>
      <trkpt lat="-25.5953780" lon="-49.0852530">
        <ele>928.8</ele>
        <time>2021-04-17T11:28:39Z</time>
      </trkpt>
      <trkpt lat="-25.5953780" lon="-49.0851780">
        <ele>929.2</ele>
        <time>2021-04-17T11:28:41Z</time>
      </trkpt>
      <trkpt lat="-25.5953790" lon="-49.0851040">
        <ele>929.6</ele>
        <time>2021-04-17T11:28:43Z</time>
      </trkpt>
      <trkpt lat="-25.5953840" lon="-49.0850410">
        <ele>929.8</ele>
        <time>2021-04-17T11:28:45Z</time>
      </trkpt>
      <trkpt lat="-25.5953810" lon="-49.0849780">
        <ele>930.2</ele>
        <time>2021-04-17T11:28:47Z</time>
      </trkpt>
      <trkpt lat="-25.5953810" lon="-49.0849170">
        <ele>930.6</ele>
        <time>2021-04-17T11:28:49Z</time>
      </trkpt>
      <trkpt lat="-25.5953790" lon="-49.0848870">
        <ele>930.6</ele>
        <time>2021-04-17T11:28:50Z</time>
      </trkpt>
      <trkpt lat="-25.5953780" lon="-49.0848580">
        <ele>931.0</ele>
        <time>2021-04-17T11:28:51Z</time>
      </trkpt>
      <trkpt lat="-25.5953850" lon="-49.0847970">
        <ele>931.4</ele>
        <time>2021-04-17T11:28:53Z</time>
      </trkpt>
      <trkpt lat="-25.5953870" lon="-49.0847410">
        <ele>931.8</ele>
        <time>2021-04-17T11:28:55Z</time>
      </trkpt>
      <trkpt lat="-25.5953860" lon="-49.0846790">
        <ele>932.6</ele>
        <time>2021-04-17T11:28:57Z</time>
      </trkpt>
      <trkpt lat="-25.5953840" lon="-49.0846490">
        <ele>932.8</ele>
        <time>2021-04-17T11:28:58Z</time>
      </trkpt>
      <trkpt lat="-25.5953820" lon="-49.0846180">
        <ele>933.2</ele>
        <time>2021-04-17T11:28:59Z</time>
      </trkpt>
      <trkpt lat="-25.5953890" lon="-49.0845570">
        <ele>933.6</ele>
        <time>2021-04-17T11:29:01Z</time>
      </trkpt>
      <trkpt lat="-25.5953970" lon="-49.0844950">
        <ele>934.0</ele>
        <time>2021-04-17T11:29:03Z</time>
      </trkpt>
      <trkpt lat="-25.5953990" lon="-49.0844330">
        <ele>934.4</ele>
        <time>2021-04-17T11:29:05Z</time>
      </trkpt>
      <trkpt lat="-25.5954000" lon="-49.0844020">
        <ele>934.6</ele>
        <time>2021-04-17T11:29:06Z</time>
      </trkpt>
      <trkpt lat="-25.5954020" lon="-49.0843710">
        <ele>934.8</ele>
        <time>2021-04-17T11:29:07Z</time>
      </trkpt>
      <trkpt lat="-25.5954070" lon="-49.0843090">
        <ele>935.0</ele>
        <time>2021-04-17T11:29:09Z</time>
      </trkpt>
      <trkpt lat="-25.5954110" lon="-49.0842480">
        <ele>935.2</ele>
        <time>2021-04-17T11:29:11Z</time>
      </trkpt>
      <trkpt lat="-25.5954150" lon="-49.0841840">
        <ele>935.6</ele>
        <time>2021-04-17T11:29:13Z</time>
      </trkpt>
      <trkpt lat="-25.5954150" lon="-49.0841520">
        <ele>935.6</ele>
        <time>2021-04-17T11:29:14Z</time>
      </trkpt>
      <trkpt lat="-25.5954150" lon="-49.0841200">
        <ele>935.8</ele>
        <time>2021-04-17T11:29:15Z</time>
      </trkpt>
      <trkpt lat="-25.5954200" lon="-49.0840560">
        <ele>936.0</ele>
        <time>2021-04-17T11:29:17Z</time>
      </trkpt>
      <trkpt lat="-25.5954240" lon="-49.0839920">
        <ele>936.2</ele>
        <time>2021-04-17T11:29:19Z</time>
      </trkpt>
      <trkpt lat="-25.5954270" lon="-49.0839260">
        <ele>936.4</ele>
        <time>2021-04-17T11:29:21Z</time>
      </trkpt>
      <trkpt lat="-25.5954310" lon="-49.0838610">
        <ele>936.6</ele>
        <time>2021-04-17T11:29:23Z</time>
      </trkpt>
      <trkpt lat="-25.5954340" lon="-49.0837970">
        <ele>937.0</ele>
        <time>2021-04-17T11:29:25Z</time>
      </trkpt>
      <trkpt lat="-25.5954380" lon="-49.0837320">
        <ele>937.2</ele>
        <time>2021-04-17T11:29:27Z</time>
      </trkpt>
      <trkpt lat="-25.5954430" lon="-49.0836690">
        <ele>937.2</ele>
        <time>2021-04-17T11:29:29Z</time>
      </trkpt>
      <trkpt lat="-25.5954440" lon="-49.0836060">
        <ele>937.6</ele>
        <time>2021-04-17T11:29:31Z</time>
      </trkpt>
      <trkpt lat="-25.5954480" lon="-49.0835420">
        <ele>937.8</ele>
        <time>2021-04-17T11:29:33Z</time>
      </trkpt>
      <trkpt lat="-25.5954500" lon="-49.0834790">
        <ele>938.0</ele>
        <time>2021-04-17T11:29:35Z</time>
      </trkpt>
      <trkpt lat="-25.5954540" lon="-49.0834160">
        <ele>938.4</ele>
        <time>2021-04-17T11:29:37Z</time>
      </trkpt>
      <trkpt lat="-25.5954580" lon="-49.0833520">
        <ele>938.8</ele>
        <time>2021-04-17T11:29:39Z</time>
      </trkpt>
      <trkpt lat="-25.5954600" lon="-49.0832870">
        <ele>939.0</ele>
        <time>2021-04-17T11:29:41Z</time>
      </trkpt>
      <trkpt lat="-25.5954640" lon="-49.0832190">
        <ele>939.4</ele>
        <time>2021-04-17T11:29:43Z</time>
      </trkpt>
      <trkpt lat="-25.5954670" lon="-49.0831500">
        <ele>939.8</ele>
        <time>2021-04-17T11:29:45Z</time>
      </trkpt>
      <trkpt lat="-25.5954690" lon="-49.0830790">
        <ele>940.0</ele>
        <time>2021-04-17T11:29:47Z</time>
      </trkpt>
      <trkpt lat="-25.5954680" lon="-49.0830060">
        <ele>940.0</ele>
        <time>2021-04-17T11:29:49Z</time>
      </trkpt>
      <trkpt lat="-25.5954700" lon="-49.0829320">
        <ele>940.2</ele>
        <time>2021-04-17T11:29:51Z</time>
      </trkpt>
      <trkpt lat="-25.5954720" lon="-49.0828570">
        <ele>940.4</ele>
        <time>2021-04-17T11:29:53Z</time>
      </trkpt>
      <trkpt lat="-25.5954750" lon="-49.0827800">
        <ele>940.8</ele>
        <time>2021-04-17T11:29:55Z</time>
      </trkpt>
      <trkpt lat="-25.5954740" lon="-49.0827410">
        <ele>940.8</ele>
        <time>2021-04-17T11:29:56Z</time>
      </trkpt>
      <trkpt lat="-25.5954740" lon="-49.0827040">
        <ele>940.8</ele>
        <time>2021-04-17T11:29:57Z</time>
      </trkpt>
      <trkpt lat="-25.5954780" lon="-49.0826310">
        <ele>941.0</ele>
        <time>2021-04-17T11:29:59Z</time>
      </trkpt>
      <trkpt lat="-25.5954790" lon="-49.0825580">
        <ele>941.2</ele>
        <time>2021-04-17T11:30:01Z</time>
      </trkpt>
      <trkpt lat="-25.5954770" lon="-49.0824870">
        <ele>941.6</ele>
        <time>2021-04-17T11:30:03Z</time>
      </trkpt>
      <trkpt lat="-25.5954790" lon="-49.0824500">
        <ele>941.8</ele>
        <time>2021-04-17T11:30:04Z</time>
      </trkpt>
      <trkpt lat="-25.5954810" lon="-49.0824120">
        <ele>942.0</ele>
        <time>2021-04-17T11:30:05Z</time>
      </trkpt>
      <trkpt lat="-25.5954870" lon="-49.0823360">
        <ele>942.4</ele>
        <time>2021-04-17T11:30:07Z</time>
      </trkpt>
      <trkpt lat="-25.5954910" lon="-49.0822570">
        <ele>942.6</ele>
        <time>2021-04-17T11:30:09Z</time>
      </trkpt>
      <trkpt lat="-25.5954960" lon="-49.0821800">
        <ele>942.8</ele>
        <time>2021-04-17T11:30:11Z</time>
      </trkpt>
      <trkpt lat="-25.5954980" lon="-49.0821410">
        <ele>943.0</ele>
        <time>2021-04-17T11:30:12Z</time>
      </trkpt>
      <trkpt lat="-25.5954990" lon="-49.0821030">
        <ele>943.0</ele>
        <time>2021-04-17T11:30:13Z</time>
      </trkpt>
      <trkpt lat="-25.5955000" lon="-49.0820650">
        <ele>943.2</ele>
        <time>2021-04-17T11:30:14Z</time>
      </trkpt>
      <trkpt lat="-25.5955010" lon="-49.0820280">
        <ele>943.2</ele>
        <time>2021-04-17T11:30:15Z</time>
      </trkpt>
      <trkpt lat="-25.5955020" lon="-49.0819550">
        <ele>943.6</ele>
        <time>2021-04-17T11:30:17Z</time>
      </trkpt>
      <trkpt lat="-25.5955080" lon="-49.0818800">
        <ele>944.0</ele>
        <time>2021-04-17T11:30:19Z</time>
      </trkpt>
      <trkpt lat="-25.5955110" lon="-49.0818050">
        <ele>944.2</ele>
        <time>2021-04-17T11:30:21Z</time>
      </trkpt>
      <trkpt lat="-25.5955120" lon="-49.0817660">
        <ele>944.4</ele>
        <time>2021-04-17T11:30:22Z</time>
      </trkpt>
      <trkpt lat="-25.5955120" lon="-49.0817280">
        <ele>944.4</ele>
        <time>2021-04-17T11:30:23Z</time>
      </trkpt>
      <trkpt lat="-25.5955160" lon="-49.0816550">
        <ele>944.6</ele>
        <time>2021-04-17T11:30:25Z</time>
      </trkpt>
      <trkpt lat="-25.5955150" lon="-49.0815810">
        <ele>944.6</ele>
        <time>2021-04-17T11:30:27Z</time>
      </trkpt>
      <trkpt lat="-25.5955170" lon="-49.0815010">
        <ele>944.6</ele>
        <time>2021-04-17T11:30:29Z</time>
      </trkpt>
      <trkpt lat="-25.5955190" lon="-49.0814600">
        <ele>944.6</ele>
        <time>2021-04-17T11:30:30Z</time>
      </trkpt>
      <trkpt lat="-25.5955190" lon="-49.0814160">
        <ele>944.6</ele>
        <time>2021-04-17T11:30:31Z</time>
      </trkpt>
      <trkpt lat="-25.5955200" lon="-49.0813230">
        <ele>944.4</ele>
        <time>2021-04-17T11:30:33Z</time>
      </trkpt>
      <trkpt lat="-25.5955210" lon="-49.0812280">
        <ele>944.2</ele>
        <time>2021-04-17T11:30:35Z</time>
      </trkpt>
      <trkpt lat="-25.5955210" lon="-49.0811370">
        <ele>944.2</ele>
        <time>2021-04-17T11:30:37Z</time>
      </trkpt>
      <trkpt lat="-25.5955160" lon="-49.0810440">
        <ele>944.2</ele>
        <time>2021-04-17T11:30:39Z</time>
      </trkpt>
      <trkpt lat="-25.5955140" lon="-49.0809500">
        <ele>944.2</ele>
        <time>2021-04-17T11:30:41Z</time>
      </trkpt>
      <trkpt lat="-25.5955140" lon="-49.0808540">
        <ele>944.2</ele>
        <time>2021-04-17T11:30:43Z</time>
      </trkpt>
      <trkpt lat="-25.5955210" lon="-49.0807550">
        <ele>944.2</ele>
        <time>2021-04-17T11:30:45Z</time>
      </trkpt>
      <trkpt lat="-25.5955360" lon="-49.0806430">
        <ele>944.2</ele>
        <time>2021-04-17T11:30:47Z</time>
      </trkpt>
      <trkpt lat="-25.5955620" lon="-49.0805270">
        <ele>944.0</ele>
        <time>2021-04-17T11:30:49Z</time>
      </trkpt>
      <trkpt lat="-25.5955990" lon="-49.0804070">
        <ele>944.0</ele>
        <time>2021-04-17T11:30:51Z</time>
      </trkpt>
      <trkpt lat="-25.5956220" lon="-49.0803500">
        <ele>943.8</ele>
        <time>2021-04-17T11:30:52Z</time>
      </trkpt>
      <trkpt lat="-25.5956500" lon="-49.0802950">
        <ele>943.6</ele>
        <time>2021-04-17T11:30:53Z</time>
      </trkpt>
      <trkpt lat="-25.5957050" lon="-49.0801890">
        <ele>942.8</ele>
        <time>2021-04-17T11:30:55Z</time>
      </trkpt>
      <trkpt lat="-25.5957600" lon="-49.0800910">
        <ele>942.4</ele>
        <time>2021-04-17T11:30:57Z</time>
      </trkpt>
      <trkpt lat="-25.5958060" lon="-49.0799990">
        <ele>942.4</ele>
        <time>2021-04-17T11:30:59Z</time>
      </trkpt>
      <trkpt lat="-25.5958570" lon="-49.0799120">
        <ele>942.4</ele>
        <time>2021-04-17T11:31:01Z</time>
      </trkpt>
      <trkpt lat="-25.5959050" lon="-49.0798210">
        <ele>942.4</ele>
        <time>2021-04-17T11:31:03Z</time>
      </trkpt>
      <trkpt lat="-25.5959540" lon="-49.0797280">
        <ele>942.4</ele>
        <time>2021-04-17T11:31:05Z</time>
      </trkpt>
      <trkpt lat="-25.5960050" lon="-49.0796330">
        <ele>942.4</ele>
        <time>2021-04-17T11:31:07Z</time>
      </trkpt>
      <trkpt lat="-25.5960540" lon="-49.0795380">
        <ele>942.4</ele>
        <time>2021-04-17T11:31:09Z</time>
      </trkpt>
      <trkpt lat="-25.5961040" lon="-49.0794420">
        <ele>942.4</ele>
        <time>2021-04-17T11:31:11Z</time>
      </trkpt>
      <trkpt lat="-25.5961550" lon="-49.0793440">
        <ele>942.2</ele>
        <time>2021-04-17T11:31:13Z</time>
      </trkpt>
      <trkpt lat="-25.5962130" lon="-49.0792500">
        <ele>942.2</ele>
        <time>2021-04-17T11:31:15Z</time>
      </trkpt>
      <trkpt lat="-25.5962440" lon="-49.0792020">
        <ele>942.2</ele>
        <time>2021-04-17T11:31:16Z</time>
      </trkpt>
      <trkpt lat="-25.5962770" lon="-49.0791540">
        <ele>942.2</ele>
        <time>2021-04-17T11:31:17Z</time>
      </trkpt>
      <trkpt lat="-25.5963450" lon="-49.0790510">
        <ele>942.2</ele>
        <time>2021-04-17T11:31:19Z</time>
      </trkpt>
      <trkpt lat="-25.5964140" lon="-49.0789450">
        <ele>941.8</ele>
        <time>2021-04-17T11:31:21Z</time>
      </trkpt>
      <trkpt lat="-25.5964800" lon="-49.0788390">
        <ele>941.6</ele>
        <time>2021-04-17T11:31:23Z</time>
      </trkpt>
      <trkpt lat="-25.5965160" lon="-49.0787830">
        <ele>941.6</ele>
        <time>2021-04-17T11:31:24Z</time>
      </trkpt>
      <trkpt lat="-25.5965500" lon="-49.0787270">
        <ele>941.4</ele>
        <time>2021-04-17T11:31:25Z</time>
      </trkpt>
      <trkpt lat="-25.5966180" lon="-49.0786160">
        <ele>941.0</ele>
        <time>2021-04-17T11:31:27Z</time>
      </trkpt>
      <trkpt lat="-25.5966840" lon="-49.0785060">
        <ele>940.6</ele>
        <time>2021-04-17T11:31:29Z</time>
      </trkpt>
      <trkpt lat="-25.5967450" lon="-49.0783960">
        <ele>940.4</ele>
        <time>2021-04-17T11:31:31Z</time>
      </trkpt>
      <trkpt lat="-25.5968040" lon="-49.0782830">
        <ele>940.2</ele>
        <time>2021-04-17T11:31:33Z</time>
      </trkpt>
      <trkpt lat="-25.5968270" lon="-49.0782210">
        <ele>940.0</ele>
        <time>2021-04-17T11:31:34Z</time>
      </trkpt>
      <trkpt lat="-25.5968480" lon="-49.0781570">
        <ele>939.8</ele>
        <time>2021-04-17T11:31:35Z</time>
      </trkpt>
      <trkpt lat="-25.5968920" lon="-49.0780250">
        <ele>939.6</ele>
        <time>2021-04-17T11:31:37Z</time>
      </trkpt>
      <trkpt lat="-25.5969110" lon="-49.0779590">
        <ele>939.6</ele>
        <time>2021-04-17T11:31:38Z</time>
      </trkpt>
      <trkpt lat="-25.5969260" lon="-49.0778960">
        <ele>939.6</ele>
        <time>2021-04-17T11:31:39Z</time>
      </trkpt>
      <trkpt lat="-25.5969470" lon="-49.0777750">
        <ele>939.4</ele>
        <time>2021-04-17T11:31:41Z</time>
      </trkpt>
      <trkpt lat="-25.5969630" lon="-49.0776590">
        <ele>939.4</ele>
        <time>2021-04-17T11:31:43Z</time>
      </trkpt>
      <trkpt lat="-25.5969720" lon="-49.0776030">
        <ele>939.4</ele>
        <time>2021-04-17T11:31:44Z</time>
      </trkpt>
      <trkpt lat="-25.5969790" lon="-49.0775480">
        <ele>939.4</ele>
        <time>2021-04-17T11:31:45Z</time>
      </trkpt>
      <trkpt lat="-25.5969890" lon="-49.0774410">
        <ele>939.4</ele>
        <time>2021-04-17T11:31:47Z</time>
      </trkpt>
      <trkpt lat="-25.5969940" lon="-49.0773400">
        <ele>939.4</ele>
        <time>2021-04-17T11:31:49Z</time>
      </trkpt>
      <trkpt lat="-25.5970020" lon="-49.0772480">
        <ele>939.4</ele>
        <time>2021-04-17T11:31:51Z</time>
      </trkpt>
      <trkpt lat="-25.5970070" lon="-49.0771570">
        <ele>939.4</ele>
        <time>2021-04-17T11:31:53Z</time>
      </trkpt>
      <trkpt lat="-25.5970150" lon="-49.0770580">
        <ele>939.4</ele>
        <time>2021-04-17T11:31:55Z</time>
      </trkpt>
      <trkpt lat="-25.5970250" lon="-49.0769320">
        <ele>939.4</ele>
        <time>2021-04-17T11:31:57Z</time>
      </trkpt>
      <trkpt lat="-25.5970330" lon="-49.0767800">
        <ele>939.4</ele>
        <time>2021-04-17T11:31:59Z</time>
      </trkpt>
      <trkpt lat="-25.5970400" lon="-49.0766210">
        <ele>939.4</ele>
        <time>2021-04-17T11:32:01Z</time>
      </trkpt>
      <trkpt lat="-25.5970510" lon="-49.0764620">
        <ele>939.4</ele>
        <time>2021-04-17T11:32:03Z</time>
      </trkpt>
      <trkpt lat="-25.5970540" lon="-49.0763140">
        <ele>939.0</ele>
        <time>2021-04-17T11:32:05Z</time>
      </trkpt>
      <trkpt lat="-25.5970650" lon="-49.0761800">
        <ele>938.2</ele>
        <time>2021-04-17T11:32:07Z</time>
      </trkpt>
      <trkpt lat="-25.5970760" lon="-49.0760530">
        <ele>937.2</ele>
        <time>2021-04-17T11:32:09Z</time>
      </trkpt>
      <trkpt lat="-25.5970920" lon="-49.0759190">
        <ele>937.2</ele>
        <time>2021-04-17T11:32:11Z</time>
      </trkpt>
      <trkpt lat="-25.5971180" lon="-49.0757800">
        <ele>937.0</ele>
        <time>2021-04-17T11:32:13Z</time>
      </trkpt>
      <trkpt lat="-25.5971410" lon="-49.0756270">
        <ele>937.0</ele>
        <time>2021-04-17T11:32:15Z</time>
      </trkpt>
      <trkpt lat="-25.5971650" lon="-49.0754750">
        <ele>936.8</ele>
        <time>2021-04-17T11:32:17Z</time>
      </trkpt>
      <trkpt lat="-25.5971920" lon="-49.0753260">
        <ele>936.6</ele>
        <time>2021-04-17T11:32:19Z</time>
      </trkpt>
      <trkpt lat="-25.5972240" lon="-49.0751840">
        <ele>936.4</ele>
        <time>2021-04-17T11:32:21Z</time>
      </trkpt>
      <trkpt lat="-25.5972460" lon="-49.0750380">
        <ele>936.0</ele>
        <time>2021-04-17T11:32:23Z</time>
      </trkpt>
      <trkpt lat="-25.5972560" lon="-49.0749690">
        <ele>936.0</ele>
        <time>2021-04-17T11:32:24Z</time>
      </trkpt>
      <trkpt lat="-25.5972690" lon="-49.0749010">
        <ele>935.8</ele>
        <time>2021-04-17T11:32:25Z</time>
      </trkpt>
      <trkpt lat="-25.5972930" lon="-49.0747700">
        <ele>935.6</ele>
        <time>2021-04-17T11:32:27Z</time>
      </trkpt>
      <trkpt lat="-25.5973070" lon="-49.0747070">
        <ele>935.6</ele>
        <time>2021-04-17T11:32:28Z</time>
      </trkpt>
      <trkpt lat="-25.5973210" lon="-49.0746470">
        <ele>935.6</ele>
        <time>2021-04-17T11:32:29Z</time>
      </trkpt>
      <trkpt lat="-25.5973440" lon="-49.0745310">
        <ele>935.6</ele>
        <time>2021-04-17T11:32:31Z</time>
      </trkpt>
      <trkpt lat="-25.5973660" lon="-49.0744210">
        <ele>935.6</ele>
        <time>2021-04-17T11:32:33Z</time>
      </trkpt>
      <trkpt lat="-25.5973840" lon="-49.0743190">
        <ele>935.6</ele>
        <time>2021-04-17T11:32:35Z</time>
      </trkpt>
      <trkpt lat="-25.5973920" lon="-49.0742710">
        <ele>935.6</ele>
        <time>2021-04-17T11:32:36Z</time>
      </trkpt>
      <trkpt lat="-25.5974020" lon="-49.0742260">
        <ele>935.6</ele>
        <time>2021-04-17T11:32:37Z</time>
      </trkpt>
      <trkpt lat="-25.5974210" lon="-49.0741410">
        <ele>935.6</ele>
        <time>2021-04-17T11:32:39Z</time>
      </trkpt>
      <trkpt lat="-25.5974340" lon="-49.0740620">
        <ele>935.8</ele>
        <time>2021-04-17T11:32:41Z</time>
      </trkpt>
      <trkpt lat="-25.5974480" lon="-49.0739920">
        <ele>936.2</ele>
        <time>2021-04-17T11:32:43Z</time>
      </trkpt>
      <trkpt lat="-25.5974630" lon="-49.0739210">
        <ele>936.8</ele>
        <time>2021-04-17T11:32:45Z</time>
      </trkpt>
      <trkpt lat="-25.5974700" lon="-49.0738870">
        <ele>937.2</ele>
        <time>2021-04-17T11:32:46Z</time>
      </trkpt>
      <trkpt lat="-25.5974720" lon="-49.0738520">
        <ele>937.4</ele>
        <time>2021-04-17T11:32:47Z</time>
      </trkpt>
      <trkpt lat="-25.5974790" lon="-49.0737810">
        <ele>938.0</ele>
        <time>2021-04-17T11:32:49Z</time>
      </trkpt>
      <trkpt lat="-25.5974850" lon="-49.0737470">
        <ele>938.4</ele>
        <time>2021-04-17T11:32:50Z</time>
      </trkpt>
      <trkpt lat="-25.5974920" lon="-49.0737130">
        <ele>938.6</ele>
        <time>2021-04-17T11:32:51Z</time>
      </trkpt>
      <trkpt lat="-25.5975070" lon="-49.0736490">
        <ele>939.4</ele>
        <time>2021-04-17T11:32:53Z</time>
      </trkpt>
      <trkpt lat="-25.5975230" lon="-49.0735970">
        <ele>940.6</ele>
        <time>2021-04-17T11:32:55Z</time>
      </trkpt>
      <trkpt lat="-25.5975380" lon="-49.0735500">
        <ele>941.0</ele>
        <time>2021-04-17T11:32:57Z</time>
      </trkpt>
      <trkpt lat="-25.5975510" lon="-49.0734980">
        <ele>941.4</ele>
        <time>2021-04-17T11:32:59Z</time>
      </trkpt>
      <trkpt lat="-25.5975570" lon="-49.0734720">
        <ele>941.6</ele>
        <time>2021-04-17T11:33:00Z</time>
      </trkpt>
      <trkpt lat="-25.5975610" lon="-49.0734450">
        <ele>942.0</ele>
        <time>2021-04-17T11:33:01Z</time>
      </trkpt>
      <trkpt lat="-25.5975740" lon="-49.0733910">
        <ele>942.4</ele>
        <time>2021-04-17T11:33:03Z</time>
      </trkpt>
      <trkpt lat="-25.5975810" lon="-49.0733630">
        <ele>942.6</ele>
        <time>2021-04-17T11:33:04Z</time>
      </trkpt>
      <trkpt lat="-25.5975870" lon="-49.0733360">
        <ele>942.6</ele>
        <time>2021-04-17T11:33:05Z</time>
      </trkpt>
      <trkpt lat="-25.5975970" lon="-49.0732800">
        <ele>943.2</ele>
        <time>2021-04-17T11:33:07Z</time>
      </trkpt>
      <trkpt lat="-25.5976090" lon="-49.0732190">
        <ele>943.6</ele>
        <time>2021-04-17T11:33:09Z</time>
      </trkpt>
      <trkpt lat="-25.5976160" lon="-49.0731880">
        <ele>943.6</ele>
        <time>2021-04-17T11:33:10Z</time>
      </trkpt>
      <trkpt lat="-25.5976230" lon="-49.0731570">
        <ele>944.0</ele>
        <time>2021-04-17T11:33:11Z</time>
      </trkpt>
      <trkpt lat="-25.5976320" lon="-49.0730940">
        <ele>944.4</ele>
        <time>2021-04-17T11:33:13Z</time>
      </trkpt>
      <trkpt lat="-25.5976410" lon="-49.0730340">
        <ele>944.8</ele>
        <time>2021-04-17T11:33:15Z</time>
      </trkpt>
      <trkpt lat="-25.5976490" lon="-49.0729760">
        <ele>945.2</ele>
        <time>2021-04-17T11:33:17Z</time>
      </trkpt>
      <trkpt lat="-25.5976540" lon="-49.0729460">
        <ele>945.4</ele>
        <time>2021-04-17T11:33:18Z</time>
      </trkpt>
      <trkpt lat="-25.5976590" lon="-49.0729170">
        <ele>945.6</ele>
        <time>2021-04-17T11:33:19Z</time>
      </trkpt>
      <trkpt lat="-25.5976650" lon="-49.0728860">
        <ele>945.8</ele>
        <time>2021-04-17T11:33:20Z</time>
      </trkpt>
      <trkpt lat="-25.5976700" lon="-49.0728570">
        <ele>946.0</ele>
        <time>2021-04-17T11:33:21Z</time>
      </trkpt>
      <trkpt lat="-25.5976770" lon="-49.0727960">
        <ele>946.4</ele>
        <time>2021-04-17T11:33:23Z</time>
      </trkpt>
      <trkpt lat="-25.5976840" lon="-49.0727350">
        <ele>946.6</ele>
        <time>2021-04-17T11:33:25Z</time>
      </trkpt>
      <trkpt lat="-25.5976890" lon="-49.0726800">
        <ele>946.8</ele>
        <time>2021-04-17T11:33:27Z</time>
      </trkpt>
      <trkpt lat="-25.5976930" lon="-49.0726540">
        <ele>946.8</ele>
        <time>2021-04-17T11:33:28Z</time>
      </trkpt>
      <trkpt lat="-25.5976990" lon="-49.0726250">
        <ele>947.0</ele>
        <time>2021-04-17T11:33:29Z</time>
      </trkpt>
      <trkpt lat="-25.5977070" lon="-49.0725610">
        <ele>947.2</ele>
        <time>2021-04-17T11:33:31Z</time>
      </trkpt>
      <trkpt lat="-25.5977220" lon="-49.0724980">
        <ele>947.4</ele>
        <time>2021-04-17T11:33:33Z</time>
      </trkpt>
      <trkpt lat="-25.5977400" lon="-49.0724270">
        <ele>947.6</ele>
        <time>2021-04-17T11:33:35Z</time>
      </trkpt>
      <trkpt lat="-25.5977580" lon="-49.0723470">
        <ele>947.8</ele>
        <time>2021-04-17T11:33:37Z</time>
      </trkpt>
      <trkpt lat="-25.5977830" lon="-49.0722580">
        <ele>947.8</ele>
        <time>2021-04-17T11:33:39Z</time>
      </trkpt>
      <trkpt lat="-25.5978120" lon="-49.0721590">
        <ele>947.8</ele>
        <time>2021-04-17T11:33:41Z</time>
      </trkpt>
      <trkpt lat="-25.5978450" lon="-49.0720510">
        <ele>947.8</ele>
        <time>2021-04-17T11:33:43Z</time>
      </trkpt>
      <trkpt lat="-25.5978760" lon="-49.0719380">
        <ele>947.8</ele>
        <time>2021-04-17T11:33:45Z</time>
      </trkpt>
      <trkpt lat="-25.5979130" lon="-49.0718210">
        <ele>947.6</ele>
        <time>2021-04-17T11:33:47Z</time>
      </trkpt>
      <trkpt lat="-25.5979370" lon="-49.0717620">
        <ele>947.4</ele>
        <time>2021-04-17T11:33:48Z</time>
      </trkpt>
      <trkpt lat="-25.5979600" lon="-49.0717010">
        <ele>947.4</ele>
        <time>2021-04-17T11:33:49Z</time>
      </trkpt>
      <trkpt lat="-25.5980080" lon="-49.0715770">
        <ele>947.0</ele>
        <time>2021-04-17T11:33:51Z</time>
      </trkpt>
      <trkpt lat="-25.5980520" lon="-49.0714590">
        <ele>946.4</ele>
        <time>2021-04-17T11:33:53Z</time>
      </trkpt>
      <trkpt lat="-25.5980940" lon="-49.0713430">
        <ele>946.2</ele>
        <time>2021-04-17T11:33:55Z</time>
      </trkpt>
      <trkpt lat="-25.5981130" lon="-49.0712870">
        <ele>946.2</ele>
        <time>2021-04-17T11:33:56Z</time>
      </trkpt>
      <trkpt lat="-25.5981310" lon="-49.0712320">
        <ele>946.0</ele>
        <time>2021-04-17T11:33:57Z</time>
      </trkpt>
      <trkpt lat="-25.5981470" lon="-49.0711800">
        <ele>946.0</ele>
        <time>2021-04-17T11:33:58Z</time>
      </trkpt>
      <trkpt lat="-25.5981600" lon="-49.0711300">
        <ele>945.6</ele>
        <time>2021-04-17T11:33:59Z</time>
      </trkpt>
      <trkpt lat="-25.5981850" lon="-49.0710400">
        <ele>945.4</ele>
        <time>2021-04-17T11:34:01Z</time>
      </trkpt>
      <trkpt lat="-25.5981980" lon="-49.0709980">
        <ele>945.2</ele>
        <time>2021-04-17T11:34:02Z</time>
      </trkpt>
      <trkpt lat="-25.5982090" lon="-49.0709560">
        <ele>945.2</ele>
        <time>2021-04-17T11:34:03Z</time>
      </trkpt>
      <trkpt lat="-25.5982330" lon="-49.0708740">
        <ele>945.2</ele>
        <time>2021-04-17T11:34:05Z</time>
      </trkpt>
      <trkpt lat="-25.5982590" lon="-49.0707930">
        <ele>945.2</ele>
        <time>2021-04-17T11:34:07Z</time>
      </trkpt>
      <trkpt lat="-25.5982860" lon="-49.0707110">
        <ele>945.4</ele>
        <time>2021-04-17T11:34:09Z</time>
      </trkpt>
      <trkpt lat="-25.5983150" lon="-49.0706260">
        <ele>945.8</ele>
        <time>2021-04-17T11:34:11Z</time>
      </trkpt>
      <trkpt lat="-25.5983450" lon="-49.0705380">
        <ele>946.2</ele>
        <time>2021-04-17T11:34:13Z</time>
      </trkpt>
      <trkpt lat="-25.5983840" lon="-49.0704540">
        <ele>946.8</ele>
        <time>2021-04-17T11:34:15Z</time>
      </trkpt>
      <trkpt lat="-25.5984010" lon="-49.0704120">
        <ele>947.0</ele>
        <time>2021-04-17T11:34:16Z</time>
      </trkpt>
      <trkpt lat="-25.5984170" lon="-49.0703720">
        <ele>947.0</ele>
        <time>2021-04-17T11:34:17Z</time>
      </trkpt>
      <trkpt lat="-25.5984470" lon="-49.0702960">
        <ele>947.4</ele>
        <time>2021-04-17T11:34:19Z</time>
      </trkpt>
      <trkpt lat="-25.5984800" lon="-49.0702240">
        <ele>947.6</ele>
        <time>2021-04-17T11:34:21Z</time>
      </trkpt>
      <trkpt lat="-25.5985210" lon="-49.0701620">
        <ele>947.6</ele>
        <time>2021-04-17T11:34:23Z</time>
      </trkpt>
      <trkpt lat="-25.5985690" lon="-49.0701020">
        <ele>947.6</ele>
        <time>2021-04-17T11:34:25Z</time>
      </trkpt>
      <trkpt lat="-25.5986200" lon="-49.0700470">
        <ele>947.6</ele>
        <time>2021-04-17T11:34:27Z</time>
      </trkpt>
      <trkpt lat="-25.5986730" lon="-49.0699940">
        <ele>947.6</ele>
        <time>2021-04-17T11:34:29Z</time>
      </trkpt>
      <trkpt lat="-25.5986980" lon="-49.0699680">
        <ele>947.6</ele>
        <time>2021-04-17T11:34:30Z</time>
      </trkpt>
      <trkpt lat="-25.5987250" lon="-49.0699420">
        <ele>947.6</ele>
        <time>2021-04-17T11:34:31Z</time>
      </trkpt>
      <trkpt lat="-25.5987800" lon="-49.0698920">
        <ele>947.8</ele>
        <time>2021-04-17T11:34:33Z</time>
      </trkpt>
      <trkpt lat="-25.5988350" lon="-49.0698500">
        <ele>947.8</ele>
        <time>2021-04-17T11:34:35Z</time>
      </trkpt>
      <trkpt lat="-25.5988970" lon="-49.0698080">
        <ele>947.8</ele>
        <time>2021-04-17T11:34:37Z</time>
      </trkpt>
      <trkpt lat="-25.5989610" lon="-49.0697640">
        <ele>947.8</ele>
        <time>2021-04-17T11:34:39Z</time>
      </trkpt>
      <trkpt lat="-25.5989950" lon="-49.0697420">
        <ele>947.8</ele>
        <time>2021-04-17T11:34:40Z</time>
      </trkpt>
      <trkpt lat="-25.5990310" lon="-49.0697210">
        <ele>947.8</ele>
        <time>2021-04-17T11:34:41Z</time>
      </trkpt>
      <trkpt lat="-25.5991010" lon="-49.0696840">
        <ele>948.0</ele>
        <time>2021-04-17T11:34:43Z</time>
      </trkpt>
      <trkpt lat="-25.5991690" lon="-49.0696480">
        <ele>948.2</ele>
        <time>2021-04-17T11:34:45Z</time>
      </trkpt>
      <trkpt lat="-25.5992370" lon="-49.0696160">
        <ele>948.2</ele>
        <time>2021-04-17T11:34:47Z</time>
      </trkpt>
      <trkpt lat="-25.5993100" lon="-49.0695850">
        <ele>948.2</ele>
        <time>2021-04-17T11:34:49Z</time>
      </trkpt>
      <trkpt lat="-25.5993820" lon="-49.0695550">
        <ele>948.4</ele>
        <time>2021-04-17T11:34:51Z</time>
      </trkpt>
      <trkpt lat="-25.5994540" lon="-49.0695260">
        <ele>948.4</ele>
        <time>2021-04-17T11:34:53Z</time>
      </trkpt>
      <trkpt lat="-25.5994920" lon="-49.0695090">
        <ele>948.4</ele>
        <time>2021-04-17T11:34:54Z</time>
      </trkpt>
      <trkpt lat="-25.5995290" lon="-49.0694920">
        <ele>948.4</ele>
        <time>2021-04-17T11:34:55Z</time>
      </trkpt>
      <trkpt lat="-25.5996010" lon="-49.0694600">
        <ele>948.6</ele>
        <time>2021-04-17T11:34:57Z</time>
      </trkpt>
      <trkpt lat="-25.5996730" lon="-49.0694270">
        <ele>948.6</ele>
        <time>2021-04-17T11:34:59Z</time>
      </trkpt>
      <trkpt lat="-25.5997440" lon="-49.0693930">
        <ele>948.8</ele>
        <time>2021-04-17T11:35:01Z</time>
      </trkpt>
      <trkpt lat="-25.5997770" lon="-49.0693780">
        <ele>949.0</ele>
        <time>2021-04-17T11:35:02Z</time>
      </trkpt>
      <trkpt lat="-25.5998110" lon="-49.0693630">
        <ele>949.0</ele>
        <time>2021-04-17T11:35:03Z</time>
      </trkpt>
      <trkpt lat="-25.5998770" lon="-49.0693340">
        <ele>949.0</ele>
        <time>2021-04-17T11:35:05Z</time>
      </trkpt>
      <trkpt lat="-25.5999460" lon="-49.0693030">
        <ele>949.0</ele>
        <time>2021-04-17T11:35:07Z</time>
      </trkpt>
      <trkpt lat="-25.6000160" lon="-49.0692730">
        <ele>949.2</ele>
        <time>2021-04-17T11:35:09Z</time>
      </trkpt>
      <trkpt lat="-25.6000500" lon="-49.0692570">
        <ele>949.2</ele>
        <time>2021-04-17T11:35:10Z</time>
      </trkpt>
      <trkpt lat="-25.6000830" lon="-49.0692420">
        <ele>949.2</ele>
        <time>2021-04-17T11:35:11Z</time>
      </trkpt>
      <trkpt lat="-25.6001490" lon="-49.0692110">
        <ele>949.2</ele>
        <time>2021-04-17T11:35:13Z</time>
      </trkpt>
      <trkpt lat="-25.6002140" lon="-49.0691810">
        <ele>949.2</ele>
        <time>2021-04-17T11:35:15Z</time>
      </trkpt>
      <trkpt lat="-25.6002790" lon="-49.0691550">
        <ele>949.4</ele>
        <time>2021-04-17T11:35:17Z</time>
      </trkpt>
      <trkpt lat="-25.6003420" lon="-49.0691290">
        <ele>949.8</ele>
        <time>2021-04-17T11:35:19Z</time>
      </trkpt>
      <trkpt lat="-25.6004050" lon="-49.0691010">
        <ele>950.2</ele>
        <time>2021-04-17T11:35:21Z</time>
      </trkpt>
      <trkpt lat="-25.6004640" lon="-49.0690700">
        <ele>950.4</ele>
        <time>2021-04-17T11:35:23Z</time>
      </trkpt>
      <trkpt lat="-25.6005050" lon="-49.0690370">
        <ele>950.8</ele>
        <time>2021-04-17T11:35:25Z</time>
      </trkpt>
      <trkpt lat="-25.6005190" lon="-49.0690180">
        <ele>950.8</ele>
        <time>2021-04-17T11:35:26Z</time>
      </trkpt>
      <trkpt lat="-25.6005340" lon="-49.0690020">
        <ele>951.0</ele>
        <time>2021-04-17T11:35:27Z</time>
      </trkpt>
      <trkpt lat="-25.6005620" lon="-49.0689790">
        <ele>951.2</ele>
        <time>2021-04-17T11:35:29Z</time>
      </trkpt>
      <trkpt lat="-25.6005850" lon="-49.0689670">
        <ele>951.6</ele>
        <time>2021-04-17T11:35:31Z</time>
      </trkpt>
      <trkpt lat="-25.6005920" lon="-49.0689660">
        <ele>951.6</ele>
        <time>2021-04-17T11:35:32Z</time>
      </trkpt>
      <trkpt lat="-25.6005970" lon="-49.0689690">
        <ele>951.6</ele>
        <time>2021-04-17T11:35:33Z</time>
      </trkpt>
      <trkpt lat="-25.6006000" lon="-49.0689740">
        <ele>951.8</ele>
        <time>2021-04-17T11:35:35Z</time>
      </trkpt>
      <trkpt lat="-25.6006020" lon="-49.0689810">
        <ele>951.8</ele>
        <time>2021-04-17T11:35:36Z</time>
      </trkpt>
      <trkpt lat="-25.6006030" lon="-49.0689850">
        <ele>952.0</ele>
        <time>2021-04-17T11:35:37Z</time>
      </trkpt>
      <trkpt lat="-25.6006040" lon="-49.0689930">
        <ele>952.0</ele>
        <time>2021-04-17T11:35:39Z</time>
      </trkpt>
      <trkpt lat="-25.6006020" lon="-49.0689920">
        <ele>952.0</ele>
        <time>2021-04-17T11:35:41Z</time>
      </trkpt>
      <trkpt lat="-25.6006020" lon="-49.0689920">
        <ele>952.0</ele>
        <time>2021-04-17T11:35:42Z</time>
      </trkpt>
      <trkpt lat="-25.6006020" lon="-49.0689920">
        <ele>952.0</ele>
        <time>2021-04-17T11:35:43Z</time>
      </trkpt>
      <trkpt lat="-25.6006020" lon="-49.0689920">
        <ele>952.0</ele>
        <time>2021-04-17T11:35:45Z</time>
      </trkpt>
      <trkpt lat="-25.6006020" lon="-49.0689920">
        <ele>952.2</ele>
        <time>2021-04-17T11:35:47Z</time>
      </trkpt>
      <trkpt lat="-25.6006020" lon="-49.0689920">
        <ele>952.2</ele>
        <time>2021-04-17T11:35:49Z</time>
      </trkpt>
      <trkpt lat="-25.6006030" lon="-49.0689920">
        <ele>952.2</ele>
        <time>2021-04-17T11:35:51Z</time>
      </trkpt>
      <trkpt lat="-25.6006030" lon="-49.0689920">
        <ele>952.2</ele>
        <time>2021-04-17T11:35:53Z</time>
      </trkpt>
      <trkpt lat="-25.6006030" lon="-49.0689920">
        <ele>952.2</ele>
        <time>2021-04-17T11:35:55Z</time>
      </trkpt>
      <trkpt lat="-25.6006030" lon="-49.0689920">
        <ele>952.2</ele>
        <time>2021-04-17T11:35:57Z</time>
      </trkpt>
      <trkpt lat="-25.6006030" lon="-49.0689920">
        <ele>952.2</ele>
        <time>2021-04-17T11:35:59Z</time>
      </trkpt>
      <trkpt lat="-25.6006030" lon="-49.0689910">
        <ele>952.2</ele>
        <time>2021-04-17T11:36:01Z</time>
      </trkpt>
      <trkpt lat="-25.6006030" lon="-49.0689910">
        <ele>952.2</ele>
        <time>2021-04-17T11:36:03Z</time>
      </trkpt>
      <trkpt lat="-25.6006030" lon="-49.0689910">
        <ele>952.2</ele>
        <time>2021-04-17T11:36:05Z</time>
      </trkpt>
      <trkpt lat="-25.6006030" lon="-49.0689910">
        <ele>952.2</ele>
        <time>2021-04-17T11:36:07Z</time>
      </trkpt>
      <trkpt lat="-25.6006030" lon="-49.0689910">
        <ele>952.2</ele>
        <time>2021-04-17T11:36:09Z</time>
      </trkpt>
      <trkpt lat="-25.6006040" lon="-49.0689910">
        <ele>952.2</ele>
        <time>2021-04-17T11:36:11Z</time>
      </trkpt>
      <trkpt lat="-25.6006040" lon="-49.0689910">
        <ele>952.2</ele>
        <time>2021-04-17T11:36:13Z</time>
      </trkpt>
      <trkpt lat="-25.6006040" lon="-49.0689910">
        <ele>952.2</ele>
        <time>2021-04-17T11:36:15Z</time>
      </trkpt>
      <trkpt lat="-25.6006040" lon="-49.0689910">
        <ele>952.2</ele>
        <time>2021-04-17T11:36:17Z</time>
      </trkpt>
      <trkpt lat="-25.6006040" lon="-49.0689900">
        <ele>952.2</ele>
        <time>2021-04-17T11:36:19Z</time>
      </trkpt>
      <trkpt lat="-25.6006040" lon="-49.0689900">
        <ele>952.2</ele>
        <time>2021-04-17T11:36:21Z</time>
      </trkpt>
      <trkpt lat="-25.6006040" lon="-49.0689900">
        <ele>952.2</ele>
        <time>2021-04-17T11:36:23Z</time>
      </trkpt>
      <trkpt lat="-25.6006040" lon="-49.0689900">
        <ele>952.2</ele>
        <time>2021-04-17T11:36:25Z</time>
      </trkpt>
      <trkpt lat="-25.6006040" lon="-49.0689900">
        <ele>952.2</ele>
        <time>2021-04-17T11:36:27Z</time>
      </trkpt>
      <trkpt lat="-25.6006040" lon="-49.0689900">
        <ele>952.2</ele>
        <time>2021-04-17T11:36:29Z</time>
      </trkpt>
      <trkpt lat="-25.6006040" lon="-49.0689900">
        <ele>952.2</ele>
        <time>2021-04-17T11:36:31Z</time>
      </trkpt>
      <trkpt lat="-25.6006040" lon="-49.0689900">
        <ele>952.2</ele>
        <time>2021-04-17T11:36:33Z</time>
      </trkpt>
      <trkpt lat="-25.6006040" lon="-49.0689900">
        <ele>952.2</ele>
        <time>2021-04-17T11:36:35Z</time>
      </trkpt>
      <trkpt lat="-25.6006040" lon="-49.0689900">
        <ele>952.2</ele>
        <time>2021-04-17T11:36:37Z</time>
      </trkpt>
      <trkpt lat="-25.6006040" lon="-49.0689900">
        <ele>952.4</ele>
        <time>2021-04-17T11:36:39Z</time>
      </trkpt>
      <trkpt lat="-25.6006040" lon="-49.0689900">
        <ele>952.4</ele>
        <time>2021-04-17T11:36:41Z</time>
      </trkpt>
      <trkpt lat="-25.6006040" lon="-49.0689900">
        <ele>952.4</ele>
        <time>2021-04-17T11:36:43Z</time>
      </trkpt>
      <trkpt lat="-25.6006040" lon="-49.0689900">
        <ele>952.4</ele>
        <time>2021-04-17T11:36:45Z</time>
      </trkpt>
      <trkpt lat="-25.6006040" lon="-49.0689900">
        <ele>952.2</ele>
        <time>2021-04-17T11:36:47Z</time>
      </trkpt>
      <trkpt lat="-25.6006040" lon="-49.0689900">
        <ele>952.4</ele>
        <time>2021-04-17T11:36:49Z</time>
      </trkpt>
      <trkpt lat="-25.6006040" lon="-49.0689900">
        <ele>952.4</ele>
        <time>2021-04-17T11:36:51Z</time>
      </trkpt>
      <trkpt lat="-25.6006040" lon="-49.0689900">
        <ele>952.0</ele>
        <time>2021-04-17T11:36:53Z</time>
      </trkpt>
      <trkpt lat="-25.6006040" lon="-49.0689900">
        <ele>952.0</ele>
        <time>2021-04-17T11:36:55Z</time>
      </trkpt>
      <trkpt lat="-25.6006040" lon="-49.0689900">
        <ele>952.0</ele>
        <time>2021-04-17T11:36:56Z</time>
      </trkpt>
      <trkpt lat="-25.6006040" lon="-49.0689900">
        <ele>952.0</ele>
        <time>2021-04-17T11:36:57Z</time>
      </trkpt>
      <trkpt lat="-25.6006040" lon="-49.0689900">
        <ele>952.0</ele>
        <time>2021-04-17T11:36:59Z</time>
      </trkpt>
      <trkpt lat="-25.6006040" lon="-49.0689900">
        <ele>952.0</ele>
        <time>2021-04-17T11:37:01Z</time>
      </trkpt>
      <trkpt lat="-25.6006040" lon="-49.0689900">
        <ele>952.0</ele>
        <time>2021-04-17T11:37:03Z</time>
      </trkpt>
      <trkpt lat="-25.6006050" lon="-49.0689900">
        <ele>952.0</ele>
        <time>2021-04-17T11:37:05Z</time>
      </trkpt>
      <trkpt lat="-25.6006040" lon="-49.0689900">
        <ele>952.0</ele>
        <time>2021-04-17T11:37:07Z</time>
      </trkpt>
      <trkpt lat="-25.6006040" lon="-49.0689900">
        <ele>952.0</ele>
        <time>2021-04-17T11:37:09Z</time>
      </trkpt>
      <trkpt lat="-25.6006040" lon="-49.0689900">
        <ele>952.0</ele>
        <time>2021-04-17T11:37:11Z</time>
      </trkpt>
      <trkpt lat="-25.6006040" lon="-49.0689900">
        <ele>952.0</ele>
        <time>2021-04-17T11:37:13Z</time>
      </trkpt>
      <trkpt lat="-25.6006040" lon="-49.0689900">
        <ele>952.0</ele>
        <time>2021-04-17T11:37:15Z</time>
      </trkpt>
      <trkpt lat="-25.6006040" lon="-49.0689900">
        <ele>952.0</ele>
        <time>2021-04-17T11:37:17Z</time>
      </trkpt>
      <trkpt lat="-25.6006040" lon="-49.0689900">
        <ele>952.2</ele>
        <time>2021-04-17T11:37:19Z</time>
      </trkpt>
      <trkpt lat="-25.6006040" lon="-49.0689900">
        <ele>952.2</ele>
        <time>2021-04-17T11:37:21Z</time>
      </trkpt>
      <trkpt lat="-25.6006040" lon="-49.0689900">
        <ele>952.2</ele>
        <time>2021-04-17T11:37:23Z</time>
      </trkpt>
      <trkpt lat="-25.6006040" lon="-49.0689890">
        <ele>952.2</ele>
        <time>2021-04-17T11:37:25Z</time>
      </trkpt>
      <trkpt lat="-25.6006040" lon="-49.0689890">
        <ele>952.2</ele>
        <time>2021-04-17T11:37:27Z</time>
      </trkpt>
      <trkpt lat="-25.6006000" lon="-49.0689960">
        <ele>952.2</ele>
        <time>2021-04-17T11:37:29Z</time>
      </trkpt>
      <trkpt lat="-25.6005990" lon="-49.0690070">
        <ele>952.2</ele>
        <time>2021-04-17T11:37:30Z</time>
      </trkpt>
      <trkpt lat="-25.6006000" lon="-49.0690190">
        <ele>952.2</ele>
        <time>2021-04-17T11:37:31Z</time>
      </trkpt>
      <trkpt lat="-25.6006220" lon="-49.0690340">
        <ele>952.2</ele>
        <time>2021-04-17T11:37:33Z</time>
      </trkpt>
      <trkpt lat="-25.6006350" lon="-49.0690360">
        <ele>952.2</ele>
        <time>2021-04-17T11:37:34Z</time>
      </trkpt>
      <trkpt lat="-25.6006520" lon="-49.0690340">
        <ele>952.2</ele>
        <time>2021-04-17T11:37:35Z</time>
      </trkpt>
      <trkpt lat="-25.6006750" lon="-49.0690300">
        <ele>952.2</ele>
        <time>2021-04-17T11:37:36Z</time>
      </trkpt>
      <trkpt lat="-25.6007000" lon="-49.0690260">
        <ele>952.2</ele>
        <time>2021-04-17T11:37:37Z</time>
      </trkpt>
      <trkpt lat="-25.6007540" lon="-49.0690160">
        <ele>952.2</ele>
        <time>2021-04-17T11:37:39Z</time>
      </trkpt>
      <trkpt lat="-25.6008100" lon="-49.0690110">
        <ele>952.6</ele>
        <time>2021-04-17T11:37:41Z</time>
      </trkpt>
      <trkpt lat="-25.6008690" lon="-49.0690100">
        <ele>952.8</ele>
        <time>2021-04-17T11:37:43Z</time>
      </trkpt>
      <trkpt lat="-25.6009000" lon="-49.0690100">
        <ele>952.8</ele>
        <time>2021-04-17T11:37:44Z</time>
      </trkpt>
      <trkpt lat="-25.6009300" lon="-49.0690110">
        <ele>953.0</ele>
        <time>2021-04-17T11:37:45Z</time>
      </trkpt>
      <trkpt lat="-25.6009900" lon="-49.0690010">
        <ele>953.2</ele>
        <time>2021-04-17T11:37:47Z</time>
      </trkpt>
      <trkpt lat="-25.6010200" lon="-49.0689980">
        <ele>953.4</ele>
        <time>2021-04-17T11:37:48Z</time>
      </trkpt>
      <trkpt lat="-25.6010510" lon="-49.0689990">
        <ele>953.6</ele>
        <time>2021-04-17T11:37:49Z</time>
      </trkpt>
      <trkpt lat="-25.6011110" lon="-49.0690000">
        <ele>954.0</ele>
        <time>2021-04-17T11:37:51Z</time>
      </trkpt>
      <trkpt lat="-25.6011710" lon="-49.0689980">
        <ele>954.4</ele>
        <time>2021-04-17T11:37:53Z</time>
      </trkpt>
      <trkpt lat="-25.6012020" lon="-49.0689970">
        <ele>954.8</ele>
        <time>2021-04-17T11:37:55Z</time>
      </trkpt>
      <trkpt lat="-25.6012630" lon="-49.0690010">
        <ele>955.0</ele>
        <time>2021-04-17T11:37:57Z</time>
      </trkpt>
      <trkpt lat="-25.6013510" lon="-49.0689970">
        <ele>955.4</ele>
        <time>2021-04-17T11:37:59Z</time>
      </trkpt>
      <trkpt lat="-25.6014090" lon="-49.0689930">
        <ele>956.2</ele>
        <time>2021-04-17T11:38:01Z</time>
      </trkpt>
      <trkpt lat="-25.6014660" lon="-49.0689890">
        <ele>956.6</ele>
        <time>2021-04-17T11:38:03Z</time>
      </trkpt>
      <trkpt lat="-25.6015230" lon="-49.0689830">
        <ele>957.0</ele>
        <time>2021-04-17T11:38:05Z</time>
      </trkpt>
      <trkpt lat="-25.6015530" lon="-49.0689810">
        <ele>957.2</ele>
        <time>2021-04-17T11:38:06Z</time>
      </trkpt>
      <trkpt lat="-25.6015810" lon="-49.0689810">
        <ele>957.4</ele>
        <time>2021-04-17T11:38:07Z</time>
      </trkpt>
      <trkpt lat="-25.6016390" lon="-49.0689830">
        <ele>958.0</ele>
        <time>2021-04-17T11:38:09Z</time>
      </trkpt>
      <trkpt lat="-25.6016670" lon="-49.0689820">
        <ele>958.2</ele>
        <time>2021-04-17T11:38:10Z</time>
      </trkpt>
      <trkpt lat="-25.6016940" lon="-49.0689810">
        <ele>958.4</ele>
        <time>2021-04-17T11:38:11Z</time>
      </trkpt>
      <trkpt lat="-25.6017220" lon="-49.0689800">
        <ele>958.8</ele>
        <time>2021-04-17T11:38:12Z</time>
      </trkpt>
      <trkpt lat="-25.6017540" lon="-49.0689790">
        <ele>958.8</ele>
        <time>2021-04-17T11:38:13Z</time>
      </trkpt>
      <trkpt lat="-25.6018240" lon="-49.0689730">
        <ele>959.2</ele>
        <time>2021-04-17T11:38:15Z</time>
      </trkpt>
      <trkpt lat="-25.6018620" lon="-49.0689650">
        <ele>959.2</ele>
        <time>2021-04-17T11:38:16Z</time>
      </trkpt>
      <trkpt lat="-25.6019020" lon="-49.0689550">
        <ele>959.4</ele>
        <time>2021-04-17T11:38:17Z</time>
      </trkpt>
      <trkpt lat="-25.6019450" lon="-49.0689430">
        <ele>959.4</ele>
        <time>2021-04-17T11:38:18Z</time>
      </trkpt>
      <trkpt lat="-25.6019880" lon="-49.0689290">
        <ele>959.4</ele>
        <time>2021-04-17T11:38:19Z</time>
      </trkpt>
      <trkpt lat="-25.6020750" lon="-49.0689010">
        <ele>959.4</ele>
        <time>2021-04-17T11:38:21Z</time>
      </trkpt>
      <trkpt lat="-25.6021640" lon="-49.0688700">
        <ele>959.4</ele>
        <time>2021-04-17T11:38:23Z</time>
      </trkpt>
      <trkpt lat="-25.6022510" lon="-49.0688420">
        <ele>959.2</ele>
        <time>2021-04-17T11:38:25Z</time>
      </trkpt>
      <trkpt lat="-25.6023330" lon="-49.0688070">
        <ele>958.8</ele>
        <time>2021-04-17T11:38:27Z</time>
      </trkpt>
      <trkpt lat="-25.6024170" lon="-49.0687680">
        <ele>958.4</ele>
        <time>2021-04-17T11:38:29Z</time>
      </trkpt>
      <trkpt lat="-25.6025020" lon="-49.0687290">
        <ele>958.4</ele>
        <time>2021-04-17T11:38:31Z</time>
      </trkpt>
      <trkpt lat="-25.6025420" lon="-49.0687100">
        <ele>958.2</ele>
        <time>2021-04-17T11:38:32Z</time>
      </trkpt>
      <trkpt lat="-25.6025800" lon="-49.0686900">
        <ele>958.2</ele>
        <time>2021-04-17T11:38:33Z</time>
      </trkpt>
      <trkpt lat="-25.6026480" lon="-49.0686510">
        <ele>958.2</ele>
        <time>2021-04-17T11:38:35Z</time>
      </trkpt>
      <trkpt lat="-25.6027130" lon="-49.0686110">
        <ele>958.2</ele>
        <time>2021-04-17T11:38:37Z</time>
      </trkpt>
      <trkpt lat="-25.6027790" lon="-49.0685690">
        <ele>958.2</ele>
        <time>2021-04-17T11:38:39Z</time>
      </trkpt>
      <trkpt lat="-25.6028460" lon="-49.0685220">
        <ele>958.4</ele>
        <time>2021-04-17T11:38:41Z</time>
      </trkpt>
      <trkpt lat="-25.6029120" lon="-49.0684740">
        <ele>958.4</ele>
        <time>2021-04-17T11:38:43Z</time>
      </trkpt>
      <trkpt lat="-25.6029700" lon="-49.0684230">
        <ele>958.6</ele>
        <time>2021-04-17T11:38:45Z</time>
      </trkpt>
      <trkpt lat="-25.6029970" lon="-49.0683960">
        <ele>958.6</ele>
        <time>2021-04-17T11:38:46Z</time>
      </trkpt>
      <trkpt lat="-25.6030230" lon="-49.0683670">
        <ele>958.6</ele>
        <time>2021-04-17T11:38:47Z</time>
      </trkpt>
      <trkpt lat="-25.6030780" lon="-49.0683070">
        <ele>958.6</ele>
        <time>2021-04-17T11:38:49Z</time>
      </trkpt>
      <trkpt lat="-25.6031420" lon="-49.0682460">
        <ele>958.6</ele>
        <time>2021-04-17T11:38:51Z</time>
      </trkpt>
      <trkpt lat="-25.6031800" lon="-49.0682140">
        <ele>958.6</ele>
        <time>2021-04-17T11:38:52Z</time>
      </trkpt>
      <trkpt lat="-25.6032240" lon="-49.0681840">
        <ele>958.6</ele>
        <time>2021-04-17T11:38:53Z</time>
      </trkpt>
      <trkpt lat="-25.6033320" lon="-49.0681340">
        <ele>958.6</ele>
        <time>2021-04-17T11:38:55Z</time>
      </trkpt>
      <trkpt lat="-25.6033900" lon="-49.0681100">
        <ele>958.6</ele>
        <time>2021-04-17T11:38:56Z</time>
      </trkpt>
      <trkpt lat="-25.6034520" lon="-49.0680900">
        <ele>958.6</ele>
        <time>2021-04-17T11:38:57Z</time>
      </trkpt>
      <trkpt lat="-25.6035790" lon="-49.0680620">
        <ele>958.4</ele>
        <time>2021-04-17T11:38:59Z</time>
      </trkpt>
      <trkpt lat="-25.6037170" lon="-49.0680470">
        <ele>958.2</ele>
        <time>2021-04-17T11:39:01Z</time>
      </trkpt>
      <trkpt lat="-25.6037930" lon="-49.0680430">
        <ele>958.0</ele>
        <time>2021-04-17T11:39:02Z</time>
      </trkpt>
      <trkpt lat="-25.6038730" lon="-49.0680410">
        <ele>957.4</ele>
        <time>2021-04-17T11:39:03Z</time>
      </trkpt>
      <trkpt lat="-25.6039590" lon="-49.0680410">
        <ele>956.8</ele>
        <time>2021-04-17T11:39:04Z</time>
      </trkpt>
      <trkpt lat="-25.6040470" lon="-49.0680410">
        <ele>956.4</ele>
        <time>2021-04-17T11:39:05Z</time>
      </trkpt>
      <trkpt lat="-25.6041350" lon="-49.0680420">
        <ele>956.0</ele>
        <time>2021-04-17T11:39:06Z</time>
      </trkpt>
      <trkpt lat="-25.6042200" lon="-49.0680430">
        <ele>955.4</ele>
        <time>2021-04-17T11:39:07Z</time>
      </trkpt>
      <trkpt lat="-25.6043840" lon="-49.0680490">
        <ele>953.8</ele>
        <time>2021-04-17T11:39:09Z</time>
      </trkpt>
      <trkpt lat="-25.6045540" lon="-49.0680730">
        <ele>952.2</ele>
        <time>2021-04-17T11:39:11Z</time>
      </trkpt>
      <trkpt lat="-25.6046470" lon="-49.0680960">
        <ele>951.6</ele>
        <time>2021-04-17T11:39:12Z</time>
      </trkpt>
      <trkpt lat="-25.6047460" lon="-49.0681280">
        <ele>950.6</ele>
        <time>2021-04-17T11:39:13Z</time>
      </trkpt>
      <trkpt lat="-25.6049640" lon="-49.0682110">
        <ele>948.2</ele>
        <time>2021-04-17T11:39:15Z</time>
      </trkpt>
      <trkpt lat="-25.6050760" lon="-49.0682600">
        <ele>945.8</ele>
        <time>2021-04-17T11:39:16Z</time>
      </trkpt>
      <trkpt lat="-25.6051870" lon="-49.0683090">
        <ele>944.4</ele>
        <time>2021-04-17T11:39:17Z</time>
      </trkpt>
      <trkpt lat="-25.6053900" lon="-49.0684170">
        <ele>942.8</ele>
        <time>2021-04-17T11:39:19Z</time>
      </trkpt>
      <trkpt lat="-25.6054790" lon="-49.0684720">
        <ele>941.6</ele>
        <time>2021-04-17T11:39:20Z</time>
      </trkpt>
      <trkpt lat="-25.6055600" lon="-49.0685210">
        <ele>940.4</ele>
        <time>2021-04-17T11:39:21Z</time>
      </trkpt>
      <trkpt lat="-25.6057010" lon="-49.0686000">
        <ele>938.6</ele>
        <time>2021-04-17T11:39:23Z</time>
      </trkpt>
      <trkpt lat="-25.6057610" lon="-49.0686320">
        <ele>938.2</ele>
        <time>2021-04-17T11:39:24Z</time>
      </trkpt>
      <trkpt lat="-25.6058160" lon="-49.0686610">
        <ele>938.0</ele>
        <time>2021-04-17T11:39:25Z</time>
      </trkpt>
      <trkpt lat="-25.6058650" lon="-49.0686880">
        <ele>937.8</ele>
        <time>2021-04-17T11:39:26Z</time>
      </trkpt>
      <trkpt lat="-25.6059110" lon="-49.0687100">
        <ele>937.8</ele>
        <time>2021-04-17T11:39:27Z</time>
      </trkpt>
      <trkpt lat="-25.6059530" lon="-49.0687270">
        <ele>937.8</ele>
        <time>2021-04-17T11:39:28Z</time>
      </trkpt>
      <trkpt lat="-25.6059940" lon="-49.0687360">
        <ele>937.8</ele>
        <time>2021-04-17T11:39:29Z</time>
      </trkpt>
      <trkpt lat="-25.6060710" lon="-49.0687270">
        <ele>937.8</ele>
        <time>2021-04-17T11:39:31Z</time>
      </trkpt>
      <trkpt lat="-25.6061090" lon="-49.0687040">
        <ele>937.8</ele>
        <time>2021-04-17T11:39:32Z</time>
      </trkpt>
      <trkpt lat="-25.6061420" lon="-49.0686720">
        <ele>937.8</ele>
        <time>2021-04-17T11:39:33Z</time>
      </trkpt>
      <trkpt lat="-25.6061930" lon="-49.0685810">
        <ele>938.0</ele>
        <time>2021-04-17T11:39:35Z</time>
      </trkpt>
      <trkpt lat="-25.6062090" lon="-49.0685230">
        <ele>938.6</ele>
        <time>2021-04-17T11:39:36Z</time>
      </trkpt>
      <trkpt lat="-25.6062170" lon="-49.0684620">
        <ele>939.0</ele>
        <time>2021-04-17T11:39:37Z</time>
      </trkpt>
      <trkpt lat="-25.6062230" lon="-49.0684030">
        <ele>939.2</ele>
        <time>2021-04-17T11:39:38Z</time>
      </trkpt>
      <trkpt lat="-25.6062290" lon="-49.0683450">
        <ele>939.4</ele>
        <time>2021-04-17T11:39:39Z</time>
      </trkpt>
      <trkpt lat="-25.6062340" lon="-49.0682940">
        <ele>939.8</ele>
        <time>2021-04-17T11:39:40Z</time>
      </trkpt>
      <trkpt lat="-25.6062390" lon="-49.0682410">
        <ele>940.0</ele>
        <time>2021-04-17T11:39:41Z</time>
      </trkpt>
      <trkpt lat="-25.6062420" lon="-49.0681900">
        <ele>940.0</ele>
        <time>2021-04-17T11:39:42Z</time>
      </trkpt>
      <trkpt lat="-25.6062430" lon="-49.0681430">
        <ele>940.2</ele>
        <time>2021-04-17T11:39:43Z</time>
      </trkpt>
      <trkpt lat="-25.6062450" lon="-49.0680590">
        <ele>940.2</ele>
        <time>2021-04-17T11:39:45Z</time>
      </trkpt>
      <trkpt lat="-25.6062470" lon="-49.0680180">
        <ele>940.6</ele>
        <time>2021-04-17T11:39:46Z</time>
      </trkpt>
      <trkpt lat="-25.6062480" lon="-49.0679780">
        <ele>941.0</ele>
        <time>2021-04-17T11:39:47Z</time>
      </trkpt>
      <trkpt lat="-25.6062620" lon="-49.0678950">
        <ele>941.8</ele>
        <time>2021-04-17T11:39:49Z</time>
      </trkpt>
      <trkpt lat="-25.6062800" lon="-49.0678590">
        <ele>942.4</ele>
        <time>2021-04-17T11:39:50Z</time>
      </trkpt>
      <trkpt lat="-25.6063080" lon="-49.0678300">
        <ele>942.8</ele>
        <time>2021-04-17T11:39:51Z</time>
      </trkpt>
      <trkpt lat="-25.6063450" lon="-49.0678090">
        <ele>943.4</ele>
        <time>2021-04-17T11:39:52Z</time>
      </trkpt>
      <trkpt lat="-25.6063870" lon="-49.0677920">
        <ele>944.0</ele>
        <time>2021-04-17T11:39:53Z</time>
      </trkpt>
      <trkpt lat="-25.6064810" lon="-49.0677660">
        <ele>945.4</ele>
        <time>2021-04-17T11:39:55Z</time>
      </trkpt>
      <trkpt lat="-25.6065840" lon="-49.0677480">
        <ele>946.2</ele>
        <time>2021-04-17T11:39:57Z</time>
      </trkpt>
      <trkpt lat="-25.6066350" lon="-49.0677390">
        <ele>946.6</ele>
        <time>2021-04-17T11:39:58Z</time>
      </trkpt>
      <trkpt lat="-25.6066830" lon="-49.0677300">
        <ele>946.6</ele>
        <time>2021-04-17T11:39:59Z</time>
      </trkpt>
      <trkpt lat="-25.6067740" lon="-49.0677120">
        <ele>946.8</ele>
        <time>2021-04-17T11:40:01Z</time>
      </trkpt>
      <trkpt lat="-25.6068180" lon="-49.0677060">
        <ele>946.8</ele>
        <time>2021-04-17T11:40:02Z</time>
      </trkpt>
      <trkpt lat="-25.6068620" lon="-49.0676990">
        <ele>946.8</ele>
        <time>2021-04-17T11:40:03Z</time>
      </trkpt>
      <trkpt lat="-25.6069480" lon="-49.0676810">
        <ele>946.8</ele>
        <time>2021-04-17T11:40:05Z</time>
      </trkpt>
      <trkpt lat="-25.6070310" lon="-49.0676560">
        <ele>946.8</ele>
        <time>2021-04-17T11:40:07Z</time>
      </trkpt>
      <trkpt lat="-25.6071150" lon="-49.0676360">
        <ele>946.6</ele>
        <time>2021-04-17T11:40:09Z</time>
      </trkpt>
      <trkpt lat="-25.6071970" lon="-49.0676130">
        <ele>946.6</ele>
        <time>2021-04-17T11:40:11Z</time>
      </trkpt>
      <trkpt lat="-25.6072800" lon="-49.0675870">
        <ele>946.4</ele>
        <time>2021-04-17T11:40:13Z</time>
      </trkpt>
      <trkpt lat="-25.6073620" lon="-49.0675590">
        <ele>946.4</ele>
        <time>2021-04-17T11:40:15Z</time>
      </trkpt>
      <trkpt lat="-25.6074440" lon="-49.0675270">
        <ele>946.2</ele>
        <time>2021-04-17T11:40:17Z</time>
      </trkpt>
      <trkpt lat="-25.6075260" lon="-49.0674850">
        <ele>946.2</ele>
        <time>2021-04-17T11:40:19Z</time>
      </trkpt>
      <trkpt lat="-25.6076070" lon="-49.0674400">
        <ele>946.2</ele>
        <time>2021-04-17T11:40:21Z</time>
      </trkpt>
      <trkpt lat="-25.6076800" lon="-49.0673870">
        <ele>946.2</ele>
        <time>2021-04-17T11:40:23Z</time>
      </trkpt>
      <trkpt lat="-25.6077500" lon="-49.0673330">
        <ele>946.2</ele>
        <time>2021-04-17T11:40:25Z</time>
      </trkpt>
      <trkpt lat="-25.6077810" lon="-49.0673030">
        <ele>946.2</ele>
        <time>2021-04-17T11:40:26Z</time>
      </trkpt>
      <trkpt lat="-25.6078110" lon="-49.0672690">
        <ele>946.2</ele>
        <time>2021-04-17T11:40:27Z</time>
      </trkpt>
      <trkpt lat="-25.6078710" lon="-49.0672060">
        <ele>946.2</ele>
        <time>2021-04-17T11:40:29Z</time>
      </trkpt>
      <trkpt lat="-25.6079280" lon="-49.0671530">
        <ele>946.4</ele>
        <time>2021-04-17T11:40:31Z</time>
      </trkpt>
      <trkpt lat="-25.6079820" lon="-49.0670920">
        <ele>946.4</ele>
        <time>2021-04-17T11:40:33Z</time>
      </trkpt>
      <trkpt lat="-25.6080350" lon="-49.0670320">
        <ele>946.6</ele>
        <time>2021-04-17T11:40:35Z</time>
      </trkpt>
      <trkpt lat="-25.6080850" lon="-49.0669760">
        <ele>947.0</ele>
        <time>2021-04-17T11:40:37Z</time>
      </trkpt>
      <trkpt lat="-25.6081340" lon="-49.0669210">
        <ele>947.4</ele>
        <time>2021-04-17T11:40:39Z</time>
      </trkpt>
      <trkpt lat="-25.6081830" lon="-49.0668640">
        <ele>947.6</ele>
        <time>2021-04-17T11:40:41Z</time>
      </trkpt>
      <trkpt lat="-25.6082300" lon="-49.0668130">
        <ele>948.2</ele>
        <time>2021-04-17T11:40:43Z</time>
      </trkpt>
      <trkpt lat="-25.6082770" lon="-49.0667640">
        <ele>948.4</ele>
        <time>2021-04-17T11:40:45Z</time>
      </trkpt>
      <trkpt lat="-25.6082990" lon="-49.0667390">
        <ele>948.6</ele>
        <time>2021-04-17T11:40:46Z</time>
      </trkpt>
      <trkpt lat="-25.6083220" lon="-49.0667140">
        <ele>948.8</ele>
        <time>2021-04-17T11:40:47Z</time>
      </trkpt>
      <trkpt lat="-25.6083670" lon="-49.0666660">
        <ele>949.4</ele>
        <time>2021-04-17T11:40:49Z</time>
      </trkpt>
      <trkpt lat="-25.6083880" lon="-49.0666450">
        <ele>949.6</ele>
        <time>2021-04-17T11:40:50Z</time>
      </trkpt>
      <trkpt lat="-25.6084110" lon="-49.0666210">
        <ele>949.8</ele>
        <time>2021-04-17T11:40:51Z</time>
      </trkpt>
      <trkpt lat="-25.6084510" lon="-49.0665780">
        <ele>950.4</ele>
        <time>2021-04-17T11:40:53Z</time>
      </trkpt>
      <trkpt lat="-25.6084940" lon="-49.0665290">
        <ele>950.8</ele>
        <time>2021-04-17T11:40:55Z</time>
      </trkpt>
      <trkpt lat="-25.6085170" lon="-49.0665040">
        <ele>951.0</ele>
        <time>2021-04-17T11:40:56Z</time>
      </trkpt>
      <trkpt lat="-25.6085390" lon="-49.0664820">
        <ele>951.2</ele>
        <time>2021-04-17T11:40:57Z</time>
      </trkpt>
      <trkpt lat="-25.6085840" lon="-49.0664410">
        <ele>951.6</ele>
        <time>2021-04-17T11:40:59Z</time>
      </trkpt>
      <trkpt lat="-25.6086270" lon="-49.0663980">
        <ele>951.8</ele>
        <time>2021-04-17T11:41:01Z</time>
      </trkpt>
      <trkpt lat="-25.6086660" lon="-49.0663570">
        <ele>952.4</ele>
        <time>2021-04-17T11:41:03Z</time>
      </trkpt>
      <trkpt lat="-25.6086860" lon="-49.0663390">
        <ele>952.8</ele>
        <time>2021-04-17T11:41:04Z</time>
      </trkpt>
      <trkpt lat="-25.6087050" lon="-49.0663200">
        <ele>953.2</ele>
        <time>2021-04-17T11:41:05Z</time>
      </trkpt>
      <trkpt lat="-25.6087400" lon="-49.0662850">
        <ele>953.6</ele>
        <time>2021-04-17T11:41:07Z</time>
      </trkpt>
      <trkpt lat="-25.6087780" lon="-49.0662530">
        <ele>954.0</ele>
        <time>2021-04-17T11:41:09Z</time>
      </trkpt>
      <trkpt lat="-25.6088170" lon="-49.0662230">
        <ele>954.4</ele>
        <time>2021-04-17T11:41:11Z</time>
      </trkpt>
      <trkpt lat="-25.6088370" lon="-49.0662080">
        <ele>954.6</ele>
        <time>2021-04-17T11:41:12Z</time>
      </trkpt>
      <trkpt lat="-25.6088550" lon="-49.0661920">
        <ele>955.0</ele>
        <time>2021-04-17T11:41:13Z</time>
      </trkpt>
      <trkpt lat="-25.6088730" lon="-49.0661760">
        <ele>955.4</ele>
        <time>2021-04-17T11:41:14Z</time>
      </trkpt>
      <trkpt lat="-25.6088920" lon="-49.0661610">
        <ele>955.6</ele>
        <time>2021-04-17T11:41:15Z</time>
      </trkpt>
      <trkpt lat="-25.6089320" lon="-49.0661330">
        <ele>956.2</ele>
        <time>2021-04-17T11:41:17Z</time>
      </trkpt>
      <trkpt lat="-25.6089510" lon="-49.0661180">
        <ele>956.6</ele>
        <time>2021-04-17T11:41:18Z</time>
      </trkpt>
      <trkpt lat="-25.6089690" lon="-49.0661040">
        <ele>957.2</ele>
        <time>2021-04-17T11:41:19Z</time>
      </trkpt>
      <trkpt lat="-25.6089870" lon="-49.0660900">
        <ele>957.6</ele>
        <time>2021-04-17T11:41:20Z</time>
      </trkpt>
      <trkpt lat="-25.6090060" lon="-49.0660760">
        <ele>958.0</ele>
        <time>2021-04-17T11:41:21Z</time>
      </trkpt>
      <trkpt lat="-25.6090440" lon="-49.0660480">
        <ele>958.8</ele>
        <time>2021-04-17T11:41:23Z</time>
      </trkpt>
      <trkpt lat="-25.6090850" lon="-49.0660200">
        <ele>959.4</ele>
        <time>2021-04-17T11:41:25Z</time>
      </trkpt>
      <trkpt lat="-25.6091270" lon="-49.0659920">
        <ele>959.8</ele>
        <time>2021-04-17T11:41:27Z</time>
      </trkpt>
      <trkpt lat="-25.6091490" lon="-49.0659810">
        <ele>960.2</ele>
        <time>2021-04-17T11:41:28Z</time>
      </trkpt>
      <trkpt lat="-25.6091710" lon="-49.0659700">
        <ele>960.4</ele>
        <time>2021-04-17T11:41:29Z</time>
      </trkpt>
      <trkpt lat="-25.6092160" lon="-49.0659470">
        <ele>960.8</ele>
        <time>2021-04-17T11:41:31Z</time>
      </trkpt>
      <trkpt lat="-25.6092630" lon="-49.0659280">
        <ele>961.2</ele>
        <time>2021-04-17T11:41:33Z</time>
      </trkpt>
      <trkpt lat="-25.6093100" lon="-49.0659140">
        <ele>961.4</ele>
        <time>2021-04-17T11:41:35Z</time>
      </trkpt>
      <trkpt lat="-25.6093570" lon="-49.0659000">
        <ele>961.6</ele>
        <time>2021-04-17T11:41:37Z</time>
      </trkpt>
      <trkpt lat="-25.6094050" lon="-49.0658920">
        <ele>961.8</ele>
        <time>2021-04-17T11:41:39Z</time>
      </trkpt>
      <trkpt lat="-25.6094520" lon="-49.0658890">
        <ele>961.8</ele>
        <time>2021-04-17T11:41:41Z</time>
      </trkpt>
      <trkpt lat="-25.6094990" lon="-49.0658920">
        <ele>961.8</ele>
        <time>2021-04-17T11:41:43Z</time>
      </trkpt>
      <trkpt lat="-25.6095430" lon="-49.0658950">
        <ele>962.2</ele>
        <time>2021-04-17T11:41:45Z</time>
      </trkpt>
      <trkpt lat="-25.6095840" lon="-49.0659030">
        <ele>962.6</ele>
        <time>2021-04-17T11:41:47Z</time>
      </trkpt>
      <trkpt lat="-25.6096250" lon="-49.0659100">
        <ele>962.8</ele>
        <time>2021-04-17T11:41:49Z</time>
      </trkpt>
      <trkpt lat="-25.6096640" lon="-49.0659200">
        <ele>963.0</ele>
        <time>2021-04-17T11:41:51Z</time>
      </trkpt>
      <trkpt lat="-25.6096820" lon="-49.0659230">
        <ele>963.2</ele>
        <time>2021-04-17T11:41:52Z</time>
      </trkpt>
      <trkpt lat="-25.6097010" lon="-49.0659270">
        <ele>963.4</ele>
        <time>2021-04-17T11:41:53Z</time>
      </trkpt>
      <trkpt lat="-25.6097390" lon="-49.0659360">
        <ele>963.8</ele>
        <time>2021-04-17T11:41:55Z</time>
      </trkpt>
      <trkpt lat="-25.6097790" lon="-49.0659470">
        <ele>964.2</ele>
        <time>2021-04-17T11:41:57Z</time>
      </trkpt>
      <trkpt lat="-25.6097980" lon="-49.0659520">
        <ele>964.4</ele>
        <time>2021-04-17T11:41:58Z</time>
      </trkpt>
      <trkpt lat="-25.6098180" lon="-49.0659580">
        <ele>964.6</ele>
        <time>2021-04-17T11:41:59Z</time>
      </trkpt>
      <trkpt lat="-25.6098550" lon="-49.0659680">
        <ele>965.0</ele>
        <time>2021-04-17T11:42:01Z</time>
      </trkpt>
      <trkpt lat="-25.6098960" lon="-49.0659880">
        <ele>965.6</ele>
        <time>2021-04-17T11:42:03Z</time>
      </trkpt>
      <trkpt lat="-25.6099160" lon="-49.0659950">
        <ele>965.8</ele>
        <time>2021-04-17T11:42:04Z</time>
      </trkpt>
      <trkpt lat="-25.6099350" lon="-49.0660010">
        <ele>966.2</ele>
        <time>2021-04-17T11:42:05Z</time>
      </trkpt>
      <trkpt lat="-25.6099740" lon="-49.0660140">
        <ele>966.6</ele>
        <time>2021-04-17T11:42:07Z</time>
      </trkpt>
      <trkpt lat="-25.6099930" lon="-49.0660210">
        <ele>966.8</ele>
        <time>2021-04-17T11:42:08Z</time>
      </trkpt>
      <trkpt lat="-25.6100130" lon="-49.0660270">
        <ele>967.2</ele>
        <time>2021-04-17T11:42:09Z</time>
      </trkpt>
      <trkpt lat="-25.6100520" lon="-49.0660410">
        <ele>967.8</ele>
        <time>2021-04-17T11:42:11Z</time>
      </trkpt>
      <trkpt lat="-25.6100730" lon="-49.0660480">
        <ele>968.2</ele>
        <time>2021-04-17T11:42:12Z</time>
      </trkpt>
      <trkpt lat="-25.6100920" lon="-49.0660540">
        <ele>968.4</ele>
        <time>2021-04-17T11:42:13Z</time>
      </trkpt>
      <trkpt lat="-25.6101290" lon="-49.0660640">
        <ele>968.8</ele>
        <time>2021-04-17T11:42:15Z</time>
      </trkpt>
      <trkpt lat="-25.6101670" lon="-49.0660660">
        <ele>968.8</ele>
        <time>2021-04-17T11:42:17Z</time>
      </trkpt>
      <trkpt lat="-25.6102090" lon="-49.0660490">
        <ele>969.0</ele>
        <time>2021-04-17T11:42:19Z</time>
      </trkpt>
      <trkpt lat="-25.6102280" lon="-49.0660310">
        <ele>969.2</ele>
        <time>2021-04-17T11:42:20Z</time>
      </trkpt>
      <trkpt lat="-25.6102470" lon="-49.0660070">
        <ele>969.2</ele>
        <time>2021-04-17T11:42:21Z</time>
      </trkpt>
      <trkpt lat="-25.6102910" lon="-49.0659480">
        <ele>969.2</ele>
        <time>2021-04-17T11:42:23Z</time>
      </trkpt>
      <trkpt lat="-25.6103160" lon="-49.0659160">
        <ele>969.2</ele>
        <time>2021-04-17T11:42:24Z</time>
      </trkpt>
      <trkpt lat="-25.6103430" lon="-49.0658820">
        <ele>969.2</ele>
        <time>2021-04-17T11:42:25Z</time>
      </trkpt>
      <trkpt lat="-25.6104030" lon="-49.0658140">
        <ele>969.2</ele>
        <time>2021-04-17T11:42:27Z</time>
      </trkpt>
      <trkpt lat="-25.6104710" lon="-49.0657600">
        <ele>969.0</ele>
        <time>2021-04-17T11:42:29Z</time>
      </trkpt>
      <trkpt lat="-25.6105070" lon="-49.0657410">
        <ele>968.8</ele>
        <time>2021-04-17T11:42:30Z</time>
      </trkpt>
      <trkpt lat="-25.6105430" lon="-49.0657280">
        <ele>968.6</ele>
        <time>2021-04-17T11:42:31Z</time>
      </trkpt>
      <trkpt lat="-25.6105780" lon="-49.0657180">
        <ele>968.6</ele>
        <time>2021-04-17T11:42:32Z</time>
      </trkpt>
      <trkpt lat="-25.6106110" lon="-49.0657090">
        <ele>968.4</ele>
        <time>2021-04-17T11:42:33Z</time>
      </trkpt>
      <trkpt lat="-25.6106770" lon="-49.0656890">
        <ele>968.4</ele>
        <time>2021-04-17T11:42:35Z</time>
      </trkpt>
      <trkpt lat="-25.6107450" lon="-49.0656710">
        <ele>968.2</ele>
        <time>2021-04-17T11:42:37Z</time>
      </trkpt>
      <trkpt lat="-25.6108120" lon="-49.0656490">
        <ele>968.2</ele>
        <time>2021-04-17T11:42:39Z</time>
      </trkpt>
      <trkpt lat="-25.6108770" lon="-49.0656250">
        <ele>968.2</ele>
        <time>2021-04-17T11:42:41Z</time>
      </trkpt>
      <trkpt lat="-25.6109390" lon="-49.0655980">
        <ele>968.4</ele>
        <time>2021-04-17T11:42:43Z</time>
      </trkpt>
      <trkpt lat="-25.6110000" lon="-49.0655720">
        <ele>968.4</ele>
        <time>2021-04-17T11:42:45Z</time>
      </trkpt>
      <trkpt lat="-25.6110290" lon="-49.0655580">
        <ele>968.4</ele>
        <time>2021-04-17T11:42:46Z</time>
      </trkpt>
      <trkpt lat="-25.6110590" lon="-49.0655430">
        <ele>968.4</ele>
        <time>2021-04-17T11:42:47Z</time>
      </trkpt>
      <trkpt lat="-25.6111200" lon="-49.0655170">
        <ele>968.4</ele>
        <time>2021-04-17T11:42:49Z</time>
      </trkpt>
      <trkpt lat="-25.6111850" lon="-49.0654940">
        <ele>968.4</ele>
        <time>2021-04-17T11:42:51Z</time>
      </trkpt>
      <trkpt lat="-25.6112480" lon="-49.0654670">
        <ele>968.6</ele>
        <time>2021-04-17T11:42:53Z</time>
      </trkpt>
      <trkpt lat="-25.6112800" lon="-49.0654570">
        <ele>968.6</ele>
        <time>2021-04-17T11:42:54Z</time>
      </trkpt>
      <trkpt lat="-25.6113110" lon="-49.0654460">
        <ele>968.6</ele>
        <time>2021-04-17T11:42:55Z</time>
      </trkpt>
      <trkpt lat="-25.6113690" lon="-49.0654130">
        <ele>968.6</ele>
        <time>2021-04-17T11:42:57Z</time>
      </trkpt>
      <trkpt lat="-25.6114250" lon="-49.0653840">
        <ele>968.6</ele>
        <time>2021-04-17T11:42:59Z</time>
      </trkpt>
      <trkpt lat="-25.6114550" lon="-49.0653710">
        <ele>968.6</ele>
        <time>2021-04-17T11:43:00Z</time>
      </trkpt>
      <trkpt lat="-25.6114840" lon="-49.0653580">
        <ele>968.6</ele>
        <time>2021-04-17T11:43:01Z</time>
      </trkpt>
      <trkpt lat="-25.6115420" lon="-49.0653250">
        <ele>968.4</ele>
        <time>2021-04-17T11:43:03Z</time>
      </trkpt>
      <trkpt lat="-25.6116040" lon="-49.0652920">
        <ele>968.4</ele>
        <time>2021-04-17T11:43:05Z</time>
      </trkpt>
      <trkpt lat="-25.6116640" lon="-49.0652510">
        <ele>968.4</ele>
        <time>2021-04-17T11:43:07Z</time>
      </trkpt>
      <trkpt lat="-25.6117300" lon="-49.0652110">
        <ele>968.2</ele>
        <time>2021-04-17T11:43:09Z</time>
      </trkpt>
      <trkpt lat="-25.6118000" lon="-49.0651690">
        <ele>968.2</ele>
        <time>2021-04-17T11:43:11Z</time>
      </trkpt>
      <trkpt lat="-25.6118700" lon="-49.0651340">
        <ele>968.2</ele>
        <time>2021-04-17T11:43:13Z</time>
      </trkpt>
      <trkpt lat="-25.6119380" lon="-49.0650960">
        <ele>968.2</ele>
        <time>2021-04-17T11:43:15Z</time>
      </trkpt>
      <trkpt lat="-25.6120060" lon="-49.0650630">
        <ele>968.2</ele>
        <time>2021-04-17T11:43:17Z</time>
      </trkpt>
      <trkpt lat="-25.6120710" lon="-49.0650350">
        <ele>968.2</ele>
        <time>2021-04-17T11:43:19Z</time>
      </trkpt>
      <trkpt lat="-25.6121330" lon="-49.0649950">
        <ele>968.2</ele>
        <time>2021-04-17T11:43:21Z</time>
      </trkpt>
      <trkpt lat="-25.6121940" lon="-49.0649590">
        <ele>968.4</ele>
        <time>2021-04-17T11:43:23Z</time>
      </trkpt>
      <trkpt lat="-25.6122510" lon="-49.0649190">
        <ele>968.4</ele>
        <time>2021-04-17T11:43:25Z</time>
      </trkpt>
      <trkpt lat="-25.6123060" lon="-49.0648710">
        <ele>968.8</ele>
        <time>2021-04-17T11:43:27Z</time>
      </trkpt>
      <trkpt lat="-25.6123310" lon="-49.0648420">
        <ele>968.8</ele>
        <time>2021-04-17T11:43:28Z</time>
      </trkpt>
      <trkpt lat="-25.6123560" lon="-49.0648170">
        <ele>969.0</ele>
        <time>2021-04-17T11:43:29Z</time>
      </trkpt>
      <trkpt lat="-25.6124060" lon="-49.0647670">
        <ele>969.4</ele>
        <time>2021-04-17T11:43:31Z</time>
      </trkpt>
      <trkpt lat="-25.6124490" lon="-49.0647160">
        <ele>969.6</ele>
        <time>2021-04-17T11:43:33Z</time>
      </trkpt>
      <trkpt lat="-25.6124860" lon="-49.0646680">
        <ele>970.2</ele>
        <time>2021-04-17T11:43:35Z</time>
      </trkpt>
      <trkpt lat="-25.6125260" lon="-49.0646130">
        <ele>970.6</ele>
        <time>2021-04-17T11:43:37Z</time>
      </trkpt>
      <trkpt lat="-25.6125590" lon="-49.0645580">
        <ele>971.2</ele>
        <time>2021-04-17T11:43:39Z</time>
      </trkpt>
      <trkpt lat="-25.6125760" lon="-49.0645330">
        <ele>971.4</ele>
        <time>2021-04-17T11:43:40Z</time>
      </trkpt>
      <trkpt lat="-25.6125960" lon="-49.0645080">
        <ele>971.8</ele>
        <time>2021-04-17T11:43:41Z</time>
      </trkpt>
      <trkpt lat="-25.6126300" lon="-49.0644650">
        <ele>972.6</ele>
        <time>2021-04-17T11:43:43Z</time>
      </trkpt>
      <trkpt lat="-25.6126630" lon="-49.0644210">
        <ele>973.4</ele>
        <time>2021-04-17T11:43:45Z</time>
      </trkpt>
      <trkpt lat="-25.6126820" lon="-49.0643960">
        <ele>973.6</ele>
        <time>2021-04-17T11:43:46Z</time>
      </trkpt>
      <trkpt lat="-25.6126990" lon="-49.0643720">
        <ele>974.0</ele>
        <time>2021-04-17T11:43:47Z</time>
      </trkpt>
      <trkpt lat="-25.6127310" lon="-49.0643210">
        <ele>974.8</ele>
        <time>2021-04-17T11:43:49Z</time>
      </trkpt>
      <trkpt lat="-25.6127690" lon="-49.0642790">
        <ele>975.6</ele>
        <time>2021-04-17T11:43:51Z</time>
      </trkpt>
      <trkpt lat="-25.6127880" lon="-49.0642570">
        <ele>976.2</ele>
        <time>2021-04-17T11:43:52Z</time>
      </trkpt>
      <trkpt lat="-25.6128040" lon="-49.0642370">
        <ele>976.4</ele>
        <time>2021-04-17T11:43:53Z</time>
      </trkpt>
      <trkpt lat="-25.6128380" lon="-49.0641960">
        <ele>977.0</ele>
        <time>2021-04-17T11:43:55Z</time>
      </trkpt>
      <trkpt lat="-25.6128540" lon="-49.0641750">
        <ele>977.2</ele>
        <time>2021-04-17T11:43:56Z</time>
      </trkpt>
      <trkpt lat="-25.6128720" lon="-49.0641530">
        <ele>977.6</ele>
        <time>2021-04-17T11:43:57Z</time>
      </trkpt>
      <trkpt lat="-25.6129080" lon="-49.0641110">
        <ele>978.0</ele>
        <time>2021-04-17T11:43:59Z</time>
      </trkpt>
      <trkpt lat="-25.6129210" lon="-49.0640910">
        <ele>978.4</ele>
        <time>2021-04-17T11:44:00Z</time>
      </trkpt>
      <trkpt lat="-25.6129360" lon="-49.0640740">
        <ele>978.6</ele>
        <time>2021-04-17T11:44:01Z</time>
      </trkpt>
      <trkpt lat="-25.6129680" lon="-49.0640390">
        <ele>978.8</ele>
        <time>2021-04-17T11:44:03Z</time>
      </trkpt>
      <trkpt lat="-25.6130020" lon="-49.0639990">
        <ele>979.2</ele>
        <time>2021-04-17T11:44:05Z</time>
      </trkpt>
      <trkpt lat="-25.6130190" lon="-49.0639810">
        <ele>979.4</ele>
        <time>2021-04-17T11:44:06Z</time>
      </trkpt>
      <trkpt lat="-25.6130360" lon="-49.0639660">
        <ele>979.6</ele>
        <time>2021-04-17T11:44:07Z</time>
      </trkpt>
      <trkpt lat="-25.6130530" lon="-49.0639480">
        <ele>979.8</ele>
        <time>2021-04-17T11:44:08Z</time>
      </trkpt>
      <trkpt lat="-25.6130680" lon="-49.0639320">
        <ele>980.0</ele>
        <time>2021-04-17T11:44:09Z</time>
      </trkpt>
      <trkpt lat="-25.6130970" lon="-49.0638990">
        <ele>980.4</ele>
        <time>2021-04-17T11:44:11Z</time>
      </trkpt>
      <trkpt lat="-25.6131090" lon="-49.0638840">
        <ele>980.6</ele>
        <time>2021-04-17T11:44:12Z</time>
      </trkpt>
      <trkpt lat="-25.6131220" lon="-49.0638680">
        <ele>980.8</ele>
        <time>2021-04-17T11:44:13Z</time>
      </trkpt>
      <trkpt lat="-25.6131520" lon="-49.0638350">
        <ele>981.2</ele>
        <time>2021-04-17T11:44:15Z</time>
      </trkpt>
      <trkpt lat="-25.6131680" lon="-49.0638170">
        <ele>981.4</ele>
        <time>2021-04-17T11:44:16Z</time>
      </trkpt>
      <trkpt lat="-25.6131810" lon="-49.0637990">
        <ele>981.6</ele>
        <time>2021-04-17T11:44:17Z</time>
      </trkpt>
      <trkpt lat="-25.6131950" lon="-49.0637820">
        <ele>981.8</ele>
        <time>2021-04-17T11:44:18Z</time>
      </trkpt>
      <trkpt lat="-25.6132120" lon="-49.0637660">
        <ele>982.0</ele>
        <time>2021-04-17T11:44:19Z</time>
      </trkpt>
      <trkpt lat="-25.6132410" lon="-49.0637300">
        <ele>982.4</ele>
        <time>2021-04-17T11:44:21Z</time>
      </trkpt>
      <trkpt lat="-25.6132710" lon="-49.0636980">
        <ele>982.8</ele>
        <time>2021-04-17T11:44:23Z</time>
      </trkpt>
      <trkpt lat="-25.6132970" lon="-49.0636680">
        <ele>983.4</ele>
        <time>2021-04-17T11:44:25Z</time>
      </trkpt>
      <trkpt lat="-25.6133150" lon="-49.0636360">
        <ele>983.8</ele>
        <time>2021-04-17T11:44:27Z</time>
      </trkpt>
      <trkpt lat="-25.6133220" lon="-49.0636210">
        <ele>983.8</ele>
        <time>2021-04-17T11:44:28Z</time>
      </trkpt>
      <trkpt lat="-25.6133290" lon="-49.0636120">
        <ele>984.0</ele>
        <time>2021-04-17T11:44:29Z</time>
      </trkpt>
      <trkpt lat="-25.6133300" lon="-49.0636100">
        <ele>984.2</ele>
        <time>2021-04-17T11:44:30Z</time>
      </trkpt>
      <trkpt lat="-25.6133300" lon="-49.0636070">
        <ele>984.4</ele>
        <time>2021-04-17T11:44:31Z</time>
      </trkpt>
      <trkpt lat="-25.6133330" lon="-49.0636040">
        <ele>984.6</ele>
        <time>2021-04-17T11:44:33Z</time>
      </trkpt>
      <trkpt lat="-25.6133370" lon="-49.0636020">
        <ele>984.6</ele>
        <time>2021-04-17T11:44:35Z</time>
      </trkpt>
      <trkpt lat="-25.6133400" lon="-49.0635990">
        <ele>984.8</ele>
        <time>2021-04-17T11:44:37Z</time>
      </trkpt>
      <trkpt lat="-25.6133410" lon="-49.0635980">
        <ele>984.8</ele>
        <time>2021-04-17T11:44:39Z</time>
      </trkpt>
      <trkpt lat="-25.6133420" lon="-49.0635970">
        <ele>984.8</ele>
        <time>2021-04-17T11:44:41Z</time>
      </trkpt>
      <trkpt lat="-25.6133420" lon="-49.0635970">
        <ele>984.8</ele>
        <time>2021-04-17T11:44:43Z</time>
      </trkpt>
      <trkpt lat="-25.6133420" lon="-49.0635970">
        <ele>984.8</ele>
        <time>2021-04-17T11:44:44Z</time>
      </trkpt>
      <trkpt lat="-25.6133440" lon="-49.0635970">
        <ele>984.8</ele>
        <time>2021-04-17T11:44:45Z</time>
      </trkpt>
      <trkpt lat="-25.6133450" lon="-49.0635960">
        <ele>984.8</ele>
        <time>2021-04-17T11:44:47Z</time>
      </trkpt>
      <trkpt lat="-25.6133460" lon="-49.0635960">
        <ele>984.8</ele>
        <time>2021-04-17T11:44:49Z</time>
      </trkpt>
      <trkpt lat="-25.6133450" lon="-49.0635970">
        <ele>984.6</ele>
        <time>2021-04-17T11:44:51Z</time>
      </trkpt>
      <trkpt lat="-25.6133450" lon="-49.0635970">
        <ele>984.6</ele>
        <time>2021-04-17T11:44:53Z</time>
      </trkpt>
      <trkpt lat="-25.6133440" lon="-49.0635970">
        <ele>984.6</ele>
        <time>2021-04-17T11:44:55Z</time>
      </trkpt>
      <trkpt lat="-25.6133440" lon="-49.0635980">
        <ele>984.6</ele>
        <time>2021-04-17T11:44:56Z</time>
      </trkpt>
      <trkpt lat="-25.6133440" lon="-49.0635980">
        <ele>984.6</ele>
        <time>2021-04-17T11:44:57Z</time>
      </trkpt>
      <trkpt lat="-25.6133440" lon="-49.0635980">
        <ele>984.6</ele>
        <time>2021-04-17T11:44:59Z</time>
      </trkpt>
      <trkpt lat="-25.6133430" lon="-49.0635980">
        <ele>984.6</ele>
        <time>2021-04-17T11:45:01Z</time>
      </trkpt>
      <trkpt lat="-25.6133430" lon="-49.0635990">
        <ele>984.6</ele>
        <time>2021-04-17T11:45:03Z</time>
      </trkpt>
      <trkpt lat="-25.6133430" lon="-49.0635990">
        <ele>984.8</ele>
        <time>2021-04-17T11:45:05Z</time>
      </trkpt>
      <trkpt lat="-25.6133430" lon="-49.0635990">
        <ele>984.8</ele>
        <time>2021-04-17T11:45:07Z</time>
      </trkpt>
      <trkpt lat="-25.6133430" lon="-49.0636000">
        <ele>984.8</ele>
        <time>2021-04-17T11:45:09Z</time>
      </trkpt>
      <trkpt lat="-25.6133430" lon="-49.0636010">
        <ele>984.8</ele>
        <time>2021-04-17T11:45:11Z</time>
      </trkpt>
      <trkpt lat="-25.6133430" lon="-49.0636020">
        <ele>984.8</ele>
        <time>2021-04-17T11:45:13Z</time>
      </trkpt>
      <trkpt lat="-25.6133440" lon="-49.0636020">
        <ele>984.8</ele>
        <time>2021-04-17T11:45:15Z</time>
      </trkpt>
      <trkpt lat="-25.6133430" lon="-49.0636030">
        <ele>984.8</ele>
        <time>2021-04-17T11:45:17Z</time>
      </trkpt>
      <trkpt lat="-25.6133420" lon="-49.0636030">
        <ele>984.8</ele>
        <time>2021-04-17T11:45:19Z</time>
      </trkpt>
      <trkpt lat="-25.6133410" lon="-49.0636020">
        <ele>984.8</ele>
        <time>2021-04-17T11:45:21Z</time>
      </trkpt>
      <trkpt lat="-25.6133410" lon="-49.0636020">
        <ele>984.8</ele>
        <time>2021-04-17T11:45:23Z</time>
      </trkpt>
      <trkpt lat="-25.6133410" lon="-49.0636020">
        <ele>984.8</ele>
        <time>2021-04-17T11:45:25Z</time>
      </trkpt>
      <trkpt lat="-25.6133410" lon="-49.0636020">
        <ele>984.8</ele>
        <time>2021-04-17T11:45:27Z</time>
      </trkpt>
      <trkpt lat="-25.6133420" lon="-49.0636020">
        <ele>984.8</ele>
        <time>2021-04-17T11:45:29Z</time>
      </trkpt>
      <trkpt lat="-25.6133480" lon="-49.0635940">
        <ele>984.8</ele>
        <time>2021-04-17T11:45:31Z</time>
      </trkpt>
      <trkpt lat="-25.6133630" lon="-49.0635830">
        <ele>984.8</ele>
        <time>2021-04-17T11:45:33Z</time>
      </trkpt>
      <trkpt lat="-25.6133770" lon="-49.0635720">
        <ele>984.8</ele>
        <time>2021-04-17T11:45:35Z</time>
      </trkpt>
      <trkpt lat="-25.6133870" lon="-49.0635660">
        <ele>984.8</ele>
        <time>2021-04-17T11:45:36Z</time>
      </trkpt>
      <trkpt lat="-25.6133990" lon="-49.0635560">
        <ele>984.8</ele>
        <time>2021-04-17T11:45:37Z</time>
      </trkpt>
      <trkpt lat="-25.6134270" lon="-49.0635310">
        <ele>984.8</ele>
        <time>2021-04-17T11:45:39Z</time>
      </trkpt>
      <trkpt lat="-25.6134620" lon="-49.0634960">
        <ele>984.8</ele>
        <time>2021-04-17T11:45:41Z</time>
      </trkpt>
      <trkpt lat="-25.6135210" lon="-49.0634580">
        <ele>984.8</ele>
        <time>2021-04-17T11:45:43Z</time>
      </trkpt>
      <trkpt lat="-25.6135640" lon="-49.0634390">
        <ele>984.8</ele>
        <time>2021-04-17T11:45:44Z</time>
      </trkpt>
      <trkpt lat="-25.6136120" lon="-49.0634180">
        <ele>984.8</ele>
        <time>2021-04-17T11:45:45Z</time>
      </trkpt>
      <trkpt lat="-25.6137150" lon="-49.0633620">
        <ele>984.8</ele>
        <time>2021-04-17T11:45:47Z</time>
      </trkpt>
      <trkpt lat="-25.6137960" lon="-49.0633030">
        <ele>984.4</ele>
        <time>2021-04-17T11:45:49Z</time>
      </trkpt>
      <trkpt lat="-25.6138690" lon="-49.0632350">
        <ele>984.2</ele>
        <time>2021-04-17T11:45:51Z</time>
      </trkpt>
      <trkpt lat="-25.6139450" lon="-49.0631670">
        <ele>983.6</ele>
        <time>2021-04-17T11:45:53Z</time>
      </trkpt>
      <trkpt lat="-25.6139790" lon="-49.0631330">
        <ele>983.2</ele>
        <time>2021-04-17T11:45:54Z</time>
      </trkpt>
      <trkpt lat="-25.6140130" lon="-49.0630960">
        <ele>983.0</ele>
        <time>2021-04-17T11:45:55Z</time>
      </trkpt>
      <trkpt lat="-25.6140750" lon="-49.0630170">
        <ele>982.8</ele>
        <time>2021-04-17T11:45:57Z</time>
      </trkpt>
      <trkpt lat="-25.6141240" lon="-49.0629420">
        <ele>982.8</ele>
        <time>2021-04-17T11:45:59Z</time>
      </trkpt>
      <trkpt lat="-25.6141640" lon="-49.0628740">
        <ele>982.8</ele>
        <time>2021-04-17T11:46:01Z</time>
      </trkpt>
      <trkpt lat="-25.6142060" lon="-49.0628000">
        <ele>982.8</ele>
        <time>2021-04-17T11:46:03Z</time>
      </trkpt>
      <trkpt lat="-25.6142470" lon="-49.0627120">
        <ele>983.0</ele>
        <time>2021-04-17T11:46:05Z</time>
      </trkpt>
      <trkpt lat="-25.6142720" lon="-49.0626680">
        <ele>983.0</ele>
        <time>2021-04-17T11:46:06Z</time>
      </trkpt>
      <trkpt lat="-25.6142950" lon="-49.0626240">
        <ele>983.2</ele>
        <time>2021-04-17T11:46:07Z</time>
      </trkpt>
      <trkpt lat="-25.6143390" lon="-49.0625460">
        <ele>983.8</ele>
        <time>2021-04-17T11:46:09Z</time>
      </trkpt>
      <trkpt lat="-25.6143780" lon="-49.0624820">
        <ele>984.2</ele>
        <time>2021-04-17T11:46:11Z</time>
      </trkpt>
      <trkpt lat="-25.6144200" lon="-49.0624220">
        <ele>984.8</ele>
        <time>2021-04-17T11:46:13Z</time>
      </trkpt>
      <trkpt lat="-25.6144610" lon="-49.0623480">
        <ele>985.4</ele>
        <time>2021-04-17T11:46:15Z</time>
      </trkpt>
      <trkpt lat="-25.6145060" lon="-49.0622650">
        <ele>985.6</ele>
        <time>2021-04-17T11:46:17Z</time>
      </trkpt>
      <trkpt lat="-25.6145490" lon="-49.0621780">
        <ele>985.8</ele>
        <time>2021-04-17T11:46:19Z</time>
      </trkpt>
      <trkpt lat="-25.6145920" lon="-49.0620910">
        <ele>985.8</ele>
        <time>2021-04-17T11:46:21Z</time>
      </trkpt>
      <trkpt lat="-25.6146330" lon="-49.0620040">
        <ele>985.8</ele>
        <time>2021-04-17T11:46:23Z</time>
      </trkpt>
      <trkpt lat="-25.6146680" lon="-49.0619220">
        <ele>985.8</ele>
        <time>2021-04-17T11:46:25Z</time>
      </trkpt>
      <trkpt lat="-25.6147030" lon="-49.0618450">
        <ele>985.8</ele>
        <time>2021-04-17T11:46:27Z</time>
      </trkpt>
      <trkpt lat="-25.6147360" lon="-49.0617690">
        <ele>985.6</ele>
        <time>2021-04-17T11:46:29Z</time>
      </trkpt>
      <trkpt lat="-25.6147720" lon="-49.0617010">
        <ele>985.6</ele>
        <time>2021-04-17T11:46:31Z</time>
      </trkpt>
      <trkpt lat="-25.6148190" lon="-49.0616300">
        <ele>985.6</ele>
        <time>2021-04-17T11:46:33Z</time>
      </trkpt>
      <trkpt lat="-25.6148480" lon="-49.0615980">
        <ele>985.6</ele>
        <time>2021-04-17T11:46:34Z</time>
      </trkpt>
      <trkpt lat="-25.6148790" lon="-49.0615660">
        <ele>985.4</ele>
        <time>2021-04-17T11:46:35Z</time>
      </trkpt>
      <trkpt lat="-25.6149520" lon="-49.0615080">
        <ele>985.4</ele>
        <time>2021-04-17T11:46:37Z</time>
      </trkpt>
      <trkpt lat="-25.6150320" lon="-49.0614500">
        <ele>985.4</ele>
        <time>2021-04-17T11:46:39Z</time>
      </trkpt>
      <trkpt lat="-25.6150750" lon="-49.0614230">
        <ele>985.4</ele>
        <time>2021-04-17T11:46:40Z</time>
      </trkpt>
      <trkpt lat="-25.6151220" lon="-49.0613990">
        <ele>985.4</ele>
        <time>2021-04-17T11:46:41Z</time>
      </trkpt>
      <trkpt lat="-25.6152240" lon="-49.0613580">
        <ele>985.4</ele>
        <time>2021-04-17T11:46:43Z</time>
      </trkpt>
      <trkpt lat="-25.6153300" lon="-49.0613210">
        <ele>985.4</ele>
        <time>2021-04-17T11:46:45Z</time>
      </trkpt>
      <trkpt lat="-25.6153840" lon="-49.0613040">
        <ele>985.4</ele>
        <time>2021-04-17T11:46:46Z</time>
      </trkpt>
      <trkpt lat="-25.6154360" lon="-49.0612890">
        <ele>985.4</ele>
        <time>2021-04-17T11:46:47Z</time>
      </trkpt>
      <trkpt lat="-25.6155360" lon="-49.0612550">
        <ele>985.4</ele>
        <time>2021-04-17T11:46:49Z</time>
      </trkpt>
      <trkpt lat="-25.6156330" lon="-49.0612200">
        <ele>985.6</ele>
        <time>2021-04-17T11:46:51Z</time>
      </trkpt>
      <trkpt lat="-25.6157210" lon="-49.0611820">
        <ele>985.8</ele>
        <time>2021-04-17T11:46:53Z</time>
      </trkpt>
      <trkpt lat="-25.6157980" lon="-49.0611450">
        <ele>986.0</ele>
        <time>2021-04-17T11:46:55Z</time>
      </trkpt>
      <trkpt lat="-25.6158650" lon="-49.0611030">
        <ele>986.4</ele>
        <time>2021-04-17T11:46:57Z</time>
      </trkpt>
      <trkpt lat="-25.6159210" lon="-49.0610480">
        <ele>987.0</ele>
        <time>2021-04-17T11:46:59Z</time>
      </trkpt>
      <trkpt lat="-25.6159700" lon="-49.0609930">
        <ele>987.4</ele>
        <time>2021-04-17T11:47:01Z</time>
      </trkpt>
      <trkpt lat="-25.6160120" lon="-49.0609320">
        <ele>988.0</ele>
        <time>2021-04-17T11:47:03Z</time>
      </trkpt>
      <trkpt lat="-25.6160320" lon="-49.0609000">
        <ele>988.6</ele>
        <time>2021-04-17T11:47:04Z</time>
      </trkpt>
      <trkpt lat="-25.6160500" lon="-49.0608660">
        <ele>989.2</ele>
        <time>2021-04-17T11:47:05Z</time>
      </trkpt>
      <trkpt lat="-25.6160690" lon="-49.0608320">
        <ele>989.6</ele>
        <time>2021-04-17T11:47:06Z</time>
      </trkpt>
      <trkpt lat="-25.6160850" lon="-49.0607960">
        <ele>989.8</ele>
        <time>2021-04-17T11:47:07Z</time>
      </trkpt>
      <trkpt lat="-25.6160980" lon="-49.0607550">
        <ele>990.2</ele>
        <time>2021-04-17T11:47:08Z</time>
      </trkpt>
      <trkpt lat="-25.6161100" lon="-49.0607080">
        <ele>990.4</ele>
        <time>2021-04-17T11:47:09Z</time>
      </trkpt>
      <trkpt lat="-25.6161220" lon="-49.0606590">
        <ele>990.6</ele>
        <time>2021-04-17T11:47:10Z</time>
      </trkpt>
      <trkpt lat="-25.6161320" lon="-49.0606060">
        <ele>990.6</ele>
        <time>2021-04-17T11:47:11Z</time>
      </trkpt>
      <trkpt lat="-25.6161380" lon="-49.0605500">
        <ele>990.6</ele>
        <time>2021-04-17T11:47:12Z</time>
      </trkpt>
      <trkpt lat="-25.6161380" lon="-49.0604920">
        <ele>990.6</ele>
        <time>2021-04-17T11:47:13Z</time>
      </trkpt>
      <trkpt lat="-25.6161330" lon="-49.0604350">
        <ele>990.6</ele>
        <time>2021-04-17T11:47:14Z</time>
      </trkpt>
      <trkpt lat="-25.6161230" lon="-49.0603780">
        <ele>990.6</ele>
        <time>2021-04-17T11:47:15Z</time>
      </trkpt>
      <trkpt lat="-25.6160950" lon="-49.0602670">
        <ele>990.6</ele>
        <time>2021-04-17T11:47:17Z</time>
      </trkpt>
      <trkpt lat="-25.6160840" lon="-49.0602120">
        <ele>990.6</ele>
        <time>2021-04-17T11:47:18Z</time>
      </trkpt>
      <trkpt lat="-25.6160750" lon="-49.0601550">
        <ele>990.6</ele>
        <time>2021-04-17T11:47:19Z</time>
      </trkpt>
      <trkpt lat="-25.6160710" lon="-49.0600300">
        <ele>990.2</ele>
        <time>2021-04-17T11:47:21Z</time>
      </trkpt>
      <trkpt lat="-25.6160940" lon="-49.0598930">
        <ele>990.0</ele>
        <time>2021-04-17T11:47:23Z</time>
      </trkpt>
      <trkpt lat="-25.6161380" lon="-49.0597500">
        <ele>989.8</ele>
        <time>2021-04-17T11:47:25Z</time>
      </trkpt>
      <trkpt lat="-25.6161640" lon="-49.0596810">
        <ele>989.8</ele>
        <time>2021-04-17T11:47:26Z</time>
      </trkpt>
      <trkpt lat="-25.6161880" lon="-49.0596130">
        <ele>989.4</ele>
        <time>2021-04-17T11:47:27Z</time>
      </trkpt>
      <trkpt lat="-25.6162320" lon="-49.0594830">
        <ele>988.8</ele>
        <time>2021-04-17T11:47:29Z</time>
      </trkpt>
      <trkpt lat="-25.6162770" lon="-49.0593710">
        <ele>988.8</ele>
        <time>2021-04-17T11:47:31Z</time>
      </trkpt>
      <trkpt lat="-25.6163170" lon="-49.0592770">
        <ele>988.6</ele>
        <time>2021-04-17T11:47:33Z</time>
      </trkpt>
      <trkpt lat="-25.6163480" lon="-49.0591940">
        <ele>988.6</ele>
        <time>2021-04-17T11:47:35Z</time>
      </trkpt>
      <trkpt lat="-25.6163630" lon="-49.0591560">
        <ele>988.6</ele>
        <time>2021-04-17T11:47:36Z</time>
      </trkpt>
      <trkpt lat="-25.6163770" lon="-49.0591200">
        <ele>988.6</ele>
        <time>2021-04-17T11:47:37Z</time>
      </trkpt>
      <trkpt lat="-25.6164050" lon="-49.0590480">
        <ele>988.8</ele>
        <time>2021-04-17T11:47:39Z</time>
      </trkpt>
      <trkpt lat="-25.6164260" lon="-49.0589850">
        <ele>989.4</ele>
        <time>2021-04-17T11:47:41Z</time>
      </trkpt>
      <trkpt lat="-25.6164510" lon="-49.0589230">
        <ele>990.2</ele>
        <time>2021-04-17T11:47:43Z</time>
      </trkpt>
      <trkpt lat="-25.6164620" lon="-49.0588920">
        <ele>990.6</ele>
        <time>2021-04-17T11:47:44Z</time>
      </trkpt>
      <trkpt lat="-25.6164720" lon="-49.0588590">
        <ele>990.8</ele>
        <time>2021-04-17T11:47:45Z</time>
      </trkpt>
      <trkpt lat="-25.6164950" lon="-49.0587890">
        <ele>991.6</ele>
        <time>2021-04-17T11:47:47Z</time>
      </trkpt>
      <trkpt lat="-25.6165190" lon="-49.0587220">
        <ele>992.2</ele>
        <time>2021-04-17T11:47:49Z</time>
      </trkpt>
      <trkpt lat="-25.6165420" lon="-49.0586470">
        <ele>992.6</ele>
        <time>2021-04-17T11:47:51Z</time>
      </trkpt>
      <trkpt lat="-25.6165530" lon="-49.0586120">
        <ele>992.8</ele>
        <time>2021-04-17T11:47:52Z</time>
      </trkpt>
      <trkpt lat="-25.6165660" lon="-49.0585750">
        <ele>993.0</ele>
        <time>2021-04-17T11:47:53Z</time>
      </trkpt>
      <trkpt lat="-25.6165910" lon="-49.0584990">
        <ele>993.2</ele>
        <time>2021-04-17T11:47:55Z</time>
      </trkpt>
      <trkpt lat="-25.6166150" lon="-49.0584220">
        <ele>993.6</ele>
        <time>2021-04-17T11:47:57Z</time>
      </trkpt>
      <trkpt lat="-25.6166270" lon="-49.0583840">
        <ele>993.6</ele>
        <time>2021-04-17T11:47:58Z</time>
      </trkpt>
      <trkpt lat="-25.6166380" lon="-49.0583460">
        <ele>993.8</ele>
        <time>2021-04-17T11:47:59Z</time>
      </trkpt>
      <trkpt lat="-25.6166600" lon="-49.0582690">
        <ele>993.8</ele>
        <time>2021-04-17T11:48:01Z</time>
      </trkpt>
      <trkpt lat="-25.6166820" lon="-49.0581920">
        <ele>994.0</ele>
        <time>2021-04-17T11:48:03Z</time>
      </trkpt>
      <trkpt lat="-25.6166980" lon="-49.0581190">
        <ele>994.4</ele>
        <time>2021-04-17T11:48:05Z</time>
      </trkpt>
      <trkpt lat="-25.6167110" lon="-49.0580520">
        <ele>994.6</ele>
        <time>2021-04-17T11:48:07Z</time>
      </trkpt>
      <trkpt lat="-25.6167160" lon="-49.0580210">
        <ele>995.0</ele>
        <time>2021-04-17T11:48:08Z</time>
      </trkpt>
      <trkpt lat="-25.6167210" lon="-49.0579920">
        <ele>995.2</ele>
        <time>2021-04-17T11:48:09Z</time>
      </trkpt>
      <trkpt lat="-25.6167210" lon="-49.0579320">
        <ele>995.8</ele>
        <time>2021-04-17T11:48:11Z</time>
      </trkpt>
      <trkpt lat="-25.6167200" lon="-49.0579010">
        <ele>996.2</ele>
        <time>2021-04-17T11:48:12Z</time>
      </trkpt>
      <trkpt lat="-25.6167220" lon="-49.0578700">
        <ele>996.4</ele>
        <time>2021-04-17T11:48:13Z</time>
      </trkpt>
      <trkpt lat="-25.6167290" lon="-49.0578100">
        <ele>996.8</ele>
        <time>2021-04-17T11:48:15Z</time>
      </trkpt>
      <trkpt lat="-25.6167360" lon="-49.0577490">
        <ele>997.2</ele>
        <time>2021-04-17T11:48:17Z</time>
      </trkpt>
      <trkpt lat="-25.6167420" lon="-49.0576890">
        <ele>997.8</ele>
        <time>2021-04-17T11:48:19Z</time>
      </trkpt>
      <trkpt lat="-25.6167470" lon="-49.0576340">
        <ele>998.2</ele>
        <time>2021-04-17T11:48:21Z</time>
      </trkpt>
      <trkpt lat="-25.6167500" lon="-49.0576050">
        <ele>998.4</ele>
        <time>2021-04-17T11:48:22Z</time>
      </trkpt>
      <trkpt lat="-25.6167520" lon="-49.0575760">
        <ele>998.8</ele>
        <time>2021-04-17T11:48:23Z</time>
      </trkpt>
      <trkpt lat="-25.6167620" lon="-49.0575190">
        <ele>999.4</ele>
        <time>2021-04-17T11:48:25Z</time>
      </trkpt>
      <trkpt lat="-25.6167670" lon="-49.0574910">
        <ele>999.6</ele>
        <time>2021-04-17T11:48:26Z</time>
      </trkpt>
      <trkpt lat="-25.6167720" lon="-49.0574640">
        <ele>999.8</ele>
        <time>2021-04-17T11:48:27Z</time>
      </trkpt>
      <trkpt lat="-25.6167810" lon="-49.0574090">
        <ele>1000.4</ele>
        <time>2021-04-17T11:48:29Z</time>
      </trkpt>
      <trkpt lat="-25.6167870" lon="-49.0573820">
        <ele>1000.6</ele>
        <time>2021-04-17T11:48:30Z</time>
      </trkpt>
      <trkpt lat="-25.6167910" lon="-49.0573550">
        <ele>1001.0</ele>
        <time>2021-04-17T11:48:31Z</time>
      </trkpt>
      <trkpt lat="-25.6167980" lon="-49.0573000">
        <ele>1001.4</ele>
        <time>2021-04-17T11:48:33Z</time>
      </trkpt>
      <trkpt lat="-25.6168050" lon="-49.0572450">
        <ele>1001.8</ele>
        <time>2021-04-17T11:48:35Z</time>
      </trkpt>
      <trkpt lat="-25.6168120" lon="-49.0571800">
        <ele>1002.4</ele>
        <time>2021-04-17T11:48:37Z</time>
      </trkpt>
      <trkpt lat="-25.6168230" lon="-49.0571100">
        <ele>1002.6</ele>
        <time>2021-04-17T11:48:39Z</time>
      </trkpt>
      <trkpt lat="-25.6168350" lon="-49.0570320">
        <ele>1003.0</ele>
        <time>2021-04-17T11:48:41Z</time>
      </trkpt>
      <trkpt lat="-25.6168460" lon="-49.0569500">
        <ele>1003.0</ele>
        <time>2021-04-17T11:48:43Z</time>
      </trkpt>
      <trkpt lat="-25.6168590" lon="-49.0568670">
        <ele>1003.2</ele>
        <time>2021-04-17T11:48:45Z</time>
      </trkpt>
      <trkpt lat="-25.6168670" lon="-49.0567810">
        <ele>1003.2</ele>
        <time>2021-04-17T11:48:47Z</time>
      </trkpt>
      <trkpt lat="-25.6168800" lon="-49.0566980">
        <ele>1003.2</ele>
        <time>2021-04-17T11:48:49Z</time>
      </trkpt>
      <trkpt lat="-25.6168870" lon="-49.0566160">
        <ele>1003.2</ele>
        <time>2021-04-17T11:48:51Z</time>
      </trkpt>
      <trkpt lat="-25.6168890" lon="-49.0565350">
        <ele>1003.2</ele>
        <time>2021-04-17T11:48:53Z</time>
      </trkpt>
      <trkpt lat="-25.6168910" lon="-49.0564950">
        <ele>1003.2</ele>
        <time>2021-04-17T11:48:54Z</time>
      </trkpt>
      <trkpt lat="-25.6168950" lon="-49.0564550">
        <ele>1003.2</ele>
        <time>2021-04-17T11:48:55Z</time>
      </trkpt>
      <trkpt lat="-25.6169040" lon="-49.0563790">
        <ele>1003.2</ele>
        <time>2021-04-17T11:48:57Z</time>
      </trkpt>
      <trkpt lat="-25.6169060" lon="-49.0563070">
        <ele>1003.4</ele>
        <time>2021-04-17T11:48:59Z</time>
      </trkpt>
      <trkpt lat="-25.6169070" lon="-49.0562360">
        <ele>1003.4</ele>
        <time>2021-04-17T11:49:01Z</time>
      </trkpt>
      <trkpt lat="-25.6169100" lon="-49.0561630">
        <ele>1003.6</ele>
        <time>2021-04-17T11:49:03Z</time>
      </trkpt>
      <trkpt lat="-25.6169110" lon="-49.0560900">
        <ele>1003.8</ele>
        <time>2021-04-17T11:49:05Z</time>
      </trkpt>
      <trkpt lat="-25.6169100" lon="-49.0560540">
        <ele>1003.8</ele>
        <time>2021-04-17T11:49:06Z</time>
      </trkpt>
      <trkpt lat="-25.6169100" lon="-49.0560190">
        <ele>1004.2</ele>
        <time>2021-04-17T11:49:07Z</time>
      </trkpt>
      <trkpt lat="-25.6169080" lon="-49.0559520">
        <ele>1004.4</ele>
        <time>2021-04-17T11:49:09Z</time>
      </trkpt>
      <trkpt lat="-25.6169080" lon="-49.0559180">
        <ele>1004.6</ele>
        <time>2021-04-17T11:49:10Z</time>
      </trkpt>
      <trkpt lat="-25.6169100" lon="-49.0558830">
        <ele>1004.6</ele>
        <time>2021-04-17T11:49:11Z</time>
      </trkpt>
      <trkpt lat="-25.6169130" lon="-49.0558490">
        <ele>1004.8</ele>
        <time>2021-04-17T11:49:12Z</time>
      </trkpt>
      <trkpt lat="-25.6169140" lon="-49.0558140">
        <ele>1004.8</ele>
        <time>2021-04-17T11:49:13Z</time>
      </trkpt>
      <trkpt lat="-25.6169180" lon="-49.0557420">
        <ele>1005.4</ele>
        <time>2021-04-17T11:49:15Z</time>
      </trkpt>
      <trkpt lat="-25.6169250" lon="-49.0556720">
        <ele>1005.6</ele>
        <time>2021-04-17T11:49:17Z</time>
      </trkpt>
      <trkpt lat="-25.6169370" lon="-49.0555990">
        <ele>1005.8</ele>
        <time>2021-04-17T11:49:19Z</time>
      </trkpt>
      <trkpt lat="-25.6169460" lon="-49.0555610">
        <ele>1005.8</ele>
        <time>2021-04-17T11:49:20Z</time>
      </trkpt>
      <trkpt lat="-25.6169550" lon="-49.0555240">
        <ele>1005.8</ele>
        <time>2021-04-17T11:49:21Z</time>
      </trkpt>
      <trkpt lat="-25.6169780" lon="-49.0554540">
        <ele>1006.2</ele>
        <time>2021-04-17T11:49:23Z</time>
      </trkpt>
      <trkpt lat="-25.6170000" lon="-49.0553850">
        <ele>1006.4</ele>
        <time>2021-04-17T11:49:25Z</time>
      </trkpt>
      <trkpt lat="-25.6170210" lon="-49.0553150">
        <ele>1006.6</ele>
        <time>2021-04-17T11:49:27Z</time>
      </trkpt>
      <trkpt lat="-25.6170310" lon="-49.0552780">
        <ele>1006.8</ele>
        <time>2021-04-17T11:49:28Z</time>
      </trkpt>
      <trkpt lat="-25.6170400" lon="-49.0552450">
        <ele>1006.8</ele>
        <time>2021-04-17T11:49:29Z</time>
      </trkpt>
      <trkpt lat="-25.6170480" lon="-49.0552140">
        <ele>1006.8</ele>
        <time>2021-04-17T11:49:30Z</time>
      </trkpt>
      <trkpt lat="-25.6170540" lon="-49.0551820">
        <ele>1007.2</ele>
        <time>2021-04-17T11:49:31Z</time>
      </trkpt>
      <trkpt lat="-25.6170590" lon="-49.0551150">
        <ele>1007.4</ele>
        <time>2021-04-17T11:49:33Z</time>
      </trkpt>
      <trkpt lat="-25.6170630" lon="-49.0550780">
        <ele>1007.6</ele>
        <time>2021-04-17T11:49:34Z</time>
      </trkpt>
      <trkpt lat="-25.6170670" lon="-49.0550420">
        <ele>1007.6</ele>
        <time>2021-04-17T11:49:35Z</time>
      </trkpt>
      <trkpt lat="-25.6170740" lon="-49.0549580">
        <ele>1007.8</ele>
        <time>2021-04-17T11:49:37Z</time>
      </trkpt>
      <trkpt lat="-25.6170850" lon="-49.0548540">
        <ele>1007.8</ele>
        <time>2021-04-17T11:49:39Z</time>
      </trkpt>
      <trkpt lat="-25.6170920" lon="-49.0547920">
        <ele>1007.8</ele>
        <time>2021-04-17T11:49:40Z</time>
      </trkpt>
      <trkpt lat="-25.6170990" lon="-49.0547290">
        <ele>1007.8</ele>
        <time>2021-04-17T11:49:41Z</time>
      </trkpt>
      <trkpt lat="-25.6171190" lon="-49.0545700">
        <ele>1007.8</ele>
        <time>2021-04-17T11:49:43Z</time>
      </trkpt>
      <trkpt lat="-25.6171290" lon="-49.0544780">
        <ele>1007.8</ele>
        <time>2021-04-17T11:49:44Z</time>
      </trkpt>
      <trkpt lat="-25.6171340" lon="-49.0543810">
        <ele>1007.8</ele>
        <time>2021-04-17T11:49:45Z</time>
      </trkpt>
      <trkpt lat="-25.6171270" lon="-49.0541510">
        <ele>1007.2</ele>
        <time>2021-04-17T11:49:47Z</time>
      </trkpt>
      <trkpt lat="-25.6171210" lon="-49.0540210">
        <ele>1006.8</ele>
        <time>2021-04-17T11:49:48Z</time>
      </trkpt>
      <trkpt lat="-25.6171120" lon="-49.0538880">
        <ele>1006.6</ele>
        <time>2021-04-17T11:49:49Z</time>
      </trkpt>
      <trkpt lat="-25.6170790" lon="-49.0536220">
        <ele>1006.0</ele>
        <time>2021-04-17T11:49:51Z</time>
      </trkpt>
      <trkpt lat="-25.6170550" lon="-49.0534910">
        <ele>1005.4</ele>
        <time>2021-04-17T11:49:52Z</time>
      </trkpt>
      <trkpt lat="-25.6170370" lon="-49.0533620">
        <ele>1004.6</ele>
        <time>2021-04-17T11:49:53Z</time>
      </trkpt>
      <trkpt lat="-25.6170280" lon="-49.0532340">
        <ele>1003.8</ele>
        <time>2021-04-17T11:49:54Z</time>
      </trkpt>
      <trkpt lat="-25.6170270" lon="-49.0531120">
        <ele>1002.4</ele>
        <time>2021-04-17T11:49:55Z</time>
      </trkpt>
      <trkpt lat="-25.6170490" lon="-49.0529970">
        <ele>1000.8</ele>
        <time>2021-04-17T11:49:56Z</time>
      </trkpt>
      <trkpt lat="-25.6170870" lon="-49.0528970">
        <ele>999.4</ele>
        <time>2021-04-17T11:49:57Z</time>
      </trkpt>
      <trkpt lat="-25.6171380" lon="-49.0528270">
        <ele>998.6</ele>
        <time>2021-04-17T11:49:58Z</time>
      </trkpt>
      <trkpt lat="-25.6171930" lon="-49.0527790">
        <ele>997.6</ele>
        <time>2021-04-17T11:49:59Z</time>
      </trkpt>
      <trkpt lat="-25.6172930" lon="-49.0527190">
        <ele>996.4</ele>
        <time>2021-04-17T11:50:01Z</time>
      </trkpt>
      <trkpt lat="-25.6173800" lon="-49.0526780">
        <ele>996.0</ele>
        <time>2021-04-17T11:50:03Z</time>
      </trkpt>
      <trkpt lat="-25.6174190" lon="-49.0526550">
        <ele>996.0</ele>
        <time>2021-04-17T11:50:04Z</time>
      </trkpt>
      <trkpt lat="-25.6174560" lon="-49.0526290">
        <ele>996.0</ele>
        <time>2021-04-17T11:50:05Z</time>
      </trkpt>
      <trkpt lat="-25.6174890" lon="-49.0526030">
        <ele>996.0</ele>
        <time>2021-04-17T11:50:06Z</time>
      </trkpt>
      <trkpt lat="-25.6175190" lon="-49.0525770">
        <ele>996.0</ele>
        <time>2021-04-17T11:50:07Z</time>
      </trkpt>
      <trkpt lat="-25.6175680" lon="-49.0525250">
        <ele>996.0</ele>
        <time>2021-04-17T11:50:09Z</time>
      </trkpt>
      <trkpt lat="-25.6176180" lon="-49.0524680">
        <ele>996.0</ele>
        <time>2021-04-17T11:50:11Z</time>
      </trkpt>
      <trkpt lat="-25.6176450" lon="-49.0524380">
        <ele>996.4</ele>
        <time>2021-04-17T11:50:12Z</time>
      </trkpt>
      <trkpt lat="-25.6176750" lon="-49.0524060">
        <ele>996.6</ele>
        <time>2021-04-17T11:50:13Z</time>
      </trkpt>
      <trkpt lat="-25.6177370" lon="-49.0523350">
        <ele>997.0</ele>
        <time>2021-04-17T11:50:15Z</time>
      </trkpt>
      <trkpt lat="-25.6178010" lon="-49.0522390">
        <ele>997.2</ele>
        <time>2021-04-17T11:50:17Z</time>
      </trkpt>
      <trkpt lat="-25.6178330" lon="-49.0521780">
        <ele>997.2</ele>
        <time>2021-04-17T11:50:18Z</time>
      </trkpt>
      <trkpt lat="-25.6178660" lon="-49.0521160">
        <ele>997.2</ele>
        <time>2021-04-17T11:50:19Z</time>
      </trkpt>
      <trkpt lat="-25.6179350" lon="-49.0519800">
        <ele>997.2</ele>
        <time>2021-04-17T11:50:21Z</time>
      </trkpt>
      <trkpt lat="-25.6179650" lon="-49.0519030">
        <ele>997.2</ele>
        <time>2021-04-17T11:50:22Z</time>
      </trkpt>
      <trkpt lat="-25.6179920" lon="-49.0518240">
        <ele>997.2</ele>
        <time>2021-04-17T11:50:23Z</time>
      </trkpt>
      <trkpt lat="-25.6180630" lon="-49.0516520">
        <ele>996.4</ele>
        <time>2021-04-17T11:50:25Z</time>
      </trkpt>
      <trkpt lat="-25.6181440" lon="-49.0514640">
        <ele>994.8</ele>
        <time>2021-04-17T11:50:27Z</time>
      </trkpt>
      <trkpt lat="-25.6182060" lon="-49.0512740">
        <ele>993.4</ele>
        <time>2021-04-17T11:50:29Z</time>
      </trkpt>
      <trkpt lat="-25.6182260" lon="-49.0511840">
        <ele>992.8</ele>
        <time>2021-04-17T11:50:30Z</time>
      </trkpt>
      <trkpt lat="-25.6182370" lon="-49.0510920">
        <ele>992.0</ele>
        <time>2021-04-17T11:50:31Z</time>
      </trkpt>
      <trkpt lat="-25.6182390" lon="-49.0509960">
        <ele>990.8</ele>
        <time>2021-04-17T11:50:32Z</time>
      </trkpt>
      <trkpt lat="-25.6182370" lon="-49.0508890">
        <ele>990.0</ele>
        <time>2021-04-17T11:50:33Z</time>
      </trkpt>
      <trkpt lat="-25.6182300" lon="-49.0507750">
        <ele>988.8</ele>
        <time>2021-04-17T11:50:34Z</time>
      </trkpt>
      <trkpt lat="-25.6182250" lon="-49.0506570">
        <ele>987.4</ele>
        <time>2021-04-17T11:50:35Z</time>
      </trkpt>
      <trkpt lat="-25.6182260" lon="-49.0505330">
        <ele>985.8</ele>
        <time>2021-04-17T11:50:36Z</time>
      </trkpt>
      <trkpt lat="-25.6182320" lon="-49.0504050">
        <ele>985.0</ele>
        <time>2021-04-17T11:50:37Z</time>
      </trkpt>
      <trkpt lat="-25.6182390" lon="-49.0502750">
        <ele>984.2</ele>
        <time>2021-04-17T11:50:38Z</time>
      </trkpt>
      <trkpt lat="-25.6182500" lon="-49.0501500">
        <ele>983.6</ele>
        <time>2021-04-17T11:50:39Z</time>
      </trkpt>
      <trkpt lat="-25.6182700" lon="-49.0500310">
        <ele>983.2</ele>
        <time>2021-04-17T11:50:40Z</time>
      </trkpt>
      <trkpt lat="-25.6183020" lon="-49.0499220">
        <ele>982.4</ele>
        <time>2021-04-17T11:50:41Z</time>
      </trkpt>
      <trkpt lat="-25.6183430" lon="-49.0498240">
        <ele>981.6</ele>
        <time>2021-04-17T11:50:42Z</time>
      </trkpt>
      <trkpt lat="-25.6183920" lon="-49.0497310">
        <ele>981.2</ele>
        <time>2021-04-17T11:50:43Z</time>
      </trkpt>
      <trkpt lat="-25.6184530" lon="-49.0496390">
        <ele>980.2</ele>
        <time>2021-04-17T11:50:44Z</time>
      </trkpt>
      <trkpt lat="-25.6185220" lon="-49.0495490">
        <ele>978.8</ele>
        <time>2021-04-17T11:50:45Z</time>
      </trkpt>
      <trkpt lat="-25.6185950" lon="-49.0494720">
        <ele>977.8</ele>
        <time>2021-04-17T11:50:46Z</time>
      </trkpt>
      <trkpt lat="-25.6186690" lon="-49.0494010">
        <ele>977.0</ele>
        <time>2021-04-17T11:50:47Z</time>
      </trkpt>
      <trkpt lat="-25.6187430" lon="-49.0493340">
        <ele>976.6</ele>
        <time>2021-04-17T11:50:48Z</time>
      </trkpt>
      <trkpt lat="-25.6188130" lon="-49.0492680">
        <ele>976.4</ele>
        <time>2021-04-17T11:50:49Z</time>
      </trkpt>
      <trkpt lat="-25.6189280" lon="-49.0491320">
        <ele>975.0</ele>
        <time>2021-04-17T11:50:51Z</time>
      </trkpt>
      <trkpt lat="-25.6190040" lon="-49.0489780">
        <ele>973.6</ele>
        <time>2021-04-17T11:50:53Z</time>
      </trkpt>
      <trkpt lat="-25.6190450" lon="-49.0488310">
        <ele>973.0</ele>
        <time>2021-04-17T11:50:55Z</time>
      </trkpt>
      <trkpt lat="-25.6190540" lon="-49.0486880">
        <ele>972.8</ele>
        <time>2021-04-17T11:50:57Z</time>
      </trkpt>
      <trkpt lat="-25.6190400" lon="-49.0485560">
        <ele>972.8</ele>
        <time>2021-04-17T11:50:59Z</time>
      </trkpt>
      <trkpt lat="-25.6190290" lon="-49.0484910">
        <ele>972.8</ele>
        <time>2021-04-17T11:51:00Z</time>
      </trkpt>
      <trkpt lat="-25.6190180" lon="-49.0484340">
        <ele>972.8</ele>
        <time>2021-04-17T11:51:01Z</time>
      </trkpt>
      <trkpt lat="-25.6190060" lon="-49.0483250">
        <ele>972.8</ele>
        <time>2021-04-17T11:51:03Z</time>
      </trkpt>
      <trkpt lat="-25.6189880" lon="-49.0482160">
        <ele>973.2</ele>
        <time>2021-04-17T11:51:05Z</time>
      </trkpt>
      <trkpt lat="-25.6189620" lon="-49.0481140">
        <ele>973.2</ele>
        <time>2021-04-17T11:51:07Z</time>
      </trkpt>
      <trkpt lat="-25.6189330" lon="-49.0480300">
        <ele>973.2</ele>
        <time>2021-04-17T11:51:09Z</time>
      </trkpt>
      <trkpt lat="-25.6189190" lon="-49.0479950">
        <ele>973.2</ele>
        <time>2021-04-17T11:51:10Z</time>
      </trkpt>
      <trkpt lat="-25.6189020" lon="-49.0479580">
        <ele>973.2</ele>
        <time>2021-04-17T11:51:11Z</time>
      </trkpt>
      <trkpt lat="-25.6188590" lon="-49.0478570">
        <ele>973.2</ele>
        <time>2021-04-17T11:51:13Z</time>
      </trkpt>
      <trkpt lat="-25.6188350" lon="-49.0477920">
        <ele>973.2</ele>
        <time>2021-04-17T11:51:14Z</time>
      </trkpt>
      <trkpt lat="-25.6188110" lon="-49.0477190">
        <ele>973.0</ele>
        <time>2021-04-17T11:51:15Z</time>
      </trkpt>
      <trkpt lat="-25.6187580" lon="-49.0475590">
        <ele>972.6</ele>
        <time>2021-04-17T11:51:17Z</time>
      </trkpt>
      <trkpt lat="-25.6187090" lon="-49.0473900">
        <ele>971.8</ele>
        <time>2021-04-17T11:51:19Z</time>
      </trkpt>
      <trkpt lat="-25.6186940" lon="-49.0473020">
        <ele>971.6</ele>
        <time>2021-04-17T11:51:20Z</time>
      </trkpt>
      <trkpt lat="-25.6186810" lon="-49.0472150">
        <ele>971.2</ele>
        <time>2021-04-17T11:51:21Z</time>
      </trkpt>
      <trkpt lat="-25.6186660" lon="-49.0471330">
        <ele>971.0</ele>
        <time>2021-04-17T11:51:22Z</time>
      </trkpt>
      <trkpt lat="-25.6186430" lon="-49.0470580">
        <ele>970.8</ele>
        <time>2021-04-17T11:51:23Z</time>
      </trkpt>
      <trkpt lat="-25.6185600" lon="-49.0469390">
        <ele>970.0</ele>
        <time>2021-04-17T11:51:25Z</time>
      </trkpt>
      <trkpt lat="-25.6184980" lon="-49.0468910">
        <ele>969.6</ele>
        <time>2021-04-17T11:51:26Z</time>
      </trkpt>
      <trkpt lat="-25.6184230" lon="-49.0468480">
        <ele>969.2</ele>
        <time>2021-04-17T11:51:27Z</time>
      </trkpt>
      <trkpt lat="-25.6183390" lon="-49.0468070">
        <ele>969.0</ele>
        <time>2021-04-17T11:51:28Z</time>
      </trkpt>
      <trkpt lat="-25.6182520" lon="-49.0467600">
        <ele>968.8</ele>
        <time>2021-04-17T11:51:29Z</time>
      </trkpt>
      <trkpt lat="-25.6181640" lon="-49.0467100">
        <ele>968.4</ele>
        <time>2021-04-17T11:51:30Z</time>
      </trkpt>
      <trkpt lat="-25.6180750" lon="-49.0466540">
        <ele>968.2</ele>
        <time>2021-04-17T11:51:31Z</time>
      </trkpt>
      <trkpt lat="-25.6179880" lon="-49.0466000">
        <ele>968.0</ele>
        <time>2021-04-17T11:51:32Z</time>
      </trkpt>
      <trkpt lat="-25.6179050" lon="-49.0465470">
        <ele>967.4</ele>
        <time>2021-04-17T11:51:33Z</time>
      </trkpt>
      <trkpt lat="-25.6178290" lon="-49.0464940">
        <ele>966.8</ele>
        <time>2021-04-17T11:51:34Z</time>
      </trkpt>
      <trkpt lat="-25.6177590" lon="-49.0464460">
        <ele>966.0</ele>
        <time>2021-04-17T11:51:35Z</time>
      </trkpt>
      <trkpt lat="-25.6176940" lon="-49.0464000">
        <ele>964.8</ele>
        <time>2021-04-17T11:51:36Z</time>
      </trkpt>
      <trkpt lat="-25.6176280" lon="-49.0463580">
        <ele>963.6</ele>
        <time>2021-04-17T11:51:37Z</time>
      </trkpt>
      <trkpt lat="-25.6174950" lon="-49.0462800">
        <ele>962.2</ele>
        <time>2021-04-17T11:51:39Z</time>
      </trkpt>
      <trkpt lat="-25.6174290" lon="-49.0462440">
        <ele>961.0</ele>
        <time>2021-04-17T11:51:40Z</time>
      </trkpt>
      <trkpt lat="-25.6173680" lon="-49.0462090">
        <ele>960.0</ele>
        <time>2021-04-17T11:51:41Z</time>
      </trkpt>
      <trkpt lat="-25.6173120" lon="-49.0461710">
        <ele>958.8</ele>
        <time>2021-04-17T11:51:42Z</time>
      </trkpt>
      <trkpt lat="-25.6172620" lon="-49.0461220">
        <ele>957.4</ele>
        <time>2021-04-17T11:51:43Z</time>
      </trkpt>
      <trkpt lat="-25.6172150" lon="-49.0460560">
        <ele>956.4</ele>
        <time>2021-04-17T11:51:44Z</time>
      </trkpt>
      <trkpt lat="-25.6171830" lon="-49.0459740">
        <ele>955.4</ele>
        <time>2021-04-17T11:51:45Z</time>
      </trkpt>
      <trkpt lat="-25.6171630" lon="-49.0458720">
        <ele>954.4</ele>
        <time>2021-04-17T11:51:46Z</time>
      </trkpt>
      <trkpt lat="-25.6171500" lon="-49.0457560">
        <ele>953.6</ele>
        <time>2021-04-17T11:51:47Z</time>
      </trkpt>
      <trkpt lat="-25.6171410" lon="-49.0456360">
        <ele>952.6</ele>
        <time>2021-04-17T11:51:48Z</time>
      </trkpt>
      <trkpt lat="-25.6171450" lon="-49.0455080">
        <ele>951.8</ele>
        <time>2021-04-17T11:51:49Z</time>
      </trkpt>
      <trkpt lat="-25.6171590" lon="-49.0453740">
        <ele>950.2</ele>
        <time>2021-04-17T11:51:50Z</time>
      </trkpt>
      <trkpt lat="-25.6171730" lon="-49.0452360">
        <ele>948.8</ele>
        <time>2021-04-17T11:51:51Z</time>
      </trkpt>
      <trkpt lat="-25.6171850" lon="-49.0451010">
        <ele>946.4</ele>
        <time>2021-04-17T11:51:52Z</time>
      </trkpt>
      <trkpt lat="-25.6171910" lon="-49.0449730">
        <ele>945.6</ele>
        <time>2021-04-17T11:51:53Z</time>
      </trkpt>
      <trkpt lat="-25.6172030" lon="-49.0448540">
        <ele>944.2</ele>
        <time>2021-04-17T11:51:54Z</time>
      </trkpt>
      <trkpt lat="-25.6172270" lon="-49.0447400">
        <ele>942.8</ele>
        <time>2021-04-17T11:51:55Z</time>
      </trkpt>
      <trkpt lat="-25.6172590" lon="-49.0446270">
        <ele>941.8</ele>
        <time>2021-04-17T11:51:56Z</time>
      </trkpt>
      <trkpt lat="-25.6173000" lon="-49.0445200">
        <ele>941.0</ele>
        <time>2021-04-17T11:51:57Z</time>
      </trkpt>
      <trkpt lat="-25.6173450" lon="-49.0444300">
        <ele>940.2</ele>
        <time>2021-04-17T11:51:58Z</time>
      </trkpt>
      <trkpt lat="-25.6173890" lon="-49.0443600">
        <ele>939.4</ele>
        <time>2021-04-17T11:51:59Z</time>
      </trkpt>
      <trkpt lat="-25.6174280" lon="-49.0443080">
        <ele>938.6</ele>
        <time>2021-04-17T11:52:00Z</time>
      </trkpt>
      <trkpt lat="-25.6174610" lon="-49.0442690">
        <ele>937.6</ele>
        <time>2021-04-17T11:52:01Z</time>
      </trkpt>
      <trkpt lat="-25.6174890" lon="-49.0442350">
        <ele>936.6</ele>
        <time>2021-04-17T11:52:02Z</time>
      </trkpt>
      <trkpt lat="-25.6175130" lon="-49.0442120">
        <ele>935.8</ele>
        <time>2021-04-17T11:52:03Z</time>
      </trkpt>
      <trkpt lat="-25.6175320" lon="-49.0441950">
        <ele>935.2</ele>
        <time>2021-04-17T11:52:04Z</time>
      </trkpt>
      <trkpt lat="-25.6175480" lon="-49.0441830">
        <ele>934.4</ele>
        <time>2021-04-17T11:52:05Z</time>
      </trkpt>
      <trkpt lat="-25.6175610" lon="-49.0441720">
        <ele>933.8</ele>
        <time>2021-04-17T11:52:06Z</time>
      </trkpt>
      <trkpt lat="-25.6175770" lon="-49.0441610">
        <ele>933.0</ele>
        <time>2021-04-17T11:52:07Z</time>
      </trkpt>
      <trkpt lat="-25.6175990" lon="-49.0441460">
        <ele>932.2</ele>
        <time>2021-04-17T11:52:08Z</time>
      </trkpt>
      <trkpt lat="-25.6176270" lon="-49.0441300">
        <ele>931.6</ele>
        <time>2021-04-17T11:52:09Z</time>
      </trkpt>
      <trkpt lat="-25.6176600" lon="-49.0441100">
        <ele>931.2</ele>
        <time>2021-04-17T11:52:10Z</time>
      </trkpt>
      <trkpt lat="-25.6176960" lon="-49.0440920">
        <ele>931.0</ele>
        <time>2021-04-17T11:52:11Z</time>
      </trkpt>
      <trkpt lat="-25.6177680" lon="-49.0440620">
        <ele>930.6</ele>
        <time>2021-04-17T11:52:13Z</time>
      </trkpt>
      <trkpt lat="-25.6178390" lon="-49.0440390">
        <ele>930.2</ele>
        <time>2021-04-17T11:52:15Z</time>
      </trkpt>
      <trkpt lat="-25.6179170" lon="-49.0440180">
        <ele>930.2</ele>
        <time>2021-04-17T11:52:17Z</time>
      </trkpt>
      <trkpt lat="-25.6180000" lon="-49.0439950">
        <ele>930.2</ele>
        <time>2021-04-17T11:52:19Z</time>
      </trkpt>
      <trkpt lat="-25.6180910" lon="-49.0439650">
        <ele>930.0</ele>
        <time>2021-04-17T11:52:21Z</time>
      </trkpt>
      <trkpt lat="-25.6181850" lon="-49.0439370">
        <ele>930.0</ele>
        <time>2021-04-17T11:52:23Z</time>
      </trkpt>
      <trkpt lat="-25.6182310" lon="-49.0439220">
        <ele>930.0</ele>
        <time>2021-04-17T11:52:24Z</time>
      </trkpt>
      <trkpt lat="-25.6182770" lon="-49.0439080">
        <ele>930.0</ele>
        <time>2021-04-17T11:52:25Z</time>
      </trkpt>
      <trkpt lat="-25.6183680" lon="-49.0438790">
        <ele>930.0</ele>
        <time>2021-04-17T11:52:27Z</time>
      </trkpt>
      <trkpt lat="-25.6184570" lon="-49.0438510">
        <ele>930.0</ele>
        <time>2021-04-17T11:52:29Z</time>
      </trkpt>
      <trkpt lat="-25.6185420" lon="-49.0438250">
        <ele>930.0</ele>
        <time>2021-04-17T11:52:31Z</time>
      </trkpt>
      <trkpt lat="-25.6185820" lon="-49.0438110">
        <ele>930.0</ele>
        <time>2021-04-17T11:52:32Z</time>
      </trkpt>
      <trkpt lat="-25.6186210" lon="-49.0437950">
        <ele>930.2</ele>
        <time>2021-04-17T11:52:33Z</time>
      </trkpt>
      <trkpt lat="-25.6186900" lon="-49.0437660">
        <ele>930.2</ele>
        <time>2021-04-17T11:52:35Z</time>
      </trkpt>
      <trkpt lat="-25.6187470" lon="-49.0437430">
        <ele>930.2</ele>
        <time>2021-04-17T11:52:37Z</time>
      </trkpt>
      <trkpt lat="-25.6187720" lon="-49.0437320">
        <ele>930.6</ele>
        <time>2021-04-17T11:52:38Z</time>
      </trkpt>
      <trkpt lat="-25.6188000" lon="-49.0437200">
        <ele>930.8</ele>
        <time>2021-04-17T11:52:39Z</time>
      </trkpt>
      <trkpt lat="-25.6188530" lon="-49.0436920">
        <ele>931.4</ele>
        <time>2021-04-17T11:52:41Z</time>
      </trkpt>
      <trkpt lat="-25.6189110" lon="-49.0436600">
        <ele>932.0</ele>
        <time>2021-04-17T11:52:43Z</time>
      </trkpt>
      <trkpt lat="-25.6189410" lon="-49.0436410">
        <ele>932.2</ele>
        <time>2021-04-17T11:52:44Z</time>
      </trkpt>
      <trkpt lat="-25.6189710" lon="-49.0436210">
        <ele>932.4</ele>
        <time>2021-04-17T11:52:45Z</time>
      </trkpt>
      <trkpt lat="-25.6190280" lon="-49.0435760">
        <ele>933.0</ele>
        <time>2021-04-17T11:52:47Z</time>
      </trkpt>
      <trkpt lat="-25.6190560" lon="-49.0435530">
        <ele>933.2</ele>
        <time>2021-04-17T11:52:48Z</time>
      </trkpt>
      <trkpt lat="-25.6190820" lon="-49.0435270">
        <ele>933.6</ele>
        <time>2021-04-17T11:52:49Z</time>
      </trkpt>
      <trkpt lat="-25.6191360" lon="-49.0434760">
        <ele>934.4</ele>
        <time>2021-04-17T11:52:51Z</time>
      </trkpt>
      <trkpt lat="-25.6191890" lon="-49.0434270">
        <ele>934.8</ele>
        <time>2021-04-17T11:52:53Z</time>
      </trkpt>
      <trkpt lat="-25.6192400" lon="-49.0433790">
        <ele>935.0</ele>
        <time>2021-04-17T11:52:55Z</time>
      </trkpt>
      <trkpt lat="-25.6192920" lon="-49.0433300">
        <ele>935.2</ele>
        <time>2021-04-17T11:52:57Z</time>
      </trkpt>
      <trkpt lat="-25.6193380" lon="-49.0432720">
        <ele>935.6</ele>
        <time>2021-04-17T11:52:59Z</time>
      </trkpt>
      <trkpt lat="-25.6193790" lon="-49.0432080">
        <ele>935.6</ele>
        <time>2021-04-17T11:53:01Z</time>
      </trkpt>
      <trkpt lat="-25.6194160" lon="-49.0431430">
        <ele>936.2</ele>
        <time>2021-04-17T11:53:03Z</time>
      </trkpt>
      <trkpt lat="-25.6194340" lon="-49.0431110">
        <ele>936.4</ele>
        <time>2021-04-17T11:53:04Z</time>
      </trkpt>
      <trkpt lat="-25.6194520" lon="-49.0430780">
        <ele>936.6</ele>
        <time>2021-04-17T11:53:05Z</time>
      </trkpt>
      <trkpt lat="-25.6194680" lon="-49.0430450">
        <ele>936.8</ele>
        <time>2021-04-17T11:53:06Z</time>
      </trkpt>
      <trkpt lat="-25.6194840" lon="-49.0430120">
        <ele>937.0</ele>
        <time>2021-04-17T11:53:07Z</time>
      </trkpt>
      <trkpt lat="-25.6195100" lon="-49.0429400">
        <ele>937.2</ele>
        <time>2021-04-17T11:53:09Z</time>
      </trkpt>
      <trkpt lat="-25.6195340" lon="-49.0428660">
        <ele>937.4</ele>
        <time>2021-04-17T11:53:11Z</time>
      </trkpt>
      <trkpt lat="-25.6195580" lon="-49.0427980">
        <ele>938.0</ele>
        <time>2021-04-17T11:53:13Z</time>
      </trkpt>
      <trkpt lat="-25.6195760" lon="-49.0427340">
        <ele>938.2</ele>
        <time>2021-04-17T11:53:15Z</time>
      </trkpt>
      <trkpt lat="-25.6195910" lon="-49.0426690">
        <ele>938.2</ele>
        <time>2021-04-17T11:53:17Z</time>
      </trkpt>
      <trkpt lat="-25.6196050" lon="-49.0426060">
        <ele>938.2</ele>
        <time>2021-04-17T11:53:19Z</time>
      </trkpt>
      <trkpt lat="-25.6196130" lon="-49.0425720">
        <ele>938.4</ele>
        <time>2021-04-17T11:53:20Z</time>
      </trkpt>
      <trkpt lat="-25.6196200" lon="-49.0425370">
        <ele>938.4</ele>
        <time>2021-04-17T11:53:21Z</time>
      </trkpt>
      <trkpt lat="-25.6196360" lon="-49.0424630">
        <ele>938.4</ele>
        <time>2021-04-17T11:53:23Z</time>
      </trkpt>
      <trkpt lat="-25.6196520" lon="-49.0423870">
        <ele>938.4</ele>
        <time>2021-04-17T11:53:25Z</time>
      </trkpt>
      <trkpt lat="-25.6196650" lon="-49.0423430">
        <ele>938.4</ele>
        <time>2021-04-17T11:53:26Z</time>
      </trkpt>
      <trkpt lat="-25.6196820" lon="-49.0422900">
        <ele>938.4</ele>
        <time>2021-04-17T11:53:27Z</time>
      </trkpt>
      <trkpt lat="-25.6197220" lon="-49.0421610">
        <ele>938.2</ele>
        <time>2021-04-17T11:53:29Z</time>
      </trkpt>
      <trkpt lat="-25.6197460" lon="-49.0420960">
        <ele>938.2</ele>
        <time>2021-04-17T11:53:30Z</time>
      </trkpt>
      <trkpt lat="-25.6197740" lon="-49.0420290">
        <ele>938.0</ele>
        <time>2021-04-17T11:53:31Z</time>
      </trkpt>
      <trkpt lat="-25.6198480" lon="-49.0418910">
        <ele>938.0</ele>
        <time>2021-04-17T11:53:33Z</time>
      </trkpt>
      <trkpt lat="-25.6198980" lon="-49.0418240">
        <ele>937.6</ele>
        <time>2021-04-17T11:53:34Z</time>
      </trkpt>
      <trkpt lat="-25.6199560" lon="-49.0417630">
        <ele>936.8</ele>
        <time>2021-04-17T11:53:35Z</time>
      </trkpt>
      <trkpt lat="-25.6200770" lon="-49.0416460">
        <ele>936.0</ele>
        <time>2021-04-17T11:53:37Z</time>
      </trkpt>
      <trkpt lat="-25.6201360" lon="-49.0415820">
        <ele>935.2</ele>
        <time>2021-04-17T11:53:38Z</time>
      </trkpt>
      <trkpt lat="-25.6201930" lon="-49.0415150">
        <ele>934.6</ele>
        <time>2021-04-17T11:53:39Z</time>
      </trkpt>
      <trkpt lat="-25.6202500" lon="-49.0414490">
        <ele>934.0</ele>
        <time>2021-04-17T11:53:40Z</time>
      </trkpt>
      <trkpt lat="-25.6203090" lon="-49.0413780">
        <ele>933.6</ele>
        <time>2021-04-17T11:53:41Z</time>
      </trkpt>
      <trkpt lat="-25.6203680" lon="-49.0413060">
        <ele>933.4</ele>
        <time>2021-04-17T11:53:42Z</time>
      </trkpt>
      <trkpt lat="-25.6204280" lon="-49.0412340">
        <ele>933.0</ele>
        <time>2021-04-17T11:53:43Z</time>
      </trkpt>
      <trkpt lat="-25.6205480" lon="-49.0411060">
        <ele>932.0</ele>
        <time>2021-04-17T11:53:45Z</time>
      </trkpt>
      <trkpt lat="-25.6206600" lon="-49.0409670">
        <ele>931.2</ele>
        <time>2021-04-17T11:53:47Z</time>
      </trkpt>
      <trkpt lat="-25.6207090" lon="-49.0408830">
        <ele>931.0</ele>
        <time>2021-04-17T11:53:48Z</time>
      </trkpt>
      <trkpt lat="-25.6207490" lon="-49.0407950">
        <ele>930.8</ele>
        <time>2021-04-17T11:53:49Z</time>
      </trkpt>
      <trkpt lat="-25.6208060" lon="-49.0405920">
        <ele>930.2</ele>
        <time>2021-04-17T11:53:51Z</time>
      </trkpt>
      <trkpt lat="-25.6208290" lon="-49.0404910">
        <ele>929.8</ele>
        <time>2021-04-17T11:53:52Z</time>
      </trkpt>
      <trkpt lat="-25.6208500" lon="-49.0403930">
        <ele>929.4</ele>
        <time>2021-04-17T11:53:53Z</time>
      </trkpt>
      <trkpt lat="-25.6208970" lon="-49.0402150">
        <ele>929.0</ele>
        <time>2021-04-17T11:53:55Z</time>
      </trkpt>
      <trkpt lat="-25.6209270" lon="-49.0401310">
        <ele>928.6</ele>
        <time>2021-04-17T11:53:56Z</time>
      </trkpt>
      <trkpt lat="-25.6209550" lon="-49.0400600">
        <ele>928.0</ele>
        <time>2021-04-17T11:53:57Z</time>
      </trkpt>
      <trkpt lat="-25.6209850" lon="-49.0399930">
        <ele>927.6</ele>
        <time>2021-04-17T11:53:58Z</time>
      </trkpt>
      <trkpt lat="-25.6210170" lon="-49.0399370">
        <ele>927.2</ele>
        <time>2021-04-17T11:53:59Z</time>
      </trkpt>
      <trkpt lat="-25.6210760" lon="-49.0398440">
        <ele>927.0</ele>
        <time>2021-04-17T11:54:01Z</time>
      </trkpt>
      <trkpt lat="-25.6211000" lon="-49.0398090">
        <ele>927.0</ele>
        <time>2021-04-17T11:54:02Z</time>
      </trkpt>
      <trkpt lat="-25.6211230" lon="-49.0397760">
        <ele>927.0</ele>
        <time>2021-04-17T11:54:03Z</time>
      </trkpt>
      <trkpt lat="-25.6211550" lon="-49.0397250">
        <ele>927.0</ele>
        <time>2021-04-17T11:54:05Z</time>
      </trkpt>
      <trkpt lat="-25.6211710" lon="-49.0396990">
        <ele>927.0</ele>
        <time>2021-04-17T11:54:06Z</time>
      </trkpt>
      <trkpt lat="-25.6211870" lon="-49.0396770">
        <ele>927.0</ele>
        <time>2021-04-17T11:54:07Z</time>
      </trkpt>
      <trkpt lat="-25.6212110" lon="-49.0396270">
        <ele>927.0</ele>
        <time>2021-04-17T11:54:09Z</time>
      </trkpt>
      <trkpt lat="-25.6212270" lon="-49.0395840">
        <ele>927.6</ele>
        <time>2021-04-17T11:54:11Z</time>
      </trkpt>
      <trkpt lat="-25.6212350" lon="-49.0395650">
        <ele>928.0</ele>
        <time>2021-04-17T11:54:12Z</time>
      </trkpt>
      <trkpt lat="-25.6212420" lon="-49.0395470">
        <ele>929.0</ele>
        <time>2021-04-17T11:54:13Z</time>
      </trkpt>
      <trkpt lat="-25.6212550" lon="-49.0394980">
        <ele>929.6</ele>
        <time>2021-04-17T11:54:15Z</time>
      </trkpt>
      <trkpt lat="-25.6212600" lon="-49.0394770">
        <ele>930.2</ele>
        <time>2021-04-17T11:54:16Z</time>
      </trkpt>
      <trkpt lat="-25.6212660" lon="-49.0394630">
        <ele>930.6</ele>
        <time>2021-04-17T11:54:17Z</time>
      </trkpt>
      <trkpt lat="-25.6212770" lon="-49.0394350">
        <ele>931.4</ele>
        <time>2021-04-17T11:54:19Z</time>
      </trkpt>
      <trkpt lat="-25.6212810" lon="-49.0394070">
        <ele>932.2</ele>
        <time>2021-04-17T11:54:21Z</time>
      </trkpt>
      <trkpt lat="-25.6212820" lon="-49.0393940">
        <ele>932.6</ele>
        <time>2021-04-17T11:54:22Z</time>
      </trkpt>
      <trkpt lat="-25.6212810" lon="-49.0393780">
        <ele>933.0</ele>
        <time>2021-04-17T11:54:23Z</time>
      </trkpt>
      <trkpt lat="-25.6212830" lon="-49.0393510">
        <ele>934.0</ele>
        <time>2021-04-17T11:54:25Z</time>
      </trkpt>
      <trkpt lat="-25.6212840" lon="-49.0393240">
        <ele>934.8</ele>
        <time>2021-04-17T11:54:27Z</time>
      </trkpt>
      <trkpt lat="-25.6212810" lon="-49.0393100">
        <ele>935.0</ele>
        <time>2021-04-17T11:54:28Z</time>
      </trkpt>
      <trkpt lat="-25.6212790" lon="-49.0392940">
        <ele>935.2</ele>
        <time>2021-04-17T11:54:29Z</time>
      </trkpt>
      <trkpt lat="-25.6212770" lon="-49.0392610">
        <ele>936.0</ele>
        <time>2021-04-17T11:54:31Z</time>
      </trkpt>
      <trkpt lat="-25.6212760" lon="-49.0392450">
        <ele>936.4</ele>
        <time>2021-04-17T11:54:32Z</time>
      </trkpt>
      <trkpt lat="-25.6212770" lon="-49.0392230">
        <ele>936.6</ele>
        <time>2021-04-17T11:54:33Z</time>
      </trkpt>
      <trkpt lat="-25.6212770" lon="-49.0391990">
        <ele>937.0</ele>
        <time>2021-04-17T11:54:34Z</time>
      </trkpt>
      <trkpt lat="-25.6212760" lon="-49.0391790">
        <ele>937.4</ele>
        <time>2021-04-17T11:54:35Z</time>
      </trkpt>
      <trkpt lat="-25.6212760" lon="-49.0391280">
        <ele>937.8</ele>
        <time>2021-04-17T11:54:37Z</time>
      </trkpt>
      <trkpt lat="-25.6212770" lon="-49.0391040">
        <ele>938.2</ele>
        <time>2021-04-17T11:54:38Z</time>
      </trkpt>
      <trkpt lat="-25.6212780" lon="-49.0390820">
        <ele>938.4</ele>
        <time>2021-04-17T11:54:39Z</time>
      </trkpt>
      <trkpt lat="-25.6212790" lon="-49.0390410">
        <ele>939.2</ele>
        <time>2021-04-17T11:54:41Z</time>
      </trkpt>
      <trkpt lat="-25.6212770" lon="-49.0390090">
        <ele>939.6</ele>
        <time>2021-04-17T11:54:43Z</time>
      </trkpt>
      <trkpt lat="-25.6212750" lon="-49.0389890">
        <ele>940.2</ele>
        <time>2021-04-17T11:54:45Z</time>
      </trkpt>
      <trkpt lat="-25.6212770" lon="-49.0389800">
        <ele>940.4</ele>
        <time>2021-04-17T11:54:46Z</time>
      </trkpt>
      <trkpt lat="-25.6212820" lon="-49.0389690">
        <ele>940.6</ele>
        <time>2021-04-17T11:54:47Z</time>
      </trkpt>
      <trkpt lat="-25.6212850" lon="-49.0389400">
        <ele>941.2</ele>
        <time>2021-04-17T11:54:49Z</time>
      </trkpt>
      <trkpt lat="-25.6212860" lon="-49.0389280">
        <ele>941.6</ele>
        <time>2021-04-17T11:54:50Z</time>
      </trkpt>
      <trkpt lat="-25.6212860" lon="-49.0389080">
        <ele>941.8</ele>
        <time>2021-04-17T11:54:51Z</time>
      </trkpt>
      <trkpt lat="-25.6212920" lon="-49.0388800">
        <ele>942.4</ele>
        <time>2021-04-17T11:54:53Z</time>
      </trkpt>
      <trkpt lat="-25.6213000" lon="-49.0388450">
        <ele>943.0</ele>
        <time>2021-04-17T11:54:55Z</time>
      </trkpt>
      <trkpt lat="-25.6213060" lon="-49.0388080">
        <ele>943.6</ele>
        <time>2021-04-17T11:54:57Z</time>
      </trkpt>
      <trkpt lat="-25.6213110" lon="-49.0387710">
        <ele>944.0</ele>
        <time>2021-04-17T11:54:59Z</time>
      </trkpt>
      <trkpt lat="-25.6213160" lon="-49.0387270">
        <ele>945.0</ele>
        <time>2021-04-17T11:55:01Z</time>
      </trkpt>
      <trkpt lat="-25.6213170" lon="-49.0386840">
        <ele>945.4</ele>
        <time>2021-04-17T11:55:03Z</time>
      </trkpt>
      <trkpt lat="-25.6213200" lon="-49.0386500">
        <ele>946.0</ele>
        <time>2021-04-17T11:55:05Z</time>
      </trkpt>
      <trkpt lat="-25.6213260" lon="-49.0386360">
        <ele>946.2</ele>
        <time>2021-04-17T11:55:06Z</time>
      </trkpt>
      <trkpt lat="-25.6213300" lon="-49.0386180">
        <ele>946.2</ele>
        <time>2021-04-17T11:55:07Z</time>
      </trkpt>
      <trkpt lat="-25.6213370" lon="-49.0385970">
        <ele>946.4</ele>
        <time>2021-04-17T11:55:08Z</time>
      </trkpt>
      <trkpt lat="-25.6213430" lon="-49.0385720">
        <ele>946.8</ele>
        <time>2021-04-17T11:55:09Z</time>
      </trkpt>
      <trkpt lat="-25.6213480" lon="-49.0385520">
        <ele>947.2</ele>
        <time>2021-04-17T11:55:10Z</time>
      </trkpt>
      <trkpt lat="-25.6213500" lon="-49.0385330">
        <ele>947.4</ele>
        <time>2021-04-17T11:55:11Z</time>
      </trkpt>
      <trkpt lat="-25.6213540" lon="-49.0384880">
        <ele>948.0</ele>
        <time>2021-04-17T11:55:13Z</time>
      </trkpt>
      <trkpt lat="-25.6213560" lon="-49.0384670">
        <ele>948.2</ele>
        <time>2021-04-17T11:55:14Z</time>
      </trkpt>
      <trkpt lat="-25.6213600" lon="-49.0384470">
        <ele>948.6</ele>
        <time>2021-04-17T11:55:15Z</time>
      </trkpt>
      <trkpt lat="-25.6213630" lon="-49.0384300">
        <ele>948.8</ele>
        <time>2021-04-17T11:55:16Z</time>
      </trkpt>
      <trkpt lat="-25.6213660" lon="-49.0384120">
        <ele>949.2</ele>
        <time>2021-04-17T11:55:17Z</time>
      </trkpt>
      <trkpt lat="-25.6213690" lon="-49.0383930">
        <ele>949.4</ele>
        <time>2021-04-17T11:55:18Z</time>
      </trkpt>
      <trkpt lat="-25.6213710" lon="-49.0383750">
        <ele>949.8</ele>
        <time>2021-04-17T11:55:19Z</time>
      </trkpt>
      <trkpt lat="-25.6213760" lon="-49.0383410">
        <ele>950.2</ele>
        <time>2021-04-17T11:55:21Z</time>
      </trkpt>
      <trkpt lat="-25.6213780" lon="-49.0383260">
        <ele>950.6</ele>
        <time>2021-04-17T11:55:22Z</time>
      </trkpt>
      <trkpt lat="-25.6213770" lon="-49.0383110">
        <ele>950.8</ele>
        <time>2021-04-17T11:55:23Z</time>
      </trkpt>
      <trkpt lat="-25.6213780" lon="-49.0382970">
        <ele>951.0</ele>
        <time>2021-04-17T11:55:24Z</time>
      </trkpt>
      <trkpt lat="-25.6213790" lon="-49.0382820">
        <ele>951.2</ele>
        <time>2021-04-17T11:55:25Z</time>
      </trkpt>
      <trkpt lat="-25.6213830" lon="-49.0382550">
        <ele>951.6</ele>
        <time>2021-04-17T11:55:27Z</time>
      </trkpt>
      <trkpt lat="-25.6213870" lon="-49.0382260">
        <ele>952.0</ele>
        <time>2021-04-17T11:55:29Z</time>
      </trkpt>
      <trkpt lat="-25.6213900" lon="-49.0381990">
        <ele>952.4</ele>
        <time>2021-04-17T11:55:31Z</time>
      </trkpt>
      <trkpt lat="-25.6213900" lon="-49.0381840">
        <ele>952.6</ele>
        <time>2021-04-17T11:55:32Z</time>
      </trkpt>
      <trkpt lat="-25.6213910" lon="-49.0381700">
        <ele>952.8</ele>
        <time>2021-04-17T11:55:33Z</time>
      </trkpt>
      <trkpt lat="-25.6213920" lon="-49.0381360">
        <ele>953.2</ele>
        <time>2021-04-17T11:55:35Z</time>
      </trkpt>
      <trkpt lat="-25.6214010" lon="-49.0381010">
        <ele>953.6</ele>
        <time>2021-04-17T11:55:37Z</time>
      </trkpt>
      <trkpt lat="-25.6214030" lon="-49.0380830">
        <ele>953.6</ele>
        <time>2021-04-17T11:55:38Z</time>
      </trkpt>
      <trkpt lat="-25.6214050" lon="-49.0380660">
        <ele>953.8</ele>
        <time>2021-04-17T11:55:39Z</time>
      </trkpt>
      <trkpt lat="-25.6214070" lon="-49.0380360">
        <ele>954.2</ele>
        <time>2021-04-17T11:55:41Z</time>
      </trkpt>
      <trkpt lat="-25.6214040" lon="-49.0380080">
        <ele>954.4</ele>
        <time>2021-04-17T11:55:43Z</time>
      </trkpt>
      <trkpt lat="-25.6214030" lon="-49.0379800">
        <ele>954.8</ele>
        <time>2021-04-17T11:55:45Z</time>
      </trkpt>
      <trkpt lat="-25.6213970" lon="-49.0379490">
        <ele>955.2</ele>
        <time>2021-04-17T11:55:47Z</time>
      </trkpt>
      <trkpt lat="-25.6213900" lon="-49.0379190">
        <ele>955.6</ele>
        <time>2021-04-17T11:55:49Z</time>
      </trkpt>
      <trkpt lat="-25.6213870" lon="-49.0379010">
        <ele>955.8</ele>
        <time>2021-04-17T11:55:50Z</time>
      </trkpt>
      <trkpt lat="-25.6213870" lon="-49.0378810">
        <ele>955.8</ele>
        <time>2021-04-17T11:55:51Z</time>
      </trkpt>
      <trkpt lat="-25.6213840" lon="-49.0378490">
        <ele>956.2</ele>
        <time>2021-04-17T11:55:53Z</time>
      </trkpt>
      <trkpt lat="-25.6213790" lon="-49.0378160">
        <ele>956.6</ele>
        <time>2021-04-17T11:55:55Z</time>
      </trkpt>
      <trkpt lat="-25.6213810" lon="-49.0377820">
        <ele>956.8</ele>
        <time>2021-04-17T11:55:57Z</time>
      </trkpt>
      <trkpt lat="-25.6213820" lon="-49.0377650">
        <ele>957.0</ele>
        <time>2021-04-17T11:55:58Z</time>
      </trkpt>
      <trkpt lat="-25.6213810" lon="-49.0377480">
        <ele>957.0</ele>
        <time>2021-04-17T11:55:59Z</time>
      </trkpt>
      <trkpt lat="-25.6213830" lon="-49.0377170">
        <ele>957.4</ele>
        <time>2021-04-17T11:56:01Z</time>
      </trkpt>
      <trkpt lat="-25.6213870" lon="-49.0376880">
        <ele>958.0</ele>
        <time>2021-04-17T11:56:03Z</time>
      </trkpt>
      <trkpt lat="-25.6213920" lon="-49.0376630">
        <ele>958.6</ele>
        <time>2021-04-17T11:56:05Z</time>
      </trkpt>
      <trkpt lat="-25.6213910" lon="-49.0376300">
        <ele>958.8</ele>
        <time>2021-04-17T11:56:07Z</time>
      </trkpt>
      <trkpt lat="-25.6213910" lon="-49.0376110">
        <ele>959.2</ele>
        <time>2021-04-17T11:56:08Z</time>
      </trkpt>
      <trkpt lat="-25.6213960" lon="-49.0375950">
        <ele>959.4</ele>
        <time>2021-04-17T11:56:09Z</time>
      </trkpt>
      <trkpt lat="-25.6214090" lon="-49.0375700">
        <ele>959.8</ele>
        <time>2021-04-17T11:56:11Z</time>
      </trkpt>
      <trkpt lat="-25.6214150" lon="-49.0375370">
        <ele>960.4</ele>
        <time>2021-04-17T11:56:13Z</time>
      </trkpt>
      <trkpt lat="-25.6214180" lon="-49.0374970">
        <ele>960.8</ele>
        <time>2021-04-17T11:56:15Z</time>
      </trkpt>
      <trkpt lat="-25.6214230" lon="-49.0374560">
        <ele>961.4</ele>
        <time>2021-04-17T11:56:17Z</time>
      </trkpt>
      <trkpt lat="-25.6214270" lon="-49.0374160">
        <ele>962.0</ele>
        <time>2021-04-17T11:56:19Z</time>
      </trkpt>
      <trkpt lat="-25.6214340" lon="-49.0373760">
        <ele>962.2</ele>
        <time>2021-04-17T11:56:21Z</time>
      </trkpt>
      <trkpt lat="-25.6214350" lon="-49.0373390">
        <ele>962.4</ele>
        <time>2021-04-17T11:56:23Z</time>
      </trkpt>
      <trkpt lat="-25.6214360" lon="-49.0373210">
        <ele>962.6</ele>
        <time>2021-04-17T11:56:24Z</time>
      </trkpt>
      <trkpt lat="-25.6214360" lon="-49.0373000">
        <ele>962.8</ele>
        <time>2021-04-17T11:56:25Z</time>
      </trkpt>
      <trkpt lat="-25.6214390" lon="-49.0372690">
        <ele>963.0</ele>
        <time>2021-04-17T11:56:27Z</time>
      </trkpt>
      <trkpt lat="-25.6214430" lon="-49.0372370">
        <ele>963.2</ele>
        <time>2021-04-17T11:56:29Z</time>
      </trkpt>
      <trkpt lat="-25.6214440" lon="-49.0372040">
        <ele>963.4</ele>
        <time>2021-04-17T11:56:31Z</time>
      </trkpt>
      <trkpt lat="-25.6214470" lon="-49.0371680">
        <ele>963.6</ele>
        <time>2021-04-17T11:56:33Z</time>
      </trkpt>
      <trkpt lat="-25.6214500" lon="-49.0371520">
        <ele>963.8</ele>
        <time>2021-04-17T11:56:34Z</time>
      </trkpt>
      <trkpt lat="-25.6214520" lon="-49.0371330">
        <ele>964.0</ele>
        <time>2021-04-17T11:56:35Z</time>
      </trkpt>
      <trkpt lat="-25.6214530" lon="-49.0371000">
        <ele>964.4</ele>
        <time>2021-04-17T11:56:37Z</time>
      </trkpt>
      <trkpt lat="-25.6214590" lon="-49.0370540">
        <ele>964.6</ele>
        <time>2021-04-17T11:56:39Z</time>
      </trkpt>
      <trkpt lat="-25.6214600" lon="-49.0370100">
        <ele>964.8</ele>
        <time>2021-04-17T11:56:41Z</time>
      </trkpt>
      <trkpt lat="-25.6214600" lon="-49.0369880">
        <ele>964.8</ele>
        <time>2021-04-17T11:56:42Z</time>
      </trkpt>
      <trkpt lat="-25.6214630" lon="-49.0369660">
        <ele>965.0</ele>
        <time>2021-04-17T11:56:43Z</time>
      </trkpt>
      <trkpt lat="-25.6214660" lon="-49.0369260">
        <ele>965.2</ele>
        <time>2021-04-17T11:56:45Z</time>
      </trkpt>
      <trkpt lat="-25.6214670" lon="-49.0368860">
        <ele>965.6</ele>
        <time>2021-04-17T11:56:47Z</time>
      </trkpt>
      <trkpt lat="-25.6214670" lon="-49.0368510">
        <ele>965.8</ele>
        <time>2021-04-17T11:56:49Z</time>
      </trkpt>
      <trkpt lat="-25.6214610" lon="-49.0368170">
        <ele>966.4</ele>
        <time>2021-04-17T11:56:51Z</time>
      </trkpt>
      <trkpt lat="-25.6214600" lon="-49.0367990">
        <ele>966.6</ele>
        <time>2021-04-17T11:56:52Z</time>
      </trkpt>
      <trkpt lat="-25.6214570" lon="-49.0367800">
        <ele>967.0</ele>
        <time>2021-04-17T11:56:53Z</time>
      </trkpt>
      <trkpt lat="-25.6214510" lon="-49.0367440">
        <ele>967.2</ele>
        <time>2021-04-17T11:56:55Z</time>
      </trkpt>
      <trkpt lat="-25.6214390" lon="-49.0367090">
        <ele>967.6</ele>
        <time>2021-04-17T11:56:57Z</time>
      </trkpt>
      <trkpt lat="-25.6214260" lon="-49.0366710">
        <ele>967.8</ele>
        <time>2021-04-17T11:56:59Z</time>
      </trkpt>
      <trkpt lat="-25.6214180" lon="-49.0366520">
        <ele>968.0</ele>
        <time>2021-04-17T11:57:00Z</time>
      </trkpt>
      <trkpt lat="-25.6214090" lon="-49.0366320">
        <ele>968.2</ele>
        <time>2021-04-17T11:57:01Z</time>
      </trkpt>
      <trkpt lat="-25.6213870" lon="-49.0365890">
        <ele>968.6</ele>
        <time>2021-04-17T11:57:03Z</time>
      </trkpt>
      <trkpt lat="-25.6213640" lon="-49.0365450">
        <ele>968.8</ele>
        <time>2021-04-17T11:57:05Z</time>
      </trkpt>
      <trkpt lat="-25.6213410" lon="-49.0365050">
        <ele>969.0</ele>
        <time>2021-04-17T11:57:07Z</time>
      </trkpt>
      <trkpt lat="-25.6213290" lon="-49.0364860">
        <ele>969.2</ele>
        <time>2021-04-17T11:57:08Z</time>
      </trkpt>
      <trkpt lat="-25.6213170" lon="-49.0364650">
        <ele>969.4</ele>
        <time>2021-04-17T11:57:09Z</time>
      </trkpt>
      <trkpt lat="-25.6212910" lon="-49.0364270">
        <ele>969.6</ele>
        <time>2021-04-17T11:57:11Z</time>
      </trkpt>
      <trkpt lat="-25.6212580" lon="-49.0363840">
        <ele>970.0</ele>
        <time>2021-04-17T11:57:13Z</time>
      </trkpt>
      <trkpt lat="-25.6212350" lon="-49.0363610">
        <ele>970.0</ele>
        <time>2021-04-17T11:57:14Z</time>
      </trkpt>
      <trkpt lat="-25.6212070" lon="-49.0363350">
        <ele>970.2</ele>
        <time>2021-04-17T11:57:15Z</time>
      </trkpt>
      <trkpt lat="-25.6211360" lon="-49.0362740">
        <ele>970.2</ele>
        <time>2021-04-17T11:57:17Z</time>
      </trkpt>
      <trkpt lat="-25.6210520" lon="-49.0362000">
        <ele>970.2</ele>
        <time>2021-04-17T11:57:19Z</time>
      </trkpt>
      <trkpt lat="-25.6210110" lon="-49.0361590">
        <ele>970.2</ele>
        <time>2021-04-17T11:57:20Z</time>
      </trkpt>
      <trkpt lat="-25.6209750" lon="-49.0361130">
        <ele>970.4</ele>
        <time>2021-04-17T11:57:21Z</time>
      </trkpt>
      <trkpt lat="-25.6209070" lon="-49.0360120">
        <ele>970.4</ele>
        <time>2021-04-17T11:57:23Z</time>
      </trkpt>
      <trkpt lat="-25.6208530" lon="-49.0359170">
        <ele>970.4</ele>
        <time>2021-04-17T11:57:25Z</time>
      </trkpt>
      <trkpt lat="-25.6208110" lon="-49.0358430">
        <ele>970.6</ele>
        <time>2021-04-17T11:57:27Z</time>
      </trkpt>
      <trkpt lat="-25.6207740" lon="-49.0357910">
        <ele>970.6</ele>
        <time>2021-04-17T11:57:29Z</time>
      </trkpt>
      <trkpt lat="-25.6207590" lon="-49.0357730">
        <ele>970.6</ele>
        <time>2021-04-17T11:57:30Z</time>
      </trkpt>
      <trkpt lat="-25.6207450" lon="-49.0357560">
        <ele>970.8</ele>
        <time>2021-04-17T11:57:31Z</time>
      </trkpt>
      <trkpt lat="-25.6207140" lon="-49.0357220">
        <ele>971.0</ele>
        <time>2021-04-17T11:57:33Z</time>
      </trkpt>
      <trkpt lat="-25.6206980" lon="-49.0357090">
        <ele>971.2</ele>
        <time>2021-04-17T11:57:34Z</time>
      </trkpt>
      <trkpt lat="-25.6206820" lon="-49.0356970">
        <ele>971.6</ele>
        <time>2021-04-17T11:57:35Z</time>
      </trkpt>
      <trkpt lat="-25.6206530" lon="-49.0356730">
        <ele>972.2</ele>
        <time>2021-04-17T11:57:37Z</time>
      </trkpt>
      <trkpt lat="-25.6206380" lon="-49.0356600">
        <ele>972.6</ele>
        <time>2021-04-17T11:57:38Z</time>
      </trkpt>
      <trkpt lat="-25.6206220" lon="-49.0356470">
        <ele>972.8</ele>
        <time>2021-04-17T11:57:39Z</time>
      </trkpt>
      <trkpt lat="-25.6205840" lon="-49.0356180">
        <ele>973.2</ele>
        <time>2021-04-17T11:57:41Z</time>
      </trkpt>
      <trkpt lat="-25.6205330" lon="-49.0355760">
        <ele>973.6</ele>
        <time>2021-04-17T11:57:43Z</time>
      </trkpt>
      <trkpt lat="-25.6205030" lon="-49.0355530">
        <ele>973.8</ele>
        <time>2021-04-17T11:57:44Z</time>
      </trkpt>
      <trkpt lat="-25.6204700" lon="-49.0355270">
        <ele>973.8</ele>
        <time>2021-04-17T11:57:45Z</time>
      </trkpt>
      <trkpt lat="-25.6204010" lon="-49.0354750">
        <ele>973.8</ele>
        <time>2021-04-17T11:57:47Z</time>
      </trkpt>
      <trkpt lat="-25.6203340" lon="-49.0354160">
        <ele>973.8</ele>
        <time>2021-04-17T11:57:49Z</time>
      </trkpt>
      <trkpt lat="-25.6202730" lon="-49.0353510">
        <ele>973.8</ele>
        <time>2021-04-17T11:57:51Z</time>
      </trkpt>
      <trkpt lat="-25.6202210" lon="-49.0352980">
        <ele>973.6</ele>
        <time>2021-04-17T11:57:53Z</time>
      </trkpt>
      <trkpt lat="-25.6201750" lon="-49.0352450">
        <ele>973.4</ele>
        <time>2021-04-17T11:57:55Z</time>
      </trkpt>
      <trkpt lat="-25.6201380" lon="-49.0351910">
        <ele>973.4</ele>
        <time>2021-04-17T11:57:57Z</time>
      </trkpt>
      <trkpt lat="-25.6201220" lon="-49.0351640">
        <ele>973.4</ele>
        <time>2021-04-17T11:57:58Z</time>
      </trkpt>
      <trkpt lat="-25.6201050" lon="-49.0351370">
        <ele>973.4</ele>
        <time>2021-04-17T11:57:59Z</time>
      </trkpt>
      <trkpt lat="-25.6200690" lon="-49.0350880">
        <ele>973.4</ele>
        <time>2021-04-17T11:58:01Z</time>
      </trkpt>
      <trkpt lat="-25.6200370" lon="-49.0350400">
        <ele>973.4</ele>
        <time>2021-04-17T11:58:03Z</time>
      </trkpt>
      <trkpt lat="-25.6200120" lon="-49.0349900">
        <ele>973.6</ele>
        <time>2021-04-17T11:58:05Z</time>
      </trkpt>
      <trkpt lat="-25.6199820" lon="-49.0349400">
        <ele>973.6</ele>
        <time>2021-04-17T11:58:07Z</time>
      </trkpt>
      <trkpt lat="-25.6199580" lon="-49.0348860">
        <ele>973.6</ele>
        <time>2021-04-17T11:58:09Z</time>
      </trkpt>
      <trkpt lat="-25.6199360" lon="-49.0348320">
        <ele>973.6</ele>
        <time>2021-04-17T11:58:11Z</time>
      </trkpt>
      <trkpt lat="-25.6199160" lon="-49.0347770">
        <ele>973.8</ele>
        <time>2021-04-17T11:58:13Z</time>
      </trkpt>
      <trkpt lat="-25.6198980" lon="-49.0347260">
        <ele>974.0</ele>
        <time>2021-04-17T11:58:15Z</time>
      </trkpt>
      <trkpt lat="-25.6198900" lon="-49.0346690">
        <ele>974.2</ele>
        <time>2021-04-17T11:58:17Z</time>
      </trkpt>
      <trkpt lat="-25.6198870" lon="-49.0346070">
        <ele>974.4</ele>
        <time>2021-04-17T11:58:19Z</time>
      </trkpt>
      <trkpt lat="-25.6198910" lon="-49.0345400">
        <ele>974.6</ele>
        <time>2021-04-17T11:58:21Z</time>
      </trkpt>
      <trkpt lat="-25.6198940" lon="-49.0344820">
        <ele>974.6</ele>
        <time>2021-04-17T11:58:23Z</time>
      </trkpt>
      <trkpt lat="-25.6198950" lon="-49.0344220">
        <ele>974.8</ele>
        <time>2021-04-17T11:58:25Z</time>
      </trkpt>
      <trkpt lat="-25.6198980" lon="-49.0343570">
        <ele>975.0</ele>
        <time>2021-04-17T11:58:27Z</time>
      </trkpt>
      <trkpt lat="-25.6198990" lon="-49.0343230">
        <ele>975.2</ele>
        <time>2021-04-17T11:58:28Z</time>
      </trkpt>
      <trkpt lat="-25.6199030" lon="-49.0342900">
        <ele>975.4</ele>
        <time>2021-04-17T11:58:29Z</time>
      </trkpt>
      <trkpt lat="-25.6199110" lon="-49.0342290">
        <ele>975.4</ele>
        <time>2021-04-17T11:58:31Z</time>
      </trkpt>
      <trkpt lat="-25.6199170" lon="-49.0341690">
        <ele>975.6</ele>
        <time>2021-04-17T11:58:33Z</time>
      </trkpt>
      <trkpt lat="-25.6199200" lon="-49.0341110">
        <ele>975.6</ele>
        <time>2021-04-17T11:58:35Z</time>
      </trkpt>
      <trkpt lat="-25.6199240" lon="-49.0340510">
        <ele>975.8</ele>
        <time>2021-04-17T11:58:37Z</time>
      </trkpt>
      <trkpt lat="-25.6199290" lon="-49.0339900">
        <ele>975.8</ele>
        <time>2021-04-17T11:58:39Z</time>
      </trkpt>
      <trkpt lat="-25.6199340" lon="-49.0339250">
        <ele>976.0</ele>
        <time>2021-04-17T11:58:41Z</time>
      </trkpt>
      <trkpt lat="-25.6199410" lon="-49.0338610">
        <ele>976.0</ele>
        <time>2021-04-17T11:58:43Z</time>
      </trkpt>
      <trkpt lat="-25.6199460" lon="-49.0337980">
        <ele>976.2</ele>
        <time>2021-04-17T11:58:45Z</time>
      </trkpt>
      <trkpt lat="-25.6199510" lon="-49.0337360">
        <ele>976.6</ele>
        <time>2021-04-17T11:58:47Z</time>
      </trkpt>
      <trkpt lat="-25.6199560" lon="-49.0336760">
        <ele>976.6</ele>
        <time>2021-04-17T11:58:49Z</time>
      </trkpt>
      <trkpt lat="-25.6199590" lon="-49.0336160">
        <ele>977.0</ele>
        <time>2021-04-17T11:58:51Z</time>
      </trkpt>
      <trkpt lat="-25.6199600" lon="-49.0335580">
        <ele>977.2</ele>
        <time>2021-04-17T11:58:53Z</time>
      </trkpt>
      <trkpt lat="-25.6199670" lon="-49.0335110">
        <ele>977.2</ele>
        <time>2021-04-17T11:58:55Z</time>
      </trkpt>
      <trkpt lat="-25.6199690" lon="-49.0334560">
        <ele>977.4</ele>
        <time>2021-04-17T11:58:57Z</time>
      </trkpt>
      <trkpt lat="-25.6199720" lon="-49.0333880">
        <ele>977.4</ele>
        <time>2021-04-17T11:58:59Z</time>
      </trkpt>
      <trkpt lat="-25.6199710" lon="-49.0333070">
        <ele>977.4</ele>
        <time>2021-04-17T11:59:01Z</time>
      </trkpt>
      <trkpt lat="-25.6199730" lon="-49.0332160">
        <ele>977.4</ele>
        <time>2021-04-17T11:59:03Z</time>
      </trkpt>
      <trkpt lat="-25.6199700" lon="-49.0331280">
        <ele>977.4</ele>
        <time>2021-04-17T11:59:05Z</time>
      </trkpt>
      <trkpt lat="-25.6199670" lon="-49.0330520">
        <ele>977.4</ele>
        <time>2021-04-17T11:59:07Z</time>
      </trkpt>
      <trkpt lat="-25.6199650" lon="-49.0329740">
        <ele>977.0</ele>
        <time>2021-04-17T11:59:09Z</time>
      </trkpt>
      <trkpt lat="-25.6199650" lon="-49.0328890">
        <ele>976.8</ele>
        <time>2021-04-17T11:59:11Z</time>
      </trkpt>
      <trkpt lat="-25.6199660" lon="-49.0327970">
        <ele>976.4</ele>
        <time>2021-04-17T11:59:13Z</time>
      </trkpt>
      <trkpt lat="-25.6199710" lon="-49.0326970">
        <ele>976.0</ele>
        <time>2021-04-17T11:59:15Z</time>
      </trkpt>
      <trkpt lat="-25.6199740" lon="-49.0326450">
        <ele>976.0</ele>
        <time>2021-04-17T11:59:16Z</time>
      </trkpt>
      <trkpt lat="-25.6199760" lon="-49.0325950">
        <ele>975.8</ele>
        <time>2021-04-17T11:59:17Z</time>
      </trkpt>
      <trkpt lat="-25.6199790" lon="-49.0325450">
        <ele>975.6</ele>
        <time>2021-04-17T11:59:18Z</time>
      </trkpt>
      <trkpt lat="-25.6199870" lon="-49.0325030">
        <ele>975.6</ele>
        <time>2021-04-17T11:59:19Z</time>
      </trkpt>
      <trkpt lat="-25.6200000" lon="-49.0324620">
        <ele>975.2</ele>
        <time>2021-04-17T11:59:20Z</time>
      </trkpt>
      <trkpt lat="-25.6200120" lon="-49.0324210">
        <ele>975.2</ele>
        <time>2021-04-17T11:59:21Z</time>
      </trkpt>
      <trkpt lat="-25.6200310" lon="-49.0323740">
        <ele>975.0</ele>
        <time>2021-04-17T11:59:22Z</time>
      </trkpt>
      <trkpt lat="-25.6200510" lon="-49.0323270">
        <ele>974.8</ele>
        <time>2021-04-17T11:59:23Z</time>
      </trkpt>
      <trkpt lat="-25.6201000" lon="-49.0322160">
        <ele>974.4</ele>
        <time>2021-04-17T11:59:25Z</time>
      </trkpt>
      <trkpt lat="-25.6201640" lon="-49.0320790">
        <ele>973.8</ele>
        <time>2021-04-17T11:59:27Z</time>
      </trkpt>
      <trkpt lat="-25.6202110" lon="-49.0319990">
        <ele>973.6</ele>
        <time>2021-04-17T11:59:28Z</time>
      </trkpt>
      <trkpt lat="-25.6202640" lon="-49.0319200">
        <ele>973.4</ele>
        <time>2021-04-17T11:59:29Z</time>
      </trkpt>
      <trkpt lat="-25.6203720" lon="-49.0317510">
        <ele>972.8</ele>
        <time>2021-04-17T11:59:31Z</time>
      </trkpt>
      <trkpt lat="-25.6204090" lon="-49.0316660">
        <ele>972.6</ele>
        <time>2021-04-17T11:59:32Z</time>
      </trkpt>
      <trkpt lat="-25.6204380" lon="-49.0315790">
        <ele>972.2</ele>
        <time>2021-04-17T11:59:33Z</time>
      </trkpt>
      <trkpt lat="-25.6204620" lon="-49.0315010">
        <ele>971.4</ele>
        <time>2021-04-17T11:59:34Z</time>
      </trkpt>
      <trkpt lat="-25.6204930" lon="-49.0314300">
        <ele>970.8</ele>
        <time>2021-04-17T11:59:35Z</time>
      </trkpt>
      <trkpt lat="-25.6205330" lon="-49.0313640">
        <ele>969.6</ele>
        <time>2021-04-17T11:59:36Z</time>
      </trkpt>
      <trkpt lat="-25.6206000" lon="-49.0312970">
        <ele>968.6</ele>
        <time>2021-04-17T11:59:37Z</time>
      </trkpt>
      <trkpt lat="-25.6206820" lon="-49.0312270">
        <ele>968.0</ele>
        <time>2021-04-17T11:59:38Z</time>
      </trkpt>
      <trkpt lat="-25.6207680" lon="-49.0311540">
        <ele>966.8</ele>
        <time>2021-04-17T11:59:39Z</time>
      </trkpt>
      <trkpt lat="-25.6208550" lon="-49.0310820">
        <ele>965.6</ele>
        <time>2021-04-17T11:59:40Z</time>
      </trkpt>
      <trkpt lat="-25.6209430" lon="-49.0310180">
        <ele>964.8</ele>
        <time>2021-04-17T11:59:41Z</time>
      </trkpt>
      <trkpt lat="-25.6210260" lon="-49.0309550">
        <ele>964.2</ele>
        <time>2021-04-17T11:59:42Z</time>
      </trkpt>
      <trkpt lat="-25.6211080" lon="-49.0308870">
        <ele>963.2</ele>
        <time>2021-04-17T11:59:43Z</time>
      </trkpt>
      <trkpt lat="-25.6211830" lon="-49.0308250">
        <ele>962.2</ele>
        <time>2021-04-17T11:59:44Z</time>
      </trkpt>
      <trkpt lat="-25.6212510" lon="-49.0307590">
        <ele>960.4</ele>
        <time>2021-04-17T11:59:45Z</time>
      </trkpt>
      <trkpt lat="-25.6213660" lon="-49.0306140">
        <ele>959.0</ele>
        <time>2021-04-17T11:59:47Z</time>
      </trkpt>
      <trkpt lat="-25.6214210" lon="-49.0305190">
        <ele>957.8</ele>
        <time>2021-04-17T11:59:48Z</time>
      </trkpt>
      <trkpt lat="-25.6214690" lon="-49.0304250">
        <ele>956.8</ele>
        <time>2021-04-17T11:59:49Z</time>
      </trkpt>
      <trkpt lat="-25.6215140" lon="-49.0303380">
        <ele>955.6</ele>
        <time>2021-04-17T11:59:50Z</time>
      </trkpt>
      <trkpt lat="-25.6215600" lon="-49.0302520">
        <ele>954.6</ele>
        <time>2021-04-17T11:59:51Z</time>
      </trkpt>
      <trkpt lat="-25.6216050" lon="-49.0301700">
        <ele>953.2</ele>
        <time>2021-04-17T11:59:52Z</time>
      </trkpt>
      <trkpt lat="-25.6216460" lon="-49.0300900">
        <ele>952.4</ele>
        <time>2021-04-17T11:59:53Z</time>
      </trkpt>
      <trkpt lat="-25.6216840" lon="-49.0300070">
        <ele>952.0</ele>
        <time>2021-04-17T11:59:54Z</time>
      </trkpt>
      <trkpt lat="-25.6217190" lon="-49.0299180">
        <ele>951.6</ele>
        <time>2021-04-17T11:59:55Z</time>
      </trkpt>
      <trkpt lat="-25.6217760" lon="-49.0297350">
        <ele>950.6</ele>
        <time>2021-04-17T11:59:57Z</time>
      </trkpt>
      <trkpt lat="-25.6218020" lon="-49.0296430">
        <ele>950.4</ele>
        <time>2021-04-17T11:59:58Z</time>
      </trkpt>
      <trkpt lat="-25.6218290" lon="-49.0295520">
        <ele>950.0</ele>
        <time>2021-04-17T11:59:59Z</time>
      </trkpt>
      <trkpt lat="-25.6218560" lon="-49.0294700">
        <ele>949.6</ele>
        <time>2021-04-17T12:00:00Z</time>
      </trkpt>
      <trkpt lat="-25.6218860" lon="-49.0293990">
        <ele>949.2</ele>
        <time>2021-04-17T12:00:01Z</time>
      </trkpt>
      <trkpt lat="-25.6219100" lon="-49.0293300">
        <ele>948.6</ele>
        <time>2021-04-17T12:00:02Z</time>
      </trkpt>
      <trkpt lat="-25.6219300" lon="-49.0292650">
        <ele>948.0</ele>
        <time>2021-04-17T12:00:03Z</time>
      </trkpt>
      <trkpt lat="-25.6219390" lon="-49.0291940">
        <ele>947.6</ele>
        <time>2021-04-17T12:00:04Z</time>
      </trkpt>
      <trkpt lat="-25.6219380" lon="-49.0291230">
        <ele>947.2</ele>
        <time>2021-04-17T12:00:05Z</time>
      </trkpt>
      <trkpt lat="-25.6219260" lon="-49.0290520">
        <ele>946.4</ele>
        <time>2021-04-17T12:00:06Z</time>
      </trkpt>
      <trkpt lat="-25.6218990" lon="-49.0289780">
        <ele>946.0</ele>
        <time>2021-04-17T12:00:07Z</time>
      </trkpt>
      <trkpt lat="-25.6218140" lon="-49.0288410">
        <ele>944.2</ele>
        <time>2021-04-17T12:00:09Z</time>
      </trkpt>
      <trkpt lat="-25.6217670" lon="-49.0287810">
        <ele>943.4</ele>
        <time>2021-04-17T12:00:10Z</time>
      </trkpt>
      <trkpt lat="-25.6217230" lon="-49.0287240">
        <ele>942.8</ele>
        <time>2021-04-17T12:00:11Z</time>
      </trkpt>
      <trkpt lat="-25.6216840" lon="-49.0286620">
        <ele>942.0</ele>
        <time>2021-04-17T12:00:12Z</time>
      </trkpt>
      <trkpt lat="-25.6216540" lon="-49.0285900">
        <ele>941.0</ele>
        <time>2021-04-17T12:00:13Z</time>
      </trkpt>
      <trkpt lat="-25.6216330" lon="-49.0285020">
        <ele>940.2</ele>
        <time>2021-04-17T12:00:14Z</time>
      </trkpt>
      <trkpt lat="-25.6216240" lon="-49.0283990">
        <ele>939.4</ele>
        <time>2021-04-17T12:00:15Z</time>
      </trkpt>
      <trkpt lat="-25.6216240" lon="-49.0282910">
        <ele>938.4</ele>
        <time>2021-04-17T12:00:16Z</time>
      </trkpt>
      <trkpt lat="-25.6216280" lon="-49.0281750">
        <ele>937.0</ele>
        <time>2021-04-17T12:00:17Z</time>
      </trkpt>
      <trkpt lat="-25.6216280" lon="-49.0280520">
        <ele>935.8</ele>
        <time>2021-04-17T12:00:18Z</time>
      </trkpt>
      <trkpt lat="-25.6216270" lon="-49.0279310">
        <ele>934.6</ele>
        <time>2021-04-17T12:00:19Z</time>
      </trkpt>
      <trkpt lat="-25.6216210" lon="-49.0277980">
        <ele>933.4</ele>
        <time>2021-04-17T12:00:20Z</time>
      </trkpt>
      <trkpt lat="-25.6216170" lon="-49.0276470">
        <ele>932.0</ele>
        <time>2021-04-17T12:00:21Z</time>
      </trkpt>
      <trkpt lat="-25.6216090" lon="-49.0273600">
        <ele>929.8</ele>
        <time>2021-04-17T12:00:23Z</time>
      </trkpt>
      <trkpt lat="-25.6216060" lon="-49.0272280">
        <ele>928.2</ele>
        <time>2021-04-17T12:00:24Z</time>
      </trkpt>
      <trkpt lat="-25.6216040" lon="-49.0271130">
        <ele>926.8</ele>
        <time>2021-04-17T12:00:25Z</time>
      </trkpt>
      <trkpt lat="-25.6216050" lon="-49.0270140">
        <ele>925.8</ele>
        <time>2021-04-17T12:00:26Z</time>
      </trkpt>
      <trkpt lat="-25.6216080" lon="-49.0269250">
        <ele>924.6</ele>
        <time>2021-04-17T12:00:27Z</time>
      </trkpt>
      <trkpt lat="-25.6216140" lon="-49.0268460">
        <ele>923.4</ele>
        <time>2021-04-17T12:00:28Z</time>
      </trkpt>
      <trkpt lat="-25.6216260" lon="-49.0267700">
        <ele>921.8</ele>
        <time>2021-04-17T12:00:29Z</time>
      </trkpt>
      <trkpt lat="-25.6216470" lon="-49.0266990">
        <ele>920.6</ele>
        <time>2021-04-17T12:00:30Z</time>
      </trkpt>
      <trkpt lat="-25.6216720" lon="-49.0266290">
        <ele>919.4</ele>
        <time>2021-04-17T12:00:31Z</time>
      </trkpt>
      <trkpt lat="-25.6216990" lon="-49.0265570">
        <ele>918.2</ele>
        <time>2021-04-17T12:00:32Z</time>
      </trkpt>
      <trkpt lat="-25.6217250" lon="-49.0264860">
        <ele>917.6</ele>
        <time>2021-04-17T12:00:33Z</time>
      </trkpt>
      <trkpt lat="-25.6217680" lon="-49.0263450">
        <ele>917.2</ele>
        <time>2021-04-17T12:00:35Z</time>
      </trkpt>
      <trkpt lat="-25.6217890" lon="-49.0261900">
        <ele>916.6</ele>
        <time>2021-04-17T12:00:37Z</time>
      </trkpt>
      <trkpt lat="-25.6217990" lon="-49.0261000">
        <ele>916.0</ele>
        <time>2021-04-17T12:00:38Z</time>
      </trkpt>
      <trkpt lat="-25.6218090" lon="-49.0260080">
        <ele>915.2</ele>
        <time>2021-04-17T12:00:39Z</time>
      </trkpt>
      <trkpt lat="-25.6218190" lon="-49.0259160">
        <ele>914.2</ele>
        <time>2021-04-17T12:00:40Z</time>
      </trkpt>
      <trkpt lat="-25.6218350" lon="-49.0258250">
        <ele>913.4</ele>
        <time>2021-04-17T12:00:41Z</time>
      </trkpt>
      <trkpt lat="-25.6218640" lon="-49.0257440">
        <ele>912.4</ele>
        <time>2021-04-17T12:00:42Z</time>
      </trkpt>
      <trkpt lat="-25.6219050" lon="-49.0256650">
        <ele>911.6</ele>
        <time>2021-04-17T12:00:43Z</time>
      </trkpt>
      <trkpt lat="-25.6219570" lon="-49.0255960">
        <ele>910.8</ele>
        <time>2021-04-17T12:00:44Z</time>
      </trkpt>
      <trkpt lat="-25.6220160" lon="-49.0255390">
        <ele>910.0</ele>
        <time>2021-04-17T12:00:45Z</time>
      </trkpt>
      <trkpt lat="-25.6220780" lon="-49.0254920">
        <ele>908.8</ele>
        <time>2021-04-17T12:00:46Z</time>
      </trkpt>
      <trkpt lat="-25.6221400" lon="-49.0254570">
        <ele>908.0</ele>
        <time>2021-04-17T12:00:47Z</time>
      </trkpt>
      <trkpt lat="-25.6222010" lon="-49.0254300">
        <ele>907.0</ele>
        <time>2021-04-17T12:00:48Z</time>
      </trkpt>
      <trkpt lat="-25.6222600" lon="-49.0254090">
        <ele>906.4</ele>
        <time>2021-04-17T12:00:49Z</time>
      </trkpt>
      <trkpt lat="-25.6223740" lon="-49.0253930">
        <ele>905.8</ele>
        <time>2021-04-17T12:00:51Z</time>
      </trkpt>
      <trkpt lat="-25.6224760" lon="-49.0253890">
        <ele>905.6</ele>
        <time>2021-04-17T12:00:53Z</time>
      </trkpt>
      <trkpt lat="-25.6225680" lon="-49.0253870">
        <ele>905.4</ele>
        <time>2021-04-17T12:00:55Z</time>
      </trkpt>
      <trkpt lat="-25.6226540" lon="-49.0253820">
        <ele>905.2</ele>
        <time>2021-04-17T12:00:57Z</time>
      </trkpt>
      <trkpt lat="-25.6227400" lon="-49.0253740">
        <ele>905.2</ele>
        <time>2021-04-17T12:00:59Z</time>
      </trkpt>
      <trkpt lat="-25.6227860" lon="-49.0253740">
        <ele>905.2</ele>
        <time>2021-04-17T12:01:00Z</time>
      </trkpt>
      <trkpt lat="-25.6228310" lon="-49.0253720">
        <ele>905.2</ele>
        <time>2021-04-17T12:01:01Z</time>
      </trkpt>
      <trkpt lat="-25.6229240" lon="-49.0253550">
        <ele>905.2</ele>
        <time>2021-04-17T12:01:03Z</time>
      </trkpt>
      <trkpt lat="-25.6230140" lon="-49.0253320">
        <ele>905.2</ele>
        <time>2021-04-17T12:01:05Z</time>
      </trkpt>
      <trkpt lat="-25.6230580" lon="-49.0253220">
        <ele>905.2</ele>
        <time>2021-04-17T12:01:06Z</time>
      </trkpt>
      <trkpt lat="-25.6231010" lon="-49.0253130">
        <ele>905.2</ele>
        <time>2021-04-17T12:01:07Z</time>
      </trkpt>
      <trkpt lat="-25.6231830" lon="-49.0252880">
        <ele>905.4</ele>
        <time>2021-04-17T12:01:09Z</time>
      </trkpt>
      <trkpt lat="-25.6232610" lon="-49.0252600">
        <ele>905.6</ele>
        <time>2021-04-17T12:01:11Z</time>
      </trkpt>
      <trkpt lat="-25.6233360" lon="-49.0252260">
        <ele>906.0</ele>
        <time>2021-04-17T12:01:13Z</time>
      </trkpt>
      <trkpt lat="-25.6234100" lon="-49.0251910">
        <ele>906.2</ele>
        <time>2021-04-17T12:01:15Z</time>
      </trkpt>
      <trkpt lat="-25.6234840" lon="-49.0251500">
        <ele>906.4</ele>
        <time>2021-04-17T12:01:17Z</time>
      </trkpt>
      <trkpt lat="-25.6235550" lon="-49.0251050">
        <ele>906.8</ele>
        <time>2021-04-17T12:01:19Z</time>
      </trkpt>
      <trkpt lat="-25.6235890" lon="-49.0250830">
        <ele>907.2</ele>
        <time>2021-04-17T12:01:20Z</time>
      </trkpt>
      <trkpt lat="-25.6236200" lon="-49.0250580">
        <ele>907.4</ele>
        <time>2021-04-17T12:01:21Z</time>
      </trkpt>
      <trkpt lat="-25.6236810" lon="-49.0250050">
        <ele>907.4</ele>
        <time>2021-04-17T12:01:23Z</time>
      </trkpt>
      <trkpt lat="-25.6237340" lon="-49.0249400">
        <ele>907.6</ele>
        <time>2021-04-17T12:01:25Z</time>
      </trkpt>
      <trkpt lat="-25.6237590" lon="-49.0249020">
        <ele>907.8</ele>
        <time>2021-04-17T12:01:26Z</time>
      </trkpt>
      <trkpt lat="-25.6237800" lon="-49.0248590">
        <ele>907.8</ele>
        <time>2021-04-17T12:01:27Z</time>
      </trkpt>
      <trkpt lat="-25.6238050" lon="-49.0247570">
        <ele>907.8</ele>
        <time>2021-04-17T12:01:29Z</time>
      </trkpt>
      <trkpt lat="-25.6237920" lon="-49.0246430">
        <ele>907.8</ele>
        <time>2021-04-17T12:01:31Z</time>
      </trkpt>
      <trkpt lat="-25.6237400" lon="-49.0245370">
        <ele>907.8</ele>
        <time>2021-04-17T12:01:33Z</time>
      </trkpt>
      <trkpt lat="-25.6236730" lon="-49.0244480">
        <ele>907.8</ele>
        <time>2021-04-17T12:01:35Z</time>
      </trkpt>
      <trkpt lat="-25.6236070" lon="-49.0243760">
        <ele>907.6</ele>
        <time>2021-04-17T12:01:37Z</time>
      </trkpt>
      <trkpt lat="-25.6235470" lon="-49.0243160">
        <ele>907.2</ele>
        <time>2021-04-17T12:01:39Z</time>
      </trkpt>
      <trkpt lat="-25.6235160" lon="-49.0242870">
        <ele>907.0</ele>
        <time>2021-04-17T12:01:40Z</time>
      </trkpt>
      <trkpt lat="-25.6234830" lon="-49.0242600">
        <ele>907.0</ele>
        <time>2021-04-17T12:01:41Z</time>
      </trkpt>
      <trkpt lat="-25.6234180" lon="-49.0242090">
        <ele>906.8</ele>
        <time>2021-04-17T12:01:43Z</time>
      </trkpt>
      <trkpt lat="-25.6233590" lon="-49.0241600">
        <ele>906.6</ele>
        <time>2021-04-17T12:01:45Z</time>
      </trkpt>
      <trkpt lat="-25.6233090" lon="-49.0241130">
        <ele>906.6</ele>
        <time>2021-04-17T12:01:47Z</time>
      </trkpt>
      <trkpt lat="-25.6232610" lon="-49.0240670">
        <ele>906.6</ele>
        <time>2021-04-17T12:01:49Z</time>
      </trkpt>
      <trkpt lat="-25.6232150" lon="-49.0240170">
        <ele>906.6</ele>
        <time>2021-04-17T12:01:51Z</time>
      </trkpt>
      <trkpt lat="-25.6231690" lon="-49.0239680">
        <ele>906.6</ele>
        <time>2021-04-17T12:01:53Z</time>
      </trkpt>
      <trkpt lat="-25.6231240" lon="-49.0239180">
        <ele>906.8</ele>
        <time>2021-04-17T12:01:55Z</time>
      </trkpt>
      <trkpt lat="-25.6230810" lon="-49.0238660">
        <ele>907.2</ele>
        <time>2021-04-17T12:01:57Z</time>
      </trkpt>
      <trkpt lat="-25.6230480" lon="-49.0238070">
        <ele>907.6</ele>
        <time>2021-04-17T12:01:59Z</time>
      </trkpt>
      <trkpt lat="-25.6230270" lon="-49.0237450">
        <ele>908.0</ele>
        <time>2021-04-17T12:02:01Z</time>
      </trkpt>
      <trkpt lat="-25.6230130" lon="-49.0236850">
        <ele>908.2</ele>
        <time>2021-04-17T12:02:03Z</time>
      </trkpt>
      <trkpt lat="-25.6230050" lon="-49.0236240">
        <ele>908.8</ele>
        <time>2021-04-17T12:02:05Z</time>
      </trkpt>
      <trkpt lat="-25.6230030" lon="-49.0235950">
        <ele>909.2</ele>
        <time>2021-04-17T12:02:06Z</time>
      </trkpt>
      <trkpt lat="-25.6230010" lon="-49.0235670">
        <ele>909.6</ele>
        <time>2021-04-17T12:02:07Z</time>
      </trkpt>
      <trkpt lat="-25.6229990" lon="-49.0235400">
        <ele>909.8</ele>
        <time>2021-04-17T12:02:08Z</time>
      </trkpt>
      <trkpt lat="-25.6229960" lon="-49.0235150">
        <ele>910.4</ele>
        <time>2021-04-17T12:02:09Z</time>
      </trkpt>
      <trkpt lat="-25.6229890" lon="-49.0234610">
        <ele>910.8</ele>
        <time>2021-04-17T12:02:11Z</time>
      </trkpt>
      <trkpt lat="-25.6229820" lon="-49.0234070">
        <ele>911.2</ele>
        <time>2021-04-17T12:02:13Z</time>
      </trkpt>
      <trkpt lat="-25.6229770" lon="-49.0233800">
        <ele>911.4</ele>
        <time>2021-04-17T12:02:14Z</time>
      </trkpt>
      <trkpt lat="-25.6229710" lon="-49.0233520">
        <ele>911.6</ele>
        <time>2021-04-17T12:02:15Z</time>
      </trkpt>
      <trkpt lat="-25.6229580" lon="-49.0232960">
        <ele>912.2</ele>
        <time>2021-04-17T12:02:17Z</time>
      </trkpt>
      <trkpt lat="-25.6229400" lon="-49.0232310">
        <ele>912.4</ele>
        <time>2021-04-17T12:02:19Z</time>
      </trkpt>
      <trkpt lat="-25.6229220" lon="-49.0231680">
        <ele>912.8</ele>
        <time>2021-04-17T12:02:21Z</time>
      </trkpt>
      <trkpt lat="-25.6229090" lon="-49.0231380">
        <ele>913.0</ele>
        <time>2021-04-17T12:02:22Z</time>
      </trkpt>
      <trkpt lat="-25.6228920" lon="-49.0231100">
        <ele>913.0</ele>
        <time>2021-04-17T12:02:23Z</time>
      </trkpt>
      <trkpt lat="-25.6228500" lon="-49.0230540">
        <ele>913.2</ele>
        <time>2021-04-17T12:02:25Z</time>
      </trkpt>
      <trkpt lat="-25.6227970" lon="-49.0229950">
        <ele>913.2</ele>
        <time>2021-04-17T12:02:27Z</time>
      </trkpt>
      <trkpt lat="-25.6227640" lon="-49.0229620">
        <ele>913.2</ele>
        <time>2021-04-17T12:02:28Z</time>
      </trkpt>
      <trkpt lat="-25.6227260" lon="-49.0229250">
        <ele>913.2</ele>
        <time>2021-04-17T12:02:29Z</time>
      </trkpt>
      <trkpt lat="-25.6226280" lon="-49.0228270">
        <ele>913.0</ele>
        <time>2021-04-17T12:02:31Z</time>
      </trkpt>
      <trkpt lat="-25.6225720" lon="-49.0227590">
        <ele>913.0</ele>
        <time>2021-04-17T12:02:32Z</time>
      </trkpt>
      <trkpt lat="-25.6225170" lon="-49.0226790">
        <ele>912.8</ele>
        <time>2021-04-17T12:02:33Z</time>
      </trkpt>
      <trkpt lat="-25.6224240" lon="-49.0225060">
        <ele>912.6</ele>
        <time>2021-04-17T12:02:35Z</time>
      </trkpt>
      <trkpt lat="-25.6223750" lon="-49.0224210">
        <ele>912.4</ele>
        <time>2021-04-17T12:02:36Z</time>
      </trkpt>
      <trkpt lat="-25.6223230" lon="-49.0223410">
        <ele>912.0</ele>
        <time>2021-04-17T12:02:37Z</time>
      </trkpt>
      <trkpt lat="-25.6222090" lon="-49.0221920">
        <ele>911.2</ele>
        <time>2021-04-17T12:02:39Z</time>
      </trkpt>
      <trkpt lat="-25.6221570" lon="-49.0221250">
        <ele>910.0</ele>
        <time>2021-04-17T12:02:40Z</time>
      </trkpt>
      <trkpt lat="-25.6221080" lon="-49.0220640">
        <ele>909.2</ele>
        <time>2021-04-17T12:02:41Z</time>
      </trkpt>
      <trkpt lat="-25.6220610" lon="-49.0220110">
        <ele>908.6</ele>
        <time>2021-04-17T12:02:42Z</time>
      </trkpt>
      <trkpt lat="-25.6220170" lon="-49.0219590">
        <ele>908.4</ele>
        <time>2021-04-17T12:02:43Z</time>
      </trkpt>
      <trkpt lat="-25.6219460" lon="-49.0218620">
        <ele>908.2</ele>
        <time>2021-04-17T12:02:45Z</time>
      </trkpt>
      <trkpt lat="-25.6218970" lon="-49.0217880">
        <ele>908.0</ele>
        <time>2021-04-17T12:02:47Z</time>
      </trkpt>
      <trkpt lat="-25.6218550" lon="-49.0217220">
        <ele>908.0</ele>
        <time>2021-04-17T12:02:49Z</time>
      </trkpt>
      <trkpt lat="-25.6218230" lon="-49.0216270">
        <ele>908.0</ele>
        <time>2021-04-17T12:02:51Z</time>
      </trkpt>
      <trkpt lat="-25.6218150" lon="-49.0214950">
        <ele>908.2</ele>
        <time>2021-04-17T12:02:53Z</time>
      </trkpt>
      <trkpt lat="-25.6218350" lon="-49.0213450">
        <ele>908.2</ele>
        <time>2021-04-17T12:02:55Z</time>
      </trkpt>
      <trkpt lat="-25.6218680" lon="-49.0211940">
        <ele>908.2</ele>
        <time>2021-04-17T12:02:57Z</time>
      </trkpt>
      <trkpt lat="-25.6218850" lon="-49.0211220">
        <ele>908.2</ele>
        <time>2021-04-17T12:02:58Z</time>
      </trkpt>
      <trkpt lat="-25.6218970" lon="-49.0210550">
        <ele>908.2</ele>
        <time>2021-04-17T12:02:59Z</time>
      </trkpt>
      <trkpt lat="-25.6219120" lon="-49.0209290">
        <ele>908.2</ele>
        <time>2021-04-17T12:03:01Z</time>
      </trkpt>
      <trkpt lat="-25.6219120" lon="-49.0208720">
        <ele>907.8</ele>
        <time>2021-04-17T12:03:02Z</time>
      </trkpt>
      <trkpt lat="-25.6219040" lon="-49.0208140">
        <ele>907.6</ele>
        <time>2021-04-17T12:03:03Z</time>
      </trkpt>
      <trkpt lat="-25.6218900" lon="-49.0207540">
        <ele>907.6</ele>
        <time>2021-04-17T12:03:04Z</time>
      </trkpt>
      <trkpt lat="-25.6218650" lon="-49.0206970">
        <ele>907.2</ele>
        <time>2021-04-17T12:03:05Z</time>
      </trkpt>
      <trkpt lat="-25.6217940" lon="-49.0206050">
        <ele>907.0</ele>
        <time>2021-04-17T12:03:07Z</time>
      </trkpt>
      <trkpt lat="-25.6217510" lon="-49.0205660">
        <ele>907.0</ele>
        <time>2021-04-17T12:03:08Z</time>
      </trkpt>
      <trkpt lat="-25.6217050" lon="-49.0205310">
        <ele>906.8</ele>
        <time>2021-04-17T12:03:09Z</time>
      </trkpt>
      <trkpt lat="-25.6216150" lon="-49.0204670">
        <ele>906.6</ele>
        <time>2021-04-17T12:03:11Z</time>
      </trkpt>
      <trkpt lat="-25.6215710" lon="-49.0204400">
        <ele>906.4</ele>
        <time>2021-04-17T12:03:12Z</time>
      </trkpt>
      <trkpt lat="-25.6215280" lon="-49.0204150">
        <ele>906.2</ele>
        <time>2021-04-17T12:03:13Z</time>
      </trkpt>
      <trkpt lat="-25.6214410" lon="-49.0203760">
        <ele>906.2</ele>
        <time>2021-04-17T12:03:15Z</time>
      </trkpt>
      <trkpt lat="-25.6213540" lon="-49.0203400">
        <ele>906.2</ele>
        <time>2021-04-17T12:03:17Z</time>
      </trkpt>
      <trkpt lat="-25.6213120" lon="-49.0203180">
        <ele>906.2</ele>
        <time>2021-04-17T12:03:18Z</time>
      </trkpt>
      <trkpt lat="-25.6212740" lon="-49.0202910">
        <ele>906.2</ele>
        <time>2021-04-17T12:03:19Z</time>
      </trkpt>
      <trkpt lat="-25.6212070" lon="-49.0202290">
        <ele>906.2</ele>
        <time>2021-04-17T12:03:21Z</time>
      </trkpt>
      <trkpt lat="-25.6211490" lon="-49.0201580">
        <ele>906.2</ele>
        <time>2021-04-17T12:03:23Z</time>
      </trkpt>
      <trkpt lat="-25.6211050" lon="-49.0200770">
        <ele>906.6</ele>
        <time>2021-04-17T12:03:25Z</time>
      </trkpt>
      <trkpt lat="-25.6210650" lon="-49.0199920">
        <ele>907.0</ele>
        <time>2021-04-17T12:03:27Z</time>
      </trkpt>
      <trkpt lat="-25.6210330" lon="-49.0199110">
        <ele>907.2</ele>
        <time>2021-04-17T12:03:29Z</time>
      </trkpt>
      <trkpt lat="-25.6210200" lon="-49.0198750">
        <ele>907.2</ele>
        <time>2021-04-17T12:03:30Z</time>
      </trkpt>
      <trkpt lat="-25.6210080" lon="-49.0198410">
        <ele>907.4</ele>
        <time>2021-04-17T12:03:31Z</time>
      </trkpt>
      <trkpt lat="-25.6209960" lon="-49.0198070">
        <ele>907.4</ele>
        <time>2021-04-17T12:03:32Z</time>
      </trkpt>
      <trkpt lat="-25.6209860" lon="-49.0197740">
        <ele>907.4</ele>
        <time>2021-04-17T12:03:33Z</time>
      </trkpt>
      <trkpt lat="-25.6209770" lon="-49.0197050">
        <ele>907.6</ele>
        <time>2021-04-17T12:03:35Z</time>
      </trkpt>
      <trkpt lat="-25.6209700" lon="-49.0196310">
        <ele>908.0</ele>
        <time>2021-04-17T12:03:37Z</time>
      </trkpt>
      <trkpt lat="-25.6209660" lon="-49.0195960">
        <ele>908.2</ele>
        <time>2021-04-17T12:03:38Z</time>
      </trkpt>
      <trkpt lat="-25.6209650" lon="-49.0195620">
        <ele>908.4</ele>
        <time>2021-04-17T12:03:39Z</time>
      </trkpt>
      <trkpt lat="-25.6209670" lon="-49.0195290">
        <ele>908.6</ele>
        <time>2021-04-17T12:03:40Z</time>
      </trkpt>
      <trkpt lat="-25.6209680" lon="-49.0194970">
        <ele>908.8</ele>
        <time>2021-04-17T12:03:41Z</time>
      </trkpt>
      <trkpt lat="-25.6209630" lon="-49.0194330">
        <ele>909.2</ele>
        <time>2021-04-17T12:03:43Z</time>
      </trkpt>
      <trkpt lat="-25.6209610" lon="-49.0193770">
        <ele>909.8</ele>
        <time>2021-04-17T12:03:45Z</time>
      </trkpt>
      <trkpt lat="-25.6209550" lon="-49.0193160">
        <ele>910.0</ele>
        <time>2021-04-17T12:03:47Z</time>
      </trkpt>
      <trkpt lat="-25.6209490" lon="-49.0192540">
        <ele>910.4</ele>
        <time>2021-04-17T12:03:49Z</time>
      </trkpt>
      <trkpt lat="-25.6209360" lon="-49.0191970">
        <ele>910.8</ele>
        <time>2021-04-17T12:03:51Z</time>
      </trkpt>
      <trkpt lat="-25.6209180" lon="-49.0191420">
        <ele>911.2</ele>
        <time>2021-04-17T12:03:53Z</time>
      </trkpt>
      <trkpt lat="-25.6208970" lon="-49.0190900">
        <ele>911.4</ele>
        <time>2021-04-17T12:03:55Z</time>
      </trkpt>
      <trkpt lat="-25.6208730" lon="-49.0190450">
        <ele>912.0</ele>
        <time>2021-04-17T12:03:57Z</time>
      </trkpt>
      <trkpt lat="-25.6208530" lon="-49.0190040">
        <ele>912.2</ele>
        <time>2021-04-17T12:03:59Z</time>
      </trkpt>
      <trkpt lat="-25.6208360" lon="-49.0189590">
        <ele>912.4</ele>
        <time>2021-04-17T12:04:01Z</time>
      </trkpt>
      <trkpt lat="-25.6208210" lon="-49.0189180">
        <ele>912.8</ele>
        <time>2021-04-17T12:04:03Z</time>
      </trkpt>
      <trkpt lat="-25.6208140" lon="-49.0188970">
        <ele>913.2</ele>
        <time>2021-04-17T12:04:04Z</time>
      </trkpt>
      <trkpt lat="-25.6208080" lon="-49.0188780">
        <ele>913.2</ele>
        <time>2021-04-17T12:04:05Z</time>
      </trkpt>
      <trkpt lat="-25.6207930" lon="-49.0188380">
        <ele>913.6</ele>
        <time>2021-04-17T12:04:07Z</time>
      </trkpt>
      <trkpt lat="-25.6207770" lon="-49.0187960">
        <ele>914.0</ele>
        <time>2021-04-17T12:04:09Z</time>
      </trkpt>
      <trkpt lat="-25.6207630" lon="-49.0187570">
        <ele>914.2</ele>
        <time>2021-04-17T12:04:11Z</time>
      </trkpt>
      <trkpt lat="-25.6207520" lon="-49.0187200">
        <ele>914.6</ele>
        <time>2021-04-17T12:04:13Z</time>
      </trkpt>
      <trkpt lat="-25.6207400" lon="-49.0186810">
        <ele>915.0</ele>
        <time>2021-04-17T12:04:15Z</time>
      </trkpt>
      <trkpt lat="-25.6207330" lon="-49.0186610">
        <ele>915.2</ele>
        <time>2021-04-17T12:04:16Z</time>
      </trkpt>
      <trkpt lat="-25.6207250" lon="-49.0186410">
        <ele>915.4</ele>
        <time>2021-04-17T12:04:17Z</time>
      </trkpt>
      <trkpt lat="-25.6207100" lon="-49.0185970">
        <ele>915.8</ele>
        <time>2021-04-17T12:04:19Z</time>
      </trkpt>
      <trkpt lat="-25.6206970" lon="-49.0185540">
        <ele>916.2</ele>
        <time>2021-04-17T12:04:21Z</time>
      </trkpt>
      <trkpt lat="-25.6206910" lon="-49.0185340">
        <ele>916.4</ele>
        <time>2021-04-17T12:04:22Z</time>
      </trkpt>
      <trkpt lat="-25.6206830" lon="-49.0185150">
        <ele>916.6</ele>
        <time>2021-04-17T12:04:23Z</time>
      </trkpt>
      <trkpt lat="-25.6206670" lon="-49.0184760">
        <ele>916.8</ele>
        <time>2021-04-17T12:04:25Z</time>
      </trkpt>
      <trkpt lat="-25.6206530" lon="-49.0184370">
        <ele>917.0</ele>
        <time>2021-04-17T12:04:27Z</time>
      </trkpt>
      <trkpt lat="-25.6206370" lon="-49.0183960">
        <ele>917.4</ele>
        <time>2021-04-17T12:04:29Z</time>
      </trkpt>
      <trkpt lat="-25.6206220" lon="-49.0183560">
        <ele>917.8</ele>
        <time>2021-04-17T12:04:31Z</time>
      </trkpt>
      <trkpt lat="-25.6206080" lon="-49.0183150">
        <ele>918.0</ele>
        <time>2021-04-17T12:04:33Z</time>
      </trkpt>
      <trkpt lat="-25.6205940" lon="-49.0182790">
        <ele>918.4</ele>
        <time>2021-04-17T12:04:35Z</time>
      </trkpt>
      <trkpt lat="-25.6205860" lon="-49.0182610">
        <ele>918.4</ele>
        <time>2021-04-17T12:04:36Z</time>
      </trkpt>
      <trkpt lat="-25.6205790" lon="-49.0182430">
        <ele>918.6</ele>
        <time>2021-04-17T12:04:37Z</time>
      </trkpt>
      <trkpt lat="-25.6205720" lon="-49.0182230">
        <ele>918.8</ele>
        <time>2021-04-17T12:04:38Z</time>
      </trkpt>
      <trkpt lat="-25.6205670" lon="-49.0182050">
        <ele>919.0</ele>
        <time>2021-04-17T12:04:39Z</time>
      </trkpt>
      <trkpt lat="-25.6205520" lon="-49.0181680">
        <ele>919.4</ele>
        <time>2021-04-17T12:04:41Z</time>
      </trkpt>
      <trkpt lat="-25.6205360" lon="-49.0181310">
        <ele>919.8</ele>
        <time>2021-04-17T12:04:43Z</time>
      </trkpt>
      <trkpt lat="-25.6205230" lon="-49.0180970">
        <ele>920.4</ele>
        <time>2021-04-17T12:04:45Z</time>
      </trkpt>
      <trkpt lat="-25.6205140" lon="-49.0180820">
        <ele>920.4</ele>
        <time>2021-04-17T12:04:46Z</time>
      </trkpt>
      <trkpt lat="-25.6205050" lon="-49.0180650">
        <ele>920.6</ele>
        <time>2021-04-17T12:04:47Z</time>
      </trkpt>
      <trkpt lat="-25.6204910" lon="-49.0180300">
        <ele>921.2</ele>
        <time>2021-04-17T12:04:49Z</time>
      </trkpt>
      <trkpt lat="-25.6204800" lon="-49.0179940">
        <ele>921.8</ele>
        <time>2021-04-17T12:04:51Z</time>
      </trkpt>
      <trkpt lat="-25.6204610" lon="-49.0179620">
        <ele>922.4</ele>
        <time>2021-04-17T12:04:53Z</time>
      </trkpt>
      <trkpt lat="-25.6204420" lon="-49.0179310">
        <ele>922.8</ele>
        <time>2021-04-17T12:04:55Z</time>
      </trkpt>
      <trkpt lat="-25.6204310" lon="-49.0179160">
        <ele>923.0</ele>
        <time>2021-04-17T12:04:56Z</time>
      </trkpt>
      <trkpt lat="-25.6204190" lon="-49.0178990">
        <ele>923.2</ele>
        <time>2021-04-17T12:04:57Z</time>
      </trkpt>
      <trkpt lat="-25.6204000" lon="-49.0178660">
        <ele>923.6</ele>
        <time>2021-04-17T12:04:59Z</time>
      </trkpt>
      <trkpt lat="-25.6203810" lon="-49.0178360">
        <ele>924.0</ele>
        <time>2021-04-17T12:05:01Z</time>
      </trkpt>
      <trkpt lat="-25.6203650" lon="-49.0178070">
        <ele>924.6</ele>
        <time>2021-04-17T12:05:03Z</time>
      </trkpt>
      <trkpt lat="-25.6203460" lon="-49.0177780">
        <ele>925.2</ele>
        <time>2021-04-17T12:05:05Z</time>
      </trkpt>
      <trkpt lat="-25.6203270" lon="-49.0177480">
        <ele>925.8</ele>
        <time>2021-04-17T12:05:07Z</time>
      </trkpt>
      <trkpt lat="-25.6203090" lon="-49.0177210">
        <ele>926.4</ele>
        <time>2021-04-17T12:05:09Z</time>
      </trkpt>
      <trkpt lat="-25.6202920" lon="-49.0176900">
        <ele>926.8</ele>
        <time>2021-04-17T12:05:11Z</time>
      </trkpt>
      <trkpt lat="-25.6202730" lon="-49.0176610">
        <ele>927.6</ele>
        <time>2021-04-17T12:05:13Z</time>
      </trkpt>
      <trkpt lat="-25.6202540" lon="-49.0176340">
        <ele>928.4</ele>
        <time>2021-04-17T12:05:15Z</time>
      </trkpt>
      <trkpt lat="-25.6202460" lon="-49.0176210">
        <ele>928.6</ele>
        <time>2021-04-17T12:05:16Z</time>
      </trkpt>
      <trkpt lat="-25.6202370" lon="-49.0176080">
        <ele>929.0</ele>
        <time>2021-04-17T12:05:17Z</time>
      </trkpt>
      <trkpt lat="-25.6202190" lon="-49.0175820">
        <ele>929.8</ele>
        <time>2021-04-17T12:05:19Z</time>
      </trkpt>
      <trkpt lat="-25.6202050" lon="-49.0175510">
        <ele>930.4</ele>
        <time>2021-04-17T12:05:21Z</time>
      </trkpt>
      <trkpt lat="-25.6201920" lon="-49.0175190">
        <ele>931.0</ele>
        <time>2021-04-17T12:05:23Z</time>
      </trkpt>
      <trkpt lat="-25.6201770" lon="-49.0174900">
        <ele>931.6</ele>
        <time>2021-04-17T12:05:25Z</time>
      </trkpt>
      <trkpt lat="-25.6201710" lon="-49.0174740">
        <ele>932.0</ele>
        <time>2021-04-17T12:05:26Z</time>
      </trkpt>
      <trkpt lat="-25.6201670" lon="-49.0174570">
        <ele>932.4</ele>
        <time>2021-04-17T12:05:27Z</time>
      </trkpt>
      <trkpt lat="-25.6201550" lon="-49.0174280">
        <ele>933.0</ele>
        <time>2021-04-17T12:05:29Z</time>
      </trkpt>
      <trkpt lat="-25.6201380" lon="-49.0173980">
        <ele>933.4</ele>
        <time>2021-04-17T12:05:31Z</time>
      </trkpt>
      <trkpt lat="-25.6201300" lon="-49.0173830">
        <ele>933.4</ele>
        <time>2021-04-17T12:05:32Z</time>
      </trkpt>
      <trkpt lat="-25.6201220" lon="-49.0173690">
        <ele>933.8</ele>
        <time>2021-04-17T12:05:33Z</time>
      </trkpt>
      <trkpt lat="-25.6201000" lon="-49.0173410">
        <ele>934.2</ele>
        <time>2021-04-17T12:05:35Z</time>
      </trkpt>
      <trkpt lat="-25.6200830" lon="-49.0173130">
        <ele>934.4</ele>
        <time>2021-04-17T12:05:37Z</time>
      </trkpt>
      <trkpt lat="-25.6200750" lon="-49.0172990">
        <ele>934.6</ele>
        <time>2021-04-17T12:05:38Z</time>
      </trkpt>
      <trkpt lat="-25.6200650" lon="-49.0172850">
        <ele>934.8</ele>
        <time>2021-04-17T12:05:39Z</time>
      </trkpt>
      <trkpt lat="-25.6200430" lon="-49.0172590">
        <ele>935.0</ele>
        <time>2021-04-17T12:05:41Z</time>
      </trkpt>
      <trkpt lat="-25.6200160" lon="-49.0172360">
        <ele>935.4</ele>
        <time>2021-04-17T12:05:43Z</time>
      </trkpt>
      <trkpt lat="-25.6200030" lon="-49.0172240">
        <ele>935.4</ele>
        <time>2021-04-17T12:05:44Z</time>
      </trkpt>
      <trkpt lat="-25.6199910" lon="-49.0172120">
        <ele>935.6</ele>
        <time>2021-04-17T12:05:45Z</time>
      </trkpt>
      <trkpt lat="-25.6199670" lon="-49.0171950">
        <ele>936.0</ele>
        <time>2021-04-17T12:05:47Z</time>
      </trkpt>
      <trkpt lat="-25.6199400" lon="-49.0171780">
        <ele>936.4</ele>
        <time>2021-04-17T12:05:49Z</time>
      </trkpt>
      <trkpt lat="-25.6199110" lon="-49.0171600">
        <ele>936.6</ele>
        <time>2021-04-17T12:05:51Z</time>
      </trkpt>
      <trkpt lat="-25.6198800" lon="-49.0171430">
        <ele>937.0</ele>
        <time>2021-04-17T12:05:53Z</time>
      </trkpt>
      <trkpt lat="-25.6198550" lon="-49.0171230">
        <ele>937.4</ele>
        <time>2021-04-17T12:05:55Z</time>
      </trkpt>
      <trkpt lat="-25.6198300" lon="-49.0171040">
        <ele>937.6</ele>
        <time>2021-04-17T12:05:57Z</time>
      </trkpt>
      <trkpt lat="-25.6198180" lon="-49.0170950">
        <ele>937.8</ele>
        <time>2021-04-17T12:05:58Z</time>
      </trkpt>
      <trkpt lat="-25.6198070" lon="-49.0170850">
        <ele>938.0</ele>
        <time>2021-04-17T12:05:59Z</time>
      </trkpt>
      <trkpt lat="-25.6197850" lon="-49.0170640">
        <ele>938.4</ele>
        <time>2021-04-17T12:06:01Z</time>
      </trkpt>
      <trkpt lat="-25.6197600" lon="-49.0170440">
        <ele>938.8</ele>
        <time>2021-04-17T12:06:03Z</time>
      </trkpt>
      <trkpt lat="-25.6197450" lon="-49.0170200">
        <ele>939.2</ele>
        <time>2021-04-17T12:06:05Z</time>
      </trkpt>
      <trkpt lat="-25.6197270" lon="-49.0169900">
        <ele>939.6</ele>
        <time>2021-04-17T12:06:07Z</time>
      </trkpt>
      <trkpt lat="-25.6197170" lon="-49.0169740">
        <ele>940.0</ele>
        <time>2021-04-17T12:06:08Z</time>
      </trkpt>
      <trkpt lat="-25.6197080" lon="-49.0169590">
        <ele>940.2</ele>
        <time>2021-04-17T12:06:09Z</time>
      </trkpt>
      <trkpt lat="-25.6196860" lon="-49.0169290">
        <ele>940.4</ele>
        <time>2021-04-17T12:06:11Z</time>
      </trkpt>
      <trkpt lat="-25.6196670" lon="-49.0168990">
        <ele>940.8</ele>
        <time>2021-04-17T12:06:13Z</time>
      </trkpt>
      <trkpt lat="-25.6196450" lon="-49.0168710">
        <ele>941.2</ele>
        <time>2021-04-17T12:06:15Z</time>
      </trkpt>
      <trkpt lat="-25.6196300" lon="-49.0168350">
        <ele>941.6</ele>
        <time>2021-04-17T12:06:17Z</time>
      </trkpt>
      <trkpt lat="-25.6196170" lon="-49.0168000">
        <ele>941.6</ele>
        <time>2021-04-17T12:06:19Z</time>
      </trkpt>
      <trkpt lat="-25.6196040" lon="-49.0167640">
        <ele>942.2</ele>
        <time>2021-04-17T12:06:21Z</time>
      </trkpt>
      <trkpt lat="-25.6195920" lon="-49.0167290">
        <ele>942.4</ele>
        <time>2021-04-17T12:06:23Z</time>
      </trkpt>
      <trkpt lat="-25.6195810" lon="-49.0166950">
        <ele>942.8</ele>
        <time>2021-04-17T12:06:25Z</time>
      </trkpt>
      <trkpt lat="-25.6195760" lon="-49.0166620">
        <ele>943.4</ele>
        <time>2021-04-17T12:06:27Z</time>
      </trkpt>
      <trkpt lat="-25.6195840" lon="-49.0166290">
        <ele>943.6</ele>
        <time>2021-04-17T12:06:29Z</time>
      </trkpt>
      <trkpt lat="-25.6195840" lon="-49.0166130">
        <ele>943.6</ele>
        <time>2021-04-17T12:06:30Z</time>
      </trkpt>
      <trkpt lat="-25.6195810" lon="-49.0166030">
        <ele>943.8</ele>
        <time>2021-04-17T12:06:31Z</time>
      </trkpt>
      <trkpt lat="-25.6195780" lon="-49.0165920">
        <ele>944.2</ele>
        <time>2021-04-17T12:06:33Z</time>
      </trkpt>
      <trkpt lat="-25.6195760" lon="-49.0165910">
        <ele>944.2</ele>
        <time>2021-04-17T12:06:34Z</time>
      </trkpt>
      <trkpt lat="-25.6195740" lon="-49.0165910">
        <ele>944.2</ele>
        <time>2021-04-17T12:06:35Z</time>
      </trkpt>
      <trkpt lat="-25.6195730" lon="-49.0165910">
        <ele>944.2</ele>
        <time>2021-04-17T12:06:37Z</time>
      </trkpt>
      <trkpt lat="-25.6195720" lon="-49.0165900">
        <ele>944.2</ele>
        <time>2021-04-17T12:06:39Z</time>
      </trkpt>
      <trkpt lat="-25.6195720" lon="-49.0165910">
        <ele>944.2</ele>
        <time>2021-04-17T12:06:41Z</time>
      </trkpt>
      <trkpt lat="-25.6195720" lon="-49.0165910">
        <ele>944.4</ele>
        <time>2021-04-17T12:06:43Z</time>
      </trkpt>
      <trkpt lat="-25.6195710" lon="-49.0165920">
        <ele>944.4</ele>
        <time>2021-04-17T12:06:45Z</time>
      </trkpt>
      <trkpt lat="-25.6195710" lon="-49.0165920">
        <ele>944.4</ele>
        <time>2021-04-17T12:06:47Z</time>
      </trkpt>
      <trkpt lat="-25.6195700" lon="-49.0165930">
        <ele>944.4</ele>
        <time>2021-04-17T12:06:49Z</time>
      </trkpt>
      <trkpt lat="-25.6195700" lon="-49.0165930">
        <ele>944.4</ele>
        <time>2021-04-17T12:06:51Z</time>
      </trkpt>
      <trkpt lat="-25.6195700" lon="-49.0165930">
        <ele>944.4</ele>
        <time>2021-04-17T12:06:53Z</time>
      </trkpt>
      <trkpt lat="-25.6195710" lon="-49.0165930">
        <ele>944.4</ele>
        <time>2021-04-17T12:06:55Z</time>
      </trkpt>
      <trkpt lat="-25.6195710" lon="-49.0165930">
        <ele>944.4</ele>
        <time>2021-04-17T12:06:57Z</time>
      </trkpt>
      <trkpt lat="-25.6195700" lon="-49.0165930">
        <ele>944.4</ele>
        <time>2021-04-17T12:06:59Z</time>
      </trkpt>
      <trkpt lat="-25.6195700" lon="-49.0165930">
        <ele>944.2</ele>
        <time>2021-04-17T12:07:01Z</time>
      </trkpt>
      <trkpt lat="-25.6195700" lon="-49.0165920">
        <ele>944.2</ele>
        <time>2021-04-17T12:07:03Z</time>
      </trkpt>
      <trkpt lat="-25.6195700" lon="-49.0165920">
        <ele>944.2</ele>
        <time>2021-04-17T12:07:05Z</time>
      </trkpt>
      <trkpt lat="-25.6195700" lon="-49.0165920">
        <ele>944.2</ele>
        <time>2021-04-17T12:07:07Z</time>
      </trkpt>
      <trkpt lat="-25.6195700" lon="-49.0165920">
        <ele>944.2</ele>
        <time>2021-04-17T12:07:09Z</time>
      </trkpt>
      <trkpt lat="-25.6195700" lon="-49.0165920">
        <ele>944.2</ele>
        <time>2021-04-17T12:07:11Z</time>
      </trkpt>
      <trkpt lat="-25.6195700" lon="-49.0165920">
        <ele>944.2</ele>
        <time>2021-04-17T12:07:13Z</time>
      </trkpt>
      <trkpt lat="-25.6195700" lon="-49.0165920">
        <ele>944.2</ele>
        <time>2021-04-17T12:07:15Z</time>
      </trkpt>
      <trkpt lat="-25.6195700" lon="-49.0165920">
        <ele>944.2</ele>
        <time>2021-04-17T12:07:17Z</time>
      </trkpt>
      <trkpt lat="-25.6195700" lon="-49.0165920">
        <ele>944.2</ele>
        <time>2021-04-17T12:07:19Z</time>
      </trkpt>
      <trkpt lat="-25.6195710" lon="-49.0165920">
        <ele>944.2</ele>
        <time>2021-04-17T12:07:21Z</time>
      </trkpt>
      <trkpt lat="-25.6195710" lon="-49.0165920">
        <ele>944.2</ele>
        <time>2021-04-17T12:07:23Z</time>
      </trkpt>
      <trkpt lat="-25.6195710" lon="-49.0165920">
        <ele>944.2</ele>
        <time>2021-04-17T12:07:25Z</time>
      </trkpt>
      <trkpt lat="-25.6195710" lon="-49.0165920">
        <ele>944.2</ele>
        <time>2021-04-17T12:07:27Z</time>
      </trkpt>
      <trkpt lat="-25.6195710" lon="-49.0165920">
        <ele>944.2</ele>
        <time>2021-04-17T12:07:28Z</time>
      </trkpt>
      <trkpt lat="-25.6195710" lon="-49.0165920">
        <ele>944.2</ele>
        <time>2021-04-17T12:07:29Z</time>
      </trkpt>
      <trkpt lat="-25.6195710" lon="-49.0165920">
        <ele>944.2</ele>
        <time>2021-04-17T12:07:31Z</time>
      </trkpt>
      <trkpt lat="-25.6195710" lon="-49.0165920">
        <ele>944.2</ele>
        <time>2021-04-17T12:07:33Z</time>
      </trkpt>
      <trkpt lat="-25.6195710" lon="-49.0165920">
        <ele>944.2</ele>
        <time>2021-04-17T12:07:35Z</time>
      </trkpt>
      <trkpt lat="-25.6195700" lon="-49.0165920">
        <ele>944.2</ele>
        <time>2021-04-17T12:07:37Z</time>
      </trkpt>
      <trkpt lat="-25.6195700" lon="-49.0165920">
        <ele>944.2</ele>
        <time>2021-04-17T12:07:39Z</time>
      </trkpt>
      <trkpt lat="-25.6195700" lon="-49.0165920">
        <ele>944.4</ele>
        <time>2021-04-17T12:07:41Z</time>
      </trkpt>
      <trkpt lat="-25.6195710" lon="-49.0165920">
        <ele>944.4</ele>
        <time>2021-04-17T12:07:43Z</time>
      </trkpt>
      <trkpt lat="-25.6195710" lon="-49.0165920">
        <ele>944.4</ele>
        <time>2021-04-17T12:07:45Z</time>
      </trkpt>
      <trkpt lat="-25.6195710" lon="-49.0165930">
        <ele>944.4</ele>
        <time>2021-04-17T12:07:47Z</time>
      </trkpt>
      <trkpt lat="-25.6195710" lon="-49.0165930">
        <ele>944.4</ele>
        <time>2021-04-17T12:07:49Z</time>
      </trkpt>
      <trkpt lat="-25.6195710" lon="-49.0165930">
        <ele>944.4</ele>
        <time>2021-04-17T12:07:50Z</time>
      </trkpt>
      <trkpt lat="-25.6195710" lon="-49.0165930">
        <ele>944.4</ele>
        <time>2021-04-17T12:07:51Z</time>
      </trkpt>
      <trkpt lat="-25.6195710" lon="-49.0165930">
        <ele>944.4</ele>
        <time>2021-04-17T12:07:53Z</time>
      </trkpt>
      <trkpt lat="-25.6195650" lon="-49.0165890">
        <ele>944.4</ele>
        <time>2021-04-17T12:07:55Z</time>
      </trkpt>
      <trkpt lat="-25.6195590" lon="-49.0165850">
        <ele>944.4</ele>
        <time>2021-04-17T12:07:57Z</time>
      </trkpt>
      <trkpt lat="-25.6195580" lon="-49.0165850">
        <ele>944.4</ele>
        <time>2021-04-17T12:07:58Z</time>
      </trkpt>
      <trkpt lat="-25.6195580" lon="-49.0165850">
        <ele>944.4</ele>
        <time>2021-04-17T12:07:59Z</time>
      </trkpt>
      <trkpt lat="-25.6195570" lon="-49.0165850">
        <ele>944.4</ele>
        <time>2021-04-17T12:08:01Z</time>
      </trkpt>
      <trkpt lat="-25.6195570" lon="-49.0165850">
        <ele>944.4</ele>
        <time>2021-04-17T12:08:03Z</time>
      </trkpt>
      <trkpt lat="-25.6195570" lon="-49.0165850">
        <ele>944.4</ele>
        <time>2021-04-17T12:08:05Z</time>
      </trkpt>
      <trkpt lat="-25.6195570" lon="-49.0165850">
        <ele>944.4</ele>
        <time>2021-04-17T12:08:07Z</time>
      </trkpt>
      <trkpt lat="-25.6195570" lon="-49.0165850">
        <ele>944.4</ele>
        <time>2021-04-17T12:08:09Z</time>
      </trkpt>
      <trkpt lat="-25.6195570" lon="-49.0165850">
        <ele>944.4</ele>
        <time>2021-04-17T12:08:11Z</time>
      </trkpt>
      <trkpt lat="-25.6195570" lon="-49.0165850">
        <ele>944.4</ele>
        <time>2021-04-17T12:08:13Z</time>
      </trkpt>
      <trkpt lat="-25.6195570" lon="-49.0165850">
        <ele>944.4</ele>
        <time>2021-04-17T12:08:15Z</time>
      </trkpt>
      <trkpt lat="-25.6195570" lon="-49.0165860">
        <ele>944.4</ele>
        <time>2021-04-17T12:08:17Z</time>
      </trkpt>
      <trkpt lat="-25.6195570" lon="-49.0165860">
        <ele>944.4</ele>
        <time>2021-04-17T12:08:19Z</time>
      </trkpt>
      <trkpt lat="-25.6195570" lon="-49.0165860">
        <ele>944.4</ele>
        <time>2021-04-17T12:08:21Z</time>
      </trkpt>
      <trkpt lat="-25.6195560" lon="-49.0165860">
        <ele>944.4</ele>
        <time>2021-04-17T12:08:23Z</time>
      </trkpt>
      <trkpt lat="-25.6195560" lon="-49.0165860">
        <ele>944.4</ele>
        <time>2021-04-17T12:08:25Z</time>
      </trkpt>
      <trkpt lat="-25.6195560" lon="-49.0165860">
        <ele>944.4</ele>
        <time>2021-04-17T12:08:27Z</time>
      </trkpt>
      <trkpt lat="-25.6195560" lon="-49.0165860">
        <ele>944.4</ele>
        <time>2021-04-17T12:08:29Z</time>
      </trkpt>
      <trkpt lat="-25.6195560" lon="-49.0165860">
        <ele>944.2</ele>
        <time>2021-04-17T12:08:31Z</time>
      </trkpt>
      <trkpt lat="-25.6195570" lon="-49.0165860">
        <ele>944.2</ele>
        <time>2021-04-17T12:08:33Z</time>
      </trkpt>
      <trkpt lat="-25.6195570" lon="-49.0165860">
        <ele>944.2</ele>
        <time>2021-04-17T12:08:35Z</time>
      </trkpt>
      <trkpt lat="-25.6195570" lon="-49.0165860">
        <ele>944.2</ele>
        <time>2021-04-17T12:08:37Z</time>
      </trkpt>
      <trkpt lat="-25.6195570" lon="-49.0165860">
        <ele>944.2</ele>
        <time>2021-04-17T12:08:39Z</time>
      </trkpt>
      <trkpt lat="-25.6195570" lon="-49.0165860">
        <ele>944.2</ele>
        <time>2021-04-17T12:08:41Z</time>
      </trkpt>
      <trkpt lat="-25.6195570" lon="-49.0165860">
        <ele>944.2</ele>
        <time>2021-04-17T12:08:43Z</time>
      </trkpt>
      <trkpt lat="-25.6195570" lon="-49.0165860">
        <ele>944.2</ele>
        <time>2021-04-17T12:08:45Z</time>
      </trkpt>
      <trkpt lat="-25.6195570" lon="-49.0165860">
        <ele>944.2</ele>
        <time>2021-04-17T12:08:47Z</time>
      </trkpt>
      <trkpt lat="-25.6195570" lon="-49.0165860">
        <ele>944.2</ele>
        <time>2021-04-17T12:08:49Z</time>
      </trkpt>
      <trkpt lat="-25.6195570" lon="-49.0165870">
        <ele>944.2</ele>
        <time>2021-04-17T12:08:51Z</time>
      </trkpt>
      <trkpt lat="-25.6195570" lon="-49.0165870">
        <ele>944.2</ele>
        <time>2021-04-17T12:08:53Z</time>
      </trkpt>
      <trkpt lat="-25.6195570" lon="-49.0165870">
        <ele>944.2</ele>
        <time>2021-04-17T12:08:55Z</time>
      </trkpt>
      <trkpt lat="-25.6195570" lon="-49.0165870">
        <ele>944.2</ele>
        <time>2021-04-17T12:08:57Z</time>
      </trkpt>
      <trkpt lat="-25.6195570" lon="-49.0165870">
        <ele>944.2</ele>
        <time>2021-04-17T12:08:59Z</time>
      </trkpt>
      <trkpt lat="-25.6195570" lon="-49.0165870">
        <ele>944.2</ele>
        <time>2021-04-17T12:09:01Z</time>
      </trkpt>
      <trkpt lat="-25.6195570" lon="-49.0165870">
        <ele>944.2</ele>
        <time>2021-04-17T12:09:03Z</time>
      </trkpt>
      <trkpt lat="-25.6195560" lon="-49.0165910">
        <ele>944.2</ele>
        <time>2021-04-17T12:09:05Z</time>
      </trkpt>
      <trkpt lat="-25.6195570" lon="-49.0165920">
        <ele>944.2</ele>
        <time>2021-04-17T12:09:07Z</time>
      </trkpt>
      <trkpt lat="-25.6195580" lon="-49.0165930">
        <ele>944.2</ele>
        <time>2021-04-17T12:09:09Z</time>
      </trkpt>
      <trkpt lat="-25.6195580" lon="-49.0165930">
        <ele>944.2</ele>
        <time>2021-04-17T12:09:11Z</time>
      </trkpt>
      <trkpt lat="-25.6195580" lon="-49.0165930">
        <ele>944.2</ele>
        <time>2021-04-17T12:09:13Z</time>
      </trkpt>
      <trkpt lat="-25.6195580" lon="-49.0165930">
        <ele>944.0</ele>
        <time>2021-04-17T12:09:15Z</time>
      </trkpt>
      <trkpt lat="-25.6195590" lon="-49.0165930">
        <ele>944.0</ele>
        <time>2021-04-17T12:09:17Z</time>
      </trkpt>
      <trkpt lat="-25.6195590" lon="-49.0165930">
        <ele>944.2</ele>
        <time>2021-04-17T12:09:19Z</time>
      </trkpt>
      <trkpt lat="-25.6195590" lon="-49.0165930">
        <ele>944.2</ele>
        <time>2021-04-17T12:09:21Z</time>
      </trkpt>
      <trkpt lat="-25.6195590" lon="-49.0165920">
        <ele>944.2</ele>
        <time>2021-04-17T12:09:23Z</time>
      </trkpt>
      <trkpt lat="-25.6195590" lon="-49.0165920">
        <ele>944.2</ele>
        <time>2021-04-17T12:09:25Z</time>
      </trkpt>
      <trkpt lat="-25.6195590" lon="-49.0165920">
        <ele>944.2</ele>
        <time>2021-04-17T12:09:27Z</time>
      </trkpt>
      <trkpt lat="-25.6195590" lon="-49.0165920">
        <ele>944.0</ele>
        <time>2021-04-17T12:09:29Z</time>
      </trkpt>
      <trkpt lat="-25.6195590" lon="-49.0165920">
        <ele>944.0</ele>
        <time>2021-04-17T12:09:31Z</time>
      </trkpt>
      <trkpt lat="-25.6195600" lon="-49.0165920">
        <ele>944.0</ele>
        <time>2021-04-17T12:09:33Z</time>
      </trkpt>
      <trkpt lat="-25.6195600" lon="-49.0165920">
        <ele>944.0</ele>
        <time>2021-04-17T12:09:35Z</time>
      </trkpt>
      <trkpt lat="-25.6195600" lon="-49.0165930">
        <ele>944.0</ele>
        <time>2021-04-17T12:09:37Z</time>
      </trkpt>
      <trkpt lat="-25.6195600" lon="-49.0165930">
        <ele>944.0</ele>
        <time>2021-04-17T12:09:39Z</time>
      </trkpt>
      <trkpt lat="-25.6195600" lon="-49.0165930">
        <ele>944.2</ele>
        <time>2021-04-17T12:09:41Z</time>
      </trkpt>
      <trkpt lat="-25.6195600" lon="-49.0165930">
        <ele>944.2</ele>
        <time>2021-04-17T12:09:43Z</time>
      </trkpt>
      <trkpt lat="-25.6195600" lon="-49.0165930">
        <ele>944.2</ele>
        <time>2021-04-17T12:09:45Z</time>
      </trkpt>
      <trkpt lat="-25.6195600" lon="-49.0165930">
        <ele>944.0</ele>
        <time>2021-04-17T12:09:47Z</time>
      </trkpt>
      <trkpt lat="-25.6195600" lon="-49.0165920">
        <ele>944.0</ele>
        <time>2021-04-17T12:09:49Z</time>
      </trkpt>
      <trkpt lat="-25.6195600" lon="-49.0165920">
        <ele>944.0</ele>
        <time>2021-04-17T12:09:51Z</time>
      </trkpt>
      <trkpt lat="-25.6195610" lon="-49.0165920">
        <ele>944.0</ele>
        <time>2021-04-17T12:09:53Z</time>
      </trkpt>
      <trkpt lat="-25.6195610" lon="-49.0165920">
        <ele>944.0</ele>
        <time>2021-04-17T12:09:55Z</time>
      </trkpt>
      <trkpt lat="-25.6195610" lon="-49.0165920">
        <ele>944.0</ele>
        <time>2021-04-17T12:09:57Z</time>
      </trkpt>
      <trkpt lat="-25.6195610" lon="-49.0165920">
        <ele>944.0</ele>
        <time>2021-04-17T12:09:59Z</time>
      </trkpt>
      <trkpt lat="-25.6195610" lon="-49.0165920">
        <ele>944.0</ele>
        <time>2021-04-17T12:10:01Z</time>
      </trkpt>
      <trkpt lat="-25.6195600" lon="-49.0165920">
        <ele>944.0</ele>
        <time>2021-04-17T12:10:03Z</time>
      </trkpt>
      <trkpt lat="-25.6195600" lon="-49.0165930">
        <ele>944.0</ele>
        <time>2021-04-17T12:10:05Z</time>
      </trkpt>
      <trkpt lat="-25.6195600" lon="-49.0165920">
        <ele>944.0</ele>
        <time>2021-04-17T12:10:06Z</time>
      </trkpt>
      <trkpt lat="-25.6195600" lon="-49.0165930">
        <ele>944.0</ele>
        <time>2021-04-17T12:10:07Z</time>
      </trkpt>
      <trkpt lat="-25.6195600" lon="-49.0165930">
        <ele>944.0</ele>
        <time>2021-04-17T12:10:08Z</time>
      </trkpt>
      <trkpt lat="-25.6195600" lon="-49.0165920">
        <ele>944.0</ele>
        <time>2021-04-17T12:10:09Z</time>
      </trkpt>
      <trkpt lat="-25.6195590" lon="-49.0165910">
        <ele>944.0</ele>
        <time>2021-04-17T12:10:11Z</time>
      </trkpt>
      <trkpt lat="-25.6195590" lon="-49.0165910">
        <ele>944.0</ele>
        <time>2021-04-17T12:10:13Z</time>
      </trkpt>
      <trkpt lat="-25.6195600" lon="-49.0165910">
        <ele>944.0</ele>
        <time>2021-04-17T12:10:15Z</time>
      </trkpt>
      <trkpt lat="-25.6195600" lon="-49.0165910">
        <ele>944.0</ele>
        <time>2021-04-17T12:10:17Z</time>
      </trkpt>
      <trkpt lat="-25.6195600" lon="-49.0165910">
        <ele>944.0</ele>
        <time>2021-04-17T12:10:19Z</time>
      </trkpt>
      <trkpt lat="-25.6195600" lon="-49.0165910">
        <ele>944.0</ele>
        <time>2021-04-17T12:10:20Z</time>
      </trkpt>
      <trkpt lat="-25.6195600" lon="-49.0165910">
        <ele>944.0</ele>
        <time>2021-04-17T12:10:21Z</time>
      </trkpt>
      <trkpt lat="-25.6195590" lon="-49.0165900">
        <ele>944.0</ele>
        <time>2021-04-17T12:10:23Z</time>
      </trkpt>
      <trkpt lat="-25.6195570" lon="-49.0165900">
        <ele>944.0</ele>
        <time>2021-04-17T12:10:25Z</time>
      </trkpt>
      <trkpt lat="-25.6195570" lon="-49.0165900">
        <ele>944.0</ele>
        <time>2021-04-17T12:10:27Z</time>
      </trkpt>
      <trkpt lat="-25.6195570" lon="-49.0165890">
        <ele>944.0</ele>
        <time>2021-04-17T12:10:29Z</time>
      </trkpt>
      <trkpt lat="-25.6195570" lon="-49.0165890">
        <ele>944.0</ele>
        <time>2021-04-17T12:10:31Z</time>
      </trkpt>
      <trkpt lat="-25.6195570" lon="-49.0165900">
        <ele>944.0</ele>
        <time>2021-04-17T12:10:33Z</time>
      </trkpt>
      <trkpt lat="-25.6195550" lon="-49.0165870">
        <ele>944.0</ele>
        <time>2021-04-17T12:10:35Z</time>
      </trkpt>
      <trkpt lat="-25.6195540" lon="-49.0165840">
        <ele>944.0</ele>
        <time>2021-04-17T12:10:37Z</time>
      </trkpt>
      <trkpt lat="-25.6195430" lon="-49.0165760">
        <ele>944.0</ele>
        <time>2021-04-17T12:10:39Z</time>
      </trkpt>
      <trkpt lat="-25.6195340" lon="-49.0165680">
        <ele>944.0</ele>
        <time>2021-04-17T12:10:40Z</time>
      </trkpt>
      <trkpt lat="-25.6195240" lon="-49.0165550">
        <ele>944.0</ele>
        <time>2021-04-17T12:10:41Z</time>
      </trkpt>
      <trkpt lat="-25.6195120" lon="-49.0165350">
        <ele>944.2</ele>
        <time>2021-04-17T12:10:42Z</time>
      </trkpt>
      <trkpt lat="-25.6194960" lon="-49.0165090">
        <ele>944.0</ele>
        <time>2021-04-17T12:10:43Z</time>
      </trkpt>
      <trkpt lat="-25.6194770" lon="-49.0164800">
        <ele>944.0</ele>
        <time>2021-04-17T12:10:44Z</time>
      </trkpt>
      <trkpt lat="-25.6194570" lon="-49.0164470">
        <ele>944.0</ele>
        <time>2021-04-17T12:10:45Z</time>
      </trkpt>
      <trkpt lat="-25.6194190" lon="-49.0163760">
        <ele>944.0</ele>
        <time>2021-04-17T12:10:47Z</time>
      </trkpt>
      <trkpt lat="-25.6193790" lon="-49.0163050">
        <ele>944.0</ele>
        <time>2021-04-17T12:10:49Z</time>
      </trkpt>
      <trkpt lat="-25.6193400" lon="-49.0162340">
        <ele>943.8</ele>
        <time>2021-04-17T12:10:51Z</time>
      </trkpt>
      <trkpt lat="-25.6193010" lon="-49.0161640">
        <ele>943.4</ele>
        <time>2021-04-17T12:10:53Z</time>
      </trkpt>
      <trkpt lat="-25.6192810" lon="-49.0161270">
        <ele>943.2</ele>
        <time>2021-04-17T12:10:54Z</time>
      </trkpt>
      <trkpt lat="-25.6192580" lon="-49.0160880">
        <ele>942.8</ele>
        <time>2021-04-17T12:10:55Z</time>
      </trkpt>
      <trkpt lat="-25.6192360" lon="-49.0160470">
        <ele>942.4</ele>
        <time>2021-04-17T12:10:56Z</time>
      </trkpt>
      <trkpt lat="-25.6192140" lon="-49.0160050">
        <ele>942.2</ele>
        <time>2021-04-17T12:10:57Z</time>
      </trkpt>
      <trkpt lat="-25.6191920" lon="-49.0159640">
        <ele>942.0</ele>
        <time>2021-04-17T12:10:58Z</time>
      </trkpt>
      <trkpt lat="-25.6191690" lon="-49.0159240">
        <ele>941.6</ele>
        <time>2021-04-17T12:10:59Z</time>
      </trkpt>
      <trkpt lat="-25.6191280" lon="-49.0158450">
        <ele>941.0</ele>
        <time>2021-04-17T12:11:01Z</time>
      </trkpt>
      <trkpt lat="-25.6190890" lon="-49.0157700">
        <ele>940.2</ele>
        <time>2021-04-17T12:11:03Z</time>
      </trkpt>
      <trkpt lat="-25.6190700" lon="-49.0157340">
        <ele>940.0</ele>
        <time>2021-04-17T12:11:04Z</time>
      </trkpt>
      <trkpt lat="-25.6190500" lon="-49.0156940">
        <ele>939.6</ele>
        <time>2021-04-17T12:11:05Z</time>
      </trkpt>
      <trkpt lat="-25.6190110" lon="-49.0156000">
        <ele>939.2</ele>
        <time>2021-04-17T12:11:07Z</time>
      </trkpt>
      <trkpt lat="-25.6189940" lon="-49.0155580">
        <ele>938.8</ele>
        <time>2021-04-17T12:11:08Z</time>
      </trkpt>
      <trkpt lat="-25.6189770" lon="-49.0155160">
        <ele>938.6</ele>
        <time>2021-04-17T12:11:09Z</time>
      </trkpt>
      <trkpt lat="-25.6189080" lon="-49.0153470">
        <ele>938.2</ele>
        <time>2021-04-17T12:11:11Z</time>
      </trkpt>
      <trkpt lat="-25.6188790" lon="-49.0152770">
        <ele>937.8</ele>
        <time>2021-04-17T12:11:13Z</time>
      </trkpt>
      <trkpt lat="-25.6188500" lon="-49.0152050">
        <ele>937.4</ele>
        <time>2021-04-17T12:11:14Z</time>
      </trkpt>
      <trkpt lat="-25.6188200" lon="-49.0151330">
        <ele>937.0</ele>
        <time>2021-04-17T12:11:15Z</time>
      </trkpt>
      <trkpt lat="-25.6187660" lon="-49.0149940">
        <ele>936.8</ele>
        <time>2021-04-17T12:11:16Z</time>
      </trkpt>
      <trkpt lat="-25.6187380" lon="-49.0149260">
        <ele>936.2</ele>
        <time>2021-04-17T12:11:17Z</time>
      </trkpt>
      <trkpt lat="-25.6187080" lon="-49.0148600">
        <ele>935.4</ele>
        <time>2021-04-17T12:11:18Z</time>
      </trkpt>
      <trkpt lat="-25.6186790" lon="-49.0147940">
        <ele>934.6</ele>
        <time>2021-04-17T12:11:19Z</time>
      </trkpt>
      <trkpt lat="-25.6186600" lon="-49.0147380">
        <ele>933.6</ele>
        <time>2021-04-17T12:11:20Z</time>
      </trkpt>
      <trkpt lat="-25.6186410" lon="-49.0146820">
        <ele>933.0</ele>
        <time>2021-04-17T12:11:21Z</time>
      </trkpt>
      <trkpt lat="-25.6186030" lon="-49.0145700">
        <ele>932.2</ele>
        <time>2021-04-17T12:11:22Z</time>
      </trkpt>
      <trkpt lat="-25.6185980" lon="-49.0145270">
        <ele>931.4</ele>
        <time>2021-04-17T12:11:23Z</time>
      </trkpt>
      <trkpt lat="-25.6185930" lon="-49.0144840">
        <ele>930.8</ele>
        <time>2021-04-17T12:11:24Z</time>
      </trkpt>
      <trkpt lat="-25.6185820" lon="-49.0143540">
        <ele>930.2</ele>
        <time>2021-04-17T12:11:25Z</time>
      </trkpt>
      <trkpt lat="-25.6185810" lon="-49.0143100">
        <ele>929.6</ele>
        <time>2021-04-17T12:11:26Z</time>
      </trkpt>
      <trkpt lat="-25.6185930" lon="-49.0141390">
        <ele>928.8</ele>
        <time>2021-04-17T12:11:27Z</time>
      </trkpt>
      <trkpt lat="-25.6186050" lon="-49.0140580">
        <ele>928.2</ele>
        <time>2021-04-17T12:11:28Z</time>
      </trkpt>
      <trkpt lat="-25.6186260" lon="-49.0139820">
        <ele>927.4</ele>
        <time>2021-04-17T12:11:29Z</time>
      </trkpt>
      <trkpt lat="-25.6186570" lon="-49.0139110">
        <ele>926.6</ele>
        <time>2021-04-17T12:11:30Z</time>
      </trkpt>
      <trkpt lat="-25.6186910" lon="-49.0138410">
        <ele>925.6</ele>
        <time>2021-04-17T12:11:31Z</time>
      </trkpt>
      <trkpt lat="-25.6187240" lon="-49.0137750">
        <ele>925.2</ele>
        <time>2021-04-17T12:11:32Z</time>
      </trkpt>
      <trkpt lat="-25.6187540" lon="-49.0137100">
        <ele>924.8</ele>
        <time>2021-04-17T12:11:33Z</time>
      </trkpt>
      <trkpt lat="-25.6187830" lon="-49.0136460">
        <ele>924.6</ele>
        <time>2021-04-17T12:11:34Z</time>
      </trkpt>
      <trkpt lat="-25.6188080" lon="-49.0135860">
        <ele>924.2</ele>
        <time>2021-04-17T12:11:35Z</time>
      </trkpt>
      <trkpt lat="-25.6188310" lon="-49.0135270">
        <ele>924.2</ele>
        <time>2021-04-17T12:11:36Z</time>
      </trkpt>
      <trkpt lat="-25.6188520" lon="-49.0134730">
        <ele>924.0</ele>
        <time>2021-04-17T12:11:37Z</time>
      </trkpt>
      <trkpt lat="-25.6188920" lon="-49.0133680">
        <ele>924.0</ele>
        <time>2021-04-17T12:11:39Z</time>
      </trkpt>
      <trkpt lat="-25.6189080" lon="-49.0133170">
        <ele>924.0</ele>
        <time>2021-04-17T12:11:40Z</time>
      </trkpt>
      <trkpt lat="-25.6189260" lon="-49.0132630">
        <ele>924.0</ele>
        <time>2021-04-17T12:11:41Z</time>
      </trkpt>
      <trkpt lat="-25.6189580" lon="-49.0131580">
        <ele>923.8</ele>
        <time>2021-04-17T12:11:43Z</time>
      </trkpt>
      <trkpt lat="-25.6189910" lon="-49.0130490">
        <ele>923.8</ele>
        <time>2021-04-17T12:11:45Z</time>
      </trkpt>
      <trkpt lat="-25.6190280" lon="-49.0129420">
        <ele>924.0</ele>
        <time>2021-04-17T12:11:47Z</time>
      </trkpt>
      <trkpt lat="-25.6190710" lon="-49.0128410">
        <ele>924.0</ele>
        <time>2021-04-17T12:11:49Z</time>
      </trkpt>
      <trkpt lat="-25.6191140" lon="-49.0127500">
        <ele>924.0</ele>
        <time>2021-04-17T12:11:51Z</time>
      </trkpt>
      <trkpt lat="-25.6191610" lon="-49.0126770">
        <ele>924.2</ele>
        <time>2021-04-17T12:11:53Z</time>
      </trkpt>
      <trkpt lat="-25.6191860" lon="-49.0126360">
        <ele>924.4</ele>
        <time>2021-04-17T12:11:54Z</time>
      </trkpt>
      <trkpt lat="-25.6192160" lon="-49.0125880">
        <ele>924.4</ele>
        <time>2021-04-17T12:11:55Z</time>
      </trkpt>
      <trkpt lat="-25.6192920" lon="-49.0124720">
        <ele>924.6</ele>
        <time>2021-04-17T12:11:57Z</time>
      </trkpt>
      <trkpt lat="-25.6193290" lon="-49.0124040">
        <ele>924.8</ele>
        <time>2021-04-17T12:11:58Z</time>
      </trkpt>
      <trkpt lat="-25.6193590" lon="-49.0123290">
        <ele>924.8</ele>
        <time>2021-04-17T12:11:59Z</time>
      </trkpt>
      <trkpt lat="-25.6194020" lon="-49.0121760">
        <ele>924.8</ele>
        <time>2021-04-17T12:12:01Z</time>
      </trkpt>
      <trkpt lat="-25.6194340" lon="-49.0120370">
        <ele>924.8</ele>
        <time>2021-04-17T12:12:03Z</time>
      </trkpt>
      <trkpt lat="-25.6194570" lon="-49.0119170">
        <ele>924.8</ele>
        <time>2021-04-17T12:12:05Z</time>
      </trkpt>
      <trkpt lat="-25.6194660" lon="-49.0118690">
        <ele>924.8</ele>
        <time>2021-04-17T12:12:06Z</time>
      </trkpt>
      <trkpt lat="-25.6194750" lon="-49.0118270">
        <ele>925.0</ele>
        <time>2021-04-17T12:12:07Z</time>
      </trkpt>
      <trkpt lat="-25.6194940" lon="-49.0117560">
        <ele>925.2</ele>
        <time>2021-04-17T12:12:09Z</time>
      </trkpt>
      <trkpt lat="-25.6195100" lon="-49.0116920">
        <ele>925.2</ele>
        <time>2021-04-17T12:12:11Z</time>
      </trkpt>
      <trkpt lat="-25.6195220" lon="-49.0116410">
        <ele>925.2</ele>
        <time>2021-04-17T12:12:13Z</time>
      </trkpt>
      <trkpt lat="-25.6195340" lon="-49.0115900">
        <ele>925.2</ele>
        <time>2021-04-17T12:12:15Z</time>
      </trkpt>
      <trkpt lat="-25.6195470" lon="-49.0115340">
        <ele>926.2</ele>
        <time>2021-04-17T12:12:17Z</time>
      </trkpt>
      <trkpt lat="-25.6195540" lon="-49.0115080">
        <ele>926.6</ele>
        <time>2021-04-17T12:12:18Z</time>
      </trkpt>
      <trkpt lat="-25.6195610" lon="-49.0114810">
        <ele>927.2</ele>
        <time>2021-04-17T12:12:19Z</time>
      </trkpt>
      <trkpt lat="-25.6195700" lon="-49.0114500">
        <ele>927.8</ele>
        <time>2021-04-17T12:12:20Z</time>
      </trkpt>
      <trkpt lat="-25.6195820" lon="-49.0114130">
        <ele>928.2</ele>
        <time>2021-04-17T12:12:21Z</time>
      </trkpt>
      <trkpt lat="-25.6196160" lon="-49.0113220">
        <ele>928.8</ele>
        <time>2021-04-17T12:12:23Z</time>
      </trkpt>
      <trkpt lat="-25.6196660" lon="-49.0111980">
        <ele>929.0</ele>
        <time>2021-04-17T12:12:25Z</time>
      </trkpt>
      <trkpt lat="-25.6197230" lon="-49.0110440">
        <ele>929.2</ele>
        <time>2021-04-17T12:12:27Z</time>
      </trkpt>
      <trkpt lat="-25.6197640" lon="-49.0108730">
        <ele>929.2</ele>
        <time>2021-04-17T12:12:29Z</time>
      </trkpt>
      <trkpt lat="-25.6197970" lon="-49.0107070">
        <ele>929.2</ele>
        <time>2021-04-17T12:12:31Z</time>
      </trkpt>
      <trkpt lat="-25.6198100" lon="-49.0106340">
        <ele>928.8</ele>
        <time>2021-04-17T12:12:32Z</time>
      </trkpt>
      <trkpt lat="-25.6198250" lon="-49.0105730">
        <ele>928.2</ele>
        <time>2021-04-17T12:12:33Z</time>
      </trkpt>
      <trkpt lat="-25.6198390" lon="-49.0105200">
        <ele>927.8</ele>
        <time>2021-04-17T12:12:34Z</time>
      </trkpt>
      <trkpt lat="-25.6198520" lon="-49.0104720">
        <ele>927.6</ele>
        <time>2021-04-17T12:12:35Z</time>
      </trkpt>
      <trkpt lat="-25.6198650" lon="-49.0104290">
        <ele>927.4</ele>
        <time>2021-04-17T12:12:36Z</time>
      </trkpt>
      <trkpt lat="-25.6198760" lon="-49.0103880">
        <ele>927.4</ele>
        <time>2021-04-17T12:12:37Z</time>
      </trkpt>
      <trkpt lat="-25.6198960" lon="-49.0103200">
        <ele>927.4</ele>
        <time>2021-04-17T12:12:39Z</time>
      </trkpt>
      <trkpt lat="-25.6199160" lon="-49.0102590">
        <ele>927.4</ele>
        <time>2021-04-17T12:12:41Z</time>
      </trkpt>
      <trkpt lat="-25.6199280" lon="-49.0102260">
        <ele>927.4</ele>
        <time>2021-04-17T12:12:42Z</time>
      </trkpt>
      <trkpt lat="-25.6199400" lon="-49.0101830">
        <ele>927.4</ele>
        <time>2021-04-17T12:12:43Z</time>
      </trkpt>
      <trkpt lat="-25.6199730" lon="-49.0100940">
        <ele>928.0</ele>
        <time>2021-04-17T12:12:45Z</time>
      </trkpt>
      <trkpt lat="-25.6200060" lon="-49.0099990">
        <ele>928.8</ele>
        <time>2021-04-17T12:12:47Z</time>
      </trkpt>
      <trkpt lat="-25.6200190" lon="-49.0099510">
        <ele>928.8</ele>
        <time>2021-04-17T12:12:48Z</time>
      </trkpt>
      <trkpt lat="-25.6200310" lon="-49.0099020">
        <ele>929.0</ele>
        <time>2021-04-17T12:12:49Z</time>
      </trkpt>
      <trkpt lat="-25.6200580" lon="-49.0098070">
        <ele>929.2</ele>
        <time>2021-04-17T12:12:51Z</time>
      </trkpt>
      <trkpt lat="-25.6200890" lon="-49.0097150">
        <ele>929.2</ele>
        <time>2021-04-17T12:12:53Z</time>
      </trkpt>
      <trkpt lat="-25.6201070" lon="-49.0096690">
        <ele>929.2</ele>
        <time>2021-04-17T12:12:54Z</time>
      </trkpt>
      <trkpt lat="-25.6201300" lon="-49.0096280">
        <ele>929.2</ele>
        <time>2021-04-17T12:12:55Z</time>
      </trkpt>
      <trkpt lat="-25.6201870" lon="-49.0095510">
        <ele>929.4</ele>
        <time>2021-04-17T12:12:57Z</time>
      </trkpt>
      <trkpt lat="-25.6202500" lon="-49.0094750">
        <ele>929.4</ele>
        <time>2021-04-17T12:12:59Z</time>
      </trkpt>
      <trkpt lat="-25.6203150" lon="-49.0094000">
        <ele>929.4</ele>
        <time>2021-04-17T12:13:01Z</time>
      </trkpt>
      <trkpt lat="-25.6203840" lon="-49.0093230">
        <ele>929.4</ele>
        <time>2021-04-17T12:13:03Z</time>
      </trkpt>
      <trkpt lat="-25.6204460" lon="-49.0092410">
        <ele>929.4</ele>
        <time>2021-04-17T12:13:05Z</time>
      </trkpt>
      <trkpt lat="-25.6204720" lon="-49.0091970">
        <ele>929.6</ele>
        <time>2021-04-17T12:13:06Z</time>
      </trkpt>
      <trkpt lat="-25.6204960" lon="-49.0091510">
        <ele>929.6</ele>
        <time>2021-04-17T12:13:07Z</time>
      </trkpt>
      <trkpt lat="-25.6205350" lon="-49.0090560">
        <ele>930.0</ele>
        <time>2021-04-17T12:13:09Z</time>
      </trkpt>
      <trkpt lat="-25.6205730" lon="-49.0089600">
        <ele>930.2</ele>
        <time>2021-04-17T12:13:11Z</time>
      </trkpt>
      <trkpt lat="-25.6206120" lon="-49.0088700">
        <ele>930.4</ele>
        <time>2021-04-17T12:13:13Z</time>
      </trkpt>
      <trkpt lat="-25.6206500" lon="-49.0087780">
        <ele>930.4</ele>
        <time>2021-04-17T12:13:15Z</time>
      </trkpt>
      <trkpt lat="-25.6206890" lon="-49.0086870">
        <ele>930.6</ele>
        <time>2021-04-17T12:13:17Z</time>
      </trkpt>
      <trkpt lat="-25.6207240" lon="-49.0086050">
        <ele>930.8</ele>
        <time>2021-04-17T12:13:19Z</time>
      </trkpt>
      <trkpt lat="-25.6207440" lon="-49.0085680">
        <ele>930.8</ele>
        <time>2021-04-17T12:13:20Z</time>
      </trkpt>
      <trkpt lat="-25.6207640" lon="-49.0085280">
        <ele>930.8</ele>
        <time>2021-04-17T12:13:21Z</time>
      </trkpt>
      <trkpt lat="-25.6208050" lon="-49.0084480">
        <ele>931.0</ele>
        <time>2021-04-17T12:13:23Z</time>
      </trkpt>
      <trkpt lat="-25.6208480" lon="-49.0083630">
        <ele>931.2</ele>
        <time>2021-04-17T12:13:25Z</time>
      </trkpt>
      <trkpt lat="-25.6208910" lon="-49.0082730">
        <ele>931.4</ele>
        <time>2021-04-17T12:13:27Z</time>
      </trkpt>
      <trkpt lat="-25.6209340" lon="-49.0081820">
        <ele>931.6</ele>
        <time>2021-04-17T12:13:29Z</time>
      </trkpt>
      <trkpt lat="-25.6209770" lon="-49.0080940">
        <ele>931.8</ele>
        <time>2021-04-17T12:13:31Z</time>
      </trkpt>
      <trkpt lat="-25.6210180" lon="-49.0080170">
        <ele>931.8</ele>
        <time>2021-04-17T12:13:33Z</time>
      </trkpt>
      <trkpt lat="-25.6210570" lon="-49.0079430">
        <ele>931.8</ele>
        <time>2021-04-17T12:13:35Z</time>
      </trkpt>
      <trkpt lat="-25.6210940" lon="-49.0078710">
        <ele>932.0</ele>
        <time>2021-04-17T12:13:37Z</time>
      </trkpt>
      <trkpt lat="-25.6211280" lon="-49.0078010">
        <ele>932.0</ele>
        <time>2021-04-17T12:13:39Z</time>
      </trkpt>
      <trkpt lat="-25.6211590" lon="-49.0077330">
        <ele>932.0</ele>
        <time>2021-04-17T12:13:41Z</time>
      </trkpt>
      <trkpt lat="-25.6211900" lon="-49.0076650">
        <ele>932.2</ele>
        <time>2021-04-17T12:13:43Z</time>
      </trkpt>
      <trkpt lat="-25.6212070" lon="-49.0076310">
        <ele>932.2</ele>
        <time>2021-04-17T12:13:44Z</time>
      </trkpt>
      <trkpt lat="-25.6212240" lon="-49.0075950">
        <ele>932.4</ele>
        <time>2021-04-17T12:13:45Z</time>
      </trkpt>
      <trkpt lat="-25.6212600" lon="-49.0075200">
        <ele>932.6</ele>
        <time>2021-04-17T12:13:47Z</time>
      </trkpt>
      <trkpt lat="-25.6212990" lon="-49.0074390">
        <ele>933.0</ele>
        <time>2021-04-17T12:13:49Z</time>
      </trkpt>
      <trkpt lat="-25.6213320" lon="-49.0073540">
        <ele>933.0</ele>
        <time>2021-04-17T12:13:51Z</time>
      </trkpt>
      <trkpt lat="-25.6213490" lon="-49.0073100">
        <ele>933.0</ele>
        <time>2021-04-17T12:13:52Z</time>
      </trkpt>
      <trkpt lat="-25.6213680" lon="-49.0072680">
        <ele>933.0</ele>
        <time>2021-04-17T12:13:53Z</time>
      </trkpt>
      <trkpt lat="-25.6214030" lon="-49.0071800">
        <ele>933.0</ele>
        <time>2021-04-17T12:13:55Z</time>
      </trkpt>
      <trkpt lat="-25.6214390" lon="-49.0070880">
        <ele>933.0</ele>
        <time>2021-04-17T12:13:57Z</time>
      </trkpt>
      <trkpt lat="-25.6214580" lon="-49.0070450">
        <ele>933.0</ele>
        <time>2021-04-17T12:13:58Z</time>
      </trkpt>
      <trkpt lat="-25.6214810" lon="-49.0070070">
        <ele>933.0</ele>
        <time>2021-04-17T12:13:59Z</time>
      </trkpt>
      <trkpt lat="-25.6215310" lon="-49.0069300">
        <ele>933.0</ele>
        <time>2021-04-17T12:14:01Z</time>
      </trkpt>
      <trkpt lat="-25.6215850" lon="-49.0068440">
        <ele>932.8</ele>
        <time>2021-04-17T12:14:03Z</time>
      </trkpt>
      <trkpt lat="-25.6216450" lon="-49.0067600">
        <ele>932.6</ele>
        <time>2021-04-17T12:14:05Z</time>
      </trkpt>
      <trkpt lat="-25.6216730" lon="-49.0067190">
        <ele>932.4</ele>
        <time>2021-04-17T12:14:06Z</time>
      </trkpt>
      <trkpt lat="-25.6216990" lon="-49.0066780">
        <ele>932.4</ele>
        <time>2021-04-17T12:14:07Z</time>
      </trkpt>
      <trkpt lat="-25.6217250" lon="-49.0066400">
        <ele>932.2</ele>
        <time>2021-04-17T12:14:08Z</time>
      </trkpt>
      <trkpt lat="-25.6217520" lon="-49.0066010">
        <ele>932.0</ele>
        <time>2021-04-17T12:14:09Z</time>
      </trkpt>
      <trkpt lat="-25.6217800" lon="-49.0065600">
        <ele>932.0</ele>
        <time>2021-04-17T12:14:10Z</time>
      </trkpt>
      <trkpt lat="-25.6218120" lon="-49.0065190">
        <ele>932.0</ele>
        <time>2021-04-17T12:14:11Z</time>
      </trkpt>
      <trkpt lat="-25.6218870" lon="-49.0064380">
        <ele>931.8</ele>
        <time>2021-04-17T12:14:13Z</time>
      </trkpt>
      <trkpt lat="-25.6219620" lon="-49.0063550">
        <ele>931.8</ele>
        <time>2021-04-17T12:14:15Z</time>
      </trkpt>
      <trkpt lat="-25.6220290" lon="-49.0062630">
        <ele>931.6</ele>
        <time>2021-04-17T12:14:17Z</time>
      </trkpt>
      <trkpt lat="-25.6220630" lon="-49.0062150">
        <ele>931.2</ele>
        <time>2021-04-17T12:14:18Z</time>
      </trkpt>
      <trkpt lat="-25.6220950" lon="-49.0061610">
        <ele>931.0</ele>
        <time>2021-04-17T12:14:19Z</time>
      </trkpt>
      <trkpt lat="-25.6221560" lon="-49.0060500">
        <ele>930.2</ele>
        <time>2021-04-17T12:14:21Z</time>
      </trkpt>
      <trkpt lat="-25.6221850" lon="-49.0059960">
        <ele>930.0</ele>
        <time>2021-04-17T12:14:22Z</time>
      </trkpt>
      <trkpt lat="-25.6222130" lon="-49.0059460">
        <ele>929.8</ele>
        <time>2021-04-17T12:14:23Z</time>
      </trkpt>
      <trkpt lat="-25.6222400" lon="-49.0058960">
        <ele>929.6</ele>
        <time>2021-04-17T12:14:24Z</time>
      </trkpt>
      <trkpt lat="-25.6222670" lon="-49.0058460">
        <ele>929.2</ele>
        <time>2021-04-17T12:14:25Z</time>
      </trkpt>
      <trkpt lat="-25.6223220" lon="-49.0057470">
        <ele>929.0</ele>
        <time>2021-04-17T12:14:27Z</time>
      </trkpt>
      <trkpt lat="-25.6223770" lon="-49.0056480">
        <ele>929.0</ele>
        <time>2021-04-17T12:14:29Z</time>
      </trkpt>
      <trkpt lat="-25.6224280" lon="-49.0055540">
        <ele>929.0</ele>
        <time>2021-04-17T12:14:31Z</time>
      </trkpt>
      <trkpt lat="-25.6224710" lon="-49.0054680">
        <ele>929.0</ele>
        <time>2021-04-17T12:14:33Z</time>
      </trkpt>
      <trkpt lat="-25.6225080" lon="-49.0053870">
        <ele>929.0</ele>
        <time>2021-04-17T12:14:35Z</time>
      </trkpt>
      <trkpt lat="-25.6225440" lon="-49.0053100">
        <ele>929.0</ele>
        <time>2021-04-17T12:14:37Z</time>
      </trkpt>
      <trkpt lat="-25.6225810" lon="-49.0052270">
        <ele>929.0</ele>
        <time>2021-04-17T12:14:39Z</time>
      </trkpt>
      <trkpt lat="-25.6226210" lon="-49.0051410">
        <ele>929.4</ele>
        <time>2021-04-17T12:14:41Z</time>
      </trkpt>
      <trkpt lat="-25.6226580" lon="-49.0050560">
        <ele>930.0</ele>
        <time>2021-04-17T12:14:43Z</time>
      </trkpt>
      <trkpt lat="-25.6226970" lon="-49.0049760">
        <ele>930.2</ele>
        <time>2021-04-17T12:14:45Z</time>
      </trkpt>
      <trkpt lat="-25.6227410" lon="-49.0048990">
        <ele>930.4</ele>
        <time>2021-04-17T12:14:47Z</time>
      </trkpt>
      <trkpt lat="-25.6227910" lon="-49.0048240">
        <ele>930.4</ele>
        <time>2021-04-17T12:14:49Z</time>
      </trkpt>
      <trkpt lat="-25.6228520" lon="-49.0047480">
        <ele>930.4</ele>
        <time>2021-04-17T12:14:51Z</time>
      </trkpt>
      <trkpt lat="-25.6229170" lon="-49.0046780">
        <ele>930.2</ele>
        <time>2021-04-17T12:14:53Z</time>
      </trkpt>
      <trkpt lat="-25.6229810" lon="-49.0046090">
        <ele>930.2</ele>
        <time>2021-04-17T12:14:55Z</time>
      </trkpt>
      <trkpt lat="-25.6230330" lon="-49.0045310">
        <ele>930.0</ele>
        <time>2021-04-17T12:14:57Z</time>
      </trkpt>
      <trkpt lat="-25.6230790" lon="-49.0044510">
        <ele>930.0</ele>
        <time>2021-04-17T12:14:59Z</time>
      </trkpt>
      <trkpt lat="-25.6231160" lon="-49.0043710">
        <ele>929.8</ele>
        <time>2021-04-17T12:15:01Z</time>
      </trkpt>
      <trkpt lat="-25.6231380" lon="-49.0042800">
        <ele>929.8</ele>
        <time>2021-04-17T12:15:03Z</time>
      </trkpt>
      <trkpt lat="-25.6231430" lon="-49.0041880">
        <ele>929.8</ele>
        <time>2021-04-17T12:15:05Z</time>
      </trkpt>
      <trkpt lat="-25.6231320" lon="-49.0041030">
        <ele>929.8</ele>
        <time>2021-04-17T12:15:07Z</time>
      </trkpt>
      <trkpt lat="-25.6231010" lon="-49.0040200">
        <ele>929.8</ele>
        <time>2021-04-17T12:15:09Z</time>
      </trkpt>
      <trkpt lat="-25.6230790" lon="-49.0039840">
        <ele>929.8</ele>
        <time>2021-04-17T12:15:10Z</time>
      </trkpt>
      <trkpt lat="-25.6230540" lon="-49.0039520">
        <ele>929.8</ele>
        <time>2021-04-17T12:15:11Z</time>
      </trkpt>
      <trkpt lat="-25.6230270" lon="-49.0039230">
        <ele>929.8</ele>
        <time>2021-04-17T12:15:12Z</time>
      </trkpt>
      <trkpt lat="-25.6230030" lon="-49.0038940">
        <ele>929.8</ele>
        <time>2021-04-17T12:15:13Z</time>
      </trkpt>
      <trkpt lat="-25.6229560" lon="-49.0038450">
        <ele>930.0</ele>
        <time>2021-04-17T12:15:15Z</time>
      </trkpt>
      <trkpt lat="-25.6229320" lon="-49.0038250">
        <ele>930.0</ele>
        <time>2021-04-17T12:15:16Z</time>
      </trkpt>
      <trkpt lat="-25.6229090" lon="-49.0038050">
        <ele>930.2</ele>
        <time>2021-04-17T12:15:17Z</time>
      </trkpt>
      <trkpt lat="-25.6228720" lon="-49.0037700">
        <ele>930.4</ele>
        <time>2021-04-17T12:15:19Z</time>
      </trkpt>
      <trkpt lat="-25.6228390" lon="-49.0037370">
        <ele>930.4</ele>
        <time>2021-04-17T12:15:21Z</time>
      </trkpt>
      <trkpt lat="-25.6228100" lon="-49.0037090">
        <ele>930.8</ele>
        <time>2021-04-17T12:15:23Z</time>
      </trkpt>
      <trkpt lat="-25.6227930" lon="-49.0036960">
        <ele>931.0</ele>
        <time>2021-04-17T12:15:24Z</time>
      </trkpt>
      <trkpt lat="-25.6227790" lon="-49.0036810">
        <ele>931.2</ele>
        <time>2021-04-17T12:15:25Z</time>
      </trkpt>
      <trkpt lat="-25.6227530" lon="-49.0036480">
        <ele>931.8</ele>
        <time>2021-04-17T12:15:27Z</time>
      </trkpt>
      <trkpt lat="-25.6227400" lon="-49.0036300">
        <ele>932.0</ele>
        <time>2021-04-17T12:15:28Z</time>
      </trkpt>
      <trkpt lat="-25.6227290" lon="-49.0036120">
        <ele>932.4</ele>
        <time>2021-04-17T12:15:29Z</time>
      </trkpt>
      <trkpt lat="-25.6227100" lon="-49.0035720">
        <ele>933.0</ele>
        <time>2021-04-17T12:15:31Z</time>
      </trkpt>
      <trkpt lat="-25.6227010" lon="-49.0035530">
        <ele>933.2</ele>
        <time>2021-04-17T12:15:32Z</time>
      </trkpt>
      <trkpt lat="-25.6226940" lon="-49.0035340">
        <ele>933.4</ele>
        <time>2021-04-17T12:15:33Z</time>
      </trkpt>
      <trkpt lat="-25.6226860" lon="-49.0034960">
        <ele>934.0</ele>
        <time>2021-04-17T12:15:35Z</time>
      </trkpt>
      <trkpt lat="-25.6226920" lon="-49.0034610">
        <ele>934.4</ele>
        <time>2021-04-17T12:15:37Z</time>
      </trkpt>
      <trkpt lat="-25.6227010" lon="-49.0034290">
        <ele>934.8</ele>
        <time>2021-04-17T12:15:39Z</time>
      </trkpt>
      <trkpt lat="-25.6227120" lon="-49.0034080">
        <ele>935.2</ele>
        <time>2021-04-17T12:15:41Z</time>
      </trkpt>
      <trkpt lat="-25.6227190" lon="-49.0033850">
        <ele>935.6</ele>
        <time>2021-04-17T12:15:43Z</time>
      </trkpt>
      <trkpt lat="-25.6227280" lon="-49.0033560">
        <ele>935.8</ele>
        <time>2021-04-17T12:15:45Z</time>
      </trkpt>
      <trkpt lat="-25.6227350" lon="-49.0033260">
        <ele>936.2</ele>
        <time>2021-04-17T12:15:47Z</time>
      </trkpt>
      <trkpt lat="-25.6227450" lon="-49.0032940">
        <ele>936.6</ele>
        <time>2021-04-17T12:15:49Z</time>
      </trkpt>
      <trkpt lat="-25.6227530" lon="-49.0032790">
        <ele>936.8</ele>
        <time>2021-04-17T12:15:50Z</time>
      </trkpt>
      <trkpt lat="-25.6227560" lon="-49.0032640">
        <ele>937.0</ele>
        <time>2021-04-17T12:15:51Z</time>
      </trkpt>
      <trkpt lat="-25.6227640" lon="-49.0032290">
        <ele>937.4</ele>
        <time>2021-04-17T12:15:53Z</time>
      </trkpt>
      <trkpt lat="-25.6227760" lon="-49.0031910">
        <ele>937.8</ele>
        <time>2021-04-17T12:15:55Z</time>
      </trkpt>
      <trkpt lat="-25.6227840" lon="-49.0031510">
        <ele>938.0</ele>
        <time>2021-04-17T12:15:57Z</time>
      </trkpt>
      <trkpt lat="-25.6227930" lon="-49.0031130">
        <ele>938.4</ele>
        <time>2021-04-17T12:15:59Z</time>
      </trkpt>
      <trkpt lat="-25.6228010" lon="-49.0030760">
        <ele>938.6</ele>
        <time>2021-04-17T12:16:01Z</time>
      </trkpt>
      <trkpt lat="-25.6228060" lon="-49.0030400">
        <ele>939.0</ele>
        <time>2021-04-17T12:16:03Z</time>
      </trkpt>
      <trkpt lat="-25.6228120" lon="-49.0030070">
        <ele>939.4</ele>
        <time>2021-04-17T12:16:05Z</time>
      </trkpt>
      <trkpt lat="-25.6228130" lon="-49.0029900">
        <ele>939.6</ele>
        <time>2021-04-17T12:16:06Z</time>
      </trkpt>
      <trkpt lat="-25.6228160" lon="-49.0029720">
        <ele>939.6</ele>
        <time>2021-04-17T12:16:07Z</time>
      </trkpt>
      <trkpt lat="-25.6228220" lon="-49.0029370">
        <ele>940.0</ele>
        <time>2021-04-17T12:16:09Z</time>
      </trkpt>
      <trkpt lat="-25.6228210" lon="-49.0029190">
        <ele>940.0</ele>
        <time>2021-04-17T12:16:10Z</time>
      </trkpt>
      <trkpt lat="-25.6228210" lon="-49.0029030">
        <ele>940.2</ele>
        <time>2021-04-17T12:16:11Z</time>
      </trkpt>
      <trkpt lat="-25.6228260" lon="-49.0028730">
        <ele>940.6</ele>
        <time>2021-04-17T12:16:13Z</time>
      </trkpt>
      <trkpt lat="-25.6228310" lon="-49.0028440">
        <ele>941.0</ele>
        <time>2021-04-17T12:16:15Z</time>
      </trkpt>
      <trkpt lat="-25.6228340" lon="-49.0028290">
        <ele>941.2</ele>
        <time>2021-04-17T12:16:16Z</time>
      </trkpt>
      <trkpt lat="-25.6228350" lon="-49.0028140">
        <ele>941.4</ele>
        <time>2021-04-17T12:16:17Z</time>
      </trkpt>
      <trkpt lat="-25.6228360" lon="-49.0027990">
        <ele>941.8</ele>
        <time>2021-04-17T12:16:18Z</time>
      </trkpt>
      <trkpt lat="-25.6228390" lon="-49.0027840">
        <ele>942.0</ele>
        <time>2021-04-17T12:16:19Z</time>
      </trkpt>
      <trkpt lat="-25.6228430" lon="-49.0027690">
        <ele>942.2</ele>
        <time>2021-04-17T12:16:20Z</time>
      </trkpt>
      <trkpt lat="-25.6228480" lon="-49.0027540">
        <ele>942.6</ele>
        <time>2021-04-17T12:16:21Z</time>
      </trkpt>
      <trkpt lat="-25.6228540" lon="-49.0027280">
        <ele>943.0</ele>
        <time>2021-04-17T12:16:23Z</time>
      </trkpt>
      <trkpt lat="-25.6228570" lon="-49.0027140">
        <ele>943.4</ele>
        <time>2021-04-17T12:16:24Z</time>
      </trkpt>
      <trkpt lat="-25.6228610" lon="-49.0027000">
        <ele>943.8</ele>
        <time>2021-04-17T12:16:25Z</time>
      </trkpt>
      <trkpt lat="-25.6228670" lon="-49.0026880">
        <ele>943.8</ele>
        <time>2021-04-17T12:16:26Z</time>
      </trkpt>
      <trkpt lat="-25.6228710" lon="-49.0026730">
        <ele>944.0</ele>
        <time>2021-04-17T12:16:27Z</time>
      </trkpt>
      <trkpt lat="-25.6228740" lon="-49.0026450">
        <ele>944.4</ele>
        <time>2021-04-17T12:16:29Z</time>
      </trkpt>
      <trkpt lat="-25.6228790" lon="-49.0026160">
        <ele>945.0</ele>
        <time>2021-04-17T12:16:31Z</time>
      </trkpt>
      <trkpt lat="-25.6228830" lon="-49.0026010">
        <ele>945.4</ele>
        <time>2021-04-17T12:16:32Z</time>
      </trkpt>
      <trkpt lat="-25.6228880" lon="-49.0025850">
        <ele>945.6</ele>
        <time>2021-04-17T12:16:33Z</time>
      </trkpt>
      <trkpt lat="-25.6228980" lon="-49.0025550">
        <ele>946.2</ele>
        <time>2021-04-17T12:16:35Z</time>
      </trkpt>
      <trkpt lat="-25.6228960" lon="-49.0025250">
        <ele>946.4</ele>
        <time>2021-04-17T12:16:37Z</time>
      </trkpt>
      <trkpt lat="-25.6228990" lon="-49.0025110">
        <ele>946.8</ele>
        <time>2021-04-17T12:16:38Z</time>
      </trkpt>
      <trkpt lat="-25.6229030" lon="-49.0024990">
        <ele>947.0</ele>
        <time>2021-04-17T12:16:39Z</time>
      </trkpt>
      <trkpt lat="-25.6229150" lon="-49.0024720">
        <ele>947.4</ele>
        <time>2021-04-17T12:16:41Z</time>
      </trkpt>
      <trkpt lat="-25.6229250" lon="-49.0024450">
        <ele>948.0</ele>
        <time>2021-04-17T12:16:43Z</time>
      </trkpt>
      <trkpt lat="-25.6229320" lon="-49.0024170">
        <ele>948.2</ele>
        <time>2021-04-17T12:16:45Z</time>
      </trkpt>
      <trkpt lat="-25.6229390" lon="-49.0023880">
        <ele>948.6</ele>
        <time>2021-04-17T12:16:47Z</time>
      </trkpt>
      <trkpt lat="-25.6229430" lon="-49.0023730">
        <ele>948.8</ele>
        <time>2021-04-17T12:16:48Z</time>
      </trkpt>
      <trkpt lat="-25.6229460" lon="-49.0023580">
        <ele>949.0</ele>
        <time>2021-04-17T12:16:49Z</time>
      </trkpt>
      <trkpt lat="-25.6229540" lon="-49.0023270">
        <ele>949.4</ele>
        <time>2021-04-17T12:16:51Z</time>
      </trkpt>
      <trkpt lat="-25.6229630" lon="-49.0022970">
        <ele>949.6</ele>
        <time>2021-04-17T12:16:53Z</time>
      </trkpt>
      <trkpt lat="-25.6229670" lon="-49.0022650">
        <ele>950.0</ele>
        <time>2021-04-17T12:16:55Z</time>
      </trkpt>
      <trkpt lat="-25.6229700" lon="-49.0022500">
        <ele>950.2</ele>
        <time>2021-04-17T12:16:56Z</time>
      </trkpt>
      <trkpt lat="-25.6229720" lon="-49.0022350">
        <ele>950.4</ele>
        <time>2021-04-17T12:16:57Z</time>
      </trkpt>
      <trkpt lat="-25.6229740" lon="-49.0022200">
        <ele>950.4</ele>
        <time>2021-04-17T12:16:58Z</time>
      </trkpt>
      <trkpt lat="-25.6229740" lon="-49.0022040">
        <ele>950.6</ele>
        <time>2021-04-17T12:16:59Z</time>
      </trkpt>
      <trkpt lat="-25.6229750" lon="-49.0021730">
        <ele>951.0</ele>
        <time>2021-04-17T12:17:01Z</time>
      </trkpt>
      <trkpt lat="-25.6229760" lon="-49.0021410">
        <ele>951.2</ele>
        <time>2021-04-17T12:17:03Z</time>
      </trkpt>
      <trkpt lat="-25.6229720" lon="-49.0021080">
        <ele>951.4</ele>
        <time>2021-04-17T12:17:05Z</time>
      </trkpt>
      <trkpt lat="-25.6229650" lon="-49.0020750">
        <ele>951.6</ele>
        <time>2021-04-17T12:17:07Z</time>
      </trkpt>
      <trkpt lat="-25.6229600" lon="-49.0020590">
        <ele>951.8</ele>
        <time>2021-04-17T12:17:08Z</time>
      </trkpt>
      <trkpt lat="-25.6229540" lon="-49.0020430">
        <ele>951.8</ele>
        <time>2021-04-17T12:17:09Z</time>
      </trkpt>
      <trkpt lat="-25.6229410" lon="-49.0020120">
        <ele>952.4</ele>
        <time>2021-04-17T12:17:11Z</time>
      </trkpt>
      <trkpt lat="-25.6229250" lon="-49.0019800">
        <ele>952.6</ele>
        <time>2021-04-17T12:17:13Z</time>
      </trkpt>
      <trkpt lat="-25.6229020" lon="-49.0019510">
        <ele>952.8</ele>
        <time>2021-04-17T12:17:15Z</time>
      </trkpt>
      <trkpt lat="-25.6228770" lon="-49.0019220">
        <ele>953.0</ele>
        <time>2021-04-17T12:17:17Z</time>
      </trkpt>
      <trkpt lat="-25.6228530" lon="-49.0018940">
        <ele>953.4</ele>
        <time>2021-04-17T12:17:19Z</time>
      </trkpt>
      <trkpt lat="-25.6228290" lon="-49.0018680">
        <ele>954.0</ele>
        <time>2021-04-17T12:17:21Z</time>
      </trkpt>
      <trkpt lat="-25.6228020" lon="-49.0018470">
        <ele>954.4</ele>
        <time>2021-04-17T12:17:23Z</time>
      </trkpt>
      <trkpt lat="-25.6227870" lon="-49.0018390">
        <ele>954.6</ele>
        <time>2021-04-17T12:17:24Z</time>
      </trkpt>
      <trkpt lat="-25.6227730" lon="-49.0018310">
        <ele>954.8</ele>
        <time>2021-04-17T12:17:25Z</time>
      </trkpt>
      <trkpt lat="-25.6227520" lon="-49.0018110">
        <ele>955.4</ele>
        <time>2021-04-17T12:17:27Z</time>
      </trkpt>
      <trkpt lat="-25.6227450" lon="-49.0017970">
        <ele>955.8</ele>
        <time>2021-04-17T12:17:28Z</time>
      </trkpt>
      <trkpt lat="-25.6227370" lon="-49.0017850">
        <ele>956.0</ele>
        <time>2021-04-17T12:17:29Z</time>
      </trkpt>
      <trkpt lat="-25.6227190" lon="-49.0017590">
        <ele>956.6</ele>
        <time>2021-04-17T12:17:31Z</time>
      </trkpt>
      <trkpt lat="-25.6227090" lon="-49.0017460">
        <ele>956.8</ele>
        <time>2021-04-17T12:17:32Z</time>
      </trkpt>
      <trkpt lat="-25.6227020" lon="-49.0017320">
        <ele>957.2</ele>
        <time>2021-04-17T12:17:33Z</time>
      </trkpt>
      <trkpt lat="-25.6226870" lon="-49.0017070">
        <ele>957.4</ele>
        <time>2021-04-17T12:17:35Z</time>
      </trkpt>
      <trkpt lat="-25.6226720" lon="-49.0016820">
        <ele>958.0</ele>
        <time>2021-04-17T12:17:37Z</time>
      </trkpt>
      <trkpt lat="-25.6226610" lon="-49.0016500">
        <ele>958.4</ele>
        <time>2021-04-17T12:17:39Z</time>
      </trkpt>
      <trkpt lat="-25.6226480" lon="-49.0016210">
        <ele>958.6</ele>
        <time>2021-04-17T12:17:41Z</time>
      </trkpt>
      <trkpt lat="-25.6226320" lon="-49.0015910">
        <ele>958.8</ele>
        <time>2021-04-17T12:17:43Z</time>
      </trkpt>
      <trkpt lat="-25.6226250" lon="-49.0015590">
        <ele>958.8</ele>
        <time>2021-04-17T12:17:45Z</time>
      </trkpt>
      <trkpt lat="-25.6226190" lon="-49.0015250">
        <ele>958.8</ele>
        <time>2021-04-17T12:17:47Z</time>
      </trkpt>
      <trkpt lat="-25.6226150" lon="-49.0015070">
        <ele>959.0</ele>
        <time>2021-04-17T12:17:48Z</time>
      </trkpt>
      <trkpt lat="-25.6226110" lon="-49.0014880">
        <ele>959.2</ele>
        <time>2021-04-17T12:17:49Z</time>
      </trkpt>
      <trkpt lat="-25.6226000" lon="-49.0014470">
        <ele>959.2</ele>
        <time>2021-04-17T12:17:51Z</time>
      </trkpt>
      <trkpt lat="-25.6225940" lon="-49.0014090">
        <ele>959.4</ele>
        <time>2021-04-17T12:17:53Z</time>
      </trkpt>
      <trkpt lat="-25.6225880" lon="-49.0013700">
        <ele>959.4</ele>
        <time>2021-04-17T12:17:55Z</time>
      </trkpt>
      <trkpt lat="-25.6225760" lon="-49.0013310">
        <ele>959.6</ele>
        <time>2021-04-17T12:17:57Z</time>
      </trkpt>
      <trkpt lat="-25.6225660" lon="-49.0012930">
        <ele>959.8</ele>
        <time>2021-04-17T12:17:59Z</time>
      </trkpt>
      <trkpt lat="-25.6225560" lon="-49.0012560">
        <ele>960.0</ele>
        <time>2021-04-17T12:18:01Z</time>
      </trkpt>
      <trkpt lat="-25.6225530" lon="-49.0012370">
        <ele>960.2</ele>
        <time>2021-04-17T12:18:02Z</time>
      </trkpt>
      <trkpt lat="-25.6225500" lon="-49.0012180">
        <ele>960.4</ele>
        <time>2021-04-17T12:18:03Z</time>
      </trkpt>
      <trkpt lat="-25.6225520" lon="-49.0011790">
        <ele>960.6</ele>
        <time>2021-04-17T12:18:05Z</time>
      </trkpt>
      <trkpt lat="-25.6225500" lon="-49.0011410">
        <ele>961.0</ele>
        <time>2021-04-17T12:18:07Z</time>
      </trkpt>
      <trkpt lat="-25.6225500" lon="-49.0011040">
        <ele>961.4</ele>
        <time>2021-04-17T12:18:09Z</time>
      </trkpt>
      <trkpt lat="-25.6225490" lon="-49.0010680">
        <ele>962.2</ele>
        <time>2021-04-17T12:18:11Z</time>
      </trkpt>
      <trkpt lat="-25.6225450" lon="-49.0010340">
        <ele>962.4</ele>
        <time>2021-04-17T12:18:13Z</time>
      </trkpt>
      <trkpt lat="-25.6225370" lon="-49.0010000">
        <ele>963.2</ele>
        <time>2021-04-17T12:18:15Z</time>
      </trkpt>
      <trkpt lat="-25.6225300" lon="-49.0009850">
        <ele>963.4</ele>
        <time>2021-04-17T12:18:16Z</time>
      </trkpt>
      <trkpt lat="-25.6225180" lon="-49.0009700">
        <ele>963.6</ele>
        <time>2021-04-17T12:18:17Z</time>
      </trkpt>
      <trkpt lat="-25.6224790" lon="-49.0009450">
        <ele>964.2</ele>
        <time>2021-04-17T12:18:19Z</time>
      </trkpt>
      <trkpt lat="-25.6224150" lon="-49.0009500">
        <ele>964.4</ele>
        <time>2021-04-17T12:18:21Z</time>
      </trkpt>
      <trkpt lat="-25.6223770" lon="-49.0009670">
        <ele>964.6</ele>
        <time>2021-04-17T12:18:22Z</time>
      </trkpt>
      <trkpt lat="-25.6223350" lon="-49.0009900">
        <ele>964.6</ele>
        <time>2021-04-17T12:18:23Z</time>
      </trkpt>
      <trkpt lat="-25.6222280" lon="-49.0010440">
        <ele>964.6</ele>
        <time>2021-04-17T12:18:25Z</time>
      </trkpt>
      <trkpt lat="-25.6221610" lon="-49.0010710">
        <ele>964.6</ele>
        <time>2021-04-17T12:18:26Z</time>
      </trkpt>
      <trkpt lat="-25.6220860" lon="-49.0010950">
        <ele>964.6</ele>
        <time>2021-04-17T12:18:27Z</time>
      </trkpt>
      <trkpt lat="-25.6219120" lon="-49.0011380">
        <ele>964.6</ele>
        <time>2021-04-17T12:18:29Z</time>
      </trkpt>
      <trkpt lat="-25.6218170" lon="-49.0011610">
        <ele>964.6</ele>
        <time>2021-04-17T12:18:30Z</time>
      </trkpt>
      <trkpt lat="-25.6217140" lon="-49.0011880">
        <ele>964.4</ele>
        <time>2021-04-17T12:18:31Z</time>
      </trkpt>
      <trkpt lat="-25.6214900" lon="-49.0012310">
        <ele>963.6</ele>
        <time>2021-04-17T12:18:33Z</time>
      </trkpt>
      <trkpt lat="-25.6213730" lon="-49.0012480">
        <ele>962.8</ele>
        <time>2021-04-17T12:18:34Z</time>
      </trkpt>
      <trkpt lat="-25.6212600" lon="-49.0012600">
        <ele>962.2</ele>
        <time>2021-04-17T12:18:35Z</time>
      </trkpt>
      <trkpt lat="-25.6211490" lon="-49.0012640">
        <ele>961.6</ele>
        <time>2021-04-17T12:18:36Z</time>
      </trkpt>
      <trkpt lat="-25.6210450" lon="-49.0012650">
        <ele>961.2</ele>
        <time>2021-04-17T12:18:37Z</time>
      </trkpt>
      <trkpt lat="-25.6209470" lon="-49.0012630">
        <ele>960.6</ele>
        <time>2021-04-17T12:18:38Z</time>
      </trkpt>
      <trkpt lat="-25.6208560" lon="-49.0012610">
        <ele>960.4</ele>
        <time>2021-04-17T12:18:39Z</time>
      </trkpt>
      <trkpt lat="-25.6206990" lon="-49.0012570">
        <ele>960.2</ele>
        <time>2021-04-17T12:18:41Z</time>
      </trkpt>
      <trkpt lat="-25.6206260" lon="-49.0012570">
        <ele>960.0</ele>
        <time>2021-04-17T12:18:42Z</time>
      </trkpt>
      <trkpt lat="-25.6205610" lon="-49.0012580">
        <ele>960.0</ele>
        <time>2021-04-17T12:18:43Z</time>
      </trkpt>
      <trkpt lat="-25.6204530" lon="-49.0012620">
        <ele>960.0</ele>
        <time>2021-04-17T12:18:45Z</time>
      </trkpt>
      <trkpt lat="-25.6204130" lon="-49.0012640">
        <ele>960.0</ele>
        <time>2021-04-17T12:18:46Z</time>
      </trkpt>
      <trkpt lat="-25.6203800" lon="-49.0012680">
        <ele>961.0</ele>
        <time>2021-04-17T12:18:47Z</time>
      </trkpt>
      <trkpt lat="-25.6203320" lon="-49.0012740">
        <ele>962.4</ele>
        <time>2021-04-17T12:18:49Z</time>
      </trkpt>
      <trkpt lat="-25.6203120" lon="-49.0012770">
        <ele>963.0</ele>
        <time>2021-04-17T12:18:50Z</time>
      </trkpt>
      <trkpt lat="-25.6202960" lon="-49.0012810">
        <ele>963.6</ele>
        <time>2021-04-17T12:18:51Z</time>
      </trkpt>
      <trkpt lat="-25.6202650" lon="-49.0012900">
        <ele>965.2</ele>
        <time>2021-04-17T12:18:53Z</time>
      </trkpt>
      <trkpt lat="-25.6202340" lon="-49.0012990">
        <ele>966.4</ele>
        <time>2021-04-17T12:18:55Z</time>
      </trkpt>
      <trkpt lat="-25.6202050" lon="-49.0013050">
        <ele>967.2</ele>
        <time>2021-04-17T12:18:57Z</time>
      </trkpt>
      <trkpt lat="-25.6201910" lon="-49.0013100">
        <ele>967.6</ele>
        <time>2021-04-17T12:18:58Z</time>
      </trkpt>
      <trkpt lat="-25.6201780" lon="-49.0013170">
        <ele>967.8</ele>
        <time>2021-04-17T12:18:59Z</time>
      </trkpt>
      <trkpt lat="-25.6201630" lon="-49.0013250">
        <ele>968.0</ele>
        <time>2021-04-17T12:19:00Z</time>
      </trkpt>
      <trkpt lat="-25.6201500" lon="-49.0013340">
        <ele>968.4</ele>
        <time>2021-04-17T12:19:01Z</time>
      </trkpt>
      <trkpt lat="-25.6201360" lon="-49.0013430">
        <ele>968.6</ele>
        <time>2021-04-17T12:19:02Z</time>
      </trkpt>
      <trkpt lat="-25.6201220" lon="-49.0013500">
        <ele>968.6</ele>
        <time>2021-04-17T12:19:03Z</time>
      </trkpt>
      <trkpt lat="-25.6200940" lon="-49.0013630">
        <ele>969.2</ele>
        <time>2021-04-17T12:19:05Z</time>
      </trkpt>
      <trkpt lat="-25.6200650" lon="-49.0013720">
        <ele>969.6</ele>
        <time>2021-04-17T12:19:07Z</time>
      </trkpt>
      <trkpt lat="-25.6200510" lon="-49.0013760">
        <ele>969.8</ele>
        <time>2021-04-17T12:19:08Z</time>
      </trkpt>
      <trkpt lat="-25.6200370" lon="-49.0013810">
        <ele>970.0</ele>
        <time>2021-04-17T12:19:09Z</time>
      </trkpt>
      <trkpt lat="-25.6200110" lon="-49.0013890">
        <ele>970.2</ele>
        <time>2021-04-17T12:19:11Z</time>
      </trkpt>
      <trkpt lat="-25.6199970" lon="-49.0013930">
        <ele>970.6</ele>
        <time>2021-04-17T12:19:12Z</time>
      </trkpt>
      <trkpt lat="-25.6199830" lon="-49.0013980">
        <ele>970.8</ele>
        <time>2021-04-17T12:19:13Z</time>
      </trkpt>
      <trkpt lat="-25.6199550" lon="-49.0014040">
        <ele>971.0</ele>
        <time>2021-04-17T12:19:15Z</time>
      </trkpt>
      <trkpt lat="-25.6199270" lon="-49.0014100">
        <ele>971.6</ele>
        <time>2021-04-17T12:19:17Z</time>
      </trkpt>
      <trkpt lat="-25.6199110" lon="-49.0014120">
        <ele>971.6</ele>
        <time>2021-04-17T12:19:18Z</time>
      </trkpt>
      <trkpt lat="-25.6198980" lon="-49.0014160">
        <ele>971.6</ele>
        <time>2021-04-17T12:19:19Z</time>
      </trkpt>
      <trkpt lat="-25.6198680" lon="-49.0014220">
        <ele>972.2</ele>
        <time>2021-04-17T12:19:21Z</time>
      </trkpt>
      <trkpt lat="-25.6198390" lon="-49.0014240">
        <ele>972.8</ele>
        <time>2021-04-17T12:19:23Z</time>
      </trkpt>
      <trkpt lat="-25.6198120" lon="-49.0014280">
        <ele>973.2</ele>
        <time>2021-04-17T12:19:25Z</time>
      </trkpt>
      <trkpt lat="-25.6197970" lon="-49.0014300">
        <ele>973.6</ele>
        <time>2021-04-17T12:19:26Z</time>
      </trkpt>
      <trkpt lat="-25.6197820" lon="-49.0014310">
        <ele>973.8</ele>
        <time>2021-04-17T12:19:27Z</time>
      </trkpt>
      <trkpt lat="-25.6197530" lon="-49.0014300">
        <ele>974.2</ele>
        <time>2021-04-17T12:19:29Z</time>
      </trkpt>
      <trkpt lat="-25.6197240" lon="-49.0014300">
        <ele>974.6</ele>
        <time>2021-04-17T12:19:31Z</time>
      </trkpt>
      <trkpt lat="-25.6197090" lon="-49.0014310">
        <ele>974.8</ele>
        <time>2021-04-17T12:19:32Z</time>
      </trkpt>
      <trkpt lat="-25.6196940" lon="-49.0014320">
        <ele>975.2</ele>
        <time>2021-04-17T12:19:33Z</time>
      </trkpt>
      <trkpt lat="-25.6196640" lon="-49.0014330">
        <ele>975.8</ele>
        <time>2021-04-17T12:19:35Z</time>
      </trkpt>
      <trkpt lat="-25.6196490" lon="-49.0014330">
        <ele>975.8</ele>
        <time>2021-04-17T12:19:36Z</time>
      </trkpt>
      <trkpt lat="-25.6196330" lon="-49.0014300">
        <ele>976.0</ele>
        <time>2021-04-17T12:19:37Z</time>
      </trkpt>
      <trkpt lat="-25.6196080" lon="-49.0014200">
        <ele>976.4</ele>
        <time>2021-04-17T12:19:39Z</time>
      </trkpt>
      <trkpt lat="-25.6195790" lon="-49.0014140">
        <ele>976.8</ele>
        <time>2021-04-17T12:19:41Z</time>
      </trkpt>
      <trkpt lat="-25.6195650" lon="-49.0014110">
        <ele>977.0</ele>
        <time>2021-04-17T12:19:42Z</time>
      </trkpt>
      <trkpt lat="-25.6195510" lon="-49.0014070">
        <ele>977.2</ele>
        <time>2021-04-17T12:19:43Z</time>
      </trkpt>
      <trkpt lat="-25.6195220" lon="-49.0013970">
        <ele>977.6</ele>
        <time>2021-04-17T12:19:45Z</time>
      </trkpt>
      <trkpt lat="-25.6194950" lon="-49.0013850">
        <ele>978.0</ele>
        <time>2021-04-17T12:19:47Z</time>
      </trkpt>
      <trkpt lat="-25.6194670" lon="-49.0013690">
        <ele>978.4</ele>
        <time>2021-04-17T12:19:49Z</time>
      </trkpt>
      <trkpt lat="-25.6194370" lon="-49.0013510">
        <ele>978.6</ele>
        <time>2021-04-17T12:19:51Z</time>
      </trkpt>
      <trkpt lat="-25.6194070" lon="-49.0013330">
        <ele>979.0</ele>
        <time>2021-04-17T12:19:53Z</time>
      </trkpt>
      <trkpt lat="-25.6193820" lon="-49.0013080">
        <ele>979.2</ele>
        <time>2021-04-17T12:19:55Z</time>
      </trkpt>
      <trkpt lat="-25.6193520" lon="-49.0012880">
        <ele>979.2</ele>
        <time>2021-04-17T12:19:57Z</time>
      </trkpt>
      <trkpt lat="-25.6193370" lon="-49.0012770">
        <ele>979.2</ele>
        <time>2021-04-17T12:19:58Z</time>
      </trkpt>
      <trkpt lat="-25.6193220" lon="-49.0012670">
        <ele>979.4</ele>
        <time>2021-04-17T12:19:59Z</time>
      </trkpt>
      <trkpt lat="-25.6193070" lon="-49.0012570">
        <ele>979.4</ele>
        <time>2021-04-17T12:20:00Z</time>
      </trkpt>
      <trkpt lat="-25.6192930" lon="-49.0012490">
        <ele>979.4</ele>
        <time>2021-04-17T12:20:01Z</time>
      </trkpt>
      <trkpt lat="-25.6192630" lon="-49.0012340">
        <ele>979.6</ele>
        <time>2021-04-17T12:20:03Z</time>
      </trkpt>
      <trkpt lat="-25.6192340" lon="-49.0012140">
        <ele>979.8</ele>
        <time>2021-04-17T12:20:05Z</time>
      </trkpt>
      <trkpt lat="-25.6192200" lon="-49.0012030">
        <ele>979.8</ele>
        <time>2021-04-17T12:20:06Z</time>
      </trkpt>
      <trkpt lat="-25.6192040" lon="-49.0011910">
        <ele>979.8</ele>
        <time>2021-04-17T12:20:07Z</time>
      </trkpt>
      <trkpt lat="-25.6191670" lon="-49.0011560">
        <ele>980.0</ele>
        <time>2021-04-17T12:20:09Z</time>
      </trkpt>
      <trkpt lat="-25.6191270" lon="-49.0010950">
        <ele>980.0</ele>
        <time>2021-04-17T12:20:11Z</time>
      </trkpt>
      <trkpt lat="-25.6190880" lon="-49.0010060">
        <ele>980.0</ele>
        <time>2021-04-17T12:20:13Z</time>
      </trkpt>
      <trkpt lat="-25.6190500" lon="-49.0008980">
        <ele>980.0</ele>
        <time>2021-04-17T12:20:15Z</time>
      </trkpt>
      <trkpt lat="-25.6190290" lon="-49.0008340">
        <ele>980.0</ele>
        <time>2021-04-17T12:20:16Z</time>
      </trkpt>
      <trkpt lat="-25.6190040" lon="-49.0007610">
        <ele>980.0</ele>
        <time>2021-04-17T12:20:17Z</time>
      </trkpt>
      <trkpt lat="-25.6189360" lon="-49.0006000">
        <ele>979.6</ele>
        <time>2021-04-17T12:20:19Z</time>
      </trkpt>
      <trkpt lat="-25.6188900" lon="-49.0005520">
        <ele>979.4</ele>
        <time>2021-04-17T12:20:20Z</time>
      </trkpt>
      <trkpt lat="-25.6188430" lon="-49.0005050">
        <ele>979.0</ele>
        <time>2021-04-17T12:20:21Z</time>
      </trkpt>
      <trkpt lat="-25.6187490" lon="-49.0004100">
        <ele>978.6</ele>
        <time>2021-04-17T12:20:22Z</time>
      </trkpt>
      <trkpt lat="-25.6186680" lon="-49.0003640">
        <ele>978.2</ele>
        <time>2021-04-17T12:20:23Z</time>
      </trkpt>
      <trkpt lat="-25.6184870" lon="-49.0002740">
        <ele>976.6</ele>
        <time>2021-04-17T12:20:25Z</time>
      </trkpt>
      <trkpt lat="-25.6183870" lon="-49.0002280">
        <ele>975.6</ele>
        <time>2021-04-17T12:20:26Z</time>
      </trkpt>
      <trkpt lat="-25.6182770" lon="-49.0001800">
        <ele>974.6</ele>
        <time>2021-04-17T12:20:27Z</time>
      </trkpt>
      <trkpt lat="-25.6181580" lon="-49.0001210">
        <ele>973.8</ele>
        <time>2021-04-17T12:20:28Z</time>
      </trkpt>
      <trkpt lat="-25.6180360" lon="-49.0000590">
        <ele>973.4</ele>
        <time>2021-04-17T12:20:29Z</time>
      </trkpt>
      <trkpt lat="-25.6179140" lon="-48.9999980">
        <ele>972.8</ele>
        <time>2021-04-17T12:20:30Z</time>
      </trkpt>
      <trkpt lat="-25.6177920" lon="-48.9999430">
        <ele>971.6</ele>
        <time>2021-04-17T12:20:31Z</time>
      </trkpt>
      <trkpt lat="-25.6176700" lon="-48.9999020">
        <ele>971.0</ele>
        <time>2021-04-17T12:20:32Z</time>
      </trkpt>
      <trkpt lat="-25.6175450" lon="-48.9998780">
        <ele>970.0</ele>
        <time>2021-04-17T12:20:33Z</time>
      </trkpt>
      <trkpt lat="-25.6174210" lon="-48.9998690">
        <ele>969.0</ele>
        <time>2021-04-17T12:20:34Z</time>
      </trkpt>
      <trkpt lat="-25.6173020" lon="-48.9998690">
        <ele>967.4</ele>
        <time>2021-04-17T12:20:35Z</time>
      </trkpt>
      <trkpt lat="-25.6171880" lon="-48.9998750">
        <ele>965.4</ele>
        <time>2021-04-17T12:20:36Z</time>
      </trkpt>
      <trkpt lat="-25.6170780" lon="-48.9998830">
        <ele>964.0</ele>
        <time>2021-04-17T12:20:37Z</time>
      </trkpt>
      <trkpt lat="-25.6169720" lon="-48.9998860">
        <ele>962.6</ele>
        <time>2021-04-17T12:20:38Z</time>
      </trkpt>
      <trkpt lat="-25.6168700" lon="-48.9998850">
        <ele>960.4</ele>
        <time>2021-04-17T12:20:39Z</time>
      </trkpt>
      <trkpt lat="-25.6167730" lon="-48.9998820">
        <ele>959.0</ele>
        <time>2021-04-17T12:20:40Z</time>
      </trkpt>
      <trkpt lat="-25.6166800" lon="-48.9998740">
        <ele>958.2</ele>
        <time>2021-04-17T12:20:41Z</time>
      </trkpt>
      <trkpt lat="-25.6165910" lon="-48.9998660">
        <ele>957.4</ele>
        <time>2021-04-17T12:20:42Z</time>
      </trkpt>
      <trkpt lat="-25.6165050" lon="-48.9998600">
        <ele>957.0</ele>
        <time>2021-04-17T12:20:43Z</time>
      </trkpt>
      <trkpt lat="-25.6163460" lon="-48.9998520">
        <ele>956.4</ele>
        <time>2021-04-17T12:20:45Z</time>
      </trkpt>
      <trkpt lat="-25.6162740" lon="-48.9998500">
        <ele>956.2</ele>
        <time>2021-04-17T12:20:46Z</time>
      </trkpt>
      <trkpt lat="-25.6162070" lon="-48.9998470">
        <ele>956.0</ele>
        <time>2021-04-17T12:20:47Z</time>
      </trkpt>
      <trkpt lat="-25.6160880" lon="-48.9998430">
        <ele>955.8</ele>
        <time>2021-04-17T12:20:49Z</time>
      </trkpt>
      <trkpt lat="-25.6160360" lon="-48.9998480">
        <ele>955.8</ele>
        <time>2021-04-17T12:20:50Z</time>
      </trkpt>
      <trkpt lat="-25.6159880" lon="-48.9998560">
        <ele>955.8</ele>
        <time>2021-04-17T12:20:51Z</time>
      </trkpt>
      <trkpt lat="-25.6159440" lon="-48.9998600">
        <ele>955.8</ele>
        <time>2021-04-17T12:20:52Z</time>
      </trkpt>
      <trkpt lat="-25.6159070" lon="-48.9998610">
        <ele>955.8</ele>
        <time>2021-04-17T12:20:53Z</time>
      </trkpt>
      <trkpt lat="-25.6158760" lon="-48.9998580">
        <ele>955.8</ele>
        <time>2021-04-17T12:20:54Z</time>
      </trkpt>
      <trkpt lat="-25.6158530" lon="-48.9998560">
        <ele>955.8</ele>
        <time>2021-04-17T12:20:55Z</time>
      </trkpt>
      <trkpt lat="-25.6158530" lon="-48.9998560">
        <ele>955.8</ele>
        <time>2021-04-17T12:20:56Z</time>
      </trkpt>
      <trkpt lat="-25.6158340" lon="-48.9998570">
        <ele>956.0</ele>
        <time>2021-04-17T12:20:57Z</time>
      </trkpt>
      <trkpt lat="-25.6158360" lon="-48.9998560">
        <ele>956.0</ele>
        <time>2021-04-17T12:20:58Z</time>
      </trkpt>
      <trkpt lat="-25.6158380" lon="-48.9998560">
        <ele>956.0</ele>
        <time>2021-04-17T12:20:59Z</time>
      </trkpt>
      <trkpt lat="-25.6158400" lon="-48.9998540">
        <ele>956.0</ele>
        <time>2021-04-17T12:21:01Z</time>
      </trkpt>
      <trkpt lat="-25.6158410" lon="-48.9998540">
        <ele>956.0</ele>
        <time>2021-04-17T12:21:03Z</time>
      </trkpt>
      <trkpt lat="-25.6158410" lon="-48.9998540">
        <ele>956.0</ele>
        <time>2021-04-17T12:21:05Z</time>
      </trkpt>
      <trkpt lat="-25.6158410" lon="-48.9998540">
        <ele>956.0</ele>
        <time>2021-04-17T12:21:07Z</time>
      </trkpt>
      <trkpt lat="-25.6158410" lon="-48.9998540">
        <ele>956.0</ele>
        <time>2021-04-17T12:21:09Z</time>
      </trkpt>
      <trkpt lat="-25.6158410" lon="-48.9998540">
        <ele>956.0</ele>
        <time>2021-04-17T12:21:11Z</time>
      </trkpt>
      <trkpt lat="-25.6158300" lon="-48.9998490">
        <ele>956.0</ele>
        <time>2021-04-17T12:21:13Z</time>
      </trkpt>
      <trkpt lat="-25.6158150" lon="-48.9998440">
        <ele>956.0</ele>
        <time>2021-04-17T12:21:14Z</time>
      </trkpt>
      <trkpt lat="-25.6157930" lon="-48.9998340">
        <ele>956.0</ele>
        <time>2021-04-17T12:21:15Z</time>
      </trkpt>
      <trkpt lat="-25.6157380" lon="-48.9998050">
        <ele>956.0</ele>
        <time>2021-04-17T12:21:17Z</time>
      </trkpt>
      <trkpt lat="-25.6157030" lon="-48.9997890">
        <ele>956.0</ele>
        <time>2021-04-17T12:21:18Z</time>
      </trkpt>
      <trkpt lat="-25.6156630" lon="-48.9997680">
        <ele>955.8</ele>
        <time>2021-04-17T12:21:19Z</time>
      </trkpt>
      <trkpt lat="-25.6155750" lon="-48.9997110">
        <ele>955.8</ele>
        <time>2021-04-17T12:21:21Z</time>
      </trkpt>
      <trkpt lat="-25.6155250" lon="-48.9996800">
        <ele>955.8</ele>
        <time>2021-04-17T12:21:22Z</time>
      </trkpt>
      <trkpt lat="-25.6154740" lon="-48.9996460">
        <ele>955.8</ele>
        <time>2021-04-17T12:21:23Z</time>
      </trkpt>
      <trkpt lat="-25.6153730" lon="-48.9995760">
        <ele>955.8</ele>
        <time>2021-04-17T12:21:25Z</time>
      </trkpt>
      <trkpt lat="-25.6152760" lon="-48.9995140">
        <ele>955.2</ele>
        <time>2021-04-17T12:21:27Z</time>
      </trkpt>
      <trkpt lat="-25.6151870" lon="-48.9994590">
        <ele>954.2</ele>
        <time>2021-04-17T12:21:29Z</time>
      </trkpt>
      <trkpt lat="-25.6151090" lon="-48.9994080">
        <ele>953.6</ele>
        <time>2021-04-17T12:21:31Z</time>
      </trkpt>
      <trkpt lat="-25.6150340" lon="-48.9993650">
        <ele>953.4</ele>
        <time>2021-04-17T12:21:33Z</time>
      </trkpt>
      <trkpt lat="-25.6149630" lon="-48.9993250">
        <ele>953.4</ele>
        <time>2021-04-17T12:21:35Z</time>
      </trkpt>
      <trkpt lat="-25.6148970" lon="-48.9992920">
        <ele>953.4</ele>
        <time>2021-04-17T12:21:37Z</time>
      </trkpt>
      <trkpt lat="-25.6148340" lon="-48.9992740">
        <ele>953.4</ele>
        <time>2021-04-17T12:21:39Z</time>
      </trkpt>
      <trkpt lat="-25.6147750" lon="-48.9992600">
        <ele>953.6</ele>
        <time>2021-04-17T12:21:41Z</time>
      </trkpt>
      <trkpt lat="-25.6147220" lon="-48.9992560">
        <ele>954.0</ele>
        <time>2021-04-17T12:21:43Z</time>
      </trkpt>
      <trkpt lat="-25.6146700" lon="-48.9992580">
        <ele>954.2</ele>
        <time>2021-04-17T12:21:45Z</time>
      </trkpt>
      <trkpt lat="-25.6146220" lon="-48.9992630">
        <ele>954.8</ele>
        <time>2021-04-17T12:21:47Z</time>
      </trkpt>
      <trkpt lat="-25.6145780" lon="-48.9992740">
        <ele>955.6</ele>
        <time>2021-04-17T12:21:49Z</time>
      </trkpt>
      <trkpt lat="-25.6145280" lon="-48.9992780">
        <ele>956.2</ele>
        <time>2021-04-17T12:21:51Z</time>
      </trkpt>
      <trkpt lat="-25.6144750" lon="-48.9992860">
        <ele>956.6</ele>
        <time>2021-04-17T12:21:53Z</time>
      </trkpt>
      <trkpt lat="-25.6144480" lon="-48.9992910">
        <ele>957.0</ele>
        <time>2021-04-17T12:21:54Z</time>
      </trkpt>
      <trkpt lat="-25.6144220" lon="-48.9992960">
        <ele>957.2</ele>
        <time>2021-04-17T12:21:55Z</time>
      </trkpt>
      <trkpt lat="-25.6143720" lon="-48.9993070">
        <ele>957.8</ele>
        <time>2021-04-17T12:21:57Z</time>
      </trkpt>
      <trkpt lat="-25.6143250" lon="-48.9993200">
        <ele>958.0</ele>
        <time>2021-04-17T12:21:59Z</time>
      </trkpt>
      <trkpt lat="-25.6142800" lon="-48.9993290">
        <ele>958.6</ele>
        <time>2021-04-17T12:22:01Z</time>
      </trkpt>
      <trkpt lat="-25.6142580" lon="-48.9993340">
        <ele>958.8</ele>
        <time>2021-04-17T12:22:02Z</time>
      </trkpt>
      <trkpt lat="-25.6142350" lon="-48.9993400">
        <ele>959.0</ele>
        <time>2021-04-17T12:22:03Z</time>
      </trkpt>
      <trkpt lat="-25.6141950" lon="-48.9993470">
        <ele>959.4</ele>
        <time>2021-04-17T12:22:05Z</time>
      </trkpt>
      <trkpt lat="-25.6141550" lon="-48.9993580">
        <ele>959.8</ele>
        <time>2021-04-17T12:22:07Z</time>
      </trkpt>
      <trkpt lat="-25.6141120" lon="-48.9993690">
        <ele>960.2</ele>
        <time>2021-04-17T12:22:09Z</time>
      </trkpt>
      <trkpt lat="-25.6140700" lon="-48.9993790">
        <ele>960.4</ele>
        <time>2021-04-17T12:22:11Z</time>
      </trkpt>
      <trkpt lat="-25.6140300" lon="-48.9993880">
        <ele>960.6</ele>
        <time>2021-04-17T12:22:13Z</time>
      </trkpt>
      <trkpt lat="-25.6139910" lon="-48.9993960">
        <ele>961.0</ele>
        <time>2021-04-17T12:22:15Z</time>
      </trkpt>
      <trkpt lat="-25.6139510" lon="-48.9994050">
        <ele>961.4</ele>
        <time>2021-04-17T12:22:17Z</time>
      </trkpt>
      <trkpt lat="-25.6139150" lon="-48.9994120">
        <ele>961.8</ele>
        <time>2021-04-17T12:22:19Z</time>
      </trkpt>
      <trkpt lat="-25.6138800" lon="-48.9994200">
        <ele>962.0</ele>
        <time>2021-04-17T12:22:21Z</time>
      </trkpt>
      <trkpt lat="-25.6138440" lon="-48.9994250">
        <ele>962.4</ele>
        <time>2021-04-17T12:22:23Z</time>
      </trkpt>
      <trkpt lat="-25.6138280" lon="-48.9994280">
        <ele>962.4</ele>
        <time>2021-04-17T12:22:24Z</time>
      </trkpt>
      <trkpt lat="-25.6138110" lon="-48.9994310">
        <ele>962.6</ele>
        <time>2021-04-17T12:22:25Z</time>
      </trkpt>
      <trkpt lat="-25.6137760" lon="-48.9994340">
        <ele>963.0</ele>
        <time>2021-04-17T12:22:27Z</time>
      </trkpt>
      <trkpt lat="-25.6137570" lon="-48.9994370">
        <ele>963.2</ele>
        <time>2021-04-17T12:22:28Z</time>
      </trkpt>
      <trkpt lat="-25.6137370" lon="-48.9994410">
        <ele>963.4</ele>
        <time>2021-04-17T12:22:29Z</time>
      </trkpt>
      <trkpt lat="-25.6136980" lon="-48.9994490">
        <ele>963.8</ele>
        <time>2021-04-17T12:22:31Z</time>
      </trkpt>
      <trkpt lat="-25.6136770" lon="-48.9994530">
        <ele>964.0</ele>
        <time>2021-04-17T12:22:32Z</time>
      </trkpt>
      <trkpt lat="-25.6136580" lon="-48.9994560">
        <ele>964.4</ele>
        <time>2021-04-17T12:22:33Z</time>
      </trkpt>
      <trkpt lat="-25.6136230" lon="-48.9994670">
        <ele>965.0</ele>
        <time>2021-04-17T12:22:35Z</time>
      </trkpt>
      <trkpt lat="-25.6135850" lon="-48.9994730">
        <ele>965.4</ele>
        <time>2021-04-17T12:22:37Z</time>
      </trkpt>
      <trkpt lat="-25.6135660" lon="-48.9994750">
        <ele>965.6</ele>
        <time>2021-04-17T12:22:38Z</time>
      </trkpt>
      <trkpt lat="-25.6135490" lon="-48.9994780">
        <ele>965.8</ele>
        <time>2021-04-17T12:22:39Z</time>
      </trkpt>
      <trkpt lat="-25.6135130" lon="-48.9994870">
        <ele>966.4</ele>
        <time>2021-04-17T12:22:41Z</time>
      </trkpt>
      <trkpt lat="-25.6134790" lon="-48.9994970">
        <ele>967.0</ele>
        <time>2021-04-17T12:22:43Z</time>
      </trkpt>
      <trkpt lat="-25.6134460" lon="-48.9995130">
        <ele>967.6</ele>
        <time>2021-04-17T12:22:45Z</time>
      </trkpt>
      <trkpt lat="-25.6134300" lon="-48.9995200">
        <ele>967.8</ele>
        <time>2021-04-17T12:22:46Z</time>
      </trkpt>
      <trkpt lat="-25.6134120" lon="-48.9995270">
        <ele>968.0</ele>
        <time>2021-04-17T12:22:47Z</time>
      </trkpt>
      <trkpt lat="-25.6133760" lon="-48.9995410">
        <ele>968.4</ele>
        <time>2021-04-17T12:22:49Z</time>
      </trkpt>
      <trkpt lat="-25.6133410" lon="-48.9995560">
        <ele>968.8</ele>
        <time>2021-04-17T12:22:51Z</time>
      </trkpt>
      <trkpt lat="-25.6133050" lon="-48.9995720">
        <ele>969.0</ele>
        <time>2021-04-17T12:22:53Z</time>
      </trkpt>
      <trkpt lat="-25.6132700" lon="-48.9995890">
        <ele>969.4</ele>
        <time>2021-04-17T12:22:55Z</time>
      </trkpt>
      <trkpt lat="-25.6132360" lon="-48.9996070">
        <ele>969.6</ele>
        <time>2021-04-17T12:22:57Z</time>
      </trkpt>
      <trkpt lat="-25.6132020" lon="-48.9996230">
        <ele>969.6</ele>
        <time>2021-04-17T12:22:59Z</time>
      </trkpt>
      <trkpt lat="-25.6131690" lon="-48.9996400">
        <ele>970.0</ele>
        <time>2021-04-17T12:23:01Z</time>
      </trkpt>
      <trkpt lat="-25.6131350" lon="-48.9996580">
        <ele>970.2</ele>
        <time>2021-04-17T12:23:03Z</time>
      </trkpt>
      <trkpt lat="-25.6131180" lon="-48.9996670">
        <ele>970.2</ele>
        <time>2021-04-17T12:23:04Z</time>
      </trkpt>
      <trkpt lat="-25.6131000" lon="-48.9996740">
        <ele>970.2</ele>
        <time>2021-04-17T12:23:05Z</time>
      </trkpt>
      <trkpt lat="-25.6130810" lon="-48.9996790">
        <ele>970.6</ele>
        <time>2021-04-17T12:23:06Z</time>
      </trkpt>
      <trkpt lat="-25.6130640" lon="-48.9996850">
        <ele>970.6</ele>
        <time>2021-04-17T12:23:07Z</time>
      </trkpt>
      <trkpt lat="-25.6130300" lon="-48.9997000">
        <ele>971.0</ele>
        <time>2021-04-17T12:23:09Z</time>
      </trkpt>
      <trkpt lat="-25.6129980" lon="-48.9997100">
        <ele>971.0</ele>
        <time>2021-04-17T12:23:11Z</time>
      </trkpt>
      <trkpt lat="-25.6129650" lon="-48.9997270">
        <ele>971.4</ele>
        <time>2021-04-17T12:23:13Z</time>
      </trkpt>
      <trkpt lat="-25.6129350" lon="-48.9997360">
        <ele>971.6</ele>
        <time>2021-04-17T12:23:15Z</time>
      </trkpt>
      <trkpt lat="-25.6129030" lon="-48.9997500">
        <ele>972.2</ele>
        <time>2021-04-17T12:23:17Z</time>
      </trkpt>
      <trkpt lat="-25.6128740" lon="-48.9997610">
        <ele>972.2</ele>
        <time>2021-04-17T12:23:19Z</time>
      </trkpt>
      <trkpt lat="-25.6128410" lon="-48.9997650">
        <ele>972.8</ele>
        <time>2021-04-17T12:23:21Z</time>
      </trkpt>
      <trkpt lat="-25.6127950" lon="-48.9997710">
        <ele>973.2</ele>
        <time>2021-04-17T12:23:23Z</time>
      </trkpt>
      <trkpt lat="-25.6127590" lon="-48.9997780">
        <ele>973.8</ele>
        <time>2021-04-17T12:23:25Z</time>
      </trkpt>
      <trkpt lat="-25.6127420" lon="-48.9997800">
        <ele>974.0</ele>
        <time>2021-04-17T12:23:26Z</time>
      </trkpt>
      <trkpt lat="-25.6127250" lon="-48.9997860">
        <ele>974.4</ele>
        <time>2021-04-17T12:23:27Z</time>
      </trkpt>
      <trkpt lat="-25.6126920" lon="-48.9997920">
        <ele>974.8</ele>
        <time>2021-04-17T12:23:29Z</time>
      </trkpt>
      <trkpt lat="-25.6126760" lon="-48.9997900">
        <ele>975.0</ele>
        <time>2021-04-17T12:23:30Z</time>
      </trkpt>
      <trkpt lat="-25.6126610" lon="-48.9997870">
        <ele>975.2</ele>
        <time>2021-04-17T12:23:31Z</time>
      </trkpt>
      <trkpt lat="-25.6126290" lon="-48.9997820">
        <ele>975.8</ele>
        <time>2021-04-17T12:23:33Z</time>
      </trkpt>
      <trkpt lat="-25.6126140" lon="-48.9997760">
        <ele>976.0</ele>
        <time>2021-04-17T12:23:34Z</time>
      </trkpt>
      <trkpt lat="-25.6125980" lon="-48.9997740">
        <ele>976.2</ele>
        <time>2021-04-17T12:23:35Z</time>
      </trkpt>
      <trkpt lat="-25.6125650" lon="-48.9997640">
        <ele>976.6</ele>
        <time>2021-04-17T12:23:37Z</time>
      </trkpt>
      <trkpt lat="-25.6125330" lon="-48.9997490">
        <ele>976.8</ele>
        <time>2021-04-17T12:23:39Z</time>
      </trkpt>
      <trkpt lat="-25.6125180" lon="-48.9997370">
        <ele>977.0</ele>
        <time>2021-04-17T12:23:40Z</time>
      </trkpt>
      <trkpt lat="-25.6125040" lon="-48.9997240">
        <ele>977.2</ele>
        <time>2021-04-17T12:23:41Z</time>
      </trkpt>
      <trkpt lat="-25.6124710" lon="-48.9997000">
        <ele>977.6</ele>
        <time>2021-04-17T12:23:43Z</time>
      </trkpt>
      <trkpt lat="-25.6124390" lon="-48.9996730">
        <ele>977.6</ele>
        <time>2021-04-17T12:23:45Z</time>
      </trkpt>
      <trkpt lat="-25.6124080" lon="-48.9996430">
        <ele>978.0</ele>
        <time>2021-04-17T12:23:47Z</time>
      </trkpt>
      <trkpt lat="-25.6123900" lon="-48.9996270">
        <ele>978.0</ele>
        <time>2021-04-17T12:23:48Z</time>
      </trkpt>
      <trkpt lat="-25.6123740" lon="-48.9996080">
        <ele>978.2</ele>
        <time>2021-04-17T12:23:49Z</time>
      </trkpt>
      <trkpt lat="-25.6123430" lon="-48.9995760">
        <ele>978.2</ele>
        <time>2021-04-17T12:23:51Z</time>
      </trkpt>
      <trkpt lat="-25.6123190" lon="-48.9995440">
        <ele>978.4</ele>
        <time>2021-04-17T12:23:53Z</time>
      </trkpt>
      <trkpt lat="-25.6122900" lon="-48.9995120">
        <ele>978.4</ele>
        <time>2021-04-17T12:23:55Z</time>
      </trkpt>
      <trkpt lat="-25.6122590" lon="-48.9994770">
        <ele>978.6</ele>
        <time>2021-04-17T12:23:57Z</time>
      </trkpt>
      <trkpt lat="-25.6122210" lon="-48.9994310">
        <ele>978.6</ele>
        <time>2021-04-17T12:23:59Z</time>
      </trkpt>
      <trkpt lat="-25.6121980" lon="-48.9994040">
        <ele>978.6</ele>
        <time>2021-04-17T12:24:00Z</time>
      </trkpt>
      <trkpt lat="-25.6121720" lon="-48.9993740">
        <ele>978.6</ele>
        <time>2021-04-17T12:24:01Z</time>
      </trkpt>
      <trkpt lat="-25.6121110" lon="-48.9993090">
        <ele>978.6</ele>
        <time>2021-04-17T12:24:03Z</time>
      </trkpt>
      <trkpt lat="-25.6120750" lon="-48.9992790">
        <ele>978.6</ele>
        <time>2021-04-17T12:24:04Z</time>
      </trkpt>
      <trkpt lat="-25.6120390" lon="-48.9992520">
        <ele>978.6</ele>
        <time>2021-04-17T12:24:05Z</time>
      </trkpt>
      <trkpt lat="-25.6120020" lon="-48.9992310">
        <ele>978.6</ele>
        <time>2021-04-17T12:24:06Z</time>
      </trkpt>
      <trkpt lat="-25.6119630" lon="-48.9992170">
        <ele>978.6</ele>
        <time>2021-04-17T12:24:07Z</time>
      </trkpt>
      <trkpt lat="-25.6118740" lon="-48.9992000">
        <ele>978.4</ele>
        <time>2021-04-17T12:24:09Z</time>
      </trkpt>
      <trkpt lat="-25.6117740" lon="-48.9991970">
        <ele>977.8</ele>
        <time>2021-04-17T12:24:11Z</time>
      </trkpt>
      <trkpt lat="-25.6116640" lon="-48.9991940">
        <ele>977.4</ele>
        <time>2021-04-17T12:24:13Z</time>
      </trkpt>
      <trkpt lat="-25.6116030" lon="-48.9991880">
        <ele>977.2</ele>
        <time>2021-04-17T12:24:14Z</time>
      </trkpt>
      <trkpt lat="-25.6115430" lon="-48.9991730">
        <ele>977.0</ele>
        <time>2021-04-17T12:24:15Z</time>
      </trkpt>
      <trkpt lat="-25.6114800" lon="-48.9991540">
        <ele>976.8</ele>
        <time>2021-04-17T12:24:16Z</time>
      </trkpt>
      <trkpt lat="-25.6114170" lon="-48.9991280">
        <ele>976.4</ele>
        <time>2021-04-17T12:24:17Z</time>
      </trkpt>
      <trkpt lat="-25.6112900" lon="-48.9990640">
        <ele>975.0</ele>
        <time>2021-04-17T12:24:19Z</time>
      </trkpt>
      <trkpt lat="-25.6111620" lon="-48.9990020">
        <ele>974.0</ele>
        <time>2021-04-17T12:24:21Z</time>
      </trkpt>
      <trkpt lat="-25.6110390" lon="-48.9989480">
        <ele>972.4</ele>
        <time>2021-04-17T12:24:23Z</time>
      </trkpt>
      <trkpt lat="-25.6109820" lon="-48.9989220">
        <ele>971.8</ele>
        <time>2021-04-17T12:24:24Z</time>
      </trkpt>
      <trkpt lat="-25.6109040" lon="-48.9989010">
        <ele>971.4</ele>
        <time>2021-04-17T12:24:25Z</time>
      </trkpt>
      <trkpt lat="-25.6108190" lon="-48.9988770">
        <ele>971.0</ele>
        <time>2021-04-17T12:24:26Z</time>
      </trkpt>
      <trkpt lat="-25.6107370" lon="-48.9988410">
        <ele>970.4</ele>
        <time>2021-04-17T12:24:27Z</time>
      </trkpt>
      <trkpt lat="-25.6105920" lon="-48.9987190">
        <ele>969.2</ele>
        <time>2021-04-17T12:24:29Z</time>
      </trkpt>
      <trkpt lat="-25.6104680" lon="-48.9985790">
        <ele>968.6</ele>
        <time>2021-04-17T12:24:31Z</time>
      </trkpt>
      <trkpt lat="-25.6104240" lon="-48.9985280">
        <ele>968.2</ele>
        <time>2021-04-17T12:24:32Z</time>
      </trkpt>
      <trkpt lat="-25.6103790" lon="-48.9984770">
        <ele>967.4</ele>
        <time>2021-04-17T12:24:33Z</time>
      </trkpt>
      <trkpt lat="-25.6102890" lon="-48.9983750">
        <ele>966.6</ele>
        <time>2021-04-17T12:24:34Z</time>
      </trkpt>
      <trkpt lat="-25.6102270" lon="-48.9983200">
        <ele>965.6</ele>
        <time>2021-04-17T12:24:35Z</time>
      </trkpt>
      <trkpt lat="-25.6101660" lon="-48.9982750">
        <ele>964.8</ele>
        <time>2021-04-17T12:24:36Z</time>
      </trkpt>
      <trkpt lat="-25.6101090" lon="-48.9982370">
        <ele>964.2</ele>
        <time>2021-04-17T12:24:37Z</time>
      </trkpt>
      <trkpt lat="-25.6100730" lon="-48.9982210">
        <ele>963.8</ele>
        <time>2021-04-17T12:24:38Z</time>
      </trkpt>
      <trkpt lat="-25.6100370" lon="-48.9982050">
        <ele>963.2</ele>
        <time>2021-04-17T12:24:39Z</time>
      </trkpt>
      <trkpt lat="-25.6098920" lon="-48.9981410">
        <ele>963.0</ele>
        <time>2021-04-17T12:24:41Z</time>
      </trkpt>
      <trkpt lat="-25.6098030" lon="-48.9981100">
        <ele>963.0</ele>
        <time>2021-04-17T12:24:43Z</time>
      </trkpt>
      <trkpt lat="-25.6097620" lon="-48.9980970">
        <ele>963.0</ele>
        <time>2021-04-17T12:24:44Z</time>
      </trkpt>
      <trkpt lat="-25.6097230" lon="-48.9980840">
        <ele>963.0</ele>
        <time>2021-04-17T12:24:45Z</time>
      </trkpt>
      <trkpt lat="-25.6096500" lon="-48.9980570">
        <ele>963.0</ele>
        <time>2021-04-17T12:24:47Z</time>
      </trkpt>
      <trkpt lat="-25.6095830" lon="-48.9980300">
        <ele>963.2</ele>
        <time>2021-04-17T12:24:49Z</time>
      </trkpt>
      <trkpt lat="-25.6095170" lon="-48.9980090">
        <ele>963.6</ele>
        <time>2021-04-17T12:24:51Z</time>
      </trkpt>
      <trkpt lat="-25.6094840" lon="-48.9980000">
        <ele>964.0</ele>
        <time>2021-04-17T12:24:52Z</time>
      </trkpt>
      <trkpt lat="-25.6094530" lon="-48.9979920">
        <ele>964.2</ele>
        <time>2021-04-17T12:24:53Z</time>
      </trkpt>
      <trkpt lat="-25.6094230" lon="-48.9979850">
        <ele>964.6</ele>
        <time>2021-04-17T12:24:54Z</time>
      </trkpt>
      <trkpt lat="-25.6093940" lon="-48.9979800">
        <ele>965.0</ele>
        <time>2021-04-17T12:24:55Z</time>
      </trkpt>
      <trkpt lat="-25.6093350" lon="-48.9979720">
        <ele>965.4</ele>
        <time>2021-04-17T12:24:57Z</time>
      </trkpt>
      <trkpt lat="-25.6093090" lon="-48.9979720">
        <ele>965.6</ele>
        <time>2021-04-17T12:24:58Z</time>
      </trkpt>
      <trkpt lat="-25.6092830" lon="-48.9979730">
        <ele>966.0</ele>
        <time>2021-04-17T12:24:59Z</time>
      </trkpt>
      <trkpt lat="-25.6092280" lon="-48.9979860">
        <ele>966.8</ele>
        <time>2021-04-17T12:25:01Z</time>
      </trkpt>
      <trkpt lat="-25.6091730" lon="-48.9980010">
        <ele>967.2</ele>
        <time>2021-04-17T12:25:03Z</time>
      </trkpt>
      <trkpt lat="-25.6091460" lon="-48.9980100">
        <ele>967.4</ele>
        <time>2021-04-17T12:25:04Z</time>
      </trkpt>
      <trkpt lat="-25.6091220" lon="-48.9980190">
        <ele>967.4</ele>
        <time>2021-04-17T12:25:05Z</time>
      </trkpt>
      <trkpt lat="-25.6090980" lon="-48.9980270">
        <ele>968.0</ele>
        <time>2021-04-17T12:25:06Z</time>
      </trkpt>
      <trkpt lat="-25.6090760" lon="-48.9980370">
        <ele>968.0</ele>
        <time>2021-04-17T12:25:07Z</time>
      </trkpt>
      <trkpt lat="-25.6090320" lon="-48.9980480">
        <ele>968.4</ele>
        <time>2021-04-17T12:25:09Z</time>
      </trkpt>
      <trkpt lat="-25.6090070" lon="-48.9980530">
        <ele>968.6</ele>
        <time>2021-04-17T12:25:10Z</time>
      </trkpt>
      <trkpt lat="-25.6089790" lon="-48.9980570">
        <ele>969.0</ele>
        <time>2021-04-17T12:25:11Z</time>
      </trkpt>
      <trkpt lat="-25.6089210" lon="-48.9980680">
        <ele>969.2</ele>
        <time>2021-04-17T12:25:13Z</time>
      </trkpt>
      <trkpt lat="-25.6088490" lon="-48.9980870">
        <ele>969.4</ele>
        <time>2021-04-17T12:25:15Z</time>
      </trkpt>
      <trkpt lat="-25.6088050" lon="-48.9981040">
        <ele>969.4</ele>
        <time>2021-04-17T12:25:16Z</time>
      </trkpt>
      <trkpt lat="-25.6087610" lon="-48.9981260">
        <ele>969.4</ele>
        <time>2021-04-17T12:25:17Z</time>
      </trkpt>
      <trkpt lat="-25.6086890" lon="-48.9981940">
        <ele>969.4</ele>
        <time>2021-04-17T12:25:19Z</time>
      </trkpt>
      <trkpt lat="-25.6086590" lon="-48.9982380">
        <ele>969.4</ele>
        <time>2021-04-17T12:25:20Z</time>
      </trkpt>
      <trkpt lat="-25.6086320" lon="-48.9982830">
        <ele>969.4</ele>
        <time>2021-04-17T12:25:21Z</time>
      </trkpt>
      <trkpt lat="-25.6085950" lon="-48.9983750">
        <ele>969.4</ele>
        <time>2021-04-17T12:25:23Z</time>
      </trkpt>
      <trkpt lat="-25.6085770" lon="-48.9984210">
        <ele>969.4</ele>
        <time>2021-04-17T12:25:24Z</time>
      </trkpt>
      <trkpt lat="-25.6085630" lon="-48.9984640">
        <ele>969.2</ele>
        <time>2021-04-17T12:25:25Z</time>
      </trkpt>
      <trkpt lat="-25.6085340" lon="-48.9985590">
        <ele>969.2</ele>
        <time>2021-04-17T12:25:27Z</time>
      </trkpt>
      <trkpt lat="-25.6084970" lon="-48.9986560">
        <ele>969.0</ele>
        <time>2021-04-17T12:25:29Z</time>
      </trkpt>
      <trkpt lat="-25.6084490" lon="-48.9987630">
        <ele>968.8</ele>
        <time>2021-04-17T12:25:31Z</time>
      </trkpt>
      <trkpt lat="-25.6084170" lon="-48.9988160">
        <ele>968.8</ele>
        <time>2021-04-17T12:25:32Z</time>
      </trkpt>
      <trkpt lat="-25.6083870" lon="-48.9988740">
        <ele>968.8</ele>
        <time>2021-04-17T12:25:33Z</time>
      </trkpt>
      <trkpt lat="-25.6083270" lon="-48.9989910">
        <ele>968.6</ele>
        <time>2021-04-17T12:25:35Z</time>
      </trkpt>
      <trkpt lat="-25.6082680" lon="-48.9991070">
        <ele>968.6</ele>
        <time>2021-04-17T12:25:37Z</time>
      </trkpt>
      <trkpt lat="-25.6082140" lon="-48.9992210">
        <ele>968.4</ele>
        <time>2021-04-17T12:25:39Z</time>
      </trkpt>
      <trkpt lat="-25.6081870" lon="-48.9992760">
        <ele>968.6</ele>
        <time>2021-04-17T12:25:40Z</time>
      </trkpt>
      <trkpt lat="-25.6081600" lon="-48.9993290">
        <ele>968.6</ele>
        <time>2021-04-17T12:25:41Z</time>
      </trkpt>
      <trkpt lat="-25.6081090" lon="-48.9994210">
        <ele>968.6</ele>
        <time>2021-04-17T12:25:43Z</time>
      </trkpt>
      <trkpt lat="-25.6080610" lon="-48.9994980">
        <ele>968.6</ele>
        <time>2021-04-17T12:25:45Z</time>
      </trkpt>
      <trkpt lat="-25.6080010" lon="-48.9995770">
        <ele>968.6</ele>
        <time>2021-04-17T12:25:47Z</time>
      </trkpt>
      <trkpt lat="-25.6079290" lon="-48.9996640">
        <ele>968.6</ele>
        <time>2021-04-17T12:25:49Z</time>
      </trkpt>
      <trkpt lat="-25.6078920" lon="-48.9997110">
        <ele>968.6</ele>
        <time>2021-04-17T12:25:50Z</time>
      </trkpt>
      <trkpt lat="-25.6078530" lon="-48.9997610">
        <ele>968.6</ele>
        <time>2021-04-17T12:25:51Z</time>
      </trkpt>
      <trkpt lat="-25.6077680" lon="-48.9998610">
        <ele>968.6</ele>
        <time>2021-04-17T12:25:53Z</time>
      </trkpt>
      <trkpt lat="-25.6076750" lon="-48.9999630">
        <ele>968.6</ele>
        <time>2021-04-17T12:25:55Z</time>
      </trkpt>
      <trkpt lat="-25.6076240" lon="-49.0000130">
        <ele>968.6</ele>
        <time>2021-04-17T12:25:56Z</time>
      </trkpt>
      <trkpt lat="-25.6075730" lon="-49.0000650">
        <ele>968.6</ele>
        <time>2021-04-17T12:25:57Z</time>
      </trkpt>
      <trkpt lat="-25.6074670" lon="-49.0001710">
        <ele>968.6</ele>
        <time>2021-04-17T12:25:59Z</time>
      </trkpt>
      <trkpt lat="-25.6073570" lon="-49.0002840">
        <ele>968.2</ele>
        <time>2021-04-17T12:26:01Z</time>
      </trkpt>
      <trkpt lat="-25.6073000" lon="-49.0003410">
        <ele>967.8</ele>
        <time>2021-04-17T12:26:02Z</time>
      </trkpt>
      <trkpt lat="-25.6072420" lon="-49.0003940">
        <ele>967.6</ele>
        <time>2021-04-17T12:26:03Z</time>
      </trkpt>
      <trkpt lat="-25.6071230" lon="-49.0004920">
        <ele>967.4</ele>
        <time>2021-04-17T12:26:05Z</time>
      </trkpt>
      <trkpt lat="-25.6070050" lon="-49.0005690">
        <ele>967.0</ele>
        <time>2021-04-17T12:26:07Z</time>
      </trkpt>
      <trkpt lat="-25.6069460" lon="-49.0005980">
        <ele>967.0</ele>
        <time>2021-04-17T12:26:08Z</time>
      </trkpt>
      <trkpt lat="-25.6068870" lon="-49.0006250">
        <ele>966.6</ele>
        <time>2021-04-17T12:26:09Z</time>
      </trkpt>
      <trkpt lat="-25.6067720" lon="-49.0006670">
        <ele>966.4</ele>
        <time>2021-04-17T12:26:11Z</time>
      </trkpt>
      <trkpt lat="-25.6066550" lon="-49.0007000">
        <ele>966.4</ele>
        <time>2021-04-17T12:26:13Z</time>
      </trkpt>
      <trkpt lat="-25.6065940" lon="-49.0007120">
        <ele>966.4</ele>
        <time>2021-04-17T12:26:14Z</time>
      </trkpt>
      <trkpt lat="-25.6065310" lon="-49.0007170">
        <ele>966.2</ele>
        <time>2021-04-17T12:26:15Z</time>
      </trkpt>
      <trkpt lat="-25.6064070" lon="-49.0006910">
        <ele>966.2</ele>
        <time>2021-04-17T12:26:17Z</time>
      </trkpt>
      <trkpt lat="-25.6062830" lon="-49.0006520">
        <ele>966.2</ele>
        <time>2021-04-17T12:26:19Z</time>
      </trkpt>
      <trkpt lat="-25.6061710" lon="-49.0006220">
        <ele>966.2</ele>
        <time>2021-04-17T12:26:21Z</time>
      </trkpt>
      <trkpt lat="-25.6060690" lon="-49.0006050">
        <ele>966.4</ele>
        <time>2021-04-17T12:26:23Z</time>
      </trkpt>
      <trkpt lat="-25.6059690" lon="-49.0005990">
        <ele>966.6</ele>
        <time>2021-04-17T12:26:25Z</time>
      </trkpt>
      <trkpt lat="-25.6058680" lon="-49.0006010">
        <ele>966.8</ele>
        <time>2021-04-17T12:26:27Z</time>
      </trkpt>
      <trkpt lat="-25.6057590" lon="-49.0006130">
        <ele>967.0</ele>
        <time>2021-04-17T12:26:29Z</time>
      </trkpt>
      <trkpt lat="-25.6056480" lon="-49.0006310">
        <ele>967.2</ele>
        <time>2021-04-17T12:26:31Z</time>
      </trkpt>
      <trkpt lat="-25.6055450" lon="-49.0006580">
        <ele>967.6</ele>
        <time>2021-04-17T12:26:33Z</time>
      </trkpt>
      <trkpt lat="-25.6054470" lon="-49.0006920">
        <ele>968.0</ele>
        <time>2021-04-17T12:26:35Z</time>
      </trkpt>
      <trkpt lat="-25.6053540" lon="-49.0007350">
        <ele>968.2</ele>
        <time>2021-04-17T12:26:37Z</time>
      </trkpt>
      <trkpt lat="-25.6052760" lon="-49.0007720">
        <ele>968.4</ele>
        <time>2021-04-17T12:26:39Z</time>
      </trkpt>
      <trkpt lat="-25.6052060" lon="-49.0008060">
        <ele>968.4</ele>
        <time>2021-04-17T12:26:41Z</time>
      </trkpt>
      <trkpt lat="-25.6051430" lon="-49.0008440">
        <ele>968.6</ele>
        <time>2021-04-17T12:26:43Z</time>
      </trkpt>
      <trkpt lat="-25.6051160" lon="-49.0008620">
        <ele>968.8</ele>
        <time>2021-04-17T12:26:44Z</time>
      </trkpt>
      <trkpt lat="-25.6050890" lon="-49.0008780">
        <ele>969.0</ele>
        <time>2021-04-17T12:26:45Z</time>
      </trkpt>
      <trkpt lat="-25.6050320" lon="-49.0009070">
        <ele>969.4</ele>
        <time>2021-04-17T12:26:47Z</time>
      </trkpt>
      <trkpt lat="-25.6049640" lon="-49.0009320">
        <ele>970.0</ele>
        <time>2021-04-17T12:26:49Z</time>
      </trkpt>
      <trkpt lat="-25.6048720" lon="-49.0009500">
        <ele>970.6</ele>
        <time>2021-04-17T12:26:51Z</time>
      </trkpt>
      <trkpt lat="-25.6048140" lon="-49.0009580">
        <ele>970.6</ele>
        <time>2021-04-17T12:26:52Z</time>
      </trkpt>
      <trkpt lat="-25.6047490" lon="-49.0009670">
        <ele>970.6</ele>
        <time>2021-04-17T12:26:53Z</time>
      </trkpt>
      <trkpt lat="-25.6046080" lon="-49.0009810">
        <ele>970.6</ele>
        <time>2021-04-17T12:26:55Z</time>
      </trkpt>
      <trkpt lat="-25.6045340" lon="-49.0009810">
        <ele>970.6</ele>
        <time>2021-04-17T12:26:56Z</time>
      </trkpt>
      <trkpt lat="-25.6044610" lon="-49.0009780">
        <ele>970.6</ele>
        <time>2021-04-17T12:26:57Z</time>
      </trkpt>
      <trkpt lat="-25.6043240" lon="-49.0009620">
        <ele>970.6</ele>
        <time>2021-04-17T12:26:59Z</time>
      </trkpt>
      <trkpt lat="-25.6041890" lon="-49.0009480">
        <ele>970.0</ele>
        <time>2021-04-17T12:27:01Z</time>
      </trkpt>
      <trkpt lat="-25.6040540" lon="-49.0009390">
        <ele>969.2</ele>
        <time>2021-04-17T12:27:03Z</time>
      </trkpt>
      <trkpt lat="-25.6039230" lon="-49.0009440">
        <ele>969.0</ele>
        <time>2021-04-17T12:27:05Z</time>
      </trkpt>
      <trkpt lat="-25.6038580" lon="-49.0009530">
        <ele>968.8</ele>
        <time>2021-04-17T12:27:06Z</time>
      </trkpt>
      <trkpt lat="-25.6037960" lon="-49.0009710">
        <ele>968.6</ele>
        <time>2021-04-17T12:27:07Z</time>
      </trkpt>
      <trkpt lat="-25.6036850" lon="-49.0010400">
        <ele>968.6</ele>
        <time>2021-04-17T12:27:09Z</time>
      </trkpt>
      <trkpt lat="-25.6036290" lon="-49.0010820">
        <ele>968.6</ele>
        <time>2021-04-17T12:27:10Z</time>
      </trkpt>
      <trkpt lat="-25.6035690" lon="-49.0011260">
        <ele>968.6</ele>
        <time>2021-04-17T12:27:11Z</time>
      </trkpt>
      <trkpt lat="-25.6034290" lon="-49.0012080">
        <ele>968.4</ele>
        <time>2021-04-17T12:27:13Z</time>
      </trkpt>
      <trkpt lat="-25.6032620" lon="-49.0012600">
        <ele>968.4</ele>
        <time>2021-04-17T12:27:15Z</time>
      </trkpt>
      <trkpt lat="-25.6030770" lon="-49.0012660">
        <ele>968.2</ele>
        <time>2021-04-17T12:27:17Z</time>
      </trkpt>
      <trkpt lat="-25.6029800" lon="-49.0012530">
        <ele>968.0</ele>
        <time>2021-04-17T12:27:18Z</time>
      </trkpt>
      <trkpt lat="-25.6028880" lon="-49.0012350">
        <ele>967.8</ele>
        <time>2021-04-17T12:27:19Z</time>
      </trkpt>
      <trkpt lat="-25.6027170" lon="-49.0011940">
        <ele>966.6</ele>
        <time>2021-04-17T12:27:21Z</time>
      </trkpt>
      <trkpt lat="-25.6025570" lon="-49.0011430">
        <ele>965.6</ele>
        <time>2021-04-17T12:27:23Z</time>
      </trkpt>
      <trkpt lat="-25.6024190" lon="-49.0010340">
        <ele>964.2</ele>
        <time>2021-04-17T12:27:25Z</time>
      </trkpt>
      <trkpt lat="-25.6023870" lon="-49.0009780">
        <ele>963.8</ele>
        <time>2021-04-17T12:27:26Z</time>
      </trkpt>
      <trkpt lat="-25.6023540" lon="-49.0009230">
        <ele>963.0</ele>
        <time>2021-04-17T12:27:27Z</time>
      </trkpt>
      <trkpt lat="-25.6022240" lon="-49.0007020">
        <ele>960.8</ele>
        <time>2021-04-17T12:27:29Z</time>
      </trkpt>
      <trkpt lat="-25.6021320" lon="-49.0005410">
        <ele>960.2</ele>
        <time>2021-04-17T12:27:31Z</time>
      </trkpt>
      <trkpt lat="-25.6020720" lon="-49.0004650">
        <ele>959.8</ele>
        <time>2021-04-17T12:27:32Z</time>
      </trkpt>
      <trkpt lat="-25.6020030" lon="-49.0003920">
        <ele>959.4</ele>
        <time>2021-04-17T12:27:33Z</time>
      </trkpt>
      <trkpt lat="-25.6018400" lon="-49.0002620">
        <ele>958.6</ele>
        <time>2021-04-17T12:27:35Z</time>
      </trkpt>
      <trkpt lat="-25.6016620" lon="-49.0001470">
        <ele>957.6</ele>
        <time>2021-04-17T12:27:37Z</time>
      </trkpt>
      <trkpt lat="-25.6015750" lon="-49.0000960">
        <ele>956.8</ele>
        <time>2021-04-17T12:27:38Z</time>
      </trkpt>
      <trkpt lat="-25.6014960" lon="-49.0000480">
        <ele>955.8</ele>
        <time>2021-04-17T12:27:39Z</time>
      </trkpt>
      <trkpt lat="-25.6014280" lon="-49.0000020">
        <ele>954.4</ele>
        <time>2021-04-17T12:27:40Z</time>
      </trkpt>
      <trkpt lat="-25.6013740" lon="-48.9999560">
        <ele>953.8</ele>
        <time>2021-04-17T12:27:41Z</time>
      </trkpt>
      <trkpt lat="-25.6013300" lon="-48.9999120">
        <ele>953.4</ele>
        <time>2021-04-17T12:27:42Z</time>
      </trkpt>
      <trkpt lat="-25.6012930" lon="-48.9998720">
        <ele>953.2</ele>
        <time>2021-04-17T12:27:43Z</time>
      </trkpt>
      <trkpt lat="-25.6012340" lon="-48.9998010">
        <ele>953.0</ele>
        <time>2021-04-17T12:27:45Z</time>
      </trkpt>
      <trkpt lat="-25.6012060" lon="-48.9997710">
        <ele>953.0</ele>
        <time>2021-04-17T12:27:46Z</time>
      </trkpt>
      <trkpt lat="-25.6011790" lon="-48.9997430">
        <ele>953.0</ele>
        <time>2021-04-17T12:27:47Z</time>
      </trkpt>
      <trkpt lat="-25.6011260" lon="-48.9996890">
        <ele>953.0</ele>
        <time>2021-04-17T12:27:49Z</time>
      </trkpt>
      <trkpt lat="-25.6010770" lon="-48.9996400">
        <ele>953.4</ele>
        <time>2021-04-17T12:27:51Z</time>
      </trkpt>
      <trkpt lat="-25.6010510" lon="-48.9996190">
        <ele>953.8</ele>
        <time>2021-04-17T12:27:52Z</time>
      </trkpt>
      <trkpt lat="-25.6010260" lon="-48.9995970">
        <ele>954.4</ele>
        <time>2021-04-17T12:27:53Z</time>
      </trkpt>
      <trkpt lat="-25.6010050" lon="-48.9995760">
        <ele>955.0</ele>
        <time>2021-04-17T12:27:54Z</time>
      </trkpt>
      <trkpt lat="-25.6009840" lon="-48.9995570">
        <ele>955.4</ele>
        <time>2021-04-17T12:27:55Z</time>
      </trkpt>
      <trkpt lat="-25.6009640" lon="-48.9995400">
        <ele>956.0</ele>
        <time>2021-04-17T12:27:56Z</time>
      </trkpt>
      <trkpt lat="-25.6009410" lon="-48.9995270">
        <ele>956.4</ele>
        <time>2021-04-17T12:27:57Z</time>
      </trkpt>
      <trkpt lat="-25.6009180" lon="-48.9995140">
        <ele>956.6</ele>
        <time>2021-04-17T12:27:58Z</time>
      </trkpt>
      <trkpt lat="-25.6008960" lon="-48.9995010">
        <ele>957.0</ele>
        <time>2021-04-17T12:27:59Z</time>
      </trkpt>
      <trkpt lat="-25.6008740" lon="-48.9994900">
        <ele>957.2</ele>
        <time>2021-04-17T12:28:00Z</time>
      </trkpt>
      <trkpt lat="-25.6008520" lon="-48.9994820">
        <ele>957.6</ele>
        <time>2021-04-17T12:28:01Z</time>
      </trkpt>
      <trkpt lat="-25.6008130" lon="-48.9994680">
        <ele>958.2</ele>
        <time>2021-04-17T12:28:03Z</time>
      </trkpt>
      <trkpt lat="-25.6007950" lon="-48.9994630">
        <ele>958.6</ele>
        <time>2021-04-17T12:28:04Z</time>
      </trkpt>
      <trkpt lat="-25.6007780" lon="-48.9994590">
        <ele>958.6</ele>
        <time>2021-04-17T12:28:05Z</time>
      </trkpt>
      <trkpt lat="-25.6007420" lon="-48.9994540">
        <ele>959.2</ele>
        <time>2021-04-17T12:28:07Z</time>
      </trkpt>
      <trkpt lat="-25.6007060" lon="-48.9994510">
        <ele>959.6</ele>
        <time>2021-04-17T12:28:09Z</time>
      </trkpt>
      <trkpt lat="-25.6006720" lon="-48.9994490">
        <ele>960.0</ele>
        <time>2021-04-17T12:28:11Z</time>
      </trkpt>
      <trkpt lat="-25.6006410" lon="-48.9994460">
        <ele>960.4</ele>
        <time>2021-04-17T12:28:13Z</time>
      </trkpt>
      <trkpt lat="-25.6006070" lon="-48.9994470">
        <ele>960.8</ele>
        <time>2021-04-17T12:28:15Z</time>
      </trkpt>
      <trkpt lat="-25.6005710" lon="-48.9994530">
        <ele>961.6</ele>
        <time>2021-04-17T12:28:17Z</time>
      </trkpt>
      <trkpt lat="-25.6005540" lon="-48.9994550">
        <ele>961.8</ele>
        <time>2021-04-17T12:28:18Z</time>
      </trkpt>
      <trkpt lat="-25.6005360" lon="-48.9994560">
        <ele>962.0</ele>
        <time>2021-04-17T12:28:19Z</time>
      </trkpt>
      <trkpt lat="-25.6005000" lon="-48.9994580">
        <ele>962.4</ele>
        <time>2021-04-17T12:28:21Z</time>
      </trkpt>
      <trkpt lat="-25.6004610" lon="-48.9994620">
        <ele>962.8</ele>
        <time>2021-04-17T12:28:23Z</time>
      </trkpt>
      <trkpt lat="-25.6004220" lon="-48.9994650">
        <ele>963.4</ele>
        <time>2021-04-17T12:28:25Z</time>
      </trkpt>
      <trkpt lat="-25.6004030" lon="-48.9994680">
        <ele>963.6</ele>
        <time>2021-04-17T12:28:26Z</time>
      </trkpt>
      <trkpt lat="-25.6003820" lon="-48.9994700">
        <ele>964.0</ele>
        <time>2021-04-17T12:28:27Z</time>
      </trkpt>
      <trkpt lat="-25.6003450" lon="-48.9994720">
        <ele>964.4</ele>
        <time>2021-04-17T12:28:29Z</time>
      </trkpt>
      <trkpt lat="-25.6003020" lon="-48.9994770">
        <ele>964.8</ele>
        <time>2021-04-17T12:28:31Z</time>
      </trkpt>
      <trkpt lat="-25.6002600" lon="-48.9994790">
        <ele>965.2</ele>
        <time>2021-04-17T12:28:33Z</time>
      </trkpt>
      <trkpt lat="-25.6002380" lon="-48.9994790">
        <ele>965.4</ele>
        <time>2021-04-17T12:28:34Z</time>
      </trkpt>
      <trkpt lat="-25.6002180" lon="-48.9994790">
        <ele>965.6</ele>
        <time>2021-04-17T12:28:35Z</time>
      </trkpt>
      <trkpt lat="-25.6001770" lon="-48.9994760">
        <ele>965.8</ele>
        <time>2021-04-17T12:28:37Z</time>
      </trkpt>
      <trkpt lat="-25.6001340" lon="-48.9994740">
        <ele>965.8</ele>
        <time>2021-04-17T12:28:39Z</time>
      </trkpt>
      <trkpt lat="-25.6000940" lon="-48.9994670">
        <ele>966.2</ele>
        <time>2021-04-17T12:28:41Z</time>
      </trkpt>
      <trkpt lat="-25.6000550" lon="-48.9994550">
        <ele>966.4</ele>
        <time>2021-04-17T12:28:43Z</time>
      </trkpt>
      <trkpt lat="-25.6000200" lon="-48.9994370">
        <ele>966.8</ele>
        <time>2021-04-17T12:28:45Z</time>
      </trkpt>
      <trkpt lat="-25.5999920" lon="-48.9994110">
        <ele>967.4</ele>
        <time>2021-04-17T12:28:47Z</time>
      </trkpt>
      <trkpt lat="-25.5999710" lon="-48.9993780">
        <ele>967.8</ele>
        <time>2021-04-17T12:28:49Z</time>
      </trkpt>
      <trkpt lat="-25.5999500" lon="-48.9993380">
        <ele>968.4</ele>
        <time>2021-04-17T12:28:51Z</time>
      </trkpt>
      <trkpt lat="-25.5999420" lon="-48.9993160">
        <ele>968.6</ele>
        <time>2021-04-17T12:28:52Z</time>
      </trkpt>
      <trkpt lat="-25.5999360" lon="-48.9992930">
        <ele>968.8</ele>
        <time>2021-04-17T12:28:53Z</time>
      </trkpt>
      <trkpt lat="-25.5999250" lon="-48.9992410">
        <ele>969.2</ele>
        <time>2021-04-17T12:28:55Z</time>
      </trkpt>
      <trkpt lat="-25.5999220" lon="-48.9992130">
        <ele>969.2</ele>
        <time>2021-04-17T12:28:56Z</time>
      </trkpt>
      <trkpt lat="-25.5999180" lon="-48.9991850">
        <ele>969.2</ele>
        <time>2021-04-17T12:28:57Z</time>
      </trkpt>
      <trkpt lat="-25.5999090" lon="-48.9991330">
        <ele>969.4</ele>
        <time>2021-04-17T12:28:59Z</time>
      </trkpt>
      <trkpt lat="-25.5999020" lon="-48.9990800">
        <ele>969.4</ele>
        <time>2021-04-17T12:29:01Z</time>
      </trkpt>
      <trkpt lat="-25.5998960" lon="-48.9990230">
        <ele>969.6</ele>
        <time>2021-04-17T12:29:03Z</time>
      </trkpt>
      <trkpt lat="-25.5998880" lon="-48.9989630">
        <ele>969.6</ele>
        <time>2021-04-17T12:29:05Z</time>
      </trkpt>
      <trkpt lat="-25.5998860" lon="-48.9989010">
        <ele>969.6</ele>
        <time>2021-04-17T12:29:07Z</time>
      </trkpt>
      <trkpt lat="-25.5998800" lon="-48.9988370">
        <ele>969.8</ele>
        <time>2021-04-17T12:29:09Z</time>
      </trkpt>
      <trkpt lat="-25.5998760" lon="-48.9987720">
        <ele>970.0</ele>
        <time>2021-04-17T12:29:11Z</time>
      </trkpt>
      <trkpt lat="-25.5998690" lon="-48.9987080">
        <ele>970.0</ele>
        <time>2021-04-17T12:29:13Z</time>
      </trkpt>
      <trkpt lat="-25.5998630" lon="-48.9986450">
        <ele>970.2</ele>
        <time>2021-04-17T12:29:15Z</time>
      </trkpt>
      <trkpt lat="-25.5998560" lon="-48.9985810">
        <ele>970.2</ele>
        <time>2021-04-17T12:29:17Z</time>
      </trkpt>
      <trkpt lat="-25.5998500" lon="-48.9985140">
        <ele>970.2</ele>
        <time>2021-04-17T12:29:19Z</time>
      </trkpt>
      <trkpt lat="-25.5998400" lon="-48.9984480">
        <ele>970.4</ele>
        <time>2021-04-17T12:29:21Z</time>
      </trkpt>
      <trkpt lat="-25.5998340" lon="-48.9983800">
        <ele>970.4</ele>
        <time>2021-04-17T12:29:23Z</time>
      </trkpt>
      <trkpt lat="-25.5998250" lon="-48.9983140">
        <ele>970.6</ele>
        <time>2021-04-17T12:29:25Z</time>
      </trkpt>
      <trkpt lat="-25.5998120" lon="-48.9982500">
        <ele>971.0</ele>
        <time>2021-04-17T12:29:27Z</time>
      </trkpt>
      <trkpt lat="-25.5998030" lon="-48.9981850">
        <ele>971.2</ele>
        <time>2021-04-17T12:29:29Z</time>
      </trkpt>
      <trkpt lat="-25.5997910" lon="-48.9981200">
        <ele>971.6</ele>
        <time>2021-04-17T12:29:31Z</time>
      </trkpt>
      <trkpt lat="-25.5997840" lon="-48.9980890">
        <ele>971.8</ele>
        <time>2021-04-17T12:29:32Z</time>
      </trkpt>
      <trkpt lat="-25.5997760" lon="-48.9980590">
        <ele>971.8</ele>
        <time>2021-04-17T12:29:33Z</time>
      </trkpt>
      <trkpt lat="-25.5997560" lon="-48.9980000">
        <ele>972.0</ele>
        <time>2021-04-17T12:29:35Z</time>
      </trkpt>
      <trkpt lat="-25.5997360" lon="-48.9979420">
        <ele>972.2</ele>
        <time>2021-04-17T12:29:37Z</time>
      </trkpt>
      <trkpt lat="-25.5997120" lon="-48.9978880">
        <ele>972.4</ele>
        <time>2021-04-17T12:29:39Z</time>
      </trkpt>
      <trkpt lat="-25.5996840" lon="-48.9978340">
        <ele>972.6</ele>
        <time>2021-04-17T12:29:41Z</time>
      </trkpt>
      <trkpt lat="-25.5996550" lon="-48.9977810">
        <ele>972.8</ele>
        <time>2021-04-17T12:29:43Z</time>
      </trkpt>
      <trkpt lat="-25.5996230" lon="-48.9977330">
        <ele>973.0</ele>
        <time>2021-04-17T12:29:45Z</time>
      </trkpt>
      <trkpt lat="-25.5995830" lon="-48.9976880">
        <ele>973.2</ele>
        <time>2021-04-17T12:29:47Z</time>
      </trkpt>
      <trkpt lat="-25.5995410" lon="-48.9976470">
        <ele>973.4</ele>
        <time>2021-04-17T12:29:49Z</time>
      </trkpt>
      <trkpt lat="-25.5994990" lon="-48.9976040">
        <ele>973.6</ele>
        <time>2021-04-17T12:29:51Z</time>
      </trkpt>
      <trkpt lat="-25.5994790" lon="-48.9975840">
        <ele>973.8</ele>
        <time>2021-04-17T12:29:52Z</time>
      </trkpt>
      <trkpt lat="-25.5994590" lon="-48.9975640">
        <ele>974.0</ele>
        <time>2021-04-17T12:29:53Z</time>
      </trkpt>
      <trkpt lat="-25.5994160" lon="-48.9975240">
        <ele>974.2</ele>
        <time>2021-04-17T12:29:55Z</time>
      </trkpt>
      <trkpt lat="-25.5993950" lon="-48.9975080">
        <ele>974.4</ele>
        <time>2021-04-17T12:29:56Z</time>
      </trkpt>
      <trkpt lat="-25.5993750" lon="-48.9974900">
        <ele>974.6</ele>
        <time>2021-04-17T12:29:57Z</time>
      </trkpt>
      <trkpt lat="-25.5993310" lon="-48.9974510">
        <ele>974.8</ele>
        <time>2021-04-17T12:29:59Z</time>
      </trkpt>
      <trkpt lat="-25.5992780" lon="-48.9974240">
        <ele>975.2</ele>
        <time>2021-04-17T12:30:01Z</time>
      </trkpt>
      <trkpt lat="-25.5992470" lon="-48.9974130">
        <ele>975.4</ele>
        <time>2021-04-17T12:30:02Z</time>
      </trkpt>
      <trkpt lat="-25.5992110" lon="-48.9974050">
        <ele>975.4</ele>
        <time>2021-04-17T12:30:03Z</time>
      </trkpt>
      <trkpt lat="-25.5991710" lon="-48.9974020">
        <ele>975.4</ele>
        <time>2021-04-17T12:30:04Z</time>
      </trkpt>
      <trkpt lat="-25.5991250" lon="-48.9974070">
        <ele>975.4</ele>
        <time>2021-04-17T12:30:05Z</time>
      </trkpt>
      <trkpt lat="-25.5990740" lon="-48.9974170">
        <ele>975.4</ele>
        <time>2021-04-17T12:30:06Z</time>
      </trkpt>
      <trkpt lat="-25.5990180" lon="-48.9974300">
        <ele>975.4</ele>
        <time>2021-04-17T12:30:07Z</time>
      </trkpt>
      <trkpt lat="-25.5989010" lon="-48.9974620">
        <ele>975.4</ele>
        <time>2021-04-17T12:30:09Z</time>
      </trkpt>
      <trkpt lat="-25.5988440" lon="-48.9974820">
        <ele>975.4</ele>
        <time>2021-04-17T12:30:10Z</time>
      </trkpt>
      <trkpt lat="-25.5987900" lon="-48.9975100">
        <ele>975.4</ele>
        <time>2021-04-17T12:30:11Z</time>
      </trkpt>
      <trkpt lat="-25.5986920" lon="-48.9975990">
        <ele>975.0</ele>
        <time>2021-04-17T12:30:13Z</time>
      </trkpt>
      <trkpt lat="-25.5985940" lon="-48.9977140">
        <ele>974.6</ele>
        <time>2021-04-17T12:30:15Z</time>
      </trkpt>
      <trkpt lat="-25.5984880" lon="-48.9978410">
        <ele>973.8</ele>
        <time>2021-04-17T12:30:17Z</time>
      </trkpt>
      <trkpt lat="-25.5983820" lon="-48.9979830">
        <ele>973.4</ele>
        <time>2021-04-17T12:30:19Z</time>
      </trkpt>
      <trkpt lat="-25.5982840" lon="-48.9981360">
        <ele>973.0</ele>
        <time>2021-04-17T12:30:21Z</time>
      </trkpt>
      <trkpt lat="-25.5982380" lon="-48.9982170">
        <ele>972.6</ele>
        <time>2021-04-17T12:30:22Z</time>
      </trkpt>
      <trkpt lat="-25.5981950" lon="-48.9982980">
        <ele>972.2</ele>
        <time>2021-04-17T12:30:23Z</time>
      </trkpt>
      <trkpt lat="-25.5981070" lon="-48.9984560">
        <ele>971.6</ele>
        <time>2021-04-17T12:30:25Z</time>
      </trkpt>
      <trkpt lat="-25.5980090" lon="-48.9985980">
        <ele>970.6</ele>
        <time>2021-04-17T12:30:27Z</time>
      </trkpt>
      <trkpt lat="-25.5979520" lon="-48.9986600">
        <ele>970.4</ele>
        <time>2021-04-17T12:30:28Z</time>
      </trkpt>
      <trkpt lat="-25.5978950" lon="-48.9987160">
        <ele>970.2</ele>
        <time>2021-04-17T12:30:29Z</time>
      </trkpt>
      <trkpt lat="-25.5977830" lon="-48.9988120">
        <ele>969.6</ele>
        <time>2021-04-17T12:30:31Z</time>
      </trkpt>
      <trkpt lat="-25.5977260" lon="-48.9988490">
        <ele>969.4</ele>
        <time>2021-04-17T12:30:32Z</time>
      </trkpt>
      <trkpt lat="-25.5976740" lon="-48.9988890">
        <ele>969.2</ele>
        <time>2021-04-17T12:30:33Z</time>
      </trkpt>
      <trkpt lat="-25.5975860" lon="-48.9989740">
        <ele>969.0</ele>
        <time>2021-04-17T12:30:35Z</time>
      </trkpt>
      <trkpt lat="-25.5975510" lon="-48.9990180">
        <ele>968.8</ele>
        <time>2021-04-17T12:30:36Z</time>
      </trkpt>
      <trkpt lat="-25.5975180" lon="-48.9990620">
        <ele>968.8</ele>
        <time>2021-04-17T12:30:37Z</time>
      </trkpt>
      <trkpt lat="-25.5974630" lon="-48.9991480">
        <ele>968.8</ele>
        <time>2021-04-17T12:30:39Z</time>
      </trkpt>
      <trkpt lat="-25.5974270" lon="-48.9992370">
        <ele>968.8</ele>
        <time>2021-04-17T12:30:41Z</time>
      </trkpt>
      <trkpt lat="-25.5973970" lon="-48.9993220">
        <ele>969.0</ele>
        <time>2021-04-17T12:30:43Z</time>
      </trkpt>
      <trkpt lat="-25.5973710" lon="-48.9994130">
        <ele>969.6</ele>
        <time>2021-04-17T12:30:45Z</time>
      </trkpt>
      <trkpt lat="-25.5973430" lon="-48.9995080">
        <ele>969.8</ele>
        <time>2021-04-17T12:30:47Z</time>
      </trkpt>
      <trkpt lat="-25.5973360" lon="-48.9995590">
        <ele>969.8</ele>
        <time>2021-04-17T12:30:48Z</time>
      </trkpt>
      <trkpt lat="-25.5973280" lon="-48.9996100">
        <ele>969.8</ele>
        <time>2021-04-17T12:30:49Z</time>
      </trkpt>
      <trkpt lat="-25.5973130" lon="-48.9997090">
        <ele>969.8</ele>
        <time>2021-04-17T12:30:51Z</time>
      </trkpt>
      <trkpt lat="-25.5972840" lon="-48.9998020">
        <ele>969.8</ele>
        <time>2021-04-17T12:30:53Z</time>
      </trkpt>
      <trkpt lat="-25.5972670" lon="-48.9998460">
        <ele>969.8</ele>
        <time>2021-04-17T12:30:54Z</time>
      </trkpt>
      <trkpt lat="-25.5972480" lon="-48.9998900">
        <ele>969.8</ele>
        <time>2021-04-17T12:30:55Z</time>
      </trkpt>
      <trkpt lat="-25.5972230" lon="-48.9999310">
        <ele>969.8</ele>
        <time>2021-04-17T12:30:56Z</time>
      </trkpt>
      <trkpt lat="-25.5971950" lon="-48.9999670">
        <ele>969.8</ele>
        <time>2021-04-17T12:30:57Z</time>
      </trkpt>
      <trkpt lat="-25.5971340" lon="-49.0000290">
        <ele>969.6</ele>
        <time>2021-04-17T12:30:59Z</time>
      </trkpt>
      <trkpt lat="-25.5970730" lon="-49.0000790">
        <ele>969.6</ele>
        <time>2021-04-17T12:31:01Z</time>
      </trkpt>
      <trkpt lat="-25.5970060" lon="-49.0001110">
        <ele>969.8</ele>
        <time>2021-04-17T12:31:03Z</time>
      </trkpt>
      <trkpt lat="-25.5969720" lon="-49.0001210">
        <ele>969.8</ele>
        <time>2021-04-17T12:31:04Z</time>
      </trkpt>
      <trkpt lat="-25.5969400" lon="-49.0001300">
        <ele>969.8</ele>
        <time>2021-04-17T12:31:05Z</time>
      </trkpt>
      <trkpt lat="-25.5968820" lon="-49.0001380">
        <ele>969.8</ele>
        <time>2021-04-17T12:31:07Z</time>
      </trkpt>
      <trkpt lat="-25.5968230" lon="-49.0001480">
        <ele>970.0</ele>
        <time>2021-04-17T12:31:09Z</time>
      </trkpt>
      <trkpt lat="-25.5967960" lon="-49.0001510">
        <ele>970.2</ele>
        <time>2021-04-17T12:31:10Z</time>
      </trkpt>
      <trkpt lat="-25.5967700" lon="-49.0001560">
        <ele>970.4</ele>
        <time>2021-04-17T12:31:11Z</time>
      </trkpt>
      <trkpt lat="-25.5967150" lon="-49.0001760">
        <ele>970.8</ele>
        <time>2021-04-17T12:31:13Z</time>
      </trkpt>
      <trkpt lat="-25.5966640" lon="-49.0002140">
        <ele>971.4</ele>
        <time>2021-04-17T12:31:15Z</time>
      </trkpt>
      <trkpt lat="-25.5966130" lon="-49.0002700">
        <ele>971.8</ele>
        <time>2021-04-17T12:31:17Z</time>
      </trkpt>
      <trkpt lat="-25.5965610" lon="-49.0003420">
        <ele>972.0</ele>
        <time>2021-04-17T12:31:19Z</time>
      </trkpt>
      <trkpt lat="-25.5965370" lon="-49.0003800">
        <ele>972.0</ele>
        <time>2021-04-17T12:31:20Z</time>
      </trkpt>
      <trkpt lat="-25.5965170" lon="-49.0004190">
        <ele>972.0</ele>
        <time>2021-04-17T12:31:21Z</time>
      </trkpt>
      <trkpt lat="-25.5964800" lon="-49.0004860">
        <ele>972.0</ele>
        <time>2021-04-17T12:31:23Z</time>
      </trkpt>
      <trkpt lat="-25.5964530" lon="-49.0005510">
        <ele>972.0</ele>
        <time>2021-04-17T12:31:25Z</time>
      </trkpt>
      <trkpt lat="-25.5964410" lon="-49.0005810">
        <ele>972.0</ele>
        <time>2021-04-17T12:31:26Z</time>
      </trkpt>
      <trkpt lat="-25.5964280" lon="-49.0006150">
        <ele>972.0</ele>
        <time>2021-04-17T12:31:27Z</time>
      </trkpt>
      <trkpt lat="-25.5963930" lon="-49.0006970">
        <ele>972.0</ele>
        <time>2021-04-17T12:31:29Z</time>
      </trkpt>
      <trkpt lat="-25.5963660" lon="-49.0007440">
        <ele>972.0</ele>
        <time>2021-04-17T12:31:30Z</time>
      </trkpt>
      <trkpt lat="-25.5963300" lon="-49.0007940">
        <ele>972.0</ele>
        <time>2021-04-17T12:31:31Z</time>
      </trkpt>
      <trkpt lat="-25.5962480" lon="-49.0008980">
        <ele>971.8</ele>
        <time>2021-04-17T12:31:33Z</time>
      </trkpt>
      <trkpt lat="-25.5962060" lon="-49.0009510">
        <ele>971.8</ele>
        <time>2021-04-17T12:31:34Z</time>
      </trkpt>
      <trkpt lat="-25.5961530" lon="-49.0010040">
        <ele>971.6</ele>
        <time>2021-04-17T12:31:35Z</time>
      </trkpt>
      <trkpt lat="-25.5960500" lon="-49.0011180">
        <ele>971.4</ele>
        <time>2021-04-17T12:31:37Z</time>
      </trkpt>
      <trkpt lat="-25.5959540" lon="-49.0012280">
        <ele>970.8</ele>
        <time>2021-04-17T12:31:39Z</time>
      </trkpt>
      <trkpt lat="-25.5958750" lon="-49.0013340">
        <ele>970.4</ele>
        <time>2021-04-17T12:31:41Z</time>
      </trkpt>
      <trkpt lat="-25.5958380" lon="-49.0013850">
        <ele>969.8</ele>
        <time>2021-04-17T12:31:42Z</time>
      </trkpt>
      <trkpt lat="-25.5957980" lon="-49.0014370">
        <ele>969.4</ele>
        <time>2021-04-17T12:31:43Z</time>
      </trkpt>
      <trkpt lat="-25.5957540" lon="-49.0014920">
        <ele>969.2</ele>
        <time>2021-04-17T12:31:44Z</time>
      </trkpt>
      <trkpt lat="-25.5957030" lon="-49.0015470">
        <ele>968.8</ele>
        <time>2021-04-17T12:31:45Z</time>
      </trkpt>
      <trkpt lat="-25.5956400" lon="-49.0016010">
        <ele>968.8</ele>
        <time>2021-04-17T12:31:46Z</time>
      </trkpt>
      <trkpt lat="-25.5955810" lon="-49.0016510">
        <ele>968.4</ele>
        <time>2021-04-17T12:31:47Z</time>
      </trkpt>
      <trkpt lat="-25.5954600" lon="-49.0017690">
        <ele>968.2</ele>
        <time>2021-04-17T12:31:49Z</time>
      </trkpt>
      <trkpt lat="-25.5953970" lon="-49.0018270">
        <ele>968.0</ele>
        <time>2021-04-17T12:31:50Z</time>
      </trkpt>
      <trkpt lat="-25.5953400" lon="-49.0018840">
        <ele>968.0</ele>
        <time>2021-04-17T12:31:51Z</time>
      </trkpt>
      <trkpt lat="-25.5952890" lon="-49.0019430">
        <ele>967.8</ele>
        <time>2021-04-17T12:31:52Z</time>
      </trkpt>
      <trkpt lat="-25.5952450" lon="-49.0020040">
        <ele>967.6</ele>
        <time>2021-04-17T12:31:53Z</time>
      </trkpt>
      <trkpt lat="-25.5952090" lon="-49.0020670">
        <ele>966.8</ele>
        <time>2021-04-17T12:31:54Z</time>
      </trkpt>
      <trkpt lat="-25.5951770" lon="-49.0021260">
        <ele>966.4</ele>
        <time>2021-04-17T12:31:55Z</time>
      </trkpt>
      <trkpt lat="-25.5951480" lon="-49.0021810">
        <ele>966.2</ele>
        <time>2021-04-17T12:31:56Z</time>
      </trkpt>
      <trkpt lat="-25.5951170" lon="-49.0022290">
        <ele>966.0</ele>
        <time>2021-04-17T12:31:57Z</time>
      </trkpt>
      <trkpt lat="-25.5950570" lon="-49.0023090">
        <ele>965.8</ele>
        <time>2021-04-17T12:31:59Z</time>
      </trkpt>
      <trkpt lat="-25.5950240" lon="-49.0023450">
        <ele>965.8</ele>
        <time>2021-04-17T12:32:00Z</time>
      </trkpt>
      <trkpt lat="-25.5949890" lon="-49.0023850">
        <ele>965.6</ele>
        <time>2021-04-17T12:32:01Z</time>
      </trkpt>
      <trkpt lat="-25.5948980" lon="-49.0024750">
        <ele>965.4</ele>
        <time>2021-04-17T12:32:03Z</time>
      </trkpt>
      <trkpt lat="-25.5947950" lon="-49.0025730">
        <ele>965.2</ele>
        <time>2021-04-17T12:32:05Z</time>
      </trkpt>
      <trkpt lat="-25.5946810" lon="-49.0026660">
        <ele>965.0</ele>
        <time>2021-04-17T12:32:07Z</time>
      </trkpt>
      <trkpt lat="-25.5945630" lon="-49.0027650">
        <ele>964.8</ele>
        <time>2021-04-17T12:32:09Z</time>
      </trkpt>
      <trkpt lat="-25.5944460" lon="-49.0028720">
        <ele>964.6</ele>
        <time>2021-04-17T12:32:11Z</time>
      </trkpt>
      <trkpt lat="-25.5943870" lon="-49.0029280">
        <ele>964.4</ele>
        <time>2021-04-17T12:32:12Z</time>
      </trkpt>
      <trkpt lat="-25.5943280" lon="-49.0029890">
        <ele>963.4</ele>
        <time>2021-04-17T12:32:13Z</time>
      </trkpt>
      <trkpt lat="-25.5942730" lon="-49.0030560">
        <ele>963.0</ele>
        <time>2021-04-17T12:32:14Z</time>
      </trkpt>
      <trkpt lat="-25.5942160" lon="-49.0031290">
        <ele>962.4</ele>
        <time>2021-04-17T12:32:15Z</time>
      </trkpt>
      <trkpt lat="-25.5941530" lon="-49.0032020">
        <ele>961.8</ele>
        <time>2021-04-17T12:32:16Z</time>
      </trkpt>
      <trkpt lat="-25.5940830" lon="-49.0032630">
        <ele>961.4</ele>
        <time>2021-04-17T12:32:17Z</time>
      </trkpt>
      <trkpt lat="-25.5939340" lon="-49.0033370">
        <ele>961.0</ele>
        <time>2021-04-17T12:32:19Z</time>
      </trkpt>
      <trkpt lat="-25.5937550" lon="-49.0033320">
        <ele>960.6</ele>
        <time>2021-04-17T12:32:21Z</time>
      </trkpt>
      <trkpt lat="-25.5936650" lon="-49.0033140">
        <ele>960.0</ele>
        <time>2021-04-17T12:32:22Z</time>
      </trkpt>
      <trkpt lat="-25.5935780" lon="-49.0032960">
        <ele>959.0</ele>
        <time>2021-04-17T12:32:23Z</time>
      </trkpt>
      <trkpt lat="-25.5934050" lon="-49.0032650">
        <ele>957.4</ele>
        <time>2021-04-17T12:32:25Z</time>
      </trkpt>
      <trkpt lat="-25.5933200" lon="-49.0032600">
        <ele>957.0</ele>
        <time>2021-04-17T12:32:26Z</time>
      </trkpt>
      <trkpt lat="-25.5932390" lon="-49.0032670">
        <ele>956.4</ele>
        <time>2021-04-17T12:32:27Z</time>
      </trkpt>
      <trkpt lat="-25.5930790" lon="-49.0033040">
        <ele>955.2</ele>
        <time>2021-04-17T12:32:29Z</time>
      </trkpt>
      <trkpt lat="-25.5929030" lon="-49.0033370">
        <ele>954.4</ele>
        <time>2021-04-17T12:32:31Z</time>
      </trkpt>
      <trkpt lat="-25.5928080" lon="-49.0033410">
        <ele>954.2</ele>
        <time>2021-04-17T12:32:32Z</time>
      </trkpt>
      <trkpt lat="-25.5927090" lon="-49.0033320">
        <ele>954.0</ele>
        <time>2021-04-17T12:32:33Z</time>
      </trkpt>
      <trkpt lat="-25.5926030" lon="-49.0033120">
        <ele>953.8</ele>
        <time>2021-04-17T12:32:34Z</time>
      </trkpt>
      <trkpt lat="-25.5924950" lon="-49.0032860">
        <ele>953.6</ele>
        <time>2021-04-17T12:32:35Z</time>
      </trkpt>
      <trkpt lat="-25.5922840" lon="-49.0032130">
        <ele>953.4</ele>
        <time>2021-04-17T12:32:37Z</time>
      </trkpt>
      <trkpt lat="-25.5922220" lon="-49.0031690">
        <ele>953.0</ele>
        <time>2021-04-17T12:32:38Z</time>
      </trkpt>
      <trkpt lat="-25.5921590" lon="-49.0031260">
        <ele>952.8</ele>
        <time>2021-04-17T12:32:39Z</time>
      </trkpt>
      <trkpt lat="-25.5920340" lon="-49.0030400">
        <ele>952.0</ele>
        <time>2021-04-17T12:32:40Z</time>
      </trkpt>
      <trkpt lat="-25.5919760" lon="-49.0029890">
        <ele>950.8</ele>
        <time>2021-04-17T12:32:41Z</time>
      </trkpt>
      <trkpt lat="-25.5918770" lon="-49.0028940">
        <ele>949.2</ele>
        <time>2021-04-17T12:32:43Z</time>
      </trkpt>
      <trkpt lat="-25.5918300" lon="-49.0028490">
        <ele>948.4</ele>
        <time>2021-04-17T12:32:44Z</time>
      </trkpt>
      <trkpt lat="-25.5917820" lon="-49.0028050">
        <ele>947.6</ele>
        <time>2021-04-17T12:32:45Z</time>
      </trkpt>
      <trkpt lat="-25.5916590" lon="-49.0027100">
        <ele>946.0</ele>
        <time>2021-04-17T12:32:47Z</time>
      </trkpt>
      <trkpt lat="-25.5915780" lon="-49.0026580">
        <ele>945.2</ele>
        <time>2021-04-17T12:32:48Z</time>
      </trkpt>
      <trkpt lat="-25.5914940" lon="-49.0026040">
        <ele>944.0</ele>
        <time>2021-04-17T12:32:49Z</time>
      </trkpt>
      <trkpt lat="-25.5913160" lon="-49.0024850">
        <ele>942.0</ele>
        <time>2021-04-17T12:32:51Z</time>
      </trkpt>
      <trkpt lat="-25.5912310" lon="-49.0024110">
        <ele>940.8</ele>
        <time>2021-04-17T12:32:52Z</time>
      </trkpt>
      <trkpt lat="-25.5911580" lon="-49.0023250">
        <ele>939.6</ele>
        <time>2021-04-17T12:32:53Z</time>
      </trkpt>
      <trkpt lat="-25.5910860" lon="-49.0022350">
        <ele>938.2</ele>
        <time>2021-04-17T12:32:54Z</time>
      </trkpt>
      <trkpt lat="-25.5910090" lon="-49.0021510">
        <ele>937.0</ele>
        <time>2021-04-17T12:32:55Z</time>
      </trkpt>
      <trkpt lat="-25.5909250" lon="-49.0020830">
        <ele>936.0</ele>
        <time>2021-04-17T12:32:56Z</time>
      </trkpt>
      <trkpt lat="-25.5908420" lon="-49.0020350">
        <ele>934.8</ele>
        <time>2021-04-17T12:32:57Z</time>
      </trkpt>
      <trkpt lat="-25.5907710" lon="-49.0020020">
        <ele>933.0</ele>
        <time>2021-04-17T12:32:58Z</time>
      </trkpt>
      <trkpt lat="-25.5907160" lon="-49.0019860">
        <ele>930.8</ele>
        <time>2021-04-17T12:32:59Z</time>
      </trkpt>
      <trkpt lat="-25.5906800" lon="-49.0019840">
        <ele>929.6</ele>
        <time>2021-04-17T12:33:00Z</time>
      </trkpt>
      <trkpt lat="-25.5906520" lon="-49.0019840">
        <ele>929.0</ele>
        <time>2021-04-17T12:33:01Z</time>
      </trkpt>
      <trkpt lat="-25.5906270" lon="-49.0019830">
        <ele>928.8</ele>
        <time>2021-04-17T12:33:02Z</time>
      </trkpt>
      <trkpt lat="-25.5906060" lon="-49.0019840">
        <ele>928.4</ele>
        <time>2021-04-17T12:33:03Z</time>
      </trkpt>
      <trkpt lat="-25.5905750" lon="-49.0019890">
        <ele>928.4</ele>
        <time>2021-04-17T12:33:05Z</time>
      </trkpt>
      <trkpt lat="-25.5905650" lon="-49.0019950">
        <ele>928.4</ele>
        <time>2021-04-17T12:33:06Z</time>
      </trkpt>
      <trkpt lat="-25.5905510" lon="-49.0019990">
        <ele>928.4</ele>
        <time>2021-04-17T12:33:07Z</time>
      </trkpt>
      <trkpt lat="-25.5905250" lon="-49.0020030">
        <ele>928.4</ele>
        <time>2021-04-17T12:33:09Z</time>
      </trkpt>
      <trkpt lat="-25.5905000" lon="-49.0020080">
        <ele>929.2</ele>
        <time>2021-04-17T12:33:11Z</time>
      </trkpt>
      <trkpt lat="-25.5904870" lon="-49.0020090">
        <ele>929.6</ele>
        <time>2021-04-17T12:33:12Z</time>
      </trkpt>
      <trkpt lat="-25.5904730" lon="-49.0020120">
        <ele>929.8</ele>
        <time>2021-04-17T12:33:13Z</time>
      </trkpt>
      <trkpt lat="-25.5904470" lon="-49.0020180">
        <ele>930.2</ele>
        <time>2021-04-17T12:33:15Z</time>
      </trkpt>
      <trkpt lat="-25.5904370" lon="-49.0020260">
        <ele>930.4</ele>
        <time>2021-04-17T12:33:16Z</time>
      </trkpt>
      <trkpt lat="-25.5904280" lon="-49.0020350">
        <ele>930.6</ele>
        <time>2021-04-17T12:33:17Z</time>
      </trkpt>
      <trkpt lat="-25.5904170" lon="-49.0020420">
        <ele>930.8</ele>
        <time>2021-04-17T12:33:18Z</time>
      </trkpt>
      <trkpt lat="-25.5904050" lon="-49.0020480">
        <ele>931.0</ele>
        <time>2021-04-17T12:33:19Z</time>
      </trkpt>
      <trkpt lat="-25.5903800" lon="-49.0020640">
        <ele>931.6</ele>
        <time>2021-04-17T12:33:21Z</time>
      </trkpt>
      <trkpt lat="-25.5903530" lon="-49.0020790">
        <ele>931.8</ele>
        <time>2021-04-17T12:33:23Z</time>
      </trkpt>
      <trkpt lat="-25.5903400" lon="-49.0020870">
        <ele>932.0</ele>
        <time>2021-04-17T12:33:24Z</time>
      </trkpt>
      <trkpt lat="-25.5903280" lon="-49.0020950">
        <ele>932.2</ele>
        <time>2021-04-17T12:33:25Z</time>
      </trkpt>
      <trkpt lat="-25.5903030" lon="-49.0021120">
        <ele>932.8</ele>
        <time>2021-04-17T12:33:27Z</time>
      </trkpt>
      <trkpt lat="-25.5902770" lon="-49.0021220">
        <ele>933.0</ele>
        <time>2021-04-17T12:33:29Z</time>
      </trkpt>
      <trkpt lat="-25.5902640" lon="-49.0021290">
        <ele>933.4</ele>
        <time>2021-04-17T12:33:30Z</time>
      </trkpt>
      <trkpt lat="-25.5902500" lon="-49.0021350">
        <ele>933.6</ele>
        <time>2021-04-17T12:33:31Z</time>
      </trkpt>
      <trkpt lat="-25.5902260" lon="-49.0021500">
        <ele>934.0</ele>
        <time>2021-04-17T12:33:33Z</time>
      </trkpt>
      <trkpt lat="-25.5902160" lon="-49.0021590">
        <ele>934.2</ele>
        <time>2021-04-17T12:33:34Z</time>
      </trkpt>
      <trkpt lat="-25.5902080" lon="-49.0021700">
        <ele>934.6</ele>
        <time>2021-04-17T12:33:35Z</time>
      </trkpt>
      <trkpt lat="-25.5901960" lon="-49.0021800">
        <ele>935.0</ele>
        <time>2021-04-17T12:33:36Z</time>
      </trkpt>
      <trkpt lat="-25.5901830" lon="-49.0021860">
        <ele>935.2</ele>
        <time>2021-04-17T12:33:37Z</time>
      </trkpt>
      <trkpt lat="-25.5901710" lon="-49.0021910">
        <ele>935.4</ele>
        <time>2021-04-17T12:33:38Z</time>
      </trkpt>
      <trkpt lat="-25.5901590" lon="-49.0021940">
        <ele>935.8</ele>
        <time>2021-04-17T12:33:39Z</time>
      </trkpt>
      <trkpt lat="-25.5901410" lon="-49.0021920">
        <ele>936.2</ele>
        <time>2021-04-17T12:33:41Z</time>
      </trkpt>
      <trkpt lat="-25.5901350" lon="-49.0021920">
        <ele>936.4</ele>
        <time>2021-04-17T12:33:42Z</time>
      </trkpt>
      <trkpt lat="-25.5901350" lon="-49.0021920">
        <ele>936.8</ele>
        <time>2021-04-17T12:33:43Z</time>
      </trkpt>
      <trkpt lat="-25.5901340" lon="-49.0021920">
        <ele>937.0</ele>
        <time>2021-04-17T12:33:45Z</time>
      </trkpt>
      <trkpt lat="-25.5901340" lon="-49.0021930">
        <ele>937.4</ele>
        <time>2021-04-17T12:33:47Z</time>
      </trkpt>
      <trkpt lat="-25.5901340" lon="-49.0021930">
        <ele>937.6</ele>
        <time>2021-04-17T12:33:49Z</time>
      </trkpt>
      <trkpt lat="-25.5901330" lon="-49.0021920">
        <ele>937.8</ele>
        <time>2021-04-17T12:33:51Z</time>
      </trkpt>
      <trkpt lat="-25.5901240" lon="-49.0021940">
        <ele>937.8</ele>
        <time>2021-04-17T12:33:52Z</time>
      </trkpt>
      <trkpt lat="-25.5901160" lon="-49.0021990">
        <ele>937.8</ele>
        <time>2021-04-17T12:33:53Z</time>
      </trkpt>
      <trkpt lat="-25.5901070" lon="-49.0022180">
        <ele>937.8</ele>
        <time>2021-04-17T12:33:55Z</time>
      </trkpt>
      <trkpt lat="-25.5900870" lon="-49.0022300">
        <ele>937.8</ele>
        <time>2021-04-17T12:33:57Z</time>
      </trkpt>
      <trkpt lat="-25.5900650" lon="-49.0022380">
        <ele>938.0</ele>
        <time>2021-04-17T12:33:59Z</time>
      </trkpt>
      <trkpt lat="-25.5900410" lon="-49.0022450">
        <ele>938.0</ele>
        <time>2021-04-17T12:34:01Z</time>
      </trkpt>
      <trkpt lat="-25.5900280" lon="-49.0022500">
        <ele>938.0</ele>
        <time>2021-04-17T12:34:02Z</time>
      </trkpt>
      <trkpt lat="-25.5900140" lon="-49.0022540">
        <ele>938.0</ele>
        <time>2021-04-17T12:34:03Z</time>
      </trkpt>
      <trkpt lat="-25.5899850" lon="-49.0022650">
        <ele>938.0</ele>
        <time>2021-04-17T12:34:05Z</time>
      </trkpt>
      <trkpt lat="-25.5899560" lon="-49.0022760">
        <ele>938.2</ele>
        <time>2021-04-17T12:34:07Z</time>
      </trkpt>
      <trkpt lat="-25.5899290" lon="-49.0022900">
        <ele>938.2</ele>
        <time>2021-04-17T12:34:09Z</time>
      </trkpt>
      <trkpt lat="-25.5898990" lon="-49.0023060">
        <ele>938.2</ele>
        <time>2021-04-17T12:34:11Z</time>
      </trkpt>
      <trkpt lat="-25.5898670" lon="-49.0023260">
        <ele>938.2</ele>
        <time>2021-04-17T12:34:13Z</time>
      </trkpt>
      <trkpt lat="-25.5898330" lon="-49.0023330">
        <ele>938.4</ele>
        <time>2021-04-17T12:34:15Z</time>
      </trkpt>
      <trkpt lat="-25.5897970" lon="-49.0023400">
        <ele>938.4</ele>
        <time>2021-04-17T12:34:17Z</time>
      </trkpt>
      <trkpt lat="-25.5897630" lon="-49.0023490">
        <ele>938.6</ele>
        <time>2021-04-17T12:34:19Z</time>
      </trkpt>
      <trkpt lat="-25.5897290" lon="-49.0023600">
        <ele>938.6</ele>
        <time>2021-04-17T12:34:21Z</time>
      </trkpt>
      <trkpt lat="-25.5897120" lon="-49.0023640">
        <ele>938.6</ele>
        <time>2021-04-17T12:34:22Z</time>
      </trkpt>
      <trkpt lat="-25.5896950" lon="-49.0023690">
        <ele>938.6</ele>
        <time>2021-04-17T12:34:23Z</time>
      </trkpt>
      <trkpt lat="-25.5896580" lon="-49.0023810">
        <ele>938.8</ele>
        <time>2021-04-17T12:34:25Z</time>
      </trkpt>
      <trkpt lat="-25.5896220" lon="-49.0023890">
        <ele>938.8</ele>
        <time>2021-04-17T12:34:27Z</time>
      </trkpt>
      <trkpt lat="-25.5896030" lon="-49.0023920">
        <ele>938.8</ele>
        <time>2021-04-17T12:34:28Z</time>
      </trkpt>
      <trkpt lat="-25.5895860" lon="-49.0023950">
        <ele>938.8</ele>
        <time>2021-04-17T12:34:29Z</time>
      </trkpt>
      <trkpt lat="-25.5895530" lon="-49.0024010">
        <ele>939.0</ele>
        <time>2021-04-17T12:34:31Z</time>
      </trkpt>
      <trkpt lat="-25.5895210" lon="-49.0024070">
        <ele>939.2</ele>
        <time>2021-04-17T12:34:33Z</time>
      </trkpt>
      <trkpt lat="-25.5894900" lon="-49.0024140">
        <ele>939.4</ele>
        <time>2021-04-17T12:34:35Z</time>
      </trkpt>
      <trkpt lat="-25.5894590" lon="-49.0024220">
        <ele>939.6</ele>
        <time>2021-04-17T12:34:37Z</time>
      </trkpt>
      <trkpt lat="-25.5894450" lon="-49.0024250">
        <ele>940.0</ele>
        <time>2021-04-17T12:34:38Z</time>
      </trkpt>
      <trkpt lat="-25.5894310" lon="-49.0024300">
        <ele>940.0</ele>
        <time>2021-04-17T12:34:39Z</time>
      </trkpt>
      <trkpt lat="-25.5894050" lon="-49.0024400">
        <ele>940.4</ele>
        <time>2021-04-17T12:34:41Z</time>
      </trkpt>
      <trkpt lat="-25.5893790" lon="-49.0024520">
        <ele>940.8</ele>
        <time>2021-04-17T12:34:43Z</time>
      </trkpt>
      <trkpt lat="-25.5893710" lon="-49.0024590">
        <ele>941.0</ele>
        <time>2021-04-17T12:34:44Z</time>
      </trkpt>
      <trkpt lat="-25.5893610" lon="-49.0024660">
        <ele>941.2</ele>
        <time>2021-04-17T12:34:45Z</time>
      </trkpt>
      <trkpt lat="-25.5893390" lon="-49.0024800">
        <ele>941.8</ele>
        <time>2021-04-17T12:34:47Z</time>
      </trkpt>
      <trkpt lat="-25.5893140" lon="-49.0024990">
        <ele>942.2</ele>
        <time>2021-04-17T12:34:49Z</time>
      </trkpt>
      <trkpt lat="-25.5892980" lon="-49.0025060">
        <ele>942.4</ele>
        <time>2021-04-17T12:34:50Z</time>
      </trkpt>
      <trkpt lat="-25.5892870" lon="-49.0025150">
        <ele>942.6</ele>
        <time>2021-04-17T12:34:51Z</time>
      </trkpt>
      <trkpt lat="-25.5892620" lon="-49.0025330">
        <ele>943.0</ele>
        <time>2021-04-17T12:34:53Z</time>
      </trkpt>
      <trkpt lat="-25.5892520" lon="-49.0025440">
        <ele>943.4</ele>
        <time>2021-04-17T12:34:54Z</time>
      </trkpt>
      <trkpt lat="-25.5892410" lon="-49.0025550">
        <ele>943.8</ele>
        <time>2021-04-17T12:34:55Z</time>
      </trkpt>
      <trkpt lat="-25.5892160" lon="-49.0025750">
        <ele>944.6</ele>
        <time>2021-04-17T12:34:57Z</time>
      </trkpt>
      <trkpt lat="-25.5892040" lon="-49.0025860">
        <ele>945.0</ele>
        <time>2021-04-17T12:34:58Z</time>
      </trkpt>
      <trkpt lat="-25.5891910" lon="-49.0025950">
        <ele>945.2</ele>
        <time>2021-04-17T12:34:59Z</time>
      </trkpt>
      <trkpt lat="-25.5891780" lon="-49.0026060">
        <ele>945.6</ele>
        <time>2021-04-17T12:35:00Z</time>
      </trkpt>
      <trkpt lat="-25.5891660" lon="-49.0026140">
        <ele>946.0</ele>
        <time>2021-04-17T12:35:01Z</time>
      </trkpt>
      <trkpt lat="-25.5891440" lon="-49.0026320">
        <ele>946.6</ele>
        <time>2021-04-17T12:35:03Z</time>
      </trkpt>
      <trkpt lat="-25.5891340" lon="-49.0026420">
        <ele>946.8</ele>
        <time>2021-04-17T12:35:04Z</time>
      </trkpt>
      <trkpt lat="-25.5891240" lon="-49.0026510">
        <ele>947.2</ele>
        <time>2021-04-17T12:35:05Z</time>
      </trkpt>
      <trkpt lat="-25.5891050" lon="-49.0026700">
        <ele>947.8</ele>
        <time>2021-04-17T12:35:07Z</time>
      </trkpt>
      <trkpt lat="-25.5890850" lon="-49.0026890">
        <ele>948.4</ele>
        <time>2021-04-17T12:35:09Z</time>
      </trkpt>
      <trkpt lat="-25.5890660" lon="-49.0027070">
        <ele>949.0</ele>
        <time>2021-04-17T12:35:11Z</time>
      </trkpt>
      <trkpt lat="-25.5890580" lon="-49.0027180">
        <ele>949.4</ele>
        <time>2021-04-17T12:35:12Z</time>
      </trkpt>
      <trkpt lat="-25.5890510" lon="-49.0027300">
        <ele>949.8</ele>
        <time>2021-04-17T12:35:13Z</time>
      </trkpt>
      <trkpt lat="-25.5890400" lon="-49.0027390">
        <ele>950.2</ele>
        <time>2021-04-17T12:35:14Z</time>
      </trkpt>
      <trkpt lat="-25.5890300" lon="-49.0027470">
        <ele>950.4</ele>
        <time>2021-04-17T12:35:15Z</time>
      </trkpt>
      <trkpt lat="-25.5890110" lon="-49.0027600">
        <ele>950.8</ele>
        <time>2021-04-17T12:35:17Z</time>
      </trkpt>
      <trkpt lat="-25.5890020" lon="-49.0027680">
        <ele>951.0</ele>
        <time>2021-04-17T12:35:18Z</time>
      </trkpt>
      <trkpt lat="-25.5889950" lon="-49.0027790">
        <ele>951.2</ele>
        <time>2021-04-17T12:35:19Z</time>
      </trkpt>
      <trkpt lat="-25.5889760" lon="-49.0028000">
        <ele>951.8</ele>
        <time>2021-04-17T12:35:21Z</time>
      </trkpt>
      <trkpt lat="-25.5889550" lon="-49.0028210">
        <ele>952.2</ele>
        <time>2021-04-17T12:35:23Z</time>
      </trkpt>
      <trkpt lat="-25.5889460" lon="-49.0028320">
        <ele>952.4</ele>
        <time>2021-04-17T12:35:24Z</time>
      </trkpt>
      <trkpt lat="-25.5889360" lon="-49.0028420">
        <ele>952.6</ele>
        <time>2021-04-17T12:35:25Z</time>
      </trkpt>
      <trkpt lat="-25.5889170" lon="-49.0028630">
        <ele>953.4</ele>
        <time>2021-04-17T12:35:27Z</time>
      </trkpt>
      <trkpt lat="-25.5889070" lon="-49.0028730">
        <ele>953.6</ele>
        <time>2021-04-17T12:35:28Z</time>
      </trkpt>
      <trkpt lat="-25.5888970" lon="-49.0028820">
        <ele>953.8</ele>
        <time>2021-04-17T12:35:29Z</time>
      </trkpt>
      <trkpt lat="-25.5888820" lon="-49.0029050">
        <ele>954.2</ele>
        <time>2021-04-17T12:35:31Z</time>
      </trkpt>
      <trkpt lat="-25.5888770" lon="-49.0029190">
        <ele>954.4</ele>
        <time>2021-04-17T12:35:32Z</time>
      </trkpt>
      <trkpt lat="-25.5888710" lon="-49.0029320">
        <ele>954.8</ele>
        <time>2021-04-17T12:35:33Z</time>
      </trkpt>
      <trkpt lat="-25.5888560" lon="-49.0029590">
        <ele>955.2</ele>
        <time>2021-04-17T12:35:35Z</time>
      </trkpt>
      <trkpt lat="-25.5888370" lon="-49.0029840">
        <ele>955.6</ele>
        <time>2021-04-17T12:35:37Z</time>
      </trkpt>
      <trkpt lat="-25.5888260" lon="-49.0029940">
        <ele>956.0</ele>
        <time>2021-04-17T12:35:38Z</time>
      </trkpt>
      <trkpt lat="-25.5888130" lon="-49.0030030">
        <ele>956.2</ele>
        <time>2021-04-17T12:35:39Z</time>
      </trkpt>
      <trkpt lat="-25.5887880" lon="-49.0030220">
        <ele>956.6</ele>
        <time>2021-04-17T12:35:41Z</time>
      </trkpt>
      <trkpt lat="-25.5887690" lon="-49.0030450">
        <ele>957.0</ele>
        <time>2021-04-17T12:35:43Z</time>
      </trkpt>
      <trkpt lat="-25.5887510" lon="-49.0030650">
        <ele>957.4</ele>
        <time>2021-04-17T12:35:45Z</time>
      </trkpt>
      <trkpt lat="-25.5887410" lon="-49.0030740">
        <ele>957.4</ele>
        <time>2021-04-17T12:35:46Z</time>
      </trkpt>
      <trkpt lat="-25.5887330" lon="-49.0030860">
        <ele>957.8</ele>
        <time>2021-04-17T12:35:47Z</time>
      </trkpt>
      <trkpt lat="-25.5887200" lon="-49.0031090">
        <ele>958.0</ele>
        <time>2021-04-17T12:35:49Z</time>
      </trkpt>
      <trkpt lat="-25.5887130" lon="-49.0031190">
        <ele>958.2</ele>
        <time>2021-04-17T12:35:50Z</time>
      </trkpt>
      <trkpt lat="-25.5887080" lon="-49.0031300">
        <ele>958.4</ele>
        <time>2021-04-17T12:35:51Z</time>
      </trkpt>
      <trkpt lat="-25.5886950" lon="-49.0031520">
        <ele>958.6</ele>
        <time>2021-04-17T12:35:53Z</time>
      </trkpt>
      <trkpt lat="-25.5886900" lon="-49.0031630">
        <ele>958.8</ele>
        <time>2021-04-17T12:35:54Z</time>
      </trkpt>
      <trkpt lat="-25.5886830" lon="-49.0031720">
        <ele>959.2</ele>
        <time>2021-04-17T12:35:55Z</time>
      </trkpt>
      <trkpt lat="-25.5886730" lon="-49.0031800">
        <ele>959.4</ele>
        <time>2021-04-17T12:35:56Z</time>
      </trkpt>
      <trkpt lat="-25.5886660" lon="-49.0031870">
        <ele>959.6</ele>
        <time>2021-04-17T12:35:57Z</time>
      </trkpt>
      <trkpt lat="-25.5886510" lon="-49.0032060">
        <ele>960.0</ele>
        <time>2021-04-17T12:35:59Z</time>
      </trkpt>
      <trkpt lat="-25.5886420" lon="-49.0032170">
        <ele>960.2</ele>
        <time>2021-04-17T12:36:00Z</time>
      </trkpt>
      <trkpt lat="-25.5886350" lon="-49.0032260">
        <ele>960.4</ele>
        <time>2021-04-17T12:36:01Z</time>
      </trkpt>
      <trkpt lat="-25.5886280" lon="-49.0032350">
        <ele>960.4</ele>
        <time>2021-04-17T12:36:02Z</time>
      </trkpt>
      <trkpt lat="-25.5886210" lon="-49.0032430">
        <ele>960.8</ele>
        <time>2021-04-17T12:36:03Z</time>
      </trkpt>
      <trkpt lat="-25.5886090" lon="-49.0032630">
        <ele>961.2</ele>
        <time>2021-04-17T12:36:05Z</time>
      </trkpt>
      <trkpt lat="-25.5885940" lon="-49.0032850">
        <ele>961.6</ele>
        <time>2021-04-17T12:36:07Z</time>
      </trkpt>
      <trkpt lat="-25.5885830" lon="-49.0032940">
        <ele>961.8</ele>
        <time>2021-04-17T12:36:08Z</time>
      </trkpt>
      <trkpt lat="-25.5885710" lon="-49.0033010">
        <ele>962.0</ele>
        <time>2021-04-17T12:36:09Z</time>
      </trkpt>
      <trkpt lat="-25.5885520" lon="-49.0033150">
        <ele>962.4</ele>
        <time>2021-04-17T12:36:11Z</time>
      </trkpt>
      <trkpt lat="-25.5885350" lon="-49.0033340">
        <ele>962.8</ele>
        <time>2021-04-17T12:36:13Z</time>
      </trkpt>
      <trkpt lat="-25.5885170" lon="-49.0033530">
        <ele>963.2</ele>
        <time>2021-04-17T12:36:15Z</time>
      </trkpt>
      <trkpt lat="-25.5885030" lon="-49.0033760">
        <ele>963.8</ele>
        <time>2021-04-17T12:36:17Z</time>
      </trkpt>
      <trkpt lat="-25.5884970" lon="-49.0033890">
        <ele>964.0</ele>
        <time>2021-04-17T12:36:18Z</time>
      </trkpt>
      <trkpt lat="-25.5884890" lon="-49.0034020">
        <ele>964.2</ele>
        <time>2021-04-17T12:36:19Z</time>
      </trkpt>
      <trkpt lat="-25.5884680" lon="-49.0034200">
        <ele>964.6</ele>
        <time>2021-04-17T12:36:21Z</time>
      </trkpt>
      <trkpt lat="-25.5884480" lon="-49.0034360">
        <ele>965.0</ele>
        <time>2021-04-17T12:36:23Z</time>
      </trkpt>
      <trkpt lat="-25.5884260" lon="-49.0034540">
        <ele>965.4</ele>
        <time>2021-04-17T12:36:25Z</time>
      </trkpt>
      <trkpt lat="-25.5884050" lon="-49.0034780">
        <ele>965.8</ele>
        <time>2021-04-17T12:36:27Z</time>
      </trkpt>
      <trkpt lat="-25.5883900" lon="-49.0034990">
        <ele>966.2</ele>
        <time>2021-04-17T12:36:29Z</time>
      </trkpt>
      <trkpt lat="-25.5883760" lon="-49.0035220">
        <ele>966.6</ele>
        <time>2021-04-17T12:36:31Z</time>
      </trkpt>
      <trkpt lat="-25.5883660" lon="-49.0035410">
        <ele>967.0</ele>
        <time>2021-04-17T12:36:33Z</time>
      </trkpt>
      <trkpt lat="-25.5883560" lon="-49.0035540">
        <ele>967.4</ele>
        <time>2021-04-17T12:36:35Z</time>
      </trkpt>
      <trkpt lat="-25.5883520" lon="-49.0035630">
        <ele>967.4</ele>
        <time>2021-04-17T12:36:36Z</time>
      </trkpt>
      <trkpt lat="-25.5883450" lon="-49.0035710">
        <ele>967.6</ele>
        <time>2021-04-17T12:36:37Z</time>
      </trkpt>
      <trkpt lat="-25.5883310" lon="-49.0035890">
        <ele>967.8</ele>
        <time>2021-04-17T12:36:39Z</time>
      </trkpt>
      <trkpt lat="-25.5883220" lon="-49.0036060">
        <ele>968.0</ele>
        <time>2021-04-17T12:36:41Z</time>
      </trkpt>
      <trkpt lat="-25.5883190" lon="-49.0036170">
        <ele>968.2</ele>
        <time>2021-04-17T12:36:43Z</time>
      </trkpt>
      <trkpt lat="-25.5883170" lon="-49.0036210">
        <ele>968.2</ele>
        <time>2021-04-17T12:36:45Z</time>
      </trkpt>
      <trkpt lat="-25.5883140" lon="-49.0036260">
        <ele>968.2</ele>
        <time>2021-04-17T12:36:47Z</time>
      </trkpt>
      <trkpt lat="-25.5883140" lon="-49.0036330">
        <ele>968.2</ele>
        <time>2021-04-17T12:36:49Z</time>
      </trkpt>
      <trkpt lat="-25.5883160" lon="-49.0036370">
        <ele>968.2</ele>
        <time>2021-04-17T12:36:51Z</time>
      </trkpt>
      <trkpt lat="-25.5883180" lon="-49.0036410">
        <ele>968.2</ele>
        <time>2021-04-17T12:36:53Z</time>
      </trkpt>
      <trkpt lat="-25.5883190" lon="-49.0036430">
        <ele>968.0</ele>
        <time>2021-04-17T12:36:55Z</time>
      </trkpt>
      <trkpt lat="-25.5883190" lon="-49.0036430">
        <ele>968.0</ele>
        <time>2021-04-17T12:36:57Z</time>
      </trkpt>
      <trkpt lat="-25.5883190" lon="-49.0036430">
        <ele>968.0</ele>
        <time>2021-04-17T12:36:59Z</time>
      </trkpt>
      <trkpt lat="-25.5883190" lon="-49.0036430">
        <ele>968.0</ele>
        <time>2021-04-17T12:37:01Z</time>
      </trkpt>
      <trkpt lat="-25.5883190" lon="-49.0036420">
        <ele>968.0</ele>
        <time>2021-04-17T12:37:03Z</time>
      </trkpt>
      <trkpt lat="-25.5883220" lon="-49.0036410">
        <ele>968.0</ele>
        <time>2021-04-17T12:37:05Z</time>
      </trkpt>
      <trkpt lat="-25.5883240" lon="-49.0036420">
        <ele>968.0</ele>
        <time>2021-04-17T12:37:07Z</time>
      </trkpt>
      <trkpt lat="-25.5883250" lon="-49.0036420">
        <ele>968.0</ele>
        <time>2021-04-17T12:37:09Z</time>
      </trkpt>
      <trkpt lat="-25.5883250" lon="-49.0036420">
        <ele>968.0</ele>
        <time>2021-04-17T12:37:11Z</time>
      </trkpt>
      <trkpt lat="-25.5883250" lon="-49.0036420">
        <ele>968.0</ele>
        <time>2021-04-17T12:37:13Z</time>
      </trkpt>
      <trkpt lat="-25.5883250" lon="-49.0036420">
        <ele>968.0</ele>
        <time>2021-04-17T12:37:15Z</time>
      </trkpt>
      <trkpt lat="-25.5883250" lon="-49.0036410">
        <ele>968.0</ele>
        <time>2021-04-17T12:37:17Z</time>
      </trkpt>
      <trkpt lat="-25.5883240" lon="-49.0036390">
        <ele>968.0</ele>
        <time>2021-04-17T12:37:19Z</time>
      </trkpt>
      <trkpt lat="-25.5883210" lon="-49.0036350">
        <ele>968.0</ele>
        <time>2021-04-17T12:37:20Z</time>
      </trkpt>
      <trkpt lat="-25.5883200" lon="-49.0036340">
        <ele>968.0</ele>
        <time>2021-04-17T12:37:21Z</time>
      </trkpt>
      <trkpt lat="-25.5883200" lon="-49.0036350">
        <ele>968.0</ele>
        <time>2021-04-17T12:37:23Z</time>
      </trkpt>
      <trkpt lat="-25.5883180" lon="-49.0036330">
        <ele>967.8</ele>
        <time>2021-04-17T12:37:25Z</time>
      </trkpt>
      <trkpt lat="-25.5883160" lon="-49.0036350">
        <ele>967.8</ele>
        <time>2021-04-17T12:37:27Z</time>
      </trkpt>
      <trkpt lat="-25.5883150" lon="-49.0036340">
        <ele>967.8</ele>
        <time>2021-04-17T12:37:29Z</time>
      </trkpt>
      <trkpt lat="-25.5883150" lon="-49.0036340">
        <ele>967.8</ele>
        <time>2021-04-17T12:37:30Z</time>
      </trkpt>
      <trkpt lat="-25.5883150" lon="-49.0036350">
        <ele>967.8</ele>
        <time>2021-04-17T12:37:31Z</time>
      </trkpt>
      <trkpt lat="-25.5883150" lon="-49.0036350">
        <ele>967.8</ele>
        <time>2021-04-17T12:37:33Z</time>
      </trkpt>
      <trkpt lat="-25.5883150" lon="-49.0036350">
        <ele>967.8</ele>
        <time>2021-04-17T12:37:35Z</time>
      </trkpt>
      <trkpt lat="-25.5883160" lon="-49.0036350">
        <ele>967.8</ele>
        <time>2021-04-17T12:37:37Z</time>
      </trkpt>
      <trkpt lat="-25.5883160" lon="-49.0036350">
        <ele>968.0</ele>
        <time>2021-04-17T12:37:39Z</time>
      </trkpt>
      <trkpt lat="-25.5883160" lon="-49.0036350">
        <ele>968.0</ele>
        <time>2021-04-17T12:37:41Z</time>
      </trkpt>
      <trkpt lat="-25.5883160" lon="-49.0036350">
        <ele>968.0</ele>
        <time>2021-04-17T12:37:42Z</time>
      </trkpt>
      <trkpt lat="-25.5883160" lon="-49.0036350">
        <ele>968.0</ele>
        <time>2021-04-17T12:37:43Z</time>
      </trkpt>
      <trkpt lat="-25.5883160" lon="-49.0036350">
        <ele>968.0</ele>
        <time>2021-04-17T12:37:45Z</time>
      </trkpt>
      <trkpt lat="-25.5883150" lon="-49.0036350">
        <ele>968.0</ele>
        <time>2021-04-17T12:37:47Z</time>
      </trkpt>
      <trkpt lat="-25.5883140" lon="-49.0036360">
        <ele>968.0</ele>
        <time>2021-04-17T12:37:49Z</time>
      </trkpt>
      <trkpt lat="-25.5883120" lon="-49.0036360">
        <ele>968.0</ele>
        <time>2021-04-17T12:37:51Z</time>
      </trkpt>
      <trkpt lat="-25.5883110" lon="-49.0036370">
        <ele>968.0</ele>
        <time>2021-04-17T12:37:52Z</time>
      </trkpt>
      <trkpt lat="-25.5883110" lon="-49.0036380">
        <ele>968.0</ele>
        <time>2021-04-17T12:37:53Z</time>
      </trkpt>
      <trkpt lat="-25.5883080" lon="-49.0036390">
        <ele>968.0</ele>
        <time>2021-04-17T12:37:55Z</time>
      </trkpt>
      <trkpt lat="-25.5883040" lon="-49.0036380">
        <ele>968.0</ele>
        <time>2021-04-17T12:37:57Z</time>
      </trkpt>
      <trkpt lat="-25.5883040" lon="-49.0036400">
        <ele>968.0</ele>
        <time>2021-04-17T12:37:59Z</time>
      </trkpt>
      <trkpt lat="-25.5883020" lon="-49.0036410">
        <ele>968.0</ele>
        <time>2021-04-17T12:38:01Z</time>
      </trkpt>
      <trkpt lat="-25.5883000" lon="-49.0036410">
        <ele>968.0</ele>
        <time>2021-04-17T12:38:03Z</time>
      </trkpt>
      <trkpt lat="-25.5882970" lon="-49.0036410">
        <ele>968.0</ele>
        <time>2021-04-17T12:38:05Z</time>
      </trkpt>
      <trkpt lat="-25.5882950" lon="-49.0036430">
        <ele>968.0</ele>
        <time>2021-04-17T12:38:07Z</time>
      </trkpt>
      <trkpt lat="-25.5882940" lon="-49.0036470">
        <ele>968.0</ele>
        <time>2021-04-17T12:38:09Z</time>
      </trkpt>
      <trkpt lat="-25.5882940" lon="-49.0036500">
        <ele>968.0</ele>
        <time>2021-04-17T12:38:11Z</time>
      </trkpt>
      <trkpt lat="-25.5882940" lon="-49.0036520">
        <ele>968.0</ele>
        <time>2021-04-17T12:38:13Z</time>
      </trkpt>
      <trkpt lat="-25.5882930" lon="-49.0036520">
        <ele>968.2</ele>
        <time>2021-04-17T12:38:15Z</time>
      </trkpt>
      <trkpt lat="-25.5882920" lon="-49.0036540">
        <ele>968.2</ele>
        <time>2021-04-17T12:38:17Z</time>
      </trkpt>
      <trkpt lat="-25.5882900" lon="-49.0036540">
        <ele>968.2</ele>
        <time>2021-04-17T12:38:19Z</time>
      </trkpt>
      <trkpt lat="-25.5882890" lon="-49.0036540">
        <ele>968.2</ele>
        <time>2021-04-17T12:38:21Z</time>
      </trkpt>
      <trkpt lat="-25.5882890" lon="-49.0036550">
        <ele>968.2</ele>
        <time>2021-04-17T12:38:23Z</time>
      </trkpt>
      <trkpt lat="-25.5882900" lon="-49.0036550">
        <ele>968.0</ele>
        <time>2021-04-17T12:38:25Z</time>
      </trkpt>
      <trkpt lat="-25.5882900" lon="-49.0036540">
        <ele>968.0</ele>
        <time>2021-04-17T12:38:27Z</time>
      </trkpt>
      <trkpt lat="-25.5882890" lon="-49.0036530">
        <ele>968.0</ele>
        <time>2021-04-17T12:38:29Z</time>
      </trkpt>
      <trkpt lat="-25.5882870" lon="-49.0036530">
        <ele>968.0</ele>
        <time>2021-04-17T12:38:31Z</time>
      </trkpt>
      <trkpt lat="-25.5882860" lon="-49.0036510">
        <ele>968.0</ele>
        <time>2021-04-17T12:38:33Z</time>
      </trkpt>
      <trkpt lat="-25.5882860" lon="-49.0036510">
        <ele>968.0</ele>
        <time>2021-04-17T12:38:35Z</time>
      </trkpt>
      <trkpt lat="-25.5882850" lon="-49.0036510">
        <ele>968.0</ele>
        <time>2021-04-17T12:38:36Z</time>
      </trkpt>
      <trkpt lat="-25.5882850" lon="-49.0036510">
        <ele>968.0</ele>
        <time>2021-04-17T12:38:37Z</time>
      </trkpt>
      <trkpt lat="-25.5882860" lon="-49.0036510">
        <ele>968.0</ele>
        <time>2021-04-17T12:38:39Z</time>
      </trkpt>
      <trkpt lat="-25.5882860" lon="-49.0036510">
        <ele>968.0</ele>
        <time>2021-04-17T12:38:41Z</time>
      </trkpt>
      <trkpt lat="-25.5882860" lon="-49.0036510">
        <ele>968.0</ele>
        <time>2021-04-17T12:38:43Z</time>
      </trkpt>
      <trkpt lat="-25.5882860" lon="-49.0036510">
        <ele>968.0</ele>
        <time>2021-04-17T12:38:45Z</time>
      </trkpt>
      <trkpt lat="-25.5882860" lon="-49.0036510">
        <ele>968.0</ele>
        <time>2021-04-17T12:38:47Z</time>
      </trkpt>
      <trkpt lat="-25.5882840" lon="-49.0036510">
        <ele>968.0</ele>
        <time>2021-04-17T12:38:49Z</time>
      </trkpt>
      <trkpt lat="-25.5882820" lon="-49.0036510">
        <ele>968.0</ele>
        <time>2021-04-17T12:38:51Z</time>
      </trkpt>
      <trkpt lat="-25.5882810" lon="-49.0036520">
        <ele>968.0</ele>
        <time>2021-04-17T12:38:52Z</time>
      </trkpt>
      <trkpt lat="-25.5882820" lon="-49.0036530">
        <ele>968.0</ele>
        <time>2021-04-17T12:38:53Z</time>
      </trkpt>
      <trkpt lat="-25.5882840" lon="-49.0036530">
        <ele>968.0</ele>
        <time>2021-04-17T12:38:55Z</time>
      </trkpt>
      <trkpt lat="-25.5882840" lon="-49.0036530">
        <ele>968.0</ele>
        <time>2021-04-17T12:38:57Z</time>
      </trkpt>
      <trkpt lat="-25.5882850" lon="-49.0036540">
        <ele>968.0</ele>
        <time>2021-04-17T12:38:59Z</time>
      </trkpt>
      <trkpt lat="-25.5882860" lon="-49.0036540">
        <ele>968.0</ele>
        <time>2021-04-17T12:39:01Z</time>
      </trkpt>
      <trkpt lat="-25.5882890" lon="-49.0036550">
        <ele>968.0</ele>
        <time>2021-04-17T12:39:03Z</time>
      </trkpt>
      <trkpt lat="-25.5882920" lon="-49.0036580">
        <ele>968.0</ele>
        <time>2021-04-17T12:39:04Z</time>
      </trkpt>
      <trkpt lat="-25.5882950" lon="-49.0036630">
        <ele>968.0</ele>
        <time>2021-04-17T12:39:05Z</time>
      </trkpt>
      <trkpt lat="-25.5882990" lon="-49.0036780">
        <ele>968.0</ele>
        <time>2021-04-17T12:39:07Z</time>
      </trkpt>
      <trkpt lat="-25.5882970" lon="-49.0036940">
        <ele>968.0</ele>
        <time>2021-04-17T12:39:09Z</time>
      </trkpt>
      <trkpt lat="-25.5882980" lon="-49.0037150">
        <ele>968.0</ele>
        <time>2021-04-17T12:39:11Z</time>
      </trkpt>
      <trkpt lat="-25.5882980" lon="-49.0037300">
        <ele>968.0</ele>
        <time>2021-04-17T12:39:12Z</time>
      </trkpt>
      <trkpt lat="-25.5883030" lon="-49.0037580">
        <ele>967.8</ele>
        <time>2021-04-17T12:39:13Z</time>
      </trkpt>
      <trkpt lat="-25.5883030" lon="-49.0037840">
        <ele>967.8</ele>
        <time>2021-04-17T12:39:14Z</time>
      </trkpt>
      <trkpt lat="-25.5883060" lon="-49.0038200">
        <ele>967.8</ele>
        <time>2021-04-17T12:39:15Z</time>
      </trkpt>
      <trkpt lat="-25.5883110" lon="-49.0039010">
        <ele>967.8</ele>
        <time>2021-04-17T12:39:17Z</time>
      </trkpt>
      <trkpt lat="-25.5883130" lon="-49.0039940">
        <ele>967.8</ele>
        <time>2021-04-17T12:39:19Z</time>
      </trkpt>
      <trkpt lat="-25.5883050" lon="-49.0041140">
        <ele>967.8</ele>
        <time>2021-04-17T12:39:21Z</time>
      </trkpt>
      <trkpt lat="-25.5882810" lon="-49.0042430">
        <ele>967.6</ele>
        <time>2021-04-17T12:39:23Z</time>
      </trkpt>
      <trkpt lat="-25.5882490" lon="-49.0043630">
        <ele>967.2</ele>
        <time>2021-04-17T12:39:25Z</time>
      </trkpt>
      <trkpt lat="-25.5882260" lon="-49.0044210">
        <ele>967.0</ele>
        <time>2021-04-17T12:39:26Z</time>
      </trkpt>
      <trkpt lat="-25.5882020" lon="-49.0044790">
        <ele>966.8</ele>
        <time>2021-04-17T12:39:27Z</time>
      </trkpt>
      <trkpt lat="-25.5881800" lon="-49.0045400">
        <ele>966.8</ele>
        <time>2021-04-17T12:39:28Z</time>
      </trkpt>
      <trkpt lat="-25.5881510" lon="-49.0045970">
        <ele>966.4</ele>
        <time>2021-04-17T12:39:29Z</time>
      </trkpt>
      <trkpt lat="-25.5880920" lon="-49.0047010">
        <ele>965.6</ele>
        <time>2021-04-17T12:39:31Z</time>
      </trkpt>
      <trkpt lat="-25.5880380" lon="-49.0048050">
        <ele>965.2</ele>
        <time>2021-04-17T12:39:33Z</time>
      </trkpt>
      <trkpt lat="-25.5880110" lon="-49.0048570">
        <ele>965.2</ele>
        <time>2021-04-17T12:39:34Z</time>
      </trkpt>
      <trkpt lat="-25.5879860" lon="-49.0049050">
        <ele>965.0</ele>
        <time>2021-04-17T12:39:35Z</time>
      </trkpt>
      <trkpt lat="-25.5879420" lon="-49.0049840">
        <ele>965.0</ele>
        <time>2021-04-17T12:39:37Z</time>
      </trkpt>
      <trkpt lat="-25.5879250" lon="-49.0050180">
        <ele>965.0</ele>
        <time>2021-04-17T12:39:38Z</time>
      </trkpt>
      <trkpt lat="-25.5879110" lon="-49.0050510">
        <ele>965.0</ele>
        <time>2021-04-17T12:39:39Z</time>
      </trkpt>
      <trkpt lat="-25.5878800" lon="-49.0051200">
        <ele>965.0</ele>
        <time>2021-04-17T12:39:41Z</time>
      </trkpt>
      <trkpt lat="-25.5878360" lon="-49.0051820">
        <ele>965.0</ele>
        <time>2021-04-17T12:39:43Z</time>
      </trkpt>
      <trkpt lat="-25.5877840" lon="-49.0052390">
        <ele>965.0</ele>
        <time>2021-04-17T12:39:45Z</time>
      </trkpt>
      <trkpt lat="-25.5877280" lon="-49.0052840">
        <ele>965.2</ele>
        <time>2021-04-17T12:39:47Z</time>
      </trkpt>
      <trkpt lat="-25.5876710" lon="-49.0053150">
        <ele>965.6</ele>
        <time>2021-04-17T12:39:49Z</time>
      </trkpt>
      <trkpt lat="-25.5876170" lon="-49.0053340">
        <ele>966.0</ele>
        <time>2021-04-17T12:39:51Z</time>
      </trkpt>
      <trkpt lat="-25.5875560" lon="-49.0053550">
        <ele>966.4</ele>
        <time>2021-04-17T12:39:53Z</time>
      </trkpt>
      <trkpt lat="-25.5874820" lon="-49.0053730">
        <ele>966.4</ele>
        <time>2021-04-17T12:39:55Z</time>
      </trkpt>
      <trkpt lat="-25.5874380" lon="-49.0053770">
        <ele>966.4</ele>
        <time>2021-04-17T12:39:56Z</time>
      </trkpt>
      <trkpt lat="-25.5873900" lon="-49.0053780">
        <ele>966.6</ele>
        <time>2021-04-17T12:39:57Z</time>
      </trkpt>
      <trkpt lat="-25.5872780" lon="-49.0053810">
        <ele>966.6</ele>
        <time>2021-04-17T12:39:59Z</time>
      </trkpt>
      <trkpt lat="-25.5871490" lon="-49.0053950">
        <ele>966.6</ele>
        <time>2021-04-17T12:40:01Z</time>
      </trkpt>
      <trkpt lat="-25.5870860" lon="-49.0054010">
        <ele>966.6</ele>
        <time>2021-04-17T12:40:02Z</time>
      </trkpt>
      <trkpt lat="-25.5870220" lon="-49.0054120">
        <ele>966.6</ele>
        <time>2021-04-17T12:40:03Z</time>
      </trkpt>
      <trkpt lat="-25.5868820" lon="-49.0054220">
        <ele>966.2</ele>
        <time>2021-04-17T12:40:05Z</time>
      </trkpt>
      <trkpt lat="-25.5868050" lon="-49.0054350">
        <ele>965.6</ele>
        <time>2021-04-17T12:40:06Z</time>
      </trkpt>
      <trkpt lat="-25.5867320" lon="-49.0054550">
        <ele>965.2</ele>
        <time>2021-04-17T12:40:07Z</time>
      </trkpt>
      <trkpt lat="-25.5866600" lon="-49.0054830">
        <ele>964.6</ele>
        <time>2021-04-17T12:40:08Z</time>
      </trkpt>
      <trkpt lat="-25.5865930" lon="-49.0055200">
        <ele>964.0</ele>
        <time>2021-04-17T12:40:09Z</time>
      </trkpt>
      <trkpt lat="-25.5865240" lon="-49.0055660">
        <ele>963.4</ele>
        <time>2021-04-17T12:40:10Z</time>
      </trkpt>
      <trkpt lat="-25.5864790" lon="-49.0056130">
        <ele>962.6</ele>
        <time>2021-04-17T12:40:11Z</time>
      </trkpt>
      <trkpt lat="-25.5864390" lon="-49.0056620">
        <ele>962.2</ele>
        <time>2021-04-17T12:40:12Z</time>
      </trkpt>
      <trkpt lat="-25.5864030" lon="-49.0057210">
        <ele>962.0</ele>
        <time>2021-04-17T12:40:13Z</time>
      </trkpt>
      <trkpt lat="-25.5863250" lon="-49.0058620">
        <ele>961.2</ele>
        <time>2021-04-17T12:40:15Z</time>
      </trkpt>
      <trkpt lat="-25.5862970" lon="-49.0059600">
        <ele>961.0</ele>
        <time>2021-04-17T12:40:16Z</time>
      </trkpt>
      <trkpt lat="-25.5862710" lon="-49.0060700">
        <ele>960.8</ele>
        <time>2021-04-17T12:40:17Z</time>
      </trkpt>
      <trkpt lat="-25.5862310" lon="-49.0061860">
        <ele>960.6</ele>
        <time>2021-04-17T12:40:18Z</time>
      </trkpt>
      <trkpt lat="-25.5861980" lon="-49.0062910">
        <ele>960.0</ele>
        <time>2021-04-17T12:40:19Z</time>
      </trkpt>
      <trkpt lat="-25.5861540" lon="-49.0063940">
        <ele>959.8</ele>
        <time>2021-04-17T12:40:20Z</time>
      </trkpt>
      <trkpt lat="-25.5861080" lon="-49.0064920">
        <ele>959.6</ele>
        <time>2021-04-17T12:40:21Z</time>
      </trkpt>
      <trkpt lat="-25.5860500" lon="-49.0067030">
        <ele>958.8</ele>
        <time>2021-04-17T12:40:23Z</time>
      </trkpt>
      <trkpt lat="-25.5859580" lon="-49.0069280">
        <ele>958.0</ele>
        <time>2021-04-17T12:40:25Z</time>
      </trkpt>
      <trkpt lat="-25.5859200" lon="-49.0070510">
        <ele>957.8</ele>
        <time>2021-04-17T12:40:26Z</time>
      </trkpt>
      <trkpt lat="-25.5858780" lon="-49.0071700">
        <ele>957.4</ele>
        <time>2021-04-17T12:40:27Z</time>
      </trkpt>
      <trkpt lat="-25.5858660" lon="-49.0073030">
        <ele>956.8</ele>
        <time>2021-04-17T12:40:28Z</time>
      </trkpt>
      <trkpt lat="-25.5858540" lon="-49.0074340">
        <ele>956.4</ele>
        <time>2021-04-17T12:40:29Z</time>
      </trkpt>
      <trkpt lat="-25.5858260" lon="-49.0076830">
        <ele>955.2</ele>
        <time>2021-04-17T12:40:31Z</time>
      </trkpt>
      <trkpt lat="-25.5858090" lon="-49.0077840">
        <ele>954.4</ele>
        <time>2021-04-17T12:40:32Z</time>
      </trkpt>
      <trkpt lat="-25.5857920" lon="-49.0078710">
        <ele>953.4</ele>
        <time>2021-04-17T12:40:33Z</time>
      </trkpt>
      <trkpt lat="-25.5857600" lon="-49.0080150">
        <ele>952.2</ele>
        <time>2021-04-17T12:40:35Z</time>
      </trkpt>
      <trkpt lat="-25.5857510" lon="-49.0080640">
        <ele>951.8</ele>
        <time>2021-04-17T12:40:36Z</time>
      </trkpt>
      <trkpt lat="-25.5857440" lon="-49.0081070">
        <ele>951.6</ele>
        <time>2021-04-17T12:40:37Z</time>
      </trkpt>
      <trkpt lat="-25.5857450" lon="-49.0081790">
        <ele>951.6</ele>
        <time>2021-04-17T12:40:39Z</time>
      </trkpt>
      <trkpt lat="-25.5857460" lon="-49.0082110">
        <ele>951.6</ele>
        <time>2021-04-17T12:40:40Z</time>
      </trkpt>
      <trkpt lat="-25.5857440" lon="-49.0082430">
        <ele>951.6</ele>
        <time>2021-04-17T12:40:41Z</time>
      </trkpt>
      <trkpt lat="-25.5857260" lon="-49.0083030">
        <ele>951.6</ele>
        <time>2021-04-17T12:40:43Z</time>
      </trkpt>
      <trkpt lat="-25.5856980" lon="-49.0083660">
        <ele>952.0</ele>
        <time>2021-04-17T12:40:45Z</time>
      </trkpt>
      <trkpt lat="-25.5856840" lon="-49.0083950">
        <ele>952.6</ele>
        <time>2021-04-17T12:40:46Z</time>
      </trkpt>
      <trkpt lat="-25.5856690" lon="-49.0084270">
        <ele>953.2</ele>
        <time>2021-04-17T12:40:47Z</time>
      </trkpt>
      <trkpt lat="-25.5856330" lon="-49.0084840">
        <ele>954.0</ele>
        <time>2021-04-17T12:40:49Z</time>
      </trkpt>
      <trkpt lat="-25.5856110" lon="-49.0085400">
        <ele>954.2</ele>
        <time>2021-04-17T12:40:51Z</time>
      </trkpt>
      <trkpt lat="-25.5856010" lon="-49.0085680">
        <ele>954.2</ele>
        <time>2021-04-17T12:40:52Z</time>
      </trkpt>
      <trkpt lat="-25.5855910" lon="-49.0085950">
        <ele>954.4</ele>
        <time>2021-04-17T12:40:53Z</time>
      </trkpt>
      <trkpt lat="-25.5855680" lon="-49.0086430">
        <ele>954.6</ele>
        <time>2021-04-17T12:40:55Z</time>
      </trkpt>
      <trkpt lat="-25.5855490" lon="-49.0086920">
        <ele>954.8</ele>
        <time>2021-04-17T12:40:57Z</time>
      </trkpt>
      <trkpt lat="-25.5855410" lon="-49.0087180">
        <ele>955.0</ele>
        <time>2021-04-17T12:40:58Z</time>
      </trkpt>
      <trkpt lat="-25.5855300" lon="-49.0087440">
        <ele>955.4</ele>
        <time>2021-04-17T12:40:59Z</time>
      </trkpt>
      <trkpt lat="-25.5855080" lon="-49.0087950">
        <ele>955.8</ele>
        <time>2021-04-17T12:41:01Z</time>
      </trkpt>
      <trkpt lat="-25.5854930" lon="-49.0088460">
        <ele>956.2</ele>
        <time>2021-04-17T12:41:03Z</time>
      </trkpt>
      <trkpt lat="-25.5854880" lon="-49.0088730">
        <ele>956.6</ele>
        <time>2021-04-17T12:41:04Z</time>
      </trkpt>
      <trkpt lat="-25.5854810" lon="-49.0088990">
        <ele>957.0</ele>
        <time>2021-04-17T12:41:05Z</time>
      </trkpt>
      <trkpt lat="-25.5854760" lon="-49.0089590">
        <ele>957.6</ele>
        <time>2021-04-17T12:41:07Z</time>
      </trkpt>
      <trkpt lat="-25.5854600" lon="-49.0090270">
        <ele>958.0</ele>
        <time>2021-04-17T12:41:09Z</time>
      </trkpt>
      <trkpt lat="-25.5854530" lon="-49.0090710">
        <ele>958.2</ele>
        <time>2021-04-17T12:41:10Z</time>
      </trkpt>
      <trkpt lat="-25.5854450" lon="-49.0091200">
        <ele>958.2</ele>
        <time>2021-04-17T12:41:11Z</time>
      </trkpt>
      <trkpt lat="-25.5854330" lon="-49.0091740">
        <ele>958.2</ele>
        <time>2021-04-17T12:41:12Z</time>
      </trkpt>
      <trkpt lat="-25.5854240" lon="-49.0092310">
        <ele>958.2</ele>
        <time>2021-04-17T12:41:13Z</time>
      </trkpt>
      <trkpt lat="-25.5854030" lon="-49.0092880">
        <ele>958.2</ele>
        <time>2021-04-17T12:41:14Z</time>
      </trkpt>
      <trkpt lat="-25.5853720" lon="-49.0093440">
        <ele>958.2</ele>
        <time>2021-04-17T12:41:15Z</time>
      </trkpt>
      <trkpt lat="-25.5852990" lon="-49.0094610">
        <ele>958.2</ele>
        <time>2021-04-17T12:41:17Z</time>
      </trkpt>
      <trkpt lat="-25.5852010" lon="-49.0095840">
        <ele>958.2</ele>
        <time>2021-04-17T12:41:19Z</time>
      </trkpt>
      <trkpt lat="-25.5850770" lon="-49.0097140">
        <ele>957.8</ele>
        <time>2021-04-17T12:41:21Z</time>
      </trkpt>
      <trkpt lat="-25.5849530" lon="-49.0098530">
        <ele>957.0</ele>
        <time>2021-04-17T12:41:23Z</time>
      </trkpt>
      <trkpt lat="-25.5848990" lon="-49.0099410">
        <ele>956.8</ele>
        <time>2021-04-17T12:41:24Z</time>
      </trkpt>
      <trkpt lat="-25.5848440" lon="-49.0100380">
        <ele>956.4</ele>
        <time>2021-04-17T12:41:25Z</time>
      </trkpt>
      <trkpt lat="-25.5847470" lon="-49.0102400">
        <ele>956.0</ele>
        <time>2021-04-17T12:41:27Z</time>
      </trkpt>
      <trkpt lat="-25.5847080" lon="-49.0103320">
        <ele>955.6</ele>
        <time>2021-04-17T12:41:28Z</time>
      </trkpt>
      <trkpt lat="-25.5846610" lon="-49.0104070">
        <ele>954.8</ele>
        <time>2021-04-17T12:41:29Z</time>
      </trkpt>
      <trkpt lat="-25.5846000" lon="-49.0104610">
        <ele>953.4</ele>
        <time>2021-04-17T12:41:30Z</time>
      </trkpt>
      <trkpt lat="-25.5845360" lon="-49.0105010">
        <ele>952.2</ele>
        <time>2021-04-17T12:41:31Z</time>
      </trkpt>
      <trkpt lat="-25.5844720" lon="-49.0105250">
        <ele>951.2</ele>
        <time>2021-04-17T12:41:32Z</time>
      </trkpt>
      <trkpt lat="-25.5844170" lon="-49.0105440">
        <ele>949.8</ele>
        <time>2021-04-17T12:41:33Z</time>
      </trkpt>
      <trkpt lat="-25.5843700" lon="-49.0105680">
        <ele>948.8</ele>
        <time>2021-04-17T12:41:34Z</time>
      </trkpt>
      <trkpt lat="-25.5843300" lon="-49.0106020">
        <ele>947.8</ele>
        <time>2021-04-17T12:41:35Z</time>
      </trkpt>
      <trkpt lat="-25.5842570" lon="-49.0106730">
        <ele>946.4</ele>
        <time>2021-04-17T12:41:37Z</time>
      </trkpt>
      <trkpt lat="-25.5842290" lon="-49.0107040">
        <ele>946.2</ele>
        <time>2021-04-17T12:41:38Z</time>
      </trkpt>
      <trkpt lat="-25.5842010" lon="-49.0107340">
        <ele>946.2</ele>
        <time>2021-04-17T12:41:39Z</time>
      </trkpt>
      <trkpt lat="-25.5841730" lon="-49.0107610">
        <ele>946.0</ele>
        <time>2021-04-17T12:41:40Z</time>
      </trkpt>
      <trkpt lat="-25.5841510" lon="-49.0107920">
        <ele>946.0</ele>
        <time>2021-04-17T12:41:41Z</time>
      </trkpt>
      <trkpt lat="-25.5841250" lon="-49.0108580">
        <ele>946.0</ele>
        <time>2021-04-17T12:41:43Z</time>
      </trkpt>
      <trkpt lat="-25.5840920" lon="-49.0109250">
        <ele>946.0</ele>
        <time>2021-04-17T12:41:45Z</time>
      </trkpt>
      <trkpt lat="-25.5840600" lon="-49.0109980">
        <ele>947.4</ele>
        <time>2021-04-17T12:41:47Z</time>
      </trkpt>
      <trkpt lat="-25.5840470" lon="-49.0110310">
        <ele>948.0</ele>
        <time>2021-04-17T12:41:48Z</time>
      </trkpt>
      <trkpt lat="-25.5840370" lon="-49.0110620">
        <ele>948.4</ele>
        <time>2021-04-17T12:41:49Z</time>
      </trkpt>
      <trkpt lat="-25.5840270" lon="-49.0110940">
        <ele>949.2</ele>
        <time>2021-04-17T12:41:50Z</time>
      </trkpt>
      <trkpt lat="-25.5840210" lon="-49.0111240">
        <ele>950.0</ele>
        <time>2021-04-17T12:41:51Z</time>
      </trkpt>
      <trkpt lat="-25.5840180" lon="-49.0111530">
        <ele>950.6</ele>
        <time>2021-04-17T12:41:52Z</time>
      </trkpt>
      <trkpt lat="-25.5840150" lon="-49.0111820">
        <ele>951.0</ele>
        <time>2021-04-17T12:41:53Z</time>
      </trkpt>
      <trkpt lat="-25.5840080" lon="-49.0112420">
        <ele>951.6</ele>
        <time>2021-04-17T12:41:55Z</time>
      </trkpt>
      <trkpt lat="-25.5840100" lon="-49.0112770">
        <ele>951.8</ele>
        <time>2021-04-17T12:41:56Z</time>
      </trkpt>
      <trkpt lat="-25.5840130" lon="-49.0113170">
        <ele>952.0</ele>
        <time>2021-04-17T12:41:57Z</time>
      </trkpt>
      <trkpt lat="-25.5840140" lon="-49.0114140">
        <ele>952.2</ele>
        <time>2021-04-17T12:41:59Z</time>
      </trkpt>
      <trkpt lat="-25.5840000" lon="-49.0114810">
        <ele>952.2</ele>
        <time>2021-04-17T12:42:00Z</time>
      </trkpt>
      <trkpt lat="-25.5839830" lon="-49.0115570">
        <ele>952.2</ele>
        <time>2021-04-17T12:42:01Z</time>
      </trkpt>
      <trkpt lat="-25.5839270" lon="-49.0117470">
        <ele>952.2</ele>
        <time>2021-04-17T12:42:03Z</time>
      </trkpt>
      <trkpt lat="-25.5838580" lon="-49.0119570">
        <ele>952.2</ele>
        <time>2021-04-17T12:42:05Z</time>
      </trkpt>
      <trkpt lat="-25.5837960" lon="-49.0121580">
        <ele>952.0</ele>
        <time>2021-04-17T12:42:07Z</time>
      </trkpt>
      <trkpt lat="-25.5837660" lon="-49.0122520">
        <ele>951.8</ele>
        <time>2021-04-17T12:42:08Z</time>
      </trkpt>
      <trkpt lat="-25.5837360" lon="-49.0123410">
        <ele>951.4</ele>
        <time>2021-04-17T12:42:09Z</time>
      </trkpt>
      <trkpt lat="-25.5837100" lon="-49.0124170">
        <ele>950.4</ele>
        <time>2021-04-17T12:42:10Z</time>
      </trkpt>
      <trkpt lat="-25.5836860" lon="-49.0124810">
        <ele>949.4</ele>
        <time>2021-04-17T12:42:11Z</time>
      </trkpt>
      <trkpt lat="-25.5836680" lon="-49.0125340">
        <ele>948.8</ele>
        <time>2021-04-17T12:42:12Z</time>
      </trkpt>
      <trkpt lat="-25.5836540" lon="-49.0125810">
        <ele>948.4</ele>
        <time>2021-04-17T12:42:13Z</time>
      </trkpt>
      <trkpt lat="-25.5836440" lon="-49.0126250">
        <ele>948.2</ele>
        <time>2021-04-17T12:42:14Z</time>
      </trkpt>
      <trkpt lat="-25.5836330" lon="-49.0126690">
        <ele>948.2</ele>
        <time>2021-04-17T12:42:15Z</time>
      </trkpt>
      <trkpt lat="-25.5836080" lon="-49.0127620">
        <ele>948.0</ele>
        <time>2021-04-17T12:42:17Z</time>
      </trkpt>
      <trkpt lat="-25.5835930" lon="-49.0128100">
        <ele>948.2</ele>
        <time>2021-04-17T12:42:18Z</time>
      </trkpt>
      <trkpt lat="-25.5835790" lon="-49.0128610">
        <ele>948.2</ele>
        <time>2021-04-17T12:42:19Z</time>
      </trkpt>
      <trkpt lat="-25.5835510" lon="-49.0129630">
        <ele>948.0</ele>
        <time>2021-04-17T12:42:21Z</time>
      </trkpt>
      <trkpt lat="-25.5835270" lon="-49.0130590">
        <ele>948.0</ele>
        <time>2021-04-17T12:42:23Z</time>
      </trkpt>
      <trkpt lat="-25.5835110" lon="-49.0131050">
        <ele>948.0</ele>
        <time>2021-04-17T12:42:24Z</time>
      </trkpt>
      <trkpt lat="-25.5834950" lon="-49.0131500">
        <ele>948.2</ele>
        <time>2021-04-17T12:42:25Z</time>
      </trkpt>
      <trkpt lat="-25.5834680" lon="-49.0132310">
        <ele>948.2</ele>
        <time>2021-04-17T12:42:27Z</time>
      </trkpt>
      <trkpt lat="-25.5834360" lon="-49.0133040">
        <ele>948.4</ele>
        <time>2021-04-17T12:42:29Z</time>
      </trkpt>
      <trkpt lat="-25.5833850" lon="-49.0133560">
        <ele>948.4</ele>
        <time>2021-04-17T12:42:31Z</time>
      </trkpt>
      <trkpt lat="-25.5833310" lon="-49.0133950">
        <ele>948.4</ele>
        <time>2021-04-17T12:42:33Z</time>
      </trkpt>
      <trkpt lat="-25.5833050" lon="-49.0134090">
        <ele>948.4</ele>
        <time>2021-04-17T12:42:34Z</time>
      </trkpt>
      <trkpt lat="-25.5832810" lon="-49.0134220">
        <ele>948.4</ele>
        <time>2021-04-17T12:42:35Z</time>
      </trkpt>
      <trkpt lat="-25.5832380" lon="-49.0134500">
        <ele>948.6</ele>
        <time>2021-04-17T12:42:37Z</time>
      </trkpt>
      <trkpt lat="-25.5831930" lon="-49.0134800">
        <ele>948.8</ele>
        <time>2021-04-17T12:42:39Z</time>
      </trkpt>
      <trkpt lat="-25.5831470" lon="-49.0135070">
        <ele>949.2</ele>
        <time>2021-04-17T12:42:41Z</time>
      </trkpt>
      <trkpt lat="-25.5831220" lon="-49.0135210">
        <ele>949.4</ele>
        <time>2021-04-17T12:42:42Z</time>
      </trkpt>
      <trkpt lat="-25.5831000" lon="-49.0135340">
        <ele>949.6</ele>
        <time>2021-04-17T12:42:43Z</time>
      </trkpt>
      <trkpt lat="-25.5830580" lon="-49.0135590">
        <ele>949.8</ele>
        <time>2021-04-17T12:42:45Z</time>
      </trkpt>
      <trkpt lat="-25.5830200" lon="-49.0135900">
        <ele>950.2</ele>
        <time>2021-04-17T12:42:47Z</time>
      </trkpt>
      <trkpt lat="-25.5829820" lon="-49.0136190">
        <ele>950.4</ele>
        <time>2021-04-17T12:42:49Z</time>
      </trkpt>
      <trkpt lat="-25.5829630" lon="-49.0136360">
        <ele>950.4</ele>
        <time>2021-04-17T12:42:50Z</time>
      </trkpt>
      <trkpt lat="-25.5829450" lon="-49.0136530">
        <ele>950.6</ele>
        <time>2021-04-17T12:42:51Z</time>
      </trkpt>
      <trkpt lat="-25.5829060" lon="-49.0136880">
        <ele>951.2</ele>
        <time>2021-04-17T12:42:53Z</time>
      </trkpt>
      <trkpt lat="-25.5828830" lon="-49.0137040">
        <ele>951.6</ele>
        <time>2021-04-17T12:42:54Z</time>
      </trkpt>
      <trkpt lat="-25.5828620" lon="-49.0137220">
        <ele>951.8</ele>
        <time>2021-04-17T12:42:55Z</time>
      </trkpt>
      <trkpt lat="-25.5828130" lon="-49.0137680">
        <ele>952.0</ele>
        <time>2021-04-17T12:42:57Z</time>
      </trkpt>
      <trkpt lat="-25.5827490" lon="-49.0138390">
        <ele>952.0</ele>
        <time>2021-04-17T12:42:59Z</time>
      </trkpt>
      <trkpt lat="-25.5826630" lon="-49.0139380">
        <ele>952.0</ele>
        <time>2021-04-17T12:43:01Z</time>
      </trkpt>
      <trkpt lat="-25.5825770" lon="-49.0140590">
        <ele>952.0</ele>
        <time>2021-04-17T12:43:03Z</time>
      </trkpt>
      <trkpt lat="-25.5824920" lon="-49.0141770">
        <ele>952.0</ele>
        <time>2021-04-17T12:43:05Z</time>
      </trkpt>
      <trkpt lat="-25.5824430" lon="-49.0142240">
        <ele>951.8</ele>
        <time>2021-04-17T12:43:06Z</time>
      </trkpt>
      <trkpt lat="-25.5824060" lon="-49.0142770">
        <ele>951.2</ele>
        <time>2021-04-17T12:43:07Z</time>
      </trkpt>
      <trkpt lat="-25.5823420" lon="-49.0143620">
        <ele>950.4</ele>
        <time>2021-04-17T12:43:09Z</time>
      </trkpt>
      <trkpt lat="-25.5822910" lon="-49.0144290">
        <ele>950.2</ele>
        <time>2021-04-17T12:43:11Z</time>
      </trkpt>
      <trkpt lat="-25.5822330" lon="-49.0144830">
        <ele>950.2</ele>
        <time>2021-04-17T12:43:13Z</time>
      </trkpt>
      <trkpt lat="-25.5821660" lon="-49.0145490">
        <ele>950.0</ele>
        <time>2021-04-17T12:43:15Z</time>
      </trkpt>
      <trkpt lat="-25.5821230" lon="-49.0145860">
        <ele>949.8</ele>
        <time>2021-04-17T12:43:16Z</time>
      </trkpt>
      <trkpt lat="-25.5820800" lon="-49.0146270">
        <ele>949.8</ele>
        <time>2021-04-17T12:43:17Z</time>
      </trkpt>
      <trkpt lat="-25.5820050" lon="-49.0147210">
        <ele>949.6</ele>
        <time>2021-04-17T12:43:19Z</time>
      </trkpt>
      <trkpt lat="-25.5819720" lon="-49.0147740">
        <ele>949.4</ele>
        <time>2021-04-17T12:43:20Z</time>
      </trkpt>
      <trkpt lat="-25.5819350" lon="-49.0148280">
        <ele>949.2</ele>
        <time>2021-04-17T12:43:21Z</time>
      </trkpt>
      <trkpt lat="-25.5819010" lon="-49.0148860">
        <ele>949.2</ele>
        <time>2021-04-17T12:43:22Z</time>
      </trkpt>
      <trkpt lat="-25.5818670" lon="-49.0149410">
        <ele>949.2</ele>
        <time>2021-04-17T12:43:23Z</time>
      </trkpt>
      <trkpt lat="-25.5817940" lon="-49.0150590">
        <ele>948.6</ele>
        <time>2021-04-17T12:43:25Z</time>
      </trkpt>
      <trkpt lat="-25.5817120" lon="-49.0151820">
        <ele>947.8</ele>
        <time>2021-04-17T12:43:27Z</time>
      </trkpt>
      <trkpt lat="-25.5816700" lon="-49.0152400">
        <ele>947.4</ele>
        <time>2021-04-17T12:43:28Z</time>
      </trkpt>
      <trkpt lat="-25.5816190" lon="-49.0152870">
        <ele>947.0</ele>
        <time>2021-04-17T12:43:29Z</time>
      </trkpt>
      <trkpt lat="-25.5815540" lon="-49.0153220">
        <ele>946.2</ele>
        <time>2021-04-17T12:43:30Z</time>
      </trkpt>
      <trkpt lat="-25.5814880" lon="-49.0153570">
        <ele>945.2</ele>
        <time>2021-04-17T12:43:31Z</time>
      </trkpt>
      <trkpt lat="-25.5814210" lon="-49.0153960">
        <ele>944.0</ele>
        <time>2021-04-17T12:43:32Z</time>
      </trkpt>
      <trkpt lat="-25.5813550" lon="-49.0154350">
        <ele>942.8</ele>
        <time>2021-04-17T12:43:33Z</time>
      </trkpt>
      <trkpt lat="-25.5812870" lon="-49.0154750">
        <ele>941.8</ele>
        <time>2021-04-17T12:43:34Z</time>
      </trkpt>
      <trkpt lat="-25.5812220" lon="-49.0155150">
        <ele>940.8</ele>
        <time>2021-04-17T12:43:35Z</time>
      </trkpt>
      <trkpt lat="-25.5811630" lon="-49.0155550">
        <ele>940.2</ele>
        <time>2021-04-17T12:43:36Z</time>
      </trkpt>
      <trkpt lat="-25.5811100" lon="-49.0155940">
        <ele>939.8</ele>
        <time>2021-04-17T12:43:37Z</time>
      </trkpt>
      <trkpt lat="-25.5810230" lon="-49.0156720">
        <ele>939.6</ele>
        <time>2021-04-17T12:43:39Z</time>
      </trkpt>
      <trkpt lat="-25.5809520" lon="-49.0157620">
        <ele>939.6</ele>
        <time>2021-04-17T12:43:41Z</time>
      </trkpt>
      <trkpt lat="-25.5809160" lon="-49.0158140">
        <ele>939.6</ele>
        <time>2021-04-17T12:43:42Z</time>
      </trkpt>
      <trkpt lat="-25.5808800" lon="-49.0158680">
        <ele>939.6</ele>
        <time>2021-04-17T12:43:43Z</time>
      </trkpt>
      <trkpt lat="-25.5807940" lon="-49.0159530">
        <ele>939.6</ele>
        <time>2021-04-17T12:43:45Z</time>
      </trkpt>
      <trkpt lat="-25.5806970" lon="-49.0160120">
        <ele>939.8</ele>
        <time>2021-04-17T12:43:47Z</time>
      </trkpt>
      <trkpt lat="-25.5806030" lon="-49.0160610">
        <ele>939.8</ele>
        <time>2021-04-17T12:43:49Z</time>
      </trkpt>
      <trkpt lat="-25.5805050" lon="-49.0161020">
        <ele>939.8</ele>
        <time>2021-04-17T12:43:51Z</time>
      </trkpt>
      <trkpt lat="-25.5804040" lon="-49.0161540">
        <ele>939.8</ele>
        <time>2021-04-17T12:43:53Z</time>
      </trkpt>
      <trkpt lat="-25.5802930" lon="-49.0162290">
        <ele>940.0</ele>
        <time>2021-04-17T12:43:55Z</time>
      </trkpt>
      <trkpt lat="-25.5802430" lon="-49.0162700">
        <ele>939.8</ele>
        <time>2021-04-17T12:43:56Z</time>
      </trkpt>
      <trkpt lat="-25.5802020" lon="-49.0163140">
        <ele>939.8</ele>
        <time>2021-04-17T12:43:57Z</time>
      </trkpt>
      <trkpt lat="-25.5801320" lon="-49.0164340">
        <ele>939.6</ele>
        <time>2021-04-17T12:43:59Z</time>
      </trkpt>
      <trkpt lat="-25.5800770" lon="-49.0165900">
        <ele>939.6</ele>
        <time>2021-04-17T12:44:01Z</time>
      </trkpt>
      <trkpt lat="-25.5800770" lon="-49.0166540">
        <ele>939.2</ele>
        <time>2021-04-17T12:44:02Z</time>
      </trkpt>
      <trkpt lat="-25.5800770" lon="-49.0167190">
        <ele>939.0</ele>
        <time>2021-04-17T12:44:03Z</time>
      </trkpt>
      <trkpt lat="-25.5800770" lon="-49.0168480">
        <ele>938.6</ele>
        <time>2021-04-17T12:44:04Z</time>
      </trkpt>
      <trkpt lat="-25.5800940" lon="-49.0169340">
        <ele>938.0</ele>
        <time>2021-04-17T12:44:05Z</time>
      </trkpt>
      <trkpt lat="-25.5801130" lon="-49.0170160">
        <ele>937.6</ele>
        <time>2021-04-17T12:44:06Z</time>
      </trkpt>
      <trkpt lat="-25.5801280" lon="-49.0170940">
        <ele>936.8</ele>
        <time>2021-04-17T12:44:07Z</time>
      </trkpt>
      <trkpt lat="-25.5801190" lon="-49.0171450">
        <ele>936.2</ele>
        <time>2021-04-17T12:44:08Z</time>
      </trkpt>
      <trkpt lat="-25.5801100" lon="-49.0171950">
        <ele>935.6</ele>
        <time>2021-04-17T12:44:09Z</time>
      </trkpt>
      <trkpt lat="-25.5800920" lon="-49.0172950">
        <ele>935.0</ele>
        <time>2021-04-17T12:44:10Z</time>
      </trkpt>
      <trkpt lat="-25.5800570" lon="-49.0173530">
        <ele>934.6</ele>
        <time>2021-04-17T12:44:11Z</time>
      </trkpt>
      <trkpt lat="-25.5800140" lon="-49.0174090">
        <ele>934.2</ele>
        <time>2021-04-17T12:44:12Z</time>
      </trkpt>
      <trkpt lat="-25.5799670" lon="-49.0174640">
        <ele>934.2</ele>
        <time>2021-04-17T12:44:13Z</time>
      </trkpt>
      <trkpt lat="-25.5799160" lon="-49.0175170">
        <ele>934.0</ele>
        <time>2021-04-17T12:44:14Z</time>
      </trkpt>
      <trkpt lat="-25.5798610" lon="-49.0175670">
        <ele>933.8</ele>
        <time>2021-04-17T12:44:15Z</time>
      </trkpt>
      <trkpt lat="-25.5797560" lon="-49.0176700">
        <ele>933.6</ele>
        <time>2021-04-17T12:44:17Z</time>
      </trkpt>
      <trkpt lat="-25.5796570" lon="-49.0177860">
        <ele>933.2</ele>
        <time>2021-04-17T12:44:19Z</time>
      </trkpt>
      <trkpt lat="-25.5795560" lon="-49.0178940">
        <ele>933.2</ele>
        <time>2021-04-17T12:44:21Z</time>
      </trkpt>
      <trkpt lat="-25.5795050" lon="-49.0179480">
        <ele>932.8</ele>
        <time>2021-04-17T12:44:22Z</time>
      </trkpt>
      <trkpt lat="-25.5794570" lon="-49.0180040">
        <ele>932.8</ele>
        <time>2021-04-17T12:44:23Z</time>
      </trkpt>
      <trkpt lat="-25.5793660" lon="-49.0181240">
        <ele>932.4</ele>
        <time>2021-04-17T12:44:25Z</time>
      </trkpt>
      <trkpt lat="-25.5792880" lon="-49.0182600">
        <ele>932.0</ele>
        <time>2021-04-17T12:44:27Z</time>
      </trkpt>
      <trkpt lat="-25.5792560" lon="-49.0183330">
        <ele>931.8</ele>
        <time>2021-04-17T12:44:28Z</time>
      </trkpt>
      <trkpt lat="-25.5792300" lon="-49.0184070">
        <ele>931.6</ele>
        <time>2021-04-17T12:44:29Z</time>
      </trkpt>
      <trkpt lat="-25.5791860" lon="-49.0185480">
        <ele>931.4</ele>
        <time>2021-04-17T12:44:31Z</time>
      </trkpt>
      <trkpt lat="-25.5791380" lon="-49.0186810">
        <ele>931.2</ele>
        <time>2021-04-17T12:44:33Z</time>
      </trkpt>
      <trkpt lat="-25.5790810" lon="-49.0187960">
        <ele>931.2</ele>
        <time>2021-04-17T12:44:35Z</time>
      </trkpt>
      <trkpt lat="-25.5790230" lon="-49.0188960">
        <ele>931.2</ele>
        <time>2021-04-17T12:44:37Z</time>
      </trkpt>
      <trkpt lat="-25.5789660" lon="-49.0190020">
        <ele>931.4</ele>
        <time>2021-04-17T12:44:39Z</time>
      </trkpt>
      <trkpt lat="-25.5789040" lon="-49.0191150">
        <ele>931.4</ele>
        <time>2021-04-17T12:44:41Z</time>
      </trkpt>
      <trkpt lat="-25.5788710" lon="-49.0191730">
        <ele>931.4</ele>
        <time>2021-04-17T12:44:42Z</time>
      </trkpt>
      <trkpt lat="-25.5788370" lon="-49.0192330">
        <ele>931.4</ele>
        <time>2021-04-17T12:44:43Z</time>
      </trkpt>
      <trkpt lat="-25.5787700" lon="-49.0193550">
        <ele>931.4</ele>
        <time>2021-04-17T12:44:45Z</time>
      </trkpt>
      <trkpt lat="-25.5787050" lon="-49.0194820">
        <ele>931.6</ele>
        <time>2021-04-17T12:44:47Z</time>
      </trkpt>
      <trkpt lat="-25.5786360" lon="-49.0196080">
        <ele>931.6</ele>
        <time>2021-04-17T12:44:49Z</time>
      </trkpt>
      <trkpt lat="-25.5785610" lon="-49.0197230">
        <ele>931.6</ele>
        <time>2021-04-17T12:44:51Z</time>
      </trkpt>
      <trkpt lat="-25.5784830" lon="-49.0198300">
        <ele>931.4</ele>
        <time>2021-04-17T12:44:53Z</time>
      </trkpt>
      <trkpt lat="-25.5784060" lon="-49.0199270">
        <ele>931.2</ele>
        <time>2021-04-17T12:44:55Z</time>
      </trkpt>
      <trkpt lat="-25.5783260" lon="-49.0200170">
        <ele>931.0</ele>
        <time>2021-04-17T12:44:57Z</time>
      </trkpt>
      <trkpt lat="-25.5782840" lon="-49.0200590">
        <ele>930.8</ele>
        <time>2021-04-17T12:44:58Z</time>
      </trkpt>
      <trkpt lat="-25.5782400" lon="-49.0201000">
        <ele>930.6</ele>
        <time>2021-04-17T12:44:59Z</time>
      </trkpt>
      <trkpt lat="-25.5781440" lon="-49.0201790">
        <ele>930.2</ele>
        <time>2021-04-17T12:45:01Z</time>
      </trkpt>
      <trkpt lat="-25.5780900" lon="-49.0202170">
        <ele>930.2</ele>
        <time>2021-04-17T12:45:02Z</time>
      </trkpt>
      <trkpt lat="-25.5780320" lon="-49.0202580">
        <ele>930.2</ele>
        <time>2021-04-17T12:45:03Z</time>
      </trkpt>
      <trkpt lat="-25.5779050" lon="-49.0203570">
        <ele>929.8</ele>
        <time>2021-04-17T12:45:05Z</time>
      </trkpt>
      <trkpt lat="-25.5778400" lon="-49.0204120">
        <ele>929.8</ele>
        <time>2021-04-17T12:45:06Z</time>
      </trkpt>
      <trkpt lat="-25.5777770" lon="-49.0204680">
        <ele>929.6</ele>
        <time>2021-04-17T12:45:07Z</time>
      </trkpt>
      <trkpt lat="-25.5777150" lon="-49.0205240">
        <ele>929.4</ele>
        <time>2021-04-17T12:45:08Z</time>
      </trkpt>
      <trkpt lat="-25.5776580" lon="-49.0205780">
        <ele>929.2</ele>
        <time>2021-04-17T12:45:09Z</time>
      </trkpt>
      <trkpt lat="-25.5775610" lon="-49.0206900">
        <ele>928.4</ele>
        <time>2021-04-17T12:45:11Z</time>
      </trkpt>
      <trkpt lat="-25.5774870" lon="-49.0208040">
        <ele>927.6</ele>
        <time>2021-04-17T12:45:13Z</time>
      </trkpt>
      <trkpt lat="-25.5774690" lon="-49.0208400">
        <ele>927.4</ele>
        <time>2021-04-17T12:45:14Z</time>
      </trkpt>
      <trkpt lat="-25.5774500" lon="-49.0208750">
        <ele>927.2</ele>
        <time>2021-04-17T12:45:15Z</time>
      </trkpt>
      <trkpt lat="-25.5773760" lon="-49.0210180">
        <ele>927.2</ele>
        <time>2021-04-17T12:45:17Z</time>
      </trkpt>
      <trkpt lat="-25.5773300" lon="-49.0211190">
        <ele>927.0</ele>
        <time>2021-04-17T12:45:19Z</time>
      </trkpt>
      <trkpt lat="-25.5772950" lon="-49.0212200">
        <ele>927.0</ele>
        <time>2021-04-17T12:45:21Z</time>
      </trkpt>
      <trkpt lat="-25.5772800" lon="-49.0213240">
        <ele>927.2</ele>
        <time>2021-04-17T12:45:23Z</time>
      </trkpt>
      <trkpt lat="-25.5772780" lon="-49.0213770">
        <ele>927.2</ele>
        <time>2021-04-17T12:45:24Z</time>
      </trkpt>
      <trkpt lat="-25.5772790" lon="-49.0214280">
        <ele>927.6</ele>
        <time>2021-04-17T12:45:25Z</time>
      </trkpt>
      <trkpt lat="-25.5772810" lon="-49.0214780">
        <ele>928.0</ele>
        <time>2021-04-17T12:45:26Z</time>
      </trkpt>
      <trkpt lat="-25.5772830" lon="-49.0215260">
        <ele>928.4</ele>
        <time>2021-04-17T12:45:27Z</time>
      </trkpt>
      <trkpt lat="-25.5772850" lon="-49.0215740">
        <ele>928.6</ele>
        <time>2021-04-17T12:45:28Z</time>
      </trkpt>
      <trkpt lat="-25.5772820" lon="-49.0216230">
        <ele>928.6</ele>
        <time>2021-04-17T12:45:29Z</time>
      </trkpt>
      <trkpt lat="-25.5772710" lon="-49.0217180">
        <ele>928.8</ele>
        <time>2021-04-17T12:45:31Z</time>
      </trkpt>
      <trkpt lat="-25.5772570" lon="-49.0218090">
        <ele>929.0</ele>
        <time>2021-04-17T12:45:33Z</time>
      </trkpt>
      <trkpt lat="-25.5772490" lon="-49.0218920">
        <ele>929.2</ele>
        <time>2021-04-17T12:45:35Z</time>
      </trkpt>
      <trkpt lat="-25.5772550" lon="-49.0219800">
        <ele>929.6</ele>
        <time>2021-04-17T12:45:37Z</time>
      </trkpt>
      <trkpt lat="-25.5772610" lon="-49.0220310">
        <ele>929.6</ele>
        <time>2021-04-17T12:45:38Z</time>
      </trkpt>
      <trkpt lat="-25.5772700" lon="-49.0220900">
        <ele>929.6</ele>
        <time>2021-04-17T12:45:39Z</time>
      </trkpt>
      <trkpt lat="-25.5772840" lon="-49.0222280">
        <ele>929.6</ele>
        <time>2021-04-17T12:45:41Z</time>
      </trkpt>
      <trkpt lat="-25.5772800" lon="-49.0223870">
        <ele>929.6</ele>
        <time>2021-04-17T12:45:43Z</time>
      </trkpt>
      <trkpt lat="-25.5772470" lon="-49.0225550">
        <ele>929.6</ele>
        <time>2021-04-17T12:45:45Z</time>
      </trkpt>
      <trkpt lat="-25.5771820" lon="-49.0227220">
        <ele>929.2</ele>
        <time>2021-04-17T12:45:47Z</time>
      </trkpt>
      <trkpt lat="-25.5771410" lon="-49.0228010">
        <ele>928.6</ele>
        <time>2021-04-17T12:45:48Z</time>
      </trkpt>
      <trkpt lat="-25.5771020" lon="-49.0228800">
        <ele>928.2</ele>
        <time>2021-04-17T12:45:49Z</time>
      </trkpt>
      <trkpt lat="-25.5770310" lon="-49.0230340">
        <ele>927.2</ele>
        <time>2021-04-17T12:45:51Z</time>
      </trkpt>
      <trkpt lat="-25.5770000" lon="-49.0231100">
        <ele>926.6</ele>
        <time>2021-04-17T12:45:52Z</time>
      </trkpt>
      <trkpt lat="-25.5769750" lon="-49.0231860">
        <ele>926.0</ele>
        <time>2021-04-17T12:45:53Z</time>
      </trkpt>
      <trkpt lat="-25.5769570" lon="-49.0232630">
        <ele>925.6</ele>
        <time>2021-04-17T12:45:54Z</time>
      </trkpt>
      <trkpt lat="-25.5769470" lon="-49.0233430">
        <ele>925.2</ele>
        <time>2021-04-17T12:45:55Z</time>
      </trkpt>
      <trkpt lat="-25.5769410" lon="-49.0235050">
        <ele>924.4</ele>
        <time>2021-04-17T12:45:57Z</time>
      </trkpt>
      <trkpt lat="-25.5769410" lon="-49.0236700">
        <ele>923.6</ele>
        <time>2021-04-17T12:45:59Z</time>
      </trkpt>
      <trkpt lat="-25.5769500" lon="-49.0238310">
        <ele>923.4</ele>
        <time>2021-04-17T12:46:01Z</time>
      </trkpt>
      <trkpt lat="-25.5769740" lon="-49.0239820">
        <ele>923.2</ele>
        <time>2021-04-17T12:46:03Z</time>
      </trkpt>
      <trkpt lat="-25.5769930" lon="-49.0240530">
        <ele>923.2</ele>
        <time>2021-04-17T12:46:04Z</time>
      </trkpt>
      <trkpt lat="-25.5770160" lon="-49.0241200">
        <ele>923.0</ele>
        <time>2021-04-17T12:46:05Z</time>
      </trkpt>
      <trkpt lat="-25.5770700" lon="-49.0242440">
        <ele>923.0</ele>
        <time>2021-04-17T12:46:07Z</time>
      </trkpt>
      <trkpt lat="-25.5771330" lon="-49.0243590">
        <ele>923.0</ele>
        <time>2021-04-17T12:46:09Z</time>
      </trkpt>
      <trkpt lat="-25.5771700" lon="-49.0244120">
        <ele>923.0</ele>
        <time>2021-04-17T12:46:10Z</time>
      </trkpt>
      <trkpt lat="-25.5772100" lon="-49.0244590">
        <ele>923.2</ele>
        <time>2021-04-17T12:46:11Z</time>
      </trkpt>
      <trkpt lat="-25.5773000" lon="-49.0245470">
        <ele>923.2</ele>
        <time>2021-04-17T12:46:13Z</time>
      </trkpt>
      <trkpt lat="-25.5773870" lon="-49.0246550">
        <ele>923.6</ele>
        <time>2021-04-17T12:46:15Z</time>
      </trkpt>
      <trkpt lat="-25.5774420" lon="-49.0247910">
        <ele>923.4</ele>
        <time>2021-04-17T12:46:17Z</time>
      </trkpt>
      <trkpt lat="-25.5774620" lon="-49.0249320">
        <ele>923.4</ele>
        <time>2021-04-17T12:46:19Z</time>
      </trkpt>
      <trkpt lat="-25.5774570" lon="-49.0250010">
        <ele>923.4</ele>
        <time>2021-04-17T12:46:20Z</time>
      </trkpt>
      <trkpt lat="-25.5774590" lon="-49.0250770">
        <ele>923.4</ele>
        <time>2021-04-17T12:46:21Z</time>
      </trkpt>
      <trkpt lat="-25.5774600" lon="-49.0252430">
        <ele>923.4</ele>
        <time>2021-04-17T12:46:23Z</time>
      </trkpt>
      <trkpt lat="-25.5774560" lon="-49.0254170">
        <ele>923.2</ele>
        <time>2021-04-17T12:46:25Z</time>
      </trkpt>
      <trkpt lat="-25.5774530" lon="-49.0255970">
        <ele>922.4</ele>
        <time>2021-04-17T12:46:27Z</time>
      </trkpt>
      <trkpt lat="-25.5774770" lon="-49.0257730">
        <ele>920.2</ele>
        <time>2021-04-17T12:46:29Z</time>
      </trkpt>
      <trkpt lat="-25.5774860" lon="-49.0258590">
        <ele>919.8</ele>
        <time>2021-04-17T12:46:30Z</time>
      </trkpt>
      <trkpt lat="-25.5774730" lon="-49.0259470">
        <ele>918.8</ele>
        <time>2021-04-17T12:46:31Z</time>
      </trkpt>
      <trkpt lat="-25.5774410" lon="-49.0260340">
        <ele>917.6</ele>
        <time>2021-04-17T12:46:32Z</time>
      </trkpt>
      <trkpt lat="-25.5773960" lon="-49.0261170">
        <ele>915.8</ele>
        <time>2021-04-17T12:46:33Z</time>
      </trkpt>
      <trkpt lat="-25.5773480" lon="-49.0261930">
        <ele>914.2</ele>
        <time>2021-04-17T12:46:34Z</time>
      </trkpt>
      <trkpt lat="-25.5772990" lon="-49.0262670">
        <ele>913.0</ele>
        <time>2021-04-17T12:46:35Z</time>
      </trkpt>
      <trkpt lat="-25.5772530" lon="-49.0263350">
        <ele>911.6</ele>
        <time>2021-04-17T12:46:36Z</time>
      </trkpt>
      <trkpt lat="-25.5772030" lon="-49.0263960">
        <ele>910.0</ele>
        <time>2021-04-17T12:46:37Z</time>
      </trkpt>
      <trkpt lat="-25.5771460" lon="-49.0264510">
        <ele>908.6</ele>
        <time>2021-04-17T12:46:38Z</time>
      </trkpt>
      <trkpt lat="-25.5770930" lon="-49.0264980">
        <ele>907.6</ele>
        <time>2021-04-17T12:46:39Z</time>
      </trkpt>
      <trkpt lat="-25.5770440" lon="-49.0265400">
        <ele>906.6</ele>
        <time>2021-04-17T12:46:40Z</time>
      </trkpt>
      <trkpt lat="-25.5769920" lon="-49.0265790">
        <ele>905.8</ele>
        <time>2021-04-17T12:46:41Z</time>
      </trkpt>
      <trkpt lat="-25.5769380" lon="-49.0266130">
        <ele>905.2</ele>
        <time>2021-04-17T12:46:42Z</time>
      </trkpt>
      <trkpt lat="-25.5768820" lon="-49.0266380">
        <ele>905.0</ele>
        <time>2021-04-17T12:46:43Z</time>
      </trkpt>
      <trkpt lat="-25.5768260" lon="-49.0266560">
        <ele>904.8</ele>
        <time>2021-04-17T12:46:44Z</time>
      </trkpt>
      <trkpt lat="-25.5767770" lon="-49.0266700">
        <ele>904.6</ele>
        <time>2021-04-17T12:46:45Z</time>
      </trkpt>
      <trkpt lat="-25.5766900" lon="-49.0267030">
        <ele>904.6</ele>
        <time>2021-04-17T12:46:47Z</time>
      </trkpt>
      <trkpt lat="-25.5766430" lon="-49.0267160">
        <ele>904.6</ele>
        <time>2021-04-17T12:46:48Z</time>
      </trkpt>
      <trkpt lat="-25.5765930" lon="-49.0267260">
        <ele>904.6</ele>
        <time>2021-04-17T12:46:49Z</time>
      </trkpt>
      <trkpt lat="-25.5765470" lon="-49.0267270">
        <ele>904.6</ele>
        <time>2021-04-17T12:46:50Z</time>
      </trkpt>
      <trkpt lat="-25.5765080" lon="-49.0267280">
        <ele>904.6</ele>
        <time>2021-04-17T12:46:51Z</time>
      </trkpt>
      <trkpt lat="-25.5764300" lon="-49.0267320">
        <ele>904.6</ele>
        <time>2021-04-17T12:46:53Z</time>
      </trkpt>
      <trkpt lat="-25.5763440" lon="-49.0267390">
        <ele>904.6</ele>
        <time>2021-04-17T12:46:55Z</time>
      </trkpt>
      <trkpt lat="-25.5762920" lon="-49.0267560">
        <ele>904.8</ele>
        <time>2021-04-17T12:46:57Z</time>
      </trkpt>
      <trkpt lat="-25.5762220" lon="-49.0267780">
        <ele>904.8</ele>
        <time>2021-04-17T12:46:59Z</time>
      </trkpt>
      <trkpt lat="-25.5761380" lon="-49.0268070">
        <ele>905.0</ele>
        <time>2021-04-17T12:47:01Z</time>
      </trkpt>
      <trkpt lat="-25.5760610" lon="-49.0268340">
        <ele>905.4</ele>
        <time>2021-04-17T12:47:03Z</time>
      </trkpt>
      <trkpt lat="-25.5759900" lon="-49.0268640">
        <ele>905.8</ele>
        <time>2021-04-17T12:47:05Z</time>
      </trkpt>
      <trkpt lat="-25.5759230" lon="-49.0269160">
        <ele>906.0</ele>
        <time>2021-04-17T12:47:07Z</time>
      </trkpt>
      <trkpt lat="-25.5758540" lon="-49.0269670">
        <ele>906.2</ele>
        <time>2021-04-17T12:47:09Z</time>
      </trkpt>
      <trkpt lat="-25.5758200" lon="-49.0269950">
        <ele>906.4</ele>
        <time>2021-04-17T12:47:10Z</time>
      </trkpt>
      <trkpt lat="-25.5757920" lon="-49.0270250">
        <ele>906.6</ele>
        <time>2021-04-17T12:47:11Z</time>
      </trkpt>
      <trkpt lat="-25.5757660" lon="-49.0270640">
        <ele>906.6</ele>
        <time>2021-04-17T12:47:12Z</time>
      </trkpt>
      <trkpt lat="-25.5757390" lon="-49.0270950">
        <ele>906.8</ele>
        <time>2021-04-17T12:47:13Z</time>
      </trkpt>
      <trkpt lat="-25.5756850" lon="-49.0271550">
        <ele>907.0</ele>
        <time>2021-04-17T12:47:15Z</time>
      </trkpt>
      <trkpt lat="-25.5756580" lon="-49.0271820">
        <ele>907.6</ele>
        <time>2021-04-17T12:47:16Z</time>
      </trkpt>
      <trkpt lat="-25.5756340" lon="-49.0272080">
        <ele>907.8</ele>
        <time>2021-04-17T12:47:17Z</time>
      </trkpt>
      <trkpt lat="-25.5755760" lon="-49.0272490">
        <ele>908.6</ele>
        <time>2021-04-17T12:47:19Z</time>
      </trkpt>
      <trkpt lat="-25.5755150" lon="-49.0272810">
        <ele>909.2</ele>
        <time>2021-04-17T12:47:21Z</time>
      </trkpt>
      <trkpt lat="-25.5754820" lon="-49.0272920">
        <ele>909.8</ele>
        <time>2021-04-17T12:47:22Z</time>
      </trkpt>
      <trkpt lat="-25.5754510" lon="-49.0273030">
        <ele>910.0</ele>
        <time>2021-04-17T12:47:23Z</time>
      </trkpt>
      <trkpt lat="-25.5753920" lon="-49.0273200">
        <ele>910.4</ele>
        <time>2021-04-17T12:47:25Z</time>
      </trkpt>
      <trkpt lat="-25.5753300" lon="-49.0273230">
        <ele>910.8</ele>
        <time>2021-04-17T12:47:27Z</time>
      </trkpt>
      <trkpt lat="-25.5752740" lon="-49.0273160">
        <ele>911.2</ele>
        <time>2021-04-17T12:47:29Z</time>
      </trkpt>
      <trkpt lat="-25.5752180" lon="-49.0272880">
        <ele>911.8</ele>
        <time>2021-04-17T12:47:31Z</time>
      </trkpt>
      <trkpt lat="-25.5751910" lon="-49.0272730">
        <ele>912.0</ele>
        <time>2021-04-17T12:47:32Z</time>
      </trkpt>
      <trkpt lat="-25.5751660" lon="-49.0272540">
        <ele>912.2</ele>
        <time>2021-04-17T12:47:33Z</time>
      </trkpt>
      <trkpt lat="-25.5751140" lon="-49.0272070">
        <ele>912.6</ele>
        <time>2021-04-17T12:47:35Z</time>
      </trkpt>
      <trkpt lat="-25.5750570" lon="-49.0271530">
        <ele>912.8</ele>
        <time>2021-04-17T12:47:37Z</time>
      </trkpt>
      <trkpt lat="-25.5750220" lon="-49.0271300">
        <ele>912.8</ele>
        <time>2021-04-17T12:47:38Z</time>
      </trkpt>
      <trkpt lat="-25.5749810" lon="-49.0271150">
        <ele>912.8</ele>
        <time>2021-04-17T12:47:39Z</time>
      </trkpt>
      <trkpt lat="-25.5749360" lon="-49.0271130">
        <ele>912.8</ele>
        <time>2021-04-17T12:47:40Z</time>
      </trkpt>
      <trkpt lat="-25.5748890" lon="-49.0271240">
        <ele>912.8</ele>
        <time>2021-04-17T12:47:41Z</time>
      </trkpt>
      <trkpt lat="-25.5748020" lon="-49.0272000">
        <ele>912.8</ele>
        <time>2021-04-17T12:47:43Z</time>
      </trkpt>
      <trkpt lat="-25.5747160" lon="-49.0273260">
        <ele>912.6</ele>
        <time>2021-04-17T12:47:45Z</time>
      </trkpt>
      <trkpt lat="-25.5746330" lon="-49.0274650">
        <ele>912.0</ele>
        <time>2021-04-17T12:47:47Z</time>
      </trkpt>
      <trkpt lat="-25.5745970" lon="-49.0275520">
        <ele>911.4</ele>
        <time>2021-04-17T12:47:48Z</time>
      </trkpt>
      <trkpt lat="-25.5745690" lon="-49.0276530">
        <ele>910.8</ele>
        <time>2021-04-17T12:47:49Z</time>
      </trkpt>
      <trkpt lat="-25.5745290" lon="-49.0278880">
        <ele>909.0</ele>
        <time>2021-04-17T12:47:51Z</time>
      </trkpt>
      <trkpt lat="-25.5744820" lon="-49.0281470">
        <ele>907.6</ele>
        <time>2021-04-17T12:47:53Z</time>
      </trkpt>
      <trkpt lat="-25.5744190" lon="-49.0284110">
        <ele>906.4</ele>
        <time>2021-04-17T12:47:55Z</time>
      </trkpt>
      <trkpt lat="-25.5743460" lon="-49.0286460">
        <ele>904.8</ele>
        <time>2021-04-17T12:47:57Z</time>
      </trkpt>
      <trkpt lat="-25.5743160" lon="-49.0287500">
        <ele>903.2</ele>
        <time>2021-04-17T12:47:58Z</time>
      </trkpt>
      <trkpt lat="-25.5742930" lon="-49.0288470">
        <ele>902.2</ele>
        <time>2021-04-17T12:47:59Z</time>
      </trkpt>
      <trkpt lat="-25.5742700" lon="-49.0289380">
        <ele>901.4</ele>
        <time>2021-04-17T12:48:00Z</time>
      </trkpt>
      <trkpt lat="-25.5742390" lon="-49.0290240">
        <ele>900.2</ele>
        <time>2021-04-17T12:48:01Z</time>
      </trkpt>
      <trkpt lat="-25.5741970" lon="-49.0290950">
        <ele>899.0</ele>
        <time>2021-04-17T12:48:02Z</time>
      </trkpt>
      <trkpt lat="-25.5741450" lon="-49.0291520">
        <ele>898.0</ele>
        <time>2021-04-17T12:48:03Z</time>
      </trkpt>
      <trkpt lat="-25.5740910" lon="-49.0291960">
        <ele>896.0</ele>
        <time>2021-04-17T12:48:04Z</time>
      </trkpt>
      <trkpt lat="-25.5740360" lon="-49.0292330">
        <ele>895.6</ele>
        <time>2021-04-17T12:48:05Z</time>
      </trkpt>
      <trkpt lat="-25.5739830" lon="-49.0292690">
        <ele>895.2</ele>
        <time>2021-04-17T12:48:06Z</time>
      </trkpt>
      <trkpt lat="-25.5739350" lon="-49.0293030">
        <ele>895.0</ele>
        <time>2021-04-17T12:48:07Z</time>
      </trkpt>
      <trkpt lat="-25.5738920" lon="-49.0293410">
        <ele>894.6</ele>
        <time>2021-04-17T12:48:08Z</time>
      </trkpt>
      <trkpt lat="-25.5738530" lon="-49.0293800">
        <ele>894.4</ele>
        <time>2021-04-17T12:48:09Z</time>
      </trkpt>
      <trkpt lat="-25.5738150" lon="-49.0294240">
        <ele>894.4</ele>
        <time>2021-04-17T12:48:10Z</time>
      </trkpt>
      <trkpt lat="-25.5737790" lon="-49.0294700">
        <ele>894.0</ele>
        <time>2021-04-17T12:48:11Z</time>
      </trkpt>
      <trkpt lat="-25.5737170" lon="-49.0295640">
        <ele>894.0</ele>
        <time>2021-04-17T12:48:13Z</time>
      </trkpt>
      <trkpt lat="-25.5736630" lon="-49.0296500">
        <ele>894.0</ele>
        <time>2021-04-17T12:48:15Z</time>
      </trkpt>
      <trkpt lat="-25.5736350" lon="-49.0296910">
        <ele>894.0</ele>
        <time>2021-04-17T12:48:16Z</time>
      </trkpt>
      <trkpt lat="-25.5736090" lon="-49.0297280">
        <ele>894.0</ele>
        <time>2021-04-17T12:48:17Z</time>
      </trkpt>
      <trkpt lat="-25.5735610" lon="-49.0297960">
        <ele>894.6</ele>
        <time>2021-04-17T12:48:19Z</time>
      </trkpt>
      <trkpt lat="-25.5735200" lon="-49.0298610">
        <ele>895.2</ele>
        <time>2021-04-17T12:48:21Z</time>
      </trkpt>
      <trkpt lat="-25.5734750" lon="-49.0299180">
        <ele>895.6</ele>
        <time>2021-04-17T12:48:23Z</time>
      </trkpt>
      <trkpt lat="-25.5734550" lon="-49.0299460">
        <ele>895.8</ele>
        <time>2021-04-17T12:48:24Z</time>
      </trkpt>
      <trkpt lat="-25.5734340" lon="-49.0299710">
        <ele>895.8</ele>
        <time>2021-04-17T12:48:25Z</time>
      </trkpt>
      <trkpt lat="-25.5734020" lon="-49.0300290">
        <ele>896.4</ele>
        <time>2021-04-17T12:48:27Z</time>
      </trkpt>
      <trkpt lat="-25.5733710" lon="-49.0300840">
        <ele>897.0</ele>
        <time>2021-04-17T12:48:29Z</time>
      </trkpt>
      <trkpt lat="-25.5733580" lon="-49.0301140">
        <ele>897.2</ele>
        <time>2021-04-17T12:48:30Z</time>
      </trkpt>
      <trkpt lat="-25.5733460" lon="-49.0301450">
        <ele>897.4</ele>
        <time>2021-04-17T12:48:31Z</time>
      </trkpt>
      <trkpt lat="-25.5733240" lon="-49.0302070">
        <ele>898.0</ele>
        <time>2021-04-17T12:48:33Z</time>
      </trkpt>
      <trkpt lat="-25.5733020" lon="-49.0302660">
        <ele>898.6</ele>
        <time>2021-04-17T12:48:35Z</time>
      </trkpt>
      <trkpt lat="-25.5732760" lon="-49.0303210">
        <ele>899.0</ele>
        <time>2021-04-17T12:48:37Z</time>
      </trkpt>
      <trkpt lat="-25.5732550" lon="-49.0303780">
        <ele>899.8</ele>
        <time>2021-04-17T12:48:39Z</time>
      </trkpt>
      <trkpt lat="-25.5732290" lon="-49.0304330">
        <ele>900.0</ele>
        <time>2021-04-17T12:48:41Z</time>
      </trkpt>
      <trkpt lat="-25.5732050" lon="-49.0304890">
        <ele>900.2</ele>
        <time>2021-04-17T12:48:43Z</time>
      </trkpt>
      <trkpt lat="-25.5731990" lon="-49.0305170">
        <ele>900.8</ele>
        <time>2021-04-17T12:48:44Z</time>
      </trkpt>
      <trkpt lat="-25.5731810" lon="-49.0305360">
        <ele>900.8</ele>
        <time>2021-04-17T12:48:45Z</time>
      </trkpt>
      <trkpt lat="-25.5731660" lon="-49.0305930">
        <ele>901.4</ele>
        <time>2021-04-17T12:48:47Z</time>
      </trkpt>
      <trkpt lat="-25.5731550" lon="-49.0306160">
        <ele>901.4</ele>
        <time>2021-04-17T12:48:48Z</time>
      </trkpt>
      <trkpt lat="-25.5731480" lon="-49.0306410">
        <ele>901.6</ele>
        <time>2021-04-17T12:48:49Z</time>
      </trkpt>
      <trkpt lat="-25.5731340" lon="-49.0306630">
        <ele>901.8</ele>
        <time>2021-04-17T12:48:50Z</time>
      </trkpt>
      <trkpt lat="-25.5731130" lon="-49.0306800">
        <ele>902.0</ele>
        <time>2021-04-17T12:48:51Z</time>
      </trkpt>
      <trkpt lat="-25.5730790" lon="-49.0307200">
        <ele>902.6</ele>
        <time>2021-04-17T12:48:53Z</time>
      </trkpt>
      <trkpt lat="-25.5730450" lon="-49.0307480">
        <ele>903.0</ele>
        <time>2021-04-17T12:48:55Z</time>
      </trkpt>
      <trkpt lat="-25.5730040" lon="-49.0307720">
        <ele>903.4</ele>
        <time>2021-04-17T12:48:57Z</time>
      </trkpt>
      <trkpt lat="-25.5729790" lon="-49.0307780">
        <ele>903.6</ele>
        <time>2021-04-17T12:48:58Z</time>
      </trkpt>
      <trkpt lat="-25.5729530" lon="-49.0307790">
        <ele>903.8</ele>
        <time>2021-04-17T12:48:59Z</time>
      </trkpt>
      <trkpt lat="-25.5729060" lon="-49.0308010">
        <ele>904.4</ele>
        <time>2021-04-17T12:49:01Z</time>
      </trkpt>
      <trkpt lat="-25.5728810" lon="-49.0308090">
        <ele>904.6</ele>
        <time>2021-04-17T12:49:02Z</time>
      </trkpt>
      <trkpt lat="-25.5728560" lon="-49.0308170">
        <ele>904.8</ele>
        <time>2021-04-17T12:49:03Z</time>
      </trkpt>
      <trkpt lat="-25.5728100" lon="-49.0308330">
        <ele>905.2</ele>
        <time>2021-04-17T12:49:05Z</time>
      </trkpt>
      <trkpt lat="-25.5727710" lon="-49.0308500">
        <ele>905.6</ele>
        <time>2021-04-17T12:49:07Z</time>
      </trkpt>
      <trkpt lat="-25.5727450" lon="-49.0308530">
        <ele>905.8</ele>
        <time>2021-04-17T12:49:08Z</time>
      </trkpt>
      <trkpt lat="-25.5727180" lon="-49.0308580">
        <ele>906.2</ele>
        <time>2021-04-17T12:49:09Z</time>
      </trkpt>
      <trkpt lat="-25.5726690" lon="-49.0308690">
        <ele>906.4</ele>
        <time>2021-04-17T12:49:11Z</time>
      </trkpt>
      <trkpt lat="-25.5726140" lon="-49.0308810">
        <ele>906.8</ele>
        <time>2021-04-17T12:49:13Z</time>
      </trkpt>
      <trkpt lat="-25.5725880" lon="-49.0308850">
        <ele>906.8</ele>
        <time>2021-04-17T12:49:14Z</time>
      </trkpt>
      <trkpt lat="-25.5725640" lon="-49.0308860">
        <ele>907.0</ele>
        <time>2021-04-17T12:49:15Z</time>
      </trkpt>
      <trkpt lat="-25.5725200" lon="-49.0308950">
        <ele>907.2</ele>
        <time>2021-04-17T12:49:17Z</time>
      </trkpt>
      <trkpt lat="-25.5724750" lon="-49.0309040">
        <ele>907.6</ele>
        <time>2021-04-17T12:49:19Z</time>
      </trkpt>
      <trkpt lat="-25.5724540" lon="-49.0309070">
        <ele>907.8</ele>
        <time>2021-04-17T12:49:20Z</time>
      </trkpt>
      <trkpt lat="-25.5724320" lon="-49.0309110">
        <ele>908.2</ele>
        <time>2021-04-17T12:49:21Z</time>
      </trkpt>
      <trkpt lat="-25.5723900" lon="-49.0309220">
        <ele>908.6</ele>
        <time>2021-04-17T12:49:23Z</time>
      </trkpt>
      <trkpt lat="-25.5723720" lon="-49.0309300">
        <ele>908.8</ele>
        <time>2021-04-17T12:49:24Z</time>
      </trkpt>
      <trkpt lat="-25.5723510" lon="-49.0309400">
        <ele>909.2</ele>
        <time>2021-04-17T12:49:25Z</time>
      </trkpt>
      <trkpt lat="-25.5723100" lon="-49.0309550">
        <ele>909.8</ele>
        <time>2021-04-17T12:49:27Z</time>
      </trkpt>
      <trkpt lat="-25.5722880" lon="-49.0309600">
        <ele>910.2</ele>
        <time>2021-04-17T12:49:28Z</time>
      </trkpt>
      <trkpt lat="-25.5722630" lon="-49.0309640">
        <ele>910.4</ele>
        <time>2021-04-17T12:49:29Z</time>
      </trkpt>
      <trkpt lat="-25.5722060" lon="-49.0309790">
        <ele>910.8</ele>
        <time>2021-04-17T12:49:31Z</time>
      </trkpt>
      <trkpt lat="-25.5721520" lon="-49.0310090">
        <ele>911.2</ele>
        <time>2021-04-17T12:49:33Z</time>
      </trkpt>
      <trkpt lat="-25.5721290" lon="-49.0310280">
        <ele>911.4</ele>
        <time>2021-04-17T12:49:34Z</time>
      </trkpt>
      <trkpt lat="-25.5721080" lon="-49.0310500">
        <ele>911.6</ele>
        <time>2021-04-17T12:49:35Z</time>
      </trkpt>
      <trkpt lat="-25.5720750" lon="-49.0311020">
        <ele>911.8</ele>
        <time>2021-04-17T12:49:37Z</time>
      </trkpt>
      <trkpt lat="-25.5720630" lon="-49.0311310">
        <ele>912.0</ele>
        <time>2021-04-17T12:49:38Z</time>
      </trkpt>
      <trkpt lat="-25.5720570" lon="-49.0311560">
        <ele>912.0</ele>
        <time>2021-04-17T12:49:39Z</time>
      </trkpt>
      <trkpt lat="-25.5720560" lon="-49.0312050">
        <ele>912.2</ele>
        <time>2021-04-17T12:49:41Z</time>
      </trkpt>
      <trkpt lat="-25.5720640" lon="-49.0312490">
        <ele>912.4</ele>
        <time>2021-04-17T12:49:43Z</time>
      </trkpt>
      <trkpt lat="-25.5720760" lon="-49.0312890">
        <ele>912.6</ele>
        <time>2021-04-17T12:49:45Z</time>
      </trkpt>
      <trkpt lat="-25.5720920" lon="-49.0313300">
        <ele>912.8</ele>
        <time>2021-04-17T12:49:47Z</time>
      </trkpt>
      <trkpt lat="-25.5721110" lon="-49.0313660">
        <ele>913.2</ele>
        <time>2021-04-17T12:49:49Z</time>
      </trkpt>
      <trkpt lat="-25.5721190" lon="-49.0313830">
        <ele>913.2</ele>
        <time>2021-04-17T12:49:50Z</time>
      </trkpt>
      <trkpt lat="-25.5721270" lon="-49.0314010">
        <ele>913.4</ele>
        <time>2021-04-17T12:49:51Z</time>
      </trkpt>
      <trkpt lat="-25.5721360" lon="-49.0314400">
        <ele>913.6</ele>
        <time>2021-04-17T12:49:53Z</time>
      </trkpt>
      <trkpt lat="-25.5721410" lon="-49.0314820">
        <ele>914.0</ele>
        <time>2021-04-17T12:49:55Z</time>
      </trkpt>
      <trkpt lat="-25.5721550" lon="-49.0315200">
        <ele>914.2</ele>
        <time>2021-04-17T12:49:57Z</time>
      </trkpt>
      <trkpt lat="-25.5721590" lon="-49.0315370">
        <ele>914.4</ele>
        <time>2021-04-17T12:49:58Z</time>
      </trkpt>
      <trkpt lat="-25.5721600" lon="-49.0315550">
        <ele>914.4</ele>
        <time>2021-04-17T12:49:59Z</time>
      </trkpt>
      <trkpt lat="-25.5721600" lon="-49.0315910">
        <ele>914.6</ele>
        <time>2021-04-17T12:50:01Z</time>
      </trkpt>
      <trkpt lat="-25.5721630" lon="-49.0316300">
        <ele>914.8</ele>
        <time>2021-04-17T12:50:03Z</time>
      </trkpt>
      <trkpt lat="-25.5721650" lon="-49.0316480">
        <ele>915.0</ele>
        <time>2021-04-17T12:50:04Z</time>
      </trkpt>
      <trkpt lat="-25.5721690" lon="-49.0316670">
        <ele>915.2</ele>
        <time>2021-04-17T12:50:05Z</time>
      </trkpt>
      <trkpt lat="-25.5721760" lon="-49.0316870">
        <ele>915.4</ele>
        <time>2021-04-17T12:50:06Z</time>
      </trkpt>
      <trkpt lat="-25.5721820" lon="-49.0317110">
        <ele>915.6</ele>
        <time>2021-04-17T12:50:07Z</time>
      </trkpt>
      <trkpt lat="-25.5721950" lon="-49.0317550">
        <ele>916.2</ele>
        <time>2021-04-17T12:50:09Z</time>
      </trkpt>
      <trkpt lat="-25.5722040" lon="-49.0317760">
        <ele>916.4</ele>
        <time>2021-04-17T12:50:10Z</time>
      </trkpt>
      <trkpt lat="-25.5722160" lon="-49.0317930">
        <ele>916.4</ele>
        <time>2021-04-17T12:50:11Z</time>
      </trkpt>
      <trkpt lat="-25.5722340" lon="-49.0318280">
        <ele>916.6</ele>
        <time>2021-04-17T12:50:13Z</time>
      </trkpt>
      <trkpt lat="-25.5722490" lon="-49.0318680">
        <ele>917.0</ele>
        <time>2021-04-17T12:50:15Z</time>
      </trkpt>
      <trkpt lat="-25.5722560" lon="-49.0318890">
        <ele>917.0</ele>
        <time>2021-04-17T12:50:16Z</time>
      </trkpt>
      <trkpt lat="-25.5722600" lon="-49.0319080">
        <ele>917.2</ele>
        <time>2021-04-17T12:50:17Z</time>
      </trkpt>
      <trkpt lat="-25.5722690" lon="-49.0319480">
        <ele>917.6</ele>
        <time>2021-04-17T12:50:19Z</time>
      </trkpt>
      <trkpt lat="-25.5722730" lon="-49.0319820">
        <ele>917.6</ele>
        <time>2021-04-17T12:50:21Z</time>
      </trkpt>
      <trkpt lat="-25.5722750" lon="-49.0320160">
        <ele>917.6</ele>
        <time>2021-04-17T12:50:23Z</time>
      </trkpt>
      <trkpt lat="-25.5722740" lon="-49.0320350">
        <ele>917.6</ele>
        <time>2021-04-17T12:50:24Z</time>
      </trkpt>
      <trkpt lat="-25.5722710" lon="-49.0320520">
        <ele>917.8</ele>
        <time>2021-04-17T12:50:25Z</time>
      </trkpt>
      <trkpt lat="-25.5722580" lon="-49.0320860">
        <ele>918.4</ele>
        <time>2021-04-17T12:50:27Z</time>
      </trkpt>
      <trkpt lat="-25.5722520" lon="-49.0321030">
        <ele>918.4</ele>
        <time>2021-04-17T12:50:28Z</time>
      </trkpt>
      <trkpt lat="-25.5722470" lon="-49.0321130">
        <ele>918.4</ele>
        <time>2021-04-17T12:50:29Z</time>
      </trkpt>
      <trkpt lat="-25.5722310" lon="-49.0321280">
        <ele>918.8</ele>
        <time>2021-04-17T12:50:31Z</time>
      </trkpt>
      <trkpt lat="-25.5722110" lon="-49.0321430">
        <ele>919.0</ele>
        <time>2021-04-17T12:50:33Z</time>
      </trkpt>
      <trkpt lat="-25.5721950" lon="-49.0321470">
        <ele>919.2</ele>
        <time>2021-04-17T12:50:34Z</time>
      </trkpt>
      <trkpt lat="-25.5721750" lon="-49.0321540">
        <ele>919.4</ele>
        <time>2021-04-17T12:50:35Z</time>
      </trkpt>
      <trkpt lat="-25.5721530" lon="-49.0321590">
        <ele>919.6</ele>
        <time>2021-04-17T12:50:36Z</time>
      </trkpt>
      <trkpt lat="-25.5721340" lon="-49.0321630">
        <ele>919.8</ele>
        <time>2021-04-17T12:50:37Z</time>
      </trkpt>
      <trkpt lat="-25.5720930" lon="-49.0321820">
        <ele>920.0</ele>
        <time>2021-04-17T12:50:39Z</time>
      </trkpt>
      <trkpt lat="-25.5720430" lon="-49.0322020">
        <ele>920.2</ele>
        <time>2021-04-17T12:50:41Z</time>
      </trkpt>
      <trkpt lat="-25.5720190" lon="-49.0322150">
        <ele>920.2</ele>
        <time>2021-04-17T12:50:42Z</time>
      </trkpt>
      <trkpt lat="-25.5719950" lon="-49.0322300">
        <ele>920.4</ele>
        <time>2021-04-17T12:50:43Z</time>
      </trkpt>
      <trkpt lat="-25.5719430" lon="-49.0322650">
        <ele>920.6</ele>
        <time>2021-04-17T12:50:45Z</time>
      </trkpt>
      <trkpt lat="-25.5718980" lon="-49.0322960">
        <ele>920.8</ele>
        <time>2021-04-17T12:50:47Z</time>
      </trkpt>
      <trkpt lat="-25.5718630" lon="-49.0323300">
        <ele>921.0</ele>
        <time>2021-04-17T12:50:49Z</time>
      </trkpt>
      <trkpt lat="-25.5718280" lon="-49.0323630">
        <ele>921.2</ele>
        <time>2021-04-17T12:50:51Z</time>
      </trkpt>
      <trkpt lat="-25.5718110" lon="-49.0323760">
        <ele>921.6</ele>
        <time>2021-04-17T12:50:52Z</time>
      </trkpt>
      <trkpt lat="-25.5717980" lon="-49.0323900">
        <ele>921.8</ele>
        <time>2021-04-17T12:50:53Z</time>
      </trkpt>
      <trkpt lat="-25.5717640" lon="-49.0324180">
        <ele>922.0</ele>
        <time>2021-04-17T12:50:55Z</time>
      </trkpt>
      <trkpt lat="-25.5717480" lon="-49.0324270">
        <ele>922.0</ele>
        <time>2021-04-17T12:50:56Z</time>
      </trkpt>
      <trkpt lat="-25.5717290" lon="-49.0324320">
        <ele>922.2</ele>
        <time>2021-04-17T12:50:57Z</time>
      </trkpt>
      <trkpt lat="-25.5716930" lon="-49.0324390">
        <ele>922.6</ele>
        <time>2021-04-17T12:50:59Z</time>
      </trkpt>
      <trkpt lat="-25.5716540" lon="-49.0324440">
        <ele>922.8</ele>
        <time>2021-04-17T12:51:01Z</time>
      </trkpt>
      <trkpt lat="-25.5716080" lon="-49.0324590">
        <ele>923.0</ele>
        <time>2021-04-17T12:51:03Z</time>
      </trkpt>
      <trkpt lat="-25.5715640" lon="-49.0324770">
        <ele>923.4</ele>
        <time>2021-04-17T12:51:05Z</time>
      </trkpt>
      <trkpt lat="-25.5715410" lon="-49.0324900">
        <ele>923.6</ele>
        <time>2021-04-17T12:51:06Z</time>
      </trkpt>
      <trkpt lat="-25.5715220" lon="-49.0325060">
        <ele>924.0</ele>
        <time>2021-04-17T12:51:07Z</time>
      </trkpt>
      <trkpt lat="-25.5715040" lon="-49.0325230">
        <ele>924.2</ele>
        <time>2021-04-17T12:51:08Z</time>
      </trkpt>
      <trkpt lat="-25.5714880" lon="-49.0325410">
        <ele>924.4</ele>
        <time>2021-04-17T12:51:09Z</time>
      </trkpt>
      <trkpt lat="-25.5714550" lon="-49.0325790">
        <ele>924.8</ele>
        <time>2021-04-17T12:51:11Z</time>
      </trkpt>
      <trkpt lat="-25.5714310" lon="-49.0326310">
        <ele>925.2</ele>
        <time>2021-04-17T12:51:13Z</time>
      </trkpt>
      <trkpt lat="-25.5714050" lon="-49.0326780">
        <ele>925.6</ele>
        <time>2021-04-17T12:51:15Z</time>
      </trkpt>
      <trkpt lat="-25.5713930" lon="-49.0327040">
        <ele>925.8</ele>
        <time>2021-04-17T12:51:16Z</time>
      </trkpt>
      <trkpt lat="-25.5713810" lon="-49.0327280">
        <ele>925.8</ele>
        <time>2021-04-17T12:51:17Z</time>
      </trkpt>
      <trkpt lat="-25.5713540" lon="-49.0327760">
        <ele>926.2</ele>
        <time>2021-04-17T12:51:19Z</time>
      </trkpt>
      <trkpt lat="-25.5713320" lon="-49.0328210">
        <ele>926.4</ele>
        <time>2021-04-17T12:51:21Z</time>
      </trkpt>
      <trkpt lat="-25.5713160" lon="-49.0328400">
        <ele>926.2</ele>
        <time>2021-04-17T12:51:22Z</time>
      </trkpt>
      <trkpt lat="-25.5713020" lon="-49.0328620">
        <ele>926.4</ele>
        <time>2021-04-17T12:51:23Z</time>
      </trkpt>
      <trkpt lat="-25.5712760" lon="-49.0329060">
        <ele>926.6</ele>
        <time>2021-04-17T12:51:25Z</time>
      </trkpt>
      <trkpt lat="-25.5712560" lon="-49.0329530">
        <ele>926.8</ele>
        <time>2021-04-17T12:51:27Z</time>
      </trkpt>
      <trkpt lat="-25.5712360" lon="-49.0330020">
        <ele>927.0</ele>
        <time>2021-04-17T12:51:29Z</time>
      </trkpt>
      <trkpt lat="-25.5712230" lon="-49.0330650">
        <ele>927.4</ele>
        <time>2021-04-17T12:51:31Z</time>
      </trkpt>
      <trkpt lat="-25.5712070" lon="-49.0331210">
        <ele>927.6</ele>
        <time>2021-04-17T12:51:33Z</time>
      </trkpt>
      <trkpt lat="-25.5711830" lon="-49.0331610">
        <ele>928.0</ele>
        <time>2021-04-17T12:51:35Z</time>
      </trkpt>
      <trkpt lat="-25.5711740" lon="-49.0331810">
        <ele>928.2</ele>
        <time>2021-04-17T12:51:36Z</time>
      </trkpt>
      <trkpt lat="-25.5711650" lon="-49.0332040">
        <ele>928.2</ele>
        <time>2021-04-17T12:51:37Z</time>
      </trkpt>
      <trkpt lat="-25.5711620" lon="-49.0332490">
        <ele>928.4</ele>
        <time>2021-04-17T12:51:39Z</time>
      </trkpt>
      <trkpt lat="-25.5711660" lon="-49.0333000">
        <ele>928.8</ele>
        <time>2021-04-17T12:51:41Z</time>
      </trkpt>
      <trkpt lat="-25.5711830" lon="-49.0333530">
        <ele>929.2</ele>
        <time>2021-04-17T12:51:43Z</time>
      </trkpt>
      <trkpt lat="-25.5712020" lon="-49.0334070">
        <ele>929.6</ele>
        <time>2021-04-17T12:51:45Z</time>
      </trkpt>
      <trkpt lat="-25.5712300" lon="-49.0334650">
        <ele>930.0</ele>
        <time>2021-04-17T12:51:47Z</time>
      </trkpt>
      <trkpt lat="-25.5712630" lon="-49.0335270">
        <ele>930.0</ele>
        <time>2021-04-17T12:51:49Z</time>
      </trkpt>
      <trkpt lat="-25.5713010" lon="-49.0335890">
        <ele>930.2</ele>
        <time>2021-04-17T12:51:51Z</time>
      </trkpt>
      <trkpt lat="-25.5713480" lon="-49.0336490">
        <ele>930.4</ele>
        <time>2021-04-17T12:51:53Z</time>
      </trkpt>
      <trkpt lat="-25.5713880" lon="-49.0337130">
        <ele>930.4</ele>
        <time>2021-04-17T12:51:55Z</time>
      </trkpt>
      <trkpt lat="-25.5713980" lon="-49.0337550">
        <ele>930.4</ele>
        <time>2021-04-17T12:51:56Z</time>
      </trkpt>
      <trkpt lat="-25.5714040" lon="-49.0338080">
        <ele>930.4</ele>
        <time>2021-04-17T12:51:57Z</time>
      </trkpt>
      <trkpt lat="-25.5713930" lon="-49.0338710">
        <ele>930.4</ele>
        <time>2021-04-17T12:51:58Z</time>
      </trkpt>
      <trkpt lat="-25.5713610" lon="-49.0339270">
        <ele>930.4</ele>
        <time>2021-04-17T12:51:59Z</time>
      </trkpt>
      <trkpt lat="-25.5713070" lon="-49.0339610">
        <ele>930.4</ele>
        <time>2021-04-17T12:52:00Z</time>
      </trkpt>
      <trkpt lat="-25.5712450" lon="-49.0339730">
        <ele>930.4</ele>
        <time>2021-04-17T12:52:01Z</time>
      </trkpt>
      <trkpt lat="-25.5711240" lon="-49.0339470">
        <ele>930.2</ele>
        <time>2021-04-17T12:52:03Z</time>
      </trkpt>
      <trkpt lat="-25.5710660" lon="-49.0339210">
        <ele>930.0</ele>
        <time>2021-04-17T12:52:04Z</time>
      </trkpt>
      <trkpt lat="-25.5710080" lon="-49.0338930">
        <ele>929.6</ele>
        <time>2021-04-17T12:52:05Z</time>
      </trkpt>
      <trkpt lat="-25.5708830" lon="-49.0338250">
        <ele>928.2</ele>
        <time>2021-04-17T12:52:07Z</time>
      </trkpt>
      <trkpt lat="-25.5707570" lon="-49.0337550">
        <ele>927.6</ele>
        <time>2021-04-17T12:52:09Z</time>
      </trkpt>
      <trkpt lat="-25.5706280" lon="-49.0336810">
        <ele>927.2</ele>
        <time>2021-04-17T12:52:11Z</time>
      </trkpt>
      <trkpt lat="-25.5704950" lon="-49.0336120">
        <ele>926.8</ele>
        <time>2021-04-17T12:52:13Z</time>
      </trkpt>
      <trkpt lat="-25.5703720" lon="-49.0335430">
        <ele>926.0</ele>
        <time>2021-04-17T12:52:15Z</time>
      </trkpt>
      <trkpt lat="-25.5702510" lon="-49.0334830">
        <ele>925.6</ele>
        <time>2021-04-17T12:52:17Z</time>
      </trkpt>
      <trkpt lat="-25.5701420" lon="-49.0334350">
        <ele>925.6</ele>
        <time>2021-04-17T12:52:19Z</time>
      </trkpt>
      <trkpt lat="-25.5700470" lon="-49.0333990">
        <ele>925.6</ele>
        <time>2021-04-17T12:52:21Z</time>
      </trkpt>
      <trkpt lat="-25.5699490" lon="-49.0333710">
        <ele>925.4</ele>
        <time>2021-04-17T12:52:23Z</time>
      </trkpt>
      <trkpt lat="-25.5698470" lon="-49.0333430">
        <ele>925.4</ele>
        <time>2021-04-17T12:52:25Z</time>
      </trkpt>
      <trkpt lat="-25.5697520" lon="-49.0333140">
        <ele>925.8</ele>
        <time>2021-04-17T12:52:27Z</time>
      </trkpt>
      <trkpt lat="-25.5696580" lon="-49.0332900">
        <ele>926.4</ele>
        <time>2021-04-17T12:52:29Z</time>
      </trkpt>
      <trkpt lat="-25.5696160" lon="-49.0332780">
        <ele>926.8</ele>
        <time>2021-04-17T12:52:30Z</time>
      </trkpt>
      <trkpt lat="-25.5695750" lon="-49.0332640">
        <ele>927.4</ele>
        <time>2021-04-17T12:52:31Z</time>
      </trkpt>
      <trkpt lat="-25.5694970" lon="-49.0332330">
        <ele>927.8</ele>
        <time>2021-04-17T12:52:33Z</time>
      </trkpt>
      <trkpt lat="-25.5694630" lon="-49.0332150">
        <ele>928.2</ele>
        <time>2021-04-17T12:52:34Z</time>
      </trkpt>
      <trkpt lat="-25.5694330" lon="-49.0331940">
        <ele>928.4</ele>
        <time>2021-04-17T12:52:35Z</time>
      </trkpt>
      <trkpt lat="-25.5694050" lon="-49.0331740">
        <ele>928.6</ele>
        <time>2021-04-17T12:52:36Z</time>
      </trkpt>
      <trkpt lat="-25.5693800" lon="-49.0331540">
        <ele>928.8</ele>
        <time>2021-04-17T12:52:37Z</time>
      </trkpt>
      <trkpt lat="-25.5693270" lon="-49.0331180">
        <ele>929.2</ele>
        <time>2021-04-17T12:52:39Z</time>
      </trkpt>
      <trkpt lat="-25.5693010" lon="-49.0331010">
        <ele>929.2</ele>
        <time>2021-04-17T12:52:40Z</time>
      </trkpt>
      <trkpt lat="-25.5692730" lon="-49.0330860">
        <ele>929.6</ele>
        <time>2021-04-17T12:52:41Z</time>
      </trkpt>
      <trkpt lat="-25.5692180" lon="-49.0330550">
        <ele>930.2</ele>
        <time>2021-04-17T12:52:43Z</time>
      </trkpt>
      <trkpt lat="-25.5691890" lon="-49.0330380">
        <ele>930.4</ele>
        <time>2021-04-17T12:52:44Z</time>
      </trkpt>
      <trkpt lat="-25.5691620" lon="-49.0330240">
        <ele>930.4</ele>
        <time>2021-04-17T12:52:45Z</time>
      </trkpt>
      <trkpt lat="-25.5691080" lon="-49.0329930">
        <ele>930.8</ele>
        <time>2021-04-17T12:52:47Z</time>
      </trkpt>
      <trkpt lat="-25.5690540" lon="-49.0329620">
        <ele>931.2</ele>
        <time>2021-04-17T12:52:49Z</time>
      </trkpt>
      <trkpt lat="-25.5690250" lon="-49.0329460">
        <ele>931.4</ele>
        <time>2021-04-17T12:52:50Z</time>
      </trkpt>
      <trkpt lat="-25.5689960" lon="-49.0329330">
        <ele>931.6</ele>
        <time>2021-04-17T12:52:51Z</time>
      </trkpt>
      <trkpt lat="-25.5689370" lon="-49.0329020">
        <ele>932.0</ele>
        <time>2021-04-17T12:52:53Z</time>
      </trkpt>
      <trkpt lat="-25.5688830" lon="-49.0328720">
        <ele>932.4</ele>
        <time>2021-04-17T12:52:55Z</time>
      </trkpt>
      <trkpt lat="-25.5688560" lon="-49.0328630">
        <ele>932.6</ele>
        <time>2021-04-17T12:52:56Z</time>
      </trkpt>
      <trkpt lat="-25.5688290" lon="-49.0328600">
        <ele>932.6</ele>
        <time>2021-04-17T12:52:57Z</time>
      </trkpt>
      <trkpt lat="-25.5687750" lon="-49.0328650">
        <ele>933.0</ele>
        <time>2021-04-17T12:52:59Z</time>
      </trkpt>
      <trkpt lat="-25.5687230" lon="-49.0328900">
        <ele>933.2</ele>
        <time>2021-04-17T12:53:01Z</time>
      </trkpt>
      <trkpt lat="-25.5686970" lon="-49.0329060">
        <ele>933.2</ele>
        <time>2021-04-17T12:53:02Z</time>
      </trkpt>
      <trkpt lat="-25.5686730" lon="-49.0329240">
        <ele>933.2</ele>
        <time>2021-04-17T12:53:03Z</time>
      </trkpt>
      <trkpt lat="-25.5686280" lon="-49.0329710">
        <ele>933.4</ele>
        <time>2021-04-17T12:53:05Z</time>
      </trkpt>
      <trkpt lat="-25.5686080" lon="-49.0329990">
        <ele>933.6</ele>
        <time>2021-04-17T12:53:06Z</time>
      </trkpt>
      <trkpt lat="-25.5685910" lon="-49.0330310">
        <ele>933.6</ele>
        <time>2021-04-17T12:53:07Z</time>
      </trkpt>
      <trkpt lat="-25.5685730" lon="-49.0330660">
        <ele>933.8</ele>
        <time>2021-04-17T12:53:08Z</time>
      </trkpt>
      <trkpt lat="-25.5685550" lon="-49.0331010">
        <ele>934.0</ele>
        <time>2021-04-17T12:53:09Z</time>
      </trkpt>
      <trkpt lat="-25.5685200" lon="-49.0331730">
        <ele>934.2</ele>
        <time>2021-04-17T12:53:11Z</time>
      </trkpt>
      <trkpt lat="-25.5684780" lon="-49.0332370">
        <ele>934.2</ele>
        <time>2021-04-17T12:53:13Z</time>
      </trkpt>
      <trkpt lat="-25.5684610" lon="-49.0332700">
        <ele>934.4</ele>
        <time>2021-04-17T12:53:14Z</time>
      </trkpt>
      <trkpt lat="-25.5684450" lon="-49.0333020">
        <ele>934.4</ele>
        <time>2021-04-17T12:53:15Z</time>
      </trkpt>
      <trkpt lat="-25.5684150" lon="-49.0333670">
        <ele>934.4</ele>
        <time>2021-04-17T12:53:17Z</time>
      </trkpt>
      <trkpt lat="-25.5683810" lon="-49.0334350">
        <ele>934.6</ele>
        <time>2021-04-17T12:53:19Z</time>
      </trkpt>
      <trkpt lat="-25.5683480" lon="-49.0335060">
        <ele>934.8</ele>
        <time>2021-04-17T12:53:21Z</time>
      </trkpt>
      <trkpt lat="-25.5683160" lon="-49.0335760">
        <ele>934.8</ele>
        <time>2021-04-17T12:53:23Z</time>
      </trkpt>
      <trkpt lat="-25.5682810" lon="-49.0336400">
        <ele>935.0</ele>
        <time>2021-04-17T12:53:25Z</time>
      </trkpt>
      <trkpt lat="-25.5682510" lon="-49.0337050">
        <ele>935.2</ele>
        <time>2021-04-17T12:53:27Z</time>
      </trkpt>
      <trkpt lat="-25.5682160" lon="-49.0337660">
        <ele>935.6</ele>
        <time>2021-04-17T12:53:29Z</time>
      </trkpt>
      <trkpt lat="-25.5681850" lon="-49.0338250">
        <ele>935.6</ele>
        <time>2021-04-17T12:53:31Z</time>
      </trkpt>
      <trkpt lat="-25.5681510" lon="-49.0338870">
        <ele>935.8</ele>
        <time>2021-04-17T12:53:33Z</time>
      </trkpt>
      <trkpt lat="-25.5681120" lon="-49.0339480">
        <ele>935.8</ele>
        <time>2021-04-17T12:53:35Z</time>
      </trkpt>
      <trkpt lat="-25.5680740" lon="-49.0340090">
        <ele>936.0</ele>
        <time>2021-04-17T12:53:37Z</time>
      </trkpt>
      <trkpt lat="-25.5680400" lon="-49.0340700">
        <ele>936.2</ele>
        <time>2021-04-17T12:53:39Z</time>
      </trkpt>
      <trkpt lat="-25.5680050" lon="-49.0341300">
        <ele>936.6</ele>
        <time>2021-04-17T12:53:41Z</time>
      </trkpt>
      <trkpt lat="-25.5679810" lon="-49.0341540">
        <ele>936.8</ele>
        <time>2021-04-17T12:53:42Z</time>
      </trkpt>
      <trkpt lat="-25.5679570" lon="-49.0341770">
        <ele>936.8</ele>
        <time>2021-04-17T12:53:43Z</time>
      </trkpt>
      <trkpt lat="-25.5679080" lon="-49.0342250">
        <ele>937.0</ele>
        <time>2021-04-17T12:53:45Z</time>
      </trkpt>
      <trkpt lat="-25.5678570" lon="-49.0342770">
        <ele>937.2</ele>
        <time>2021-04-17T12:53:47Z</time>
      </trkpt>
      <trkpt lat="-25.5678120" lon="-49.0343360">
        <ele>937.2</ele>
        <time>2021-04-17T12:53:49Z</time>
      </trkpt>
      <trkpt lat="-25.5677740" lon="-49.0343980">
        <ele>937.4</ele>
        <time>2021-04-17T12:53:51Z</time>
      </trkpt>
      <trkpt lat="-25.5677570" lon="-49.0344300">
        <ele>937.4</ele>
        <time>2021-04-17T12:53:52Z</time>
      </trkpt>
      <trkpt lat="-25.5677420" lon="-49.0344610">
        <ele>937.6</ele>
        <time>2021-04-17T12:53:53Z</time>
      </trkpt>
      <trkpt lat="-25.5677310" lon="-49.0344910">
        <ele>938.0</ele>
        <time>2021-04-17T12:53:54Z</time>
      </trkpt>
      <trkpt lat="-25.5677230" lon="-49.0345190">
        <ele>938.2</ele>
        <time>2021-04-17T12:53:55Z</time>
      </trkpt>
      <trkpt lat="-25.5677090" lon="-49.0345780">
        <ele>938.6</ele>
        <time>2021-04-17T12:53:57Z</time>
      </trkpt>
      <trkpt lat="-25.5677040" lon="-49.0346070">
        <ele>938.8</ele>
        <time>2021-04-17T12:53:58Z</time>
      </trkpt>
      <trkpt lat="-25.5677010" lon="-49.0346330">
        <ele>939.0</ele>
        <time>2021-04-17T12:53:59Z</time>
      </trkpt>
      <trkpt lat="-25.5676900" lon="-49.0346880">
        <ele>939.6</ele>
        <time>2021-04-17T12:54:01Z</time>
      </trkpt>
      <trkpt lat="-25.5676850" lon="-49.0347550">
        <ele>940.2</ele>
        <time>2021-04-17T12:54:03Z</time>
      </trkpt>
      <trkpt lat="-25.5676830" lon="-49.0347910">
        <ele>940.6</ele>
        <time>2021-04-17T12:54:04Z</time>
      </trkpt>
      <trkpt lat="-25.5676820" lon="-49.0348250">
        <ele>940.6</ele>
        <time>2021-04-17T12:54:05Z</time>
      </trkpt>
      <trkpt lat="-25.5676830" lon="-49.0348940">
        <ele>940.8</ele>
        <time>2021-04-17T12:54:07Z</time>
      </trkpt>
      <trkpt lat="-25.5676860" lon="-49.0349630">
        <ele>940.8</ele>
        <time>2021-04-17T12:54:09Z</time>
      </trkpt>
      <trkpt lat="-25.5676800" lon="-49.0350330">
        <ele>940.8</ele>
        <time>2021-04-17T12:54:11Z</time>
      </trkpt>
      <trkpt lat="-25.5676800" lon="-49.0351150">
        <ele>941.0</ele>
        <time>2021-04-17T12:54:13Z</time>
      </trkpt>
      <trkpt lat="-25.5676850" lon="-49.0352080">
        <ele>940.8</ele>
        <time>2021-04-17T12:54:15Z</time>
      </trkpt>
      <trkpt lat="-25.5676890" lon="-49.0352630">
        <ele>940.8</ele>
        <time>2021-04-17T12:54:16Z</time>
      </trkpt>
      <trkpt lat="-25.5676840" lon="-49.0353200">
        <ele>940.8</ele>
        <time>2021-04-17T12:54:17Z</time>
      </trkpt>
      <trkpt lat="-25.5676780" lon="-49.0354600">
        <ele>940.8</ele>
        <time>2021-04-17T12:54:19Z</time>
      </trkpt>
      <trkpt lat="-25.5676730" lon="-49.0355430">
        <ele>940.8</ele>
        <time>2021-04-17T12:54:20Z</time>
      </trkpt>
      <trkpt lat="-25.5676520" lon="-49.0356240">
        <ele>940.4</ele>
        <time>2021-04-17T12:54:21Z</time>
      </trkpt>
      <trkpt lat="-25.5675820" lon="-49.0357790">
        <ele>940.2</ele>
        <time>2021-04-17T12:54:23Z</time>
      </trkpt>
      <trkpt lat="-25.5674750" lon="-49.0359070">
        <ele>939.2</ele>
        <time>2021-04-17T12:54:25Z</time>
      </trkpt>
      <trkpt lat="-25.5674220" lon="-49.0359680">
        <ele>938.8</ele>
        <time>2021-04-17T12:54:26Z</time>
      </trkpt>
      <trkpt lat="-25.5673670" lon="-49.0360240">
        <ele>938.6</ele>
        <time>2021-04-17T12:54:27Z</time>
      </trkpt>
      <trkpt lat="-25.5672580" lon="-49.0361280">
        <ele>937.4</ele>
        <time>2021-04-17T12:54:29Z</time>
      </trkpt>
      <trkpt lat="-25.5671580" lon="-49.0362330">
        <ele>936.6</ele>
        <time>2021-04-17T12:54:31Z</time>
      </trkpt>
      <trkpt lat="-25.5671120" lon="-49.0362850">
        <ele>936.6</ele>
        <time>2021-04-17T12:54:32Z</time>
      </trkpt>
      <trkpt lat="-25.5670700" lon="-49.0363360">
        <ele>936.4</ele>
        <time>2021-04-17T12:54:33Z</time>
      </trkpt>
      <trkpt lat="-25.5670100" lon="-49.0364390">
        <ele>936.2</ele>
        <time>2021-04-17T12:54:35Z</time>
      </trkpt>
      <trkpt lat="-25.5669780" lon="-49.0365570">
        <ele>936.0</ele>
        <time>2021-04-17T12:54:37Z</time>
      </trkpt>
      <trkpt lat="-25.5669670" lon="-49.0366750">
        <ele>936.0</ele>
        <time>2021-04-17T12:54:39Z</time>
      </trkpt>
      <trkpt lat="-25.5669650" lon="-49.0367270">
        <ele>936.0</ele>
        <time>2021-04-17T12:54:40Z</time>
      </trkpt>
      <trkpt lat="-25.5669630" lon="-49.0367740">
        <ele>936.0</ele>
        <time>2021-04-17T12:54:41Z</time>
      </trkpt>
      <trkpt lat="-25.5669650" lon="-49.0368160">
        <ele>936.0</ele>
        <time>2021-04-17T12:54:42Z</time>
      </trkpt>
      <trkpt lat="-25.5669680" lon="-49.0368560">
        <ele>936.0</ele>
        <time>2021-04-17T12:54:43Z</time>
      </trkpt>
      <trkpt lat="-25.5669700" lon="-49.0369290">
        <ele>936.0</ele>
        <time>2021-04-17T12:54:45Z</time>
      </trkpt>
      <trkpt lat="-25.5669810" lon="-49.0370170">
        <ele>936.0</ele>
        <time>2021-04-17T12:54:47Z</time>
      </trkpt>
      <trkpt lat="-25.5669920" lon="-49.0371270">
        <ele>936.2</ele>
        <time>2021-04-17T12:54:49Z</time>
      </trkpt>
      <trkpt lat="-25.5670070" lon="-49.0372460">
        <ele>936.2</ele>
        <time>2021-04-17T12:54:51Z</time>
      </trkpt>
      <trkpt lat="-25.5670170" lon="-49.0373560">
        <ele>936.2</ele>
        <time>2021-04-17T12:54:53Z</time>
      </trkpt>
      <trkpt lat="-25.5670200" lon="-49.0374610">
        <ele>936.2</ele>
        <time>2021-04-17T12:54:55Z</time>
      </trkpt>
      <trkpt lat="-25.5670210" lon="-49.0375590">
        <ele>936.2</ele>
        <time>2021-04-17T12:54:57Z</time>
      </trkpt>
      <trkpt lat="-25.5670090" lon="-49.0376510">
        <ele>936.2</ele>
        <time>2021-04-17T12:54:59Z</time>
      </trkpt>
      <trkpt lat="-25.5669880" lon="-49.0377300">
        <ele>936.2</ele>
        <time>2021-04-17T12:55:01Z</time>
      </trkpt>
      <trkpt lat="-25.5669930" lon="-49.0378060">
        <ele>936.2</ele>
        <time>2021-04-17T12:55:03Z</time>
      </trkpt>
      <trkpt lat="-25.5670080" lon="-49.0378460">
        <ele>936.2</ele>
        <time>2021-04-17T12:55:04Z</time>
      </trkpt>
      <trkpt lat="-25.5670140" lon="-49.0378850">
        <ele>936.2</ele>
        <time>2021-04-17T12:55:05Z</time>
      </trkpt>
      <trkpt lat="-25.5670310" lon="-49.0379680">
        <ele>936.2</ele>
        <time>2021-04-17T12:55:07Z</time>
      </trkpt>
      <trkpt lat="-25.5670600" lon="-49.0380510">
        <ele>936.2</ele>
        <time>2021-04-17T12:55:09Z</time>
      </trkpt>
      <trkpt lat="-25.5670750" lon="-49.0380930">
        <ele>936.2</ele>
        <time>2021-04-17T12:55:10Z</time>
      </trkpt>
      <trkpt lat="-25.5670860" lon="-49.0381380">
        <ele>936.4</ele>
        <time>2021-04-17T12:55:11Z</time>
      </trkpt>
      <trkpt lat="-25.5671030" lon="-49.0382300">
        <ele>936.4</ele>
        <time>2021-04-17T12:55:13Z</time>
      </trkpt>
      <trkpt lat="-25.5671190" lon="-49.0383320">
        <ele>936.4</ele>
        <time>2021-04-17T12:55:15Z</time>
      </trkpt>
      <trkpt lat="-25.5671300" lon="-49.0384360">
        <ele>936.4</ele>
        <time>2021-04-17T12:55:17Z</time>
      </trkpt>
      <trkpt lat="-25.5671330" lon="-49.0385360">
        <ele>936.4</ele>
        <time>2021-04-17T12:55:19Z</time>
      </trkpt>
      <trkpt lat="-25.5671370" lon="-49.0386290">
        <ele>936.4</ele>
        <time>2021-04-17T12:55:21Z</time>
      </trkpt>
      <trkpt lat="-25.5671400" lon="-49.0387170">
        <ele>936.6</ele>
        <time>2021-04-17T12:55:23Z</time>
      </trkpt>
      <trkpt lat="-25.5671390" lon="-49.0387560">
        <ele>936.6</ele>
        <time>2021-04-17T12:55:24Z</time>
      </trkpt>
      <trkpt lat="-25.5671370" lon="-49.0387950">
        <ele>936.6</ele>
        <time>2021-04-17T12:55:25Z</time>
      </trkpt>
      <trkpt lat="-25.5671500" lon="-49.0388810">
        <ele>936.8</ele>
        <time>2021-04-17T12:55:27Z</time>
      </trkpt>
      <trkpt lat="-25.5671510" lon="-49.0389670">
        <ele>937.0</ele>
        <time>2021-04-17T12:55:29Z</time>
      </trkpt>
      <trkpt lat="-25.5671490" lon="-49.0390180">
        <ele>937.2</ele>
        <time>2021-04-17T12:55:30Z</time>
      </trkpt>
      <trkpt lat="-25.5671490" lon="-49.0390710">
        <ele>937.2</ele>
        <time>2021-04-17T12:55:31Z</time>
      </trkpt>
      <trkpt lat="-25.5671160" lon="-49.0391710">
        <ele>937.6</ele>
        <time>2021-04-17T12:55:33Z</time>
      </trkpt>
      <trkpt lat="-25.5670730" lon="-49.0392620">
        <ele>937.6</ele>
        <time>2021-04-17T12:55:35Z</time>
      </trkpt>
      <trkpt lat="-25.5670570" lon="-49.0393050">
        <ele>937.6</ele>
        <time>2021-04-17T12:55:36Z</time>
      </trkpt>
      <trkpt lat="-25.5670510" lon="-49.0393460">
        <ele>937.6</ele>
        <time>2021-04-17T12:55:37Z</time>
      </trkpt>
      <trkpt lat="-25.5670280" lon="-49.0394260">
        <ele>937.8</ele>
        <time>2021-04-17T12:55:39Z</time>
      </trkpt>
      <trkpt lat="-25.5669980" lon="-49.0395130">
        <ele>937.8</ele>
        <time>2021-04-17T12:55:41Z</time>
      </trkpt>
      <trkpt lat="-25.5669660" lon="-49.0396080">
        <ele>937.6</ele>
        <time>2021-04-17T12:55:43Z</time>
      </trkpt>
      <trkpt lat="-25.5669260" lon="-49.0397190">
        <ele>937.4</ele>
        <time>2021-04-17T12:55:45Z</time>
      </trkpt>
      <trkpt lat="-25.5668940" lon="-49.0397730">
        <ele>937.2</ele>
        <time>2021-04-17T12:55:46Z</time>
      </trkpt>
      <trkpt lat="-25.5668550" lon="-49.0398280">
        <ele>937.2</ele>
        <time>2021-04-17T12:55:47Z</time>
      </trkpt>
      <trkpt lat="-25.5667650" lon="-49.0399260">
        <ele>937.0</ele>
        <time>2021-04-17T12:55:49Z</time>
      </trkpt>
      <trkpt lat="-25.5666350" lon="-49.0400070">
        <ele>936.4</ele>
        <time>2021-04-17T12:55:51Z</time>
      </trkpt>
      <trkpt lat="-25.5665010" lon="-49.0400430">
        <ele>936.2</ele>
        <time>2021-04-17T12:55:53Z</time>
      </trkpt>
      <trkpt lat="-25.5664370" lon="-49.0400420">
        <ele>935.8</ele>
        <time>2021-04-17T12:55:54Z</time>
      </trkpt>
      <trkpt lat="-25.5663780" lon="-49.0400340">
        <ele>935.6</ele>
        <time>2021-04-17T12:55:55Z</time>
      </trkpt>
      <trkpt lat="-25.5663230" lon="-49.0400210">
        <ele>935.4</ele>
        <time>2021-04-17T12:55:56Z</time>
      </trkpt>
      <trkpt lat="-25.5662670" lon="-49.0400090">
        <ele>935.2</ele>
        <time>2021-04-17T12:55:57Z</time>
      </trkpt>
      <trkpt lat="-25.5662110" lon="-49.0399980">
        <ele>934.6</ele>
        <time>2021-04-17T12:55:58Z</time>
      </trkpt>
      <trkpt lat="-25.5661570" lon="-49.0399840">
        <ele>934.2</ele>
        <time>2021-04-17T12:55:59Z</time>
      </trkpt>
      <trkpt lat="-25.5660550" lon="-49.0399580">
        <ele>933.8</ele>
        <time>2021-04-17T12:56:01Z</time>
      </trkpt>
      <trkpt lat="-25.5659670" lon="-49.0399430">
        <ele>933.8</ele>
        <time>2021-04-17T12:56:03Z</time>
      </trkpt>
      <trkpt lat="-25.5658860" lon="-49.0399310">
        <ele>933.8</ele>
        <time>2021-04-17T12:56:05Z</time>
      </trkpt>
      <trkpt lat="-25.5658040" lon="-49.0399310">
        <ele>933.8</ele>
        <time>2021-04-17T12:56:07Z</time>
      </trkpt>
      <trkpt lat="-25.5657190" lon="-49.0399380">
        <ele>933.6</ele>
        <time>2021-04-17T12:56:09Z</time>
      </trkpt>
      <trkpt lat="-25.5656350" lon="-49.0399490">
        <ele>933.6</ele>
        <time>2021-04-17T12:56:11Z</time>
      </trkpt>
      <trkpt lat="-25.5655530" lon="-49.0399670">
        <ele>933.6</ele>
        <time>2021-04-17T12:56:13Z</time>
      </trkpt>
      <trkpt lat="-25.5654800" lon="-49.0399970">
        <ele>933.8</ele>
        <time>2021-04-17T12:56:15Z</time>
      </trkpt>
      <trkpt lat="-25.5654170" lon="-49.0400360">
        <ele>933.8</ele>
        <time>2021-04-17T12:56:17Z</time>
      </trkpt>
      <trkpt lat="-25.5653600" lon="-49.0400860">
        <ele>933.8</ele>
        <time>2021-04-17T12:56:19Z</time>
      </trkpt>
      <trkpt lat="-25.5652960" lon="-49.0401430">
        <ele>933.6</ele>
        <time>2021-04-17T12:56:21Z</time>
      </trkpt>
      <trkpt lat="-25.5652250" lon="-49.0402110">
        <ele>933.6</ele>
        <time>2021-04-17T12:56:23Z</time>
      </trkpt>
      <trkpt lat="-25.5651420" lon="-49.0402880">
        <ele>933.6</ele>
        <time>2021-04-17T12:56:25Z</time>
      </trkpt>
      <trkpt lat="-25.5650950" lon="-49.0403260">
        <ele>933.4</ele>
        <time>2021-04-17T12:56:26Z</time>
      </trkpt>
      <trkpt lat="-25.5650460" lon="-49.0403680">
        <ele>933.4</ele>
        <time>2021-04-17T12:56:27Z</time>
      </trkpt>
      <trkpt lat="-25.5649440" lon="-49.0404690">
        <ele>933.4</ele>
        <time>2021-04-17T12:56:29Z</time>
      </trkpt>
      <trkpt lat="-25.5648940" lon="-49.0405300">
        <ele>933.2</ele>
        <time>2021-04-17T12:56:30Z</time>
      </trkpt>
      <trkpt lat="-25.5648490" lon="-49.0405940">
        <ele>933.0</ele>
        <time>2021-04-17T12:56:31Z</time>
      </trkpt>
      <trkpt lat="-25.5648090" lon="-49.0406630">
        <ele>932.8</ele>
        <time>2021-04-17T12:56:32Z</time>
      </trkpt>
      <trkpt lat="-25.5647720" lon="-49.0407330">
        <ele>932.2</ele>
        <time>2021-04-17T12:56:33Z</time>
      </trkpt>
      <trkpt lat="-25.5647380" lon="-49.0408030">
        <ele>932.0</ele>
        <time>2021-04-17T12:56:34Z</time>
      </trkpt>
      <trkpt lat="-25.5647080" lon="-49.0408720">
        <ele>931.6</ele>
        <time>2021-04-17T12:56:35Z</time>
      </trkpt>
      <trkpt lat="-25.5646470" lon="-49.0410010">
        <ele>930.8</ele>
        <time>2021-04-17T12:56:37Z</time>
      </trkpt>
      <trkpt lat="-25.5645820" lon="-49.0411140">
        <ele>930.6</ele>
        <time>2021-04-17T12:56:39Z</time>
      </trkpt>
      <trkpt lat="-25.5645180" lon="-49.0412110">
        <ele>930.2</ele>
        <time>2021-04-17T12:56:41Z</time>
      </trkpt>
      <trkpt lat="-25.5644850" lon="-49.0412580">
        <ele>930.0</ele>
        <time>2021-04-17T12:56:42Z</time>
      </trkpt>
      <trkpt lat="-25.5644540" lon="-49.0413040">
        <ele>929.8</ele>
        <time>2021-04-17T12:56:43Z</time>
      </trkpt>
      <trkpt lat="-25.5643850" lon="-49.0413950">
        <ele>929.6</ele>
        <time>2021-04-17T12:56:45Z</time>
      </trkpt>
      <trkpt lat="-25.5643100" lon="-49.0414910">
        <ele>929.4</ele>
        <time>2021-04-17T12:56:47Z</time>
      </trkpt>
      <trkpt lat="-25.5642320" lon="-49.0415890">
        <ele>929.2</ele>
        <time>2021-04-17T12:56:49Z</time>
      </trkpt>
      <trkpt lat="-25.5641480" lon="-49.0416800">
        <ele>929.2</ele>
        <time>2021-04-17T12:56:51Z</time>
      </trkpt>
      <trkpt lat="-25.5640570" lon="-49.0417560">
        <ele>929.0</ele>
        <time>2021-04-17T12:56:53Z</time>
      </trkpt>
      <trkpt lat="-25.5640030" lon="-49.0417870">
        <ele>929.0</ele>
        <time>2021-04-17T12:56:54Z</time>
      </trkpt>
      <trkpt lat="-25.5639430" lon="-49.0418150">
        <ele>928.8</ele>
        <time>2021-04-17T12:56:55Z</time>
      </trkpt>
      <trkpt lat="-25.5638200" lon="-49.0418570">
        <ele>928.0</ele>
        <time>2021-04-17T12:56:57Z</time>
      </trkpt>
      <trkpt lat="-25.5637560" lon="-49.0418700">
        <ele>927.8</ele>
        <time>2021-04-17T12:56:58Z</time>
      </trkpt>
      <trkpt lat="-25.5636950" lon="-49.0418810">
        <ele>927.6</ele>
        <time>2021-04-17T12:56:59Z</time>
      </trkpt>
      <trkpt lat="-25.5636350" lon="-49.0418860">
        <ele>927.4</ele>
        <time>2021-04-17T12:57:00Z</time>
      </trkpt>
      <trkpt lat="-25.5635750" lon="-49.0418880">
        <ele>927.0</ele>
        <time>2021-04-17T12:57:01Z</time>
      </trkpt>
      <trkpt lat="-25.5634670" lon="-49.0418920">
        <ele>926.8</ele>
        <time>2021-04-17T12:57:03Z</time>
      </trkpt>
      <trkpt lat="-25.5634120" lon="-49.0418990">
        <ele>926.6</ele>
        <time>2021-04-17T12:57:04Z</time>
      </trkpt>
      <trkpt lat="-25.5633520" lon="-49.0419100">
        <ele>926.4</ele>
        <time>2021-04-17T12:57:05Z</time>
      </trkpt>
      <trkpt lat="-25.5632890" lon="-49.0419230">
        <ele>926.2</ele>
        <time>2021-04-17T12:57:06Z</time>
      </trkpt>
      <trkpt lat="-25.5632260" lon="-49.0419440">
        <ele>926.2</ele>
        <time>2021-04-17T12:57:07Z</time>
      </trkpt>
      <trkpt lat="-25.5630780" lon="-49.0419850">
        <ele>925.8</ele>
        <time>2021-04-17T12:57:09Z</time>
      </trkpt>
      <trkpt lat="-25.5630010" lon="-49.0420070">
        <ele>925.6</ele>
        <time>2021-04-17T12:57:10Z</time>
      </trkpt>
      <trkpt lat="-25.5629190" lon="-49.0420300">
        <ele>925.6</ele>
        <time>2021-04-17T12:57:11Z</time>
      </trkpt>
      <trkpt lat="-25.5628360" lon="-49.0420520">
        <ele>925.6</ele>
        <time>2021-04-17T12:57:12Z</time>
      </trkpt>
      <trkpt lat="-25.5627530" lon="-49.0420760">
        <ele>925.4</ele>
        <time>2021-04-17T12:57:13Z</time>
      </trkpt>
      <trkpt lat="-25.5625710" lon="-49.0421150">
        <ele>924.4</ele>
        <time>2021-04-17T12:57:15Z</time>
      </trkpt>
      <trkpt lat="-25.5624820" lon="-49.0421290">
        <ele>924.2</ele>
        <time>2021-04-17T12:57:16Z</time>
      </trkpt>
      <trkpt lat="-25.5623910" lon="-49.0421380">
        <ele>924.0</ele>
        <time>2021-04-17T12:57:17Z</time>
      </trkpt>
      <trkpt lat="-25.5622990" lon="-49.0421390">
        <ele>923.4</ele>
        <time>2021-04-17T12:57:18Z</time>
      </trkpt>
      <trkpt lat="-25.5622080" lon="-49.0421280">
        <ele>922.8</ele>
        <time>2021-04-17T12:57:19Z</time>
      </trkpt>
      <trkpt lat="-25.5621150" lon="-49.0421080">
        <ele>922.0</ele>
        <time>2021-04-17T12:57:20Z</time>
      </trkpt>
      <trkpt lat="-25.5620200" lon="-49.0420900">
        <ele>921.2</ele>
        <time>2021-04-17T12:57:21Z</time>
      </trkpt>
      <trkpt lat="-25.5619260" lon="-49.0420750">
        <ele>920.4</ele>
        <time>2021-04-17T12:57:22Z</time>
      </trkpt>
      <trkpt lat="-25.5618360" lon="-49.0420630">
        <ele>919.2</ele>
        <time>2021-04-17T12:57:23Z</time>
      </trkpt>
      <trkpt lat="-25.5616630" lon="-49.0420280">
        <ele>918.0</ele>
        <time>2021-04-17T12:57:25Z</time>
      </trkpt>
      <trkpt lat="-25.5614810" lon="-49.0419820">
        <ele>917.4</ele>
        <time>2021-04-17T12:57:27Z</time>
      </trkpt>
      <trkpt lat="-25.5613820" lon="-49.0419510">
        <ele>916.8</ele>
        <time>2021-04-17T12:57:28Z</time>
      </trkpt>
      <trkpt lat="-25.5612780" lon="-49.0419180">
        <ele>915.4</ele>
        <time>2021-04-17T12:57:29Z</time>
      </trkpt>
      <trkpt lat="-25.5611730" lon="-49.0418780">
        <ele>914.6</ele>
        <time>2021-04-17T12:57:30Z</time>
      </trkpt>
      <trkpt lat="-25.5610710" lon="-49.0418310">
        <ele>914.0</ele>
        <time>2021-04-17T12:57:31Z</time>
      </trkpt>
      <trkpt lat="-25.5608600" lon="-49.0417210">
        <ele>912.8</ele>
        <time>2021-04-17T12:57:33Z</time>
      </trkpt>
      <trkpt lat="-25.5607600" lon="-49.0416520">
        <ele>912.2</ele>
        <time>2021-04-17T12:57:34Z</time>
      </trkpt>
      <trkpt lat="-25.5606670" lon="-49.0415830">
        <ele>910.6</ele>
        <time>2021-04-17T12:57:35Z</time>
      </trkpt>
      <trkpt lat="-25.5605730" lon="-49.0415120">
        <ele>909.2</ele>
        <time>2021-04-17T12:57:36Z</time>
      </trkpt>
      <trkpt lat="-25.5604810" lon="-49.0414500">
        <ele>907.8</ele>
        <time>2021-04-17T12:57:37Z</time>
      </trkpt>
      <trkpt lat="-25.5603790" lon="-49.0414020">
        <ele>906.0</ele>
        <time>2021-04-17T12:57:38Z</time>
      </trkpt>
      <trkpt lat="-25.5602760" lon="-49.0413670">
        <ele>904.4</ele>
        <time>2021-04-17T12:57:39Z</time>
      </trkpt>
      <trkpt lat="-25.5601760" lon="-49.0413430">
        <ele>903.0</ele>
        <time>2021-04-17T12:57:40Z</time>
      </trkpt>
      <trkpt lat="-25.5600780" lon="-49.0413290">
        <ele>901.8</ele>
        <time>2021-04-17T12:57:41Z</time>
      </trkpt>
      <trkpt lat="-25.5598890" lon="-49.0412940">
        <ele>900.4</ele>
        <time>2021-04-17T12:57:43Z</time>
      </trkpt>
      <trkpt lat="-25.5598020" lon="-49.0412630">
        <ele>900.0</ele>
        <time>2021-04-17T12:57:44Z</time>
      </trkpt>
      <trkpt lat="-25.5597190" lon="-49.0412220">
        <ele>899.6</ele>
        <time>2021-04-17T12:57:45Z</time>
      </trkpt>
      <trkpt lat="-25.5596460" lon="-49.0411760">
        <ele>899.4</ele>
        <time>2021-04-17T12:57:46Z</time>
      </trkpt>
      <trkpt lat="-25.5595780" lon="-49.0411300">
        <ele>898.8</ele>
        <time>2021-04-17T12:57:47Z</time>
      </trkpt>
      <trkpt lat="-25.5595130" lon="-49.0410880">
        <ele>898.4</ele>
        <time>2021-04-17T12:57:48Z</time>
      </trkpt>
      <trkpt lat="-25.5594470" lon="-49.0410510">
        <ele>898.2</ele>
        <time>2021-04-17T12:57:49Z</time>
      </trkpt>
      <trkpt lat="-25.5593230" lon="-49.0409890">
        <ele>897.6</ele>
        <time>2021-04-17T12:57:51Z</time>
      </trkpt>
      <trkpt lat="-25.5592590" lon="-49.0409610">
        <ele>897.4</ele>
        <time>2021-04-17T12:57:52Z</time>
      </trkpt>
      <trkpt lat="-25.5591960" lon="-49.0409370">
        <ele>897.0</ele>
        <time>2021-04-17T12:57:53Z</time>
      </trkpt>
      <trkpt lat="-25.5590750" lon="-49.0408870">
        <ele>896.8</ele>
        <time>2021-04-17T12:57:55Z</time>
      </trkpt>
      <trkpt lat="-25.5590120" lon="-49.0408640">
        <ele>896.6</ele>
        <time>2021-04-17T12:57:56Z</time>
      </trkpt>
      <trkpt lat="-25.5589520" lon="-49.0408480">
        <ele>896.6</ele>
        <time>2021-04-17T12:57:57Z</time>
      </trkpt>
      <trkpt lat="-25.5588340" lon="-49.0408170">
        <ele>896.6</ele>
        <time>2021-04-17T12:57:59Z</time>
      </trkpt>
      <trkpt lat="-25.5587250" lon="-49.0407960">
        <ele>896.6</ele>
        <time>2021-04-17T12:58:01Z</time>
      </trkpt>
      <trkpt lat="-25.5586260" lon="-49.0407930">
        <ele>896.8</ele>
        <time>2021-04-17T12:58:03Z</time>
      </trkpt>
      <trkpt lat="-25.5585370" lon="-49.0408180">
        <ele>896.8</ele>
        <time>2021-04-17T12:58:05Z</time>
      </trkpt>
      <trkpt lat="-25.5584960" lon="-49.0408370">
        <ele>896.8</ele>
        <time>2021-04-17T12:58:06Z</time>
      </trkpt>
      <trkpt lat="-25.5584590" lon="-49.0408640">
        <ele>896.8</ele>
        <time>2021-04-17T12:58:07Z</time>
      </trkpt>
      <trkpt lat="-25.5583890" lon="-49.0409300">
        <ele>896.8</ele>
        <time>2021-04-17T12:58:09Z</time>
      </trkpt>
      <trkpt lat="-25.5583570" lon="-49.0409670">
        <ele>897.0</ele>
        <time>2021-04-17T12:58:10Z</time>
      </trkpt>
      <trkpt lat="-25.5583250" lon="-49.0410040">
        <ele>897.0</ele>
        <time>2021-04-17T12:58:11Z</time>
      </trkpt>
      <trkpt lat="-25.5582570" lon="-49.0410690">
        <ele>897.2</ele>
        <time>2021-04-17T12:58:13Z</time>
      </trkpt>
      <trkpt lat="-25.5581850" lon="-49.0411070">
        <ele>897.4</ele>
        <time>2021-04-17T12:58:15Z</time>
      </trkpt>
      <trkpt lat="-25.5581480" lon="-49.0411210">
        <ele>897.4</ele>
        <time>2021-04-17T12:58:16Z</time>
      </trkpt>
      <trkpt lat="-25.5581130" lon="-49.0411340">
        <ele>897.6</ele>
        <time>2021-04-17T12:58:17Z</time>
      </trkpt>
      <trkpt lat="-25.5580420" lon="-49.0411510">
        <ele>897.6</ele>
        <time>2021-04-17T12:58:19Z</time>
      </trkpt>
      <trkpt lat="-25.5579780" lon="-49.0411540">
        <ele>897.8</ele>
        <time>2021-04-17T12:58:21Z</time>
      </trkpt>
      <trkpt lat="-25.5579450" lon="-49.0411510">
        <ele>897.8</ele>
        <time>2021-04-17T12:58:22Z</time>
      </trkpt>
      <trkpt lat="-25.5579150" lon="-49.0411470">
        <ele>898.0</ele>
        <time>2021-04-17T12:58:23Z</time>
      </trkpt>
      <trkpt lat="-25.5578670" lon="-49.0411460">
        <ele>898.2</ele>
        <time>2021-04-17T12:58:25Z</time>
      </trkpt>
      <trkpt lat="-25.5578430" lon="-49.0411440">
        <ele>898.4</ele>
        <time>2021-04-17T12:58:26Z</time>
      </trkpt>
      <trkpt lat="-25.5578210" lon="-49.0411440">
        <ele>898.8</ele>
        <time>2021-04-17T12:58:27Z</time>
      </trkpt>
      <trkpt lat="-25.5577760" lon="-49.0411480">
        <ele>899.4</ele>
        <time>2021-04-17T12:58:29Z</time>
      </trkpt>
      <trkpt lat="-25.5577390" lon="-49.0411470">
        <ele>900.0</ele>
        <time>2021-04-17T12:58:31Z</time>
      </trkpt>
      <trkpt lat="-25.5577070" lon="-49.0411490">
        <ele>900.6</ele>
        <time>2021-04-17T12:58:33Z</time>
      </trkpt>
      <trkpt lat="-25.5576650" lon="-49.0411550">
        <ele>901.2</ele>
        <time>2021-04-17T12:58:35Z</time>
      </trkpt>
      <trkpt lat="-25.5576170" lon="-49.0411670">
        <ele>901.8</ele>
        <time>2021-04-17T12:58:37Z</time>
      </trkpt>
      <trkpt lat="-25.5575700" lon="-49.0411780">
        <ele>902.4</ele>
        <time>2021-04-17T12:58:39Z</time>
      </trkpt>
      <trkpt lat="-25.5575480" lon="-49.0411840">
        <ele>902.6</ele>
        <time>2021-04-17T12:58:40Z</time>
      </trkpt>
      <trkpt lat="-25.5575250" lon="-49.0411930">
        <ele>902.8</ele>
        <time>2021-04-17T12:58:41Z</time>
      </trkpt>
      <trkpt lat="-25.5575000" lon="-49.0412010">
        <ele>903.2</ele>
        <time>2021-04-17T12:58:42Z</time>
      </trkpt>
      <trkpt lat="-25.5574770" lon="-49.0412070">
        <ele>903.4</ele>
        <time>2021-04-17T12:58:43Z</time>
      </trkpt>
      <trkpt lat="-25.5574330" lon="-49.0412280">
        <ele>903.8</ele>
        <time>2021-04-17T12:58:45Z</time>
      </trkpt>
      <trkpt lat="-25.5573970" lon="-49.0412450">
        <ele>904.2</ele>
        <time>2021-04-17T12:58:47Z</time>
      </trkpt>
      <trkpt lat="-25.5573560" lon="-49.0412760">
        <ele>904.6</ele>
        <time>2021-04-17T12:58:49Z</time>
      </trkpt>
      <trkpt lat="-25.5573150" lon="-49.0413060">
        <ele>905.2</ele>
        <time>2021-04-17T12:58:51Z</time>
      </trkpt>
      <trkpt lat="-25.5572940" lon="-49.0413190">
        <ele>905.4</ele>
        <time>2021-04-17T12:58:52Z</time>
      </trkpt>
      <trkpt lat="-25.5572760" lon="-49.0413310">
        <ele>905.6</ele>
        <time>2021-04-17T12:58:53Z</time>
      </trkpt>
      <trkpt lat="-25.5572580" lon="-49.0413410">
        <ele>906.0</ele>
        <time>2021-04-17T12:58:54Z</time>
      </trkpt>
      <trkpt lat="-25.5572370" lon="-49.0413510">
        <ele>906.2</ele>
        <time>2021-04-17T12:58:55Z</time>
      </trkpt>
      <trkpt lat="-25.5571970" lon="-49.0413720">
        <ele>906.6</ele>
        <time>2021-04-17T12:58:57Z</time>
      </trkpt>
      <trkpt lat="-25.5571640" lon="-49.0413890">
        <ele>907.0</ele>
        <time>2021-04-17T12:58:59Z</time>
      </trkpt>
      <trkpt lat="-25.5571350" lon="-49.0413960">
        <ele>907.4</ele>
        <time>2021-04-17T12:59:01Z</time>
      </trkpt>
      <trkpt lat="-25.5571060" lon="-49.0414120">
        <ele>907.8</ele>
        <time>2021-04-17T12:59:03Z</time>
      </trkpt>
      <trkpt lat="-25.5570790" lon="-49.0414370">
        <ele>908.2</ele>
        <time>2021-04-17T12:59:05Z</time>
      </trkpt>
      <trkpt lat="-25.5570550" lon="-49.0414660">
        <ele>908.8</ele>
        <time>2021-04-17T12:59:07Z</time>
      </trkpt>
      <trkpt lat="-25.5570240" lon="-49.0414940">
        <ele>909.2</ele>
        <time>2021-04-17T12:59:09Z</time>
      </trkpt>
      <trkpt lat="-25.5569940" lon="-49.0415160">
        <ele>910.0</ele>
        <time>2021-04-17T12:59:11Z</time>
      </trkpt>
      <trkpt lat="-25.5569710" lon="-49.0415420">
        <ele>910.2</ele>
        <time>2021-04-17T12:59:13Z</time>
      </trkpt>
      <trkpt lat="-25.5569400" lon="-49.0415600">
        <ele>910.4</ele>
        <time>2021-04-17T12:59:15Z</time>
      </trkpt>
      <trkpt lat="-25.5569140" lon="-49.0415740">
        <ele>910.8</ele>
        <time>2021-04-17T12:59:17Z</time>
      </trkpt>
      <trkpt lat="-25.5568920" lon="-49.0416060">
        <ele>910.8</ele>
        <time>2021-04-17T12:59:19Z</time>
      </trkpt>
      <trkpt lat="-25.5568640" lon="-49.0416360">
        <ele>911.0</ele>
        <time>2021-04-17T12:59:21Z</time>
      </trkpt>
      <trkpt lat="-25.5568280" lon="-49.0416620">
        <ele>911.0</ele>
        <time>2021-04-17T12:59:23Z</time>
      </trkpt>
      <trkpt lat="-25.5567970" lon="-49.0416870">
        <ele>911.2</ele>
        <time>2021-04-17T12:59:25Z</time>
      </trkpt>
      <trkpt lat="-25.5567660" lon="-49.0417160">
        <ele>911.6</ele>
        <time>2021-04-17T12:59:27Z</time>
      </trkpt>
      <trkpt lat="-25.5567390" lon="-49.0417450">
        <ele>911.8</ele>
        <time>2021-04-17T12:59:29Z</time>
      </trkpt>
      <trkpt lat="-25.5567080" lon="-49.0417730">
        <ele>912.0</ele>
        <time>2021-04-17T12:59:31Z</time>
      </trkpt>
      <trkpt lat="-25.5566930" lon="-49.0417900">
        <ele>912.2</ele>
        <time>2021-04-17T12:59:32Z</time>
      </trkpt>
      <trkpt lat="-25.5566770" lon="-49.0418080">
        <ele>912.2</ele>
        <time>2021-04-17T12:59:33Z</time>
      </trkpt>
      <trkpt lat="-25.5566470" lon="-49.0418440">
        <ele>912.4</ele>
        <time>2021-04-17T12:59:35Z</time>
      </trkpt>
      <trkpt lat="-25.5566200" lon="-49.0418780">
        <ele>912.8</ele>
        <time>2021-04-17T12:59:37Z</time>
      </trkpt>
      <trkpt lat="-25.5565930" lon="-49.0419090">
        <ele>913.0</ele>
        <time>2021-04-17T12:59:39Z</time>
      </trkpt>
      <trkpt lat="-25.5565730" lon="-49.0419410">
        <ele>913.2</ele>
        <time>2021-04-17T12:59:41Z</time>
      </trkpt>
      <trkpt lat="-25.5565490" lon="-49.0419720">
        <ele>913.4</ele>
        <time>2021-04-17T12:59:43Z</time>
      </trkpt>
      <trkpt lat="-25.5565210" lon="-49.0420030">
        <ele>913.8</ele>
        <time>2021-04-17T12:59:45Z</time>
      </trkpt>
      <trkpt lat="-25.5565090" lon="-49.0420190">
        <ele>914.0</ele>
        <time>2021-04-17T12:59:46Z</time>
      </trkpt>
      <trkpt lat="-25.5564980" lon="-49.0420360">
        <ele>914.2</ele>
        <time>2021-04-17T12:59:47Z</time>
      </trkpt>
      <trkpt lat="-25.5564860" lon="-49.0420770">
        <ele>914.4</ele>
        <time>2021-04-17T12:59:49Z</time>
      </trkpt>
      <trkpt lat="-25.5564780" lon="-49.0421260">
        <ele>914.8</ele>
        <time>2021-04-17T12:59:51Z</time>
      </trkpt>
      <trkpt lat="-25.5564580" lon="-49.0421680">
        <ele>915.2</ele>
        <time>2021-04-17T12:59:53Z</time>
      </trkpt>
      <trkpt lat="-25.5564370" lon="-49.0422050">
        <ele>915.4</ele>
        <time>2021-04-17T12:59:55Z</time>
      </trkpt>
      <trkpt lat="-25.5564150" lon="-49.0422400">
        <ele>915.6</ele>
        <time>2021-04-17T12:59:57Z</time>
      </trkpt>
      <trkpt lat="-25.5564060" lon="-49.0422610">
        <ele>915.8</ele>
        <time>2021-04-17T12:59:58Z</time>
      </trkpt>
      <trkpt lat="-25.5563970" lon="-49.0422820">
        <ele>916.2</ele>
        <time>2021-04-17T12:59:59Z</time>
      </trkpt>
      <trkpt lat="-25.5563890" lon="-49.0423030">
        <ele>916.2</ele>
        <time>2021-04-17T13:00:00Z</time>
      </trkpt>
      <trkpt lat="-25.5563830" lon="-49.0423240">
        <ele>916.2</ele>
        <time>2021-04-17T13:00:01Z</time>
      </trkpt>
      <trkpt lat="-25.5563750" lon="-49.0423720">
        <ele>916.6</ele>
        <time>2021-04-17T13:00:03Z</time>
      </trkpt>
      <trkpt lat="-25.5563680" lon="-49.0423950">
        <ele>916.8</ele>
        <time>2021-04-17T13:00:04Z</time>
      </trkpt>
      <trkpt lat="-25.5563640" lon="-49.0424140">
        <ele>917.0</ele>
        <time>2021-04-17T13:00:05Z</time>
      </trkpt>
      <trkpt lat="-25.5563520" lon="-49.0424510">
        <ele>917.2</ele>
        <time>2021-04-17T13:00:07Z</time>
      </trkpt>
      <trkpt lat="-25.5563480" lon="-49.0424690">
        <ele>917.4</ele>
        <time>2021-04-17T13:00:08Z</time>
      </trkpt>
      <trkpt lat="-25.5563450" lon="-49.0424890">
        <ele>917.6</ele>
        <time>2021-04-17T13:00:09Z</time>
      </trkpt>
      <trkpt lat="-25.5563340" lon="-49.0425330">
        <ele>917.8</ele>
        <time>2021-04-17T13:00:11Z</time>
      </trkpt>
      <trkpt lat="-25.5563190" lon="-49.0425750">
        <ele>918.2</ele>
        <time>2021-04-17T13:00:13Z</time>
      </trkpt>
      <trkpt lat="-25.5563020" lon="-49.0426180">
        <ele>918.6</ele>
        <time>2021-04-17T13:00:15Z</time>
      </trkpt>
      <trkpt lat="-25.5562860" lon="-49.0426650">
        <ele>918.8</ele>
        <time>2021-04-17T13:00:17Z</time>
      </trkpt>
      <trkpt lat="-25.5562800" lon="-49.0426890">
        <ele>919.0</ele>
        <time>2021-04-17T13:00:18Z</time>
      </trkpt>
      <trkpt lat="-25.5562750" lon="-49.0427120">
        <ele>919.2</ele>
        <time>2021-04-17T13:00:19Z</time>
      </trkpt>
      <trkpt lat="-25.5562630" lon="-49.0427590">
        <ele>919.6</ele>
        <time>2021-04-17T13:00:21Z</time>
      </trkpt>
      <trkpt lat="-25.5562500" lon="-49.0427770">
        <ele>919.8</ele>
        <time>2021-04-17T13:00:22Z</time>
      </trkpt>
      <trkpt lat="-25.5562330" lon="-49.0427940">
        <ele>920.0</ele>
        <time>2021-04-17T13:00:23Z</time>
      </trkpt>
      <trkpt lat="-25.5561990" lon="-49.0428160">
        <ele>920.4</ele>
        <time>2021-04-17T13:00:25Z</time>
      </trkpt>
      <trkpt lat="-25.5561680" lon="-49.0428310">
        <ele>920.6</ele>
        <time>2021-04-17T13:00:27Z</time>
      </trkpt>
      <trkpt lat="-25.5561510" lon="-49.0428390">
        <ele>920.8</ele>
        <time>2021-04-17T13:00:28Z</time>
      </trkpt>
      <trkpt lat="-25.5561340" lon="-49.0428490">
        <ele>920.8</ele>
        <time>2021-04-17T13:00:29Z</time>
      </trkpt>
      <trkpt lat="-25.5561000" lon="-49.0428560">
        <ele>921.2</ele>
        <time>2021-04-17T13:00:31Z</time>
      </trkpt>
      <trkpt lat="-25.5561000" lon="-49.0428560">
        <ele>921.4</ele>
        <time>2021-04-17T13:00:32Z</time>
      </trkpt>
      <trkpt lat="-25.5560640" lon="-49.0428560">
        <ele>921.4</ele>
        <time>2021-04-17T13:00:33Z</time>
      </trkpt>
      <trkpt lat="-25.5560260" lon="-49.0428560">
        <ele>921.6</ele>
        <time>2021-04-17T13:00:35Z</time>
      </trkpt>
      <trkpt lat="-25.5559870" lon="-49.0428590">
        <ele>921.8</ele>
        <time>2021-04-17T13:00:37Z</time>
      </trkpt>
      <trkpt lat="-25.5559500" lon="-49.0428650">
        <ele>922.2</ele>
        <time>2021-04-17T13:00:39Z</time>
      </trkpt>
      <trkpt lat="-25.5559330" lon="-49.0428700">
        <ele>922.4</ele>
        <time>2021-04-17T13:00:40Z</time>
      </trkpt>
      <trkpt lat="-25.5559160" lon="-49.0428730">
        <ele>922.4</ele>
        <time>2021-04-17T13:00:41Z</time>
      </trkpt>
      <trkpt lat="-25.5558780" lon="-49.0428790">
        <ele>922.6</ele>
        <time>2021-04-17T13:00:43Z</time>
      </trkpt>
      <trkpt lat="-25.5558560" lon="-49.0428870">
        <ele>922.8</ele>
        <time>2021-04-17T13:00:44Z</time>
      </trkpt>
      <trkpt lat="-25.5558350" lon="-49.0428940">
        <ele>923.2</ele>
        <time>2021-04-17T13:00:45Z</time>
      </trkpt>
      <trkpt lat="-25.5557980" lon="-49.0429070">
        <ele>923.6</ele>
        <time>2021-04-17T13:00:47Z</time>
      </trkpt>
      <trkpt lat="-25.5557580" lon="-49.0429230">
        <ele>923.8</ele>
        <time>2021-04-17T13:00:49Z</time>
      </trkpt>
      <trkpt lat="-25.5557370" lon="-49.0429320">
        <ele>923.8</ele>
        <time>2021-04-17T13:00:50Z</time>
      </trkpt>
      <trkpt lat="-25.5557170" lon="-49.0429400">
        <ele>924.0</ele>
        <time>2021-04-17T13:00:51Z</time>
      </trkpt>
      <trkpt lat="-25.5556750" lon="-49.0429570">
        <ele>924.2</ele>
        <time>2021-04-17T13:00:53Z</time>
      </trkpt>
      <trkpt lat="-25.5556560" lon="-49.0429680">
        <ele>924.2</ele>
        <time>2021-04-17T13:00:54Z</time>
      </trkpt>
      <trkpt lat="-25.5556370" lon="-49.0429830">
        <ele>924.4</ele>
        <time>2021-04-17T13:00:55Z</time>
      </trkpt>
      <trkpt lat="-25.5555980" lon="-49.0430030">
        <ele>924.6</ele>
        <time>2021-04-17T13:00:57Z</time>
      </trkpt>
      <trkpt lat="-25.5555660" lon="-49.0430320">
        <ele>924.6</ele>
        <time>2021-04-17T13:00:59Z</time>
      </trkpt>
      <trkpt lat="-25.5555470" lon="-49.0430440">
        <ele>924.8</ele>
        <time>2021-04-17T13:01:00Z</time>
      </trkpt>
      <trkpt lat="-25.5555280" lon="-49.0430520">
        <ele>924.8</ele>
        <time>2021-04-17T13:01:01Z</time>
      </trkpt>
      <trkpt lat="-25.5555140" lon="-49.0430660">
        <ele>925.0</ele>
        <time>2021-04-17T13:01:02Z</time>
      </trkpt>
      <trkpt lat="-25.5555010" lon="-49.0430800">
        <ele>925.2</ele>
        <time>2021-04-17T13:01:03Z</time>
      </trkpt>
      <trkpt lat="-25.5554790" lon="-49.0431010">
        <ele>925.4</ele>
        <time>2021-04-17T13:01:05Z</time>
      </trkpt>
      <trkpt lat="-25.5554530" lon="-49.0431160">
        <ele>925.4</ele>
        <time>2021-04-17T13:01:07Z</time>
      </trkpt>
      <trkpt lat="-25.5554230" lon="-49.0431340">
        <ele>925.6</ele>
        <time>2021-04-17T13:01:09Z</time>
      </trkpt>
      <trkpt lat="-25.5554050" lon="-49.0431400">
        <ele>925.8</ele>
        <time>2021-04-17T13:01:10Z</time>
      </trkpt>
      <trkpt lat="-25.5553870" lon="-49.0431450">
        <ele>925.8</ele>
        <time>2021-04-17T13:01:11Z</time>
      </trkpt>
      <trkpt lat="-25.5553680" lon="-49.0431540">
        <ele>925.8</ele>
        <time>2021-04-17T13:01:12Z</time>
      </trkpt>
      <trkpt lat="-25.5553510" lon="-49.0431660">
        <ele>926.0</ele>
        <time>2021-04-17T13:01:13Z</time>
      </trkpt>
      <trkpt lat="-25.5553170" lon="-49.0431880">
        <ele>926.0</ele>
        <time>2021-04-17T13:01:15Z</time>
      </trkpt>
      <trkpt lat="-25.5552840" lon="-49.0432160">
        <ele>926.2</ele>
        <time>2021-04-17T13:01:17Z</time>
      </trkpt>
      <trkpt lat="-25.5552510" lon="-49.0432500">
        <ele>926.2</ele>
        <time>2021-04-17T13:01:19Z</time>
      </trkpt>
      <trkpt lat="-25.5552280" lon="-49.0432810">
        <ele>926.4</ele>
        <time>2021-04-17T13:01:21Z</time>
      </trkpt>
      <trkpt lat="-25.5552240" lon="-49.0433130">
        <ele>926.4</ele>
        <time>2021-04-17T13:01:23Z</time>
      </trkpt>
      <trkpt lat="-25.5552190" lon="-49.0433320">
        <ele>926.6</ele>
        <time>2021-04-17T13:01:25Z</time>
      </trkpt>
      <trkpt lat="-25.5552060" lon="-49.0433510">
        <ele>926.8</ele>
        <time>2021-04-17T13:01:27Z</time>
      </trkpt>
      <trkpt lat="-25.5551960" lon="-49.0433660">
        <ele>927.0</ele>
        <time>2021-04-17T13:01:29Z</time>
      </trkpt>
      <trkpt lat="-25.5551820" lon="-49.0433800">
        <ele>927.0</ele>
        <time>2021-04-17T13:01:31Z</time>
      </trkpt>
      <trkpt lat="-25.5551770" lon="-49.0433890">
        <ele>927.2</ele>
        <time>2021-04-17T13:01:32Z</time>
      </trkpt>
      <trkpt lat="-25.5551710" lon="-49.0433980">
        <ele>927.2</ele>
        <time>2021-04-17T13:01:33Z</time>
      </trkpt>
      <trkpt lat="-25.5551510" lon="-49.0434250">
        <ele>927.2</ele>
        <time>2021-04-17T13:01:35Z</time>
      </trkpt>
      <trkpt lat="-25.5551310" lon="-49.0434620">
        <ele>927.4</ele>
        <time>2021-04-17T13:01:37Z</time>
      </trkpt>
      <trkpt lat="-25.5551100" lon="-49.0435050">
        <ele>927.4</ele>
        <time>2021-04-17T13:01:39Z</time>
      </trkpt>
      <trkpt lat="-25.5550990" lon="-49.0435270">
        <ele>927.6</ele>
        <time>2021-04-17T13:01:40Z</time>
      </trkpt>
      <trkpt lat="-25.5550870" lon="-49.0435510">
        <ele>927.6</ele>
        <time>2021-04-17T13:01:41Z</time>
      </trkpt>
      <trkpt lat="-25.5550740" lon="-49.0436060">
        <ele>927.8</ele>
        <time>2021-04-17T13:01:43Z</time>
      </trkpt>
      <trkpt lat="-25.5550640" lon="-49.0436630">
        <ele>928.0</ele>
        <time>2021-04-17T13:01:45Z</time>
      </trkpt>
      <trkpt lat="-25.5550550" lon="-49.0436880">
        <ele>928.2</ele>
        <time>2021-04-17T13:01:46Z</time>
      </trkpt>
      <trkpt lat="-25.5550450" lon="-49.0437110">
        <ele>928.2</ele>
        <time>2021-04-17T13:01:47Z</time>
      </trkpt>
      <trkpt lat="-25.5550250" lon="-49.0437570">
        <ele>928.4</ele>
        <time>2021-04-17T13:01:49Z</time>
      </trkpt>
      <trkpt lat="-25.5550030" lon="-49.0438000">
        <ele>928.8</ele>
        <time>2021-04-17T13:01:51Z</time>
      </trkpt>
      <trkpt lat="-25.5549850" lon="-49.0438470">
        <ele>929.0</ele>
        <time>2021-04-17T13:01:53Z</time>
      </trkpt>
      <trkpt lat="-25.5549710" lon="-49.0438680">
        <ele>929.2</ele>
        <time>2021-04-17T13:01:54Z</time>
      </trkpt>
      <trkpt lat="-25.5549610" lon="-49.0438890">
        <ele>929.4</ele>
        <time>2021-04-17T13:01:55Z</time>
      </trkpt>
      <trkpt lat="-25.5549390" lon="-49.0439360">
        <ele>929.6</ele>
        <time>2021-04-17T13:01:57Z</time>
      </trkpt>
      <trkpt lat="-25.5549180" lon="-49.0439910">
        <ele>930.0</ele>
        <time>2021-04-17T13:01:59Z</time>
      </trkpt>
      <trkpt lat="-25.5548960" lon="-49.0440420">
        <ele>930.4</ele>
        <time>2021-04-17T13:02:01Z</time>
      </trkpt>
      <trkpt lat="-25.5548720" lon="-49.0440900">
        <ele>930.6</ele>
        <time>2021-04-17T13:02:03Z</time>
      </trkpt>
      <trkpt lat="-25.5548520" lon="-49.0441380">
        <ele>931.0</ele>
        <time>2021-04-17T13:02:05Z</time>
      </trkpt>
      <trkpt lat="-25.5548430" lon="-49.0441650">
        <ele>931.0</ele>
        <time>2021-04-17T13:02:06Z</time>
      </trkpt>
      <trkpt lat="-25.5548360" lon="-49.0441920">
        <ele>931.2</ele>
        <time>2021-04-17T13:02:07Z</time>
      </trkpt>
      <trkpt lat="-25.5548260" lon="-49.0442480">
        <ele>931.4</ele>
        <time>2021-04-17T13:02:09Z</time>
      </trkpt>
      <trkpt lat="-25.5548170" lon="-49.0442730">
        <ele>931.4</ele>
        <time>2021-04-17T13:02:10Z</time>
      </trkpt>
      <trkpt lat="-25.5548100" lon="-49.0443000">
        <ele>931.4</ele>
        <time>2021-04-17T13:02:11Z</time>
      </trkpt>
      <trkpt lat="-25.5548000" lon="-49.0443530">
        <ele>932.0</ele>
        <time>2021-04-17T13:02:13Z</time>
      </trkpt>
      <trkpt lat="-25.5547950" lon="-49.0444100">
        <ele>932.0</ele>
        <time>2021-04-17T13:02:15Z</time>
      </trkpt>
      <trkpt lat="-25.5547870" lon="-49.0444610">
        <ele>932.0</ele>
        <time>2021-04-17T13:02:17Z</time>
      </trkpt>
      <trkpt lat="-25.5547870" lon="-49.0445070">
        <ele>932.4</ele>
        <time>2021-04-17T13:02:19Z</time>
      </trkpt>
      <trkpt lat="-25.5547920" lon="-49.0445290">
        <ele>932.6</ele>
        <time>2021-04-17T13:02:20Z</time>
      </trkpt>
      <trkpt lat="-25.5547960" lon="-49.0445490">
        <ele>932.8</ele>
        <time>2021-04-17T13:02:21Z</time>
      </trkpt>
      <trkpt lat="-25.5548020" lon="-49.0445850">
        <ele>932.8</ele>
        <time>2021-04-17T13:02:23Z</time>
      </trkpt>
      <trkpt lat="-25.5548040" lon="-49.0446190">
        <ele>933.4</ele>
        <time>2021-04-17T13:02:25Z</time>
      </trkpt>
      <trkpt lat="-25.5548070" lon="-49.0446370">
        <ele>933.4</ele>
        <time>2021-04-17T13:02:26Z</time>
      </trkpt>
      <trkpt lat="-25.5548120" lon="-49.0446550">
        <ele>933.8</ele>
        <time>2021-04-17T13:02:27Z</time>
      </trkpt>
      <trkpt lat="-25.5548150" lon="-49.0446740">
        <ele>934.0</ele>
        <time>2021-04-17T13:02:28Z</time>
      </trkpt>
      <trkpt lat="-25.5548190" lon="-49.0446910">
        <ele>934.0</ele>
        <time>2021-04-17T13:02:29Z</time>
      </trkpt>
      <trkpt lat="-25.5548180" lon="-49.0447260">
        <ele>934.2</ele>
        <time>2021-04-17T13:02:31Z</time>
      </trkpt>
      <trkpt lat="-25.5548130" lon="-49.0447410">
        <ele>934.4</ele>
        <time>2021-04-17T13:02:32Z</time>
      </trkpt>
      <trkpt lat="-25.5548070" lon="-49.0447550">
        <ele>934.6</ele>
        <time>2021-04-17T13:02:33Z</time>
      </trkpt>
      <trkpt lat="-25.5547940" lon="-49.0447830">
        <ele>935.0</ele>
        <time>2021-04-17T13:02:35Z</time>
      </trkpt>
      <trkpt lat="-25.5547770" lon="-49.0448080">
        <ele>935.6</ele>
        <time>2021-04-17T13:02:37Z</time>
      </trkpt>
      <trkpt lat="-25.5547540" lon="-49.0448300">
        <ele>935.8</ele>
        <time>2021-04-17T13:02:39Z</time>
      </trkpt>
      <trkpt lat="-25.5547250" lon="-49.0448540">
        <ele>936.2</ele>
        <time>2021-04-17T13:02:41Z</time>
      </trkpt>
      <trkpt lat="-25.5546960" lon="-49.0448800">
        <ele>936.6</ele>
        <time>2021-04-17T13:02:43Z</time>
      </trkpt>
      <trkpt lat="-25.5546650" lon="-49.0449070">
        <ele>937.0</ele>
        <time>2021-04-17T13:02:45Z</time>
      </trkpt>
      <trkpt lat="-25.5546350" lon="-49.0449380">
        <ele>937.2</ele>
        <time>2021-04-17T13:02:47Z</time>
      </trkpt>
      <trkpt lat="-25.5546060" lon="-49.0449680">
        <ele>937.4</ele>
        <time>2021-04-17T13:02:49Z</time>
      </trkpt>
      <trkpt lat="-25.5545770" lon="-49.0450000">
        <ele>937.6</ele>
        <time>2021-04-17T13:02:51Z</time>
      </trkpt>
      <trkpt lat="-25.5545630" lon="-49.0450170">
        <ele>937.8</ele>
        <time>2021-04-17T13:02:52Z</time>
      </trkpt>
      <trkpt lat="-25.5545490" lon="-49.0450340">
        <ele>937.8</ele>
        <time>2021-04-17T13:02:53Z</time>
      </trkpt>
      <trkpt lat="-25.5545250" lon="-49.0450660">
        <ele>938.0</ele>
        <time>2021-04-17T13:02:55Z</time>
      </trkpt>
      <trkpt lat="-25.5545090" lon="-49.0450990">
        <ele>938.2</ele>
        <time>2021-04-17T13:02:57Z</time>
      </trkpt>
      <trkpt lat="-25.5545010" lon="-49.0451120">
        <ele>938.4</ele>
        <time>2021-04-17T13:02:58Z</time>
      </trkpt>
      <trkpt lat="-25.5544900" lon="-49.0451220">
        <ele>938.6</ele>
        <time>2021-04-17T13:02:59Z</time>
      </trkpt>
      <trkpt lat="-25.5544710" lon="-49.0451470">
        <ele>938.8</ele>
        <time>2021-04-17T13:03:01Z</time>
      </trkpt>
      <trkpt lat="-25.5544530" lon="-49.0451720">
        <ele>939.0</ele>
        <time>2021-04-17T13:03:03Z</time>
      </trkpt>
      <trkpt lat="-25.5544350" lon="-49.0451990">
        <ele>939.4</ele>
        <time>2021-04-17T13:03:05Z</time>
      </trkpt>
      <trkpt lat="-25.5544190" lon="-49.0452280">
        <ele>939.6</ele>
        <time>2021-04-17T13:03:07Z</time>
      </trkpt>
      <trkpt lat="-25.5544080" lon="-49.0452400">
        <ele>939.8</ele>
        <time>2021-04-17T13:03:08Z</time>
      </trkpt>
      <trkpt lat="-25.5543980" lon="-49.0452510">
        <ele>940.0</ele>
        <time>2021-04-17T13:03:09Z</time>
      </trkpt>
      <trkpt lat="-25.5543770" lon="-49.0452730">
        <ele>940.2</ele>
        <time>2021-04-17T13:03:11Z</time>
      </trkpt>
      <trkpt lat="-25.5543520" lon="-49.0452960">
        <ele>940.4</ele>
        <time>2021-04-17T13:03:13Z</time>
      </trkpt>
      <trkpt lat="-25.5543350" lon="-49.0453020">
        <ele>940.6</ele>
        <time>2021-04-17T13:03:14Z</time>
      </trkpt>
      <trkpt lat="-25.5543170" lon="-49.0453050">
        <ele>940.8</ele>
        <time>2021-04-17T13:03:15Z</time>
      </trkpt>
      <trkpt lat="-25.5542980" lon="-49.0453060">
        <ele>940.8</ele>
        <time>2021-04-17T13:03:16Z</time>
      </trkpt>
      <trkpt lat="-25.5542790" lon="-49.0453040">
        <ele>941.0</ele>
        <time>2021-04-17T13:03:17Z</time>
      </trkpt>
      <trkpt lat="-25.5542580" lon="-49.0453000">
        <ele>941.2</ele>
        <time>2021-04-17T13:03:18Z</time>
      </trkpt>
      <trkpt lat="-25.5542380" lon="-49.0452980">
        <ele>941.4</ele>
        <time>2021-04-17T13:03:19Z</time>
      </trkpt>
      <trkpt lat="-25.5541960" lon="-49.0452900">
        <ele>941.6</ele>
        <time>2021-04-17T13:03:21Z</time>
      </trkpt>
      <trkpt lat="-25.5541740" lon="-49.0452880">
        <ele>941.6</ele>
        <time>2021-04-17T13:03:22Z</time>
      </trkpt>
      <trkpt lat="-25.5541540" lon="-49.0452860">
        <ele>941.6</ele>
        <time>2021-04-17T13:03:23Z</time>
      </trkpt>
      <trkpt lat="-25.5541100" lon="-49.0452780">
        <ele>941.8</ele>
        <time>2021-04-17T13:03:25Z</time>
      </trkpt>
      <trkpt lat="-25.5540660" lon="-49.0452700">
        <ele>941.8</ele>
        <time>2021-04-17T13:03:27Z</time>
      </trkpt>
      <trkpt lat="-25.5540180" lon="-49.0452630">
        <ele>942.0</ele>
        <time>2021-04-17T13:03:29Z</time>
      </trkpt>
      <trkpt lat="-25.5539680" lon="-49.0452560">
        <ele>942.4</ele>
        <time>2021-04-17T13:03:31Z</time>
      </trkpt>
      <trkpt lat="-25.5539160" lon="-49.0452430">
        <ele>942.4</ele>
        <time>2021-04-17T13:03:33Z</time>
      </trkpt>
      <trkpt lat="-25.5538640" lon="-49.0452280">
        <ele>942.6</ele>
        <time>2021-04-17T13:03:35Z</time>
      </trkpt>
      <trkpt lat="-25.5538100" lon="-49.0452190">
        <ele>942.8</ele>
        <time>2021-04-17T13:03:37Z</time>
      </trkpt>
      <trkpt lat="-25.5537580" lon="-49.0452040">
        <ele>942.8</ele>
        <time>2021-04-17T13:03:39Z</time>
      </trkpt>
      <trkpt lat="-25.5537060" lon="-49.0451890">
        <ele>943.0</ele>
        <time>2021-04-17T13:03:41Z</time>
      </trkpt>
      <trkpt lat="-25.5536490" lon="-49.0451800">
        <ele>943.2</ele>
        <time>2021-04-17T13:03:43Z</time>
      </trkpt>
      <trkpt lat="-25.5535980" lon="-49.0451680">
        <ele>943.4</ele>
        <time>2021-04-17T13:03:45Z</time>
      </trkpt>
      <trkpt lat="-25.5535430" lon="-49.0451540">
        <ele>943.6</ele>
        <time>2021-04-17T13:03:47Z</time>
      </trkpt>
      <trkpt lat="-25.5534840" lon="-49.0451410">
        <ele>943.6</ele>
        <time>2021-04-17T13:03:49Z</time>
      </trkpt>
      <trkpt lat="-25.5534250" lon="-49.0451270">
        <ele>943.6</ele>
        <time>2021-04-17T13:03:51Z</time>
      </trkpt>
      <trkpt lat="-25.5533730" lon="-49.0451240">
        <ele>943.6</ele>
        <time>2021-04-17T13:03:53Z</time>
      </trkpt>
      <trkpt lat="-25.5533160" lon="-49.0451110">
        <ele>943.8</ele>
        <time>2021-04-17T13:03:55Z</time>
      </trkpt>
      <trkpt lat="-25.5532570" lon="-49.0450980">
        <ele>943.8</ele>
        <time>2021-04-17T13:03:57Z</time>
      </trkpt>
      <trkpt lat="-25.5531840" lon="-49.0450820">
        <ele>943.8</ele>
        <time>2021-04-17T13:03:59Z</time>
      </trkpt>
      <trkpt lat="-25.5531010" lon="-49.0450660">
        <ele>943.6</ele>
        <time>2021-04-17T13:04:01Z</time>
      </trkpt>
      <trkpt lat="-25.5530170" lon="-49.0450440">
        <ele>943.6</ele>
        <time>2021-04-17T13:04:03Z</time>
      </trkpt>
      <trkpt lat="-25.5529270" lon="-49.0450170">
        <ele>943.6</ele>
        <time>2021-04-17T13:04:05Z</time>
      </trkpt>
      <trkpt lat="-25.5528330" lon="-49.0449910">
        <ele>943.4</ele>
        <time>2021-04-17T13:04:07Z</time>
      </trkpt>
      <trkpt lat="-25.5527340" lon="-49.0449520">
        <ele>943.0</ele>
        <time>2021-04-17T13:04:09Z</time>
      </trkpt>
      <trkpt lat="-25.5526270" lon="-49.0449070">
        <ele>942.6</ele>
        <time>2021-04-17T13:04:11Z</time>
      </trkpt>
      <trkpt lat="-25.5525710" lon="-49.0448820">
        <ele>942.6</ele>
        <time>2021-04-17T13:04:12Z</time>
      </trkpt>
      <trkpt lat="-25.5525140" lon="-49.0448550">
        <ele>942.4</ele>
        <time>2021-04-17T13:04:13Z</time>
      </trkpt>
      <trkpt lat="-25.5523980" lon="-49.0447910">
        <ele>942.2</ele>
        <time>2021-04-17T13:04:15Z</time>
      </trkpt>
      <trkpt lat="-25.5523440" lon="-49.0447490">
        <ele>942.0</ele>
        <time>2021-04-17T13:04:16Z</time>
      </trkpt>
      <trkpt lat="-25.5522940" lon="-49.0447020">
        <ele>941.8</ele>
        <time>2021-04-17T13:04:17Z</time>
      </trkpt>
      <trkpt lat="-25.5521940" lon="-49.0446010">
        <ele>941.2</ele>
        <time>2021-04-17T13:04:19Z</time>
      </trkpt>
      <trkpt lat="-25.5521020" lon="-49.0444950">
        <ele>940.8</ele>
        <time>2021-04-17T13:04:21Z</time>
      </trkpt>
      <trkpt lat="-25.5520170" lon="-49.0443940">
        <ele>940.0</ele>
        <time>2021-04-17T13:04:23Z</time>
      </trkpt>
      <trkpt lat="-25.5519750" lon="-49.0443430">
        <ele>939.8</ele>
        <time>2021-04-17T13:04:24Z</time>
      </trkpt>
      <trkpt lat="-25.5519380" lon="-49.0442940">
        <ele>939.6</ele>
        <time>2021-04-17T13:04:25Z</time>
      </trkpt>
      <trkpt lat="-25.5518670" lon="-49.0441900">
        <ele>939.2</ele>
        <time>2021-04-17T13:04:27Z</time>
      </trkpt>
      <trkpt lat="-25.5517970" lon="-49.0440850">
        <ele>938.8</ele>
        <time>2021-04-17T13:04:29Z</time>
      </trkpt>
      <trkpt lat="-25.5517640" lon="-49.0440350">
        <ele>938.6</ele>
        <time>2021-04-17T13:04:30Z</time>
      </trkpt>
      <trkpt lat="-25.5517310" lon="-49.0439820">
        <ele>938.4</ele>
        <time>2021-04-17T13:04:31Z</time>
      </trkpt>
      <trkpt lat="-25.5516700" lon="-49.0438890">
        <ele>938.2</ele>
        <time>2021-04-17T13:04:33Z</time>
      </trkpt>
      <trkpt lat="-25.5516080" lon="-49.0438000">
        <ele>938.0</ele>
        <time>2021-04-17T13:04:35Z</time>
      </trkpt>
      <trkpt lat="-25.5515450" lon="-49.0437050">
        <ele>938.0</ele>
        <time>2021-04-17T13:04:37Z</time>
      </trkpt>
      <trkpt lat="-25.5514770" lon="-49.0436130">
        <ele>937.8</ele>
        <time>2021-04-17T13:04:39Z</time>
      </trkpt>
      <trkpt lat="-25.5514010" lon="-49.0435210">
        <ele>937.6</ele>
        <time>2021-04-17T13:04:41Z</time>
      </trkpt>
      <trkpt lat="-25.5513040" lon="-49.0434260">
        <ele>937.2</ele>
        <time>2021-04-17T13:04:43Z</time>
      </trkpt>
      <trkpt lat="-25.5512450" lon="-49.0433760">
        <ele>937.2</ele>
        <time>2021-04-17T13:04:44Z</time>
      </trkpt>
      <trkpt lat="-25.5511790" lon="-49.0433230">
        <ele>937.2</ele>
        <time>2021-04-17T13:04:45Z</time>
      </trkpt>
      <trkpt lat="-25.5510430" lon="-49.0432110">
        <ele>936.6</ele>
        <time>2021-04-17T13:04:47Z</time>
      </trkpt>
      <trkpt lat="-25.5509670" lon="-49.0431510">
        <ele>936.4</ele>
        <time>2021-04-17T13:04:48Z</time>
      </trkpt>
      <trkpt lat="-25.5508870" lon="-49.0430880">
        <ele>936.0</ele>
        <time>2021-04-17T13:04:49Z</time>
      </trkpt>
      <trkpt lat="-25.5507330" lon="-49.0429520">
        <ele>934.8</ele>
        <time>2021-04-17T13:04:51Z</time>
      </trkpt>
      <trkpt lat="-25.5506150" lon="-49.0428030">
        <ele>933.8</ele>
        <time>2021-04-17T13:04:53Z</time>
      </trkpt>
      <trkpt lat="-25.5505200" lon="-49.0426410">
        <ele>932.6</ele>
        <time>2021-04-17T13:04:55Z</time>
      </trkpt>
      <trkpt lat="-25.5504370" lon="-49.0424970">
        <ele>931.4</ele>
        <time>2021-04-17T13:04:57Z</time>
      </trkpt>
      <trkpt lat="-25.5503980" lon="-49.0424330">
        <ele>930.8</ele>
        <time>2021-04-17T13:04:58Z</time>
      </trkpt>
      <trkpt lat="-25.5503610" lon="-49.0423730">
        <ele>930.2</ele>
        <time>2021-04-17T13:04:59Z</time>
      </trkpt>
      <trkpt lat="-25.5502930" lon="-49.0422690">
        <ele>929.0</ele>
        <time>2021-04-17T13:05:01Z</time>
      </trkpt>
      <trkpt lat="-25.5502620" lon="-49.0422250">
        <ele>928.8</ele>
        <time>2021-04-17T13:05:02Z</time>
      </trkpt>
      <trkpt lat="-25.5502380" lon="-49.0421910">
        <ele>928.6</ele>
        <time>2021-04-17T13:05:03Z</time>
      </trkpt>
      <trkpt lat="-25.5501740" lon="-49.0421300">
        <ele>928.4</ele>
        <time>2021-04-17T13:05:05Z</time>
      </trkpt>
      <trkpt lat="-25.5501270" lon="-49.0420800">
        <ele>928.4</ele>
        <time>2021-04-17T13:05:07Z</time>
      </trkpt>
      <trkpt lat="-25.5501030" lon="-49.0420560">
        <ele>928.4</ele>
        <time>2021-04-17T13:05:08Z</time>
      </trkpt>
      <trkpt lat="-25.5500830" lon="-49.0420340">
        <ele>928.4</ele>
        <time>2021-04-17T13:05:09Z</time>
      </trkpt>
      <trkpt lat="-25.5500540" lon="-49.0419820">
        <ele>928.8</ele>
        <time>2021-04-17T13:05:11Z</time>
      </trkpt>
      <trkpt lat="-25.5500480" lon="-49.0419600">
        <ele>929.2</ele>
        <time>2021-04-17T13:05:12Z</time>
      </trkpt>
      <trkpt lat="-25.5500470" lon="-49.0419360">
        <ele>929.4</ele>
        <time>2021-04-17T13:05:13Z</time>
      </trkpt>
      <trkpt lat="-25.5500490" lon="-49.0418910">
        <ele>930.0</ele>
        <time>2021-04-17T13:05:15Z</time>
      </trkpt>
      <trkpt lat="-25.5500590" lon="-49.0418490">
        <ele>930.4</ele>
        <time>2021-04-17T13:05:17Z</time>
      </trkpt>
      <trkpt lat="-25.5500660" lon="-49.0418290">
        <ele>930.6</ele>
        <time>2021-04-17T13:05:18Z</time>
      </trkpt>
      <trkpt lat="-25.5500750" lon="-49.0418100">
        <ele>930.8</ele>
        <time>2021-04-17T13:05:19Z</time>
      </trkpt>
      <trkpt lat="-25.5500840" lon="-49.0417920">
        <ele>931.0</ele>
        <time>2021-04-17T13:05:20Z</time>
      </trkpt>
      <trkpt lat="-25.5500940" lon="-49.0417730">
        <ele>931.2</ele>
        <time>2021-04-17T13:05:21Z</time>
      </trkpt>
      <trkpt lat="-25.5501140" lon="-49.0417350">
        <ele>931.6</ele>
        <time>2021-04-17T13:05:23Z</time>
      </trkpt>
      <trkpt lat="-25.5501310" lon="-49.0416990">
        <ele>932.0</ele>
        <time>2021-04-17T13:05:25Z</time>
      </trkpt>
      <trkpt lat="-25.5501440" lon="-49.0416670">
        <ele>932.2</ele>
        <time>2021-04-17T13:05:27Z</time>
      </trkpt>
      <trkpt lat="-25.5501570" lon="-49.0416380">
        <ele>932.2</ele>
        <time>2021-04-17T13:05:29Z</time>
      </trkpt>
      <trkpt lat="-25.5501740" lon="-49.0416140">
        <ele>932.4</ele>
        <time>2021-04-17T13:05:31Z</time>
      </trkpt>
      <trkpt lat="-25.5501840" lon="-49.0415880">
        <ele>932.4</ele>
        <time>2021-04-17T13:05:33Z</time>
      </trkpt>
      <trkpt lat="-25.5501950" lon="-49.0415650">
        <ele>932.8</ele>
        <time>2021-04-17T13:05:35Z</time>
      </trkpt>
      <trkpt lat="-25.5502070" lon="-49.0415370">
        <ele>933.0</ele>
        <time>2021-04-17T13:05:37Z</time>
      </trkpt>
      <trkpt lat="-25.5502170" lon="-49.0415250">
        <ele>933.0</ele>
        <time>2021-04-17T13:05:38Z</time>
      </trkpt>
      <trkpt lat="-25.5502240" lon="-49.0415150">
        <ele>933.2</ele>
        <time>2021-04-17T13:05:39Z</time>
      </trkpt>
      <trkpt lat="-25.5502250" lon="-49.0415090">
        <ele>933.2</ele>
        <time>2021-04-17T13:05:40Z</time>
      </trkpt>
      <trkpt lat="-25.5502230" lon="-49.0415060">
        <ele>933.4</ele>
        <time>2021-04-17T13:05:41Z</time>
      </trkpt>
      <trkpt lat="-25.5502170" lon="-49.0414990">
        <ele>933.2</ele>
        <time>2021-04-17T13:05:43Z</time>
      </trkpt>
      <trkpt lat="-25.5502000" lon="-49.0414900">
        <ele>933.4</ele>
        <time>2021-04-17T13:05:44Z</time>
      </trkpt>
      <trkpt lat="-25.5501880" lon="-49.0414800">
        <ele>933.4</ele>
        <time>2021-04-17T13:05:45Z</time>
      </trkpt>
      <trkpt lat="-25.5501540" lon="-49.0414650">
        <ele>933.8</ele>
        <time>2021-04-17T13:05:47Z</time>
      </trkpt>
      <trkpt lat="-25.5501350" lon="-49.0414630">
        <ele>933.8</ele>
        <time>2021-04-17T13:05:48Z</time>
      </trkpt>
      <trkpt lat="-25.5501190" lon="-49.0414630">
        <ele>934.0</ele>
        <time>2021-04-17T13:05:49Z</time>
      </trkpt>
      <trkpt lat="-25.5500920" lon="-49.0414560">
        <ele>934.0</ele>
        <time>2021-04-17T13:05:51Z</time>
      </trkpt>
      <trkpt lat="-25.5500870" lon="-49.0414430">
        <ele>934.0</ele>
        <time>2021-04-17T13:05:52Z</time>
      </trkpt>
      <trkpt lat="-25.5500940" lon="-49.0414230">
        <ele>934.0</ele>
        <time>2021-04-17T13:05:53Z</time>
      </trkpt>
      <trkpt lat="-25.5501140" lon="-49.0413760">
        <ele>934.0</ele>
        <time>2021-04-17T13:05:55Z</time>
      </trkpt>
      <trkpt lat="-25.5500960" lon="-49.0413190">
        <ele>934.0</ele>
        <time>2021-04-17T13:05:57Z</time>
      </trkpt>
      <trkpt lat="-25.5500660" lon="-49.0413020">
        <ele>934.0</ele>
        <time>2021-04-17T13:05:58Z</time>
      </trkpt>
      <trkpt lat="-25.5500310" lon="-49.0413040">
        <ele>934.0</ele>
        <time>2021-04-17T13:05:59Z</time>
      </trkpt>
      <trkpt lat="-25.5499590" lon="-49.0413480">
        <ele>934.0</ele>
        <time>2021-04-17T13:06:01Z</time>
      </trkpt>
      <trkpt lat="-25.5499270" lon="-49.0413890">
        <ele>934.0</ele>
        <time>2021-04-17T13:06:02Z</time>
      </trkpt>
      <trkpt lat="-25.5498950" lon="-49.0414290">
        <ele>934.0</ele>
        <time>2021-04-17T13:06:03Z</time>
      </trkpt>
      <trkpt lat="-25.5498430" lon="-49.0415280">
        <ele>934.0</ele>
        <time>2021-04-17T13:06:05Z</time>
      </trkpt>
      <trkpt lat="-25.5498020" lon="-49.0416320">
        <ele>934.0</ele>
        <time>2021-04-17T13:06:07Z</time>
      </trkpt>
      <trkpt lat="-25.5497860" lon="-49.0416890">
        <ele>934.0</ele>
        <time>2021-04-17T13:06:08Z</time>
      </trkpt>
      <trkpt lat="-25.5497710" lon="-49.0417490">
        <ele>934.0</ele>
        <time>2021-04-17T13:06:09Z</time>
      </trkpt>
      <trkpt lat="-25.5497340" lon="-49.0418710">
        <ele>933.8</ele>
        <time>2021-04-17T13:06:11Z</time>
      </trkpt>
      <trkpt lat="-25.5496910" lon="-49.0420050">
        <ele>933.4</ele>
        <time>2021-04-17T13:06:13Z</time>
      </trkpt>
      <trkpt lat="-25.5496460" lon="-49.0421500">
        <ele>933.2</ele>
        <time>2021-04-17T13:06:15Z</time>
      </trkpt>
      <trkpt lat="-25.5495900" lon="-49.0422980">
        <ele>932.8</ele>
        <time>2021-04-17T13:06:17Z</time>
      </trkpt>
      <trkpt lat="-25.5495250" lon="-49.0424500">
        <ele>932.0</ele>
        <time>2021-04-17T13:06:19Z</time>
      </trkpt>
      <trkpt lat="-25.5494550" lon="-49.0426080">
        <ele>931.4</ele>
        <time>2021-04-17T13:06:21Z</time>
      </trkpt>
      <trkpt lat="-25.5494190" lon="-49.0426910">
        <ele>930.8</ele>
        <time>2021-04-17T13:06:22Z</time>
      </trkpt>
      <trkpt lat="-25.5493800" lon="-49.0427760">
        <ele>930.8</ele>
        <time>2021-04-17T13:06:23Z</time>
      </trkpt>
      <trkpt lat="-25.5493420" lon="-49.0428640">
        <ele>930.8</ele>
        <time>2021-04-17T13:06:24Z</time>
      </trkpt>
      <trkpt lat="-25.5493030" lon="-49.0429530">
        <ele>930.8</ele>
        <time>2021-04-17T13:06:25Z</time>
      </trkpt>
      <trkpt lat="-25.5492180" lon="-49.0431330">
        <ele>930.2</ele>
        <time>2021-04-17T13:06:27Z</time>
      </trkpt>
      <trkpt lat="-25.5491620" lon="-49.0432160">
        <ele>929.8</ele>
        <time>2021-04-17T13:06:28Z</time>
      </trkpt>
      <trkpt lat="-25.5490940" lon="-49.0432920">
        <ele>929.4</ele>
        <time>2021-04-17T13:06:29Z</time>
      </trkpt>
      <trkpt lat="-25.5489520" lon="-49.0434470">
        <ele>928.6</ele>
        <time>2021-04-17T13:06:31Z</time>
      </trkpt>
      <trkpt lat="-25.5488370" lon="-49.0436250">
        <ele>928.2</ele>
        <time>2021-04-17T13:06:33Z</time>
      </trkpt>
      <trkpt lat="-25.5487950" lon="-49.0437240">
        <ele>928.0</ele>
        <time>2021-04-17T13:06:34Z</time>
      </trkpt>
      <trkpt lat="-25.5487560" lon="-49.0438260">
        <ele>927.8</ele>
        <time>2021-04-17T13:06:35Z</time>
      </trkpt>
      <trkpt lat="-25.5487220" lon="-49.0439290">
        <ele>927.6</ele>
        <time>2021-04-17T13:06:36Z</time>
      </trkpt>
      <trkpt lat="-25.5486920" lon="-49.0440340">
        <ele>927.2</ele>
        <time>2021-04-17T13:06:37Z</time>
      </trkpt>
      <trkpt lat="-25.5486360" lon="-49.0442420">
        <ele>926.2</ele>
        <time>2021-04-17T13:06:39Z</time>
      </trkpt>
      <trkpt lat="-25.5485700" lon="-49.0444440">
        <ele>925.2</ele>
        <time>2021-04-17T13:06:41Z</time>
      </trkpt>
      <trkpt lat="-25.5484900" lon="-49.0446350">
        <ele>923.8</ele>
        <time>2021-04-17T13:06:43Z</time>
      </trkpt>
      <trkpt lat="-25.5484080" lon="-49.0448260">
        <ele>922.8</ele>
        <time>2021-04-17T13:06:45Z</time>
      </trkpt>
      <trkpt lat="-25.5483320" lon="-49.0450020">
        <ele>922.2</ele>
        <time>2021-04-17T13:06:47Z</time>
      </trkpt>
      <trkpt lat="-25.5482940" lon="-49.0450790">
        <ele>921.8</ele>
        <time>2021-04-17T13:06:48Z</time>
      </trkpt>
      <trkpt lat="-25.5482490" lon="-49.0451440">
        <ele>921.6</ele>
        <time>2021-04-17T13:06:49Z</time>
      </trkpt>
      <trkpt lat="-25.5481720" lon="-49.0452590">
        <ele>921.2</ele>
        <time>2021-04-17T13:06:51Z</time>
      </trkpt>
      <trkpt lat="-25.5481460" lon="-49.0453140">
        <ele>921.0</ele>
        <time>2021-04-17T13:06:52Z</time>
      </trkpt>
      <trkpt lat="-25.5481270" lon="-49.0453610">
        <ele>921.0</ele>
        <time>2021-04-17T13:06:53Z</time>
      </trkpt>
      <trkpt lat="-25.5481080" lon="-49.0454220">
        <ele>920.8</ele>
        <time>2021-04-17T13:06:55Z</time>
      </trkpt>
      <trkpt lat="-25.5480990" lon="-49.0454490">
        <ele>920.2</ele>
        <time>2021-04-17T13:06:57Z</time>
      </trkpt>
      <trkpt lat="-25.5480990" lon="-49.0454530">
        <ele>919.4</ele>
        <time>2021-04-17T13:06:59Z</time>
      </trkpt>
      <trkpt lat="-25.5480950" lon="-49.0454530">
        <ele>919.0</ele>
        <time>2021-04-17T13:07:00Z</time>
      </trkpt>
      <trkpt lat="-25.5480930" lon="-49.0454520">
        <ele>918.8</ele>
        <time>2021-04-17T13:07:01Z</time>
      </trkpt>
      <trkpt lat="-25.5480940" lon="-49.0454500">
        <ele>918.2</ele>
        <time>2021-04-17T13:07:03Z</time>
      </trkpt>
      <trkpt lat="-25.5480950" lon="-49.0454490">
        <ele>918.0</ele>
        <time>2021-04-17T13:07:05Z</time>
      </trkpt>
      <trkpt lat="-25.5480950" lon="-49.0454490">
        <ele>918.0</ele>
        <time>2021-04-17T13:07:07Z</time>
      </trkpt>
      <trkpt lat="-25.5480950" lon="-49.0454480">
        <ele>918.0</ele>
        <time>2021-04-17T13:07:09Z</time>
      </trkpt>
      <trkpt lat="-25.5480950" lon="-49.0454480">
        <ele>918.0</ele>
        <time>2021-04-17T13:07:11Z</time>
      </trkpt>
      <trkpt lat="-25.5480950" lon="-49.0454480">
        <ele>918.0</ele>
        <time>2021-04-17T13:07:13Z</time>
      </trkpt>
      <trkpt lat="-25.5480940" lon="-49.0454480">
        <ele>918.0</ele>
        <time>2021-04-17T13:07:15Z</time>
      </trkpt>
      <trkpt lat="-25.5480940" lon="-49.0454480">
        <ele>917.8</ele>
        <time>2021-04-17T13:07:17Z</time>
      </trkpt>
      <trkpt lat="-25.5480940" lon="-49.0454480">
        <ele>918.0</ele>
        <time>2021-04-17T13:07:19Z</time>
      </trkpt>
      <trkpt lat="-25.5480940" lon="-49.0454480">
        <ele>918.0</ele>
        <time>2021-04-17T13:07:21Z</time>
      </trkpt>
      <trkpt lat="-25.5480940" lon="-49.0454480">
        <ele>918.0</ele>
        <time>2021-04-17T13:07:23Z</time>
      </trkpt>
      <trkpt lat="-25.5480940" lon="-49.0454480">
        <ele>917.8</ele>
        <time>2021-04-17T13:07:25Z</time>
      </trkpt>
      <trkpt lat="-25.5480940" lon="-49.0454480">
        <ele>917.8</ele>
        <time>2021-04-17T13:07:27Z</time>
      </trkpt>
      <trkpt lat="-25.5480940" lon="-49.0454470">
        <ele>917.8</ele>
        <time>2021-04-17T13:07:29Z</time>
      </trkpt>
      <trkpt lat="-25.5480940" lon="-49.0454470">
        <ele>917.8</ele>
        <time>2021-04-17T13:07:31Z</time>
      </trkpt>
      <trkpt lat="-25.5480940" lon="-49.0454470">
        <ele>917.8</ele>
        <time>2021-04-17T13:07:32Z</time>
      </trkpt>
      <trkpt lat="-25.5480940" lon="-49.0454470">
        <ele>917.8</ele>
        <time>2021-04-17T13:07:33Z</time>
      </trkpt>
      <trkpt lat="-25.5480940" lon="-49.0454460">
        <ele>917.8</ele>
        <time>2021-04-17T13:07:35Z</time>
      </trkpt>
      <trkpt lat="-25.5480950" lon="-49.0454460">
        <ele>917.8</ele>
        <time>2021-04-17T13:07:37Z</time>
      </trkpt>
      <trkpt lat="-25.5480950" lon="-49.0454460">
        <ele>917.8</ele>
        <time>2021-04-17T13:07:39Z</time>
      </trkpt>
      <trkpt lat="-25.5480950" lon="-49.0454460">
        <ele>917.8</ele>
        <time>2021-04-17T13:07:41Z</time>
      </trkpt>
      <trkpt lat="-25.5480950" lon="-49.0454460">
        <ele>917.8</ele>
        <time>2021-04-17T13:07:43Z</time>
      </trkpt>
      <trkpt lat="-25.5480950" lon="-49.0454450">
        <ele>917.8</ele>
        <time>2021-04-17T13:07:45Z</time>
      </trkpt>
      <trkpt lat="-25.5480950" lon="-49.0454450">
        <ele>917.8</ele>
        <time>2021-04-17T13:07:47Z</time>
      </trkpt>
      <trkpt lat="-25.5480950" lon="-49.0454450">
        <ele>917.8</ele>
        <time>2021-04-17T13:07:49Z</time>
      </trkpt>
      <trkpt lat="-25.5480960" lon="-49.0454450">
        <ele>917.8</ele>
        <time>2021-04-17T13:07:51Z</time>
      </trkpt>
      <trkpt lat="-25.5480960" lon="-49.0454450">
        <ele>917.6</ele>
        <time>2021-04-17T13:07:53Z</time>
      </trkpt>
      <trkpt lat="-25.5480960" lon="-49.0454450">
        <ele>917.6</ele>
        <time>2021-04-17T13:07:55Z</time>
      </trkpt>
      <trkpt lat="-25.5480960" lon="-49.0454450">
        <ele>917.6</ele>
        <time>2021-04-17T13:07:56Z</time>
      </trkpt>
      <trkpt lat="-25.5480970" lon="-49.0454450">
        <ele>917.6</ele>
        <time>2021-04-17T13:07:57Z</time>
      </trkpt>
      <trkpt lat="-25.5480970" lon="-49.0454440">
        <ele>917.6</ele>
        <time>2021-04-17T13:07:59Z</time>
      </trkpt>
      <trkpt lat="-25.5480970" lon="-49.0454440">
        <ele>917.6</ele>
        <time>2021-04-17T13:08:01Z</time>
      </trkpt>
      <trkpt lat="-25.5480970" lon="-49.0454440">
        <ele>917.6</ele>
        <time>2021-04-17T13:08:03Z</time>
      </trkpt>
      <trkpt lat="-25.5480970" lon="-49.0454440">
        <ele>917.6</ele>
        <time>2021-04-17T13:08:05Z</time>
      </trkpt>
      <trkpt lat="-25.5480970" lon="-49.0454440">
        <ele>917.6</ele>
        <time>2021-04-17T13:08:07Z</time>
      </trkpt>
      <trkpt lat="-25.5480970" lon="-49.0454440">
        <ele>917.6</ele>
        <time>2021-04-17T13:08:09Z</time>
      </trkpt>
      <trkpt lat="-25.5480970" lon="-49.0454440">
        <ele>917.8</ele>
        <time>2021-04-17T13:08:11Z</time>
      </trkpt>
      <trkpt lat="-25.5480970" lon="-49.0454440">
        <ele>917.8</ele>
        <time>2021-04-17T13:08:13Z</time>
      </trkpt>
      <trkpt lat="-25.5480970" lon="-49.0454430">
        <ele>917.8</ele>
        <time>2021-04-17T13:08:15Z</time>
      </trkpt>
      <trkpt lat="-25.5480970" lon="-49.0454430">
        <ele>917.8</ele>
        <time>2021-04-17T13:08:16Z</time>
      </trkpt>
      <trkpt lat="-25.5480970" lon="-49.0454430">
        <ele>917.8</ele>
        <time>2021-04-17T13:08:17Z</time>
      </trkpt>
      <trkpt lat="-25.5480970" lon="-49.0454430">
        <ele>917.8</ele>
        <time>2021-04-17T13:08:19Z</time>
      </trkpt>
      <trkpt lat="-25.5480970" lon="-49.0454430">
        <ele>917.8</ele>
        <time>2021-04-17T13:08:21Z</time>
      </trkpt>
      <trkpt lat="-25.5480970" lon="-49.0454430">
        <ele>917.8</ele>
        <time>2021-04-17T13:08:23Z</time>
      </trkpt>
      <trkpt lat="-25.5480970" lon="-49.0454430">
        <ele>917.8</ele>
        <time>2021-04-17T13:08:25Z</time>
      </trkpt>
      <trkpt lat="-25.5480970" lon="-49.0454420">
        <ele>917.8</ele>
        <time>2021-04-17T13:08:27Z</time>
      </trkpt>
      <trkpt lat="-25.5480970" lon="-49.0454420">
        <ele>917.8</ele>
        <time>2021-04-17T13:08:29Z</time>
      </trkpt>
      <trkpt lat="-25.5480970" lon="-49.0454420">
        <ele>917.8</ele>
        <time>2021-04-17T13:08:31Z</time>
      </trkpt>
      <trkpt lat="-25.5480960" lon="-49.0454420">
        <ele>918.0</ele>
        <time>2021-04-17T13:08:33Z</time>
      </trkpt>
      <trkpt lat="-25.5480960" lon="-49.0454420">
        <ele>918.0</ele>
        <time>2021-04-17T13:08:35Z</time>
      </trkpt>
      <trkpt lat="-25.5480970" lon="-49.0454420">
        <ele>918.0</ele>
        <time>2021-04-17T13:08:37Z</time>
      </trkpt>
      <trkpt lat="-25.5480970" lon="-49.0454420">
        <ele>918.0</ele>
        <time>2021-04-17T13:08:39Z</time>
      </trkpt>
      <trkpt lat="-25.5480970" lon="-49.0454420">
        <ele>918.0</ele>
        <time>2021-04-17T13:08:41Z</time>
      </trkpt>
      <trkpt lat="-25.5480970" lon="-49.0454420">
        <ele>918.0</ele>
        <time>2021-04-17T13:08:43Z</time>
      </trkpt>
      <trkpt lat="-25.5480970" lon="-49.0454420">
        <ele>918.0</ele>
        <time>2021-04-17T13:08:45Z</time>
      </trkpt>
      <trkpt lat="-25.5480970" lon="-49.0454420">
        <ele>918.0</ele>
        <time>2021-04-17T13:08:47Z</time>
      </trkpt>
      <trkpt lat="-25.5480970" lon="-49.0454420">
        <ele>918.2</ele>
        <time>2021-04-17T13:08:49Z</time>
      </trkpt>
      <trkpt lat="-25.5480970" lon="-49.0454420">
        <ele>918.0</ele>
        <time>2021-04-17T13:08:51Z</time>
      </trkpt>
      <trkpt lat="-25.5480970" lon="-49.0454420">
        <ele>918.0</ele>
        <time>2021-04-17T13:08:53Z</time>
      </trkpt>
      <trkpt lat="-25.5480970" lon="-49.0454420">
        <ele>918.0</ele>
        <time>2021-04-17T13:08:55Z</time>
      </trkpt>
      <trkpt lat="-25.5480970" lon="-49.0454420">
        <ele>918.0</ele>
        <time>2021-04-17T13:08:57Z</time>
      </trkpt>
      <trkpt lat="-25.5480970" lon="-49.0454410">
        <ele>918.0</ele>
        <time>2021-04-17T13:08:59Z</time>
      </trkpt>
      <trkpt lat="-25.5480970" lon="-49.0454410">
        <ele>918.0</ele>
        <time>2021-04-17T13:09:01Z</time>
      </trkpt>
      <trkpt lat="-25.5480980" lon="-49.0454420">
        <ele>918.0</ele>
        <time>2021-04-17T13:09:03Z</time>
      </trkpt>
      <trkpt lat="-25.5480980" lon="-49.0454420">
        <ele>918.0</ele>
        <time>2021-04-17T13:09:05Z</time>
      </trkpt>
      <trkpt lat="-25.5480980" lon="-49.0454410">
        <ele>918.0</ele>
        <time>2021-04-17T13:09:06Z</time>
      </trkpt>
      <trkpt lat="-25.5480980" lon="-49.0454410">
        <ele>918.0</ele>
        <time>2021-04-17T13:09:07Z</time>
      </trkpt>
      <trkpt lat="-25.5480980" lon="-49.0454410">
        <ele>918.0</ele>
        <time>2021-04-17T13:09:09Z</time>
      </trkpt>
      <trkpt lat="-25.5480980" lon="-49.0454410">
        <ele>918.0</ele>
        <time>2021-04-17T13:09:11Z</time>
      </trkpt>
      <trkpt lat="-25.5480980" lon="-49.0454410">
        <ele>918.0</ele>
        <time>2021-04-17T13:09:13Z</time>
      </trkpt>
      <trkpt lat="-25.5480980" lon="-49.0454410">
        <ele>918.0</ele>
        <time>2021-04-17T13:09:15Z</time>
      </trkpt>
      <trkpt lat="-25.5480980" lon="-49.0454410">
        <ele>918.0</ele>
        <time>2021-04-17T13:09:17Z</time>
      </trkpt>
      <trkpt lat="-25.5480980" lon="-49.0454410">
        <ele>918.0</ele>
        <time>2021-04-17T13:09:19Z</time>
      </trkpt>
      <trkpt lat="-25.5480980" lon="-49.0454410">
        <ele>918.0</ele>
        <time>2021-04-17T13:09:21Z</time>
      </trkpt>
      <trkpt lat="-25.5480980" lon="-49.0454400">
        <ele>918.0</ele>
        <time>2021-04-17T13:09:23Z</time>
      </trkpt>
      <trkpt lat="-25.5480980" lon="-49.0454400">
        <ele>918.2</ele>
        <time>2021-04-17T13:09:25Z</time>
      </trkpt>
      <trkpt lat="-25.5480980" lon="-49.0454400">
        <ele>918.2</ele>
        <time>2021-04-17T13:09:27Z</time>
      </trkpt>
      <trkpt lat="-25.5480990" lon="-49.0454400">
        <ele>918.2</ele>
        <time>2021-04-17T13:09:29Z</time>
      </trkpt>
      <trkpt lat="-25.5480990" lon="-49.0454400">
        <ele>918.2</ele>
        <time>2021-04-17T13:09:31Z</time>
      </trkpt>
      <trkpt lat="-25.5480990" lon="-49.0454390">
        <ele>918.2</ele>
        <time>2021-04-17T13:09:33Z</time>
      </trkpt>
      <trkpt lat="-25.5480990" lon="-49.0454390">
        <ele>918.2</ele>
        <time>2021-04-17T13:09:35Z</time>
      </trkpt>
      <trkpt lat="-25.5480990" lon="-49.0454390">
        <ele>918.2</ele>
        <time>2021-04-17T13:09:37Z</time>
      </trkpt>
      <trkpt lat="-25.5480990" lon="-49.0454390">
        <ele>918.2</ele>
        <time>2021-04-17T13:09:39Z</time>
      </trkpt>
      <trkpt lat="-25.5480990" lon="-49.0454380">
        <ele>918.2</ele>
        <time>2021-04-17T13:09:41Z</time>
      </trkpt>
      <trkpt lat="-25.5480990" lon="-49.0454390">
        <ele>918.2</ele>
        <time>2021-04-17T13:09:43Z</time>
      </trkpt>
      <trkpt lat="-25.5480990" lon="-49.0454380">
        <ele>918.2</ele>
        <time>2021-04-17T13:09:45Z</time>
      </trkpt>
      <trkpt lat="-25.5480990" lon="-49.0454390">
        <ele>918.2</ele>
        <time>2021-04-17T13:09:47Z</time>
      </trkpt>
      <trkpt lat="-25.5480990" lon="-49.0454390">
        <ele>918.2</ele>
        <time>2021-04-17T13:09:48Z</time>
      </trkpt>
      <trkpt lat="-25.5480990" lon="-49.0454380">
        <ele>918.0</ele>
        <time>2021-04-17T13:09:49Z</time>
      </trkpt>
      <trkpt lat="-25.5480990" lon="-49.0454380">
        <ele>918.0</ele>
        <time>2021-04-17T13:09:51Z</time>
      </trkpt>
      <trkpt lat="-25.5480990" lon="-49.0454380">
        <ele>918.0</ele>
        <time>2021-04-17T13:09:53Z</time>
      </trkpt>
      <trkpt lat="-25.5480990" lon="-49.0454380">
        <ele>918.0</ele>
        <time>2021-04-17T13:09:55Z</time>
      </trkpt>
      <trkpt lat="-25.5480990" lon="-49.0454370">
        <ele>918.0</ele>
        <time>2021-04-17T13:09:57Z</time>
      </trkpt>
      <trkpt lat="-25.5480980" lon="-49.0454370">
        <ele>918.0</ele>
        <time>2021-04-17T13:09:59Z</time>
      </trkpt>
      <trkpt lat="-25.5480990" lon="-49.0454370">
        <ele>918.0</ele>
        <time>2021-04-17T13:10:01Z</time>
      </trkpt>
      <trkpt lat="-25.5480990" lon="-49.0454370">
        <ele>918.0</ele>
        <time>2021-04-17T13:10:03Z</time>
      </trkpt>
      <trkpt lat="-25.5480990" lon="-49.0454370">
        <ele>918.0</ele>
        <time>2021-04-17T13:10:05Z</time>
      </trkpt>
      <trkpt lat="-25.5480990" lon="-49.0454370">
        <ele>918.0</ele>
        <time>2021-04-17T13:10:07Z</time>
      </trkpt>
      <trkpt lat="-25.5480990" lon="-49.0454370">
        <ele>918.0</ele>
        <time>2021-04-17T13:10:09Z</time>
      </trkpt>
      <trkpt lat="-25.5480990" lon="-49.0454370">
        <ele>918.0</ele>
        <time>2021-04-17T13:10:10Z</time>
      </trkpt>
      <trkpt lat="-25.5480990" lon="-49.0454370">
        <ele>918.0</ele>
        <time>2021-04-17T13:10:11Z</time>
      </trkpt>
      <trkpt lat="-25.5480990" lon="-49.0454370">
        <ele>918.0</ele>
        <time>2021-04-17T13:10:13Z</time>
      </trkpt>
      <trkpt lat="-25.5480990" lon="-49.0454370">
        <ele>918.0</ele>
        <time>2021-04-17T13:10:15Z</time>
      </trkpt>
      <trkpt lat="-25.5480990" lon="-49.0454380">
        <ele>918.0</ele>
        <time>2021-04-17T13:10:17Z</time>
      </trkpt>
      <trkpt lat="-25.5480980" lon="-49.0454380">
        <ele>918.0</ele>
        <time>2021-04-17T13:10:19Z</time>
      </trkpt>
      <trkpt lat="-25.5480940" lon="-49.0454370">
        <ele>918.0</ele>
        <time>2021-04-17T13:10:21Z</time>
      </trkpt>
      <trkpt lat="-25.5480930" lon="-49.0454370">
        <ele>918.0</ele>
        <time>2021-04-17T13:10:23Z</time>
      </trkpt>
      <trkpt lat="-25.5480930" lon="-49.0454370">
        <ele>918.0</ele>
        <time>2021-04-17T13:10:24Z</time>
      </trkpt>
      <trkpt lat="-25.5480920" lon="-49.0454370">
        <ele>918.2</ele>
        <time>2021-04-17T13:10:25Z</time>
      </trkpt>
      <trkpt lat="-25.5480920" lon="-49.0454370">
        <ele>918.2</ele>
        <time>2021-04-17T13:10:27Z</time>
      </trkpt>
      <trkpt lat="-25.5480900" lon="-49.0454350">
        <ele>918.0</ele>
        <time>2021-04-17T13:10:29Z</time>
      </trkpt>
      <trkpt lat="-25.5480890" lon="-49.0454340">
        <ele>918.0</ele>
        <time>2021-04-17T13:10:31Z</time>
      </trkpt>
      <trkpt lat="-25.5480880" lon="-49.0454330">
        <ele>918.0</ele>
        <time>2021-04-17T13:10:33Z</time>
      </trkpt>
      <trkpt lat="-25.5480890" lon="-49.0454330">
        <ele>918.0</ele>
        <time>2021-04-17T13:10:35Z</time>
      </trkpt>
      <trkpt lat="-25.5480890" lon="-49.0454330">
        <ele>918.0</ele>
        <time>2021-04-17T13:10:36Z</time>
      </trkpt>
      <trkpt lat="-25.5480900" lon="-49.0454330">
        <ele>918.0</ele>
        <time>2021-04-17T13:10:37Z</time>
      </trkpt>
      <trkpt lat="-25.5480900" lon="-49.0454330">
        <ele>918.0</ele>
        <time>2021-04-17T13:10:39Z</time>
      </trkpt>
      <trkpt lat="-25.5480900" lon="-49.0454330">
        <ele>918.0</ele>
        <time>2021-04-17T13:10:41Z</time>
      </trkpt>
      <trkpt lat="-25.5480900" lon="-49.0454330">
        <ele>918.0</ele>
        <time>2021-04-17T13:10:43Z</time>
      </trkpt>
      <trkpt lat="-25.5480900" lon="-49.0454330">
        <ele>918.0</ele>
        <time>2021-04-17T13:10:45Z</time>
      </trkpt>
      <trkpt lat="-25.5480910" lon="-49.0454330">
        <ele>918.0</ele>
        <time>2021-04-17T13:10:47Z</time>
      </trkpt>
      <trkpt lat="-25.5480910" lon="-49.0454330">
        <ele>917.8</ele>
        <time>2021-04-17T13:10:49Z</time>
      </trkpt>
      <trkpt lat="-25.5480910" lon="-49.0454330">
        <ele>917.8</ele>
        <time>2021-04-17T13:10:51Z</time>
      </trkpt>
      <trkpt lat="-25.5480910" lon="-49.0454320">
        <ele>917.8</ele>
        <time>2021-04-17T13:10:53Z</time>
      </trkpt>
      <trkpt lat="-25.5480910" lon="-49.0454320">
        <ele>917.8</ele>
        <time>2021-04-17T13:10:55Z</time>
      </trkpt>
      <trkpt lat="-25.5480910" lon="-49.0454320">
        <ele>917.8</ele>
        <time>2021-04-17T13:10:57Z</time>
      </trkpt>
      <trkpt lat="-25.5480910" lon="-49.0454320">
        <ele>917.8</ele>
        <time>2021-04-17T13:10:59Z</time>
      </trkpt>
      <trkpt lat="-25.5480910" lon="-49.0454320">
        <ele>917.8</ele>
        <time>2021-04-17T13:11:01Z</time>
      </trkpt>
      <trkpt lat="-25.5480910" lon="-49.0454320">
        <ele>917.8</ele>
        <time>2021-04-17T13:11:03Z</time>
      </trkpt>
      <trkpt lat="-25.5480910" lon="-49.0454320">
        <ele>917.8</ele>
        <time>2021-04-17T13:11:04Z</time>
      </trkpt>
      <trkpt lat="-25.5480910" lon="-49.0454320">
        <ele>917.8</ele>
        <time>2021-04-17T13:11:05Z</time>
      </trkpt>
      <trkpt lat="-25.5480910" lon="-49.0454320">
        <ele>918.0</ele>
        <time>2021-04-17T13:11:07Z</time>
      </trkpt>
      <trkpt lat="-25.5480910" lon="-49.0454320">
        <ele>918.0</ele>
        <time>2021-04-17T13:11:09Z</time>
      </trkpt>
      <trkpt lat="-25.5480910" lon="-49.0454320">
        <ele>918.0</ele>
        <time>2021-04-17T13:11:11Z</time>
      </trkpt>
      <trkpt lat="-25.5480910" lon="-49.0454320">
        <ele>918.0</ele>
        <time>2021-04-17T13:11:13Z</time>
      </trkpt>
      <trkpt lat="-25.5480910" lon="-49.0454320">
        <ele>918.0</ele>
        <time>2021-04-17T13:11:15Z</time>
      </trkpt>
      <trkpt lat="-25.5480910" lon="-49.0454310">
        <ele>918.0</ele>
        <time>2021-04-17T13:11:17Z</time>
      </trkpt>
      <trkpt lat="-25.5480910" lon="-49.0454310">
        <ele>918.0</ele>
        <time>2021-04-17T13:11:19Z</time>
      </trkpt>
      <trkpt lat="-25.5480920" lon="-49.0454310">
        <ele>918.0</ele>
        <time>2021-04-17T13:11:21Z</time>
      </trkpt>
      <trkpt lat="-25.5480920" lon="-49.0454310">
        <ele>918.0</ele>
        <time>2021-04-17T13:11:23Z</time>
      </trkpt>
      <trkpt lat="-25.5480920" lon="-49.0454310">
        <ele>918.0</ele>
        <time>2021-04-17T13:11:25Z</time>
      </trkpt>
      <trkpt lat="-25.5480920" lon="-49.0454310">
        <ele>918.0</ele>
        <time>2021-04-17T13:11:27Z</time>
      </trkpt>
      <trkpt lat="-25.5480920" lon="-49.0454310">
        <ele>918.0</ele>
        <time>2021-04-17T13:11:29Z</time>
      </trkpt>
      <trkpt lat="-25.5480930" lon="-49.0454310">
        <ele>918.0</ele>
        <time>2021-04-17T13:11:31Z</time>
      </trkpt>
      <trkpt lat="-25.5480920" lon="-49.0454310">
        <ele>918.0</ele>
        <time>2021-04-17T13:11:33Z</time>
      </trkpt>
      <trkpt lat="-25.5480920" lon="-49.0454310">
        <ele>918.0</ele>
        <time>2021-04-17T13:11:34Z</time>
      </trkpt>
      <trkpt lat="-25.5480920" lon="-49.0454310">
        <ele>918.0</ele>
        <time>2021-04-17T13:11:35Z</time>
      </trkpt>
      <trkpt lat="-25.5480930" lon="-49.0454310">
        <ele>918.0</ele>
        <time>2021-04-17T13:11:37Z</time>
      </trkpt>
      <trkpt lat="-25.5480930" lon="-49.0454310">
        <ele>918.0</ele>
        <time>2021-04-17T13:11:39Z</time>
      </trkpt>
      <trkpt lat="-25.5480930" lon="-49.0454310">
        <ele>918.0</ele>
        <time>2021-04-17T13:11:41Z</time>
      </trkpt>
      <trkpt lat="-25.5480930" lon="-49.0454300">
        <ele>917.8</ele>
        <time>2021-04-17T13:11:43Z</time>
      </trkpt>
      <trkpt lat="-25.5480930" lon="-49.0454300">
        <ele>917.8</ele>
        <time>2021-04-17T13:11:45Z</time>
      </trkpt>
      <trkpt lat="-25.5480930" lon="-49.0454300">
        <ele>917.8</ele>
        <time>2021-04-17T13:11:47Z</time>
      </trkpt>
      <trkpt lat="-25.5480930" lon="-49.0454300">
        <ele>917.8</ele>
        <time>2021-04-17T13:11:49Z</time>
      </trkpt>
      <trkpt lat="-25.5480930" lon="-49.0454300">
        <ele>917.6</ele>
        <time>2021-04-17T13:11:51Z</time>
      </trkpt>
      <trkpt lat="-25.5480930" lon="-49.0454300">
        <ele>917.6</ele>
        <time>2021-04-17T13:11:53Z</time>
      </trkpt>
      <trkpt lat="-25.5480930" lon="-49.0454300">
        <ele>917.6</ele>
        <time>2021-04-17T13:11:55Z</time>
      </trkpt>
      <trkpt lat="-25.5480930" lon="-49.0454290">
        <ele>917.6</ele>
        <time>2021-04-17T13:11:57Z</time>
      </trkpt>
      <trkpt lat="-25.5480930" lon="-49.0454290">
        <ele>917.6</ele>
        <time>2021-04-17T13:11:59Z</time>
      </trkpt>
      <trkpt lat="-25.5480930" lon="-49.0454290">
        <ele>917.6</ele>
        <time>2021-04-17T13:12:01Z</time>
      </trkpt>
      <trkpt lat="-25.5480930" lon="-49.0454290">
        <ele>917.6</ele>
        <time>2021-04-17T13:12:03Z</time>
      </trkpt>
      <trkpt lat="-25.5480930" lon="-49.0454290">
        <ele>917.6</ele>
        <time>2021-04-17T13:12:05Z</time>
      </trkpt>
      <trkpt lat="-25.5480930" lon="-49.0454290">
        <ele>917.6</ele>
        <time>2021-04-17T13:12:07Z</time>
      </trkpt>
      <trkpt lat="-25.5480930" lon="-49.0454290">
        <ele>918.0</ele>
        <time>2021-04-17T13:12:09Z</time>
      </trkpt>
      <trkpt lat="-25.5480930" lon="-49.0454290">
        <ele>917.8</ele>
        <time>2021-04-17T13:12:11Z</time>
      </trkpt>
      <trkpt lat="-25.5480930" lon="-49.0454280">
        <ele>917.8</ele>
        <time>2021-04-17T13:12:13Z</time>
      </trkpt>
      <trkpt lat="-25.5480930" lon="-49.0454280">
        <ele>917.8</ele>
        <time>2021-04-17T13:12:15Z</time>
      </trkpt>
      <trkpt lat="-25.5480930" lon="-49.0454280">
        <ele>917.6</ele>
        <time>2021-04-17T13:12:17Z</time>
      </trkpt>
      <trkpt lat="-25.5480920" lon="-49.0454280">
        <ele>917.6</ele>
        <time>2021-04-17T13:12:19Z</time>
      </trkpt>
      <trkpt lat="-25.5480920" lon="-49.0454280">
        <ele>917.8</ele>
        <time>2021-04-17T13:12:21Z</time>
      </trkpt>
      <trkpt lat="-25.5480920" lon="-49.0454280">
        <ele>917.8</ele>
        <time>2021-04-17T13:12:23Z</time>
      </trkpt>
      <trkpt lat="-25.5480920" lon="-49.0454280">
        <ele>917.8</ele>
        <time>2021-04-17T13:12:25Z</time>
      </trkpt>
      <trkpt lat="-25.5480930" lon="-49.0454270">
        <ele>917.8</ele>
        <time>2021-04-17T13:12:27Z</time>
      </trkpt>
      <trkpt lat="-25.5480930" lon="-49.0454270">
        <ele>917.8</ele>
        <time>2021-04-17T13:12:29Z</time>
      </trkpt>
      <trkpt lat="-25.5480930" lon="-49.0454270">
        <ele>917.8</ele>
        <time>2021-04-17T13:12:31Z</time>
      </trkpt>
      <trkpt lat="-25.5480930" lon="-49.0454270">
        <ele>917.8</ele>
        <time>2021-04-17T13:12:33Z</time>
      </trkpt>
      <trkpt lat="-25.5480930" lon="-49.0454270">
        <ele>917.8</ele>
        <time>2021-04-17T13:12:35Z</time>
      </trkpt>
      <trkpt lat="-25.5480930" lon="-49.0454270">
        <ele>917.8</ele>
        <time>2021-04-17T13:12:36Z</time>
      </trkpt>
      <trkpt lat="-25.5480930" lon="-49.0454270">
        <ele>917.8</ele>
        <time>2021-04-17T13:12:37Z</time>
      </trkpt>
      <trkpt lat="-25.5480930" lon="-49.0454270">
        <ele>917.8</ele>
        <time>2021-04-17T13:12:39Z</time>
      </trkpt>
      <trkpt lat="-25.5480930" lon="-49.0454260">
        <ele>917.8</ele>
        <time>2021-04-17T13:12:41Z</time>
      </trkpt>
      <trkpt lat="-25.5480940" lon="-49.0454280">
        <ele>917.8</ele>
        <time>2021-04-17T13:12:43Z</time>
      </trkpt>
      <trkpt lat="-25.5480920" lon="-49.0454450">
        <ele>917.8</ele>
        <time>2021-04-17T13:12:45Z</time>
      </trkpt>
      <trkpt lat="-25.5480920" lon="-49.0454600">
        <ele>917.8</ele>
        <time>2021-04-17T13:12:46Z</time>
      </trkpt>
      <trkpt lat="-25.5480960" lon="-49.0454780">
        <ele>917.6</ele>
        <time>2021-04-17T13:12:47Z</time>
      </trkpt>
      <trkpt lat="-25.5480960" lon="-49.0454980">
        <ele>917.6</ele>
        <time>2021-04-17T13:12:48Z</time>
      </trkpt>
      <trkpt lat="-25.5480900" lon="-49.0455190">
        <ele>917.6</ele>
        <time>2021-04-17T13:12:49Z</time>
      </trkpt>
      <trkpt lat="-25.5480680" lon="-49.0455680">
        <ele>917.6</ele>
        <time>2021-04-17T13:12:51Z</time>
      </trkpt>
      <trkpt lat="-25.5480430" lon="-49.0456250">
        <ele>917.6</ele>
        <time>2021-04-17T13:12:53Z</time>
      </trkpt>
      <trkpt lat="-25.5480180" lon="-49.0456900">
        <ele>917.6</ele>
        <time>2021-04-17T13:12:55Z</time>
      </trkpt>
      <trkpt lat="-25.5479970" lon="-49.0457660">
        <ele>917.6</ele>
        <time>2021-04-17T13:12:57Z</time>
      </trkpt>
      <trkpt lat="-25.5479830" lon="-49.0458070">
        <ele>917.6</ele>
        <time>2021-04-17T13:12:58Z</time>
      </trkpt>
      <trkpt lat="-25.5479690" lon="-49.0458500">
        <ele>917.4</ele>
        <time>2021-04-17T13:12:59Z</time>
      </trkpt>
      <trkpt lat="-25.5479390" lon="-49.0459380">
        <ele>917.4</ele>
        <time>2021-04-17T13:13:01Z</time>
      </trkpt>
      <trkpt lat="-25.5479090" lon="-49.0460250">
        <ele>917.4</ele>
        <time>2021-04-17T13:13:03Z</time>
      </trkpt>
      <trkpt lat="-25.5478930" lon="-49.0460670">
        <ele>917.6</ele>
        <time>2021-04-17T13:13:04Z</time>
      </trkpt>
      <trkpt lat="-25.5478790" lon="-49.0461090">
        <ele>917.4</ele>
        <time>2021-04-17T13:13:05Z</time>
      </trkpt>
      <trkpt lat="-25.5478640" lon="-49.0461520">
        <ele>917.4</ele>
        <time>2021-04-17T13:13:06Z</time>
      </trkpt>
      <trkpt lat="-25.5478480" lon="-49.0461970">
        <ele>917.2</ele>
        <time>2021-04-17T13:13:07Z</time>
      </trkpt>
      <trkpt lat="-25.5478130" lon="-49.0462940">
        <ele>917.2</ele>
        <time>2021-04-17T13:13:09Z</time>
      </trkpt>
      <trkpt lat="-25.5477670" lon="-49.0463870">
        <ele>917.2</ele>
        <time>2021-04-17T13:13:11Z</time>
      </trkpt>
      <trkpt lat="-25.5477450" lon="-49.0464370">
        <ele>917.2</ele>
        <time>2021-04-17T13:13:12Z</time>
      </trkpt>
      <trkpt lat="-25.5477240" lon="-49.0464870">
        <ele>917.2</ele>
        <time>2021-04-17T13:13:13Z</time>
      </trkpt>
      <trkpt lat="-25.5476820" lon="-49.0465880">
        <ele>917.2</ele>
        <time>2021-04-17T13:13:15Z</time>
      </trkpt>
      <trkpt lat="-25.5476380" lon="-49.0466910">
        <ele>917.0</ele>
        <time>2021-04-17T13:13:17Z</time>
      </trkpt>
      <trkpt lat="-25.5475930" lon="-49.0467940">
        <ele>917.0</ele>
        <time>2021-04-17T13:13:19Z</time>
      </trkpt>
      <trkpt lat="-25.5475490" lon="-49.0469010">
        <ele>916.8</ele>
        <time>2021-04-17T13:13:21Z</time>
      </trkpt>
      <trkpt lat="-25.5475260" lon="-49.0469560">
        <ele>916.8</ele>
        <time>2021-04-17T13:13:22Z</time>
      </trkpt>
      <trkpt lat="-25.5475030" lon="-49.0470110">
        <ele>916.6</ele>
        <time>2021-04-17T13:13:23Z</time>
      </trkpt>
      <trkpt lat="-25.5474560" lon="-49.0471240">
        <ele>916.6</ele>
        <time>2021-04-17T13:13:25Z</time>
      </trkpt>
      <trkpt lat="-25.5474040" lon="-49.0472380">
        <ele>916.6</ele>
        <time>2021-04-17T13:13:27Z</time>
      </trkpt>
      <trkpt lat="-25.5473520" lon="-49.0473590">
        <ele>916.4</ele>
        <time>2021-04-17T13:13:29Z</time>
      </trkpt>
      <trkpt lat="-25.5472970" lon="-49.0474830">
        <ele>916.4</ele>
        <time>2021-04-17T13:13:31Z</time>
      </trkpt>
      <trkpt lat="-25.5472430" lon="-49.0476070">
        <ele>916.4</ele>
        <time>2021-04-17T13:13:33Z</time>
      </trkpt>
      <trkpt lat="-25.5471890" lon="-49.0477280">
        <ele>916.2</ele>
        <time>2021-04-17T13:13:35Z</time>
      </trkpt>
      <trkpt lat="-25.5471360" lon="-49.0478500">
        <ele>916.0</ele>
        <time>2021-04-17T13:13:37Z</time>
      </trkpt>
      <trkpt lat="-25.5471100" lon="-49.0479100">
        <ele>916.0</ele>
        <time>2021-04-17T13:13:38Z</time>
      </trkpt>
      <trkpt lat="-25.5470840" lon="-49.0479690">
        <ele>916.0</ele>
        <time>2021-04-17T13:13:39Z</time>
      </trkpt>
      <trkpt lat="-25.5470290" lon="-49.0480880">
        <ele>915.8</ele>
        <time>2021-04-17T13:13:41Z</time>
      </trkpt>
      <trkpt lat="-25.5469760" lon="-49.0482080">
        <ele>915.6</ele>
        <time>2021-04-17T13:13:43Z</time>
      </trkpt>
      <trkpt lat="-25.5469220" lon="-49.0483250">
        <ele>915.6</ele>
        <time>2021-04-17T13:13:45Z</time>
      </trkpt>
      <trkpt lat="-25.5468960" lon="-49.0483840">
        <ele>915.6</ele>
        <time>2021-04-17T13:13:46Z</time>
      </trkpt>
      <trkpt lat="-25.5468700" lon="-49.0484430">
        <ele>915.4</ele>
        <time>2021-04-17T13:13:47Z</time>
      </trkpt>
      <trkpt lat="-25.5468160" lon="-49.0485620">
        <ele>915.4</ele>
        <time>2021-04-17T13:13:49Z</time>
      </trkpt>
      <trkpt lat="-25.5467640" lon="-49.0486820">
        <ele>915.4</ele>
        <time>2021-04-17T13:13:51Z</time>
      </trkpt>
      <trkpt lat="-25.5467130" lon="-49.0488090">
        <ele>915.2</ele>
        <time>2021-04-17T13:13:53Z</time>
      </trkpt>
      <trkpt lat="-25.5466840" lon="-49.0488720">
        <ele>915.2</ele>
        <time>2021-04-17T13:13:54Z</time>
      </trkpt>
      <trkpt lat="-25.5466550" lon="-49.0489360">
        <ele>915.0</ele>
        <time>2021-04-17T13:13:55Z</time>
      </trkpt>
      <trkpt lat="-25.5465950" lon="-49.0490670">
        <ele>915.0</ele>
        <time>2021-04-17T13:13:57Z</time>
      </trkpt>
      <trkpt lat="-25.5465330" lon="-49.0492010">
        <ele>914.8</ele>
        <time>2021-04-17T13:13:59Z</time>
      </trkpt>
      <trkpt lat="-25.5464750" lon="-49.0493390">
        <ele>914.8</ele>
        <time>2021-04-17T13:14:01Z</time>
      </trkpt>
      <trkpt lat="-25.5464140" lon="-49.0494730">
        <ele>914.6</ele>
        <time>2021-04-17T13:14:03Z</time>
      </trkpt>
      <trkpt lat="-25.5463540" lon="-49.0496100">
        <ele>914.6</ele>
        <time>2021-04-17T13:14:05Z</time>
      </trkpt>
      <trkpt lat="-25.5462970" lon="-49.0497460">
        <ele>914.6</ele>
        <time>2021-04-17T13:14:07Z</time>
      </trkpt>
      <trkpt lat="-25.5462700" lon="-49.0498110">
        <ele>914.4</ele>
        <time>2021-04-17T13:14:08Z</time>
      </trkpt>
      <trkpt lat="-25.5462410" lon="-49.0498710">
        <ele>914.4</ele>
        <time>2021-04-17T13:14:09Z</time>
      </trkpt>
      <trkpt lat="-25.5462040" lon="-49.0499220">
        <ele>914.4</ele>
        <time>2021-04-17T13:14:10Z</time>
      </trkpt>
      <trkpt lat="-25.5461590" lon="-49.0499600">
        <ele>914.0</ele>
        <time>2021-04-17T13:14:11Z</time>
      </trkpt>
      <trkpt lat="-25.5461020" lon="-49.0499740">
        <ele>914.0</ele>
        <time>2021-04-17T13:14:12Z</time>
      </trkpt>
      <trkpt lat="-25.5460500" lon="-49.0499660">
        <ele>913.8</ele>
        <time>2021-04-17T13:14:13Z</time>
      </trkpt>
      <trkpt lat="-25.5459780" lon="-49.0499300">
        <ele>913.8</ele>
        <time>2021-04-17T13:14:15Z</time>
      </trkpt>
      <trkpt lat="-25.5459180" lon="-49.0498910">
        <ele>913.8</ele>
        <time>2021-04-17T13:14:17Z</time>
      </trkpt>
      <trkpt lat="-25.5458670" lon="-49.0498580">
        <ele>913.8</ele>
        <time>2021-04-17T13:14:19Z</time>
      </trkpt>
      <trkpt lat="-25.5458440" lon="-49.0498420">
        <ele>913.8</ele>
        <time>2021-04-17T13:14:20Z</time>
      </trkpt>
      <trkpt lat="-25.5458210" lon="-49.0498260">
        <ele>913.8</ele>
        <time>2021-04-17T13:14:21Z</time>
      </trkpt>
      <trkpt lat="-25.5457800" lon="-49.0497960">
        <ele>914.2</ele>
        <time>2021-04-17T13:14:23Z</time>
      </trkpt>
      <trkpt lat="-25.5457420" lon="-49.0497690">
        <ele>914.8</ele>
        <time>2021-04-17T13:14:25Z</time>
      </trkpt>
      <trkpt lat="-25.5457050" lon="-49.0497430">
        <ele>915.4</ele>
        <time>2021-04-17T13:14:27Z</time>
      </trkpt>
      <trkpt lat="-25.5456850" lon="-49.0497320">
        <ele>915.6</ele>
        <time>2021-04-17T13:14:28Z</time>
      </trkpt>
      <trkpt lat="-25.5456650" lon="-49.0497190">
        <ele>915.8</ele>
        <time>2021-04-17T13:14:29Z</time>
      </trkpt>
      <trkpt lat="-25.5456270" lon="-49.0496940">
        <ele>916.2</ele>
        <time>2021-04-17T13:14:31Z</time>
      </trkpt>
      <trkpt lat="-25.5455860" lon="-49.0496680">
        <ele>916.8</ele>
        <time>2021-04-17T13:14:33Z</time>
      </trkpt>
      <trkpt lat="-25.5455470" lon="-49.0496400">
        <ele>917.0</ele>
        <time>2021-04-17T13:14:35Z</time>
      </trkpt>
      <trkpt lat="-25.5455290" lon="-49.0496260">
        <ele>917.2</ele>
        <time>2021-04-17T13:14:36Z</time>
      </trkpt>
      <trkpt lat="-25.5455100" lon="-49.0496120">
        <ele>917.4</ele>
        <time>2021-04-17T13:14:37Z</time>
      </trkpt>
      <trkpt lat="-25.5454710" lon="-49.0495830">
        <ele>917.6</ele>
        <time>2021-04-17T13:14:39Z</time>
      </trkpt>
      <trkpt lat="-25.5454520" lon="-49.0495680">
        <ele>917.8</ele>
        <time>2021-04-17T13:14:40Z</time>
      </trkpt>
      <trkpt lat="-25.5454320" lon="-49.0495520">
        <ele>918.0</ele>
        <time>2021-04-17T13:14:41Z</time>
      </trkpt>
      <trkpt lat="-25.5453930" lon="-49.0495260">
        <ele>918.2</ele>
        <time>2021-04-17T13:14:43Z</time>
      </trkpt>
      <trkpt lat="-25.5453570" lon="-49.0495000">
        <ele>918.4</ele>
        <time>2021-04-17T13:14:45Z</time>
      </trkpt>
      <trkpt lat="-25.5453210" lon="-49.0494750">
        <ele>918.6</ele>
        <time>2021-04-17T13:14:47Z</time>
      </trkpt>
      <trkpt lat="-25.5453030" lon="-49.0494620">
        <ele>918.8</ele>
        <time>2021-04-17T13:14:48Z</time>
      </trkpt>
      <trkpt lat="-25.5452850" lon="-49.0494490">
        <ele>919.0</ele>
        <time>2021-04-17T13:14:49Z</time>
      </trkpt>
      <trkpt lat="-25.5452500" lon="-49.0494260">
        <ele>919.2</ele>
        <time>2021-04-17T13:14:51Z</time>
      </trkpt>
      <trkpt lat="-25.5452160" lon="-49.0494020">
        <ele>919.6</ele>
        <time>2021-04-17T13:14:53Z</time>
      </trkpt>
      <trkpt lat="-25.5451860" lon="-49.0493810">
        <ele>919.8</ele>
        <time>2021-04-17T13:14:55Z</time>
      </trkpt>
      <trkpt lat="-25.5451560" lon="-49.0493580">
        <ele>920.4</ele>
        <time>2021-04-17T13:14:57Z</time>
      </trkpt>
      <trkpt lat="-25.5451240" lon="-49.0493380">
        <ele>920.8</ele>
        <time>2021-04-17T13:14:59Z</time>
      </trkpt>
      <trkpt lat="-25.5450930" lon="-49.0493220">
        <ele>921.0</ele>
        <time>2021-04-17T13:15:01Z</time>
      </trkpt>
      <trkpt lat="-25.5450800" lon="-49.0493150">
        <ele>921.0</ele>
        <time>2021-04-17T13:15:02Z</time>
      </trkpt>
      <trkpt lat="-25.5450660" lon="-49.0493040">
        <ele>921.4</ele>
        <time>2021-04-17T13:15:03Z</time>
      </trkpt>
      <trkpt lat="-25.5450420" lon="-49.0492860">
        <ele>921.6</ele>
        <time>2021-04-17T13:15:05Z</time>
      </trkpt>
      <trkpt lat="-25.5450160" lon="-49.0492670">
        <ele>922.0</ele>
        <time>2021-04-17T13:15:07Z</time>
      </trkpt>
      <trkpt lat="-25.5449940" lon="-49.0492480">
        <ele>922.4</ele>
        <time>2021-04-17T13:15:09Z</time>
      </trkpt>
      <trkpt lat="-25.5449760" lon="-49.0492350">
        <ele>922.8</ele>
        <time>2021-04-17T13:15:11Z</time>
      </trkpt>
      <trkpt lat="-25.5449560" lon="-49.0492180">
        <ele>923.0</ele>
        <time>2021-04-17T13:15:13Z</time>
      </trkpt>
      <trkpt lat="-25.5449320" lon="-49.0492000">
        <ele>923.4</ele>
        <time>2021-04-17T13:15:15Z</time>
      </trkpt>
      <trkpt lat="-25.5449050" lon="-49.0491760">
        <ele>923.8</ele>
        <time>2021-04-17T13:15:17Z</time>
      </trkpt>
      <trkpt lat="-25.5448930" lon="-49.0491690">
        <ele>924.2</ele>
        <time>2021-04-17T13:15:18Z</time>
      </trkpt>
      <trkpt lat="-25.5448810" lon="-49.0491590">
        <ele>924.4</ele>
        <time>2021-04-17T13:15:19Z</time>
      </trkpt>
      <trkpt lat="-25.5448530" lon="-49.0491370">
        <ele>924.8</ele>
        <time>2021-04-17T13:15:21Z</time>
      </trkpt>
      <trkpt lat="-25.5448390" lon="-49.0491280">
        <ele>925.0</ele>
        <time>2021-04-17T13:15:22Z</time>
      </trkpt>
      <trkpt lat="-25.5448290" lon="-49.0491230">
        <ele>925.2</ele>
        <time>2021-04-17T13:15:23Z</time>
      </trkpt>
      <trkpt lat="-25.5448160" lon="-49.0491160">
        <ele>925.4</ele>
        <time>2021-04-17T13:15:24Z</time>
      </trkpt>
      <trkpt lat="-25.5448020" lon="-49.0491060">
        <ele>925.6</ele>
        <time>2021-04-17T13:15:25Z</time>
      </trkpt>
      <trkpt lat="-25.5447740" lon="-49.0490890">
        <ele>926.0</ele>
        <time>2021-04-17T13:15:27Z</time>
      </trkpt>
      <trkpt lat="-25.5447470" lon="-49.0490720">
        <ele>926.6</ele>
        <time>2021-04-17T13:15:29Z</time>
      </trkpt>
      <trkpt lat="-25.5447220" lon="-49.0490520">
        <ele>927.2</ele>
        <time>2021-04-17T13:15:31Z</time>
      </trkpt>
      <trkpt lat="-25.5446990" lon="-49.0490340">
        <ele>927.6</ele>
        <time>2021-04-17T13:15:33Z</time>
      </trkpt>
      <trkpt lat="-25.5446860" lon="-49.0490260">
        <ele>928.0</ele>
        <time>2021-04-17T13:15:34Z</time>
      </trkpt>
      <trkpt lat="-25.5446720" lon="-49.0490170">
        <ele>928.2</ele>
        <time>2021-04-17T13:15:35Z</time>
      </trkpt>
      <trkpt lat="-25.5446440" lon="-49.0489980">
        <ele>928.8</ele>
        <time>2021-04-17T13:15:37Z</time>
      </trkpt>
      <trkpt lat="-25.5446320" lon="-49.0489890">
        <ele>929.0</ele>
        <time>2021-04-17T13:15:38Z</time>
      </trkpt>
      <trkpt lat="-25.5446200" lon="-49.0489800">
        <ele>929.2</ele>
        <time>2021-04-17T13:15:39Z</time>
      </trkpt>
      <trkpt lat="-25.5445950" lon="-49.0489660">
        <ele>930.0</ele>
        <time>2021-04-17T13:15:41Z</time>
      </trkpt>
      <trkpt lat="-25.5445820" lon="-49.0489580">
        <ele>930.2</ele>
        <time>2021-04-17T13:15:42Z</time>
      </trkpt>
      <trkpt lat="-25.5445670" lon="-49.0489530">
        <ele>930.6</ele>
        <time>2021-04-17T13:15:43Z</time>
      </trkpt>
      <trkpt lat="-25.5445420" lon="-49.0489400">
        <ele>931.0</ele>
        <time>2021-04-17T13:15:45Z</time>
      </trkpt>
      <trkpt lat="-25.5445290" lon="-49.0489330">
        <ele>931.0</ele>
        <time>2021-04-17T13:15:46Z</time>
      </trkpt>
      <trkpt lat="-25.5445160" lon="-49.0489230">
        <ele>931.4</ele>
        <time>2021-04-17T13:15:47Z</time>
      </trkpt>
      <trkpt lat="-25.5444930" lon="-49.0489040">
        <ele>931.8</ele>
        <time>2021-04-17T13:15:49Z</time>
      </trkpt>
      <trkpt lat="-25.5444680" lon="-49.0488860">
        <ele>932.2</ele>
        <time>2021-04-17T13:15:51Z</time>
      </trkpt>
      <trkpt lat="-25.5444570" lon="-49.0488790">
        <ele>932.4</ele>
        <time>2021-04-17T13:15:52Z</time>
      </trkpt>
      <trkpt lat="-25.5444450" lon="-49.0488700">
        <ele>932.6</ele>
        <time>2021-04-17T13:15:53Z</time>
      </trkpt>
      <trkpt lat="-25.5444230" lon="-49.0488470">
        <ele>933.0</ele>
        <time>2021-04-17T13:15:55Z</time>
      </trkpt>
      <trkpt lat="-25.5443990" lon="-49.0488330">
        <ele>933.2</ele>
        <time>2021-04-17T13:15:57Z</time>
      </trkpt>
      <trkpt lat="-25.5443720" lon="-49.0488210">
        <ele>933.6</ele>
        <time>2021-04-17T13:15:59Z</time>
      </trkpt>
      <trkpt lat="-25.5443520" lon="-49.0488030">
        <ele>934.0</ele>
        <time>2021-04-17T13:16:01Z</time>
      </trkpt>
      <trkpt lat="-25.5443300" lon="-49.0487850">
        <ele>934.2</ele>
        <time>2021-04-17T13:16:03Z</time>
      </trkpt>
      <trkpt lat="-25.5443020" lon="-49.0487710">
        <ele>934.6</ele>
        <time>2021-04-17T13:16:05Z</time>
      </trkpt>
      <trkpt lat="-25.5442880" lon="-49.0487630">
        <ele>934.6</ele>
        <time>2021-04-17T13:16:06Z</time>
      </trkpt>
      <trkpt lat="-25.5442740" lon="-49.0487550">
        <ele>934.8</ele>
        <time>2021-04-17T13:16:07Z</time>
      </trkpt>
      <trkpt lat="-25.5442480" lon="-49.0487390">
        <ele>935.2</ele>
        <time>2021-04-17T13:16:09Z</time>
      </trkpt>
      <trkpt lat="-25.5442200" lon="-49.0487210">
        <ele>935.4</ele>
        <time>2021-04-17T13:16:11Z</time>
      </trkpt>
      <trkpt lat="-25.5441930" lon="-49.0487010">
        <ele>935.8</ele>
        <time>2021-04-17T13:16:13Z</time>
      </trkpt>
      <trkpt lat="-25.5441800" lon="-49.0486940">
        <ele>935.8</ele>
        <time>2021-04-17T13:16:14Z</time>
      </trkpt>
      <trkpt lat="-25.5441670" lon="-49.0486890">
        <ele>936.0</ele>
        <time>2021-04-17T13:16:15Z</time>
      </trkpt>
      <trkpt lat="-25.5441440" lon="-49.0486750">
        <ele>936.2</ele>
        <time>2021-04-17T13:16:17Z</time>
      </trkpt>
      <trkpt lat="-25.5441220" lon="-49.0486580">
        <ele>936.6</ele>
        <time>2021-04-17T13:16:19Z</time>
      </trkpt>
      <trkpt lat="-25.5441100" lon="-49.0486490">
        <ele>936.8</ele>
        <time>2021-04-17T13:16:20Z</time>
      </trkpt>
      <trkpt lat="-25.5440970" lon="-49.0486390">
        <ele>936.8</ele>
        <time>2021-04-17T13:16:21Z</time>
      </trkpt>
      <trkpt lat="-25.5440830" lon="-49.0486300">
        <ele>937.0</ele>
        <time>2021-04-17T13:16:22Z</time>
      </trkpt>
      <trkpt lat="-25.5440680" lon="-49.0486210">
        <ele>937.0</ele>
        <time>2021-04-17T13:16:23Z</time>
      </trkpt>
      <trkpt lat="-25.5440420" lon="-49.0486020">
        <ele>937.2</ele>
        <time>2021-04-17T13:16:25Z</time>
      </trkpt>
      <trkpt lat="-25.5440150" lon="-49.0485810">
        <ele>937.4</ele>
        <time>2021-04-17T13:16:27Z</time>
      </trkpt>
      <trkpt lat="-25.5440020" lon="-49.0485690">
        <ele>937.4</ele>
        <time>2021-04-17T13:16:28Z</time>
      </trkpt>
      <trkpt lat="-25.5439880" lon="-49.0485580">
        <ele>937.6</ele>
        <time>2021-04-17T13:16:29Z</time>
      </trkpt>
      <trkpt lat="-25.5439600" lon="-49.0485380">
        <ele>937.8</ele>
        <time>2021-04-17T13:16:31Z</time>
      </trkpt>
      <trkpt lat="-25.5439300" lon="-49.0485200">
        <ele>938.0</ele>
        <time>2021-04-17T13:16:33Z</time>
      </trkpt>
      <trkpt lat="-25.5438990" lon="-49.0485060">
        <ele>938.2</ele>
        <time>2021-04-17T13:16:35Z</time>
      </trkpt>
      <trkpt lat="-25.5438850" lon="-49.0484960">
        <ele>938.4</ele>
        <time>2021-04-17T13:16:36Z</time>
      </trkpt>
      <trkpt lat="-25.5438710" lon="-49.0484830">
        <ele>938.4</ele>
        <time>2021-04-17T13:16:37Z</time>
      </trkpt>
      <trkpt lat="-25.5438430" lon="-49.0484620">
        <ele>938.6</ele>
        <time>2021-04-17T13:16:39Z</time>
      </trkpt>
      <trkpt lat="-25.5438110" lon="-49.0484440">
        <ele>939.0</ele>
        <time>2021-04-17T13:16:41Z</time>
      </trkpt>
      <trkpt lat="-25.5437970" lon="-49.0484320">
        <ele>939.0</ele>
        <time>2021-04-17T13:16:42Z</time>
      </trkpt>
      <trkpt lat="-25.5437820" lon="-49.0484210">
        <ele>939.2</ele>
        <time>2021-04-17T13:16:43Z</time>
      </trkpt>
      <trkpt lat="-25.5437510" lon="-49.0484130">
        <ele>939.4</ele>
        <time>2021-04-17T13:16:45Z</time>
      </trkpt>
      <trkpt lat="-25.5437210" lon="-49.0484080">
        <ele>939.8</ele>
        <time>2021-04-17T13:16:47Z</time>
      </trkpt>
      <trkpt lat="-25.5437080" lon="-49.0484010">
        <ele>940.0</ele>
        <time>2021-04-17T13:16:48Z</time>
      </trkpt>
      <trkpt lat="-25.5436960" lon="-49.0483920">
        <ele>940.0</ele>
        <time>2021-04-17T13:16:49Z</time>
      </trkpt>
      <trkpt lat="-25.5436850" lon="-49.0483840">
        <ele>940.2</ele>
        <time>2021-04-17T13:16:50Z</time>
      </trkpt>
      <trkpt lat="-25.5436720" lon="-49.0483780">
        <ele>940.2</ele>
        <time>2021-04-17T13:16:51Z</time>
      </trkpt>
      <trkpt lat="-25.5436460" lon="-49.0483630">
        <ele>940.6</ele>
        <time>2021-04-17T13:16:53Z</time>
      </trkpt>
      <trkpt lat="-25.5436330" lon="-49.0483540">
        <ele>940.6</ele>
        <time>2021-04-17T13:16:54Z</time>
      </trkpt>
      <trkpt lat="-25.5436210" lon="-49.0483430">
        <ele>940.8</ele>
        <time>2021-04-17T13:16:55Z</time>
      </trkpt>
      <trkpt lat="-25.5435970" lon="-49.0483160">
        <ele>941.0</ele>
        <time>2021-04-17T13:16:57Z</time>
      </trkpt>
      <trkpt lat="-25.5435850" lon="-49.0483010">
        <ele>941.4</ele>
        <time>2021-04-17T13:16:58Z</time>
      </trkpt>
      <trkpt lat="-25.5435740" lon="-49.0482860">
        <ele>941.4</ele>
        <time>2021-04-17T13:16:59Z</time>
      </trkpt>
      <trkpt lat="-25.5435530" lon="-49.0482630">
        <ele>941.8</ele>
        <time>2021-04-17T13:17:01Z</time>
      </trkpt>
      <trkpt lat="-25.5435280" lon="-49.0482470">
        <ele>942.0</ele>
        <time>2021-04-17T13:17:03Z</time>
      </trkpt>
      <trkpt lat="-25.5435150" lon="-49.0482380">
        <ele>942.4</ele>
        <time>2021-04-17T13:17:04Z</time>
      </trkpt>
      <trkpt lat="-25.5435010" lon="-49.0482280">
        <ele>942.6</ele>
        <time>2021-04-17T13:17:05Z</time>
      </trkpt>
      <trkpt lat="-25.5434790" lon="-49.0482090">
        <ele>943.0</ele>
        <time>2021-04-17T13:17:07Z</time>
      </trkpt>
      <trkpt lat="-25.5434550" lon="-49.0481900">
        <ele>943.2</ele>
        <time>2021-04-17T13:17:09Z</time>
      </trkpt>
      <trkpt lat="-25.5434420" lon="-49.0481790">
        <ele>943.4</ele>
        <time>2021-04-17T13:17:10Z</time>
      </trkpt>
      <trkpt lat="-25.5434290" lon="-49.0481720">
        <ele>943.6</ele>
        <time>2021-04-17T13:17:11Z</time>
      </trkpt>
      <trkpt lat="-25.5434050" lon="-49.0481670">
        <ele>944.0</ele>
        <time>2021-04-17T13:17:13Z</time>
      </trkpt>
      <trkpt lat="-25.5433830" lon="-49.0481660">
        <ele>944.6</ele>
        <time>2021-04-17T13:17:15Z</time>
      </trkpt>
      <trkpt lat="-25.5433720" lon="-49.0481620">
        <ele>944.8</ele>
        <time>2021-04-17T13:17:16Z</time>
      </trkpt>
      <trkpt lat="-25.5433630" lon="-49.0481540">
        <ele>945.0</ele>
        <time>2021-04-17T13:17:17Z</time>
      </trkpt>
      <trkpt lat="-25.5433480" lon="-49.0481400">
        <ele>945.8</ele>
        <time>2021-04-17T13:17:19Z</time>
      </trkpt>
      <trkpt lat="-25.5433390" lon="-49.0481360">
        <ele>945.8</ele>
        <time>2021-04-17T13:17:20Z</time>
      </trkpt>
      <trkpt lat="-25.5433320" lon="-49.0481280">
        <ele>946.0</ele>
        <time>2021-04-17T13:17:21Z</time>
      </trkpt>
      <trkpt lat="-25.5433180" lon="-49.0481140">
        <ele>946.0</ele>
        <time>2021-04-17T13:17:23Z</time>
      </trkpt>
      <trkpt lat="-25.5433070" lon="-49.0481010">
        <ele>946.4</ele>
        <time>2021-04-17T13:17:25Z</time>
      </trkpt>
      <trkpt lat="-25.5432990" lon="-49.0480860">
        <ele>946.8</ele>
        <time>2021-04-17T13:17:27Z</time>
      </trkpt>
      <trkpt lat="-25.5432900" lon="-49.0480760">
        <ele>946.8</ele>
        <time>2021-04-17T13:17:28Z</time>
      </trkpt>
      <trkpt lat="-25.5432810" lon="-49.0480660">
        <ele>947.0</ele>
        <time>2021-04-17T13:17:29Z</time>
      </trkpt>
      <trkpt lat="-25.5432560" lon="-49.0480480">
        <ele>947.2</ele>
        <time>2021-04-17T13:17:31Z</time>
      </trkpt>
      <trkpt lat="-25.5432310" lon="-49.0480290">
        <ele>947.2</ele>
        <time>2021-04-17T13:17:33Z</time>
      </trkpt>
      <trkpt lat="-25.5432090" lon="-49.0480020">
        <ele>947.4</ele>
        <time>2021-04-17T13:17:35Z</time>
      </trkpt>
      <trkpt lat="-25.5431860" lon="-49.0479720">
        <ele>947.4</ele>
        <time>2021-04-17T13:17:37Z</time>
      </trkpt>
      <trkpt lat="-25.5431500" lon="-49.0479370">
        <ele>947.4</ele>
        <time>2021-04-17T13:17:39Z</time>
      </trkpt>
      <trkpt lat="-25.5430970" lon="-49.0478890">
        <ele>947.4</ele>
        <time>2021-04-17T13:17:41Z</time>
      </trkpt>
      <trkpt lat="-25.5430340" lon="-49.0478210">
        <ele>947.4</ele>
        <time>2021-04-17T13:17:43Z</time>
      </trkpt>
      <trkpt lat="-25.5429590" lon="-49.0477330">
        <ele>947.4</ele>
        <time>2021-04-17T13:17:45Z</time>
      </trkpt>
      <trkpt lat="-25.5429220" lon="-49.0476860">
        <ele>947.4</ele>
        <time>2021-04-17T13:17:46Z</time>
      </trkpt>
      <trkpt lat="-25.5428830" lon="-49.0476390">
        <ele>947.4</ele>
        <time>2021-04-17T13:17:47Z</time>
      </trkpt>
      <trkpt lat="-25.5428010" lon="-49.0475460">
        <ele>947.2</ele>
        <time>2021-04-17T13:17:49Z</time>
      </trkpt>
      <trkpt lat="-25.5427110" lon="-49.0474510">
        <ele>946.8</ele>
        <time>2021-04-17T13:17:51Z</time>
      </trkpt>
      <trkpt lat="-25.5426020" lon="-49.0473450">
        <ele>946.4</ele>
        <time>2021-04-17T13:17:53Z</time>
      </trkpt>
      <trkpt lat="-25.5425370" lon="-49.0472950">
        <ele>946.0</ele>
        <time>2021-04-17T13:17:54Z</time>
      </trkpt>
      <trkpt lat="-25.5424660" lon="-49.0472510">
        <ele>945.6</ele>
        <time>2021-04-17T13:17:55Z</time>
      </trkpt>
      <trkpt lat="-25.5423190" lon="-49.0471760">
        <ele>944.8</ele>
        <time>2021-04-17T13:17:57Z</time>
      </trkpt>
      <trkpt lat="-25.5421770" lon="-49.0471140">
        <ele>944.6</ele>
        <time>2021-04-17T13:17:59Z</time>
      </trkpt>
      <trkpt lat="-25.5420430" lon="-49.0470670">
        <ele>943.6</ele>
        <time>2021-04-17T13:18:01Z</time>
      </trkpt>
      <trkpt lat="-25.5419810" lon="-49.0470520">
        <ele>943.2</ele>
        <time>2021-04-17T13:18:02Z</time>
      </trkpt>
      <trkpt lat="-25.5419220" lon="-49.0470340">
        <ele>942.6</ele>
        <time>2021-04-17T13:18:03Z</time>
      </trkpt>
      <trkpt lat="-25.5418660" lon="-49.0470170">
        <ele>942.2</ele>
        <time>2021-04-17T13:18:04Z</time>
      </trkpt>
      <trkpt lat="-25.5418150" lon="-49.0469980">
        <ele>942.0</ele>
        <time>2021-04-17T13:18:05Z</time>
      </trkpt>
      <trkpt lat="-25.5417240" lon="-49.0469700">
        <ele>941.8</ele>
        <time>2021-04-17T13:18:07Z</time>
      </trkpt>
      <trkpt lat="-25.5416470" lon="-49.0469500">
        <ele>941.8</ele>
        <time>2021-04-17T13:18:09Z</time>
      </trkpt>
      <trkpt lat="-25.5415850" lon="-49.0469320">
        <ele>941.8</ele>
        <time>2021-04-17T13:18:11Z</time>
      </trkpt>
      <trkpt lat="-25.5415370" lon="-49.0469170">
        <ele>942.0</ele>
        <time>2021-04-17T13:18:13Z</time>
      </trkpt>
      <trkpt lat="-25.5414900" lon="-49.0468950">
        <ele>942.4</ele>
        <time>2021-04-17T13:18:15Z</time>
      </trkpt>
      <trkpt lat="-25.5414410" lon="-49.0468760">
        <ele>943.0</ele>
        <time>2021-04-17T13:18:17Z</time>
      </trkpt>
      <trkpt lat="-25.5413860" lon="-49.0468600">
        <ele>943.4</ele>
        <time>2021-04-17T13:18:19Z</time>
      </trkpt>
      <trkpt lat="-25.5413550" lon="-49.0468480">
        <ele>943.6</ele>
        <time>2021-04-17T13:18:20Z</time>
      </trkpt>
      <trkpt lat="-25.5413260" lon="-49.0468340">
        <ele>944.0</ele>
        <time>2021-04-17T13:18:21Z</time>
      </trkpt>
      <trkpt lat="-25.5412670" lon="-49.0468110">
        <ele>944.4</ele>
        <time>2021-04-17T13:18:23Z</time>
      </trkpt>
      <trkpt lat="-25.5412080" lon="-49.0467910">
        <ele>944.6</ele>
        <time>2021-04-17T13:18:25Z</time>
      </trkpt>
      <trkpt lat="-25.5411480" lon="-49.0467740">
        <ele>945.0</ele>
        <time>2021-04-17T13:18:27Z</time>
      </trkpt>
      <trkpt lat="-25.5411190" lon="-49.0467630">
        <ele>945.2</ele>
        <time>2021-04-17T13:18:28Z</time>
      </trkpt>
      <trkpt lat="-25.5410890" lon="-49.0467530">
        <ele>945.2</ele>
        <time>2021-04-17T13:18:29Z</time>
      </trkpt>
      <trkpt lat="-25.5410290" lon="-49.0467320">
        <ele>945.4</ele>
        <time>2021-04-17T13:18:31Z</time>
      </trkpt>
      <trkpt lat="-25.5409660" lon="-49.0467090">
        <ele>945.6</ele>
        <time>2021-04-17T13:18:33Z</time>
      </trkpt>
      <trkpt lat="-25.5409030" lon="-49.0466890">
        <ele>946.0</ele>
        <time>2021-04-17T13:18:35Z</time>
      </trkpt>
      <trkpt lat="-25.5408400" lon="-49.0466710">
        <ele>946.2</ele>
        <time>2021-04-17T13:18:37Z</time>
      </trkpt>
      <trkpt lat="-25.5408090" lon="-49.0466600">
        <ele>946.4</ele>
        <time>2021-04-17T13:18:38Z</time>
      </trkpt>
      <trkpt lat="-25.5407770" lon="-49.0466510">
        <ele>946.4</ele>
        <time>2021-04-17T13:18:39Z</time>
      </trkpt>
      <trkpt lat="-25.5407460" lon="-49.0466400">
        <ele>946.4</ele>
        <time>2021-04-17T13:18:40Z</time>
      </trkpt>
      <trkpt lat="-25.5407140" lon="-49.0466290">
        <ele>946.6</ele>
        <time>2021-04-17T13:18:41Z</time>
      </trkpt>
      <trkpt lat="-25.5406510" lon="-49.0466040">
        <ele>946.8</ele>
        <time>2021-04-17T13:18:43Z</time>
      </trkpt>
      <trkpt lat="-25.5405880" lon="-49.0465810">
        <ele>947.2</ele>
        <time>2021-04-17T13:18:45Z</time>
      </trkpt>
      <trkpt lat="-25.5405240" lon="-49.0465610">
        <ele>947.2</ele>
        <time>2021-04-17T13:18:47Z</time>
      </trkpt>
      <trkpt lat="-25.5404650" lon="-49.0465440">
        <ele>947.4</ele>
        <time>2021-04-17T13:18:49Z</time>
      </trkpt>
      <trkpt lat="-25.5404380" lon="-49.0465340">
        <ele>947.6</ele>
        <time>2021-04-17T13:18:50Z</time>
      </trkpt>
      <trkpt lat="-25.5404110" lon="-49.0465270">
        <ele>947.8</ele>
        <time>2021-04-17T13:18:51Z</time>
      </trkpt>
      <trkpt lat="-25.5403570" lon="-49.0465110">
        <ele>948.0</ele>
        <time>2021-04-17T13:18:53Z</time>
      </trkpt>
      <trkpt lat="-25.5403060" lon="-49.0464910">
        <ele>948.2</ele>
        <time>2021-04-17T13:18:55Z</time>
      </trkpt>
      <trkpt lat="-25.5402840" lon="-49.0464830">
        <ele>948.4</ele>
        <time>2021-04-17T13:18:56Z</time>
      </trkpt>
      <trkpt lat="-25.5402590" lon="-49.0464760">
        <ele>948.6</ele>
        <time>2021-04-17T13:18:57Z</time>
      </trkpt>
      <trkpt lat="-25.5402310" lon="-49.0464670">
        <ele>948.6</ele>
        <time>2021-04-17T13:18:58Z</time>
      </trkpt>
      <trkpt lat="-25.5401960" lon="-49.0464570">
        <ele>948.8</ele>
        <time>2021-04-17T13:18:59Z</time>
      </trkpt>
      <trkpt lat="-25.5401210" lon="-49.0464530">
        <ele>949.2</ele>
        <time>2021-04-17T13:19:01Z</time>
      </trkpt>
      <trkpt lat="-25.5400490" lon="-49.0464770">
        <ele>949.2</ele>
        <time>2021-04-17T13:19:03Z</time>
      </trkpt>
      <trkpt lat="-25.5399940" lon="-49.0465410">
        <ele>949.2</ele>
        <time>2021-04-17T13:19:05Z</time>
      </trkpt>
      <trkpt lat="-25.5399530" lon="-49.0466310">
        <ele>949.2</ele>
        <time>2021-04-17T13:19:07Z</time>
      </trkpt>
      <trkpt lat="-25.5399110" lon="-49.0467450">
        <ele>949.2</ele>
        <time>2021-04-17T13:19:09Z</time>
      </trkpt>
      <trkpt lat="-25.5398890" lon="-49.0468050">
        <ele>949.2</ele>
        <time>2021-04-17T13:19:10Z</time>
      </trkpt>
      <trkpt lat="-25.5398660" lon="-49.0468710">
        <ele>949.2</ele>
        <time>2021-04-17T13:19:11Z</time>
      </trkpt>
      <trkpt lat="-25.5398460" lon="-49.0469400">
        <ele>949.2</ele>
        <time>2021-04-17T13:19:13Z</time>
      </trkpt>
      <trkpt lat="-25.5398020" lon="-49.0470780">
        <ele>948.6</ele>
        <time>2021-04-17T13:19:15Z</time>
      </trkpt>
      <trkpt lat="-25.5397340" lon="-49.0472850">
        <ele>948.4</ele>
        <time>2021-04-17T13:19:17Z</time>
      </trkpt>
      <trkpt lat="-25.5397160" lon="-49.0473500">
        <ele>948.2</ele>
        <time>2021-04-17T13:19:18Z</time>
      </trkpt>
      <trkpt lat="-25.5396980" lon="-49.0474120">
        <ele>948.0</ele>
        <time>2021-04-17T13:19:19Z</time>
      </trkpt>
      <trkpt lat="-25.5396790" lon="-49.0474550">
        <ele>947.6</ele>
        <time>2021-04-17T13:19:20Z</time>
      </trkpt>
      <trkpt lat="-25.5396590" lon="-49.0474980">
        <ele>947.4</ele>
        <time>2021-04-17T13:19:21Z</time>
      </trkpt>
      <trkpt lat="-25.5396200" lon="-49.0475830">
        <ele>947.4</ele>
        <time>2021-04-17T13:19:22Z</time>
      </trkpt>
      <trkpt lat="-25.5395710" lon="-49.0476270">
        <ele>947.2</ele>
        <time>2021-04-17T13:19:23Z</time>
      </trkpt>
      <trkpt lat="-25.5395140" lon="-49.0476580">
        <ele>947.0</ele>
        <time>2021-04-17T13:19:24Z</time>
      </trkpt>
      <trkpt lat="-25.5394490" lon="-49.0476690">
        <ele>947.0</ele>
        <time>2021-04-17T13:19:25Z</time>
      </trkpt>
      <trkpt lat="-25.5393150" lon="-49.0476580">
        <ele>946.8</ele>
        <time>2021-04-17T13:19:27Z</time>
      </trkpt>
      <trkpt lat="-25.5392440" lon="-49.0476430">
        <ele>946.8</ele>
        <time>2021-04-17T13:19:28Z</time>
      </trkpt>
      <trkpt lat="-25.5391720" lon="-49.0476220">
        <ele>946.6</ele>
        <time>2021-04-17T13:19:29Z</time>
      </trkpt>
      <trkpt lat="-25.5390110" lon="-49.0475580">
        <ele>946.6</ele>
        <time>2021-04-17T13:19:31Z</time>
      </trkpt>
      <trkpt lat="-25.5388360" lon="-49.0474780">
        <ele>946.4</ele>
        <time>2021-04-17T13:19:33Z</time>
      </trkpt>
      <trkpt lat="-25.5386520" lon="-49.0474170">
        <ele>946.4</ele>
        <time>2021-04-17T13:19:35Z</time>
      </trkpt>
      <trkpt lat="-25.5385650" lon="-49.0473890">
        <ele>946.4</ele>
        <time>2021-04-17T13:19:36Z</time>
      </trkpt>
      <trkpt lat="-25.5384830" lon="-49.0473640">
        <ele>946.2</ele>
        <time>2021-04-17T13:19:37Z</time>
      </trkpt>
      <trkpt lat="-25.5383310" lon="-49.0473090">
        <ele>945.2</ele>
        <time>2021-04-17T13:19:39Z</time>
      </trkpt>
      <trkpt lat="-25.5381890" lon="-49.0472590">
        <ele>943.8</ele>
        <time>2021-04-17T13:19:41Z</time>
      </trkpt>
      <trkpt lat="-25.5380500" lon="-49.0472140">
        <ele>943.0</ele>
        <time>2021-04-17T13:19:43Z</time>
      </trkpt>
      <trkpt lat="-25.5379190" lon="-49.0471760">
        <ele>942.8</ele>
        <time>2021-04-17T13:19:45Z</time>
      </trkpt>
      <trkpt lat="-25.5378030" lon="-49.0471380">
        <ele>942.6</ele>
        <time>2021-04-17T13:19:47Z</time>
      </trkpt>
      <trkpt lat="-25.5377150" lon="-49.0471070">
        <ele>942.6</ele>
        <time>2021-04-17T13:19:49Z</time>
      </trkpt>
      <trkpt lat="-25.5376460" lon="-49.0470820">
        <ele>942.6</ele>
        <time>2021-04-17T13:19:51Z</time>
      </trkpt>
      <trkpt lat="-25.5375930" lon="-49.0470590">
        <ele>942.8</ele>
        <time>2021-04-17T13:19:53Z</time>
      </trkpt>
      <trkpt lat="-25.5375420" lon="-49.0470420">
        <ele>943.0</ele>
        <time>2021-04-17T13:19:55Z</time>
      </trkpt>
      <trkpt lat="-25.5374820" lon="-49.0470250">
        <ele>943.6</ele>
        <time>2021-04-17T13:19:57Z</time>
      </trkpt>
      <trkpt lat="-25.5374510" lon="-49.0470130">
        <ele>944.2</ele>
        <time>2021-04-17T13:19:58Z</time>
      </trkpt>
      <trkpt lat="-25.5374190" lon="-49.0470010">
        <ele>944.6</ele>
        <time>2021-04-17T13:19:59Z</time>
      </trkpt>
      <trkpt lat="-25.5373530" lon="-49.0469750">
        <ele>945.2</ele>
        <time>2021-04-17T13:20:01Z</time>
      </trkpt>
      <trkpt lat="-25.5372850" lon="-49.0469440">
        <ele>945.8</ele>
        <time>2021-04-17T13:20:03Z</time>
      </trkpt>
      <trkpt lat="-25.5372510" lon="-49.0469310">
        <ele>946.2</ele>
        <time>2021-04-17T13:20:04Z</time>
      </trkpt>
      <trkpt lat="-25.5372140" lon="-49.0469180">
        <ele>946.4</ele>
        <time>2021-04-17T13:20:05Z</time>
      </trkpt>
      <trkpt lat="-25.5371360" lon="-49.0468910">
        <ele>946.6</ele>
        <time>2021-04-17T13:20:07Z</time>
      </trkpt>
      <trkpt lat="-25.5370610" lon="-49.0468610">
        <ele>946.8</ele>
        <time>2021-04-17T13:20:09Z</time>
      </trkpt>
      <trkpt lat="-25.5369760" lon="-49.0468310">
        <ele>947.0</ele>
        <time>2021-04-17T13:20:11Z</time>
      </trkpt>
      <trkpt lat="-25.5369020" lon="-49.0468160">
        <ele>947.2</ele>
        <time>2021-04-17T13:20:13Z</time>
      </trkpt>
      <trkpt lat="-25.5368270" lon="-49.0467960">
        <ele>947.2</ele>
        <time>2021-04-17T13:20:15Z</time>
      </trkpt>
      <trkpt lat="-25.5367430" lon="-49.0467690">
        <ele>947.2</ele>
        <time>2021-04-17T13:20:17Z</time>
      </trkpt>
      <trkpt lat="-25.5366550" lon="-49.0467300">
        <ele>947.4</ele>
        <time>2021-04-17T13:20:19Z</time>
      </trkpt>
      <trkpt lat="-25.5365660" lon="-49.0466960">
        <ele>947.4</ele>
        <time>2021-04-17T13:20:21Z</time>
      </trkpt>
      <trkpt lat="-25.5364820" lon="-49.0466670">
        <ele>947.4</ele>
        <time>2021-04-17T13:20:23Z</time>
      </trkpt>
      <trkpt lat="-25.5364400" lon="-49.0466570">
        <ele>947.4</ele>
        <time>2021-04-17T13:20:24Z</time>
      </trkpt>
      <trkpt lat="-25.5364000" lon="-49.0466420">
        <ele>947.6</ele>
        <time>2021-04-17T13:20:25Z</time>
      </trkpt>
      <trkpt lat="-25.5363230" lon="-49.0466110">
        <ele>947.6</ele>
        <time>2021-04-17T13:20:27Z</time>
      </trkpt>
      <trkpt lat="-25.5362420" lon="-49.0465870">
        <ele>947.8</ele>
        <time>2021-04-17T13:20:29Z</time>
      </trkpt>
      <trkpt lat="-25.5361550" lon="-49.0465590">
        <ele>947.8</ele>
        <time>2021-04-17T13:20:31Z</time>
      </trkpt>
      <trkpt lat="-25.5361050" lon="-49.0465430">
        <ele>948.0</ele>
        <time>2021-04-17T13:20:32Z</time>
      </trkpt>
      <trkpt lat="-25.5360520" lon="-49.0465330">
        <ele>948.0</ele>
        <time>2021-04-17T13:20:33Z</time>
      </trkpt>
      <trkpt lat="-25.5359960" lon="-49.0465160">
        <ele>948.0</ele>
        <time>2021-04-17T13:20:34Z</time>
      </trkpt>
      <trkpt lat="-25.5359350" lon="-49.0464920">
        <ele>948.0</ele>
        <time>2021-04-17T13:20:35Z</time>
      </trkpt>
      <trkpt lat="-25.5357990" lon="-49.0464390">
        <ele>948.0</ele>
        <time>2021-04-17T13:20:37Z</time>
      </trkpt>
      <trkpt lat="-25.5356460" lon="-49.0463860">
        <ele>948.0</ele>
        <time>2021-04-17T13:20:39Z</time>
      </trkpt>
      <trkpt lat="-25.5354790" lon="-49.0463350">
        <ele>948.0</ele>
        <time>2021-04-17T13:20:41Z</time>
      </trkpt>
      <trkpt lat="-25.5353990" lon="-49.0463170">
        <ele>947.8</ele>
        <time>2021-04-17T13:20:42Z</time>
      </trkpt>
      <trkpt lat="-25.5353220" lon="-49.0462960">
        <ele>947.6</ele>
        <time>2021-04-17T13:20:43Z</time>
      </trkpt>
      <trkpt lat="-25.5351690" lon="-49.0462470">
        <ele>946.6</ele>
        <time>2021-04-17T13:20:45Z</time>
      </trkpt>
      <trkpt lat="-25.5350980" lon="-49.0462240">
        <ele>946.2</ele>
        <time>2021-04-17T13:20:46Z</time>
      </trkpt>
      <trkpt lat="-25.5350310" lon="-49.0462000">
        <ele>945.4</ele>
        <time>2021-04-17T13:20:47Z</time>
      </trkpt>
      <trkpt lat="-25.5349120" lon="-49.0461570">
        <ele>944.8</ele>
        <time>2021-04-17T13:20:49Z</time>
      </trkpt>
      <trkpt lat="-25.5348120" lon="-49.0461190">
        <ele>944.6</ele>
        <time>2021-04-17T13:20:51Z</time>
      </trkpt>
      <trkpt lat="-25.5347670" lon="-49.0461030">
        <ele>944.4</ele>
        <time>2021-04-17T13:20:52Z</time>
      </trkpt>
      <trkpt lat="-25.5347210" lon="-49.0460900">
        <ele>944.4</ele>
        <time>2021-04-17T13:20:53Z</time>
      </trkpt>
      <trkpt lat="-25.5346290" lon="-49.0460610">
        <ele>944.4</ele>
        <time>2021-04-17T13:20:55Z</time>
      </trkpt>
      <trkpt lat="-25.5345250" lon="-49.0460200">
        <ele>944.4</ele>
        <time>2021-04-17T13:20:57Z</time>
      </trkpt>
      <trkpt lat="-25.5344720" lon="-49.0460020">
        <ele>944.4</ele>
        <time>2021-04-17T13:20:58Z</time>
      </trkpt>
      <trkpt lat="-25.5344200" lon="-49.0459810">
        <ele>944.6</ele>
        <time>2021-04-17T13:20:59Z</time>
      </trkpt>
      <trkpt lat="-25.5343150" lon="-49.0459400">
        <ele>944.6</ele>
        <time>2021-04-17T13:21:01Z</time>
      </trkpt>
      <trkpt lat="-25.5342100" lon="-49.0459040">
        <ele>944.8</ele>
        <time>2021-04-17T13:21:03Z</time>
      </trkpt>
      <trkpt lat="-25.5341150" lon="-49.0458730">
        <ele>944.8</ele>
        <time>2021-04-17T13:21:05Z</time>
      </trkpt>
      <trkpt lat="-25.5340330" lon="-49.0458460">
        <ele>944.8</ele>
        <time>2021-04-17T13:21:07Z</time>
      </trkpt>
      <trkpt lat="-25.5339520" lon="-49.0458180">
        <ele>944.8</ele>
        <time>2021-04-17T13:21:09Z</time>
      </trkpt>
      <trkpt lat="-25.5339070" lon="-49.0458010">
        <ele>945.0</ele>
        <time>2021-04-17T13:21:10Z</time>
      </trkpt>
      <trkpt lat="-25.5338640" lon="-49.0457870">
        <ele>945.0</ele>
        <time>2021-04-17T13:21:11Z</time>
      </trkpt>
      <trkpt lat="-25.5337700" lon="-49.0457520">
        <ele>945.0</ele>
        <time>2021-04-17T13:21:13Z</time>
      </trkpt>
      <trkpt lat="-25.5336700" lon="-49.0457160">
        <ele>945.0</ele>
        <time>2021-04-17T13:21:15Z</time>
      </trkpt>
      <trkpt lat="-25.5336190" lon="-49.0456950">
        <ele>945.0</ele>
        <time>2021-04-17T13:21:16Z</time>
      </trkpt>
      <trkpt lat="-25.5335690" lon="-49.0456690">
        <ele>945.0</ele>
        <time>2021-04-17T13:21:17Z</time>
      </trkpt>
      <trkpt lat="-25.5334660" lon="-49.0456270">
        <ele>945.0</ele>
        <time>2021-04-17T13:21:19Z</time>
      </trkpt>
      <trkpt lat="-25.5333500" lon="-49.0455840">
        <ele>945.0</ele>
        <time>2021-04-17T13:21:21Z</time>
      </trkpt>
      <trkpt lat="-25.5332890" lon="-49.0455670">
        <ele>945.0</ele>
        <time>2021-04-17T13:21:22Z</time>
      </trkpt>
      <trkpt lat="-25.5332270" lon="-49.0455460">
        <ele>945.0</ele>
        <time>2021-04-17T13:21:23Z</time>
      </trkpt>
      <trkpt lat="-25.5331210" lon="-49.0455070">
        <ele>944.6</ele>
        <time>2021-04-17T13:21:25Z</time>
      </trkpt>
      <trkpt lat="-25.5330670" lon="-49.0454910">
        <ele>944.2</ele>
        <time>2021-04-17T13:21:26Z</time>
      </trkpt>
      <trkpt lat="-25.5330100" lon="-49.0454740">
        <ele>943.8</ele>
        <time>2021-04-17T13:21:27Z</time>
      </trkpt>
      <trkpt lat="-25.5329500" lon="-49.0454510">
        <ele>943.4</ele>
        <time>2021-04-17T13:21:28Z</time>
      </trkpt>
      <trkpt lat="-25.5328900" lon="-49.0454260">
        <ele>943.2</ele>
        <time>2021-04-17T13:21:29Z</time>
      </trkpt>
      <trkpt lat="-25.5327610" lon="-49.0453730">
        <ele>942.8</ele>
        <time>2021-04-17T13:21:31Z</time>
      </trkpt>
      <trkpt lat="-25.5327230" lon="-49.0453590">
        <ele>942.8</ele>
        <time>2021-04-17T13:21:32Z</time>
      </trkpt>
      <trkpt lat="-25.5326850" lon="-49.0453450">
        <ele>942.6</ele>
        <time>2021-04-17T13:21:33Z</time>
      </trkpt>
      <trkpt lat="-25.5325320" lon="-49.0452880">
        <ele>942.6</ele>
        <time>2021-04-17T13:21:35Z</time>
      </trkpt>
      <trkpt lat="-25.5324700" lon="-49.0452690">
        <ele>942.6</ele>
        <time>2021-04-17T13:21:36Z</time>
      </trkpt>
      <trkpt lat="-25.5324050" lon="-49.0452470">
        <ele>942.4</ele>
        <time>2021-04-17T13:21:37Z</time>
      </trkpt>
      <trkpt lat="-25.5322780" lon="-49.0452080">
        <ele>941.6</ele>
        <time>2021-04-17T13:21:39Z</time>
      </trkpt>
      <trkpt lat="-25.5321440" lon="-49.0451540">
        <ele>941.0</ele>
        <time>2021-04-17T13:21:41Z</time>
      </trkpt>
      <trkpt lat="-25.5320160" lon="-49.0451100">
        <ele>940.8</ele>
        <time>2021-04-17T13:21:43Z</time>
      </trkpt>
      <trkpt lat="-25.5319510" lon="-49.0450850">
        <ele>940.6</ele>
        <time>2021-04-17T13:21:44Z</time>
      </trkpt>
      <trkpt lat="-25.5318840" lon="-49.0450650">
        <ele>940.6</ele>
        <time>2021-04-17T13:21:45Z</time>
      </trkpt>
      <trkpt lat="-25.5317650" lon="-49.0450320">
        <ele>940.6</ele>
        <time>2021-04-17T13:21:47Z</time>
      </trkpt>
      <trkpt lat="-25.5316510" lon="-49.0449950">
        <ele>940.6</ele>
        <time>2021-04-17T13:21:49Z</time>
      </trkpt>
      <trkpt lat="-25.5315280" lon="-49.0449560">
        <ele>940.6</ele>
        <time>2021-04-17T13:21:51Z</time>
      </trkpt>
      <trkpt lat="-25.5313900" lon="-49.0449090">
        <ele>940.6</ele>
        <time>2021-04-17T13:21:53Z</time>
      </trkpt>
      <trkpt lat="-25.5313170" lon="-49.0448840">
        <ele>940.6</ele>
        <time>2021-04-17T13:21:54Z</time>
      </trkpt>
      <trkpt lat="-25.5312440" lon="-49.0448620">
        <ele>940.6</ele>
        <time>2021-04-17T13:21:55Z</time>
      </trkpt>
      <trkpt lat="-25.5311020" lon="-49.0448160">
        <ele>940.4</ele>
        <time>2021-04-17T13:21:57Z</time>
      </trkpt>
      <trkpt lat="-25.5309640" lon="-49.0447760">
        <ele>940.4</ele>
        <time>2021-04-17T13:21:59Z</time>
      </trkpt>
      <trkpt lat="-25.5308410" lon="-49.0447360">
        <ele>940.2</ele>
        <time>2021-04-17T13:22:01Z</time>
      </trkpt>
      <trkpt lat="-25.5307840" lon="-49.0447160">
        <ele>940.0</ele>
        <time>2021-04-17T13:22:02Z</time>
      </trkpt>
      <trkpt lat="-25.5307320" lon="-49.0446980">
        <ele>939.6</ele>
        <time>2021-04-17T13:22:03Z</time>
      </trkpt>
      <trkpt lat="-25.5306280" lon="-49.0446670">
        <ele>939.2</ele>
        <time>2021-04-17T13:22:05Z</time>
      </trkpt>
      <trkpt lat="-25.5305260" lon="-49.0446330">
        <ele>939.0</ele>
        <time>2021-04-17T13:22:07Z</time>
      </trkpt>
      <trkpt lat="-25.5304240" lon="-49.0445990">
        <ele>939.0</ele>
        <time>2021-04-17T13:22:09Z</time>
      </trkpt>
      <trkpt lat="-25.5303290" lon="-49.0445650">
        <ele>939.0</ele>
        <time>2021-04-17T13:22:11Z</time>
      </trkpt>
      <trkpt lat="-25.5302360" lon="-49.0445340">
        <ele>939.0</ele>
        <time>2021-04-17T13:22:13Z</time>
      </trkpt>
      <trkpt lat="-25.5301400" lon="-49.0445010">
        <ele>939.0</ele>
        <time>2021-04-17T13:22:15Z</time>
      </trkpt>
      <trkpt lat="-25.5300340" lon="-49.0444680">
        <ele>939.0</ele>
        <time>2021-04-17T13:22:17Z</time>
      </trkpt>
      <trkpt lat="-25.5299290" lon="-49.0444360">
        <ele>939.2</ele>
        <time>2021-04-17T13:22:19Z</time>
      </trkpt>
      <trkpt lat="-25.5298780" lon="-49.0444190">
        <ele>939.4</ele>
        <time>2021-04-17T13:22:20Z</time>
      </trkpt>
      <trkpt lat="-25.5298260" lon="-49.0444000">
        <ele>939.4</ele>
        <time>2021-04-17T13:22:21Z</time>
      </trkpt>
      <trkpt lat="-25.5297230" lon="-49.0443660">
        <ele>939.4</ele>
        <time>2021-04-17T13:22:23Z</time>
      </trkpt>
      <trkpt lat="-25.5296230" lon="-49.0443330">
        <ele>939.6</ele>
        <time>2021-04-17T13:22:25Z</time>
      </trkpt>
      <trkpt lat="-25.5295160" lon="-49.0442930">
        <ele>939.6</ele>
        <time>2021-04-17T13:22:27Z</time>
      </trkpt>
      <trkpt lat="-25.5293840" lon="-49.0442500">
        <ele>939.6</ele>
        <time>2021-04-17T13:22:29Z</time>
      </trkpt>
      <trkpt lat="-25.5292450" lon="-49.0442060">
        <ele>939.4</ele>
        <time>2021-04-17T13:22:31Z</time>
      </trkpt>
      <trkpt lat="-25.5291750" lon="-49.0441860">
        <ele>939.4</ele>
        <time>2021-04-17T13:22:32Z</time>
      </trkpt>
      <trkpt lat="-25.5291070" lon="-49.0441600">
        <ele>939.0</ele>
        <time>2021-04-17T13:22:33Z</time>
      </trkpt>
      <trkpt lat="-25.5290410" lon="-49.0441340">
        <ele>938.8</ele>
        <time>2021-04-17T13:22:34Z</time>
      </trkpt>
      <trkpt lat="-25.5289750" lon="-49.0441140">
        <ele>938.6</ele>
        <time>2021-04-17T13:22:35Z</time>
      </trkpt>
      <trkpt lat="-25.5288460" lon="-49.0440930">
        <ele>938.0</ele>
        <time>2021-04-17T13:22:37Z</time>
      </trkpt>
      <trkpt lat="-25.5287830" lon="-49.0440990">
        <ele>937.4</ele>
        <time>2021-04-17T13:22:38Z</time>
      </trkpt>
      <trkpt lat="-25.5287110" lon="-49.0441080">
        <ele>937.0</ele>
        <time>2021-04-17T13:22:39Z</time>
      </trkpt>
      <trkpt lat="-25.5285510" lon="-49.0441300">
        <ele>936.6</ele>
        <time>2021-04-17T13:22:41Z</time>
      </trkpt>
      <trkpt lat="-25.5284680" lon="-49.0441520">
        <ele>936.4</ele>
        <time>2021-04-17T13:22:42Z</time>
      </trkpt>
      <trkpt lat="-25.5283880" lon="-49.0441740">
        <ele>936.2</ele>
        <time>2021-04-17T13:22:43Z</time>
      </trkpt>
      <trkpt lat="-25.5282300" lon="-49.0442200">
        <ele>936.0</ele>
        <time>2021-04-17T13:22:45Z</time>
      </trkpt>
      <trkpt lat="-25.5281540" lon="-49.0442420">
        <ele>935.8</ele>
        <time>2021-04-17T13:22:46Z</time>
      </trkpt>
      <trkpt lat="-25.5280790" lon="-49.0442610">
        <ele>935.8</ele>
        <time>2021-04-17T13:22:47Z</time>
      </trkpt>
      <trkpt lat="-25.5279490" lon="-49.0442840">
        <ele>934.0</ele>
        <time>2021-04-17T13:22:49Z</time>
      </trkpt>
      <trkpt lat="-25.5278380" lon="-49.0442980">
        <ele>933.4</ele>
        <time>2021-04-17T13:22:51Z</time>
      </trkpt>
      <trkpt lat="-25.5277360" lon="-49.0443150">
        <ele>933.2</ele>
        <time>2021-04-17T13:22:53Z</time>
      </trkpt>
      <trkpt lat="-25.5276380" lon="-49.0443240">
        <ele>933.2</ele>
        <time>2021-04-17T13:22:55Z</time>
      </trkpt>
      <trkpt lat="-25.5275880" lon="-49.0443180">
        <ele>933.2</ele>
        <time>2021-04-17T13:22:56Z</time>
      </trkpt>
      <trkpt lat="-25.5275340" lon="-49.0443090">
        <ele>933.2</ele>
        <time>2021-04-17T13:22:57Z</time>
      </trkpt>
      <trkpt lat="-25.5274250" lon="-49.0442840">
        <ele>933.2</ele>
        <time>2021-04-17T13:22:59Z</time>
      </trkpt>
      <trkpt lat="-25.5273070" lon="-49.0442580">
        <ele>933.2</ele>
        <time>2021-04-17T13:23:01Z</time>
      </trkpt>
      <trkpt lat="-25.5271770" lon="-49.0442330">
        <ele>933.2</ele>
        <time>2021-04-17T13:23:03Z</time>
      </trkpt>
      <trkpt lat="-25.5270360" lon="-49.0442010">
        <ele>933.2</ele>
        <time>2021-04-17T13:23:05Z</time>
      </trkpt>
      <trkpt lat="-25.5268980" lon="-49.0441600">
        <ele>933.2</ele>
        <time>2021-04-17T13:23:07Z</time>
      </trkpt>
      <trkpt lat="-25.5267660" lon="-49.0441260">
        <ele>932.8</ele>
        <time>2021-04-17T13:23:09Z</time>
      </trkpt>
      <trkpt lat="-25.5267040" lon="-49.0441110">
        <ele>932.4</ele>
        <time>2021-04-17T13:23:10Z</time>
      </trkpt>
      <trkpt lat="-25.5266380" lon="-49.0440950">
        <ele>932.0</ele>
        <time>2021-04-17T13:23:11Z</time>
      </trkpt>
      <trkpt lat="-25.5265060" lon="-49.0440640">
        <ele>931.6</ele>
        <time>2021-04-17T13:23:13Z</time>
      </trkpt>
      <trkpt lat="-25.5263460" lon="-49.0440170">
        <ele>931.6</ele>
        <time>2021-04-17T13:23:15Z</time>
      </trkpt>
      <trkpt lat="-25.5261550" lon="-49.0439700">
        <ele>931.4</ele>
        <time>2021-04-17T13:23:17Z</time>
      </trkpt>
      <trkpt lat="-25.5259550" lon="-49.0439240">
        <ele>931.2</ele>
        <time>2021-04-17T13:23:19Z</time>
      </trkpt>
      <trkpt lat="-25.5257660" lon="-49.0438810">
        <ele>930.2</ele>
        <time>2021-04-17T13:23:21Z</time>
      </trkpt>
      <trkpt lat="-25.5255830" lon="-49.0438330">
        <ele>929.2</ele>
        <time>2021-04-17T13:23:23Z</time>
      </trkpt>
      <trkpt lat="-25.5254150" lon="-49.0437850">
        <ele>928.2</ele>
        <time>2021-04-17T13:23:25Z</time>
      </trkpt>
      <trkpt lat="-25.5253370" lon="-49.0437590">
        <ele>927.8</ele>
        <time>2021-04-17T13:23:26Z</time>
      </trkpt>
      <trkpt lat="-25.5252590" lon="-49.0437360">
        <ele>927.4</ele>
        <time>2021-04-17T13:23:27Z</time>
      </trkpt>
      <trkpt lat="-25.5251840" lon="-49.0437180">
        <ele>926.6</ele>
        <time>2021-04-17T13:23:28Z</time>
      </trkpt>
      <trkpt lat="-25.5251120" lon="-49.0437000">
        <ele>925.8</ele>
        <time>2021-04-17T13:23:29Z</time>
      </trkpt>
      <trkpt lat="-25.5250430" lon="-49.0436810">
        <ele>925.2</ele>
        <time>2021-04-17T13:23:30Z</time>
      </trkpt>
      <trkpt lat="-25.5249800" lon="-49.0436640">
        <ele>924.8</ele>
        <time>2021-04-17T13:23:31Z</time>
      </trkpt>
      <trkpt lat="-25.5248780" lon="-49.0436370">
        <ele>924.4</ele>
        <time>2021-04-17T13:23:33Z</time>
      </trkpt>
      <trkpt lat="-25.5247950" lon="-49.0436200">
        <ele>924.4</ele>
        <time>2021-04-17T13:23:35Z</time>
      </trkpt>
      <trkpt lat="-25.5247200" lon="-49.0436080">
        <ele>924.4</ele>
        <time>2021-04-17T13:23:37Z</time>
      </trkpt>
      <trkpt lat="-25.5246330" lon="-49.0435860">
        <ele>924.4</ele>
        <time>2021-04-17T13:23:39Z</time>
      </trkpt>
      <trkpt lat="-25.5245350" lon="-49.0435590">
        <ele>925.4</ele>
        <time>2021-04-17T13:23:41Z</time>
      </trkpt>
      <trkpt lat="-25.5244850" lon="-49.0435430">
        <ele>925.8</ele>
        <time>2021-04-17T13:23:42Z</time>
      </trkpt>
      <trkpt lat="-25.5244330" lon="-49.0435260">
        <ele>926.2</ele>
        <time>2021-04-17T13:23:43Z</time>
      </trkpt>
      <trkpt lat="-25.5243300" lon="-49.0435010">
        <ele>926.4</ele>
        <time>2021-04-17T13:23:45Z</time>
      </trkpt>
      <trkpt lat="-25.5242230" lon="-49.0434710">
        <ele>926.4</ele>
        <time>2021-04-17T13:23:47Z</time>
      </trkpt>
      <trkpt lat="-25.5240930" lon="-49.0434410">
        <ele>926.4</ele>
        <time>2021-04-17T13:23:49Z</time>
      </trkpt>
      <trkpt lat="-25.5240180" lon="-49.0434220">
        <ele>926.4</ele>
        <time>2021-04-17T13:23:50Z</time>
      </trkpt>
      <trkpt lat="-25.5239350" lon="-49.0434000">
        <ele>926.4</ele>
        <time>2021-04-17T13:23:51Z</time>
      </trkpt>
      <trkpt lat="-25.5237630" lon="-49.0433580">
        <ele>926.2</ele>
        <time>2021-04-17T13:23:53Z</time>
      </trkpt>
      <trkpt lat="-25.5236010" lon="-49.0433210">
        <ele>925.4</ele>
        <time>2021-04-17T13:23:55Z</time>
      </trkpt>
      <trkpt lat="-25.5235320" lon="-49.0433040">
        <ele>925.2</ele>
        <time>2021-04-17T13:23:56Z</time>
      </trkpt>
      <trkpt lat="-25.5234730" lon="-49.0432910">
        <ele>924.6</ele>
        <time>2021-04-17T13:23:57Z</time>
      </trkpt>
      <trkpt lat="-25.5234240" lon="-49.0432860">
        <ele>924.4</ele>
        <time>2021-04-17T13:23:58Z</time>
      </trkpt>
      <trkpt lat="-25.5233800" lon="-49.0432820">
        <ele>924.0</ele>
        <time>2021-04-17T13:23:59Z</time>
      </trkpt>
      <trkpt lat="-25.5232930" lon="-49.0432790">
        <ele>923.8</ele>
        <time>2021-04-17T13:24:01Z</time>
      </trkpt>
      <trkpt lat="-25.5231950" lon="-49.0432800">
        <ele>923.6</ele>
        <time>2021-04-17T13:24:03Z</time>
      </trkpt>
      <trkpt lat="-25.5231450" lon="-49.0432880">
        <ele>923.4</ele>
        <time>2021-04-17T13:24:04Z</time>
      </trkpt>
      <trkpt lat="-25.5230960" lon="-49.0432940">
        <ele>923.4</ele>
        <time>2021-04-17T13:24:05Z</time>
      </trkpt>
      <trkpt lat="-25.5229920" lon="-49.0433100">
        <ele>922.8</ele>
        <time>2021-04-17T13:24:07Z</time>
      </trkpt>
      <trkpt lat="-25.5229360" lon="-49.0433190">
        <ele>922.8</ele>
        <time>2021-04-17T13:24:08Z</time>
      </trkpt>
      <trkpt lat="-25.5228810" lon="-49.0433280">
        <ele>922.8</ele>
        <time>2021-04-17T13:24:09Z</time>
      </trkpt>
      <trkpt lat="-25.5228240" lon="-49.0433360">
        <ele>922.8</ele>
        <time>2021-04-17T13:24:10Z</time>
      </trkpt>
      <trkpt lat="-25.5227660" lon="-49.0433410">
        <ele>922.8</ele>
        <time>2021-04-17T13:24:11Z</time>
      </trkpt>
      <trkpt lat="-25.5226390" lon="-49.0433420">
        <ele>922.8</ele>
        <time>2021-04-17T13:24:13Z</time>
      </trkpt>
      <trkpt lat="-25.5225210" lon="-49.0433400">
        <ele>922.2</ele>
        <time>2021-04-17T13:24:15Z</time>
      </trkpt>
      <trkpt lat="-25.5224580" lon="-49.0433290">
        <ele>922.0</ele>
        <time>2021-04-17T13:24:16Z</time>
      </trkpt>
      <trkpt lat="-25.5223960" lon="-49.0433120">
        <ele>921.6</ele>
        <time>2021-04-17T13:24:17Z</time>
      </trkpt>
      <trkpt lat="-25.5222720" lon="-49.0432630">
        <ele>921.2</ele>
        <time>2021-04-17T13:24:19Z</time>
      </trkpt>
      <trkpt lat="-25.5221550" lon="-49.0432160">
        <ele>920.4</ele>
        <time>2021-04-17T13:24:21Z</time>
      </trkpt>
      <trkpt lat="-25.5221050" lon="-49.0431960">
        <ele>920.0</ele>
        <time>2021-04-17T13:24:22Z</time>
      </trkpt>
      <trkpt lat="-25.5220570" lon="-49.0431780">
        <ele>919.4</ele>
        <time>2021-04-17T13:24:23Z</time>
      </trkpt>
      <trkpt lat="-25.5220020" lon="-49.0431590">
        <ele>918.6</ele>
        <time>2021-04-17T13:24:24Z</time>
      </trkpt>
      <trkpt lat="-25.5219350" lon="-49.0431350">
        <ele>918.4</ele>
        <time>2021-04-17T13:24:25Z</time>
      </trkpt>
      <trkpt lat="-25.5218890" lon="-49.0431210">
        <ele>918.2</ele>
        <time>2021-04-17T13:24:26Z</time>
      </trkpt>
      <trkpt lat="-25.5218420" lon="-49.0431070">
        <ele>917.4</ele>
        <time>2021-04-17T13:24:27Z</time>
      </trkpt>
      <trkpt lat="-25.5216560" lon="-49.0430510">
        <ele>915.8</ele>
        <time>2021-04-17T13:24:29Z</time>
      </trkpt>
      <trkpt lat="-25.5214920" lon="-49.0429860">
        <ele>915.0</ele>
        <time>2021-04-17T13:24:31Z</time>
      </trkpt>
      <trkpt lat="-25.5214050" lon="-49.0429520">
        <ele>914.6</ele>
        <time>2021-04-17T13:24:32Z</time>
      </trkpt>
      <trkpt lat="-25.5213220" lon="-49.0429190">
        <ele>914.4</ele>
        <time>2021-04-17T13:24:33Z</time>
      </trkpt>
      <trkpt lat="-25.5211540" lon="-49.0428590">
        <ele>913.6</ele>
        <time>2021-04-17T13:24:35Z</time>
      </trkpt>
      <trkpt lat="-25.5210720" lon="-49.0428290">
        <ele>913.2</ele>
        <time>2021-04-17T13:24:36Z</time>
      </trkpt>
      <trkpt lat="-25.5209930" lon="-49.0428000">
        <ele>913.0</ele>
        <time>2021-04-17T13:24:37Z</time>
      </trkpt>
      <trkpt lat="-25.5208490" lon="-49.0427370">
        <ele>912.6</ele>
        <time>2021-04-17T13:24:39Z</time>
      </trkpt>
      <trkpt lat="-25.5207750" lon="-49.0427100">
        <ele>912.6</ele>
        <time>2021-04-17T13:24:40Z</time>
      </trkpt>
      <trkpt lat="-25.5207140" lon="-49.0426870">
        <ele>912.2</ele>
        <time>2021-04-17T13:24:41Z</time>
      </trkpt>
      <trkpt lat="-25.5206490" lon="-49.0426560">
        <ele>912.0</ele>
        <time>2021-04-17T13:24:42Z</time>
      </trkpt>
      <trkpt lat="-25.5205990" lon="-49.0426200">
        <ele>911.6</ele>
        <time>2021-04-17T13:24:43Z</time>
      </trkpt>
      <trkpt lat="-25.5205630" lon="-49.0425720">
        <ele>911.4</ele>
        <time>2021-04-17T13:24:44Z</time>
      </trkpt>
      <trkpt lat="-25.5205430" lon="-49.0425150">
        <ele>911.2</ele>
        <time>2021-04-17T13:24:45Z</time>
      </trkpt>
      <trkpt lat="-25.5205380" lon="-49.0424490">
        <ele>910.8</ele>
        <time>2021-04-17T13:24:46Z</time>
      </trkpt>
      <trkpt lat="-25.5205530" lon="-49.0423850">
        <ele>910.0</ele>
        <time>2021-04-17T13:24:47Z</time>
      </trkpt>
      <trkpt lat="-25.5205930" lon="-49.0422650">
        <ele>908.8</ele>
        <time>2021-04-17T13:24:49Z</time>
      </trkpt>
      <trkpt lat="-25.5206170" lon="-49.0422110">
        <ele>908.2</ele>
        <time>2021-04-17T13:24:50Z</time>
      </trkpt>
      <trkpt lat="-25.5206390" lon="-49.0421570">
        <ele>907.8</ele>
        <time>2021-04-17T13:24:51Z</time>
      </trkpt>
      <trkpt lat="-25.5206610" lon="-49.0421020">
        <ele>907.4</ele>
        <time>2021-04-17T13:24:52Z</time>
      </trkpt>
      <trkpt lat="-25.5206810" lon="-49.0420480">
        <ele>907.0</ele>
        <time>2021-04-17T13:24:53Z</time>
      </trkpt>
      <trkpt lat="-25.5207190" lon="-49.0419450">
        <ele>906.4</ele>
        <time>2021-04-17T13:24:55Z</time>
      </trkpt>
      <trkpt lat="-25.5207440" lon="-49.0418380">
        <ele>906.2</ele>
        <time>2021-04-17T13:24:57Z</time>
      </trkpt>
      <trkpt lat="-25.5207550" lon="-49.0417250">
        <ele>906.0</ele>
        <time>2021-04-17T13:24:59Z</time>
      </trkpt>
      <trkpt lat="-25.5207310" lon="-49.0416090">
        <ele>905.8</ele>
        <time>2021-04-17T13:25:01Z</time>
      </trkpt>
      <trkpt lat="-25.5206610" lon="-49.0415120">
        <ele>905.8</ele>
        <time>2021-04-17T13:25:03Z</time>
      </trkpt>
      <trkpt lat="-25.5206090" lon="-49.0414770">
        <ele>905.6</ele>
        <time>2021-04-17T13:25:04Z</time>
      </trkpt>
      <trkpt lat="-25.5205520" lon="-49.0414490">
        <ele>905.6</ele>
        <time>2021-04-17T13:25:05Z</time>
      </trkpt>
      <trkpt lat="-25.5204310" lon="-49.0414090">
        <ele>905.6</ele>
        <time>2021-04-17T13:25:07Z</time>
      </trkpt>
      <trkpt lat="-25.5203140" lon="-49.0413760">
        <ele>905.6</ele>
        <time>2021-04-17T13:25:09Z</time>
      </trkpt>
      <trkpt lat="-25.5201920" lon="-49.0413340">
        <ele>905.8</ele>
        <time>2021-04-17T13:25:11Z</time>
      </trkpt>
      <trkpt lat="-25.5200770" lon="-49.0412950">
        <ele>905.8</ele>
        <time>2021-04-17T13:25:13Z</time>
      </trkpt>
      <trkpt lat="-25.5200240" lon="-49.0412720">
        <ele>905.8</ele>
        <time>2021-04-17T13:25:14Z</time>
      </trkpt>
      <trkpt lat="-25.5199680" lon="-49.0412480">
        <ele>905.8</ele>
        <time>2021-04-17T13:25:15Z</time>
      </trkpt>
      <trkpt lat="-25.5199120" lon="-49.0412330">
        <ele>906.0</ele>
        <time>2021-04-17T13:25:16Z</time>
      </trkpt>
      <trkpt lat="-25.5198570" lon="-49.0412210">
        <ele>906.0</ele>
        <time>2021-04-17T13:25:17Z</time>
      </trkpt>
      <trkpt lat="-25.5197460" lon="-49.0411900">
        <ele>906.0</ele>
        <time>2021-04-17T13:25:19Z</time>
      </trkpt>
      <trkpt lat="-25.5196430" lon="-49.0411490">
        <ele>906.0</ele>
        <time>2021-04-17T13:25:21Z</time>
      </trkpt>
      <trkpt lat="-25.5195940" lon="-49.0411260">
        <ele>906.0</ele>
        <time>2021-04-17T13:25:22Z</time>
      </trkpt>
      <trkpt lat="-25.5195490" lon="-49.0411020">
        <ele>906.0</ele>
        <time>2021-04-17T13:25:23Z</time>
      </trkpt>
      <trkpt lat="-25.5194620" lon="-49.0410410">
        <ele>906.0</ele>
        <time>2021-04-17T13:25:25Z</time>
      </trkpt>
      <trkpt lat="-25.5193970" lon="-49.0409690">
        <ele>906.0</ele>
        <time>2021-04-17T13:25:27Z</time>
      </trkpt>
      <trkpt lat="-25.5193470" lon="-49.0408840">
        <ele>906.0</ele>
        <time>2021-04-17T13:25:29Z</time>
      </trkpt>
      <trkpt lat="-25.5193190" lon="-49.0407830">
        <ele>906.0</ele>
        <time>2021-04-17T13:25:31Z</time>
      </trkpt>
      <trkpt lat="-25.5193150" lon="-49.0407300">
        <ele>906.0</ele>
        <time>2021-04-17T13:25:32Z</time>
      </trkpt>
      <trkpt lat="-25.5193150" lon="-49.0406780">
        <ele>906.2</ele>
        <time>2021-04-17T13:25:33Z</time>
      </trkpt>
      <trkpt lat="-25.5193180" lon="-49.0406250">
        <ele>906.2</ele>
        <time>2021-04-17T13:25:34Z</time>
      </trkpt>
      <trkpt lat="-25.5193240" lon="-49.0405740">
        <ele>906.2</ele>
        <time>2021-04-17T13:25:35Z</time>
      </trkpt>
      <trkpt lat="-25.5193370" lon="-49.0404760">
        <ele>906.2</ele>
        <time>2021-04-17T13:25:37Z</time>
      </trkpt>
      <trkpt lat="-25.5193410" lon="-49.0404290">
        <ele>906.4</ele>
        <time>2021-04-17T13:25:38Z</time>
      </trkpt>
      <trkpt lat="-25.5193440" lon="-49.0403840">
        <ele>906.4</ele>
        <time>2021-04-17T13:25:39Z</time>
      </trkpt>
      <trkpt lat="-25.5193440" lon="-49.0402940">
        <ele>906.4</ele>
        <time>2021-04-17T13:25:41Z</time>
      </trkpt>
      <trkpt lat="-25.5193430" lon="-49.0402040">
        <ele>906.6</ele>
        <time>2021-04-17T13:25:43Z</time>
      </trkpt>
      <trkpt lat="-25.5193370" lon="-49.0401150">
        <ele>907.0</ele>
        <time>2021-04-17T13:25:45Z</time>
      </trkpt>
      <trkpt lat="-25.5193320" lon="-49.0400700">
        <ele>907.2</ele>
        <time>2021-04-17T13:25:46Z</time>
      </trkpt>
      <trkpt lat="-25.5193250" lon="-49.0400250">
        <ele>907.4</ele>
        <time>2021-04-17T13:25:47Z</time>
      </trkpt>
      <trkpt lat="-25.5193200" lon="-49.0399790">
        <ele>907.6</ele>
        <time>2021-04-17T13:25:48Z</time>
      </trkpt>
      <trkpt lat="-25.5193150" lon="-49.0399340">
        <ele>907.8</ele>
        <time>2021-04-17T13:25:49Z</time>
      </trkpt>
      <trkpt lat="-25.5193080" lon="-49.0398450">
        <ele>908.0</ele>
        <time>2021-04-17T13:25:51Z</time>
      </trkpt>
      <trkpt lat="-25.5193000" lon="-49.0397610">
        <ele>908.2</ele>
        <time>2021-04-17T13:25:53Z</time>
      </trkpt>
      <trkpt lat="-25.5192930" lon="-49.0397220">
        <ele>908.2</ele>
        <time>2021-04-17T13:25:54Z</time>
      </trkpt>
      <trkpt lat="-25.5192820" lon="-49.0396830">
        <ele>908.4</ele>
        <time>2021-04-17T13:25:55Z</time>
      </trkpt>
      <trkpt lat="-25.5192550" lon="-49.0396050">
        <ele>908.6</ele>
        <time>2021-04-17T13:25:57Z</time>
      </trkpt>
      <trkpt lat="-25.5192400" lon="-49.0395660">
        <ele>908.8</ele>
        <time>2021-04-17T13:25:58Z</time>
      </trkpt>
      <trkpt lat="-25.5192200" lon="-49.0395270">
        <ele>908.8</ele>
        <time>2021-04-17T13:25:59Z</time>
      </trkpt>
      <trkpt lat="-25.5191920" lon="-49.0394910">
        <ele>909.0</ele>
        <time>2021-04-17T13:26:00Z</time>
      </trkpt>
      <trkpt lat="-25.5191600" lon="-49.0394590">
        <ele>909.0</ele>
        <time>2021-04-17T13:26:01Z</time>
      </trkpt>
      <trkpt lat="-25.5190880" lon="-49.0394050">
        <ele>909.4</ele>
        <time>2021-04-17T13:26:03Z</time>
      </trkpt>
      <trkpt lat="-25.5190490" lon="-49.0393820">
        <ele>909.4</ele>
        <time>2021-04-17T13:26:04Z</time>
      </trkpt>
      <trkpt lat="-25.5190070" lon="-49.0393640">
        <ele>909.6</ele>
        <time>2021-04-17T13:26:05Z</time>
      </trkpt>
      <trkpt lat="-25.5189120" lon="-49.0393400">
        <ele>909.6</ele>
        <time>2021-04-17T13:26:07Z</time>
      </trkpt>
      <trkpt lat="-25.5188040" lon="-49.0393230">
        <ele>909.8</ele>
        <time>2021-04-17T13:26:09Z</time>
      </trkpt>
      <trkpt lat="-25.5186870" lon="-49.0393040">
        <ele>909.8</ele>
        <time>2021-04-17T13:26:11Z</time>
      </trkpt>
      <trkpt lat="-25.5185680" lon="-49.0392800">
        <ele>909.6</ele>
        <time>2021-04-17T13:26:13Z</time>
      </trkpt>
      <trkpt lat="-25.5184470" lon="-49.0392590">
        <ele>909.6</ele>
        <time>2021-04-17T13:26:15Z</time>
      </trkpt>
      <trkpt lat="-25.5183280" lon="-49.0392380">
        <ele>909.4</ele>
        <time>2021-04-17T13:26:17Z</time>
      </trkpt>
      <trkpt lat="-25.5182130" lon="-49.0392210">
        <ele>908.8</ele>
        <time>2021-04-17T13:26:19Z</time>
      </trkpt>
      <trkpt lat="-25.5181010" lon="-49.0392070">
        <ele>908.4</ele>
        <time>2021-04-17T13:26:21Z</time>
      </trkpt>
      <trkpt lat="-25.5179910" lon="-49.0391940">
        <ele>908.2</ele>
        <time>2021-04-17T13:26:23Z</time>
      </trkpt>
      <trkpt lat="-25.5178820" lon="-49.0391750">
        <ele>908.0</ele>
        <time>2021-04-17T13:26:25Z</time>
      </trkpt>
      <trkpt lat="-25.5178300" lon="-49.0391600">
        <ele>907.8</ele>
        <time>2021-04-17T13:26:26Z</time>
      </trkpt>
      <trkpt lat="-25.5177770" lon="-49.0391420">
        <ele>907.6</ele>
        <time>2021-04-17T13:26:27Z</time>
      </trkpt>
      <trkpt lat="-25.5176730" lon="-49.0391020">
        <ele>907.2</ele>
        <time>2021-04-17T13:26:29Z</time>
      </trkpt>
      <trkpt lat="-25.5176240" lon="-49.0390820">
        <ele>907.2</ele>
        <time>2021-04-17T13:26:30Z</time>
      </trkpt>
      <trkpt lat="-25.5175790" lon="-49.0390670">
        <ele>907.0</ele>
        <time>2021-04-17T13:26:31Z</time>
      </trkpt>
      <trkpt lat="-25.5174850" lon="-49.0390290">
        <ele>906.6</ele>
        <time>2021-04-17T13:26:33Z</time>
      </trkpt>
      <trkpt lat="-25.5173820" lon="-49.0389870">
        <ele>906.0</ele>
        <time>2021-04-17T13:26:35Z</time>
      </trkpt>
      <trkpt lat="-25.5172680" lon="-49.0389490">
        <ele>905.4</ele>
        <time>2021-04-17T13:26:37Z</time>
      </trkpt>
      <trkpt lat="-25.5172130" lon="-49.0389290">
        <ele>905.4</ele>
        <time>2021-04-17T13:26:38Z</time>
      </trkpt>
      <trkpt lat="-25.5171620" lon="-49.0389070">
        <ele>905.4</ele>
        <time>2021-04-17T13:26:39Z</time>
      </trkpt>
      <trkpt lat="-25.5171160" lon="-49.0388850">
        <ele>905.2</ele>
        <time>2021-04-17T13:26:40Z</time>
      </trkpt>
      <trkpt lat="-25.5170730" lon="-49.0388600">
        <ele>905.2</ele>
        <time>2021-04-17T13:26:41Z</time>
      </trkpt>
      <trkpt lat="-25.5169870" lon="-49.0388100">
        <ele>905.2</ele>
        <time>2021-04-17T13:26:43Z</time>
      </trkpt>
      <trkpt lat="-25.5169080" lon="-49.0387590">
        <ele>905.2</ele>
        <time>2021-04-17T13:26:45Z</time>
      </trkpt>
      <trkpt lat="-25.5168420" lon="-49.0387080">
        <ele>905.2</ele>
        <time>2021-04-17T13:26:47Z</time>
      </trkpt>
      <trkpt lat="-25.5168140" lon="-49.0386860">
        <ele>905.2</ele>
        <time>2021-04-17T13:26:48Z</time>
      </trkpt>
      <trkpt lat="-25.5167890" lon="-49.0386680">
        <ele>905.2</ele>
        <time>2021-04-17T13:26:49Z</time>
      </trkpt>
      <trkpt lat="-25.5167470" lon="-49.0386370">
        <ele>905.2</ele>
        <time>2021-04-17T13:26:51Z</time>
      </trkpt>
      <trkpt lat="-25.5167080" lon="-49.0386140">
        <ele>905.4</ele>
        <time>2021-04-17T13:26:53Z</time>
      </trkpt>
      <trkpt lat="-25.5166880" lon="-49.0386060">
        <ele>905.4</ele>
        <time>2021-04-17T13:26:54Z</time>
      </trkpt>
      <trkpt lat="-25.5166690" lon="-49.0385970">
        <ele>905.6</ele>
        <time>2021-04-17T13:26:55Z</time>
      </trkpt>
      <trkpt lat="-25.5166310" lon="-49.0385760">
        <ele>906.2</ele>
        <time>2021-04-17T13:26:57Z</time>
      </trkpt>
      <trkpt lat="-25.5166100" lon="-49.0385640">
        <ele>906.6</ele>
        <time>2021-04-17T13:26:58Z</time>
      </trkpt>
      <trkpt lat="-25.5165900" lon="-49.0385560">
        <ele>906.8</ele>
        <time>2021-04-17T13:26:59Z</time>
      </trkpt>
      <trkpt lat="-25.5165700" lon="-49.0385470">
        <ele>907.2</ele>
        <time>2021-04-17T13:27:00Z</time>
      </trkpt>
      <trkpt lat="-25.5165500" lon="-49.0385390">
        <ele>907.6</ele>
        <time>2021-04-17T13:27:01Z</time>
      </trkpt>
      <trkpt lat="-25.5165130" lon="-49.0385160">
        <ele>908.0</ele>
        <time>2021-04-17T13:27:03Z</time>
      </trkpt>
      <trkpt lat="-25.5164750" lon="-49.0384930">
        <ele>908.8</ele>
        <time>2021-04-17T13:27:05Z</time>
      </trkpt>
      <trkpt lat="-25.5164540" lon="-49.0384830">
        <ele>909.0</ele>
        <time>2021-04-17T13:27:06Z</time>
      </trkpt>
      <trkpt lat="-25.5164320" lon="-49.0384750">
        <ele>909.4</ele>
        <time>2021-04-17T13:27:07Z</time>
      </trkpt>
      <trkpt lat="-25.5163880" lon="-49.0384600">
        <ele>910.0</ele>
        <time>2021-04-17T13:27:09Z</time>
      </trkpt>
      <trkpt lat="-25.5163370" lon="-49.0384410">
        <ele>910.8</ele>
        <time>2021-04-17T13:27:11Z</time>
      </trkpt>
      <trkpt lat="-25.5163130" lon="-49.0384330">
        <ele>911.2</ele>
        <time>2021-04-17T13:27:12Z</time>
      </trkpt>
      <trkpt lat="-25.5162910" lon="-49.0384270">
        <ele>911.4</ele>
        <time>2021-04-17T13:27:13Z</time>
      </trkpt>
      <trkpt lat="-25.5162700" lon="-49.0384200">
        <ele>911.8</ele>
        <time>2021-04-17T13:27:14Z</time>
      </trkpt>
      <trkpt lat="-25.5162510" lon="-49.0384160">
        <ele>912.0</ele>
        <time>2021-04-17T13:27:15Z</time>
      </trkpt>
      <trkpt lat="-25.5162300" lon="-49.0384090">
        <ele>912.4</ele>
        <time>2021-04-17T13:27:16Z</time>
      </trkpt>
      <trkpt lat="-25.5162090" lon="-49.0384030">
        <ele>912.6</ele>
        <time>2021-04-17T13:27:17Z</time>
      </trkpt>
      <trkpt lat="-25.5161690" lon="-49.0383920">
        <ele>913.0</ele>
        <time>2021-04-17T13:27:19Z</time>
      </trkpt>
      <trkpt lat="-25.5161270" lon="-49.0383750">
        <ele>913.6</ele>
        <time>2021-04-17T13:27:21Z</time>
      </trkpt>
      <trkpt lat="-25.5160850" lon="-49.0383540">
        <ele>914.0</ele>
        <time>2021-04-17T13:27:23Z</time>
      </trkpt>
      <trkpt lat="-25.5160420" lon="-49.0383440">
        <ele>914.4</ele>
        <time>2021-04-17T13:27:25Z</time>
      </trkpt>
      <trkpt lat="-25.5160210" lon="-49.0383370">
        <ele>914.6</ele>
        <time>2021-04-17T13:27:26Z</time>
      </trkpt>
      <trkpt lat="-25.5160000" lon="-49.0383270">
        <ele>914.8</ele>
        <time>2021-04-17T13:27:27Z</time>
      </trkpt>
      <trkpt lat="-25.5159790" lon="-49.0383190">
        <ele>915.0</ele>
        <time>2021-04-17T13:27:28Z</time>
      </trkpt>
      <trkpt lat="-25.5159580" lon="-49.0383130">
        <ele>915.2</ele>
        <time>2021-04-17T13:27:29Z</time>
      </trkpt>
      <trkpt lat="-25.5159120" lon="-49.0382980">
        <ele>915.4</ele>
        <time>2021-04-17T13:27:31Z</time>
      </trkpt>
      <trkpt lat="-25.5158570" lon="-49.0382820">
        <ele>915.6</ele>
        <time>2021-04-17T13:27:33Z</time>
      </trkpt>
      <trkpt lat="-25.5158260" lon="-49.0382710">
        <ele>915.8</ele>
        <time>2021-04-17T13:27:34Z</time>
      </trkpt>
      <trkpt lat="-25.5157940" lon="-49.0382590">
        <ele>916.0</ele>
        <time>2021-04-17T13:27:35Z</time>
      </trkpt>
      <trkpt lat="-25.5157250" lon="-49.0382360">
        <ele>916.2</ele>
        <time>2021-04-17T13:27:37Z</time>
      </trkpt>
      <trkpt lat="-25.5156510" lon="-49.0382160">
        <ele>916.4</ele>
        <time>2021-04-17T13:27:39Z</time>
      </trkpt>
      <trkpt lat="-25.5155730" lon="-49.0381930">
        <ele>916.4</ele>
        <time>2021-04-17T13:27:41Z</time>
      </trkpt>
      <trkpt lat="-25.5155320" lon="-49.0381820">
        <ele>916.4</ele>
        <time>2021-04-17T13:27:42Z</time>
      </trkpt>
      <trkpt lat="-25.5154860" lon="-49.0381710">
        <ele>916.6</ele>
        <time>2021-04-17T13:27:43Z</time>
      </trkpt>
      <trkpt lat="-25.5153790" lon="-49.0381480">
        <ele>916.6</ele>
        <time>2021-04-17T13:27:45Z</time>
      </trkpt>
      <trkpt lat="-25.5152630" lon="-49.0381460">
        <ele>916.6</ele>
        <time>2021-04-17T13:27:47Z</time>
      </trkpt>
      <trkpt lat="-25.5151570" lon="-49.0381890">
        <ele>916.4</ele>
        <time>2021-04-17T13:27:49Z</time>
      </trkpt>
      <trkpt lat="-25.5151100" lon="-49.0382200">
        <ele>916.2</ele>
        <time>2021-04-17T13:27:50Z</time>
      </trkpt>
      <trkpt lat="-25.5150650" lon="-49.0382520">
        <ele>916.2</ele>
        <time>2021-04-17T13:27:51Z</time>
      </trkpt>
      <trkpt lat="-25.5149770" lon="-49.0383200">
        <ele>916.0</ele>
        <time>2021-04-17T13:27:53Z</time>
      </trkpt>
      <trkpt lat="-25.5148820" lon="-49.0383940">
        <ele>915.8</ele>
        <time>2021-04-17T13:27:55Z</time>
      </trkpt>
      <trkpt lat="-25.5148280" lon="-49.0384270">
        <ele>915.8</ele>
        <time>2021-04-17T13:27:56Z</time>
      </trkpt>
      <trkpt lat="-25.5147690" lon="-49.0384520">
        <ele>915.4</ele>
        <time>2021-04-17T13:27:57Z</time>
      </trkpt>
      <trkpt lat="-25.5146340" lon="-49.0384750">
        <ele>915.2</ele>
        <time>2021-04-17T13:27:59Z</time>
      </trkpt>
      <trkpt lat="-25.5144900" lon="-49.0384670">
        <ele>914.6</ele>
        <time>2021-04-17T13:28:01Z</time>
      </trkpt>
      <trkpt lat="-25.5144180" lon="-49.0384560">
        <ele>914.4</ele>
        <time>2021-04-17T13:28:02Z</time>
      </trkpt>
      <trkpt lat="-25.5143460" lon="-49.0384440">
        <ele>914.2</ele>
        <time>2021-04-17T13:28:03Z</time>
      </trkpt>
      <trkpt lat="-25.5142000" lon="-49.0384140">
        <ele>913.8</ele>
        <time>2021-04-17T13:28:05Z</time>
      </trkpt>
      <trkpt lat="-25.5141280" lon="-49.0383990">
        <ele>913.4</ele>
        <time>2021-04-17T13:28:06Z</time>
      </trkpt>
      <trkpt lat="-25.5140560" lon="-49.0383860">
        <ele>912.8</ele>
        <time>2021-04-17T13:28:07Z</time>
      </trkpt>
      <trkpt lat="-25.5139830" lon="-49.0383720">
        <ele>912.4</ele>
        <time>2021-04-17T13:28:08Z</time>
      </trkpt>
      <trkpt lat="-25.5139100" lon="-49.0383550">
        <ele>912.0</ele>
        <time>2021-04-17T13:28:09Z</time>
      </trkpt>
      <trkpt lat="-25.5137600" lon="-49.0383220">
        <ele>911.6</ele>
        <time>2021-04-17T13:28:11Z</time>
      </trkpt>
      <trkpt lat="-25.5136020" lon="-49.0382750">
        <ele>911.4</ele>
        <time>2021-04-17T13:28:13Z</time>
      </trkpt>
      <trkpt lat="-25.5135200" lon="-49.0382420">
        <ele>911.2</ele>
        <time>2021-04-17T13:28:14Z</time>
      </trkpt>
      <trkpt lat="-25.5134380" lon="-49.0382030">
        <ele>911.2</ele>
        <time>2021-04-17T13:28:15Z</time>
      </trkpt>
      <trkpt lat="-25.5133570" lon="-49.0381530">
        <ele>910.6</ele>
        <time>2021-04-17T13:28:16Z</time>
      </trkpt>
      <trkpt lat="-25.5132790" lon="-49.0380920">
        <ele>910.2</ele>
        <time>2021-04-17T13:28:17Z</time>
      </trkpt>
      <trkpt lat="-25.5132010" lon="-49.0380280">
        <ele>909.8</ele>
        <time>2021-04-17T13:28:18Z</time>
      </trkpt>
      <trkpt lat="-25.5131230" lon="-49.0379640">
        <ele>909.8</ele>
        <time>2021-04-17T13:28:19Z</time>
      </trkpt>
      <trkpt lat="-25.5129780" lon="-49.0378440">
        <ele>908.4</ele>
        <time>2021-04-17T13:28:21Z</time>
      </trkpt>
      <trkpt lat="-25.5128400" lon="-49.0377390">
        <ele>907.4</ele>
        <time>2021-04-17T13:28:23Z</time>
      </trkpt>
      <trkpt lat="-25.5126740" lon="-49.0376820">
        <ele>906.0</ele>
        <time>2021-04-17T13:28:25Z</time>
      </trkpt>
      <trkpt lat="-25.5125830" lon="-49.0376750">
        <ele>905.6</ele>
        <time>2021-04-17T13:28:26Z</time>
      </trkpt>
      <trkpt lat="-25.5125040" lon="-49.0376840">
        <ele>905.0</ele>
        <time>2021-04-17T13:28:27Z</time>
      </trkpt>
      <trkpt lat="-25.5124260" lon="-49.0377100">
        <ele>904.2</ele>
        <time>2021-04-17T13:28:28Z</time>
      </trkpt>
      <trkpt lat="-25.5123430" lon="-49.0377300">
        <ele>903.4</ele>
        <time>2021-04-17T13:28:29Z</time>
      </trkpt>
      <trkpt lat="-25.5121650" lon="-49.0377520">
        <ele>902.4</ele>
        <time>2021-04-17T13:28:31Z</time>
      </trkpt>
      <trkpt lat="-25.5120770" lon="-49.0377560">
        <ele>901.6</ele>
        <time>2021-04-17T13:28:32Z</time>
      </trkpt>
      <trkpt lat="-25.5119840" lon="-49.0377550">
        <ele>901.0</ele>
        <time>2021-04-17T13:28:33Z</time>
      </trkpt>
      <trkpt lat="-25.5118880" lon="-49.0377570">
        <ele>900.8</ele>
        <time>2021-04-17T13:28:34Z</time>
      </trkpt>
      <trkpt lat="-25.5117850" lon="-49.0377600">
        <ele>900.4</ele>
        <time>2021-04-17T13:28:35Z</time>
      </trkpt>
      <trkpt lat="-25.5115820" lon="-49.0377690">
        <ele>900.0</ele>
        <time>2021-04-17T13:28:37Z</time>
      </trkpt>
      <trkpt lat="-25.5113640" lon="-49.0377750">
        <ele>899.2</ele>
        <time>2021-04-17T13:28:39Z</time>
      </trkpt>
      <trkpt lat="-25.5111390" lon="-49.0378080">
        <ele>898.2</ele>
        <time>2021-04-17T13:28:41Z</time>
      </trkpt>
      <trkpt lat="-25.5109190" lon="-49.0378280">
        <ele>897.2</ele>
        <time>2021-04-17T13:28:43Z</time>
      </trkpt>
      <trkpt lat="-25.5108110" lon="-49.0378340">
        <ele>897.0</ele>
        <time>2021-04-17T13:28:44Z</time>
      </trkpt>
      <trkpt lat="-25.5106990" lon="-49.0378400">
        <ele>896.8</ele>
        <time>2021-04-17T13:28:45Z</time>
      </trkpt>
      <trkpt lat="-25.5104830" lon="-49.0378590">
        <ele>896.0</ele>
        <time>2021-04-17T13:28:47Z</time>
      </trkpt>
      <trkpt lat="-25.5103840" lon="-49.0378680">
        <ele>895.6</ele>
        <time>2021-04-17T13:28:48Z</time>
      </trkpt>
      <trkpt lat="-25.5102870" lon="-49.0378740">
        <ele>895.4</ele>
        <time>2021-04-17T13:28:49Z</time>
      </trkpt>
      <trkpt lat="-25.5101910" lon="-49.0378770">
        <ele>895.2</ele>
        <time>2021-04-17T13:28:50Z</time>
      </trkpt>
      <trkpt lat="-25.5100990" lon="-49.0378800">
        <ele>894.6</ele>
        <time>2021-04-17T13:28:51Z</time>
      </trkpt>
      <trkpt lat="-25.5100080" lon="-49.0378890">
        <ele>894.4</ele>
        <time>2021-04-17T13:28:52Z</time>
      </trkpt>
      <trkpt lat="-25.5099160" lon="-49.0379040">
        <ele>894.0</ele>
        <time>2021-04-17T13:28:53Z</time>
      </trkpt>
      <trkpt lat="-25.5097430" lon="-49.0379240">
        <ele>893.4</ele>
        <time>2021-04-17T13:28:55Z</time>
      </trkpt>
      <trkpt lat="-25.5095840" lon="-49.0379280">
        <ele>892.6</ele>
        <time>2021-04-17T13:28:57Z</time>
      </trkpt>
      <trkpt lat="-25.5095080" lon="-49.0379250">
        <ele>892.2</ele>
        <time>2021-04-17T13:28:58Z</time>
      </trkpt>
      <trkpt lat="-25.5094350" lon="-49.0379160">
        <ele>892.0</ele>
        <time>2021-04-17T13:28:59Z</time>
      </trkpt>
      <trkpt lat="-25.5093610" lon="-49.0378970">
        <ele>892.0</ele>
        <time>2021-04-17T13:29:00Z</time>
      </trkpt>
      <trkpt lat="-25.5092880" lon="-49.0378720">
        <ele>891.8</ele>
        <time>2021-04-17T13:29:01Z</time>
      </trkpt>
      <trkpt lat="-25.5091520" lon="-49.0378230">
        <ele>891.6</ele>
        <time>2021-04-17T13:29:03Z</time>
      </trkpt>
      <trkpt lat="-25.5090310" lon="-49.0377810">
        <ele>891.4</ele>
        <time>2021-04-17T13:29:05Z</time>
      </trkpt>
      <trkpt lat="-25.5089740" lon="-49.0377600">
        <ele>891.2</ele>
        <time>2021-04-17T13:29:06Z</time>
      </trkpt>
      <trkpt lat="-25.5089180" lon="-49.0377390">
        <ele>891.2</ele>
        <time>2021-04-17T13:29:07Z</time>
      </trkpt>
      <trkpt lat="-25.5088640" lon="-49.0377090">
        <ele>891.0</ele>
        <time>2021-04-17T13:29:08Z</time>
      </trkpt>
      <trkpt lat="-25.5088160" lon="-49.0376710">
        <ele>891.0</ele>
        <time>2021-04-17T13:29:09Z</time>
      </trkpt>
      <trkpt lat="-25.5087790" lon="-49.0376220">
        <ele>891.0</ele>
        <time>2021-04-17T13:29:10Z</time>
      </trkpt>
      <trkpt lat="-25.5087500" lon="-49.0375660">
        <ele>891.0</ele>
        <time>2021-04-17T13:29:11Z</time>
      </trkpt>
      <trkpt lat="-25.5087220" lon="-49.0374400">
        <ele>891.0</ele>
        <time>2021-04-17T13:29:13Z</time>
      </trkpt>
      <trkpt lat="-25.5087310" lon="-49.0373090">
        <ele>891.0</ele>
        <time>2021-04-17T13:29:15Z</time>
      </trkpt>
      <trkpt lat="-25.5087630" lon="-49.0371890">
        <ele>891.0</ele>
        <time>2021-04-17T13:29:17Z</time>
      </trkpt>
      <trkpt lat="-25.5087810" lon="-49.0371320">
        <ele>891.0</ele>
        <time>2021-04-17T13:29:18Z</time>
      </trkpt>
      <trkpt lat="-25.5087990" lon="-49.0370760">
        <ele>891.0</ele>
        <time>2021-04-17T13:29:19Z</time>
      </trkpt>
      <trkpt lat="-25.5088300" lon="-49.0369680">
        <ele>891.0</ele>
        <time>2021-04-17T13:29:21Z</time>
      </trkpt>
      <trkpt lat="-25.5088460" lon="-49.0369150">
        <ele>891.2</ele>
        <time>2021-04-17T13:29:22Z</time>
      </trkpt>
      <trkpt lat="-25.5088650" lon="-49.0368620">
        <ele>891.2</ele>
        <time>2021-04-17T13:29:23Z</time>
      </trkpt>
      <trkpt lat="-25.5088850" lon="-49.0368070">
        <ele>891.2</ele>
        <time>2021-04-17T13:29:24Z</time>
      </trkpt>
      <trkpt lat="-25.5089030" lon="-49.0367510">
        <ele>891.2</ele>
        <time>2021-04-17T13:29:25Z</time>
      </trkpt>
      <trkpt lat="-25.5089340" lon="-49.0366360">
        <ele>891.2</ele>
        <time>2021-04-17T13:29:27Z</time>
      </trkpt>
      <trkpt lat="-25.5089600" lon="-49.0365160">
        <ele>891.2</ele>
        <time>2021-04-17T13:29:29Z</time>
      </trkpt>
      <trkpt lat="-25.5089890" lon="-49.0364000">
        <ele>891.4</ele>
        <time>2021-04-17T13:29:31Z</time>
      </trkpt>
      <trkpt lat="-25.5090170" lon="-49.0362880">
        <ele>891.4</ele>
        <time>2021-04-17T13:29:33Z</time>
      </trkpt>
      <trkpt lat="-25.5090330" lon="-49.0361830">
        <ele>891.4</ele>
        <time>2021-04-17T13:29:35Z</time>
      </trkpt>
      <trkpt lat="-25.5090470" lon="-49.0360840">
        <ele>891.4</ele>
        <time>2021-04-17T13:29:37Z</time>
      </trkpt>
      <trkpt lat="-25.5090590" lon="-49.0359840">
        <ele>891.4</ele>
        <time>2021-04-17T13:29:39Z</time>
      </trkpt>
      <trkpt lat="-25.5090780" lon="-49.0358820">
        <ele>891.4</ele>
        <time>2021-04-17T13:29:41Z</time>
      </trkpt>
      <trkpt lat="-25.5090850" lon="-49.0358290">
        <ele>891.4</ele>
        <time>2021-04-17T13:29:42Z</time>
      </trkpt>
      <trkpt lat="-25.5090910" lon="-49.0357770">
        <ele>891.4</ele>
        <time>2021-04-17T13:29:43Z</time>
      </trkpt>
      <trkpt lat="-25.5091000" lon="-49.0357260">
        <ele>891.4</ele>
        <time>2021-04-17T13:29:44Z</time>
      </trkpt>
      <trkpt lat="-25.5091120" lon="-49.0356750">
        <ele>891.4</ele>
        <time>2021-04-17T13:29:45Z</time>
      </trkpt>
      <trkpt lat="-25.5091460" lon="-49.0355720">
        <ele>891.4</ele>
        <time>2021-04-17T13:29:47Z</time>
      </trkpt>
      <trkpt lat="-25.5091930" lon="-49.0354720">
        <ele>891.6</ele>
        <time>2021-04-17T13:29:49Z</time>
      </trkpt>
      <trkpt lat="-25.5092190" lon="-49.0354220">
        <ele>892.0</ele>
        <time>2021-04-17T13:29:50Z</time>
      </trkpt>
      <trkpt lat="-25.5092450" lon="-49.0353720">
        <ele>892.0</ele>
        <time>2021-04-17T13:29:51Z</time>
      </trkpt>
      <trkpt lat="-25.5093030" lon="-49.0352730">
        <ele>892.2</ele>
        <time>2021-04-17T13:29:53Z</time>
      </trkpt>
      <trkpt lat="-25.5093700" lon="-49.0351740">
        <ele>892.2</ele>
        <time>2021-04-17T13:29:55Z</time>
      </trkpt>
      <trkpt lat="-25.5094400" lon="-49.0350770">
        <ele>892.2</ele>
        <time>2021-04-17T13:29:57Z</time>
      </trkpt>
      <trkpt lat="-25.5094740" lon="-49.0350320">
        <ele>892.2</ele>
        <time>2021-04-17T13:29:58Z</time>
      </trkpt>
      <trkpt lat="-25.5095050" lon="-49.0349850">
        <ele>892.2</ele>
        <time>2021-04-17T13:29:59Z</time>
      </trkpt>
      <trkpt lat="-25.5095720" lon="-49.0348960">
        <ele>892.2</ele>
        <time>2021-04-17T13:30:01Z</time>
      </trkpt>
      <trkpt lat="-25.5096130" lon="-49.0348530">
        <ele>892.2</ele>
        <time>2021-04-17T13:30:02Z</time>
      </trkpt>
      <trkpt lat="-25.5096570" lon="-49.0348120">
        <ele>892.2</ele>
        <time>2021-04-17T13:30:03Z</time>
      </trkpt>
      <trkpt lat="-25.5097470" lon="-49.0347340">
        <ele>892.2</ele>
        <time>2021-04-17T13:30:05Z</time>
      </trkpt>
      <trkpt lat="-25.5098320" lon="-49.0346610">
        <ele>892.2</ele>
        <time>2021-04-17T13:30:07Z</time>
      </trkpt>
      <trkpt lat="-25.5099160" lon="-49.0345940">
        <ele>892.2</ele>
        <time>2021-04-17T13:30:09Z</time>
      </trkpt>
      <trkpt lat="-25.5100100" lon="-49.0345340">
        <ele>892.2</ele>
        <time>2021-04-17T13:30:11Z</time>
      </trkpt>
      <trkpt lat="-25.5101040" lon="-49.0344790">
        <ele>892.2</ele>
        <time>2021-04-17T13:30:13Z</time>
      </trkpt>
      <trkpt lat="-25.5101930" lon="-49.0344360">
        <ele>892.2</ele>
        <time>2021-04-17T13:30:15Z</time>
      </trkpt>
      <trkpt lat="-25.5102370" lon="-49.0344180">
        <ele>892.4</ele>
        <time>2021-04-17T13:30:16Z</time>
      </trkpt>
      <trkpt lat="-25.5102810" lon="-49.0344010">
        <ele>892.4</ele>
        <time>2021-04-17T13:30:17Z</time>
      </trkpt>
      <trkpt lat="-25.5103680" lon="-49.0343740">
        <ele>892.4</ele>
        <time>2021-04-17T13:30:19Z</time>
      </trkpt>
      <trkpt lat="-25.5104570" lon="-49.0343480">
        <ele>892.4</ele>
        <time>2021-04-17T13:30:21Z</time>
      </trkpt>
      <trkpt lat="-25.5105050" lon="-49.0343360">
        <ele>892.4</ele>
        <time>2021-04-17T13:30:22Z</time>
      </trkpt>
      <trkpt lat="-25.5105570" lon="-49.0343270">
        <ele>892.4</ele>
        <time>2021-04-17T13:30:23Z</time>
      </trkpt>
      <trkpt lat="-25.5106650" lon="-49.0343120">
        <ele>892.6</ele>
        <time>2021-04-17T13:30:25Z</time>
      </trkpt>
      <trkpt lat="-25.5107800" lon="-49.0342860">
        <ele>892.6</ele>
        <time>2021-04-17T13:30:27Z</time>
      </trkpt>
      <trkpt lat="-25.5108990" lon="-49.0342490">
        <ele>892.6</ele>
        <time>2021-04-17T13:30:29Z</time>
      </trkpt>
      <trkpt lat="-25.5109590" lon="-49.0342290">
        <ele>892.6</ele>
        <time>2021-04-17T13:30:30Z</time>
      </trkpt>
      <trkpt lat="-25.5110150" lon="-49.0342060">
        <ele>892.6</ele>
        <time>2021-04-17T13:30:31Z</time>
      </trkpt>
      <trkpt lat="-25.5111160" lon="-49.0341430">
        <ele>892.4</ele>
        <time>2021-04-17T13:30:33Z</time>
      </trkpt>
      <trkpt lat="-25.5111610" lon="-49.0341030">
        <ele>892.4</ele>
        <time>2021-04-17T13:30:34Z</time>
      </trkpt>
      <trkpt lat="-25.5112010" lon="-49.0340580">
        <ele>892.4</ele>
        <time>2021-04-17T13:30:35Z</time>
      </trkpt>
      <trkpt lat="-25.5112650" lon="-49.0339550">
        <ele>892.0</ele>
        <time>2021-04-17T13:30:37Z</time>
      </trkpt>
      <trkpt lat="-25.5112870" lon="-49.0339000">
        <ele>891.8</ele>
        <time>2021-04-17T13:30:38Z</time>
      </trkpt>
      <trkpt lat="-25.5113040" lon="-49.0338460">
        <ele>891.4</ele>
        <time>2021-04-17T13:30:39Z</time>
      </trkpt>
      <trkpt lat="-25.5113240" lon="-49.0337350">
        <ele>891.2</ele>
        <time>2021-04-17T13:30:41Z</time>
      </trkpt>
      <trkpt lat="-25.5113290" lon="-49.0336770">
        <ele>891.0</ele>
        <time>2021-04-17T13:30:42Z</time>
      </trkpt>
      <trkpt lat="-25.5113330" lon="-49.0336200">
        <ele>891.0</ele>
        <time>2021-04-17T13:30:43Z</time>
      </trkpt>
      <trkpt lat="-25.5113430" lon="-49.0335030">
        <ele>891.0</ele>
        <time>2021-04-17T13:30:45Z</time>
      </trkpt>
      <trkpt lat="-25.5113580" lon="-49.0333880">
        <ele>891.0</ele>
        <time>2021-04-17T13:30:47Z</time>
      </trkpt>
      <trkpt lat="-25.5113850" lon="-49.0332740">
        <ele>891.0</ele>
        <time>2021-04-17T13:30:49Z</time>
      </trkpt>
      <trkpt lat="-25.5114060" lon="-49.0332160">
        <ele>891.0</ele>
        <time>2021-04-17T13:30:50Z</time>
      </trkpt>
      <trkpt lat="-25.5114310" lon="-49.0331600">
        <ele>891.0</ele>
        <time>2021-04-17T13:30:51Z</time>
      </trkpt>
      <trkpt lat="-25.5114840" lon="-49.0330460">
        <ele>891.2</ele>
        <time>2021-04-17T13:30:53Z</time>
      </trkpt>
      <trkpt lat="-25.5115300" lon="-49.0329340">
        <ele>891.2</ele>
        <time>2021-04-17T13:30:55Z</time>
      </trkpt>
      <trkpt lat="-25.5115680" lon="-49.0328170">
        <ele>891.2</ele>
        <time>2021-04-17T13:30:57Z</time>
      </trkpt>
      <trkpt lat="-25.5116060" lon="-49.0326950">
        <ele>891.2</ele>
        <time>2021-04-17T13:30:59Z</time>
      </trkpt>
      <trkpt lat="-25.5116510" lon="-49.0325720">
        <ele>891.2</ele>
        <time>2021-04-17T13:31:01Z</time>
      </trkpt>
      <trkpt lat="-25.5117050" lon="-49.0324530">
        <ele>891.2</ele>
        <time>2021-04-17T13:31:03Z</time>
      </trkpt>
      <trkpt lat="-25.5117360" lon="-49.0323980">
        <ele>891.2</ele>
        <time>2021-04-17T13:31:04Z</time>
      </trkpt>
      <trkpt lat="-25.5117700" lon="-49.0323430">
        <ele>891.2</ele>
        <time>2021-04-17T13:31:05Z</time>
      </trkpt>
      <trkpt lat="-25.5118310" lon="-49.0322310">
        <ele>891.2</ele>
        <time>2021-04-17T13:31:07Z</time>
      </trkpt>
      <trkpt lat="-25.5118850" lon="-49.0321200">
        <ele>891.2</ele>
        <time>2021-04-17T13:31:09Z</time>
      </trkpt>
      <trkpt lat="-25.5119450" lon="-49.0320140">
        <ele>891.0</ele>
        <time>2021-04-17T13:31:11Z</time>
      </trkpt>
      <trkpt lat="-25.5120000" lon="-49.0319090">
        <ele>891.0</ele>
        <time>2021-04-17T13:31:13Z</time>
      </trkpt>
      <trkpt lat="-25.5120540" lon="-49.0318030">
        <ele>891.0</ele>
        <time>2021-04-17T13:31:15Z</time>
      </trkpt>
      <trkpt lat="-25.5121070" lon="-49.0316970">
        <ele>891.2</ele>
        <time>2021-04-17T13:31:17Z</time>
      </trkpt>
      <trkpt lat="-25.5121590" lon="-49.0315930">
        <ele>891.2</ele>
        <time>2021-04-17T13:31:19Z</time>
      </trkpt>
      <trkpt lat="-25.5122040" lon="-49.0314910">
        <ele>891.2</ele>
        <time>2021-04-17T13:31:21Z</time>
      </trkpt>
      <trkpt lat="-25.5122450" lon="-49.0313890">
        <ele>891.4</ele>
        <time>2021-04-17T13:31:23Z</time>
      </trkpt>
      <trkpt lat="-25.5122750" lon="-49.0312880">
        <ele>891.6</ele>
        <time>2021-04-17T13:31:25Z</time>
      </trkpt>
      <trkpt lat="-25.5122920" lon="-49.0311850">
        <ele>891.6</ele>
        <time>2021-04-17T13:31:27Z</time>
      </trkpt>
      <trkpt lat="-25.5122940" lon="-49.0310800">
        <ele>891.8</ele>
        <time>2021-04-17T13:31:29Z</time>
      </trkpt>
      <trkpt lat="-25.5122890" lon="-49.0309760">
        <ele>891.8</ele>
        <time>2021-04-17T13:31:31Z</time>
      </trkpt>
      <trkpt lat="-25.5122790" lon="-49.0308700">
        <ele>892.0</ele>
        <time>2021-04-17T13:31:33Z</time>
      </trkpt>
      <trkpt lat="-25.5122660" lon="-49.0307680">
        <ele>892.2</ele>
        <time>2021-04-17T13:31:35Z</time>
      </trkpt>
      <trkpt lat="-25.5122470" lon="-49.0306650">
        <ele>892.4</ele>
        <time>2021-04-17T13:31:37Z</time>
      </trkpt>
      <trkpt lat="-25.5122320" lon="-49.0305650">
        <ele>892.4</ele>
        <time>2021-04-17T13:31:39Z</time>
      </trkpt>
      <trkpt lat="-25.5122250" lon="-49.0305140">
        <ele>892.4</ele>
        <time>2021-04-17T13:31:40Z</time>
      </trkpt>
      <trkpt lat="-25.5122180" lon="-49.0304610">
        <ele>892.4</ele>
        <time>2021-04-17T13:31:41Z</time>
      </trkpt>
      <trkpt lat="-25.5122050" lon="-49.0303510">
        <ele>892.4</ele>
        <time>2021-04-17T13:31:43Z</time>
      </trkpt>
      <trkpt lat="-25.5121910" lon="-49.0302440">
        <ele>892.4</ele>
        <time>2021-04-17T13:31:45Z</time>
      </trkpt>
      <trkpt lat="-25.5121730" lon="-49.0301340">
        <ele>892.4</ele>
        <time>2021-04-17T13:31:47Z</time>
      </trkpt>
      <trkpt lat="-25.5121580" lon="-49.0300220">
        <ele>892.4</ele>
        <time>2021-04-17T13:31:49Z</time>
      </trkpt>
      <trkpt lat="-25.5121430" lon="-49.0299200">
        <ele>892.2</ele>
        <time>2021-04-17T13:31:51Z</time>
      </trkpt>
      <trkpt lat="-25.5121330" lon="-49.0298190">
        <ele>892.0</ele>
        <time>2021-04-17T13:31:53Z</time>
      </trkpt>
      <trkpt lat="-25.5121220" lon="-49.0297150">
        <ele>892.0</ele>
        <time>2021-04-17T13:31:55Z</time>
      </trkpt>
      <trkpt lat="-25.5121150" lon="-49.0296620">
        <ele>892.0</ele>
        <time>2021-04-17T13:31:56Z</time>
      </trkpt>
      <trkpt lat="-25.5121110" lon="-49.0296090">
        <ele>892.0</ele>
        <time>2021-04-17T13:31:57Z</time>
      </trkpt>
      <trkpt lat="-25.5120980" lon="-49.0295030">
        <ele>892.0</ele>
        <time>2021-04-17T13:31:59Z</time>
      </trkpt>
      <trkpt lat="-25.5120790" lon="-49.0293950">
        <ele>892.0</ele>
        <time>2021-04-17T13:32:01Z</time>
      </trkpt>
      <trkpt lat="-25.5120680" lon="-49.0292920">
        <ele>892.0</ele>
        <time>2021-04-17T13:32:03Z</time>
      </trkpt>
      <trkpt lat="-25.5120620" lon="-49.0292420">
        <ele>892.0</ele>
        <time>2021-04-17T13:32:04Z</time>
      </trkpt>
      <trkpt lat="-25.5120520" lon="-49.0291950">
        <ele>892.0</ele>
        <time>2021-04-17T13:32:05Z</time>
      </trkpt>
      <trkpt lat="-25.5120380" lon="-49.0291080">
        <ele>892.0</ele>
        <time>2021-04-17T13:32:07Z</time>
      </trkpt>
      <trkpt lat="-25.5120210" lon="-49.0290330">
        <ele>892.0</ele>
        <time>2021-04-17T13:32:09Z</time>
      </trkpt>
      <trkpt lat="-25.5120130" lon="-49.0289530">
        <ele>892.2</ele>
        <time>2021-04-17T13:32:11Z</time>
      </trkpt>
      <trkpt lat="-25.5120090" lon="-49.0289110">
        <ele>892.2</ele>
        <time>2021-04-17T13:32:12Z</time>
      </trkpt>
      <trkpt lat="-25.5120060" lon="-49.0288660">
        <ele>892.2</ele>
        <time>2021-04-17T13:32:13Z</time>
      </trkpt>
      <trkpt lat="-25.5120030" lon="-49.0287670">
        <ele>892.2</ele>
        <time>2021-04-17T13:32:15Z</time>
      </trkpt>
      <trkpt lat="-25.5120050" lon="-49.0287150">
        <ele>892.2</ele>
        <time>2021-04-17T13:32:16Z</time>
      </trkpt>
      <trkpt lat="-25.5120100" lon="-49.0286620">
        <ele>892.2</ele>
        <time>2021-04-17T13:32:17Z</time>
      </trkpt>
      <trkpt lat="-25.5120160" lon="-49.0286070">
        <ele>892.2</ele>
        <time>2021-04-17T13:32:18Z</time>
      </trkpt>
      <trkpt lat="-25.5120240" lon="-49.0285520">
        <ele>892.2</ele>
        <time>2021-04-17T13:32:19Z</time>
      </trkpt>
      <trkpt lat="-25.5120380" lon="-49.0284970">
        <ele>892.2</ele>
        <time>2021-04-17T13:32:20Z</time>
      </trkpt>
      <trkpt lat="-25.5120530" lon="-49.0284470">
        <ele>892.2</ele>
        <time>2021-04-17T13:32:21Z</time>
      </trkpt>
      <trkpt lat="-25.5120940" lon="-49.0283560">
        <ele>892.2</ele>
        <time>2021-04-17T13:32:23Z</time>
      </trkpt>
      <trkpt lat="-25.5121180" lon="-49.0283110">
        <ele>892.2</ele>
        <time>2021-04-17T13:32:24Z</time>
      </trkpt>
      <trkpt lat="-25.5121480" lon="-49.0282710">
        <ele>892.0</ele>
        <time>2021-04-17T13:32:25Z</time>
      </trkpt>
      <trkpt lat="-25.5122090" lon="-49.0281840">
        <ele>892.0</ele>
        <time>2021-04-17T13:32:27Z</time>
      </trkpt>
      <trkpt lat="-25.5122790" lon="-49.0280960">
        <ele>892.0</ele>
        <time>2021-04-17T13:32:29Z</time>
      </trkpt>
      <trkpt lat="-25.5123140" lon="-49.0280530">
        <ele>892.0</ele>
        <time>2021-04-17T13:32:30Z</time>
      </trkpt>
      <trkpt lat="-25.5123480" lon="-49.0280080">
        <ele>892.0</ele>
        <time>2021-04-17T13:32:31Z</time>
      </trkpt>
      <trkpt lat="-25.5124230" lon="-49.0279240">
        <ele>892.0</ele>
        <time>2021-04-17T13:32:33Z</time>
      </trkpt>
      <trkpt lat="-25.5125020" lon="-49.0278440">
        <ele>892.0</ele>
        <time>2021-04-17T13:32:35Z</time>
      </trkpt>
      <trkpt lat="-25.5125410" lon="-49.0278000">
        <ele>892.0</ele>
        <time>2021-04-17T13:32:36Z</time>
      </trkpt>
      <trkpt lat="-25.5125800" lon="-49.0277540">
        <ele>892.0</ele>
        <time>2021-04-17T13:32:37Z</time>
      </trkpt>
      <trkpt lat="-25.5126600" lon="-49.0276560">
        <ele>892.0</ele>
        <time>2021-04-17T13:32:39Z</time>
      </trkpt>
      <trkpt lat="-25.5127430" lon="-49.0275620">
        <ele>892.0</ele>
        <time>2021-04-17T13:32:41Z</time>
      </trkpt>
      <trkpt lat="-25.5128340" lon="-49.0274690">
        <ele>892.0</ele>
        <time>2021-04-17T13:32:43Z</time>
      </trkpt>
      <trkpt lat="-25.5128790" lon="-49.0274190">
        <ele>892.0</ele>
        <time>2021-04-17T13:32:44Z</time>
      </trkpt>
      <trkpt lat="-25.5129230" lon="-49.0273700">
        <ele>892.0</ele>
        <time>2021-04-17T13:32:45Z</time>
      </trkpt>
      <trkpt lat="-25.5130110" lon="-49.0272800">
        <ele>892.0</ele>
        <time>2021-04-17T13:32:47Z</time>
      </trkpt>
      <trkpt lat="-25.5130520" lon="-49.0272320">
        <ele>892.0</ele>
        <time>2021-04-17T13:32:48Z</time>
      </trkpt>
      <trkpt lat="-25.5130940" lon="-49.0271860">
        <ele>891.8</ele>
        <time>2021-04-17T13:32:49Z</time>
      </trkpt>
      <trkpt lat="-25.5131810" lon="-49.0270970">
        <ele>891.6</ele>
        <time>2021-04-17T13:32:51Z</time>
      </trkpt>
      <trkpt lat="-25.5132740" lon="-49.0270190">
        <ele>891.4</ele>
        <time>2021-04-17T13:32:53Z</time>
      </trkpt>
      <trkpt lat="-25.5133240" lon="-49.0269880">
        <ele>891.4</ele>
        <time>2021-04-17T13:32:54Z</time>
      </trkpt>
      <trkpt lat="-25.5133730" lon="-49.0269580">
        <ele>891.4</ele>
        <time>2021-04-17T13:32:55Z</time>
      </trkpt>
      <trkpt lat="-25.5134740" lon="-49.0269050">
        <ele>891.2</ele>
        <time>2021-04-17T13:32:57Z</time>
      </trkpt>
      <trkpt lat="-25.5135840" lon="-49.0268700">
        <ele>891.0</ele>
        <time>2021-04-17T13:32:59Z</time>
      </trkpt>
      <trkpt lat="-25.5136410" lon="-49.0268610">
        <ele>891.0</ele>
        <time>2021-04-17T13:33:00Z</time>
      </trkpt>
      <trkpt lat="-25.5136990" lon="-49.0268570">
        <ele>891.0</ele>
        <time>2021-04-17T13:33:01Z</time>
      </trkpt>
      <trkpt lat="-25.5138150" lon="-49.0268480">
        <ele>890.6</ele>
        <time>2021-04-17T13:33:03Z</time>
      </trkpt>
      <trkpt lat="-25.5139230" lon="-49.0268280">
        <ele>890.6</ele>
        <time>2021-04-17T13:33:05Z</time>
      </trkpt>
      <trkpt lat="-25.5139710" lon="-49.0268090">
        <ele>890.4</ele>
        <time>2021-04-17T13:33:06Z</time>
      </trkpt>
      <trkpt lat="-25.5140160" lon="-49.0267840">
        <ele>890.4</ele>
        <time>2021-04-17T13:33:07Z</time>
      </trkpt>
      <trkpt lat="-25.5140900" lon="-49.0267080">
        <ele>890.4</ele>
        <time>2021-04-17T13:33:09Z</time>
      </trkpt>
      <trkpt lat="-25.5141190" lon="-49.0266600">
        <ele>890.4</ele>
        <time>2021-04-17T13:33:10Z</time>
      </trkpt>
      <trkpt lat="-25.5141440" lon="-49.0266060">
        <ele>890.4</ele>
        <time>2021-04-17T13:33:11Z</time>
      </trkpt>
      <trkpt lat="-25.5141800" lon="-49.0264930">
        <ele>890.4</ele>
        <time>2021-04-17T13:33:13Z</time>
      </trkpt>
      <trkpt lat="-25.5142170" lon="-49.0263720">
        <ele>890.4</ele>
        <time>2021-04-17T13:33:15Z</time>
      </trkpt>
      <trkpt lat="-25.5142470" lon="-49.0262440">
        <ele>890.4</ele>
        <time>2021-04-17T13:33:17Z</time>
      </trkpt>
      <trkpt lat="-25.5142750" lon="-49.0261230">
        <ele>890.4</ele>
        <time>2021-04-17T13:33:19Z</time>
      </trkpt>
      <trkpt lat="-25.5143050" lon="-49.0260020">
        <ele>890.4</ele>
        <time>2021-04-17T13:33:21Z</time>
      </trkpt>
      <trkpt lat="-25.5143310" lon="-49.0258790">
        <ele>890.4</ele>
        <time>2021-04-17T13:33:23Z</time>
      </trkpt>
      <trkpt lat="-25.5143480" lon="-49.0257560">
        <ele>890.4</ele>
        <time>2021-04-17T13:33:25Z</time>
      </trkpt>
      <trkpt lat="-25.5143660" lon="-49.0256330">
        <ele>890.4</ele>
        <time>2021-04-17T13:33:27Z</time>
      </trkpt>
      <trkpt lat="-25.5143740" lon="-49.0255730">
        <ele>890.4</ele>
        <time>2021-04-17T13:33:28Z</time>
      </trkpt>
      <trkpt lat="-25.5143800" lon="-49.0255130">
        <ele>890.4</ele>
        <time>2021-04-17T13:33:29Z</time>
      </trkpt>
      <trkpt lat="-25.5143960" lon="-49.0253940">
        <ele>890.6</ele>
        <time>2021-04-17T13:33:31Z</time>
      </trkpt>
      <trkpt lat="-25.5144150" lon="-49.0252770">
        <ele>890.6</ele>
        <time>2021-04-17T13:33:33Z</time>
      </trkpt>
      <trkpt lat="-25.5144330" lon="-49.0251620">
        <ele>890.6</ele>
        <time>2021-04-17T13:33:35Z</time>
      </trkpt>
      <trkpt lat="-25.5144510" lon="-49.0250490">
        <ele>890.6</ele>
        <time>2021-04-17T13:33:37Z</time>
      </trkpt>
      <trkpt lat="-25.5144700" lon="-49.0249380">
        <ele>890.8</ele>
        <time>2021-04-17T13:33:39Z</time>
      </trkpt>
      <trkpt lat="-25.5144880" lon="-49.0248260">
        <ele>890.8</ele>
        <time>2021-04-17T13:33:41Z</time>
      </trkpt>
      <trkpt lat="-25.5145120" lon="-49.0247160">
        <ele>891.2</ele>
        <time>2021-04-17T13:33:43Z</time>
      </trkpt>
      <trkpt lat="-25.5145290" lon="-49.0246630">
        <ele>891.2</ele>
        <time>2021-04-17T13:33:44Z</time>
      </trkpt>
      <trkpt lat="-25.5145500" lon="-49.0246130">
        <ele>891.2</ele>
        <time>2021-04-17T13:33:45Z</time>
      </trkpt>
      <trkpt lat="-25.5145960" lon="-49.0245180">
        <ele>891.4</ele>
        <time>2021-04-17T13:33:47Z</time>
      </trkpt>
      <trkpt lat="-25.5146490" lon="-49.0244370">
        <ele>891.4</ele>
        <time>2021-04-17T13:33:49Z</time>
      </trkpt>
      <trkpt lat="-25.5147080" lon="-49.0243670">
        <ele>891.6</ele>
        <time>2021-04-17T13:33:51Z</time>
      </trkpt>
      <trkpt lat="-25.5147720" lon="-49.0243040">
        <ele>891.6</ele>
        <time>2021-04-17T13:33:53Z</time>
      </trkpt>
      <trkpt lat="-25.5148420" lon="-49.0242500">
        <ele>891.6</ele>
        <time>2021-04-17T13:33:55Z</time>
      </trkpt>
      <trkpt lat="-25.5149090" lon="-49.0241970">
        <ele>891.8</ele>
        <time>2021-04-17T13:33:57Z</time>
      </trkpt>
      <trkpt lat="-25.5149740" lon="-49.0241440">
        <ele>892.0</ele>
        <time>2021-04-17T13:33:59Z</time>
      </trkpt>
      <trkpt lat="-25.5150370" lon="-49.0240910">
        <ele>892.2</ele>
        <time>2021-04-17T13:34:01Z</time>
      </trkpt>
      <trkpt lat="-25.5151030" lon="-49.0240370">
        <ele>892.4</ele>
        <time>2021-04-17T13:34:03Z</time>
      </trkpt>
      <trkpt lat="-25.5151690" lon="-49.0239770">
        <ele>892.6</ele>
        <time>2021-04-17T13:34:05Z</time>
      </trkpt>
      <trkpt lat="-25.5152010" lon="-49.0239460">
        <ele>892.8</ele>
        <time>2021-04-17T13:34:06Z</time>
      </trkpt>
      <trkpt lat="-25.5152340" lon="-49.0239140">
        <ele>893.0</ele>
        <time>2021-04-17T13:34:07Z</time>
      </trkpt>
      <trkpt lat="-25.5153010" lon="-49.0238480">
        <ele>893.2</ele>
        <time>2021-04-17T13:34:09Z</time>
      </trkpt>
      <trkpt lat="-25.5153680" lon="-49.0237810">
        <ele>893.2</ele>
        <time>2021-04-17T13:34:11Z</time>
      </trkpt>
      <trkpt lat="-25.5154350" lon="-49.0237140">
        <ele>893.6</ele>
        <time>2021-04-17T13:34:13Z</time>
      </trkpt>
      <trkpt lat="-25.5155040" lon="-49.0236480">
        <ele>893.6</ele>
        <time>2021-04-17T13:34:15Z</time>
      </trkpt>
      <trkpt lat="-25.5155380" lon="-49.0236140">
        <ele>893.6</ele>
        <time>2021-04-17T13:34:16Z</time>
      </trkpt>
      <trkpt lat="-25.5155730" lon="-49.0235800">
        <ele>893.8</ele>
        <time>2021-04-17T13:34:17Z</time>
      </trkpt>
      <trkpt lat="-25.5156420" lon="-49.0235160">
        <ele>893.8</ele>
        <time>2021-04-17T13:34:19Z</time>
      </trkpt>
      <trkpt lat="-25.5157100" lon="-49.0234500">
        <ele>894.0</ele>
        <time>2021-04-17T13:34:21Z</time>
      </trkpt>
      <trkpt lat="-25.5157770" lon="-49.0233830">
        <ele>894.2</ele>
        <time>2021-04-17T13:34:23Z</time>
      </trkpt>
      <trkpt lat="-25.5158110" lon="-49.0233490">
        <ele>894.2</ele>
        <time>2021-04-17T13:34:24Z</time>
      </trkpt>
      <trkpt lat="-25.5158450" lon="-49.0233160">
        <ele>894.2</ele>
        <time>2021-04-17T13:34:25Z</time>
      </trkpt>
      <trkpt lat="-25.5159140" lon="-49.0232490">
        <ele>894.4</ele>
        <time>2021-04-17T13:34:27Z</time>
      </trkpt>
      <trkpt lat="-25.5159840" lon="-49.0231810">
        <ele>894.4</ele>
        <time>2021-04-17T13:34:29Z</time>
      </trkpt>
      <trkpt lat="-25.5160550" lon="-49.0231110">
        <ele>894.6</ele>
        <time>2021-04-17T13:34:31Z</time>
      </trkpt>
      <trkpt lat="-25.5160870" lon="-49.0230750">
        <ele>894.6</ele>
        <time>2021-04-17T13:34:32Z</time>
      </trkpt>
      <trkpt lat="-25.5161190" lon="-49.0230400">
        <ele>894.6</ele>
        <time>2021-04-17T13:34:33Z</time>
      </trkpt>
      <trkpt lat="-25.5161860" lon="-49.0229750">
        <ele>894.6</ele>
        <time>2021-04-17T13:34:35Z</time>
      </trkpt>
      <trkpt lat="-25.5162550" lon="-49.0229120">
        <ele>894.8</ele>
        <time>2021-04-17T13:34:37Z</time>
      </trkpt>
      <trkpt lat="-25.5163200" lon="-49.0228460">
        <ele>894.8</ele>
        <time>2021-04-17T13:34:39Z</time>
      </trkpt>
      <trkpt lat="-25.5163830" lon="-49.0227760">
        <ele>895.0</ele>
        <time>2021-04-17T13:34:41Z</time>
      </trkpt>
      <trkpt lat="-25.5164530" lon="-49.0227090">
        <ele>895.0</ele>
        <time>2021-04-17T13:34:43Z</time>
      </trkpt>
      <trkpt lat="-25.5164880" lon="-49.0226730">
        <ele>895.0</ele>
        <time>2021-04-17T13:34:44Z</time>
      </trkpt>
      <trkpt lat="-25.5165230" lon="-49.0226350">
        <ele>895.0</ele>
        <time>2021-04-17T13:34:45Z</time>
      </trkpt>
      <trkpt lat="-25.5165960" lon="-49.0225550">
        <ele>895.0</ele>
        <time>2021-04-17T13:34:47Z</time>
      </trkpt>
      <trkpt lat="-25.5166690" lon="-49.0224740">
        <ele>895.0</ele>
        <time>2021-04-17T13:34:49Z</time>
      </trkpt>
      <trkpt lat="-25.5167430" lon="-49.0223970">
        <ele>895.0</ele>
        <time>2021-04-17T13:34:51Z</time>
      </trkpt>
      <trkpt lat="-25.5168140" lon="-49.0223200">
        <ele>895.0</ele>
        <time>2021-04-17T13:34:53Z</time>
      </trkpt>
      <trkpt lat="-25.5168860" lon="-49.0222450">
        <ele>895.0</ele>
        <time>2021-04-17T13:34:55Z</time>
      </trkpt>
      <trkpt lat="-25.5169590" lon="-49.0221720">
        <ele>895.0</ele>
        <time>2021-04-17T13:34:57Z</time>
      </trkpt>
      <trkpt lat="-25.5170370" lon="-49.0221020">
        <ele>894.4</ele>
        <time>2021-04-17T13:34:59Z</time>
      </trkpt>
      <trkpt lat="-25.5170760" lon="-49.0220670">
        <ele>894.4</ele>
        <time>2021-04-17T13:35:00Z</time>
      </trkpt>
      <trkpt lat="-25.5171150" lon="-49.0220320">
        <ele>894.2</ele>
        <time>2021-04-17T13:35:01Z</time>
      </trkpt>
      <trkpt lat="-25.5171930" lon="-49.0219620">
        <ele>894.2</ele>
        <time>2021-04-17T13:35:03Z</time>
      </trkpt>
      <trkpt lat="-25.5172310" lon="-49.0219260">
        <ele>894.0</ele>
        <time>2021-04-17T13:35:04Z</time>
      </trkpt>
      <trkpt lat="-25.5172640" lon="-49.0218840">
        <ele>894.0</ele>
        <time>2021-04-17T13:35:05Z</time>
      </trkpt>
      <trkpt lat="-25.5172860" lon="-49.0218360">
        <ele>893.8</ele>
        <time>2021-04-17T13:35:06Z</time>
      </trkpt>
      <trkpt lat="-25.5172960" lon="-49.0217820">
        <ele>893.6</ele>
        <time>2021-04-17T13:35:07Z</time>
      </trkpt>
      <trkpt lat="-25.5172890" lon="-49.0217220">
        <ele>893.6</ele>
        <time>2021-04-17T13:35:08Z</time>
      </trkpt>
      <trkpt lat="-25.5172670" lon="-49.0216650">
        <ele>893.4</ele>
        <time>2021-04-17T13:35:09Z</time>
      </trkpt>
      <trkpt lat="-25.5171980" lon="-49.0215560">
        <ele>893.0</ele>
        <time>2021-04-17T13:35:11Z</time>
      </trkpt>
      <trkpt lat="-25.5171200" lon="-49.0214370">
        <ele>892.8</ele>
        <time>2021-04-17T13:35:13Z</time>
      </trkpt>
      <trkpt lat="-25.5170800" lon="-49.0213800">
        <ele>892.8</ele>
        <time>2021-04-17T13:35:14Z</time>
      </trkpt>
      <trkpt lat="-25.5170410" lon="-49.0213200">
        <ele>892.8</ele>
        <time>2021-04-17T13:35:15Z</time>
      </trkpt>
      <trkpt lat="-25.5169750" lon="-49.0211920">
        <ele>892.6</ele>
        <time>2021-04-17T13:35:17Z</time>
      </trkpt>
      <trkpt lat="-25.5169530" lon="-49.0211240">
        <ele>892.4</ele>
        <time>2021-04-17T13:35:18Z</time>
      </trkpt>
      <trkpt lat="-25.5169380" lon="-49.0210540">
        <ele>892.2</ele>
        <time>2021-04-17T13:35:19Z</time>
      </trkpt>
      <trkpt lat="-25.5169270" lon="-49.0209180">
        <ele>891.8</ele>
        <time>2021-04-17T13:35:21Z</time>
      </trkpt>
      <trkpt lat="-25.5169280" lon="-49.0207970">
        <ele>891.6</ele>
        <time>2021-04-17T13:35:23Z</time>
      </trkpt>
      <trkpt lat="-25.5169340" lon="-49.0207380">
        <ele>891.6</ele>
        <time>2021-04-17T13:35:24Z</time>
      </trkpt>
      <trkpt lat="-25.5169440" lon="-49.0206780">
        <ele>891.4</ele>
        <time>2021-04-17T13:35:25Z</time>
      </trkpt>
      <trkpt lat="-25.5169550" lon="-49.0206180">
        <ele>891.4</ele>
        <time>2021-04-17T13:35:26Z</time>
      </trkpt>
      <trkpt lat="-25.5169680" lon="-49.0205590">
        <ele>891.2</ele>
        <time>2021-04-17T13:35:27Z</time>
      </trkpt>
      <trkpt lat="-25.5169920" lon="-49.0204450">
        <ele>891.2</ele>
        <time>2021-04-17T13:35:29Z</time>
      </trkpt>
      <trkpt lat="-25.5170220" lon="-49.0203380">
        <ele>891.2</ele>
        <time>2021-04-17T13:35:31Z</time>
      </trkpt>
      <trkpt lat="-25.5170420" lon="-49.0202250">
        <ele>891.2</ele>
        <time>2021-04-17T13:35:33Z</time>
      </trkpt>
      <trkpt lat="-25.5170660" lon="-49.0201150">
        <ele>891.0</ele>
        <time>2021-04-17T13:35:35Z</time>
      </trkpt>
      <trkpt lat="-25.5170880" lon="-49.0200050">
        <ele>891.0</ele>
        <time>2021-04-17T13:35:37Z</time>
      </trkpt>
      <trkpt lat="-25.5171080" lon="-49.0198980">
        <ele>891.0</ele>
        <time>2021-04-17T13:35:39Z</time>
      </trkpt>
      <trkpt lat="-25.5171200" lon="-49.0198450">
        <ele>891.0</ele>
        <time>2021-04-17T13:35:40Z</time>
      </trkpt>
      <trkpt lat="-25.5171320" lon="-49.0197920">
        <ele>891.0</ele>
        <time>2021-04-17T13:35:41Z</time>
      </trkpt>
      <trkpt lat="-25.5171530" lon="-49.0196850">
        <ele>891.2</ele>
        <time>2021-04-17T13:35:43Z</time>
      </trkpt>
      <trkpt lat="-25.5171610" lon="-49.0195800">
        <ele>891.2</ele>
        <time>2021-04-17T13:35:45Z</time>
      </trkpt>
      <trkpt lat="-25.5171540" lon="-49.0195300">
        <ele>891.2</ele>
        <time>2021-04-17T13:35:46Z</time>
      </trkpt>
      <trkpt lat="-25.5171380" lon="-49.0194830">
        <ele>891.2</ele>
        <time>2021-04-17T13:35:47Z</time>
      </trkpt>
      <trkpt lat="-25.5170820" lon="-49.0193990">
        <ele>891.2</ele>
        <time>2021-04-17T13:35:49Z</time>
      </trkpt>
      <trkpt lat="-25.5170480" lon="-49.0193610">
        <ele>891.2</ele>
        <time>2021-04-17T13:35:50Z</time>
      </trkpt>
      <trkpt lat="-25.5170120" lon="-49.0193290">
        <ele>891.2</ele>
        <time>2021-04-17T13:35:51Z</time>
      </trkpt>
      <trkpt lat="-25.5169300" lon="-49.0192790">
        <ele>891.4</ele>
        <time>2021-04-17T13:35:53Z</time>
      </trkpt>
      <trkpt lat="-25.5168460" lon="-49.0192350">
        <ele>891.4</ele>
        <time>2021-04-17T13:35:55Z</time>
      </trkpt>
      <trkpt lat="-25.5167610" lon="-49.0191910">
        <ele>891.4</ele>
        <time>2021-04-17T13:35:57Z</time>
      </trkpt>
      <trkpt lat="-25.5166740" lon="-49.0191450">
        <ele>891.8</ele>
        <time>2021-04-17T13:35:59Z</time>
      </trkpt>
      <trkpt lat="-25.5165910" lon="-49.0190940">
        <ele>891.8</ele>
        <time>2021-04-17T13:36:01Z</time>
      </trkpt>
      <trkpt lat="-25.5165120" lon="-49.0190390">
        <ele>892.0</ele>
        <time>2021-04-17T13:36:03Z</time>
      </trkpt>
      <trkpt lat="-25.5164350" lon="-49.0189780">
        <ele>892.0</ele>
        <time>2021-04-17T13:36:05Z</time>
      </trkpt>
      <trkpt lat="-25.5163600" lon="-49.0189110">
        <ele>892.2</ele>
        <time>2021-04-17T13:36:07Z</time>
      </trkpt>
      <trkpt lat="-25.5162850" lon="-49.0188400">
        <ele>892.2</ele>
        <time>2021-04-17T13:36:09Z</time>
      </trkpt>
      <trkpt lat="-25.5162480" lon="-49.0188050">
        <ele>892.4</ele>
        <time>2021-04-17T13:36:10Z</time>
      </trkpt>
      <trkpt lat="-25.5162090" lon="-49.0187720">
        <ele>892.4</ele>
        <time>2021-04-17T13:36:11Z</time>
      </trkpt>
      <trkpt lat="-25.5161690" lon="-49.0187390">
        <ele>892.4</ele>
        <time>2021-04-17T13:36:12Z</time>
      </trkpt>
      <trkpt lat="-25.5161290" lon="-49.0187050">
        <ele>892.4</ele>
        <time>2021-04-17T13:36:13Z</time>
      </trkpt>
      <trkpt lat="-25.5160500" lon="-49.0186390">
        <ele>892.4</ele>
        <time>2021-04-17T13:36:15Z</time>
      </trkpt>
      <trkpt lat="-25.5159830" lon="-49.0185660">
        <ele>892.4</ele>
        <time>2021-04-17T13:36:17Z</time>
      </trkpt>
      <trkpt lat="-25.5159280" lon="-49.0184750">
        <ele>892.4</ele>
        <time>2021-04-17T13:36:19Z</time>
      </trkpt>
      <trkpt lat="-25.5158930" lon="-49.0183710">
        <ele>892.4</ele>
        <time>2021-04-17T13:36:21Z</time>
      </trkpt>
      <trkpt lat="-25.5158810" lon="-49.0183160">
        <ele>892.4</ele>
        <time>2021-04-17T13:36:22Z</time>
      </trkpt>
      <trkpt lat="-25.5158690" lon="-49.0182600">
        <ele>892.4</ele>
        <time>2021-04-17T13:36:23Z</time>
      </trkpt>
      <trkpt lat="-25.5158470" lon="-49.0181480">
        <ele>892.4</ele>
        <time>2021-04-17T13:36:25Z</time>
      </trkpt>
      <trkpt lat="-25.5158230" lon="-49.0180390">
        <ele>892.4</ele>
        <time>2021-04-17T13:36:27Z</time>
      </trkpt>
      <trkpt lat="-25.5158060" lon="-49.0179330">
        <ele>892.4</ele>
        <time>2021-04-17T13:36:29Z</time>
      </trkpt>
      <trkpt lat="-25.5157950" lon="-49.0178830">
        <ele>892.4</ele>
        <time>2021-04-17T13:36:30Z</time>
      </trkpt>
      <trkpt lat="-25.5157800" lon="-49.0178360">
        <ele>892.4</ele>
        <time>2021-04-17T13:36:31Z</time>
      </trkpt>
      <trkpt lat="-25.5157470" lon="-49.0177380">
        <ele>892.4</ele>
        <time>2021-04-17T13:36:33Z</time>
      </trkpt>
      <trkpt lat="-25.5157170" lon="-49.0176400">
        <ele>892.4</ele>
        <time>2021-04-17T13:36:35Z</time>
      </trkpt>
      <trkpt lat="-25.5156820" lon="-49.0175470">
        <ele>892.4</ele>
        <time>2021-04-17T13:36:37Z</time>
      </trkpt>
      <trkpt lat="-25.5156610" lon="-49.0174500">
        <ele>892.4</ele>
        <time>2021-04-17T13:36:39Z</time>
      </trkpt>
      <trkpt lat="-25.5156560" lon="-49.0173460">
        <ele>892.6</ele>
        <time>2021-04-17T13:36:41Z</time>
      </trkpt>
      <trkpt lat="-25.5156650" lon="-49.0172380">
        <ele>892.8</ele>
        <time>2021-04-17T13:36:43Z</time>
      </trkpt>
      <trkpt lat="-25.5156720" lon="-49.0171820">
        <ele>893.0</ele>
        <time>2021-04-17T13:36:44Z</time>
      </trkpt>
      <trkpt lat="-25.5156810" lon="-49.0171270">
        <ele>893.0</ele>
        <time>2021-04-17T13:36:45Z</time>
      </trkpt>
      <trkpt lat="-25.5156980" lon="-49.0170200">
        <ele>893.0</ele>
        <time>2021-04-17T13:36:47Z</time>
      </trkpt>
      <trkpt lat="-25.5157070" lon="-49.0169180">
        <ele>893.2</ele>
        <time>2021-04-17T13:36:49Z</time>
      </trkpt>
      <trkpt lat="-25.5157110" lon="-49.0168190">
        <ele>893.2</ele>
        <time>2021-04-17T13:36:51Z</time>
      </trkpt>
      <trkpt lat="-25.5157190" lon="-49.0167210">
        <ele>893.2</ele>
        <time>2021-04-17T13:36:53Z</time>
      </trkpt>
      <trkpt lat="-25.5157240" lon="-49.0166700">
        <ele>893.2</ele>
        <time>2021-04-17T13:36:54Z</time>
      </trkpt>
      <trkpt lat="-25.5157290" lon="-49.0166180">
        <ele>893.2</ele>
        <time>2021-04-17T13:36:55Z</time>
      </trkpt>
      <trkpt lat="-25.5157350" lon="-49.0165150">
        <ele>893.4</ele>
        <time>2021-04-17T13:36:57Z</time>
      </trkpt>
      <trkpt lat="-25.5157440" lon="-49.0164200">
        <ele>893.4</ele>
        <time>2021-04-17T13:36:59Z</time>
      </trkpt>
      <trkpt lat="-25.5157480" lon="-49.0163710">
        <ele>893.4</ele>
        <time>2021-04-17T13:37:00Z</time>
      </trkpt>
      <trkpt lat="-25.5157520" lon="-49.0163210">
        <ele>893.4</ele>
        <time>2021-04-17T13:37:01Z</time>
      </trkpt>
      <trkpt lat="-25.5157640" lon="-49.0162250">
        <ele>893.6</ele>
        <time>2021-04-17T13:37:03Z</time>
      </trkpt>
      <trkpt lat="-25.5157990" lon="-49.0161280">
        <ele>893.6</ele>
        <time>2021-04-17T13:37:05Z</time>
      </trkpt>
      <trkpt lat="-25.5158260" lon="-49.0160790">
        <ele>893.6</ele>
        <time>2021-04-17T13:37:06Z</time>
      </trkpt>
      <trkpt lat="-25.5158580" lon="-49.0160290">
        <ele>893.6</ele>
        <time>2021-04-17T13:37:07Z</time>
      </trkpt>
      <trkpt lat="-25.5159300" lon="-49.0159300">
        <ele>893.6</ele>
        <time>2021-04-17T13:37:09Z</time>
      </trkpt>
      <trkpt lat="-25.5160130" lon="-49.0158440">
        <ele>893.6</ele>
        <time>2021-04-17T13:37:11Z</time>
      </trkpt>
      <trkpt lat="-25.5160520" lon="-49.0158040">
        <ele>893.6</ele>
        <time>2021-04-17T13:37:12Z</time>
      </trkpt>
      <trkpt lat="-25.5160890" lon="-49.0157630">
        <ele>893.6</ele>
        <time>2021-04-17T13:37:13Z</time>
      </trkpt>
      <trkpt lat="-25.5161570" lon="-49.0156850">
        <ele>893.6</ele>
        <time>2021-04-17T13:37:15Z</time>
      </trkpt>
      <trkpt lat="-25.5162200" lon="-49.0156110">
        <ele>893.6</ele>
        <time>2021-04-17T13:37:17Z</time>
      </trkpt>
      <trkpt lat="-25.5162810" lon="-49.0155380">
        <ele>893.4</ele>
        <time>2021-04-17T13:37:19Z</time>
      </trkpt>
      <trkpt lat="-25.5163140" lon="-49.0155020">
        <ele>893.4</ele>
        <time>2021-04-17T13:37:20Z</time>
      </trkpt>
      <trkpt lat="-25.5163470" lon="-49.0154640">
        <ele>893.4</ele>
        <time>2021-04-17T13:37:21Z</time>
      </trkpt>
      <trkpt lat="-25.5164140" lon="-49.0153860">
        <ele>893.4</ele>
        <time>2021-04-17T13:37:23Z</time>
      </trkpt>
      <trkpt lat="-25.5164800" lon="-49.0153060">
        <ele>893.4</ele>
        <time>2021-04-17T13:37:25Z</time>
      </trkpt>
      <trkpt lat="-25.5165490" lon="-49.0152270">
        <ele>893.4</ele>
        <time>2021-04-17T13:37:27Z</time>
      </trkpt>
      <trkpt lat="-25.5166160" lon="-49.0151510">
        <ele>893.4</ele>
        <time>2021-04-17T13:37:29Z</time>
      </trkpt>
      <trkpt lat="-25.5166840" lon="-49.0150740">
        <ele>893.4</ele>
        <time>2021-04-17T13:37:31Z</time>
      </trkpt>
      <trkpt lat="-25.5167560" lon="-49.0149980">
        <ele>893.4</ele>
        <time>2021-04-17T13:37:33Z</time>
      </trkpt>
      <trkpt lat="-25.5168270" lon="-49.0149170">
        <ele>893.6</ele>
        <time>2021-04-17T13:37:35Z</time>
      </trkpt>
      <trkpt lat="-25.5168990" lon="-49.0148300">
        <ele>893.6</ele>
        <time>2021-04-17T13:37:37Z</time>
      </trkpt>
      <trkpt lat="-25.5169600" lon="-49.0147340">
        <ele>893.8</ele>
        <time>2021-04-17T13:37:39Z</time>
      </trkpt>
      <trkpt lat="-25.5169860" lon="-49.0146840">
        <ele>893.8</ele>
        <time>2021-04-17T13:37:40Z</time>
      </trkpt>
      <trkpt lat="-25.5170090" lon="-49.0146320">
        <ele>893.8</ele>
        <time>2021-04-17T13:37:41Z</time>
      </trkpt>
      <trkpt lat="-25.5170270" lon="-49.0145750">
        <ele>893.8</ele>
        <time>2021-04-17T13:37:42Z</time>
      </trkpt>
      <trkpt lat="-25.5170410" lon="-49.0145180">
        <ele>893.8</ele>
        <time>2021-04-17T13:37:43Z</time>
      </trkpt>
      <trkpt lat="-25.5170540" lon="-49.0144020">
        <ele>893.8</ele>
        <time>2021-04-17T13:37:45Z</time>
      </trkpt>
      <trkpt lat="-25.5170470" lon="-49.0142890">
        <ele>893.8</ele>
        <time>2021-04-17T13:37:47Z</time>
      </trkpt>
      <trkpt lat="-25.5170230" lon="-49.0141770">
        <ele>893.6</ele>
        <time>2021-04-17T13:37:49Z</time>
      </trkpt>
      <trkpt lat="-25.5170020" lon="-49.0141230">
        <ele>893.6</ele>
        <time>2021-04-17T13:37:50Z</time>
      </trkpt>
      <trkpt lat="-25.5169750" lon="-49.0140740">
        <ele>893.6</ele>
        <time>2021-04-17T13:37:51Z</time>
      </trkpt>
      <trkpt lat="-25.5169020" lon="-49.0139880">
        <ele>893.6</ele>
        <time>2021-04-17T13:37:53Z</time>
      </trkpt>
      <trkpt lat="-25.5168620" lon="-49.0139510">
        <ele>893.6</ele>
        <time>2021-04-17T13:37:54Z</time>
      </trkpt>
      <trkpt lat="-25.5168210" lon="-49.0139140">
        <ele>893.6</ele>
        <time>2021-04-17T13:37:55Z</time>
      </trkpt>
      <trkpt lat="-25.5167400" lon="-49.0138440">
        <ele>893.6</ele>
        <time>2021-04-17T13:37:57Z</time>
      </trkpt>
      <trkpt lat="-25.5166630" lon="-49.0137680">
        <ele>893.6</ele>
        <time>2021-04-17T13:37:59Z</time>
      </trkpt>
      <trkpt lat="-25.5165810" lon="-49.0136990">
        <ele>893.6</ele>
        <time>2021-04-17T13:38:01Z</time>
      </trkpt>
      <trkpt lat="-25.5165020" lon="-49.0136250">
        <ele>893.6</ele>
        <time>2021-04-17T13:38:03Z</time>
      </trkpt>
      <trkpt lat="-25.5164200" lon="-49.0135530">
        <ele>893.6</ele>
        <time>2021-04-17T13:38:05Z</time>
      </trkpt>
      <trkpt lat="-25.5163420" lon="-49.0134850">
        <ele>893.8</ele>
        <time>2021-04-17T13:38:07Z</time>
      </trkpt>
      <trkpt lat="-25.5162620" lon="-49.0134190">
        <ele>894.0</ele>
        <time>2021-04-17T13:38:09Z</time>
      </trkpt>
      <trkpt lat="-25.5161840" lon="-49.0133550">
        <ele>894.0</ele>
        <time>2021-04-17T13:38:11Z</time>
      </trkpt>
      <trkpt lat="-25.5161070" lon="-49.0132920">
        <ele>894.2</ele>
        <time>2021-04-17T13:38:13Z</time>
      </trkpt>
      <trkpt lat="-25.5160390" lon="-49.0132240">
        <ele>894.2</ele>
        <time>2021-04-17T13:38:15Z</time>
      </trkpt>
      <trkpt lat="-25.5160070" lon="-49.0131870">
        <ele>894.2</ele>
        <time>2021-04-17T13:38:16Z</time>
      </trkpt>
      <trkpt lat="-25.5159780" lon="-49.0131470">
        <ele>894.4</ele>
        <time>2021-04-17T13:38:17Z</time>
      </trkpt>
      <trkpt lat="-25.5159520" lon="-49.0131040">
        <ele>894.4</ele>
        <time>2021-04-17T13:38:18Z</time>
      </trkpt>
      <trkpt lat="-25.5159310" lon="-49.0130580">
        <ele>894.4</ele>
        <time>2021-04-17T13:38:19Z</time>
      </trkpt>
      <trkpt lat="-25.5159010" lon="-49.0129610">
        <ele>894.6</ele>
        <time>2021-04-17T13:38:21Z</time>
      </trkpt>
      <trkpt lat="-25.5158940" lon="-49.0128600">
        <ele>894.6</ele>
        <time>2021-04-17T13:38:23Z</time>
      </trkpt>
      <trkpt lat="-25.5159120" lon="-49.0127640">
        <ele>895.0</ele>
        <time>2021-04-17T13:38:25Z</time>
      </trkpt>
      <trkpt lat="-25.5159480" lon="-49.0126710">
        <ele>895.0</ele>
        <time>2021-04-17T13:38:27Z</time>
      </trkpt>
      <trkpt lat="-25.5159890" lon="-49.0125830">
        <ele>895.2</ele>
        <time>2021-04-17T13:38:29Z</time>
      </trkpt>
      <trkpt lat="-25.5160340" lon="-49.0125000">
        <ele>895.4</ele>
        <time>2021-04-17T13:38:31Z</time>
      </trkpt>
      <trkpt lat="-25.5160820" lon="-49.0124170">
        <ele>895.4</ele>
        <time>2021-04-17T13:38:33Z</time>
      </trkpt>
      <trkpt lat="-25.5161320" lon="-49.0123290">
        <ele>895.6</ele>
        <time>2021-04-17T13:38:35Z</time>
      </trkpt>
      <trkpt lat="-25.5161800" lon="-49.0122440">
        <ele>895.6</ele>
        <time>2021-04-17T13:38:37Z</time>
      </trkpt>
      <trkpt lat="-25.5162200" lon="-49.0121590">
        <ele>895.8</ele>
        <time>2021-04-17T13:38:39Z</time>
      </trkpt>
      <trkpt lat="-25.5162390" lon="-49.0121160">
        <ele>895.8</ele>
        <time>2021-04-17T13:38:40Z</time>
      </trkpt>
      <trkpt lat="-25.5162570" lon="-49.0120740">
        <ele>895.8</ele>
        <time>2021-04-17T13:38:41Z</time>
      </trkpt>
      <trkpt lat="-25.5162930" lon="-49.0119960">
        <ele>896.0</ele>
        <time>2021-04-17T13:38:43Z</time>
      </trkpt>
      <trkpt lat="-25.5163330" lon="-49.0119120">
        <ele>896.0</ele>
        <time>2021-04-17T13:38:45Z</time>
      </trkpt>
      <trkpt lat="-25.5163790" lon="-49.0118170">
        <ele>896.0</ele>
        <time>2021-04-17T13:38:47Z</time>
      </trkpt>
      <trkpt lat="-25.5164040" lon="-49.0117680">
        <ele>896.0</ele>
        <time>2021-04-17T13:38:48Z</time>
      </trkpt>
      <trkpt lat="-25.5164270" lon="-49.0117190">
        <ele>896.0</ele>
        <time>2021-04-17T13:38:49Z</time>
      </trkpt>
      <trkpt lat="-25.5164690" lon="-49.0116170">
        <ele>896.0</ele>
        <time>2021-04-17T13:38:51Z</time>
      </trkpt>
      <trkpt lat="-25.5165160" lon="-49.0115140">
        <ele>896.0</ele>
        <time>2021-04-17T13:38:53Z</time>
      </trkpt>
      <trkpt lat="-25.5165660" lon="-49.0114200">
        <ele>896.0</ele>
        <time>2021-04-17T13:38:55Z</time>
      </trkpt>
      <trkpt lat="-25.5166110" lon="-49.0113270">
        <ele>896.0</ele>
        <time>2021-04-17T13:38:57Z</time>
      </trkpt>
      <trkpt lat="-25.5166520" lon="-49.0112350">
        <ele>896.0</ele>
        <time>2021-04-17T13:38:59Z</time>
      </trkpt>
      <trkpt lat="-25.5166850" lon="-49.0111290">
        <ele>896.0</ele>
        <time>2021-04-17T13:39:01Z</time>
      </trkpt>
      <trkpt lat="-25.5167010" lon="-49.0110120">
        <ele>895.8</ele>
        <time>2021-04-17T13:39:03Z</time>
      </trkpt>
      <trkpt lat="-25.5166930" lon="-49.0108980">
        <ele>895.8</ele>
        <time>2021-04-17T13:39:05Z</time>
      </trkpt>
      <trkpt lat="-25.5166860" lon="-49.0108400">
        <ele>895.8</ele>
        <time>2021-04-17T13:39:06Z</time>
      </trkpt>
      <trkpt lat="-25.5166820" lon="-49.0107850">
        <ele>895.8</ele>
        <time>2021-04-17T13:39:07Z</time>
      </trkpt>
      <trkpt lat="-25.5166780" lon="-49.0106750">
        <ele>895.8</ele>
        <time>2021-04-17T13:39:09Z</time>
      </trkpt>
      <trkpt lat="-25.5166910" lon="-49.0105610">
        <ele>895.8</ele>
        <time>2021-04-17T13:39:11Z</time>
      </trkpt>
      <trkpt lat="-25.5167080" lon="-49.0105050">
        <ele>895.8</ele>
        <time>2021-04-17T13:39:12Z</time>
      </trkpt>
      <trkpt lat="-25.5167280" lon="-49.0104510">
        <ele>895.6</ele>
        <time>2021-04-17T13:39:13Z</time>
      </trkpt>
      <trkpt lat="-25.5167680" lon="-49.0103460">
        <ele>895.6</ele>
        <time>2021-04-17T13:39:15Z</time>
      </trkpt>
      <trkpt lat="-25.5168040" lon="-49.0102440">
        <ele>895.6</ele>
        <time>2021-04-17T13:39:17Z</time>
      </trkpt>
      <trkpt lat="-25.5168370" lon="-49.0101440">
        <ele>895.8</ele>
        <time>2021-04-17T13:39:19Z</time>
      </trkpt>
      <trkpt lat="-25.5168690" lon="-49.0100460">
        <ele>896.0</ele>
        <time>2021-04-17T13:39:21Z</time>
      </trkpt>
      <trkpt lat="-25.5168980" lon="-49.0099490">
        <ele>896.0</ele>
        <time>2021-04-17T13:39:23Z</time>
      </trkpt>
      <trkpt lat="-25.5169240" lon="-49.0098460">
        <ele>896.0</ele>
        <time>2021-04-17T13:39:25Z</time>
      </trkpt>
      <trkpt lat="-25.5169360" lon="-49.0097870">
        <ele>896.0</ele>
        <time>2021-04-17T13:39:26Z</time>
      </trkpt>
      <trkpt lat="-25.5169480" lon="-49.0097290">
        <ele>896.0</ele>
        <time>2021-04-17T13:39:27Z</time>
      </trkpt>
      <trkpt lat="-25.5169800" lon="-49.0096090">
        <ele>896.0</ele>
        <time>2021-04-17T13:39:29Z</time>
      </trkpt>
      <trkpt lat="-25.5170130" lon="-49.0094910">
        <ele>896.0</ele>
        <time>2021-04-17T13:39:31Z</time>
      </trkpt>
      <trkpt lat="-25.5170300" lon="-49.0094350">
        <ele>896.0</ele>
        <time>2021-04-17T13:39:32Z</time>
      </trkpt>
      <trkpt lat="-25.5170460" lon="-49.0093780">
        <ele>896.0</ele>
        <time>2021-04-17T13:39:33Z</time>
      </trkpt>
      <trkpt lat="-25.5170780" lon="-49.0092640">
        <ele>896.0</ele>
        <time>2021-04-17T13:39:35Z</time>
      </trkpt>
      <trkpt lat="-25.5171040" lon="-49.0091470">
        <ele>895.8</ele>
        <time>2021-04-17T13:39:37Z</time>
      </trkpt>
      <trkpt lat="-25.5171130" lon="-49.0090250">
        <ele>895.8</ele>
        <time>2021-04-17T13:39:39Z</time>
      </trkpt>
      <trkpt lat="-25.5171110" lon="-49.0089650">
        <ele>895.8</ele>
        <time>2021-04-17T13:39:40Z</time>
      </trkpt>
      <trkpt lat="-25.5171040" lon="-49.0089070">
        <ele>895.6</ele>
        <time>2021-04-17T13:39:41Z</time>
      </trkpt>
      <trkpt lat="-25.5170740" lon="-49.0087960">
        <ele>895.6</ele>
        <time>2021-04-17T13:39:43Z</time>
      </trkpt>
      <trkpt lat="-25.5170550" lon="-49.0087460">
        <ele>895.6</ele>
        <time>2021-04-17T13:39:44Z</time>
      </trkpt>
      <trkpt lat="-25.5170330" lon="-49.0086980">
        <ele>895.6</ele>
        <time>2021-04-17T13:39:45Z</time>
      </trkpt>
      <trkpt lat="-25.5169840" lon="-49.0086090">
        <ele>895.6</ele>
        <time>2021-04-17T13:39:47Z</time>
      </trkpt>
      <trkpt lat="-25.5169550" lon="-49.0085690">
        <ele>895.6</ele>
        <time>2021-04-17T13:39:48Z</time>
      </trkpt>
      <trkpt lat="-25.5169210" lon="-49.0085400">
        <ele>895.8</ele>
        <time>2021-04-17T13:39:49Z</time>
      </trkpt>
      <trkpt lat="-25.5168320" lon="-49.0085200">
        <ele>895.8</ele>
        <time>2021-04-17T13:39:51Z</time>
      </trkpt>
      <trkpt lat="-25.5167860" lon="-49.0085270">
        <ele>895.8</ele>
        <time>2021-04-17T13:39:52Z</time>
      </trkpt>
      <trkpt lat="-25.5167450" lon="-49.0085400">
        <ele>895.8</ele>
        <time>2021-04-17T13:39:53Z</time>
      </trkpt>
      <trkpt lat="-25.5166710" lon="-49.0085730">
        <ele>895.8</ele>
        <time>2021-04-17T13:39:55Z</time>
      </trkpt>
      <trkpt lat="-25.5166000" lon="-49.0086190">
        <ele>895.8</ele>
        <time>2021-04-17T13:39:57Z</time>
      </trkpt>
      <trkpt lat="-25.5165670" lon="-49.0086380">
        <ele>895.8</ele>
        <time>2021-04-17T13:39:58Z</time>
      </trkpt>
      <trkpt lat="-25.5165350" lon="-49.0086560">
        <ele>896.0</ele>
        <time>2021-04-17T13:39:59Z</time>
      </trkpt>
      <trkpt lat="-25.5164770" lon="-49.0086870">
        <ele>896.0</ele>
        <time>2021-04-17T13:40:01Z</time>
      </trkpt>
      <trkpt lat="-25.5164300" lon="-49.0087180">
        <ele>896.2</ele>
        <time>2021-04-17T13:40:03Z</time>
      </trkpt>
      <trkpt lat="-25.5163700" lon="-49.0087620">
        <ele>896.4</ele>
        <time>2021-04-17T13:40:05Z</time>
      </trkpt>
      <trkpt lat="-25.5162990" lon="-49.0087990">
        <ele>896.4</ele>
        <time>2021-04-17T13:40:07Z</time>
      </trkpt>
      <trkpt lat="-25.5162660" lon="-49.0088090">
        <ele>896.4</ele>
        <time>2021-04-17T13:40:08Z</time>
      </trkpt>
      <trkpt lat="-25.5162370" lon="-49.0088120">
        <ele>896.6</ele>
        <time>2021-04-17T13:40:09Z</time>
      </trkpt>
      <trkpt lat="-25.5161950" lon="-49.0088010">
        <ele>896.8</ele>
        <time>2021-04-17T13:40:11Z</time>
      </trkpt>
      <trkpt lat="-25.5161800" lon="-49.0087930">
        <ele>896.8</ele>
        <time>2021-04-17T13:40:12Z</time>
      </trkpt>
      <trkpt lat="-25.5161630" lon="-49.0087810">
        <ele>897.0</ele>
        <time>2021-04-17T13:40:13Z</time>
      </trkpt>
      <trkpt lat="-25.5161440" lon="-49.0087530">
        <ele>897.6</ele>
        <time>2021-04-17T13:40:15Z</time>
      </trkpt>
      <trkpt lat="-25.5161370" lon="-49.0087240">
        <ele>897.8</ele>
        <time>2021-04-17T13:40:17Z</time>
      </trkpt>
      <trkpt lat="-25.5161380" lon="-49.0087100">
        <ele>898.0</ele>
        <time>2021-04-17T13:40:18Z</time>
      </trkpt>
      <trkpt lat="-25.5161410" lon="-49.0086960">
        <ele>898.4</ele>
        <time>2021-04-17T13:40:19Z</time>
      </trkpt>
      <trkpt lat="-25.5161550" lon="-49.0086730">
        <ele>899.0</ele>
        <time>2021-04-17T13:40:21Z</time>
      </trkpt>
      <trkpt lat="-25.5161550" lon="-49.0086630">
        <ele>899.2</ele>
        <time>2021-04-17T13:40:22Z</time>
      </trkpt>
      <trkpt lat="-25.5161580" lon="-49.0086510">
        <ele>899.4</ele>
        <time>2021-04-17T13:40:23Z</time>
      </trkpt>
      <trkpt lat="-25.5161650" lon="-49.0086390">
        <ele>899.6</ele>
        <time>2021-04-17T13:40:24Z</time>
      </trkpt>
      <trkpt lat="-25.5161730" lon="-49.0086260">
        <ele>899.8</ele>
        <time>2021-04-17T13:40:25Z</time>
      </trkpt>
      <trkpt lat="-25.5161870" lon="-49.0086020">
        <ele>900.2</ele>
        <time>2021-04-17T13:40:27Z</time>
      </trkpt>
      <trkpt lat="-25.5162060" lon="-49.0085840">
        <ele>900.4</ele>
        <time>2021-04-17T13:40:29Z</time>
      </trkpt>
      <trkpt lat="-25.5162150" lon="-49.0085730">
        <ele>900.6</ele>
        <time>2021-04-17T13:40:30Z</time>
      </trkpt>
      <trkpt lat="-25.5162210" lon="-49.0085620">
        <ele>900.8</ele>
        <time>2021-04-17T13:40:31Z</time>
      </trkpt>
      <trkpt lat="-25.5162430" lon="-49.0085450">
        <ele>901.2</ele>
        <time>2021-04-17T13:40:33Z</time>
      </trkpt>
      <trkpt lat="-25.5162620" lon="-49.0085240">
        <ele>901.6</ele>
        <time>2021-04-17T13:40:35Z</time>
      </trkpt>
      <trkpt lat="-25.5162890" lon="-49.0085070">
        <ele>902.0</ele>
        <time>2021-04-17T13:40:37Z</time>
      </trkpt>
      <trkpt lat="-25.5163120" lon="-49.0084860">
        <ele>902.4</ele>
        <time>2021-04-17T13:40:39Z</time>
      </trkpt>
      <trkpt lat="-25.5163320" lon="-49.0084650">
        <ele>902.8</ele>
        <time>2021-04-17T13:40:41Z</time>
      </trkpt>
      <trkpt lat="-25.5163460" lon="-49.0084420">
        <ele>903.2</ele>
        <time>2021-04-17T13:40:43Z</time>
      </trkpt>
      <trkpt lat="-25.5163640" lon="-49.0084260">
        <ele>903.4</ele>
        <time>2021-04-17T13:40:45Z</time>
      </trkpt>
      <trkpt lat="-25.5163690" lon="-49.0084150">
        <ele>903.8</ele>
        <time>2021-04-17T13:40:46Z</time>
      </trkpt>
      <trkpt lat="-25.5163710" lon="-49.0084020">
        <ele>904.0</ele>
        <time>2021-04-17T13:40:47Z</time>
      </trkpt>
      <trkpt lat="-25.5163770" lon="-49.0083760">
        <ele>904.2</ele>
        <time>2021-04-17T13:40:49Z</time>
      </trkpt>
      <trkpt lat="-25.5163810" lon="-49.0083670">
        <ele>904.4</ele>
        <time>2021-04-17T13:40:50Z</time>
      </trkpt>
      <trkpt lat="-25.5163840" lon="-49.0083600">
        <ele>904.4</ele>
        <time>2021-04-17T13:40:51Z</time>
      </trkpt>
      <trkpt lat="-25.5163860" lon="-49.0083480">
        <ele>905.0</ele>
        <time>2021-04-17T13:40:53Z</time>
      </trkpt>
      <trkpt lat="-25.5163850" lon="-49.0083330">
        <ele>905.2</ele>
        <time>2021-04-17T13:40:55Z</time>
      </trkpt>
      <trkpt lat="-25.5163840" lon="-49.0083190">
        <ele>905.6</ele>
        <time>2021-04-17T13:40:56Z</time>
      </trkpt>
      <trkpt lat="-25.5163850" lon="-49.0083050">
        <ele>905.8</ele>
        <time>2021-04-17T13:40:57Z</time>
      </trkpt>
      <trkpt lat="-25.5163840" lon="-49.0082860">
        <ele>905.8</ele>
        <time>2021-04-17T13:40:58Z</time>
      </trkpt>
      <trkpt lat="-25.5163830" lon="-49.0082680">
        <ele>905.8</ele>
        <time>2021-04-17T13:40:59Z</time>
      </trkpt>
      <trkpt lat="-25.5163760" lon="-49.0082320">
        <ele>906.2</ele>
        <time>2021-04-17T13:41:01Z</time>
      </trkpt>
      <trkpt lat="-25.5163620" lon="-49.0082020">
        <ele>906.6</ele>
        <time>2021-04-17T13:41:03Z</time>
      </trkpt>
      <trkpt lat="-25.5163570" lon="-49.0081900">
        <ele>906.6</ele>
        <time>2021-04-17T13:41:04Z</time>
      </trkpt>
      <trkpt lat="-25.5163500" lon="-49.0081770">
        <ele>907.0</ele>
        <time>2021-04-17T13:41:05Z</time>
      </trkpt>
      <trkpt lat="-25.5163290" lon="-49.0081550">
        <ele>907.6</ele>
        <time>2021-04-17T13:41:07Z</time>
      </trkpt>
      <trkpt lat="-25.5163090" lon="-49.0081330">
        <ele>907.8</ele>
        <time>2021-04-17T13:41:09Z</time>
      </trkpt>
      <trkpt lat="-25.5163000" lon="-49.0081210">
        <ele>908.0</ele>
        <time>2021-04-17T13:41:10Z</time>
      </trkpt>
      <trkpt lat="-25.5162910" lon="-49.0081080">
        <ele>908.2</ele>
        <time>2021-04-17T13:41:11Z</time>
      </trkpt>
      <trkpt lat="-25.5162680" lon="-49.0080900">
        <ele>908.8</ele>
        <time>2021-04-17T13:41:13Z</time>
      </trkpt>
      <trkpt lat="-25.5162400" lon="-49.0080660">
        <ele>909.2</ele>
        <time>2021-04-17T13:41:15Z</time>
      </trkpt>
      <trkpt lat="-25.5162110" lon="-49.0080500">
        <ele>909.6</ele>
        <time>2021-04-17T13:41:17Z</time>
      </trkpt>
      <trkpt lat="-25.5161830" lon="-49.0080340">
        <ele>910.0</ele>
        <time>2021-04-17T13:41:19Z</time>
      </trkpt>
      <trkpt lat="-25.5161560" lon="-49.0080250">
        <ele>910.2</ele>
        <time>2021-04-17T13:41:21Z</time>
      </trkpt>
      <trkpt lat="-25.5161330" lon="-49.0080160">
        <ele>910.8</ele>
        <time>2021-04-17T13:41:23Z</time>
      </trkpt>
      <trkpt lat="-25.5161090" lon="-49.0080050">
        <ele>911.0</ele>
        <time>2021-04-17T13:41:25Z</time>
      </trkpt>
      <trkpt lat="-25.5160910" lon="-49.0079930">
        <ele>911.4</ele>
        <time>2021-04-17T13:41:27Z</time>
      </trkpt>
      <trkpt lat="-25.5160770" lon="-49.0079790">
        <ele>911.6</ele>
        <time>2021-04-17T13:41:29Z</time>
      </trkpt>
      <trkpt lat="-25.5160640" lon="-49.0079670">
        <ele>912.0</ele>
        <time>2021-04-17T13:41:31Z</time>
      </trkpt>
      <trkpt lat="-25.5160420" lon="-49.0079550">
        <ele>912.4</ele>
        <time>2021-04-17T13:41:33Z</time>
      </trkpt>
      <trkpt lat="-25.5160200" lon="-49.0079410">
        <ele>912.6</ele>
        <time>2021-04-17T13:41:35Z</time>
      </trkpt>
      <trkpt lat="-25.5160040" lon="-49.0079280">
        <ele>913.0</ele>
        <time>2021-04-17T13:41:37Z</time>
      </trkpt>
      <trkpt lat="-25.5159880" lon="-49.0079220">
        <ele>913.2</ele>
        <time>2021-04-17T13:41:39Z</time>
      </trkpt>
      <trkpt lat="-25.5159810" lon="-49.0079160">
        <ele>913.4</ele>
        <time>2021-04-17T13:41:40Z</time>
      </trkpt>
      <trkpt lat="-25.5159760" lon="-49.0079080">
        <ele>913.6</ele>
        <time>2021-04-17T13:41:41Z</time>
      </trkpt>
      <trkpt lat="-25.5159610" lon="-49.0078950">
        <ele>914.0</ele>
        <time>2021-04-17T13:41:43Z</time>
      </trkpt>
      <trkpt lat="-25.5159400" lon="-49.0078830">
        <ele>914.4</ele>
        <time>2021-04-17T13:41:45Z</time>
      </trkpt>
      <trkpt lat="-25.5159340" lon="-49.0078760">
        <ele>914.6</ele>
        <time>2021-04-17T13:41:46Z</time>
      </trkpt>
      <trkpt lat="-25.5159290" lon="-49.0078650">
        <ele>914.8</ele>
        <time>2021-04-17T13:41:47Z</time>
      </trkpt>
      <trkpt lat="-25.5159260" lon="-49.0078550">
        <ele>915.2</ele>
        <time>2021-04-17T13:41:48Z</time>
      </trkpt>
      <trkpt lat="-25.5159190" lon="-49.0078460">
        <ele>915.4</ele>
        <time>2021-04-17T13:41:49Z</time>
      </trkpt>
      <trkpt lat="-25.5158990" lon="-49.0078350">
        <ele>915.6</ele>
        <time>2021-04-17T13:41:51Z</time>
      </trkpt>
      <trkpt lat="-25.5158910" lon="-49.0078260">
        <ele>916.2</ele>
        <time>2021-04-17T13:41:52Z</time>
      </trkpt>
      <trkpt lat="-25.5158860" lon="-49.0078170">
        <ele>916.4</ele>
        <time>2021-04-17T13:41:53Z</time>
      </trkpt>
      <trkpt lat="-25.5158820" lon="-49.0078110">
        <ele>916.6</ele>
        <time>2021-04-17T13:41:54Z</time>
      </trkpt>
      <trkpt lat="-25.5158780" lon="-49.0078020">
        <ele>916.8</ele>
        <time>2021-04-17T13:41:55Z</time>
      </trkpt>
      <trkpt lat="-25.5158670" lon="-49.0077810">
        <ele>917.2</ele>
        <time>2021-04-17T13:41:57Z</time>
      </trkpt>
      <trkpt lat="-25.5158630" lon="-49.0077720">
        <ele>917.4</ele>
        <time>2021-04-17T13:41:58Z</time>
      </trkpt>
      <trkpt lat="-25.5158580" lon="-49.0077610">
        <ele>917.6</ele>
        <time>2021-04-17T13:41:59Z</time>
      </trkpt>
      <trkpt lat="-25.5158440" lon="-49.0077400">
        <ele>917.8</ele>
        <time>2021-04-17T13:42:01Z</time>
      </trkpt>
      <trkpt lat="-25.5158320" lon="-49.0077120">
        <ele>918.0</ele>
        <time>2021-04-17T13:42:03Z</time>
      </trkpt>
      <trkpt lat="-25.5158180" lon="-49.0076850">
        <ele>918.2</ele>
        <time>2021-04-17T13:42:05Z</time>
      </trkpt>
      <trkpt lat="-25.5158050" lon="-49.0076620">
        <ele>918.4</ele>
        <time>2021-04-17T13:42:07Z</time>
      </trkpt>
      <trkpt lat="-25.5157910" lon="-49.0076400">
        <ele>918.8</ele>
        <time>2021-04-17T13:42:09Z</time>
      </trkpt>
      <trkpt lat="-25.5157720" lon="-49.0076150">
        <ele>919.2</ele>
        <time>2021-04-17T13:42:11Z</time>
      </trkpt>
      <trkpt lat="-25.5157560" lon="-49.0075930">
        <ele>919.6</ele>
        <time>2021-04-17T13:42:13Z</time>
      </trkpt>
      <trkpt lat="-25.5157350" lon="-49.0075610">
        <ele>920.0</ele>
        <time>2021-04-17T13:42:15Z</time>
      </trkpt>
      <trkpt lat="-25.5157140" lon="-49.0075290">
        <ele>920.2</ele>
        <time>2021-04-17T13:42:17Z</time>
      </trkpt>
      <trkpt lat="-25.5157050" lon="-49.0075150">
        <ele>920.4</ele>
        <time>2021-04-17T13:42:18Z</time>
      </trkpt>
      <trkpt lat="-25.5156940" lon="-49.0074990">
        <ele>920.4</ele>
        <time>2021-04-17T13:42:19Z</time>
      </trkpt>
      <trkpt lat="-25.5156740" lon="-49.0074730">
        <ele>920.6</ele>
        <time>2021-04-17T13:42:21Z</time>
      </trkpt>
      <trkpt lat="-25.5156470" lon="-49.0074510">
        <ele>920.8</ele>
        <time>2021-04-17T13:42:23Z</time>
      </trkpt>
      <trkpt lat="-25.5156150" lon="-49.0074360">
        <ele>921.0</ele>
        <time>2021-04-17T13:42:25Z</time>
      </trkpt>
      <trkpt lat="-25.5155810" lon="-49.0074250">
        <ele>921.2</ele>
        <time>2021-04-17T13:42:27Z</time>
      </trkpt>
      <trkpt lat="-25.5155550" lon="-49.0074160">
        <ele>921.4</ele>
        <time>2021-04-17T13:42:29Z</time>
      </trkpt>
      <trkpt lat="-25.5155200" lon="-49.0074100">
        <ele>921.6</ele>
        <time>2021-04-17T13:42:31Z</time>
      </trkpt>
      <trkpt lat="-25.5155030" lon="-49.0074080">
        <ele>921.6</ele>
        <time>2021-04-17T13:42:32Z</time>
      </trkpt>
      <trkpt lat="-25.5154860" lon="-49.0074040">
        <ele>921.8</ele>
        <time>2021-04-17T13:42:33Z</time>
      </trkpt>
      <trkpt lat="-25.5154690" lon="-49.0074040">
        <ele>921.8</ele>
        <time>2021-04-17T13:42:34Z</time>
      </trkpt>
      <trkpt lat="-25.5154470" lon="-49.0074060">
        <ele>922.0</ele>
        <time>2021-04-17T13:42:35Z</time>
      </trkpt>
      <trkpt lat="-25.5154020" lon="-49.0074090">
        <ele>922.0</ele>
        <time>2021-04-17T13:42:37Z</time>
      </trkpt>
      <trkpt lat="-25.5153780" lon="-49.0074120">
        <ele>922.0</ele>
        <time>2021-04-17T13:42:38Z</time>
      </trkpt>
      <trkpt lat="-25.5153550" lon="-49.0074140">
        <ele>922.2</ele>
        <time>2021-04-17T13:42:39Z</time>
      </trkpt>
      <trkpt lat="-25.5153080" lon="-49.0074190">
        <ele>922.4</ele>
        <time>2021-04-17T13:42:41Z</time>
      </trkpt>
      <trkpt lat="-25.5152690" lon="-49.0074300">
        <ele>922.6</ele>
        <time>2021-04-17T13:42:43Z</time>
      </trkpt>
      <trkpt lat="-25.5152300" lon="-49.0074410">
        <ele>922.8</ele>
        <time>2021-04-17T13:42:45Z</time>
      </trkpt>
      <trkpt lat="-25.5151700" lon="-49.0074480">
        <ele>922.8</ele>
        <time>2021-04-17T13:42:47Z</time>
      </trkpt>
      <trkpt lat="-25.5151400" lon="-49.0074520">
        <ele>922.8</ele>
        <time>2021-04-17T13:42:48Z</time>
      </trkpt>
      <trkpt lat="-25.5151110" lon="-49.0074540">
        <ele>922.8</ele>
        <time>2021-04-17T13:42:49Z</time>
      </trkpt>
      <trkpt lat="-25.5150530" lon="-49.0074610">
        <ele>923.0</ele>
        <time>2021-04-17T13:42:51Z</time>
      </trkpt>
      <trkpt lat="-25.5149970" lon="-49.0074700">
        <ele>923.0</ele>
        <time>2021-04-17T13:42:53Z</time>
      </trkpt>
      <trkpt lat="-25.5149410" lon="-49.0074790">
        <ele>923.0</ele>
        <time>2021-04-17T13:42:55Z</time>
      </trkpt>
      <trkpt lat="-25.5148840" lon="-49.0074910">
        <ele>923.2</ele>
        <time>2021-04-17T13:42:57Z</time>
      </trkpt>
      <trkpt lat="-25.5148310" lon="-49.0075000">
        <ele>923.2</ele>
        <time>2021-04-17T13:42:59Z</time>
      </trkpt>
      <trkpt lat="-25.5147850" lon="-49.0075000">
        <ele>923.2</ele>
        <time>2021-04-17T13:43:01Z</time>
      </trkpt>
      <trkpt lat="-25.5147350" lon="-49.0074960">
        <ele>923.4</ele>
        <time>2021-04-17T13:43:03Z</time>
      </trkpt>
      <trkpt lat="-25.5146890" lon="-49.0074820">
        <ele>923.4</ele>
        <time>2021-04-17T13:43:05Z</time>
      </trkpt>
      <trkpt lat="-25.5146430" lon="-49.0074630">
        <ele>923.4</ele>
        <time>2021-04-17T13:43:07Z</time>
      </trkpt>
      <trkpt lat="-25.5146000" lon="-49.0074450">
        <ele>923.6</ele>
        <time>2021-04-17T13:43:09Z</time>
      </trkpt>
      <trkpt lat="-25.5145670" lon="-49.0074250">
        <ele>923.6</ele>
        <time>2021-04-17T13:43:11Z</time>
      </trkpt>
      <trkpt lat="-25.5145520" lon="-49.0074150">
        <ele>923.8</ele>
        <time>2021-04-17T13:43:12Z</time>
      </trkpt>
      <trkpt lat="-25.5145360" lon="-49.0074060">
        <ele>923.8</ele>
        <time>2021-04-17T13:43:13Z</time>
      </trkpt>
      <trkpt lat="-25.5145080" lon="-49.0073900">
        <ele>924.2</ele>
        <time>2021-04-17T13:43:15Z</time>
      </trkpt>
      <trkpt lat="-25.5144730" lon="-49.0073720">
        <ele>924.6</ele>
        <time>2021-04-17T13:43:17Z</time>
      </trkpt>
      <trkpt lat="-25.5144400" lon="-49.0073560">
        <ele>925.0</ele>
        <time>2021-04-17T13:43:19Z</time>
      </trkpt>
      <trkpt lat="-25.5144050" lon="-49.0073400">
        <ele>925.2</ele>
        <time>2021-04-17T13:43:21Z</time>
      </trkpt>
      <trkpt lat="-25.5143660" lon="-49.0073170">
        <ele>925.2</ele>
        <time>2021-04-17T13:43:23Z</time>
      </trkpt>
      <trkpt lat="-25.5143270" lon="-49.0072960">
        <ele>925.4</ele>
        <time>2021-04-17T13:43:25Z</time>
      </trkpt>
      <trkpt lat="-25.5142920" lon="-49.0072750">
        <ele>926.0</ele>
        <time>2021-04-17T13:43:27Z</time>
      </trkpt>
      <trkpt lat="-25.5142740" lon="-49.0072630">
        <ele>926.4</ele>
        <time>2021-04-17T13:43:28Z</time>
      </trkpt>
      <trkpt lat="-25.5142520" lon="-49.0072480">
        <ele>926.6</ele>
        <time>2021-04-17T13:43:29Z</time>
      </trkpt>
      <trkpt lat="-25.5142150" lon="-49.0072220">
        <ele>927.0</ele>
        <time>2021-04-17T13:43:31Z</time>
      </trkpt>
      <trkpt lat="-25.5141740" lon="-49.0071940">
        <ele>928.0</ele>
        <time>2021-04-17T13:43:33Z</time>
      </trkpt>
      <trkpt lat="-25.5141410" lon="-49.0071650">
        <ele>928.8</ele>
        <time>2021-04-17T13:43:35Z</time>
      </trkpt>
      <trkpt lat="-25.5141200" lon="-49.0071470">
        <ele>929.0</ele>
        <time>2021-04-17T13:43:36Z</time>
      </trkpt>
      <trkpt lat="-25.5141040" lon="-49.0071330">
        <ele>929.2</ele>
        <time>2021-04-17T13:43:37Z</time>
      </trkpt>
      <trkpt lat="-25.5140920" lon="-49.0071200">
        <ele>929.4</ele>
        <time>2021-04-17T13:43:38Z</time>
      </trkpt>
      <trkpt lat="-25.5140780" lon="-49.0071040">
        <ele>929.4</ele>
        <time>2021-04-17T13:43:39Z</time>
      </trkpt>
      <trkpt lat="-25.5140530" lon="-49.0070750">
        <ele>929.8</ele>
        <time>2021-04-17T13:43:41Z</time>
      </trkpt>
      <trkpt lat="-25.5140300" lon="-49.0070470">
        <ele>930.0</ele>
        <time>2021-04-17T13:43:43Z</time>
      </trkpt>
      <trkpt lat="-25.5140180" lon="-49.0070340">
        <ele>930.0</ele>
        <time>2021-04-17T13:43:44Z</time>
      </trkpt>
      <trkpt lat="-25.5140060" lon="-49.0070220">
        <ele>930.2</ele>
        <time>2021-04-17T13:43:45Z</time>
      </trkpt>
      <trkpt lat="-25.5139860" lon="-49.0070090">
        <ele>930.2</ele>
        <time>2021-04-17T13:43:46Z</time>
      </trkpt>
      <trkpt lat="-25.5139690" lon="-49.0069990">
        <ele>930.4</ele>
        <time>2021-04-17T13:43:47Z</time>
      </trkpt>
      <trkpt lat="-25.5139270" lon="-49.0069760">
        <ele>930.6</ele>
        <time>2021-04-17T13:43:49Z</time>
      </trkpt>
      <trkpt lat="-25.5139010" lon="-49.0069630">
        <ele>930.8</ele>
        <time>2021-04-17T13:43:50Z</time>
      </trkpt>
      <trkpt lat="-25.5138790" lon="-49.0069510">
        <ele>931.2</ele>
        <time>2021-04-17T13:43:51Z</time>
      </trkpt>
      <trkpt lat="-25.5138610" lon="-49.0069400">
        <ele>931.4</ele>
        <time>2021-04-17T13:43:52Z</time>
      </trkpt>
      <trkpt lat="-25.5138430" lon="-49.0069290">
        <ele>931.8</ele>
        <time>2021-04-17T13:43:53Z</time>
      </trkpt>
      <trkpt lat="-25.5138080" lon="-49.0069090">
        <ele>932.2</ele>
        <time>2021-04-17T13:43:55Z</time>
      </trkpt>
      <trkpt lat="-25.5137900" lon="-49.0069010">
        <ele>932.4</ele>
        <time>2021-04-17T13:43:56Z</time>
      </trkpt>
      <trkpt lat="-25.5137710" lon="-49.0068920">
        <ele>932.8</ele>
        <time>2021-04-17T13:43:57Z</time>
      </trkpt>
      <trkpt lat="-25.5137380" lon="-49.0068660">
        <ele>933.4</ele>
        <time>2021-04-17T13:43:59Z</time>
      </trkpt>
      <trkpt lat="-25.5137070" lon="-49.0068430">
        <ele>933.8</ele>
        <time>2021-04-17T13:44:01Z</time>
      </trkpt>
      <trkpt lat="-25.5136750" lon="-49.0068360">
        <ele>934.2</ele>
        <time>2021-04-17T13:44:03Z</time>
      </trkpt>
      <trkpt lat="-25.5136600" lon="-49.0068320">
        <ele>934.8</ele>
        <time>2021-04-17T13:44:04Z</time>
      </trkpt>
      <trkpt lat="-25.5136440" lon="-49.0068220">
        <ele>935.0</ele>
        <time>2021-04-17T13:44:05Z</time>
      </trkpt>
      <trkpt lat="-25.5136020" lon="-49.0068000">
        <ele>935.2</ele>
        <time>2021-04-17T13:44:07Z</time>
      </trkpt>
      <trkpt lat="-25.5135720" lon="-49.0067860">
        <ele>935.6</ele>
        <time>2021-04-17T13:44:09Z</time>
      </trkpt>
      <trkpt lat="-25.5135570" lon="-49.0067780">
        <ele>936.0</ele>
        <time>2021-04-17T13:44:10Z</time>
      </trkpt>
      <trkpt lat="-25.5135420" lon="-49.0067730">
        <ele>936.0</ele>
        <time>2021-04-17T13:44:11Z</time>
      </trkpt>
      <trkpt lat="-25.5135210" lon="-49.0067600">
        <ele>936.4</ele>
        <time>2021-04-17T13:44:13Z</time>
      </trkpt>
      <trkpt lat="-25.5135050" lon="-49.0067450">
        <ele>936.8</ele>
        <time>2021-04-17T13:44:15Z</time>
      </trkpt>
      <trkpt lat="-25.5135000" lon="-49.0067360">
        <ele>937.0</ele>
        <time>2021-04-17T13:44:16Z</time>
      </trkpt>
      <trkpt lat="-25.5134950" lon="-49.0067270">
        <ele>937.0</ele>
        <time>2021-04-17T13:44:17Z</time>
      </trkpt>
      <trkpt lat="-25.5134780" lon="-49.0066990">
        <ele>937.2</ele>
        <time>2021-04-17T13:44:19Z</time>
      </trkpt>
      <trkpt lat="-25.5134560" lon="-49.0066650">
        <ele>937.6</ele>
        <time>2021-04-17T13:44:21Z</time>
      </trkpt>
      <trkpt lat="-25.5134300" lon="-49.0066300">
        <ele>937.8</ele>
        <time>2021-04-17T13:44:23Z</time>
      </trkpt>
      <trkpt lat="-25.5134130" lon="-49.0066080">
        <ele>937.8</ele>
        <time>2021-04-17T13:44:24Z</time>
      </trkpt>
      <trkpt lat="-25.5134030" lon="-49.0065920">
        <ele>937.8</ele>
        <time>2021-04-17T13:44:25Z</time>
      </trkpt>
      <trkpt lat="-25.5133930" lon="-49.0065740">
        <ele>938.0</ele>
        <time>2021-04-17T13:44:26Z</time>
      </trkpt>
      <trkpt lat="-25.5133780" lon="-49.0065560">
        <ele>938.0</ele>
        <time>2021-04-17T13:44:27Z</time>
      </trkpt>
      <trkpt lat="-25.5133610" lon="-49.0065230">
        <ele>938.4</ele>
        <time>2021-04-17T13:44:29Z</time>
      </trkpt>
      <trkpt lat="-25.5133550" lon="-49.0064910">
        <ele>938.6</ele>
        <time>2021-04-17T13:44:31Z</time>
      </trkpt>
      <trkpt lat="-25.5133650" lon="-49.0064540">
        <ele>938.8</ele>
        <time>2021-04-17T13:44:33Z</time>
      </trkpt>
      <trkpt lat="-25.5133750" lon="-49.0064250">
        <ele>939.0</ele>
        <time>2021-04-17T13:44:35Z</time>
      </trkpt>
      <trkpt lat="-25.5133740" lon="-49.0063990">
        <ele>939.2</ele>
        <time>2021-04-17T13:44:37Z</time>
      </trkpt>
      <trkpt lat="-25.5133780" lon="-49.0063760">
        <ele>939.4</ele>
        <time>2021-04-17T13:44:39Z</time>
      </trkpt>
      <trkpt lat="-25.5133800" lon="-49.0063490">
        <ele>939.4</ele>
        <time>2021-04-17T13:44:41Z</time>
      </trkpt>
      <trkpt lat="-25.5133790" lon="-49.0063220">
        <ele>939.6</ele>
        <time>2021-04-17T13:44:43Z</time>
      </trkpt>
      <trkpt lat="-25.5133840" lon="-49.0062870">
        <ele>939.8</ele>
        <time>2021-04-17T13:44:45Z</time>
      </trkpt>
      <trkpt lat="-25.5133920" lon="-49.0062500">
        <ele>940.2</ele>
        <time>2021-04-17T13:44:47Z</time>
      </trkpt>
      <trkpt lat="-25.5133960" lon="-49.0062360">
        <ele>940.4</ele>
        <time>2021-04-17T13:44:48Z</time>
      </trkpt>
      <trkpt lat="-25.5133930" lon="-49.0062170">
        <ele>940.6</ele>
        <time>2021-04-17T13:44:49Z</time>
      </trkpt>
      <trkpt lat="-25.5133910" lon="-49.0061850">
        <ele>941.0</ele>
        <time>2021-04-17T13:44:51Z</time>
      </trkpt>
      <trkpt lat="-25.5133900" lon="-49.0061720">
        <ele>941.2</ele>
        <time>2021-04-17T13:44:52Z</time>
      </trkpt>
      <trkpt lat="-25.5133900" lon="-49.0061590">
        <ele>941.4</ele>
        <time>2021-04-17T13:44:53Z</time>
      </trkpt>
      <trkpt lat="-25.5133920" lon="-49.0061440">
        <ele>941.4</ele>
        <time>2021-04-17T13:44:54Z</time>
      </trkpt>
      <trkpt lat="-25.5133890" lon="-49.0061260">
        <ele>941.6</ele>
        <time>2021-04-17T13:44:55Z</time>
      </trkpt>
      <trkpt lat="-25.5133860" lon="-49.0060860">
        <ele>942.0</ele>
        <time>2021-04-17T13:44:57Z</time>
      </trkpt>
      <trkpt lat="-25.5133850" lon="-49.0060700">
        <ele>942.2</ele>
        <time>2021-04-17T13:44:58Z</time>
      </trkpt>
      <trkpt lat="-25.5133860" lon="-49.0060550">
        <ele>942.4</ele>
        <time>2021-04-17T13:44:59Z</time>
      </trkpt>
      <trkpt lat="-25.5133840" lon="-49.0060190">
        <ele>942.8</ele>
        <time>2021-04-17T13:45:01Z</time>
      </trkpt>
      <trkpt lat="-25.5133880" lon="-49.0060000">
        <ele>943.2</ele>
        <time>2021-04-17T13:45:02Z</time>
      </trkpt>
      <trkpt lat="-25.5133890" lon="-49.0059790">
        <ele>943.4</ele>
        <time>2021-04-17T13:45:03Z</time>
      </trkpt>
      <trkpt lat="-25.5133970" lon="-49.0059390">
        <ele>944.0</ele>
        <time>2021-04-17T13:45:05Z</time>
      </trkpt>
      <trkpt lat="-25.5134000" lon="-49.0059200">
        <ele>944.4</ele>
        <time>2021-04-17T13:45:06Z</time>
      </trkpt>
      <trkpt lat="-25.5134030" lon="-49.0059010">
        <ele>944.6</ele>
        <time>2021-04-17T13:45:07Z</time>
      </trkpt>
      <trkpt lat="-25.5134110" lon="-49.0058670">
        <ele>945.2</ele>
        <time>2021-04-17T13:45:09Z</time>
      </trkpt>
      <trkpt lat="-25.5134160" lon="-49.0058340">
        <ele>945.6</ele>
        <time>2021-04-17T13:45:11Z</time>
      </trkpt>
      <trkpt lat="-25.5134160" lon="-49.0057990">
        <ele>946.0</ele>
        <time>2021-04-17T13:45:13Z</time>
      </trkpt>
      <trkpt lat="-25.5134110" lon="-49.0057810">
        <ele>946.2</ele>
        <time>2021-04-17T13:45:14Z</time>
      </trkpt>
      <trkpt lat="-25.5134080" lon="-49.0057610">
        <ele>946.6</ele>
        <time>2021-04-17T13:45:15Z</time>
      </trkpt>
      <trkpt lat="-25.5133980" lon="-49.0057400">
        <ele>946.8</ele>
        <time>2021-04-17T13:45:16Z</time>
      </trkpt>
      <trkpt lat="-25.5133880" lon="-49.0057220">
        <ele>946.8</ele>
        <time>2021-04-17T13:45:17Z</time>
      </trkpt>
      <trkpt lat="-25.5133730" lon="-49.0056890">
        <ele>947.6</ele>
        <time>2021-04-17T13:45:19Z</time>
      </trkpt>
      <trkpt lat="-25.5133650" lon="-49.0056710">
        <ele>948.0</ele>
        <time>2021-04-17T13:45:20Z</time>
      </trkpt>
      <trkpt lat="-25.5133540" lon="-49.0056510">
        <ele>948.2</ele>
        <time>2021-04-17T13:45:21Z</time>
      </trkpt>
      <trkpt lat="-25.5133360" lon="-49.0056220">
        <ele>948.6</ele>
        <time>2021-04-17T13:45:23Z</time>
      </trkpt>
      <trkpt lat="-25.5133180" lon="-49.0055980">
        <ele>949.2</ele>
        <time>2021-04-17T13:45:25Z</time>
      </trkpt>
      <trkpt lat="-25.5132950" lon="-49.0055760">
        <ele>949.6</ele>
        <time>2021-04-17T13:45:27Z</time>
      </trkpt>
      <trkpt lat="-25.5132750" lon="-49.0055570">
        <ele>950.0</ele>
        <time>2021-04-17T13:45:29Z</time>
      </trkpt>
      <trkpt lat="-25.5132610" lon="-49.0055500">
        <ele>950.2</ele>
        <time>2021-04-17T13:45:30Z</time>
      </trkpt>
      <trkpt lat="-25.5132460" lon="-49.0055440">
        <ele>950.6</ele>
        <time>2021-04-17T13:45:31Z</time>
      </trkpt>
      <trkpt lat="-25.5132080" lon="-49.0055320">
        <ele>950.8</ele>
        <time>2021-04-17T13:45:33Z</time>
      </trkpt>
      <trkpt lat="-25.5131720" lon="-49.0055220">
        <ele>951.0</ele>
        <time>2021-04-17T13:45:35Z</time>
      </trkpt>
      <trkpt lat="-25.5131360" lon="-49.0055140">
        <ele>951.2</ele>
        <time>2021-04-17T13:45:37Z</time>
      </trkpt>
      <trkpt lat="-25.5131180" lon="-49.0055120">
        <ele>951.4</ele>
        <time>2021-04-17T13:45:38Z</time>
      </trkpt>
      <trkpt lat="-25.5130990" lon="-49.0055100">
        <ele>951.4</ele>
        <time>2021-04-17T13:45:39Z</time>
      </trkpt>
      <trkpt lat="-25.5130650" lon="-49.0055000">
        <ele>951.6</ele>
        <time>2021-04-17T13:45:41Z</time>
      </trkpt>
      <trkpt lat="-25.5130260" lon="-49.0054890">
        <ele>951.8</ele>
        <time>2021-04-17T13:45:43Z</time>
      </trkpt>
      <trkpt lat="-25.5130070" lon="-49.0054840">
        <ele>952.0</ele>
        <time>2021-04-17T13:45:44Z</time>
      </trkpt>
      <trkpt lat="-25.5129870" lon="-49.0054770">
        <ele>952.0</ele>
        <time>2021-04-17T13:45:45Z</time>
      </trkpt>
      <trkpt lat="-25.5129490" lon="-49.0054640">
        <ele>952.0</ele>
        <time>2021-04-17T13:45:47Z</time>
      </trkpt>
      <trkpt lat="-25.5129210" lon="-49.0054460">
        <ele>952.2</ele>
        <time>2021-04-17T13:45:49Z</time>
      </trkpt>
      <trkpt lat="-25.5128850" lon="-49.0054080">
        <ele>952.4</ele>
        <time>2021-04-17T13:45:51Z</time>
      </trkpt>
      <trkpt lat="-25.5128260" lon="-49.0053630">
        <ele>952.4</ele>
        <time>2021-04-17T13:45:53Z</time>
      </trkpt>
      <trkpt lat="-25.5127630" lon="-49.0053220">
        <ele>952.4</ele>
        <time>2021-04-17T13:45:55Z</time>
      </trkpt>
      <trkpt lat="-25.5127340" lon="-49.0053100">
        <ele>952.4</ele>
        <time>2021-04-17T13:45:56Z</time>
      </trkpt>
      <trkpt lat="-25.5127050" lon="-49.0052970">
        <ele>952.4</ele>
        <time>2021-04-17T13:45:57Z</time>
      </trkpt>
      <trkpt lat="-25.5126480" lon="-49.0052540">
        <ele>952.4</ele>
        <time>2021-04-17T13:45:59Z</time>
      </trkpt>
      <trkpt lat="-25.5126090" lon="-49.0052000">
        <ele>952.4</ele>
        <time>2021-04-17T13:46:01Z</time>
      </trkpt>
      <trkpt lat="-25.5125980" lon="-49.0051670">
        <ele>952.4</ele>
        <time>2021-04-17T13:46:02Z</time>
      </trkpt>
      <trkpt lat="-25.5125910" lon="-49.0051280">
        <ele>952.2</ele>
        <time>2021-04-17T13:46:03Z</time>
      </trkpt>
      <trkpt lat="-25.5125810" lon="-49.0050560">
        <ele>951.8</ele>
        <time>2021-04-17T13:46:05Z</time>
      </trkpt>
      <trkpt lat="-25.5125600" lon="-49.0049650">
        <ele>951.8</ele>
        <time>2021-04-17T13:46:07Z</time>
      </trkpt>
      <trkpt lat="-25.5125210" lon="-49.0048840">
        <ele>951.6</ele>
        <time>2021-04-17T13:46:09Z</time>
      </trkpt>
      <trkpt lat="-25.5124740" lon="-49.0048070">
        <ele>951.6</ele>
        <time>2021-04-17T13:46:11Z</time>
      </trkpt>
      <trkpt lat="-25.5124370" lon="-49.0047340">
        <ele>951.6</ele>
        <time>2021-04-17T13:46:13Z</time>
      </trkpt>
      <trkpt lat="-25.5124080" lon="-49.0046640">
        <ele>951.6</ele>
        <time>2021-04-17T13:46:15Z</time>
      </trkpt>
      <trkpt lat="-25.5123800" lon="-49.0045880">
        <ele>951.4</ele>
        <time>2021-04-17T13:46:17Z</time>
      </trkpt>
      <trkpt lat="-25.5123610" lon="-49.0045180">
        <ele>951.4</ele>
        <time>2021-04-17T13:46:19Z</time>
      </trkpt>
      <trkpt lat="-25.5123440" lon="-49.0044560">
        <ele>951.4</ele>
        <time>2021-04-17T13:46:21Z</time>
      </trkpt>
      <trkpt lat="-25.5123340" lon="-49.0044230">
        <ele>951.4</ele>
        <time>2021-04-17T13:46:22Z</time>
      </trkpt>
      <trkpt lat="-25.5123250" lon="-49.0043940">
        <ele>951.4</ele>
        <time>2021-04-17T13:46:23Z</time>
      </trkpt>
      <trkpt lat="-25.5123170" lon="-49.0043620">
        <ele>951.4</ele>
        <time>2021-04-17T13:46:24Z</time>
      </trkpt>
      <trkpt lat="-25.5123070" lon="-49.0043290">
        <ele>951.2</ele>
        <time>2021-04-17T13:46:25Z</time>
      </trkpt>
      <trkpt lat="-25.5122950" lon="-49.0042980">
        <ele>951.2</ele>
        <time>2021-04-17T13:46:26Z</time>
      </trkpt>
      <trkpt lat="-25.5122820" lon="-49.0042620">
        <ele>951.2</ele>
        <time>2021-04-17T13:46:27Z</time>
      </trkpt>
      <trkpt lat="-25.5122590" lon="-49.0041790">
        <ele>951.0</ele>
        <time>2021-04-17T13:46:29Z</time>
      </trkpt>
      <trkpt lat="-25.5122230" lon="-49.0040990">
        <ele>951.0</ele>
        <time>2021-04-17T13:46:31Z</time>
      </trkpt>
      <trkpt lat="-25.5121820" lon="-49.0040170">
        <ele>951.0</ele>
        <time>2021-04-17T13:46:33Z</time>
      </trkpt>
      <trkpt lat="-25.5121570" lon="-49.0039340">
        <ele>951.0</ele>
        <time>2021-04-17T13:46:35Z</time>
      </trkpt>
      <trkpt lat="-25.5121430" lon="-49.0038620">
        <ele>951.0</ele>
        <time>2021-04-17T13:46:37Z</time>
      </trkpt>
      <trkpt lat="-25.5121390" lon="-49.0038010">
        <ele>951.0</ele>
        <time>2021-04-17T13:46:39Z</time>
      </trkpt>
      <trkpt lat="-25.5121430" lon="-49.0037360">
        <ele>951.2</ele>
        <time>2021-04-17T13:46:41Z</time>
      </trkpt>
      <trkpt lat="-25.5121450" lon="-49.0036760">
        <ele>951.4</ele>
        <time>2021-04-17T13:46:43Z</time>
      </trkpt>
      <trkpt lat="-25.5121490" lon="-49.0036120">
        <ele>951.4</ele>
        <time>2021-04-17T13:46:45Z</time>
      </trkpt>
      <trkpt lat="-25.5121590" lon="-49.0035530">
        <ele>952.0</ele>
        <time>2021-04-17T13:46:47Z</time>
      </trkpt>
      <trkpt lat="-25.5121640" lon="-49.0034940">
        <ele>952.4</ele>
        <time>2021-04-17T13:46:49Z</time>
      </trkpt>
      <trkpt lat="-25.5121710" lon="-49.0034340">
        <ele>953.0</ele>
        <time>2021-04-17T13:46:51Z</time>
      </trkpt>
      <trkpt lat="-25.5121730" lon="-49.0033740">
        <ele>953.2</ele>
        <time>2021-04-17T13:46:53Z</time>
      </trkpt>
      <trkpt lat="-25.5121730" lon="-49.0033190">
        <ele>953.4</ele>
        <time>2021-04-17T13:46:55Z</time>
      </trkpt>
      <trkpt lat="-25.5121650" lon="-49.0032600">
        <ele>954.0</ele>
        <time>2021-04-17T13:46:57Z</time>
      </trkpt>
      <trkpt lat="-25.5121550" lon="-49.0032080">
        <ele>954.2</ele>
        <time>2021-04-17T13:46:59Z</time>
      </trkpt>
      <trkpt lat="-25.5121460" lon="-49.0031580">
        <ele>954.6</ele>
        <time>2021-04-17T13:47:01Z</time>
      </trkpt>
      <trkpt lat="-25.5121400" lon="-49.0031020">
        <ele>955.0</ele>
        <time>2021-04-17T13:47:03Z</time>
      </trkpt>
      <trkpt lat="-25.5121280" lon="-49.0030570">
        <ele>955.4</ele>
        <time>2021-04-17T13:47:05Z</time>
      </trkpt>
      <trkpt lat="-25.5121250" lon="-49.0030360">
        <ele>955.4</ele>
        <time>2021-04-17T13:47:06Z</time>
      </trkpt>
      <trkpt lat="-25.5121220" lon="-49.0030130">
        <ele>955.6</ele>
        <time>2021-04-17T13:47:07Z</time>
      </trkpt>
      <trkpt lat="-25.5121110" lon="-49.0029590">
        <ele>956.2</ele>
        <time>2021-04-17T13:47:09Z</time>
      </trkpt>
      <trkpt lat="-25.5120790" lon="-49.0028990">
        <ele>956.6</ele>
        <time>2021-04-17T13:47:11Z</time>
      </trkpt>
      <trkpt lat="-25.5120680" lon="-49.0028720">
        <ele>956.6</ele>
        <time>2021-04-17T13:47:12Z</time>
      </trkpt>
      <trkpt lat="-25.5120560" lon="-49.0028360">
        <ele>956.8</ele>
        <time>2021-04-17T13:47:13Z</time>
      </trkpt>
      <trkpt lat="-25.5120360" lon="-49.0027820">
        <ele>957.0</ele>
        <time>2021-04-17T13:47:15Z</time>
      </trkpt>
      <trkpt lat="-25.5120080" lon="-49.0027190">
        <ele>957.4</ele>
        <time>2021-04-17T13:47:17Z</time>
      </trkpt>
      <trkpt lat="-25.5119940" lon="-49.0026900">
        <ele>957.8</ele>
        <time>2021-04-17T13:47:18Z</time>
      </trkpt>
      <trkpt lat="-25.5119800" lon="-49.0026580">
        <ele>958.0</ele>
        <time>2021-04-17T13:47:19Z</time>
      </trkpt>
      <trkpt lat="-25.5119500" lon="-49.0026020">
        <ele>958.6</ele>
        <time>2021-04-17T13:47:21Z</time>
      </trkpt>
      <trkpt lat="-25.5119320" lon="-49.0025800">
        <ele>959.0</ele>
        <time>2021-04-17T13:47:22Z</time>
      </trkpt>
      <trkpt lat="-25.5119140" lon="-49.0025600">
        <ele>959.2</ele>
        <time>2021-04-17T13:47:23Z</time>
      </trkpt>
      <trkpt lat="-25.5118800" lon="-49.0025260">
        <ele>959.8</ele>
        <time>2021-04-17T13:47:25Z</time>
      </trkpt>
      <trkpt lat="-25.5118650" lon="-49.0025070">
        <ele>960.0</ele>
        <time>2021-04-17T13:47:26Z</time>
      </trkpt>
      <trkpt lat="-25.5118510" lon="-49.0024900">
        <ele>960.2</ele>
        <time>2021-04-17T13:47:27Z</time>
      </trkpt>
      <trkpt lat="-25.5118200" lon="-49.0024620">
        <ele>960.4</ele>
        <time>2021-04-17T13:47:29Z</time>
      </trkpt>
      <trkpt lat="-25.5117810" lon="-49.0024380">
        <ele>960.6</ele>
        <time>2021-04-17T13:47:31Z</time>
      </trkpt>
      <trkpt lat="-25.5117440" lon="-49.0024140">
        <ele>960.8</ele>
        <time>2021-04-17T13:47:33Z</time>
      </trkpt>
      <trkpt lat="-25.5117010" lon="-49.0023920">
        <ele>960.8</ele>
        <time>2021-04-17T13:47:35Z</time>
      </trkpt>
      <trkpt lat="-25.5116600" lon="-49.0023600">
        <ele>961.0</ele>
        <time>2021-04-17T13:47:37Z</time>
      </trkpt>
      <trkpt lat="-25.5116270" lon="-49.0023200">
        <ele>961.0</ele>
        <time>2021-04-17T13:47:39Z</time>
      </trkpt>
      <trkpt lat="-25.5116110" lon="-49.0022970">
        <ele>961.2</ele>
        <time>2021-04-17T13:47:40Z</time>
      </trkpt>
      <trkpt lat="-25.5115950" lon="-49.0022750">
        <ele>961.2</ele>
        <time>2021-04-17T13:47:41Z</time>
      </trkpt>
      <trkpt lat="-25.5115590" lon="-49.0022340">
        <ele>961.4</ele>
        <time>2021-04-17T13:47:43Z</time>
      </trkpt>
      <trkpt lat="-25.5115270" lon="-49.0021950">
        <ele>961.4</ele>
        <time>2021-04-17T13:47:45Z</time>
      </trkpt>
      <trkpt lat="-25.5115160" lon="-49.0021440">
        <ele>961.4</ele>
        <time>2021-04-17T13:47:47Z</time>
      </trkpt>
      <trkpt lat="-25.5115170" lon="-49.0021210">
        <ele>961.6</ele>
        <time>2021-04-17T13:47:48Z</time>
      </trkpt>
      <trkpt lat="-25.5115230" lon="-49.0021010">
        <ele>961.6</ele>
        <time>2021-04-17T13:47:49Z</time>
      </trkpt>
      <trkpt lat="-25.5115390" lon="-49.0020620">
        <ele>961.6</ele>
        <time>2021-04-17T13:47:51Z</time>
      </trkpt>
      <trkpt lat="-25.5115520" lon="-49.0020290">
        <ele>961.8</ele>
        <time>2021-04-17T13:47:53Z</time>
      </trkpt>
      <trkpt lat="-25.5115610" lon="-49.0020170">
        <ele>962.0</ele>
        <time>2021-04-17T13:47:54Z</time>
      </trkpt>
      <trkpt lat="-25.5115720" lon="-49.0020070">
        <ele>962.2</ele>
        <time>2021-04-17T13:47:55Z</time>
      </trkpt>
      <trkpt lat="-25.5115980" lon="-49.0019800">
        <ele>962.6</ele>
        <time>2021-04-17T13:47:57Z</time>
      </trkpt>
      <trkpt lat="-25.5116220" lon="-49.0019570">
        <ele>963.0</ele>
        <time>2021-04-17T13:47:59Z</time>
      </trkpt>
      <trkpt lat="-25.5116330" lon="-49.0019370">
        <ele>963.2</ele>
        <time>2021-04-17T13:48:01Z</time>
      </trkpt>
      <trkpt lat="-25.5116360" lon="-49.0019290">
        <ele>963.4</ele>
        <time>2021-04-17T13:48:03Z</time>
      </trkpt>
      <trkpt lat="-25.5116340" lon="-49.0019200">
        <ele>963.8</ele>
        <time>2021-04-17T13:48:05Z</time>
      </trkpt>
      <trkpt lat="-25.5116300" lon="-49.0019110">
        <ele>963.8</ele>
        <time>2021-04-17T13:48:07Z</time>
      </trkpt>
      <trkpt lat="-25.5116170" lon="-49.0018900">
        <ele>964.0</ele>
        <time>2021-04-17T13:48:09Z</time>
      </trkpt>
      <trkpt lat="-25.5116070" lon="-49.0018770">
        <ele>964.0</ele>
        <time>2021-04-17T13:48:10Z</time>
      </trkpt>
      <trkpt lat="-25.5116020" lon="-49.0018670">
        <ele>964.0</ele>
        <time>2021-04-17T13:48:11Z</time>
      </trkpt>
      <trkpt lat="-25.5115930" lon="-49.0018490">
        <ele>964.0</ele>
        <time>2021-04-17T13:48:13Z</time>
      </trkpt>
      <trkpt lat="-25.5115890" lon="-49.0018370">
        <ele>964.2</ele>
        <time>2021-04-17T13:48:15Z</time>
      </trkpt>
      <trkpt lat="-25.5115880" lon="-49.0018360">
        <ele>964.2</ele>
        <time>2021-04-17T13:48:17Z</time>
      </trkpt>
      <trkpt lat="-25.5115860" lon="-49.0018360">
        <ele>964.2</ele>
        <time>2021-04-17T13:48:19Z</time>
      </trkpt>
      <trkpt lat="-25.5115860" lon="-49.0018340">
        <ele>964.2</ele>
        <time>2021-04-17T13:48:21Z</time>
      </trkpt>
      <trkpt lat="-25.5115850" lon="-49.0018340">
        <ele>964.2</ele>
        <time>2021-04-17T13:48:23Z</time>
      </trkpt>
      <trkpt lat="-25.5115840" lon="-49.0018340">
        <ele>964.2</ele>
        <time>2021-04-17T13:48:25Z</time>
      </trkpt>
      <trkpt lat="-25.5115830" lon="-49.0018340">
        <ele>964.2</ele>
        <time>2021-04-17T13:48:26Z</time>
      </trkpt>
      <trkpt lat="-25.5115830" lon="-49.0018340">
        <ele>964.2</ele>
        <time>2021-04-17T13:48:27Z</time>
      </trkpt>
      <trkpt lat="-25.5115830" lon="-49.0018340">
        <ele>964.2</ele>
        <time>2021-04-17T13:48:29Z</time>
      </trkpt>
      <trkpt lat="-25.5115830" lon="-49.0018340">
        <ele>964.2</ele>
        <time>2021-04-17T13:48:31Z</time>
      </trkpt>
      <trkpt lat="-25.5115830" lon="-49.0018350">
        <ele>964.2</ele>
        <time>2021-04-17T13:48:33Z</time>
      </trkpt>
      <trkpt lat="-25.5115830" lon="-49.0018350">
        <ele>964.2</ele>
        <time>2021-04-17T13:48:34Z</time>
      </trkpt>
      <trkpt lat="-25.5115830" lon="-49.0018360">
        <ele>964.2</ele>
        <time>2021-04-17T13:48:35Z</time>
      </trkpt>
      <trkpt lat="-25.5115820" lon="-49.0018370">
        <ele>964.4</ele>
        <time>2021-04-17T13:48:37Z</time>
      </trkpt>
      <trkpt lat="-25.5115820" lon="-49.0018370">
        <ele>964.4</ele>
        <time>2021-04-17T13:48:38Z</time>
      </trkpt>
      <trkpt lat="-25.5115820" lon="-49.0018370">
        <ele>964.4</ele>
        <time>2021-04-17T13:48:39Z</time>
      </trkpt>
      <trkpt lat="-25.5115820" lon="-49.0018380">
        <ele>964.4</ele>
        <time>2021-04-17T13:48:41Z</time>
      </trkpt>
      <trkpt lat="-25.5115820" lon="-49.0018380">
        <ele>964.4</ele>
        <time>2021-04-17T13:48:43Z</time>
      </trkpt>
      <trkpt lat="-25.5115820" lon="-49.0018380">
        <ele>964.4</ele>
        <time>2021-04-17T13:48:45Z</time>
      </trkpt>
      <trkpt lat="-25.5115820" lon="-49.0018380">
        <ele>964.4</ele>
        <time>2021-04-17T13:48:47Z</time>
      </trkpt>
      <trkpt lat="-25.5115820" lon="-49.0018380">
        <ele>964.4</ele>
        <time>2021-04-17T13:48:49Z</time>
      </trkpt>
      <trkpt lat="-25.5115820" lon="-49.0018380">
        <ele>964.4</ele>
        <time>2021-04-17T13:48:51Z</time>
      </trkpt>
      <trkpt lat="-25.5115820" lon="-49.0018380">
        <ele>964.4</ele>
        <time>2021-04-17T13:48:53Z</time>
      </trkpt>
      <trkpt lat="-25.5115810" lon="-49.0018380">
        <ele>964.4</ele>
        <time>2021-04-17T13:48:55Z</time>
      </trkpt>
      <trkpt lat="-25.5115810" lon="-49.0018380">
        <ele>964.4</ele>
        <time>2021-04-17T13:48:57Z</time>
      </trkpt>
      <trkpt lat="-25.5115810" lon="-49.0018380">
        <ele>964.4</ele>
        <time>2021-04-17T13:48:59Z</time>
      </trkpt>
      <trkpt lat="-25.5115810" lon="-49.0018380">
        <ele>964.4</ele>
        <time>2021-04-17T13:49:01Z</time>
      </trkpt>
      <trkpt lat="-25.5115820" lon="-49.0018370">
        <ele>964.4</ele>
        <time>2021-04-17T13:49:03Z</time>
      </trkpt>
      <trkpt lat="-25.5115870" lon="-49.0018340">
        <ele>964.4</ele>
        <time>2021-04-17T13:49:05Z</time>
      </trkpt>
      <trkpt lat="-25.5115880" lon="-49.0018330">
        <ele>964.4</ele>
        <time>2021-04-17T13:49:06Z</time>
      </trkpt>
      <trkpt lat="-25.5115880" lon="-49.0018330">
        <ele>964.4</ele>
        <time>2021-04-17T13:49:07Z</time>
      </trkpt>
      <trkpt lat="-25.5115880" lon="-49.0018340">
        <ele>964.4</ele>
        <time>2021-04-17T13:49:09Z</time>
      </trkpt>
      <trkpt lat="-25.5115860" lon="-49.0018330">
        <ele>964.4</ele>
        <time>2021-04-17T13:49:11Z</time>
      </trkpt>
      <trkpt lat="-25.5115850" lon="-49.0018310">
        <ele>964.4</ele>
        <time>2021-04-17T13:49:13Z</time>
      </trkpt>
      <trkpt lat="-25.5115830" lon="-49.0018310">
        <ele>964.4</ele>
        <time>2021-04-17T13:49:15Z</time>
      </trkpt>
      <trkpt lat="-25.5115810" lon="-49.0018310">
        <ele>964.4</ele>
        <time>2021-04-17T13:49:17Z</time>
      </trkpt>
      <trkpt lat="-25.5115810" lon="-49.0018310">
        <ele>964.4</ele>
        <time>2021-04-17T13:49:19Z</time>
      </trkpt>
      <trkpt lat="-25.5115800" lon="-49.0018310">
        <ele>964.4</ele>
        <time>2021-04-17T13:49:21Z</time>
      </trkpt>
      <trkpt lat="-25.5115800" lon="-49.0018310">
        <ele>964.4</ele>
        <time>2021-04-17T13:49:22Z</time>
      </trkpt>
      <trkpt lat="-25.5115800" lon="-49.0018300">
        <ele>964.4</ele>
        <time>2021-04-17T13:49:23Z</time>
      </trkpt>
      <trkpt lat="-25.5115800" lon="-49.0018320">
        <ele>964.4</ele>
        <time>2021-04-17T13:49:25Z</time>
      </trkpt>
      <trkpt lat="-25.5115780" lon="-49.0018380">
        <ele>964.4</ele>
        <time>2021-04-17T13:49:27Z</time>
      </trkpt>
      <trkpt lat="-25.5115770" lon="-49.0018410">
        <ele>964.4</ele>
        <time>2021-04-17T13:49:29Z</time>
      </trkpt>
      <trkpt lat="-25.5115750" lon="-49.0018420">
        <ele>964.4</ele>
        <time>2021-04-17T13:49:31Z</time>
      </trkpt>
      <trkpt lat="-25.5115760" lon="-49.0018430">
        <ele>964.4</ele>
        <time>2021-04-17T13:49:32Z</time>
      </trkpt>
      <trkpt lat="-25.5115730" lon="-49.0018450">
        <ele>964.4</ele>
        <time>2021-04-17T13:49:33Z</time>
      </trkpt>
      <trkpt lat="-25.5115640" lon="-49.0018480">
        <ele>964.4</ele>
        <time>2021-04-17T13:49:35Z</time>
      </trkpt>
      <trkpt lat="-25.5115600" lon="-49.0018490">
        <ele>964.4</ele>
        <time>2021-04-17T13:49:37Z</time>
      </trkpt>
      <trkpt lat="-25.5115600" lon="-49.0018490">
        <ele>964.4</ele>
        <time>2021-04-17T13:49:39Z</time>
      </trkpt>
      <trkpt lat="-25.5115560" lon="-49.0018480">
        <ele>964.4</ele>
        <time>2021-04-17T13:49:40Z</time>
      </trkpt>
      <trkpt lat="-25.5115520" lon="-49.0018490">
        <ele>964.2</ele>
        <time>2021-04-17T13:49:41Z</time>
      </trkpt>
      <trkpt lat="-25.5115490" lon="-49.0018510">
        <ele>964.2</ele>
        <time>2021-04-17T13:49:43Z</time>
      </trkpt>
      <trkpt lat="-25.5115470" lon="-49.0018520">
        <ele>964.2</ele>
        <time>2021-04-17T13:49:45Z</time>
      </trkpt>
      <trkpt lat="-25.5115470" lon="-49.0018540">
        <ele>964.2</ele>
        <time>2021-04-17T13:49:47Z</time>
      </trkpt>
      <trkpt lat="-25.5115450" lon="-49.0018550">
        <ele>964.2</ele>
        <time>2021-04-17T13:49:49Z</time>
      </trkpt>
      <trkpt lat="-25.5115430" lon="-49.0018540">
        <ele>964.2</ele>
        <time>2021-04-17T13:49:50Z</time>
      </trkpt>
      <trkpt lat="-25.5115420" lon="-49.0018540">
        <ele>964.2</ele>
        <time>2021-04-17T13:49:51Z</time>
      </trkpt>
      <trkpt lat="-25.5115390" lon="-49.0018520">
        <ele>964.2</ele>
        <time>2021-04-17T13:49:53Z</time>
      </trkpt>
      <trkpt lat="-25.5115350" lon="-49.0018490">
        <ele>964.2</ele>
        <time>2021-04-17T13:49:55Z</time>
      </trkpt>
      <trkpt lat="-25.5115220" lon="-49.0018580">
        <ele>964.2</ele>
        <time>2021-04-17T13:49:57Z</time>
      </trkpt>
      <trkpt lat="-25.5115150" lon="-49.0018660">
        <ele>964.2</ele>
        <time>2021-04-17T13:49:58Z</time>
      </trkpt>
      <trkpt lat="-25.5115000" lon="-49.0018780">
        <ele>964.2</ele>
        <time>2021-04-17T13:49:59Z</time>
      </trkpt>
      <trkpt lat="-25.5114790" lon="-49.0018970">
        <ele>964.2</ele>
        <time>2021-04-17T13:50:00Z</time>
      </trkpt>
      <trkpt lat="-25.5114580" lon="-49.0019200">
        <ele>964.2</ele>
        <time>2021-04-17T13:50:01Z</time>
      </trkpt>
      <trkpt lat="-25.5114320" lon="-49.0019740">
        <ele>964.2</ele>
        <time>2021-04-17T13:50:03Z</time>
      </trkpt>
      <trkpt lat="-25.5114330" lon="-49.0020170">
        <ele>964.2</ele>
        <time>2021-04-17T13:50:04Z</time>
      </trkpt>
      <trkpt lat="-25.5114370" lon="-49.0020650">
        <ele>964.2</ele>
        <time>2021-04-17T13:50:05Z</time>
      </trkpt>
      <trkpt lat="-25.5114560" lon="-49.0021630">
        <ele>964.2</ele>
        <time>2021-04-17T13:50:07Z</time>
      </trkpt>
      <trkpt lat="-25.5114800" lon="-49.0022090">
        <ele>964.2</ele>
        <time>2021-04-17T13:50:08Z</time>
      </trkpt>
      <trkpt lat="-25.5115130" lon="-49.0022470">
        <ele>964.2</ele>
        <time>2021-04-17T13:50:09Z</time>
      </trkpt>
      <trkpt lat="-25.5115850" lon="-49.0022940">
        <ele>964.0</ele>
        <time>2021-04-17T13:50:11Z</time>
      </trkpt>
      <trkpt lat="-25.5116640" lon="-49.0023320">
        <ele>963.2</ele>
        <time>2021-04-17T13:50:13Z</time>
      </trkpt>
      <trkpt lat="-25.5117420" lon="-49.0023770">
        <ele>962.8</ele>
        <time>2021-04-17T13:50:15Z</time>
      </trkpt>
      <trkpt lat="-25.5117810" lon="-49.0024020">
        <ele>962.6</ele>
        <time>2021-04-17T13:50:16Z</time>
      </trkpt>
      <trkpt lat="-25.5118170" lon="-49.0024270">
        <ele>962.2</ele>
        <time>2021-04-17T13:50:17Z</time>
      </trkpt>
      <trkpt lat="-25.5118910" lon="-49.0024740">
        <ele>962.0</ele>
        <time>2021-04-17T13:50:19Z</time>
      </trkpt>
      <trkpt lat="-25.5119510" lon="-49.0025390">
        <ele>961.8</ele>
        <time>2021-04-17T13:50:21Z</time>
      </trkpt>
      <trkpt lat="-25.5119930" lon="-49.0026450">
        <ele>961.8</ele>
        <time>2021-04-17T13:50:23Z</time>
      </trkpt>
      <trkpt lat="-25.5120080" lon="-49.0027050">
        <ele>961.6</ele>
        <time>2021-04-17T13:50:24Z</time>
      </trkpt>
      <trkpt lat="-25.5120160" lon="-49.0027670">
        <ele>961.6</ele>
        <time>2021-04-17T13:50:25Z</time>
      </trkpt>
      <trkpt lat="-25.5120190" lon="-49.0028360">
        <ele>961.2</ele>
        <time>2021-04-17T13:50:26Z</time>
      </trkpt>
      <trkpt lat="-25.5120210" lon="-49.0029130">
        <ele>961.0</ele>
        <time>2021-04-17T13:50:27Z</time>
      </trkpt>
      <trkpt lat="-25.5120320" lon="-49.0030620">
        <ele>960.6</ele>
        <time>2021-04-17T13:50:29Z</time>
      </trkpt>
      <trkpt lat="-25.5120410" lon="-49.0032070">
        <ele>960.4</ele>
        <time>2021-04-17T13:50:31Z</time>
      </trkpt>
      <trkpt lat="-25.5120460" lon="-49.0033540">
        <ele>960.2</ele>
        <time>2021-04-17T13:50:33Z</time>
      </trkpt>
      <trkpt lat="-25.5120450" lon="-49.0034310">
        <ele>959.2</ele>
        <time>2021-04-17T13:50:34Z</time>
      </trkpt>
      <trkpt lat="-25.5120430" lon="-49.0035020">
        <ele>958.8</ele>
        <time>2021-04-17T13:50:35Z</time>
      </trkpt>
      <trkpt lat="-25.5120420" lon="-49.0036410">
        <ele>957.8</ele>
        <time>2021-04-17T13:50:37Z</time>
      </trkpt>
      <trkpt lat="-25.5120540" lon="-49.0037830">
        <ele>956.8</ele>
        <time>2021-04-17T13:50:39Z</time>
      </trkpt>
      <trkpt lat="-25.5120680" lon="-49.0038530">
        <ele>956.4</ele>
        <time>2021-04-17T13:50:40Z</time>
      </trkpt>
      <trkpt lat="-25.5120940" lon="-49.0039230">
        <ele>956.0</ele>
        <time>2021-04-17T13:50:41Z</time>
      </trkpt>
      <trkpt lat="-25.5121540" lon="-49.0040500">
        <ele>955.0</ele>
        <time>2021-04-17T13:50:43Z</time>
      </trkpt>
      <trkpt lat="-25.5122140" lon="-49.0041750">
        <ele>954.2</ele>
        <time>2021-04-17T13:50:45Z</time>
      </trkpt>
      <trkpt lat="-25.5122370" lon="-49.0042340">
        <ele>953.8</ele>
        <time>2021-04-17T13:50:46Z</time>
      </trkpt>
      <trkpt lat="-25.5122570" lon="-49.0042880">
        <ele>953.4</ele>
        <time>2021-04-17T13:50:47Z</time>
      </trkpt>
      <trkpt lat="-25.5122760" lon="-49.0043430">
        <ele>953.2</ele>
        <time>2021-04-17T13:50:48Z</time>
      </trkpt>
      <trkpt lat="-25.5122930" lon="-49.0043940">
        <ele>952.8</ele>
        <time>2021-04-17T13:50:49Z</time>
      </trkpt>
      <trkpt lat="-25.5123080" lon="-49.0044430">
        <ele>952.6</ele>
        <time>2021-04-17T13:50:50Z</time>
      </trkpt>
      <trkpt lat="-25.5123180" lon="-49.0044880">
        <ele>952.6</ele>
        <time>2021-04-17T13:50:51Z</time>
      </trkpt>
      <trkpt lat="-25.5123300" lon="-49.0045600">
        <ele>952.2</ele>
        <time>2021-04-17T13:50:53Z</time>
      </trkpt>
      <trkpt lat="-25.5123490" lon="-49.0046340">
        <ele>952.2</ele>
        <time>2021-04-17T13:50:55Z</time>
      </trkpt>
      <trkpt lat="-25.5123670" lon="-49.0047030">
        <ele>952.2</ele>
        <time>2021-04-17T13:50:57Z</time>
      </trkpt>
      <trkpt lat="-25.5123920" lon="-49.0047710">
        <ele>952.2</ele>
        <time>2021-04-17T13:50:59Z</time>
      </trkpt>
      <trkpt lat="-25.5124070" lon="-49.0048050">
        <ele>952.2</ele>
        <time>2021-04-17T13:51:00Z</time>
      </trkpt>
      <trkpt lat="-25.5124230" lon="-49.0048410">
        <ele>952.2</ele>
        <time>2021-04-17T13:51:01Z</time>
      </trkpt>
      <trkpt lat="-25.5124420" lon="-49.0049030">
        <ele>952.4</ele>
        <time>2021-04-17T13:51:03Z</time>
      </trkpt>
      <trkpt lat="-25.5124560" lon="-49.0049650">
        <ele>952.4</ele>
        <time>2021-04-17T13:51:05Z</time>
      </trkpt>
      <trkpt lat="-25.5124610" lon="-49.0049990">
        <ele>952.4</ele>
        <time>2021-04-17T13:51:06Z</time>
      </trkpt>
      <trkpt lat="-25.5124720" lon="-49.0050330">
        <ele>952.4</ele>
        <time>2021-04-17T13:51:07Z</time>
      </trkpt>
      <trkpt lat="-25.5125170" lon="-49.0050990">
        <ele>952.4</ele>
        <time>2021-04-17T13:51:09Z</time>
      </trkpt>
      <trkpt lat="-25.5125380" lon="-49.0051260">
        <ele>952.4</ele>
        <time>2021-04-17T13:51:10Z</time>
      </trkpt>
      <trkpt lat="-25.5125670" lon="-49.0051500">
        <ele>952.4</ele>
        <time>2021-04-17T13:51:11Z</time>
      </trkpt>
      <trkpt lat="-25.5126330" lon="-49.0051950">
        <ele>952.4</ele>
        <time>2021-04-17T13:51:13Z</time>
      </trkpt>
      <trkpt lat="-25.5127060" lon="-49.0052400">
        <ele>952.6</ele>
        <time>2021-04-17T13:51:15Z</time>
      </trkpt>
      <trkpt lat="-25.5127790" lon="-49.0052900">
        <ele>952.6</ele>
        <time>2021-04-17T13:51:17Z</time>
      </trkpt>
      <trkpt lat="-25.5128390" lon="-49.0053320">
        <ele>952.6</ele>
        <time>2021-04-17T13:51:19Z</time>
      </trkpt>
      <trkpt lat="-25.5129020" lon="-49.0053630">
        <ele>952.8</ele>
        <time>2021-04-17T13:51:21Z</time>
      </trkpt>
      <trkpt lat="-25.5129800" lon="-49.0053990">
        <ele>953.0</ele>
        <time>2021-04-17T13:51:23Z</time>
      </trkpt>
      <trkpt lat="-25.5130280" lon="-49.0054140">
        <ele>953.2</ele>
        <time>2021-04-17T13:51:24Z</time>
      </trkpt>
      <trkpt lat="-25.5130800" lon="-49.0054260">
        <ele>953.2</ele>
        <time>2021-04-17T13:51:25Z</time>
      </trkpt>
      <trkpt lat="-25.5131330" lon="-49.0054320">
        <ele>953.2</ele>
        <time>2021-04-17T13:51:26Z</time>
      </trkpt>
      <trkpt lat="-25.5131840" lon="-49.0054430">
        <ele>953.2</ele>
        <time>2021-04-17T13:51:27Z</time>
      </trkpt>
      <trkpt lat="-25.5132610" lon="-49.0054510">
        <ele>953.2</ele>
        <time>2021-04-17T13:51:29Z</time>
      </trkpt>
      <trkpt lat="-25.5133180" lon="-49.0054970">
        <ele>953.2</ele>
        <time>2021-04-17T13:51:31Z</time>
      </trkpt>
      <trkpt lat="-25.5133510" lon="-49.0055750">
        <ele>953.2</ele>
        <time>2021-04-17T13:51:33Z</time>
      </trkpt>
      <trkpt lat="-25.5133620" lon="-49.0056490">
        <ele>953.0</ele>
        <time>2021-04-17T13:51:35Z</time>
      </trkpt>
      <trkpt lat="-25.5133640" lon="-49.0057220">
        <ele>952.8</ele>
        <time>2021-04-17T13:51:37Z</time>
      </trkpt>
      <trkpt lat="-25.5133460" lon="-49.0057950">
        <ele>952.4</ele>
        <time>2021-04-17T13:51:39Z</time>
      </trkpt>
      <trkpt lat="-25.5133320" lon="-49.0058370">
        <ele>952.0</ele>
        <time>2021-04-17T13:51:40Z</time>
      </trkpt>
      <trkpt lat="-25.5133240" lon="-49.0058880">
        <ele>951.6</ele>
        <time>2021-04-17T13:51:41Z</time>
      </trkpt>
      <trkpt lat="-25.5133130" lon="-49.0060050">
        <ele>950.8</ele>
        <time>2021-04-17T13:51:43Z</time>
      </trkpt>
      <trkpt lat="-25.5133040" lon="-49.0060680">
        <ele>950.6</ele>
        <time>2021-04-17T13:51:44Z</time>
      </trkpt>
      <trkpt lat="-25.5132880" lon="-49.0061340">
        <ele>950.0</ele>
        <time>2021-04-17T13:51:45Z</time>
      </trkpt>
      <trkpt lat="-25.5132690" lon="-49.0062000">
        <ele>949.4</ele>
        <time>2021-04-17T13:51:46Z</time>
      </trkpt>
      <trkpt lat="-25.5132530" lon="-49.0062670">
        <ele>949.0</ele>
        <time>2021-04-17T13:51:47Z</time>
      </trkpt>
      <trkpt lat="-25.5132440" lon="-49.0063360">
        <ele>948.4</ele>
        <time>2021-04-17T13:51:48Z</time>
      </trkpt>
      <trkpt lat="-25.5132460" lon="-49.0064050">
        <ele>947.8</ele>
        <time>2021-04-17T13:51:49Z</time>
      </trkpt>
      <trkpt lat="-25.5132600" lon="-49.0064700">
        <ele>947.2</ele>
        <time>2021-04-17T13:51:50Z</time>
      </trkpt>
      <trkpt lat="-25.5132870" lon="-49.0065340">
        <ele>946.2</ele>
        <time>2021-04-17T13:51:51Z</time>
      </trkpt>
      <trkpt lat="-25.5133280" lon="-49.0065890">
        <ele>945.6</ele>
        <time>2021-04-17T13:51:52Z</time>
      </trkpt>
      <trkpt lat="-25.5133770" lon="-49.0066410">
        <ele>945.0</ele>
        <time>2021-04-17T13:51:53Z</time>
      </trkpt>
      <trkpt lat="-25.5134280" lon="-49.0066900">
        <ele>944.4</ele>
        <time>2021-04-17T13:51:54Z</time>
      </trkpt>
      <trkpt lat="-25.5134870" lon="-49.0067340">
        <ele>944.0</ele>
        <time>2021-04-17T13:51:55Z</time>
      </trkpt>
      <trkpt lat="-25.5135540" lon="-49.0067650">
        <ele>943.4</ele>
        <time>2021-04-17T13:51:56Z</time>
      </trkpt>
      <trkpt lat="-25.5136190" lon="-49.0067870">
        <ele>942.8</ele>
        <time>2021-04-17T13:51:57Z</time>
      </trkpt>
      <trkpt lat="-25.5136880" lon="-49.0068090">
        <ele>942.4</ele>
        <time>2021-04-17T13:51:58Z</time>
      </trkpt>
      <trkpt lat="-25.5137500" lon="-49.0068310">
        <ele>942.0</ele>
        <time>2021-04-17T13:51:59Z</time>
      </trkpt>
      <trkpt lat="-25.5138110" lon="-49.0068600">
        <ele>941.6</ele>
        <time>2021-04-17T13:52:00Z</time>
      </trkpt>
      <trkpt lat="-25.5138690" lon="-49.0068930">
        <ele>941.0</ele>
        <time>2021-04-17T13:52:01Z</time>
      </trkpt>
      <trkpt lat="-25.5139820" lon="-49.0069870">
        <ele>940.4</ele>
        <time>2021-04-17T13:52:03Z</time>
      </trkpt>
      <trkpt lat="-25.5140400" lon="-49.0070420">
        <ele>940.2</ele>
        <time>2021-04-17T13:52:04Z</time>
      </trkpt>
      <trkpt lat="-25.5141030" lon="-49.0070960">
        <ele>939.8</ele>
        <time>2021-04-17T13:52:05Z</time>
      </trkpt>
      <trkpt lat="-25.5142290" lon="-49.0071960">
        <ele>939.0</ele>
        <time>2021-04-17T13:52:07Z</time>
      </trkpt>
      <trkpt lat="-25.5142960" lon="-49.0072480">
        <ele>937.2</ele>
        <time>2021-04-17T13:52:08Z</time>
      </trkpt>
      <trkpt lat="-25.5143600" lon="-49.0072970">
        <ele>936.6</ele>
        <time>2021-04-17T13:52:09Z</time>
      </trkpt>
      <trkpt lat="-25.5144240" lon="-49.0073400">
        <ele>936.0</ele>
        <time>2021-04-17T13:52:10Z</time>
      </trkpt>
      <trkpt lat="-25.5144870" lon="-49.0073740">
        <ele>934.8</ele>
        <time>2021-04-17T13:52:11Z</time>
      </trkpt>
      <trkpt lat="-25.5145550" lon="-49.0074040">
        <ele>933.8</ele>
        <time>2021-04-17T13:52:12Z</time>
      </trkpt>
      <trkpt lat="-25.5146260" lon="-49.0074290">
        <ele>933.0</ele>
        <time>2021-04-17T13:52:13Z</time>
      </trkpt>
      <trkpt lat="-25.5147000" lon="-49.0074430">
        <ele>932.2</ele>
        <time>2021-04-17T13:52:14Z</time>
      </trkpt>
      <trkpt lat="-25.5147710" lon="-49.0074450">
        <ele>931.8</ele>
        <time>2021-04-17T13:52:15Z</time>
      </trkpt>
      <trkpt lat="-25.5149070" lon="-49.0074380">
        <ele>930.4</ele>
        <time>2021-04-17T13:52:17Z</time>
      </trkpt>
      <trkpt lat="-25.5150300" lon="-49.0074230">
        <ele>929.0</ele>
        <time>2021-04-17T13:52:19Z</time>
      </trkpt>
      <trkpt lat="-25.5150830" lon="-49.0074080">
        <ele>928.2</ele>
        <time>2021-04-17T13:52:20Z</time>
      </trkpt>
      <trkpt lat="-25.5151270" lon="-49.0073900">
        <ele>927.6</ele>
        <time>2021-04-17T13:52:21Z</time>
      </trkpt>
      <trkpt lat="-25.5152070" lon="-49.0073770">
        <ele>926.6</ele>
        <time>2021-04-17T13:52:23Z</time>
      </trkpt>
      <trkpt lat="-25.5152430" lon="-49.0073720">
        <ele>926.4</ele>
        <time>2021-04-17T13:52:24Z</time>
      </trkpt>
      <trkpt lat="-25.5152750" lon="-49.0073690">
        <ele>926.2</ele>
        <time>2021-04-17T13:52:25Z</time>
      </trkpt>
      <trkpt lat="-25.5153170" lon="-49.0073660">
        <ele>926.0</ele>
        <time>2021-04-17T13:52:27Z</time>
      </trkpt>
      <trkpt lat="-25.5153230" lon="-49.0073620">
        <ele>925.6</ele>
        <time>2021-04-17T13:52:28Z</time>
      </trkpt>
      <trkpt lat="-25.5153220" lon="-49.0073560">
        <ele>925.6</ele>
        <time>2021-04-17T13:52:29Z</time>
      </trkpt>
      <trkpt lat="-25.5153240" lon="-49.0073510">
        <ele>925.2</ele>
        <time>2021-04-17T13:52:31Z</time>
      </trkpt>
      <trkpt lat="-25.5153240" lon="-49.0073440">
        <ele>925.0</ele>
        <time>2021-04-17T13:52:33Z</time>
      </trkpt>
      <trkpt lat="-25.5153220" lon="-49.0073380">
        <ele>924.8</ele>
        <time>2021-04-17T13:52:35Z</time>
      </trkpt>
      <trkpt lat="-25.5153200" lon="-49.0073340">
        <ele>924.6</ele>
        <time>2021-04-17T13:52:37Z</time>
      </trkpt>
      <trkpt lat="-25.5153120" lon="-49.0073360">
        <ele>924.6</ele>
        <time>2021-04-17T13:52:39Z</time>
      </trkpt>
      <trkpt lat="-25.5153000" lon="-49.0073410">
        <ele>924.6</ele>
        <time>2021-04-17T13:52:41Z</time>
      </trkpt>
      <trkpt lat="-25.5152870" lon="-49.0073410">
        <ele>924.6</ele>
        <time>2021-04-17T13:52:42Z</time>
      </trkpt>
      <trkpt lat="-25.5152750" lon="-49.0073410">
        <ele>924.6</ele>
        <time>2021-04-17T13:52:43Z</time>
      </trkpt>
      <trkpt lat="-25.5152640" lon="-49.0073430">
        <ele>924.6</ele>
        <time>2021-04-17T13:52:44Z</time>
      </trkpt>
      <trkpt lat="-25.5152490" lon="-49.0073470">
        <ele>924.6</ele>
        <time>2021-04-17T13:52:45Z</time>
      </trkpt>
      <trkpt lat="-25.5152150" lon="-49.0073570">
        <ele>924.6</ele>
        <time>2021-04-17T13:52:47Z</time>
      </trkpt>
      <trkpt lat="-25.5151700" lon="-49.0073720">
        <ele>924.6</ele>
        <time>2021-04-17T13:52:49Z</time>
      </trkpt>
      <trkpt lat="-25.5151430" lon="-49.0073790">
        <ele>924.6</ele>
        <time>2021-04-17T13:52:50Z</time>
      </trkpt>
      <trkpt lat="-25.5151080" lon="-49.0073860">
        <ele>924.6</ele>
        <time>2021-04-17T13:52:51Z</time>
      </trkpt>
      <trkpt lat="-25.5150370" lon="-49.0074090">
        <ele>924.6</ele>
        <time>2021-04-17T13:52:53Z</time>
      </trkpt>
      <trkpt lat="-25.5149680" lon="-49.0074340">
        <ele>924.8</ele>
        <time>2021-04-17T13:52:55Z</time>
      </trkpt>
      <trkpt lat="-25.5148940" lon="-49.0074540">
        <ele>925.0</ele>
        <time>2021-04-17T13:52:57Z</time>
      </trkpt>
      <trkpt lat="-25.5148220" lon="-49.0074590">
        <ele>924.8</ele>
        <time>2021-04-17T13:52:59Z</time>
      </trkpt>
      <trkpt lat="-25.5147510" lon="-49.0074590">
        <ele>924.8</ele>
        <time>2021-04-17T13:53:01Z</time>
      </trkpt>
      <trkpt lat="-25.5147160" lon="-49.0074540">
        <ele>924.8</ele>
        <time>2021-04-17T13:53:02Z</time>
      </trkpt>
      <trkpt lat="-25.5146880" lon="-49.0074550">
        <ele>925.0</ele>
        <time>2021-04-17T13:53:03Z</time>
      </trkpt>
      <trkpt lat="-25.5146320" lon="-49.0074370">
        <ele>925.2</ele>
        <time>2021-04-17T13:53:05Z</time>
      </trkpt>
      <trkpt lat="-25.5145830" lon="-49.0074180">
        <ele>925.4</ele>
        <time>2021-04-17T13:53:07Z</time>
      </trkpt>
      <trkpt lat="-25.5145400" lon="-49.0074000">
        <ele>925.6</ele>
        <time>2021-04-17T13:53:09Z</time>
      </trkpt>
      <trkpt lat="-25.5145080" lon="-49.0073790">
        <ele>925.8</ele>
        <time>2021-04-17T13:53:11Z</time>
      </trkpt>
      <trkpt lat="-25.5144920" lon="-49.0073690">
        <ele>925.8</ele>
        <time>2021-04-17T13:53:12Z</time>
      </trkpt>
      <trkpt lat="-25.5144780" lon="-49.0073610">
        <ele>925.8</ele>
        <time>2021-04-17T13:53:13Z</time>
      </trkpt>
      <trkpt lat="-25.5144660" lon="-49.0073530">
        <ele>926.0</ele>
        <time>2021-04-17T13:53:14Z</time>
      </trkpt>
      <trkpt lat="-25.5144500" lon="-49.0073460">
        <ele>926.2</ele>
        <time>2021-04-17T13:53:15Z</time>
      </trkpt>
      <trkpt lat="-25.5144200" lon="-49.0073330">
        <ele>926.6</ele>
        <time>2021-04-17T13:53:17Z</time>
      </trkpt>
      <trkpt lat="-25.5143900" lon="-49.0073140">
        <ele>927.0</ele>
        <time>2021-04-17T13:53:19Z</time>
      </trkpt>
      <trkpt lat="-25.5143450" lon="-49.0072720">
        <ele>927.6</ele>
        <time>2021-04-17T13:53:21Z</time>
      </trkpt>
      <trkpt lat="-25.5143270" lon="-49.0072600">
        <ele>927.8</ele>
        <time>2021-04-17T13:53:22Z</time>
      </trkpt>
      <trkpt lat="-25.5143000" lon="-49.0072420">
        <ele>927.8</ele>
        <time>2021-04-17T13:53:23Z</time>
      </trkpt>
      <trkpt lat="-25.5142720" lon="-49.0072250">
        <ele>928.0</ele>
        <time>2021-04-17T13:53:24Z</time>
      </trkpt>
      <trkpt lat="-25.5142460" lon="-49.0072100">
        <ele>928.2</ele>
        <time>2021-04-17T13:53:25Z</time>
      </trkpt>
      <trkpt lat="-25.5142070" lon="-49.0071850">
        <ele>928.8</ele>
        <time>2021-04-17T13:53:27Z</time>
      </trkpt>
      <trkpt lat="-25.5141850" lon="-49.0071650">
        <ele>929.4</ele>
        <time>2021-04-17T13:53:29Z</time>
      </trkpt>
      <trkpt lat="-25.5141560" lon="-49.0071450">
        <ele>929.8</ele>
        <time>2021-04-17T13:53:31Z</time>
      </trkpt>
      <trkpt lat="-25.5141240" lon="-49.0071170">
        <ele>930.0</ele>
        <time>2021-04-17T13:53:33Z</time>
      </trkpt>
      <trkpt lat="-25.5141110" lon="-49.0071060">
        <ele>930.2</ele>
        <time>2021-04-17T13:53:34Z</time>
      </trkpt>
      <trkpt lat="-25.5140970" lon="-49.0070930">
        <ele>930.4</ele>
        <time>2021-04-17T13:53:35Z</time>
      </trkpt>
      <trkpt lat="-25.5140670" lon="-49.0070720">
        <ele>930.6</ele>
        <time>2021-04-17T13:53:37Z</time>
      </trkpt>
      <trkpt lat="-25.5140370" lon="-49.0070590">
        <ele>931.0</ele>
        <time>2021-04-17T13:53:39Z</time>
      </trkpt>
      <trkpt lat="-25.5140200" lon="-49.0070500">
        <ele>931.2</ele>
        <time>2021-04-17T13:53:40Z</time>
      </trkpt>
      <trkpt lat="-25.5140060" lon="-49.0070400">
        <ele>931.4</ele>
        <time>2021-04-17T13:53:41Z</time>
      </trkpt>
      <trkpt lat="-25.5139700" lon="-49.0070210">
        <ele>932.0</ele>
        <time>2021-04-17T13:53:43Z</time>
      </trkpt>
      <trkpt lat="-25.5139340" lon="-49.0070080">
        <ele>932.6</ele>
        <time>2021-04-17T13:53:45Z</time>
      </trkpt>
      <trkpt lat="-25.5139020" lon="-49.0069960">
        <ele>933.2</ele>
        <time>2021-04-17T13:53:47Z</time>
      </trkpt>
      <trkpt lat="-25.5138850" lon="-49.0069890">
        <ele>933.6</ele>
        <time>2021-04-17T13:53:48Z</time>
      </trkpt>
      <trkpt lat="-25.5138640" lon="-49.0069760">
        <ele>934.0</ele>
        <time>2021-04-17T13:53:49Z</time>
      </trkpt>
      <trkpt lat="-25.5138230" lon="-49.0069460">
        <ele>934.4</ele>
        <time>2021-04-17T13:53:51Z</time>
      </trkpt>
      <trkpt lat="-25.5138080" lon="-49.0069360">
        <ele>934.8</ele>
        <time>2021-04-17T13:53:52Z</time>
      </trkpt>
      <trkpt lat="-25.5137880" lon="-49.0069240">
        <ele>935.0</ele>
        <time>2021-04-17T13:53:53Z</time>
      </trkpt>
      <trkpt lat="-25.5137710" lon="-49.0069140">
        <ele>935.2</ele>
        <time>2021-04-17T13:53:54Z</time>
      </trkpt>
      <trkpt lat="-25.5137530" lon="-49.0069060">
        <ele>935.6</ele>
        <time>2021-04-17T13:53:55Z</time>
      </trkpt>
      <trkpt lat="-25.5137110" lon="-49.0068890">
        <ele>936.0</ele>
        <time>2021-04-17T13:53:57Z</time>
      </trkpt>
      <trkpt lat="-25.5136770" lon="-49.0068790">
        <ele>936.4</ele>
        <time>2021-04-17T13:53:59Z</time>
      </trkpt>
      <trkpt lat="-25.5136350" lon="-49.0068560">
        <ele>936.8</ele>
        <time>2021-04-17T13:54:01Z</time>
      </trkpt>
      <trkpt lat="-25.5136160" lon="-49.0068440">
        <ele>937.2</ele>
        <time>2021-04-17T13:54:02Z</time>
      </trkpt>
      <trkpt lat="-25.5135950" lon="-49.0068320">
        <ele>937.4</ele>
        <time>2021-04-17T13:54:03Z</time>
      </trkpt>
      <trkpt lat="-25.5135620" lon="-49.0068120">
        <ele>937.8</ele>
        <time>2021-04-17T13:54:05Z</time>
      </trkpt>
      <trkpt lat="-25.5135280" lon="-49.0067910">
        <ele>938.0</ele>
        <time>2021-04-17T13:54:07Z</time>
      </trkpt>
      <trkpt lat="-25.5134960" lon="-49.0067610">
        <ele>938.2</ele>
        <time>2021-04-17T13:54:09Z</time>
      </trkpt>
      <trkpt lat="-25.5134840" lon="-49.0067490">
        <ele>938.4</ele>
        <time>2021-04-17T13:54:10Z</time>
      </trkpt>
      <trkpt lat="-25.5134740" lon="-49.0067400">
        <ele>938.6</ele>
        <time>2021-04-17T13:54:11Z</time>
      </trkpt>
      <trkpt lat="-25.5134530" lon="-49.0067190">
        <ele>939.0</ele>
        <time>2021-04-17T13:54:13Z</time>
      </trkpt>
      <trkpt lat="-25.5134310" lon="-49.0066980">
        <ele>939.2</ele>
        <time>2021-04-17T13:54:15Z</time>
      </trkpt>
      <trkpt lat="-25.5134140" lon="-49.0066780">
        <ele>939.2</ele>
        <time>2021-04-17T13:54:17Z</time>
      </trkpt>
      <trkpt lat="-25.5133920" lon="-49.0066510">
        <ele>939.6</ele>
        <time>2021-04-17T13:54:19Z</time>
      </trkpt>
      <trkpt lat="-25.5133860" lon="-49.0066370">
        <ele>939.8</ele>
        <time>2021-04-17T13:54:20Z</time>
      </trkpt>
      <trkpt lat="-25.5133730" lon="-49.0066150">
        <ele>939.8</ele>
        <time>2021-04-17T13:54:21Z</time>
      </trkpt>
      <trkpt lat="-25.5133690" lon="-49.0065960">
        <ele>939.8</ele>
        <time>2021-04-17T13:54:22Z</time>
      </trkpt>
      <trkpt lat="-25.5133640" lon="-49.0065720">
        <ele>940.0</ele>
        <time>2021-04-17T13:54:23Z</time>
      </trkpt>
      <trkpt lat="-25.5133620" lon="-49.0065250">
        <ele>940.0</ele>
        <time>2021-04-17T13:54:25Z</time>
      </trkpt>
      <trkpt lat="-25.5133700" lon="-49.0064780">
        <ele>940.2</ele>
        <time>2021-04-17T13:54:27Z</time>
      </trkpt>
      <trkpt lat="-25.5133780" lon="-49.0064590">
        <ele>940.4</ele>
        <time>2021-04-17T13:54:28Z</time>
      </trkpt>
      <trkpt lat="-25.5133800" lon="-49.0064370">
        <ele>940.4</ele>
        <time>2021-04-17T13:54:29Z</time>
      </trkpt>
      <trkpt lat="-25.5133820" lon="-49.0064170">
        <ele>940.6</ele>
        <time>2021-04-17T13:54:30Z</time>
      </trkpt>
      <trkpt lat="-25.5133860" lon="-49.0064000">
        <ele>940.6</ele>
        <time>2021-04-17T13:54:31Z</time>
      </trkpt>
      <trkpt lat="-25.5133900" lon="-49.0063600">
        <ele>940.8</ele>
        <time>2021-04-17T13:54:33Z</time>
      </trkpt>
      <trkpt lat="-25.5134040" lon="-49.0063220">
        <ele>941.2</ele>
        <time>2021-04-17T13:54:35Z</time>
      </trkpt>
      <trkpt lat="-25.5134150" lon="-49.0063050">
        <ele>941.2</ele>
        <time>2021-04-17T13:54:36Z</time>
      </trkpt>
      <trkpt lat="-25.5134220" lon="-49.0062870">
        <ele>941.6</ele>
        <time>2021-04-17T13:54:37Z</time>
      </trkpt>
      <trkpt lat="-25.5134400" lon="-49.0062550">
        <ele>942.0</ele>
        <time>2021-04-17T13:54:39Z</time>
      </trkpt>
      <trkpt lat="-25.5134450" lon="-49.0062290">
        <ele>942.0</ele>
        <time>2021-04-17T13:54:41Z</time>
      </trkpt>
      <trkpt lat="-25.5134430" lon="-49.0062140">
        <ele>942.0</ele>
        <time>2021-04-17T13:54:42Z</time>
      </trkpt>
      <trkpt lat="-25.5134380" lon="-49.0061960">
        <ele>942.2</ele>
        <time>2021-04-17T13:54:43Z</time>
      </trkpt>
      <trkpt lat="-25.5134400" lon="-49.0061600">
        <ele>942.8</ele>
        <time>2021-04-17T13:54:45Z</time>
      </trkpt>
      <trkpt lat="-25.5134380" lon="-49.0061260">
        <ele>943.2</ele>
        <time>2021-04-17T13:54:47Z</time>
      </trkpt>
      <trkpt lat="-25.5134360" lon="-49.0060940">
        <ele>943.6</ele>
        <time>2021-04-17T13:54:49Z</time>
      </trkpt>
      <trkpt lat="-25.5134310" lon="-49.0060540">
        <ele>943.8</ele>
        <time>2021-04-17T13:54:51Z</time>
      </trkpt>
      <trkpt lat="-25.5134260" lon="-49.0060100">
        <ele>944.4</ele>
        <time>2021-04-17T13:54:53Z</time>
      </trkpt>
      <trkpt lat="-25.5134260" lon="-49.0059690">
        <ele>944.8</ele>
        <time>2021-04-17T13:54:55Z</time>
      </trkpt>
      <trkpt lat="-25.5134250" lon="-49.0059500">
        <ele>944.8</ele>
        <time>2021-04-17T13:54:56Z</time>
      </trkpt>
      <trkpt lat="-25.5134260" lon="-49.0059320">
        <ele>945.2</ele>
        <time>2021-04-17T13:54:57Z</time>
      </trkpt>
      <trkpt lat="-25.5134260" lon="-49.0058960">
        <ele>945.6</ele>
        <time>2021-04-17T13:54:59Z</time>
      </trkpt>
      <trkpt lat="-25.5134330" lon="-49.0058730">
        <ele>946.2</ele>
        <time>2021-04-17T13:55:01Z</time>
      </trkpt>
      <trkpt lat="-25.5134350" lon="-49.0058440">
        <ele>946.8</ele>
        <time>2021-04-17T13:55:03Z</time>
      </trkpt>
      <trkpt lat="-25.5134360" lon="-49.0058290">
        <ele>947.2</ele>
        <time>2021-04-17T13:55:04Z</time>
      </trkpt>
      <trkpt lat="-25.5134380" lon="-49.0058150">
        <ele>947.6</ele>
        <time>2021-04-17T13:55:05Z</time>
      </trkpt>
      <trkpt lat="-25.5134330" lon="-49.0057790">
        <ele>948.0</ele>
        <time>2021-04-17T13:55:07Z</time>
      </trkpt>
      <trkpt lat="-25.5134300" lon="-49.0057600">
        <ele>948.2</ele>
        <time>2021-04-17T13:55:08Z</time>
      </trkpt>
      <trkpt lat="-25.5134230" lon="-49.0057390">
        <ele>948.4</ele>
        <time>2021-04-17T13:55:09Z</time>
      </trkpt>
      <trkpt lat="-25.5134200" lon="-49.0057230">
        <ele>948.6</ele>
        <time>2021-04-17T13:55:10Z</time>
      </trkpt>
      <trkpt lat="-25.5134160" lon="-49.0057040">
        <ele>949.0</ele>
        <time>2021-04-17T13:55:11Z</time>
      </trkpt>
      <trkpt lat="-25.5134050" lon="-49.0056690">
        <ele>949.4</ele>
        <time>2021-04-17T13:55:13Z</time>
      </trkpt>
      <trkpt lat="-25.5133870" lon="-49.0056370">
        <ele>949.8</ele>
        <time>2021-04-17T13:55:15Z</time>
      </trkpt>
      <trkpt lat="-25.5133780" lon="-49.0056240">
        <ele>950.0</ele>
        <time>2021-04-17T13:55:16Z</time>
      </trkpt>
      <trkpt lat="-25.5133670" lon="-49.0056090">
        <ele>950.2</ele>
        <time>2021-04-17T13:55:17Z</time>
      </trkpt>
      <trkpt lat="-25.5133520" lon="-49.0055900">
        <ele>950.6</ele>
        <time>2021-04-17T13:55:19Z</time>
      </trkpt>
      <trkpt lat="-25.5133270" lon="-49.0055690">
        <ele>951.2</ele>
        <time>2021-04-17T13:55:21Z</time>
      </trkpt>
      <trkpt lat="-25.5133010" lon="-49.0055580">
        <ele>951.4</ele>
        <time>2021-04-17T13:55:23Z</time>
      </trkpt>
      <trkpt lat="-25.5132870" lon="-49.0055550">
        <ele>951.6</ele>
        <time>2021-04-17T13:55:24Z</time>
      </trkpt>
      <trkpt lat="-25.5132700" lon="-49.0055500">
        <ele>952.0</ele>
        <time>2021-04-17T13:55:25Z</time>
      </trkpt>
      <trkpt lat="-25.5132370" lon="-49.0055460">
        <ele>952.2</ele>
        <time>2021-04-17T13:55:27Z</time>
      </trkpt>
      <trkpt lat="-25.5131990" lon="-49.0055490">
        <ele>952.4</ele>
        <time>2021-04-17T13:55:29Z</time>
      </trkpt>
      <trkpt lat="-25.5131800" lon="-49.0055470">
        <ele>952.6</ele>
        <time>2021-04-17T13:55:30Z</time>
      </trkpt>
      <trkpt lat="-25.5131610" lon="-49.0055420">
        <ele>952.6</ele>
        <time>2021-04-17T13:55:31Z</time>
      </trkpt>
      <trkpt lat="-25.5131400" lon="-49.0055360">
        <ele>952.6</ele>
        <time>2021-04-17T13:55:32Z</time>
      </trkpt>
      <trkpt lat="-25.5131210" lon="-49.0055290">
        <ele>952.8</ele>
        <time>2021-04-17T13:55:33Z</time>
      </trkpt>
      <trkpt lat="-25.5130850" lon="-49.0055160">
        <ele>952.8</ele>
        <time>2021-04-17T13:55:35Z</time>
      </trkpt>
      <trkpt lat="-25.5130540" lon="-49.0055110">
        <ele>952.8</ele>
        <time>2021-04-17T13:55:37Z</time>
      </trkpt>
      <trkpt lat="-25.5130230" lon="-49.0055020">
        <ele>953.0</ele>
        <time>2021-04-17T13:55:39Z</time>
      </trkpt>
      <trkpt lat="-25.5129870" lon="-49.0054880">
        <ele>953.2</ele>
        <time>2021-04-17T13:55:41Z</time>
      </trkpt>
      <trkpt lat="-25.5129490" lon="-49.0054660">
        <ele>953.4</ele>
        <time>2021-04-17T13:55:43Z</time>
      </trkpt>
      <trkpt lat="-25.5129030" lon="-49.0054390">
        <ele>953.6</ele>
        <time>2021-04-17T13:55:45Z</time>
      </trkpt>
      <trkpt lat="-25.5128530" lon="-49.0054080">
        <ele>953.8</ele>
        <time>2021-04-17T13:55:47Z</time>
      </trkpt>
      <trkpt lat="-25.5128020" lon="-49.0053660">
        <ele>953.8</ele>
        <time>2021-04-17T13:55:49Z</time>
      </trkpt>
      <trkpt lat="-25.5127440" lon="-49.0053220">
        <ele>953.8</ele>
        <time>2021-04-17T13:55:51Z</time>
      </trkpt>
      <trkpt lat="-25.5126750" lon="-49.0052620">
        <ele>953.8</ele>
        <time>2021-04-17T13:55:53Z</time>
      </trkpt>
      <trkpt lat="-25.5126420" lon="-49.0052370">
        <ele>953.8</ele>
        <time>2021-04-17T13:55:54Z</time>
      </trkpt>
      <trkpt lat="-25.5126200" lon="-49.0052170">
        <ele>953.8</ele>
        <time>2021-04-17T13:55:55Z</time>
      </trkpt>
      <trkpt lat="-25.5125920" lon="-49.0051690">
        <ele>953.6</ele>
        <time>2021-04-17T13:55:57Z</time>
      </trkpt>
      <trkpt lat="-25.5125800" lon="-49.0051370">
        <ele>953.4</ele>
        <time>2021-04-17T13:55:58Z</time>
      </trkpt>
      <trkpt lat="-25.5125670" lon="-49.0050940">
        <ele>953.4</ele>
        <time>2021-04-17T13:55:59Z</time>
      </trkpt>
      <trkpt lat="-25.5125450" lon="-49.0050030">
        <ele>953.0</ele>
        <time>2021-04-17T13:56:01Z</time>
      </trkpt>
      <trkpt lat="-25.5125160" lon="-49.0049120">
        <ele>953.0</ele>
        <time>2021-04-17T13:56:03Z</time>
      </trkpt>
      <trkpt lat="-25.5124860" lon="-49.0048180">
        <ele>952.8</ele>
        <time>2021-04-17T13:56:05Z</time>
      </trkpt>
      <trkpt lat="-25.5124570" lon="-49.0047320">
        <ele>952.6</ele>
        <time>2021-04-17T13:56:07Z</time>
      </trkpt>
      <trkpt lat="-25.5124340" lon="-49.0046430">
        <ele>952.6</ele>
        <time>2021-04-17T13:56:09Z</time>
      </trkpt>
      <trkpt lat="-25.5124260" lon="-49.0046000">
        <ele>952.6</ele>
        <time>2021-04-17T13:56:10Z</time>
      </trkpt>
      <trkpt lat="-25.5124180" lon="-49.0045610">
        <ele>952.6</ele>
        <time>2021-04-17T13:56:11Z</time>
      </trkpt>
      <trkpt lat="-25.5124030" lon="-49.0044760">
        <ele>952.6</ele>
        <time>2021-04-17T13:56:13Z</time>
      </trkpt>
      <trkpt lat="-25.5123750" lon="-49.0043800">
        <ele>952.8</ele>
        <time>2021-04-17T13:56:15Z</time>
      </trkpt>
      <trkpt lat="-25.5123430" lon="-49.0042810">
        <ele>952.6</ele>
        <time>2021-04-17T13:56:17Z</time>
      </trkpt>
      <trkpt lat="-25.5123030" lon="-49.0041830">
        <ele>952.6</ele>
        <time>2021-04-17T13:56:19Z</time>
      </trkpt>
      <trkpt lat="-25.5122720" lon="-49.0040990">
        <ele>952.4</ele>
        <time>2021-04-17T13:56:21Z</time>
      </trkpt>
      <trkpt lat="-25.5122570" lon="-49.0040590">
        <ele>952.4</ele>
        <time>2021-04-17T13:56:22Z</time>
      </trkpt>
      <trkpt lat="-25.5122400" lon="-49.0040150">
        <ele>952.4</ele>
        <time>2021-04-17T13:56:23Z</time>
      </trkpt>
      <trkpt lat="-25.5122080" lon="-49.0039290">
        <ele>952.4</ele>
        <time>2021-04-17T13:56:25Z</time>
      </trkpt>
      <trkpt lat="-25.5121920" lon="-49.0038570">
        <ele>952.4</ele>
        <time>2021-04-17T13:56:27Z</time>
      </trkpt>
      <trkpt lat="-25.5121750" lon="-49.0037900">
        <ele>952.4</ele>
        <time>2021-04-17T13:56:29Z</time>
      </trkpt>
      <trkpt lat="-25.5121640" lon="-49.0037290">
        <ele>952.4</ele>
        <time>2021-04-17T13:56:31Z</time>
      </trkpt>
      <trkpt lat="-25.5121630" lon="-49.0036660">
        <ele>952.6</ele>
        <time>2021-04-17T13:56:33Z</time>
      </trkpt>
      <trkpt lat="-25.5121660" lon="-49.0036090">
        <ele>952.8</ele>
        <time>2021-04-17T13:56:35Z</time>
      </trkpt>
      <trkpt lat="-25.5121710" lon="-49.0035580">
        <ele>953.2</ele>
        <time>2021-04-17T13:56:37Z</time>
      </trkpt>
      <trkpt lat="-25.5121770" lon="-49.0034880">
        <ele>953.4</ele>
        <time>2021-04-17T13:56:39Z</time>
      </trkpt>
      <trkpt lat="-25.5121830" lon="-49.0034140">
        <ele>953.8</ele>
        <time>2021-04-17T13:56:41Z</time>
      </trkpt>
      <trkpt lat="-25.5121680" lon="-49.0033470">
        <ele>954.2</ele>
        <time>2021-04-17T13:56:43Z</time>
      </trkpt>
      <trkpt lat="-25.5121660" lon="-49.0032840">
        <ele>954.8</ele>
        <time>2021-04-17T13:56:45Z</time>
      </trkpt>
      <trkpt lat="-25.5121600" lon="-49.0032260">
        <ele>955.2</ele>
        <time>2021-04-17T13:56:47Z</time>
      </trkpt>
      <trkpt lat="-25.5121510" lon="-49.0031950">
        <ele>955.4</ele>
        <time>2021-04-17T13:56:48Z</time>
      </trkpt>
      <trkpt lat="-25.5121420" lon="-49.0031670">
        <ele>955.6</ele>
        <time>2021-04-17T13:56:49Z</time>
      </trkpt>
      <trkpt lat="-25.5121350" lon="-49.0031120">
        <ele>955.8</ele>
        <time>2021-04-17T13:56:51Z</time>
      </trkpt>
      <trkpt lat="-25.5121270" lon="-49.0030530">
        <ele>956.2</ele>
        <time>2021-04-17T13:56:53Z</time>
      </trkpt>
      <trkpt lat="-25.5121250" lon="-49.0030240">
        <ele>956.4</ele>
        <time>2021-04-17T13:56:54Z</time>
      </trkpt>
      <trkpt lat="-25.5121190" lon="-49.0029940">
        <ele>956.6</ele>
        <time>2021-04-17T13:56:55Z</time>
      </trkpt>
      <trkpt lat="-25.5121050" lon="-49.0029330">
        <ele>956.8</ele>
        <time>2021-04-17T13:56:57Z</time>
      </trkpt>
      <trkpt lat="-25.5120860" lon="-49.0028660">
        <ele>957.4</ele>
        <time>2021-04-17T13:56:59Z</time>
      </trkpt>
      <trkpt lat="-25.5120750" lon="-49.0028330">
        <ele>957.6</ele>
        <time>2021-04-17T13:57:00Z</time>
      </trkpt>
      <trkpt lat="-25.5120630" lon="-49.0027990">
        <ele>958.0</ele>
        <time>2021-04-17T13:57:01Z</time>
      </trkpt>
      <trkpt lat="-25.5120320" lon="-49.0027260">
        <ele>958.4</ele>
        <time>2021-04-17T13:57:03Z</time>
      </trkpt>
      <trkpt lat="-25.5119990" lon="-49.0026730">
        <ele>958.8</ele>
        <time>2021-04-17T13:57:05Z</time>
      </trkpt>
      <trkpt lat="-25.5119690" lon="-49.0026300">
        <ele>959.4</ele>
        <time>2021-04-17T13:57:07Z</time>
      </trkpt>
      <trkpt lat="-25.5119390" lon="-49.0026050">
        <ele>960.0</ele>
        <time>2021-04-17T13:57:09Z</time>
      </trkpt>
      <trkpt lat="-25.5119260" lon="-49.0025840">
        <ele>960.6</ele>
        <time>2021-04-17T13:57:11Z</time>
      </trkpt>
      <trkpt lat="-25.5119190" lon="-49.0025760">
        <ele>960.8</ele>
        <time>2021-04-17T13:57:12Z</time>
      </trkpt>
      <trkpt lat="-25.5119130" lon="-49.0025690">
        <ele>961.0</ele>
        <time>2021-04-17T13:57:13Z</time>
      </trkpt>
      <trkpt lat="-25.5119010" lon="-49.0025580">
        <ele>961.2</ele>
        <time>2021-04-17T13:57:15Z</time>
      </trkpt>
      <trkpt lat="-25.5118860" lon="-49.0025490">
        <ele>961.4</ele>
        <time>2021-04-17T13:57:17Z</time>
      </trkpt>
      <trkpt lat="-25.5118830" lon="-49.0025380">
        <ele>961.4</ele>
        <time>2021-04-17T13:57:19Z</time>
      </trkpt>
      <trkpt lat="-25.5118810" lon="-49.0025310">
        <ele>961.4</ele>
        <time>2021-04-17T13:57:21Z</time>
      </trkpt>
      <trkpt lat="-25.5118810" lon="-49.0025210">
        <ele>961.6</ele>
        <time>2021-04-17T13:57:23Z</time>
      </trkpt>
      <trkpt lat="-25.5118830" lon="-49.0025140">
        <ele>961.6</ele>
        <time>2021-04-17T13:57:25Z</time>
      </trkpt>
      <trkpt lat="-25.5118840" lon="-49.0025100">
        <ele>961.6</ele>
        <time>2021-04-17T13:57:26Z</time>
      </trkpt>
      <trkpt lat="-25.5118840" lon="-49.0025090">
        <ele>961.6</ele>
        <time>2021-04-17T13:57:27Z</time>
      </trkpt>
      <trkpt lat="-25.5118850" lon="-49.0025100">
        <ele>961.8</ele>
        <time>2021-04-17T13:57:29Z</time>
      </trkpt>
      <trkpt lat="-25.5118850" lon="-49.0025100">
        <ele>961.8</ele>
        <time>2021-04-17T13:57:31Z</time>
      </trkpt>
      <trkpt lat="-25.5118850" lon="-49.0025100">
        <ele>961.8</ele>
        <time>2021-04-17T13:57:33Z</time>
      </trkpt>
      <trkpt lat="-25.5118850" lon="-49.0025100">
        <ele>961.8</ele>
        <time>2021-04-17T13:57:35Z</time>
      </trkpt>
      <trkpt lat="-25.5118850" lon="-49.0025100">
        <ele>961.8</ele>
        <time>2021-04-17T13:57:37Z</time>
      </trkpt>
      <trkpt lat="-25.5118850" lon="-49.0025100">
        <ele>961.8</ele>
        <time>2021-04-17T13:57:39Z</time>
      </trkpt>
      <trkpt lat="-25.5118850" lon="-49.0025100">
        <ele>961.8</ele>
        <time>2021-04-17T13:57:41Z</time>
      </trkpt>
      <trkpt lat="-25.5118850" lon="-49.0025090">
        <ele>961.8</ele>
        <time>2021-04-17T13:57:43Z</time>
      </trkpt>
      <trkpt lat="-25.5118850" lon="-49.0025090">
        <ele>961.8</ele>
        <time>2021-04-17T13:57:45Z</time>
      </trkpt>
      <trkpt lat="-25.5118850" lon="-49.0025090">
        <ele>961.8</ele>
        <time>2021-04-17T13:57:47Z</time>
      </trkpt>
      <trkpt lat="-25.5118850" lon="-49.0025090">
        <ele>961.8</ele>
        <time>2021-04-17T13:57:49Z</time>
      </trkpt>
      <trkpt lat="-25.5118850" lon="-49.0025090">
        <ele>961.8</ele>
        <time>2021-04-17T13:57:51Z</time>
      </trkpt>
      <trkpt lat="-25.5118850" lon="-49.0025080">
        <ele>961.8</ele>
        <time>2021-04-17T13:57:52Z</time>
      </trkpt>
      <trkpt lat="-25.5118850" lon="-49.0025080">
        <ele>961.8</ele>
        <time>2021-04-17T13:57:53Z</time>
      </trkpt>
      <trkpt lat="-25.5118850" lon="-49.0025080">
        <ele>961.8</ele>
        <time>2021-04-17T13:57:55Z</time>
      </trkpt>
      <trkpt lat="-25.5118840" lon="-49.0025080">
        <ele>961.8</ele>
        <time>2021-04-17T13:57:57Z</time>
      </trkpt>
      <trkpt lat="-25.5118840" lon="-49.0025080">
        <ele>961.8</ele>
        <time>2021-04-17T13:57:59Z</time>
      </trkpt>
      <trkpt lat="-25.5118850" lon="-49.0025070">
        <ele>961.8</ele>
        <time>2021-04-17T13:58:01Z</time>
      </trkpt>
      <trkpt lat="-25.5118850" lon="-49.0025070">
        <ele>961.8</ele>
        <time>2021-04-17T13:58:03Z</time>
      </trkpt>
      <trkpt lat="-25.5118850" lon="-49.0025070">
        <ele>961.8</ele>
        <time>2021-04-17T13:58:05Z</time>
      </trkpt>
      <trkpt lat="-25.5118850" lon="-49.0025070">
        <ele>961.8</ele>
        <time>2021-04-17T13:58:07Z</time>
      </trkpt>
      <trkpt lat="-25.5118850" lon="-49.0025070">
        <ele>961.8</ele>
        <time>2021-04-17T13:58:09Z</time>
      </trkpt>
      <trkpt lat="-25.5118860" lon="-49.0025060">
        <ele>961.8</ele>
        <time>2021-04-17T13:58:11Z</time>
      </trkpt>
      <trkpt lat="-25.5118850" lon="-49.0025060">
        <ele>961.8</ele>
        <time>2021-04-17T13:58:13Z</time>
      </trkpt>
      <trkpt lat="-25.5118860" lon="-49.0025060">
        <ele>961.8</ele>
        <time>2021-04-17T13:58:15Z</time>
      </trkpt>
      <trkpt lat="-25.5118860" lon="-49.0025060">
        <ele>961.6</ele>
        <time>2021-04-17T13:58:17Z</time>
      </trkpt>
      <trkpt lat="-25.5118860" lon="-49.0025060">
        <ele>961.6</ele>
        <time>2021-04-17T13:58:19Z</time>
      </trkpt>
      <trkpt lat="-25.5118860" lon="-49.0025060">
        <ele>961.6</ele>
        <time>2021-04-17T13:58:21Z</time>
      </trkpt>
      <trkpt lat="-25.5118860" lon="-49.0025050">
        <ele>961.6</ele>
        <time>2021-04-17T13:58:23Z</time>
      </trkpt>
      <trkpt lat="-25.5118860" lon="-49.0025050">
        <ele>961.6</ele>
        <time>2021-04-17T13:58:24Z</time>
      </trkpt>
      <trkpt lat="-25.5118860" lon="-49.0025050">
        <ele>961.6</ele>
        <time>2021-04-17T13:58:25Z</time>
      </trkpt>
      <trkpt lat="-25.5118860" lon="-49.0025050">
        <ele>961.6</ele>
        <time>2021-04-17T13:58:27Z</time>
      </trkpt>
      <trkpt lat="-25.5118860" lon="-49.0025050">
        <ele>961.6</ele>
        <time>2021-04-17T13:58:29Z</time>
      </trkpt>
      <trkpt lat="-25.5118860" lon="-49.0025050">
        <ele>961.6</ele>
        <time>2021-04-17T13:58:31Z</time>
      </trkpt>
      <trkpt lat="-25.5118860" lon="-49.0025050">
        <ele>961.6</ele>
        <time>2021-04-17T13:58:33Z</time>
      </trkpt>
      <trkpt lat="-25.5118850" lon="-49.0025050">
        <ele>961.6</ele>
        <time>2021-04-17T13:58:35Z</time>
      </trkpt>
      <trkpt lat="-25.5118850" lon="-49.0025050">
        <ele>961.6</ele>
        <time>2021-04-17T13:58:37Z</time>
      </trkpt>
      <trkpt lat="-25.5118850" lon="-49.0025050">
        <ele>961.6</ele>
        <time>2021-04-17T13:58:39Z</time>
      </trkpt>
      <trkpt lat="-25.5118850" lon="-49.0025050">
        <ele>961.8</ele>
        <time>2021-04-17T13:58:41Z</time>
      </trkpt>
      <trkpt lat="-25.5118760" lon="-49.0025080">
        <ele>961.8</ele>
        <time>2021-04-17T13:58:43Z</time>
      </trkpt>
      <trkpt lat="-25.5118620" lon="-49.0025070">
        <ele>961.8</ele>
        <time>2021-04-17T13:58:44Z</time>
      </trkpt>
      <trkpt lat="-25.5118490" lon="-49.0025000">
        <ele>961.8</ele>
        <time>2021-04-17T13:58:45Z</time>
      </trkpt>
      <trkpt lat="-25.5118270" lon="-49.0024870">
        <ele>961.8</ele>
        <time>2021-04-17T13:58:47Z</time>
      </trkpt>
      <trkpt lat="-25.5117970" lon="-49.0024630">
        <ele>961.8</ele>
        <time>2021-04-17T13:58:49Z</time>
      </trkpt>
      <trkpt lat="-25.5117620" lon="-49.0024390">
        <ele>961.8</ele>
        <time>2021-04-17T13:58:51Z</time>
      </trkpt>
      <trkpt lat="-25.5117300" lon="-49.0024150">
        <ele>961.8</ele>
        <time>2021-04-17T13:58:53Z</time>
      </trkpt>
      <trkpt lat="-25.5116960" lon="-49.0023860">
        <ele>962.0</ele>
        <time>2021-04-17T13:58:55Z</time>
      </trkpt>
      <trkpt lat="-25.5116750" lon="-49.0023720">
        <ele>962.0</ele>
        <time>2021-04-17T13:58:56Z</time>
      </trkpt>
      <trkpt lat="-25.5116540" lon="-49.0023590">
        <ele>962.0</ele>
        <time>2021-04-17T13:58:57Z</time>
      </trkpt>
      <trkpt lat="-25.5116190" lon="-49.0023320">
        <ele>962.2</ele>
        <time>2021-04-17T13:58:59Z</time>
      </trkpt>
      <trkpt lat="-25.5115890" lon="-49.0022860">
        <ele>962.4</ele>
        <time>2021-04-17T13:59:01Z</time>
      </trkpt>
      <trkpt lat="-25.5115590" lon="-49.0022300">
        <ele>962.4</ele>
        <time>2021-04-17T13:59:03Z</time>
      </trkpt>
      <trkpt lat="-25.5115510" lon="-49.0022040">
        <ele>962.4</ele>
        <time>2021-04-17T13:59:04Z</time>
      </trkpt>
      <trkpt lat="-25.5115490" lon="-49.0021780">
        <ele>962.4</ele>
        <time>2021-04-17T13:59:05Z</time>
      </trkpt>
      <trkpt lat="-25.5115520" lon="-49.0021530">
        <ele>962.4</ele>
        <time>2021-04-17T13:59:06Z</time>
      </trkpt>
      <trkpt lat="-25.5115580" lon="-49.0021260">
        <ele>962.6</ele>
        <time>2021-04-17T13:59:07Z</time>
      </trkpt>
      <trkpt lat="-25.5115800" lon="-49.0020770">
        <ele>962.8</ele>
        <time>2021-04-17T13:59:09Z</time>
      </trkpt>
      <trkpt lat="-25.5116030" lon="-49.0020380">
        <ele>963.0</ele>
        <time>2021-04-17T13:59:11Z</time>
      </trkpt>
      <trkpt lat="-25.5116140" lon="-49.0020180">
        <ele>963.0</ele>
        <time>2021-04-17T13:59:12Z</time>
      </trkpt>
      <trkpt lat="-25.5116270" lon="-49.0020000">
        <ele>963.2</ele>
        <time>2021-04-17T13:59:13Z</time>
      </trkpt>
      <trkpt lat="-25.5116500" lon="-49.0019600">
        <ele>963.6</ele>
        <time>2021-04-17T13:59:15Z</time>
      </trkpt>
      <trkpt lat="-25.5116780" lon="-49.0019230">
        <ele>964.2</ele>
        <time>2021-04-17T13:59:17Z</time>
      </trkpt>
      <trkpt lat="-25.5117070" lon="-49.0018860">
        <ele>964.6</ele>
        <time>2021-04-17T13:59:19Z</time>
      </trkpt>
      <trkpt lat="-25.5117240" lon="-49.0018710">
        <ele>964.8</ele>
        <time>2021-04-17T13:59:20Z</time>
      </trkpt>
      <trkpt lat="-25.5117400" lon="-49.0018540">
        <ele>965.0</ele>
        <time>2021-04-17T13:59:21Z</time>
      </trkpt>
      <trkpt lat="-25.5117760" lon="-49.0018100">
        <ele>965.2</ele>
        <time>2021-04-17T13:59:23Z</time>
      </trkpt>
      <trkpt lat="-25.5118030" lon="-49.0017640">
        <ele>965.6</ele>
        <time>2021-04-17T13:59:25Z</time>
      </trkpt>
      <trkpt lat="-25.5118150" lon="-49.0017440">
        <ele>965.6</ele>
        <time>2021-04-17T13:59:26Z</time>
      </trkpt>
      <trkpt lat="-25.5118280" lon="-49.0017270">
        <ele>965.8</ele>
        <time>2021-04-17T13:59:27Z</time>
      </trkpt>
      <trkpt lat="-25.5118640" lon="-49.0016870">
        <ele>966.0</ele>
        <time>2021-04-17T13:59:29Z</time>
      </trkpt>
      <trkpt lat="-25.5118950" lon="-49.0016330">
        <ele>966.4</ele>
        <time>2021-04-17T13:59:31Z</time>
      </trkpt>
      <trkpt lat="-25.5119270" lon="-49.0015880">
        <ele>966.6</ele>
        <time>2021-04-17T13:59:33Z</time>
      </trkpt>
      <trkpt lat="-25.5119410" lon="-49.0015660">
        <ele>966.8</ele>
        <time>2021-04-17T13:59:34Z</time>
      </trkpt>
      <trkpt lat="-25.5119570" lon="-49.0015460">
        <ele>967.0</ele>
        <time>2021-04-17T13:59:35Z</time>
      </trkpt>
      <trkpt lat="-25.5119880" lon="-49.0015070">
        <ele>967.6</ele>
        <time>2021-04-17T13:59:37Z</time>
      </trkpt>
      <trkpt lat="-25.5120190" lon="-49.0014670">
        <ele>968.0</ele>
        <time>2021-04-17T13:59:39Z</time>
      </trkpt>
      <trkpt lat="-25.5120460" lon="-49.0014270">
        <ele>968.2</ele>
        <time>2021-04-17T13:59:41Z</time>
      </trkpt>
      <trkpt lat="-25.5120740" lon="-49.0013850">
        <ele>968.6</ele>
        <time>2021-04-17T13:59:43Z</time>
      </trkpt>
      <trkpt lat="-25.5121070" lon="-49.0013470">
        <ele>969.0</ele>
        <time>2021-04-17T13:59:45Z</time>
      </trkpt>
      <trkpt lat="-25.5121220" lon="-49.0013280">
        <ele>969.2</ele>
        <time>2021-04-17T13:59:46Z</time>
      </trkpt>
      <trkpt lat="-25.5121380" lon="-49.0013130">
        <ele>969.4</ele>
        <time>2021-04-17T13:59:47Z</time>
      </trkpt>
      <trkpt lat="-25.5121690" lon="-49.0012870">
        <ele>970.0</ele>
        <time>2021-04-17T13:59:49Z</time>
      </trkpt>
      <trkpt lat="-25.5122050" lon="-49.0012480">
        <ele>970.2</ele>
        <time>2021-04-17T13:59:51Z</time>
      </trkpt>
      <trkpt lat="-25.5122420" lon="-49.0012040">
        <ele>970.8</ele>
        <time>2021-04-17T13:59:53Z</time>
      </trkpt>
      <trkpt lat="-25.5122870" lon="-49.0011610">
        <ele>971.0</ele>
        <time>2021-04-17T13:59:55Z</time>
      </trkpt>
      <trkpt lat="-25.5123440" lon="-49.0011120">
        <ele>971.2</ele>
        <time>2021-04-17T13:59:57Z</time>
      </trkpt>
      <trkpt lat="-25.5124080" lon="-49.0010500">
        <ele>971.2</ele>
        <time>2021-04-17T13:59:59Z</time>
      </trkpt>
      <trkpt lat="-25.5124950" lon="-49.0009750">
        <ele>971.2</ele>
        <time>2021-04-17T14:00:01Z</time>
      </trkpt>
      <trkpt lat="-25.5126170" lon="-49.0008770">
        <ele>971.2</ele>
        <time>2021-04-17T14:00:03Z</time>
      </trkpt>
      <trkpt lat="-25.5126830" lon="-49.0008250">
        <ele>971.2</ele>
        <time>2021-04-17T14:00:04Z</time>
      </trkpt>
      <trkpt lat="-25.5127510" lon="-49.0007710">
        <ele>971.0</ele>
        <time>2021-04-17T14:00:05Z</time>
      </trkpt>
      <trkpt lat="-25.5128160" lon="-49.0007170">
        <ele>970.8</ele>
        <time>2021-04-17T14:00:06Z</time>
      </trkpt>
      <trkpt lat="-25.5128790" lon="-49.0006590">
        <ele>970.4</ele>
        <time>2021-04-17T14:00:07Z</time>
      </trkpt>
      <trkpt lat="-25.5129970" lon="-49.0005430">
        <ele>969.4</ele>
        <time>2021-04-17T14:00:09Z</time>
      </trkpt>
      <trkpt lat="-25.5130530" lon="-49.0004870">
        <ele>969.0</ele>
        <time>2021-04-17T14:00:10Z</time>
      </trkpt>
      <trkpt lat="-25.5131080" lon="-49.0004390">
        <ele>968.4</ele>
        <time>2021-04-17T14:00:11Z</time>
      </trkpt>
      <trkpt lat="-25.5131600" lon="-49.0003950">
        <ele>967.8</ele>
        <time>2021-04-17T14:00:12Z</time>
      </trkpt>
      <trkpt lat="-25.5132050" lon="-49.0003500">
        <ele>967.2</ele>
        <time>2021-04-17T14:00:13Z</time>
      </trkpt>
      <trkpt lat="-25.5132500" lon="-49.0003090">
        <ele>967.0</ele>
        <time>2021-04-17T14:00:14Z</time>
      </trkpt>
      <trkpt lat="-25.5132930" lon="-49.0002710">
        <ele>966.8</ele>
        <time>2021-04-17T14:00:15Z</time>
      </trkpt>
      <trkpt lat="-25.5133580" lon="-49.0002130">
        <ele>966.6</ele>
        <time>2021-04-17T14:00:17Z</time>
      </trkpt>
      <trkpt lat="-25.5133850" lon="-49.0001930">
        <ele>966.6</ele>
        <time>2021-04-17T14:00:18Z</time>
      </trkpt>
      <trkpt lat="-25.5134070" lon="-49.0001710">
        <ele>966.6</ele>
        <time>2021-04-17T14:00:19Z</time>
      </trkpt>
      <trkpt lat="-25.5134420" lon="-49.0001320">
        <ele>966.6</ele>
        <time>2021-04-17T14:00:21Z</time>
      </trkpt>
      <trkpt lat="-25.5134700" lon="-49.0000940">
        <ele>966.6</ele>
        <time>2021-04-17T14:00:23Z</time>
      </trkpt>
      <trkpt lat="-25.5134870" lon="-49.0000760">
        <ele>966.8</ele>
        <time>2021-04-17T14:00:24Z</time>
      </trkpt>
      <trkpt lat="-25.5135020" lon="-49.0000590">
        <ele>966.8</ele>
        <time>2021-04-17T14:00:25Z</time>
      </trkpt>
      <trkpt lat="-25.5135280" lon="-49.0000230">
        <ele>967.2</ele>
        <time>2021-04-17T14:00:27Z</time>
      </trkpt>
      <trkpt lat="-25.5135550" lon="-48.9999860">
        <ele>967.6</ele>
        <time>2021-04-17T14:00:29Z</time>
      </trkpt>
      <trkpt lat="-25.5135690" lon="-48.9999680">
        <ele>968.0</ele>
        <time>2021-04-17T14:00:30Z</time>
      </trkpt>
      <trkpt lat="-25.5135820" lon="-48.9999460">
        <ele>968.4</ele>
        <time>2021-04-17T14:00:31Z</time>
      </trkpt>
      <trkpt lat="-25.5136090" lon="-48.9999070">
        <ele>968.6</ele>
        <time>2021-04-17T14:00:33Z</time>
      </trkpt>
      <trkpt lat="-25.5136340" lon="-48.9998750">
        <ele>969.0</ele>
        <time>2021-04-17T14:00:35Z</time>
      </trkpt>
      <trkpt lat="-25.5136420" lon="-48.9998560">
        <ele>969.2</ele>
        <time>2021-04-17T14:00:36Z</time>
      </trkpt>
      <trkpt lat="-25.5136500" lon="-48.9998360">
        <ele>969.4</ele>
        <time>2021-04-17T14:00:37Z</time>
      </trkpt>
      <trkpt lat="-25.5136580" lon="-48.9998150">
        <ele>969.6</ele>
        <time>2021-04-17T14:00:38Z</time>
      </trkpt>
      <trkpt lat="-25.5136650" lon="-48.9997950">
        <ele>969.8</ele>
        <time>2021-04-17T14:00:39Z</time>
      </trkpt>
      <trkpt lat="-25.5136810" lon="-48.9997510">
        <ele>970.2</ele>
        <time>2021-04-17T14:00:41Z</time>
      </trkpt>
      <trkpt lat="-25.5136890" lon="-48.9997300">
        <ele>970.4</ele>
        <time>2021-04-17T14:00:42Z</time>
      </trkpt>
      <trkpt lat="-25.5136960" lon="-48.9997070">
        <ele>970.6</ele>
        <time>2021-04-17T14:00:43Z</time>
      </trkpt>
      <trkpt lat="-25.5137080" lon="-48.9996610">
        <ele>971.0</ele>
        <time>2021-04-17T14:00:45Z</time>
      </trkpt>
      <trkpt lat="-25.5137140" lon="-48.9996400">
        <ele>971.0</ele>
        <time>2021-04-17T14:00:46Z</time>
      </trkpt>
      <trkpt lat="-25.5137180" lon="-48.9996200">
        <ele>971.4</ele>
        <time>2021-04-17T14:00:47Z</time>
      </trkpt>
      <trkpt lat="-25.5137230" lon="-48.9996030">
        <ele>971.6</ele>
        <time>2021-04-17T14:00:48Z</time>
      </trkpt>
      <trkpt lat="-25.5137280" lon="-48.9995880">
        <ele>971.6</ele>
        <time>2021-04-17T14:00:49Z</time>
      </trkpt>
      <trkpt lat="-25.5137400" lon="-48.9995550">
        <ele>972.4</ele>
        <time>2021-04-17T14:00:51Z</time>
      </trkpt>
      <trkpt lat="-25.5137440" lon="-48.9995260">
        <ele>972.8</ele>
        <time>2021-04-17T14:00:53Z</time>
      </trkpt>
      <trkpt lat="-25.5137460" lon="-48.9995040">
        <ele>973.2</ele>
        <time>2021-04-17T14:00:55Z</time>
      </trkpt>
      <trkpt lat="-25.5137520" lon="-48.9994650">
        <ele>973.8</ele>
        <time>2021-04-17T14:00:57Z</time>
      </trkpt>
      <trkpt lat="-25.5137560" lon="-48.9994460">
        <ele>974.0</ele>
        <time>2021-04-17T14:00:58Z</time>
      </trkpt>
      <trkpt lat="-25.5137590" lon="-48.9994280">
        <ele>974.2</ele>
        <time>2021-04-17T14:00:59Z</time>
      </trkpt>
      <trkpt lat="-25.5137730" lon="-48.9993910">
        <ele>974.8</ele>
        <time>2021-04-17T14:01:01Z</time>
      </trkpt>
      <trkpt lat="-25.5137770" lon="-48.9993700">
        <ele>975.0</ele>
        <time>2021-04-17T14:01:02Z</time>
      </trkpt>
      <trkpt lat="-25.5137790" lon="-48.9993550">
        <ele>975.2</ele>
        <time>2021-04-17T14:01:03Z</time>
      </trkpt>
      <trkpt lat="-25.5137820" lon="-48.9993290">
        <ele>975.6</ele>
        <time>2021-04-17T14:01:05Z</time>
      </trkpt>
      <trkpt lat="-25.5137830" lon="-48.9993160">
        <ele>975.8</ele>
        <time>2021-04-17T14:01:06Z</time>
      </trkpt>
      <trkpt lat="-25.5137840" lon="-48.9993000">
        <ele>975.8</ele>
        <time>2021-04-17T14:01:07Z</time>
      </trkpt>
      <trkpt lat="-25.5137890" lon="-48.9992850">
        <ele>976.2</ele>
        <time>2021-04-17T14:01:08Z</time>
      </trkpt>
      <trkpt lat="-25.5137930" lon="-48.9992730">
        <ele>976.4</ele>
        <time>2021-04-17T14:01:09Z</time>
      </trkpt>
      <trkpt lat="-25.5138010" lon="-48.9992460">
        <ele>976.8</ele>
        <time>2021-04-17T14:01:11Z</time>
      </trkpt>
      <trkpt lat="-25.5138110" lon="-48.9992120">
        <ele>977.4</ele>
        <time>2021-04-17T14:01:13Z</time>
      </trkpt>
      <trkpt lat="-25.5138270" lon="-48.9991770">
        <ele>977.6</ele>
        <time>2021-04-17T14:01:15Z</time>
      </trkpt>
      <trkpt lat="-25.5138510" lon="-48.9991480">
        <ele>978.0</ele>
        <time>2021-04-17T14:01:17Z</time>
      </trkpt>
      <trkpt lat="-25.5138770" lon="-48.9991210">
        <ele>978.4</ele>
        <time>2021-04-17T14:01:19Z</time>
      </trkpt>
      <trkpt lat="-25.5139020" lon="-48.9991020">
        <ele>978.6</ele>
        <time>2021-04-17T14:01:21Z</time>
      </trkpt>
      <trkpt lat="-25.5139280" lon="-48.9990850">
        <ele>979.0</ele>
        <time>2021-04-17T14:01:23Z</time>
      </trkpt>
      <trkpt lat="-25.5139540" lon="-48.9990700">
        <ele>979.6</ele>
        <time>2021-04-17T14:01:25Z</time>
      </trkpt>
      <trkpt lat="-25.5139740" lon="-48.9990520">
        <ele>980.0</ele>
        <time>2021-04-17T14:01:27Z</time>
      </trkpt>
      <trkpt lat="-25.5140040" lon="-48.9990390">
        <ele>980.2</ele>
        <time>2021-04-17T14:01:29Z</time>
      </trkpt>
      <trkpt lat="-25.5140200" lon="-48.9990250">
        <ele>980.4</ele>
        <time>2021-04-17T14:01:30Z</time>
      </trkpt>
      <trkpt lat="-25.5140330" lon="-48.9990110">
        <ele>980.6</ele>
        <time>2021-04-17T14:01:31Z</time>
      </trkpt>
      <trkpt lat="-25.5140510" lon="-48.9990000">
        <ele>980.6</ele>
        <time>2021-04-17T14:01:32Z</time>
      </trkpt>
      <trkpt lat="-25.5140730" lon="-48.9989850">
        <ele>980.8</ele>
        <time>2021-04-17T14:01:33Z</time>
      </trkpt>
      <trkpt lat="-25.5141140" lon="-48.9989570">
        <ele>981.0</ele>
        <time>2021-04-17T14:01:35Z</time>
      </trkpt>
      <trkpt lat="-25.5141400" lon="-48.9989380">
        <ele>981.4</ele>
        <time>2021-04-17T14:01:37Z</time>
      </trkpt>
      <trkpt lat="-25.5141550" lon="-48.9989280">
        <ele>981.6</ele>
        <time>2021-04-17T14:01:38Z</time>
      </trkpt>
      <trkpt lat="-25.5141660" lon="-48.9989170">
        <ele>981.8</ele>
        <time>2021-04-17T14:01:39Z</time>
      </trkpt>
      <trkpt lat="-25.5141830" lon="-48.9988890">
        <ele>982.0</ele>
        <time>2021-04-17T14:01:41Z</time>
      </trkpt>
      <trkpt lat="-25.5141930" lon="-48.9988730">
        <ele>982.2</ele>
        <time>2021-04-17T14:01:42Z</time>
      </trkpt>
      <trkpt lat="-25.5142030" lon="-48.9988570">
        <ele>982.4</ele>
        <time>2021-04-17T14:01:43Z</time>
      </trkpt>
      <trkpt lat="-25.5142230" lon="-48.9988270">
        <ele>982.6</ele>
        <time>2021-04-17T14:01:45Z</time>
      </trkpt>
      <trkpt lat="-25.5142330" lon="-48.9988120">
        <ele>982.6</ele>
        <time>2021-04-17T14:01:46Z</time>
      </trkpt>
      <trkpt lat="-25.5142410" lon="-48.9987970">
        <ele>982.8</ele>
        <time>2021-04-17T14:01:47Z</time>
      </trkpt>
      <trkpt lat="-25.5142660" lon="-48.9987650">
        <ele>983.0</ele>
        <time>2021-04-17T14:01:49Z</time>
      </trkpt>
      <trkpt lat="-25.5142940" lon="-48.9987350">
        <ele>983.2</ele>
        <time>2021-04-17T14:01:51Z</time>
      </trkpt>
      <trkpt lat="-25.5143200" lon="-48.9987030">
        <ele>983.4</ele>
        <time>2021-04-17T14:01:53Z</time>
      </trkpt>
      <trkpt lat="-25.5143400" lon="-48.9986760">
        <ele>983.6</ele>
        <time>2021-04-17T14:01:55Z</time>
      </trkpt>
      <trkpt lat="-25.5143490" lon="-48.9986670">
        <ele>983.8</ele>
        <time>2021-04-17T14:01:56Z</time>
      </trkpt>
      <trkpt lat="-25.5143590" lon="-48.9986520">
        <ele>984.0</ele>
        <time>2021-04-17T14:01:57Z</time>
      </trkpt>
      <trkpt lat="-25.5143790" lon="-48.9986270">
        <ele>984.0</ele>
        <time>2021-04-17T14:01:59Z</time>
      </trkpt>
      <trkpt lat="-25.5143990" lon="-48.9986040">
        <ele>984.2</ele>
        <time>2021-04-17T14:02:01Z</time>
      </trkpt>
      <trkpt lat="-25.5144190" lon="-48.9985820">
        <ele>984.6</ele>
        <time>2021-04-17T14:02:03Z</time>
      </trkpt>
      <trkpt lat="-25.5144370" lon="-48.9985520">
        <ele>985.0</ele>
        <time>2021-04-17T14:02:05Z</time>
      </trkpt>
      <trkpt lat="-25.5144500" lon="-48.9985230">
        <ele>985.2</ele>
        <time>2021-04-17T14:02:07Z</time>
      </trkpt>
      <trkpt lat="-25.5144710" lon="-48.9984900">
        <ele>985.6</ele>
        <time>2021-04-17T14:02:09Z</time>
      </trkpt>
      <trkpt lat="-25.5144860" lon="-48.9984520">
        <ele>985.8</ele>
        <time>2021-04-17T14:02:11Z</time>
      </trkpt>
      <trkpt lat="-25.5144920" lon="-48.9984350">
        <ele>986.0</ele>
        <time>2021-04-17T14:02:12Z</time>
      </trkpt>
      <trkpt lat="-25.5145010" lon="-48.9984200">
        <ele>986.0</ele>
        <time>2021-04-17T14:02:13Z</time>
      </trkpt>
      <trkpt lat="-25.5145160" lon="-48.9983860">
        <ele>986.4</ele>
        <time>2021-04-17T14:02:15Z</time>
      </trkpt>
      <trkpt lat="-25.5145330" lon="-48.9983550">
        <ele>986.6</ele>
        <time>2021-04-17T14:02:17Z</time>
      </trkpt>
      <trkpt lat="-25.5145510" lon="-48.9983270">
        <ele>986.8</ele>
        <time>2021-04-17T14:02:19Z</time>
      </trkpt>
      <trkpt lat="-25.5145600" lon="-48.9983010">
        <ele>986.8</ele>
        <time>2021-04-17T14:02:21Z</time>
      </trkpt>
      <trkpt lat="-25.5145750" lon="-48.9982650">
        <ele>987.0</ele>
        <time>2021-04-17T14:02:23Z</time>
      </trkpt>
      <trkpt lat="-25.5146030" lon="-48.9982290">
        <ele>987.2</ele>
        <time>2021-04-17T14:02:25Z</time>
      </trkpt>
      <trkpt lat="-25.5146340" lon="-48.9981820">
        <ele>987.4</ele>
        <time>2021-04-17T14:02:27Z</time>
      </trkpt>
      <trkpt lat="-25.5146490" lon="-48.9981530">
        <ele>987.4</ele>
        <time>2021-04-17T14:02:28Z</time>
      </trkpt>
      <trkpt lat="-25.5146640" lon="-48.9981280">
        <ele>987.4</ele>
        <time>2021-04-17T14:02:29Z</time>
      </trkpt>
      <trkpt lat="-25.5146910" lon="-48.9980770">
        <ele>987.2</ele>
        <time>2021-04-17T14:02:31Z</time>
      </trkpt>
      <trkpt lat="-25.5147160" lon="-48.9980320">
        <ele>987.6</ele>
        <time>2021-04-17T14:02:33Z</time>
      </trkpt>
      <trkpt lat="-25.5147360" lon="-48.9979800">
        <ele>987.8</ele>
        <time>2021-04-17T14:02:35Z</time>
      </trkpt>
      <trkpt lat="-25.5147550" lon="-48.9979120">
        <ele>988.0</ele>
        <time>2021-04-17T14:02:37Z</time>
      </trkpt>
      <trkpt lat="-25.5147770" lon="-48.9978560">
        <ele>988.0</ele>
        <time>2021-04-17T14:02:39Z</time>
      </trkpt>
      <trkpt lat="-25.5148010" lon="-48.9977920">
        <ele>988.2</ele>
        <time>2021-04-17T14:02:41Z</time>
      </trkpt>
      <trkpt lat="-25.5148090" lon="-48.9977150">
        <ele>988.2</ele>
        <time>2021-04-17T14:02:43Z</time>
      </trkpt>
      <trkpt lat="-25.5148010" lon="-48.9976420">
        <ele>988.2</ele>
        <time>2021-04-17T14:02:45Z</time>
      </trkpt>
      <trkpt lat="-25.5148020" lon="-48.9976080">
        <ele>988.2</ele>
        <time>2021-04-17T14:02:46Z</time>
      </trkpt>
      <trkpt lat="-25.5148030" lon="-48.9975780">
        <ele>988.2</ele>
        <time>2021-04-17T14:02:47Z</time>
      </trkpt>
      <trkpt lat="-25.5148100" lon="-48.9975080">
        <ele>988.2</ele>
        <time>2021-04-17T14:02:49Z</time>
      </trkpt>
      <trkpt lat="-25.5148230" lon="-48.9974250">
        <ele>988.4</ele>
        <time>2021-04-17T14:02:51Z</time>
      </trkpt>
      <trkpt lat="-25.5148340" lon="-48.9973720">
        <ele>988.4</ele>
        <time>2021-04-17T14:02:52Z</time>
      </trkpt>
      <trkpt lat="-25.5148470" lon="-48.9973170">
        <ele>988.2</ele>
        <time>2021-04-17T14:02:53Z</time>
      </trkpt>
      <trkpt lat="-25.5148650" lon="-48.9971970">
        <ele>988.2</ele>
        <time>2021-04-17T14:02:55Z</time>
      </trkpt>
      <trkpt lat="-25.5148990" lon="-48.9970420">
        <ele>987.6</ele>
        <time>2021-04-17T14:02:57Z</time>
      </trkpt>
      <trkpt lat="-25.5149260" lon="-48.9968940">
        <ele>987.2</ele>
        <time>2021-04-17T14:02:59Z</time>
      </trkpt>
      <trkpt lat="-25.5149350" lon="-48.9968280">
        <ele>986.8</ele>
        <time>2021-04-17T14:03:00Z</time>
      </trkpt>
      <trkpt lat="-25.5149480" lon="-48.9967590">
        <ele>986.6</ele>
        <time>2021-04-17T14:03:01Z</time>
      </trkpt>
      <trkpt lat="-25.5149610" lon="-48.9966880">
        <ele>986.2</ele>
        <time>2021-04-17T14:03:02Z</time>
      </trkpt>
      <trkpt lat="-25.5149690" lon="-48.9966090">
        <ele>985.8</ele>
        <time>2021-04-17T14:03:03Z</time>
      </trkpt>
      <trkpt lat="-25.5149680" lon="-48.9965310">
        <ele>985.6</ele>
        <time>2021-04-17T14:03:04Z</time>
      </trkpt>
      <trkpt lat="-25.5149670" lon="-48.9964510">
        <ele>985.2</ele>
        <time>2021-04-17T14:03:05Z</time>
      </trkpt>
      <trkpt lat="-25.5149620" lon="-48.9963650">
        <ele>984.8</ele>
        <time>2021-04-17T14:03:06Z</time>
      </trkpt>
      <trkpt lat="-25.5149520" lon="-48.9962770">
        <ele>984.6</ele>
        <time>2021-04-17T14:03:07Z</time>
      </trkpt>
      <trkpt lat="-25.5149200" lon="-48.9960800">
        <ele>983.4</ele>
        <time>2021-04-17T14:03:09Z</time>
      </trkpt>
      <trkpt lat="-25.5148580" lon="-48.9958680">
        <ele>982.4</ele>
        <time>2021-04-17T14:03:11Z</time>
      </trkpt>
      <trkpt lat="-25.5148350" lon="-48.9957670">
        <ele>981.0</ele>
        <time>2021-04-17T14:03:12Z</time>
      </trkpt>
      <trkpt lat="-25.5148080" lon="-48.9956680">
        <ele>980.2</ele>
        <time>2021-04-17T14:03:13Z</time>
      </trkpt>
      <trkpt lat="-25.5147710" lon="-48.9955730">
        <ele>979.8</ele>
        <time>2021-04-17T14:03:14Z</time>
      </trkpt>
      <trkpt lat="-25.5147330" lon="-48.9954910">
        <ele>979.4</ele>
        <time>2021-04-17T14:03:15Z</time>
      </trkpt>
      <trkpt lat="-25.5146860" lon="-48.9954190">
        <ele>979.0</ele>
        <time>2021-04-17T14:03:16Z</time>
      </trkpt>
      <trkpt lat="-25.5146270" lon="-48.9953470">
        <ele>978.4</ele>
        <time>2021-04-17T14:03:17Z</time>
      </trkpt>
      <trkpt lat="-25.5144850" lon="-48.9952450">
        <ele>977.6</ele>
        <time>2021-04-17T14:03:19Z</time>
      </trkpt>
      <trkpt lat="-25.5144110" lon="-48.9952050">
        <ele>977.2</ele>
        <time>2021-04-17T14:03:20Z</time>
      </trkpt>
      <trkpt lat="-25.5143450" lon="-48.9951640">
        <ele>976.8</ele>
        <time>2021-04-17T14:03:21Z</time>
      </trkpt>
      <trkpt lat="-25.5142910" lon="-48.9951140">
        <ele>976.2</ele>
        <time>2021-04-17T14:03:22Z</time>
      </trkpt>
      <trkpt lat="-25.5142480" lon="-48.9950650">
        <ele>975.8</ele>
        <time>2021-04-17T14:03:23Z</time>
      </trkpt>
      <trkpt lat="-25.5141610" lon="-48.9949550">
        <ele>974.8</ele>
        <time>2021-04-17T14:03:25Z</time>
      </trkpt>
      <trkpt lat="-25.5141290" lon="-48.9948960">
        <ele>974.4</ele>
        <time>2021-04-17T14:03:26Z</time>
      </trkpt>
      <trkpt lat="-25.5141040" lon="-48.9948340">
        <ele>974.2</ele>
        <time>2021-04-17T14:03:27Z</time>
      </trkpt>
      <trkpt lat="-25.5140860" lon="-48.9947700">
        <ele>974.4</ele>
        <time>2021-04-17T14:03:28Z</time>
      </trkpt>
      <trkpt lat="-25.5140780" lon="-48.9947080">
        <ele>974.2</ele>
        <time>2021-04-17T14:03:29Z</time>
      </trkpt>
      <trkpt lat="-25.5140650" lon="-48.9945650">
        <ele>974.0</ele>
        <time>2021-04-17T14:03:31Z</time>
      </trkpt>
      <trkpt lat="-25.5140640" lon="-48.9944930">
        <ele>974.0</ele>
        <time>2021-04-17T14:03:32Z</time>
      </trkpt>
      <trkpt lat="-25.5140670" lon="-48.9944140">
        <ele>973.8</ele>
        <time>2021-04-17T14:03:33Z</time>
      </trkpt>
      <trkpt lat="-25.5140790" lon="-48.9943370">
        <ele>973.6</ele>
        <time>2021-04-17T14:03:34Z</time>
      </trkpt>
      <trkpt lat="-25.5140930" lon="-48.9942650">
        <ele>973.6</ele>
        <time>2021-04-17T14:03:35Z</time>
      </trkpt>
      <trkpt lat="-25.5141100" lon="-48.9942040">
        <ele>973.4</ele>
        <time>2021-04-17T14:03:36Z</time>
      </trkpt>
      <trkpt lat="-25.5141270" lon="-48.9941510">
        <ele>973.4</ele>
        <time>2021-04-17T14:03:37Z</time>
      </trkpt>
      <trkpt lat="-25.5141570" lon="-48.9940630">
        <ele>973.2</ele>
        <time>2021-04-17T14:03:39Z</time>
      </trkpt>
      <trkpt lat="-25.5141850" lon="-48.9939950">
        <ele>973.2</ele>
        <time>2021-04-17T14:03:41Z</time>
      </trkpt>
      <trkpt lat="-25.5142000" lon="-48.9939500">
        <ele>973.2</ele>
        <time>2021-04-17T14:03:43Z</time>
      </trkpt>
      <trkpt lat="-25.5142030" lon="-48.9939160">
        <ele>973.2</ele>
        <time>2021-04-17T14:03:45Z</time>
      </trkpt>
      <trkpt lat="-25.5142100" lon="-48.9938840">
        <ele>973.2</ele>
        <time>2021-04-17T14:03:47Z</time>
      </trkpt>
      <trkpt lat="-25.5142190" lon="-48.9938500">
        <ele>973.6</ele>
        <time>2021-04-17T14:03:49Z</time>
      </trkpt>
      <trkpt lat="-25.5142320" lon="-48.9938070">
        <ele>974.0</ele>
        <time>2021-04-17T14:03:51Z</time>
      </trkpt>
      <trkpt lat="-25.5142370" lon="-48.9937890">
        <ele>974.2</ele>
        <time>2021-04-17T14:03:52Z</time>
      </trkpt>
      <trkpt lat="-25.5142420" lon="-48.9937720">
        <ele>974.6</ele>
        <time>2021-04-17T14:03:53Z</time>
      </trkpt>
      <trkpt lat="-25.5142510" lon="-48.9937400">
        <ele>975.0</ele>
        <time>2021-04-17T14:03:55Z</time>
      </trkpt>
      <trkpt lat="-25.5142510" lon="-48.9937400">
        <ele>975.0</ele>
        <time>2021-04-17T14:03:56Z</time>
      </trkpt>
      <trkpt lat="-25.5142500" lon="-48.9937020">
        <ele>975.2</ele>
        <time>2021-04-17T14:03:57Z</time>
      </trkpt>
      <trkpt lat="-25.5142490" lon="-48.9936690">
        <ele>975.6</ele>
        <time>2021-04-17T14:03:59Z</time>
      </trkpt>
      <trkpt lat="-25.5142500" lon="-48.9936510">
        <ele>976.2</ele>
        <time>2021-04-17T14:04:00Z</time>
      </trkpt>
      <trkpt lat="-25.5142530" lon="-48.9936350">
        <ele>976.6</ele>
        <time>2021-04-17T14:04:01Z</time>
      </trkpt>
      <trkpt lat="-25.5142640" lon="-48.9935960">
        <ele>977.2</ele>
        <time>2021-04-17T14:04:03Z</time>
      </trkpt>
      <trkpt lat="-25.5142650" lon="-48.9935800">
        <ele>977.2</ele>
        <time>2021-04-17T14:04:04Z</time>
      </trkpt>
      <trkpt lat="-25.5142670" lon="-48.9935650">
        <ele>977.6</ele>
        <time>2021-04-17T14:04:05Z</time>
      </trkpt>
      <trkpt lat="-25.5142730" lon="-48.9935370">
        <ele>978.0</ele>
        <time>2021-04-17T14:04:07Z</time>
      </trkpt>
      <trkpt lat="-25.5142760" lon="-48.9935200">
        <ele>978.2</ele>
        <time>2021-04-17T14:04:08Z</time>
      </trkpt>
      <trkpt lat="-25.5142770" lon="-48.9935040">
        <ele>978.6</ele>
        <time>2021-04-17T14:04:09Z</time>
      </trkpt>
      <trkpt lat="-25.5142850" lon="-48.9934730">
        <ele>979.0</ele>
        <time>2021-04-17T14:04:11Z</time>
      </trkpt>
      <trkpt lat="-25.5142900" lon="-48.9934380">
        <ele>979.2</ele>
        <time>2021-04-17T14:04:13Z</time>
      </trkpt>
      <trkpt lat="-25.5142940" lon="-48.9934080">
        <ele>979.6</ele>
        <time>2021-04-17T14:04:15Z</time>
      </trkpt>
      <trkpt lat="-25.5142940" lon="-48.9933920">
        <ele>979.8</ele>
        <time>2021-04-17T14:04:16Z</time>
      </trkpt>
      <trkpt lat="-25.5142910" lon="-48.9933740">
        <ele>980.0</ele>
        <time>2021-04-17T14:04:17Z</time>
      </trkpt>
      <trkpt lat="-25.5142920" lon="-48.9933400">
        <ele>980.4</ele>
        <time>2021-04-17T14:04:19Z</time>
      </trkpt>
      <trkpt lat="-25.5142950" lon="-48.9933220">
        <ele>980.8</ele>
        <time>2021-04-17T14:04:20Z</time>
      </trkpt>
      <trkpt lat="-25.5142990" lon="-48.9933060">
        <ele>981.0</ele>
        <time>2021-04-17T14:04:21Z</time>
      </trkpt>
      <trkpt lat="-25.5143050" lon="-48.9932740">
        <ele>981.4</ele>
        <time>2021-04-17T14:04:23Z</time>
      </trkpt>
      <trkpt lat="-25.5143120" lon="-48.9932360">
        <ele>981.8</ele>
        <time>2021-04-17T14:04:25Z</time>
      </trkpt>
      <trkpt lat="-25.5143140" lon="-48.9932050">
        <ele>982.2</ele>
        <time>2021-04-17T14:04:27Z</time>
      </trkpt>
      <trkpt lat="-25.5143190" lon="-48.9931690">
        <ele>982.8</ele>
        <time>2021-04-17T14:04:29Z</time>
      </trkpt>
      <trkpt lat="-25.5143240" lon="-48.9931250">
        <ele>983.4</ele>
        <time>2021-04-17T14:04:31Z</time>
      </trkpt>
      <trkpt lat="-25.5143340" lon="-48.9930810">
        <ele>984.0</ele>
        <time>2021-04-17T14:04:33Z</time>
      </trkpt>
      <trkpt lat="-25.5143420" lon="-48.9930380">
        <ele>984.4</ele>
        <time>2021-04-17T14:04:35Z</time>
      </trkpt>
      <trkpt lat="-25.5143470" lon="-48.9929870">
        <ele>984.8</ele>
        <time>2021-04-17T14:04:37Z</time>
      </trkpt>
      <trkpt lat="-25.5143430" lon="-48.9929600">
        <ele>985.0</ele>
        <time>2021-04-17T14:04:38Z</time>
      </trkpt>
      <trkpt lat="-25.5143410" lon="-48.9929370">
        <ele>985.2</ele>
        <time>2021-04-17T14:04:39Z</time>
      </trkpt>
      <trkpt lat="-25.5143350" lon="-48.9929010">
        <ele>985.4</ele>
        <time>2021-04-17T14:04:41Z</time>
      </trkpt>
      <trkpt lat="-25.5143280" lon="-48.9928560">
        <ele>985.8</ele>
        <time>2021-04-17T14:04:43Z</time>
      </trkpt>
      <trkpt lat="-25.5143290" lon="-48.9928290">
        <ele>986.0</ele>
        <time>2021-04-17T14:04:44Z</time>
      </trkpt>
      <trkpt lat="-25.5143320" lon="-48.9928020">
        <ele>986.2</ele>
        <time>2021-04-17T14:04:45Z</time>
      </trkpt>
      <trkpt lat="-25.5143330" lon="-48.9927410">
        <ele>986.6</ele>
        <time>2021-04-17T14:04:47Z</time>
      </trkpt>
      <trkpt lat="-25.5143440" lon="-48.9926840">
        <ele>987.0</ele>
        <time>2021-04-17T14:04:49Z</time>
      </trkpt>
      <trkpt lat="-25.5143530" lon="-48.9926560">
        <ele>987.0</ele>
        <time>2021-04-17T14:04:50Z</time>
      </trkpt>
      <trkpt lat="-25.5143600" lon="-48.9926260">
        <ele>987.0</ele>
        <time>2021-04-17T14:04:51Z</time>
      </trkpt>
      <trkpt lat="-25.5143700" lon="-48.9925700">
        <ele>987.0</ele>
        <time>2021-04-17T14:04:53Z</time>
      </trkpt>
      <trkpt lat="-25.5143850" lon="-48.9925190">
        <ele>987.0</ele>
        <time>2021-04-17T14:04:55Z</time>
      </trkpt>
      <trkpt lat="-25.5143930" lon="-48.9924740">
        <ele>987.0</ele>
        <time>2021-04-17T14:04:57Z</time>
      </trkpt>
      <trkpt lat="-25.5143980" lon="-48.9924420">
        <ele>987.0</ele>
        <time>2021-04-17T14:04:59Z</time>
      </trkpt>
      <trkpt lat="-25.5144090" lon="-48.9924180">
        <ele>987.0</ele>
        <time>2021-04-17T14:05:01Z</time>
      </trkpt>
      <trkpt lat="-25.5144110" lon="-48.9924030">
        <ele>987.0</ele>
        <time>2021-04-17T14:05:02Z</time>
      </trkpt>
      <trkpt lat="-25.5144150" lon="-48.9923890">
        <ele>987.0</ele>
        <time>2021-04-17T14:05:03Z</time>
      </trkpt>
      <trkpt lat="-25.5144300" lon="-48.9923620">
        <ele>987.2</ele>
        <time>2021-04-17T14:05:05Z</time>
      </trkpt>
      <trkpt lat="-25.5144380" lon="-48.9923330">
        <ele>987.2</ele>
        <time>2021-04-17T14:05:07Z</time>
      </trkpt>
      <trkpt lat="-25.5144390" lon="-48.9923160">
        <ele>987.2</ele>
        <time>2021-04-17T14:05:08Z</time>
      </trkpt>
      <trkpt lat="-25.5144410" lon="-48.9922970">
        <ele>987.2</ele>
        <time>2021-04-17T14:05:09Z</time>
      </trkpt>
      <trkpt lat="-25.5144440" lon="-48.9922510">
        <ele>987.4</ele>
        <time>2021-04-17T14:05:11Z</time>
      </trkpt>
      <trkpt lat="-25.5144500" lon="-48.9921990">
        <ele>987.8</ele>
        <time>2021-04-17T14:05:13Z</time>
      </trkpt>
      <trkpt lat="-25.5144550" lon="-48.9921350">
        <ele>988.0</ele>
        <time>2021-04-17T14:05:15Z</time>
      </trkpt>
      <trkpt lat="-25.5144800" lon="-48.9920680">
        <ele>987.8</ele>
        <time>2021-04-17T14:05:17Z</time>
      </trkpt>
      <trkpt lat="-25.5145100" lon="-48.9919830">
        <ele>987.6</ele>
        <time>2021-04-17T14:05:19Z</time>
      </trkpt>
      <trkpt lat="-25.5145220" lon="-48.9919400">
        <ele>987.4</ele>
        <time>2021-04-17T14:05:20Z</time>
      </trkpt>
      <trkpt lat="-25.5145350" lon="-48.9918980">
        <ele>987.4</ele>
        <time>2021-04-17T14:05:21Z</time>
      </trkpt>
      <trkpt lat="-25.5145630" lon="-48.9918190">
        <ele>987.2</ele>
        <time>2021-04-17T14:05:23Z</time>
      </trkpt>
      <trkpt lat="-25.5145860" lon="-48.9917460">
        <ele>987.0</ele>
        <time>2021-04-17T14:05:25Z</time>
      </trkpt>
      <trkpt lat="-25.5146120" lon="-48.9916850">
        <ele>986.8</ele>
        <time>2021-04-17T14:05:27Z</time>
      </trkpt>
      <trkpt lat="-25.5146350" lon="-48.9916390">
        <ele>987.0</ele>
        <time>2021-04-17T14:05:29Z</time>
      </trkpt>
      <trkpt lat="-25.5146670" lon="-48.9915970">
        <ele>987.0</ele>
        <time>2021-04-17T14:05:31Z</time>
      </trkpt>
      <trkpt lat="-25.5146970" lon="-48.9915500">
        <ele>987.0</ele>
        <time>2021-04-17T14:05:33Z</time>
      </trkpt>
      <trkpt lat="-25.5147080" lon="-48.9915290">
        <ele>987.0</ele>
        <time>2021-04-17T14:05:34Z</time>
      </trkpt>
      <trkpt lat="-25.5147160" lon="-48.9915070">
        <ele>987.0</ele>
        <time>2021-04-17T14:05:35Z</time>
      </trkpt>
      <trkpt lat="-25.5147300" lon="-48.9914670">
        <ele>987.4</ele>
        <time>2021-04-17T14:05:37Z</time>
      </trkpt>
      <trkpt lat="-25.5147360" lon="-48.9914210">
        <ele>988.2</ele>
        <time>2021-04-17T14:05:39Z</time>
      </trkpt>
      <trkpt lat="-25.5147360" lon="-48.9913960">
        <ele>988.8</ele>
        <time>2021-04-17T14:05:40Z</time>
      </trkpt>
      <trkpt lat="-25.5147330" lon="-48.9913710">
        <ele>989.2</ele>
        <time>2021-04-17T14:05:41Z</time>
      </trkpt>
      <trkpt lat="-25.5147230" lon="-48.9913260">
        <ele>989.8</ele>
        <time>2021-04-17T14:05:43Z</time>
      </trkpt>
      <trkpt lat="-25.5147220" lon="-48.9912880">
        <ele>990.2</ele>
        <time>2021-04-17T14:05:45Z</time>
      </trkpt>
      <trkpt lat="-25.5147210" lon="-48.9912570">
        <ele>990.2</ele>
        <time>2021-04-17T14:05:47Z</time>
      </trkpt>
      <trkpt lat="-25.5147260" lon="-48.9912210">
        <ele>990.4</ele>
        <time>2021-04-17T14:05:49Z</time>
      </trkpt>
      <trkpt lat="-25.5147300" lon="-48.9911770">
        <ele>990.6</ele>
        <time>2021-04-17T14:05:51Z</time>
      </trkpt>
      <trkpt lat="-25.5147310" lon="-48.9911510">
        <ele>990.8</ele>
        <time>2021-04-17T14:05:52Z</time>
      </trkpt>
      <trkpt lat="-25.5147310" lon="-48.9911240">
        <ele>990.8</ele>
        <time>2021-04-17T14:05:53Z</time>
      </trkpt>
      <trkpt lat="-25.5147340" lon="-48.9910950">
        <ele>991.0</ele>
        <time>2021-04-17T14:05:54Z</time>
      </trkpt>
      <trkpt lat="-25.5147440" lon="-48.9910670">
        <ele>991.0</ele>
        <time>2021-04-17T14:05:55Z</time>
      </trkpt>
      <trkpt lat="-25.5147780" lon="-48.9910480">
        <ele>991.0</ele>
        <time>2021-04-17T14:05:57Z</time>
      </trkpt>
      <trkpt lat="-25.5148060" lon="-48.9910480">
        <ele>991.0</ele>
        <time>2021-04-17T14:05:59Z</time>
      </trkpt>
      <trkpt lat="-25.5148090" lon="-48.9910450">
        <ele>991.2</ele>
        <time>2021-04-17T14:06:01Z</time>
      </trkpt>
      <trkpt lat="-25.5148090" lon="-48.9910370">
        <ele>991.2</ele>
        <time>2021-04-17T14:06:03Z</time>
      </trkpt>
      <trkpt lat="-25.5148080" lon="-48.9910270">
        <ele>991.4</ele>
        <time>2021-04-17T14:06:05Z</time>
      </trkpt>
      <trkpt lat="-25.5148080" lon="-48.9910250">
        <ele>991.6</ele>
        <time>2021-04-17T14:06:07Z</time>
      </trkpt>
      <trkpt lat="-25.5148070" lon="-48.9910250">
        <ele>991.8</ele>
        <time>2021-04-17T14:06:09Z</time>
      </trkpt>
      <trkpt lat="-25.5148070" lon="-48.9910240">
        <ele>992.0</ele>
        <time>2021-04-17T14:06:11Z</time>
      </trkpt>
      <trkpt lat="-25.5148070" lon="-48.9910230">
        <ele>992.0</ele>
        <time>2021-04-17T14:06:13Z</time>
      </trkpt>
      <trkpt lat="-25.5148070" lon="-48.9910230">
        <ele>992.0</ele>
        <time>2021-04-17T14:06:14Z</time>
      </trkpt>
      <trkpt lat="-25.5148070" lon="-48.9910230">
        <ele>992.0</ele>
        <time>2021-04-17T14:06:15Z</time>
      </trkpt>
      <trkpt lat="-25.5148060" lon="-48.9910230">
        <ele>992.2</ele>
        <time>2021-04-17T14:06:17Z</time>
      </trkpt>
      <trkpt lat="-25.5148060" lon="-48.9910190">
        <ele>992.2</ele>
        <time>2021-04-17T14:06:19Z</time>
      </trkpt>
      <trkpt lat="-25.5148060" lon="-48.9910170">
        <ele>992.2</ele>
        <time>2021-04-17T14:06:21Z</time>
      </trkpt>
      <trkpt lat="-25.5149140" lon="-48.9910150">
        <ele>999.4</ele>
        <time>2021-04-17T14:29:44Z</time>
      </trkpt>
      <trkpt lat="-25.5149140" lon="-48.9910150">
        <ele>999.4</ele>
        <time>2021-04-17T14:29:45Z</time>
      </trkpt>
      <trkpt lat="-25.5149140" lon="-48.9910150">
        <ele>999.4</ele>
        <time>2021-04-17T14:29:46Z</time>
      </trkpt>
      <trkpt lat="-25.5149140" lon="-48.9910150">
        <ele>999.4</ele>
        <time>2021-04-17T14:29:51Z</time>
      </trkpt>
      <trkpt lat="-25.5149140" lon="-48.9910150">
        <ele>999.4</ele>
        <time>2021-04-17T14:29:57Z</time>
      </trkpt>
      <trkpt lat="-25.5148820" lon="-48.9910280">
        <ele>999.1</ele>
        <time>2021-04-17T14:30:00Z</time>
      </trkpt>
      <trkpt lat="-25.5148900" lon="-48.9910030">
        <ele>998.8</ele>
        <time>2021-04-17T14:30:06Z</time>
      </trkpt>
      <trkpt lat="-25.5148800" lon="-48.9909780">
        <ele>998.6</ele>
        <time>2021-04-17T14:30:12Z</time>
      </trkpt>
      <trkpt lat="-25.5148790" lon="-48.9909680">
        <ele>998.5</ele>
        <time>2021-04-17T14:30:15Z</time>
      </trkpt>
      <trkpt lat="-25.5148780" lon="-48.9909660">
        <ele>998.5</ele>
        <time>2021-04-17T14:30:17Z</time>
      </trkpt>
      <trkpt lat="-25.5148570" lon="-48.9909710">
        <ele>998.2</ele>
        <time>2021-04-17T14:30:21Z</time>
      </trkpt>
      <trkpt lat="-25.5148420" lon="-48.9909890">
        <ele>998.0</ele>
        <time>2021-04-17T14:30:31Z</time>
      </trkpt>
      <trkpt lat="-25.5148420" lon="-48.9909910">
        <ele>998.0</ele>
        <time>2021-04-17T14:30:38Z</time>
      </trkpt>
      <trkpt lat="-25.5148380" lon="-48.9909820">
        <ele>997.9</ele>
        <time>2021-04-17T14:30:49Z</time>
      </trkpt>
      <trkpt lat="-25.5148400" lon="-48.9909660">
        <ele>997.7</ele>
        <time>2021-04-17T14:31:09Z</time>
      </trkpt>
      <trkpt lat="-25.5148350" lon="-48.9909770">
        <ele>997.6</ele>
        <time>2021-04-17T14:31:15Z</time>
      </trkpt>
      <trkpt lat="-25.5148330" lon="-48.9909780">
        <ele>997.6</ele>
        <time>2021-04-17T14:31:21Z</time>
      </trkpt>
      <trkpt lat="-25.5148330" lon="-48.9909780">
        <ele>997.6</ele>
        <time>2021-04-17T14:31:24Z</time>
      </trkpt>
      <trkpt lat="-25.5148330" lon="-48.9909780">
        <ele>997.6</ele>
        <time>2021-04-17T14:31:26Z</time>
      </trkpt>
      <trkpt lat="-25.5148330" lon="-48.9909780">
        <ele>997.6</ele>
        <time>2021-04-17T14:31:28Z</time>
      </trkpt>
      <trkpt lat="-25.5148330" lon="-48.9909780">
        <ele>997.6</ele>
        <time>2021-04-17T14:31:30Z</time>
      </trkpt>
      <trkpt lat="-25.5148060" lon="-48.9909640">
        <ele>997.3</ele>
        <time>2021-04-17T14:31:50Z</time>
      </trkpt>
      <trkpt lat="-25.5147920" lon="-48.9909740">
        <ele>997.1</ele>
        <time>2021-04-17T14:31:53Z</time>
      </trkpt>
      <trkpt lat="-25.5147670" lon="-48.9909840">
        <ele>996.9</ele>
        <time>2021-04-17T14:32:03Z</time>
      </trkpt>
      <trkpt lat="-25.5147900" lon="-48.9909490">
        <ele>996.5</ele>
        <time>2021-04-17T14:32:46Z</time>
      </trkpt>
      <trkpt lat="-25.5147940" lon="-48.9909490">
        <ele>996.4</ele>
        <time>2021-04-17T14:32:48Z</time>
      </trkpt>
      <trkpt lat="-25.5147940" lon="-48.9909360">
        <ele>996.3</ele>
        <time>2021-04-17T14:32:54Z</time>
      </trkpt>
      <trkpt lat="-25.5147930" lon="-48.9909350">
        <ele>996.3</ele>
        <time>2021-04-17T14:32:55Z</time>
      </trkpt>
      <trkpt lat="-25.5147810" lon="-48.9909210">
        <ele>996.1</ele>
        <time>2021-04-17T14:32:57Z</time>
      </trkpt>
      <trkpt lat="-25.5147730" lon="-48.9909250">
        <ele>996.0</ele>
        <time>2021-04-17T14:32:58Z</time>
      </trkpt>
      <trkpt lat="-25.5147180" lon="-48.9910160">
        <ele>995.0</ele>
        <time>2021-04-17T14:33:02Z</time>
      </trkpt>
      <trkpt lat="-25.5147050" lon="-48.9911410">
        <ele>993.8</ele>
        <time>2021-04-17T14:33:07Z</time>
      </trkpt>
      <trkpt lat="-25.5147000" lon="-48.9912020">
        <ele>993.3</ele>
        <time>2021-04-17T14:33:10Z</time>
      </trkpt>
      <trkpt lat="-25.5147070" lon="-48.9913010">
        <ele>992.4</ele>
        <time>2021-04-17T14:33:13Z</time>
      </trkpt>
      <trkpt lat="-25.5147250" lon="-48.9914130">
        <ele>991.6</ele>
        <time>2021-04-17T14:33:17Z</time>
      </trkpt>
      <trkpt lat="-25.5147170" lon="-48.9914640">
        <ele>991.2</ele>
        <time>2021-04-17T14:33:19Z</time>
      </trkpt>
      <trkpt lat="-25.5146200" lon="-48.9915990">
        <ele>989.7</ele>
        <time>2021-04-17T14:33:23Z</time>
      </trkpt>
      <trkpt lat="-25.5145880" lon="-48.9916520">
        <ele>989.2</ele>
        <time>2021-04-17T14:33:24Z</time>
      </trkpt>
      <trkpt lat="-25.5145480" lon="-48.9917660">
        <ele>988.6</ele>
        <time>2021-04-17T14:33:26Z</time>
      </trkpt>
      <trkpt lat="-25.5145330" lon="-48.9918170">
        <ele>988.5</ele>
        <time>2021-04-17T14:33:27Z</time>
      </trkpt>
      <trkpt lat="-25.5144970" lon="-48.9919160">
        <ele>988.4</ele>
        <time>2021-04-17T14:33:31Z</time>
      </trkpt>
      <trkpt lat="-25.5144950" lon="-48.9919130">
        <ele>988.4</ele>
        <time>2021-04-17T14:33:34Z</time>
      </trkpt>
      <trkpt lat="-25.5144850" lon="-48.9919280">
        <ele>988.4</ele>
        <time>2021-04-17T14:33:37Z</time>
      </trkpt>
      <trkpt lat="-25.5144580" lon="-48.9919970">
        <ele>988.5</ele>
        <time>2021-04-17T14:33:40Z</time>
      </trkpt>
      <trkpt lat="-25.5144160" lon="-48.9922380">
        <ele>989.0</ele>
        <time>2021-04-17T14:33:47Z</time>
      </trkpt>
      <trkpt lat="-25.5143970" lon="-48.9923480">
        <ele>989.0</ele>
        <time>2021-04-17T14:33:51Z</time>
      </trkpt>
      <trkpt lat="-25.5143690" lon="-48.9924310">
        <ele>989.0</ele>
        <time>2021-04-17T14:33:54Z</time>
      </trkpt>
      <trkpt lat="-25.5143400" lon="-48.9925210">
        <ele>989.0</ele>
        <time>2021-04-17T14:33:57Z</time>
      </trkpt>
      <trkpt lat="-25.5143290" lon="-48.9925480">
        <ele>988.9</ele>
        <time>2021-04-17T14:33:58Z</time>
      </trkpt>
      <trkpt lat="-25.5142860" lon="-48.9926810">
        <ele>988.8</ele>
        <time>2021-04-17T14:34:03Z</time>
      </trkpt>
      <trkpt lat="-25.5142880" lon="-48.9927250">
        <ele>988.8</ele>
        <time>2021-04-17T14:34:07Z</time>
      </trkpt>
      <trkpt lat="-25.5142940" lon="-48.9927810">
        <ele>988.7</ele>
        <time>2021-04-17T14:34:10Z</time>
      </trkpt>
      <trkpt lat="-25.5142910" lon="-48.9928980">
        <ele>988.3</ele>
        <time>2021-04-17T14:34:14Z</time>
      </trkpt>
      <trkpt lat="-25.5142960" lon="-48.9929640">
        <ele>987.9</ele>
        <time>2021-04-17T14:34:16Z</time>
      </trkpt>
      <trkpt lat="-25.5142950" lon="-48.9930420">
        <ele>987.3</ele>
        <time>2021-04-17T14:34:18Z</time>
      </trkpt>
      <trkpt lat="-25.5142790" lon="-48.9931490">
        <ele>986.1</ele>
        <time>2021-04-17T14:34:20Z</time>
      </trkpt>
      <trkpt lat="-25.5142390" lon="-48.9933940">
        <ele>982.4</ele>
        <time>2021-04-17T14:34:23Z</time>
      </trkpt>
      <trkpt lat="-25.5141470" lon="-48.9938420">
        <ele>975.5</ele>
        <time>2021-04-17T14:34:27Z</time>
      </trkpt>
      <trkpt lat="-25.5140090" lon="-48.9942970">
        <ele>972.4</ele>
        <time>2021-04-17T14:34:31Z</time>
      </trkpt>
      <trkpt lat="-25.5140000" lon="-48.9943990">
        <ele>972.4</ele>
        <time>2021-04-17T14:34:32Z</time>
      </trkpt>
      <trkpt lat="-25.5140150" lon="-48.9946650">
        <ele>972.8</ele>
        <time>2021-04-17T14:34:35Z</time>
      </trkpt>
      <trkpt lat="-25.5140370" lon="-48.9947400">
        <ele>972.9</ele>
        <time>2021-04-17T14:34:36Z</time>
      </trkpt>
      <trkpt lat="-25.5140640" lon="-48.9948090">
        <ele>973.1</ele>
        <time>2021-04-17T14:34:37Z</time>
      </trkpt>
      <trkpt lat="-25.5141370" lon="-48.9949400">
        <ele>973.4</ele>
        <time>2021-04-17T14:34:39Z</time>
      </trkpt>
      <trkpt lat="-25.5141790" lon="-48.9949990">
        <ele>973.5</ele>
        <time>2021-04-17T14:34:40Z</time>
      </trkpt>
      <trkpt lat="-25.5142240" lon="-48.9950500">
        <ele>973.6</ele>
        <time>2021-04-17T14:34:41Z</time>
      </trkpt>
      <trkpt lat="-25.5143370" lon="-48.9951240">
        <ele>973.7</ele>
        <time>2021-04-17T14:34:43Z</time>
      </trkpt>
      <trkpt lat="-25.5143970" lon="-48.9951480">
        <ele>973.8</ele>
        <time>2021-04-17T14:34:44Z</time>
      </trkpt>
      <trkpt lat="-25.5146310" lon="-48.9952750">
        <ele>974.4</ele>
        <time>2021-04-17T14:34:48Z</time>
      </trkpt>
      <trkpt lat="-25.5146710" lon="-48.9953230">
        <ele>974.6</ele>
        <time>2021-04-17T14:34:49Z</time>
      </trkpt>
      <trkpt lat="-25.5147010" lon="-48.9953810">
        <ele>974.8</ele>
        <time>2021-04-17T14:34:50Z</time>
      </trkpt>
      <trkpt lat="-25.5147510" lon="-48.9954920">
        <ele>975.3</ele>
        <time>2021-04-17T14:34:52Z</time>
      </trkpt>
      <trkpt lat="-25.5148190" lon="-48.9956240">
        <ele>976.0</ele>
        <time>2021-04-17T14:34:55Z</time>
      </trkpt>
      <trkpt lat="-25.5148370" lon="-48.9956680">
        <ele>976.2</ele>
        <time>2021-04-17T14:34:56Z</time>
      </trkpt>
      <trkpt lat="-25.5148670" lon="-48.9957580">
        <ele>976.7</ele>
        <time>2021-04-17T14:34:58Z</time>
      </trkpt>
      <trkpt lat="-25.5149150" lon="-48.9959010">
        <ele>977.4</ele>
        <time>2021-04-17T14:35:01Z</time>
      </trkpt>
      <trkpt lat="-25.5149450" lon="-48.9960050">
        <ele>978.0</ele>
        <time>2021-04-17T14:35:03Z</time>
      </trkpt>
      <trkpt lat="-25.5149690" lon="-48.9961800">
        <ele>979.3</ele>
        <time>2021-04-17T14:35:07Z</time>
      </trkpt>
      <trkpt lat="-25.5149690" lon="-48.9962780">
        <ele>980.1</ele>
        <time>2021-04-17T14:35:10Z</time>
      </trkpt>
      <trkpt lat="-25.5149660" lon="-48.9963100">
        <ele>980.4</ele>
        <time>2021-04-17T14:35:11Z</time>
      </trkpt>
      <trkpt lat="-25.5149650" lon="-48.9965020">
        <ele>982.3</ele>
        <time>2021-04-17T14:35:17Z</time>
      </trkpt>
      <trkpt lat="-25.5149410" lon="-48.9966360">
        <ele>983.6</ele>
        <time>2021-04-17T14:35:22Z</time>
      </trkpt>
      <trkpt lat="-25.5149330" lon="-48.9966610">
        <ele>983.9</ele>
        <time>2021-04-17T14:35:23Z</time>
      </trkpt>
      <trkpt lat="-25.5149070" lon="-48.9967640">
        <ele>984.9</ele>
        <time>2021-04-17T14:35:29Z</time>
      </trkpt>
      <trkpt lat="-25.5148940" lon="-48.9968270">
        <ele>985.4</ele>
        <time>2021-04-17T14:35:32Z</time>
      </trkpt>
      <trkpt lat="-25.5148810" lon="-48.9969050">
        <ele>986.1</ele>
        <time>2021-04-17T14:35:36Z</time>
      </trkpt>
      <trkpt lat="-25.5148650" lon="-48.9970500">
        <ele>987.2</ele>
        <time>2021-04-17T14:35:42Z</time>
      </trkpt>
      <trkpt lat="-25.5148540" lon="-48.9971230">
        <ele>987.7</ele>
        <time>2021-04-17T14:35:45Z</time>
      </trkpt>
      <trkpt lat="-25.5148180" lon="-48.9973010">
        <ele>988.9</ele>
        <time>2021-04-17T14:35:52Z</time>
      </trkpt>
      <trkpt lat="-25.5148090" lon="-48.9974510">
        <ele>989.6</ele>
        <time>2021-04-17T14:35:57Z</time>
      </trkpt>
      <trkpt lat="-25.5148320" lon="-48.9975220">
        <ele>989.8</ele>
        <time>2021-04-17T14:36:00Z</time>
      </trkpt>
      <trkpt lat="-25.5148360" lon="-48.9975630">
        <ele>989.9</ele>
        <time>2021-04-17T14:36:02Z</time>
      </trkpt>
      <trkpt lat="-25.5147800" lon="-48.9977730">
        <ele>990.2</ele>
        <time>2021-04-17T14:36:09Z</time>
      </trkpt>
      <trkpt lat="-25.5147200" lon="-48.9978640">
        <ele>990.1</ele>
        <time>2021-04-17T14:36:12Z</time>
      </trkpt>
      <trkpt lat="-25.5146870" lon="-48.9979240">
        <ele>990.0</ele>
        <time>2021-04-17T14:36:14Z</time>
      </trkpt>
      <trkpt lat="-25.5146670" lon="-48.9979610">
        <ele>989.9</ele>
        <time>2021-04-17T14:36:15Z</time>
      </trkpt>
      <trkpt lat="-25.5146230" lon="-48.9980350">
        <ele>989.7</ele>
        <time>2021-04-17T14:36:17Z</time>
      </trkpt>
      <trkpt lat="-25.5145150" lon="-48.9982900">
        <ele>988.6</ele>
        <time>2021-04-17T14:36:23Z</time>
      </trkpt>
      <trkpt lat="-25.5144690" lon="-48.9983790">
        <ele>988.1</ele>
        <time>2021-04-17T14:36:25Z</time>
      </trkpt>
      <trkpt lat="-25.5144240" lon="-48.9984890">
        <ele>987.4</ele>
        <time>2021-04-17T14:36:27Z</time>
      </trkpt>
      <trkpt lat="-25.5142630" lon="-48.9987890">
        <ele>985.0</ele>
        <time>2021-04-17T14:36:32Z</time>
      </trkpt>
      <trkpt lat="-25.5141890" lon="-48.9988880">
        <ele>984.2</ele>
        <time>2021-04-17T14:36:34Z</time>
      </trkpt>
      <trkpt lat="-25.5140740" lon="-48.9989800">
        <ele>983.1</ele>
        <time>2021-04-17T14:36:36Z</time>
      </trkpt>
      <trkpt lat="-25.5138570" lon="-48.9990840">
        <ele>980.6</ele>
        <time>2021-04-17T14:36:40Z</time>
      </trkpt>
      <trkpt lat="-25.5138140" lon="-48.9991290">
        <ele>979.8</ele>
        <time>2021-04-17T14:36:41Z</time>
      </trkpt>
      <trkpt lat="-25.5137870" lon="-48.9991900">
        <ele>979.0</ele>
        <time>2021-04-17T14:36:42Z</time>
      </trkpt>
      <trkpt lat="-25.5137760" lon="-48.9993290">
        <ele>977.2</ele>
        <time>2021-04-17T14:36:44Z</time>
      </trkpt>
      <trkpt lat="-25.5137630" lon="-48.9994070">
        <ele>976.2</ele>
        <time>2021-04-17T14:36:45Z</time>
      </trkpt>
      <trkpt lat="-25.5136750" lon="-48.9997300">
        <ele>972.4</ele>
        <time>2021-04-17T14:36:49Z</time>
      </trkpt>
      <trkpt lat="-25.5134680" lon="-49.0001430">
        <ele>967.9</ele>
        <time>2021-04-17T14:36:54Z</time>
      </trkpt>
      <trkpt lat="-25.5132870" lon="-49.0003200">
        <ele>966.1</ele>
        <time>2021-04-17T14:36:57Z</time>
      </trkpt>
      <trkpt lat="-25.5132070" lon="-49.0003870">
        <ele>965.6</ele>
        <time>2021-04-17T14:36:58Z</time>
      </trkpt>
      <trkpt lat="-25.5127850" lon="-49.0007450">
        <ele>965.7</ele>
        <time>2021-04-17T14:37:04Z</time>
      </trkpt>
      <trkpt lat="-25.5125610" lon="-49.0009230">
        <ele>967.9</ele>
        <time>2021-04-17T14:37:08Z</time>
      </trkpt>
      <trkpt lat="-25.5124300" lon="-49.0010300">
        <ele>969.8</ele>
        <time>2021-04-17T14:37:11Z</time>
      </trkpt>
      <trkpt lat="-25.5123500" lon="-49.0010820">
        <ele>970.8</ele>
        <time>2021-04-17T14:37:13Z</time>
      </trkpt>
      <trkpt lat="-25.5122840" lon="-49.0011360">
        <ele>971.5</ele>
        <time>2021-04-17T14:37:15Z</time>
      </trkpt>
      <trkpt lat="-25.5121640" lon="-49.0012330">
        <ele>972.0</ele>
        <time>2021-04-17T14:37:19Z</time>
      </trkpt>
      <trkpt lat="-25.5121320" lon="-49.0012600">
        <ele>972.0</ele>
        <time>2021-04-17T14:37:20Z</time>
      </trkpt>
      <trkpt lat="-25.5119600" lon="-49.0014440">
        <ele>970.7</ele>
        <time>2021-04-17T14:37:25Z</time>
      </trkpt>
      <trkpt lat="-25.5118730" lon="-49.0015480">
        <ele>969.6</ele>
        <time>2021-04-17T14:37:27Z</time>
      </trkpt>
      <trkpt lat="-25.5117850" lon="-49.0016720">
        <ele>968.5</ele>
        <time>2021-04-17T14:37:29Z</time>
      </trkpt>
      <trkpt lat="-25.5115520" lon="-49.0018890">
        <ele>966.4</ele>
        <time>2021-04-17T14:37:34Z</time>
      </trkpt>
      <trkpt lat="-25.5114700" lon="-49.0019780">
        <ele>965.7</ele>
        <time>2021-04-17T14:37:37Z</time>
      </trkpt>
      <trkpt lat="-25.5114550" lon="-49.0020140">
        <ele>965.5</ele>
        <time>2021-04-17T14:37:38Z</time>
      </trkpt>
      <trkpt lat="-25.5114500" lon="-49.0020530">
        <ele>965.3</ele>
        <time>2021-04-17T14:37:39Z</time>
      </trkpt>
      <trkpt lat="-25.5114650" lon="-49.0021530">
        <ele>964.9</ele>
        <time>2021-04-17T14:37:41Z</time>
      </trkpt>
      <trkpt lat="-25.5114860" lon="-49.0022070">
        <ele>964.6</ele>
        <time>2021-04-17T14:37:42Z</time>
      </trkpt>
      <trkpt lat="-25.5115230" lon="-49.0022620">
        <ele>964.3</ele>
        <time>2021-04-17T14:37:43Z</time>
      </trkpt>
      <trkpt lat="-25.5116360" lon="-49.0023740">
        <ele>963.8</ele>
        <time>2021-04-17T14:37:46Z</time>
      </trkpt>
      <trkpt lat="-25.5117200" lon="-49.0024470">
        <ele>963.5</ele>
        <time>2021-04-17T14:37:48Z</time>
      </trkpt>
      <trkpt lat="-25.5118540" lon="-49.0025540">
        <ele>962.9</ele>
        <time>2021-04-17T14:37:51Z</time>
      </trkpt>
      <trkpt lat="-25.5119360" lon="-49.0026360">
        <ele>962.3</ele>
        <time>2021-04-17T14:37:53Z</time>
      </trkpt>
      <trkpt lat="-25.5119940" lon="-49.0027450">
        <ele>961.5</ele>
        <time>2021-04-17T14:37:55Z</time>
      </trkpt>
      <trkpt lat="-25.5120370" lon="-49.0029010">
        <ele>960.2</ele>
        <time>2021-04-17T14:37:57Z</time>
      </trkpt>
      <trkpt lat="-25.5120580" lon="-49.0030510">
        <ele>959.0</ele>
        <time>2021-04-17T14:37:59Z</time>
      </trkpt>
      <trkpt lat="-25.5121080" lon="-49.0035340">
        <ele>955.7</ele>
        <time>2021-04-17T14:38:04Z</time>
      </trkpt>
      <trkpt lat="-25.5121050" lon="-49.0037450">
        <ele>954.5</ele>
        <time>2021-04-17T14:38:06Z</time>
      </trkpt>
      <trkpt lat="-25.5121270" lon="-49.0038330">
        <ele>954.2</ele>
        <time>2021-04-17T14:38:07Z</time>
      </trkpt>
      <trkpt lat="-25.5123190" lon="-49.0043400">
        <ele>953.8</ele>
        <time>2021-04-17T14:38:13Z</time>
      </trkpt>
      <trkpt lat="-25.5123830" lon="-49.0045520">
        <ele>954.3</ele>
        <time>2021-04-17T14:38:16Z</time>
      </trkpt>
      <trkpt lat="-25.5123910" lon="-49.0046180">
        <ele>954.4</ele>
        <time>2021-04-17T14:38:17Z</time>
      </trkpt>
      <trkpt lat="-25.5123910" lon="-49.0046700">
        <ele>954.5</ele>
        <time>2021-04-17T14:38:18Z</time>
      </trkpt>
      <trkpt lat="-25.5123970" lon="-49.0049250">
        <ele>955.9</ele>
        <time>2021-04-17T14:38:22Z</time>
      </trkpt>
      <trkpt lat="-25.5124080" lon="-49.0049800">
        <ele>956.3</ele>
        <time>2021-04-17T14:38:23Z</time>
      </trkpt>
      <trkpt lat="-25.5124340" lon="-49.0050740">
        <ele>957.0</ele>
        <time>2021-04-17T14:38:25Z</time>
      </trkpt>
      <trkpt lat="-25.5124470" lon="-49.0051180">
        <ele>957.4</ele>
        <time>2021-04-17T14:38:26Z</time>
      </trkpt>
      <trkpt lat="-25.5124570" lon="-49.0051650">
        <ele>957.7</ele>
        <time>2021-04-17T14:38:27Z</time>
      </trkpt>
      <trkpt lat="-25.5124730" lon="-49.0053040">
        <ele>958.8</ele>
        <time>2021-04-17T14:38:30Z</time>
      </trkpt>
      <trkpt lat="-25.5124820" lon="-49.0053490">
        <ele>959.1</ele>
        <time>2021-04-17T14:38:31Z</time>
      </trkpt>
      <trkpt lat="-25.5124960" lon="-49.0054320">
        <ele>959.7</ele>
        <time>2021-04-17T14:38:33Z</time>
      </trkpt>
      <trkpt lat="-25.5125060" lon="-49.0055990">
        <ele>960.7</ele>
        <time>2021-04-17T14:38:37Z</time>
      </trkpt>
      <trkpt lat="-25.5125000" lon="-49.0057190">
        <ele>961.3</ele>
        <time>2021-04-17T14:38:40Z</time>
      </trkpt>
      <trkpt lat="-25.5124950" lon="-49.0057990">
        <ele>961.6</ele>
        <time>2021-04-17T14:38:42Z</time>
      </trkpt>
      <trkpt lat="-25.5125020" lon="-49.0059090">
        <ele>962.1</ele>
        <time>2021-04-17T14:38:45Z</time>
      </trkpt>
      <trkpt lat="-25.5125190" lon="-49.0060180">
        <ele>962.4</ele>
        <time>2021-04-17T14:38:48Z</time>
      </trkpt>
      <trkpt lat="-25.5125320" lon="-49.0060890">
        <ele>962.5</ele>
        <time>2021-04-17T14:38:50Z</time>
      </trkpt>
      <trkpt lat="-25.5125460" lon="-49.0061920">
        <ele>962.7</ele>
        <time>2021-04-17T14:38:53Z</time>
      </trkpt>
      <trkpt lat="-25.5125820" lon="-49.0063450">
        <ele>962.8</ele>
        <time>2021-04-17T14:38:57Z</time>
      </trkpt>
      <trkpt lat="-25.5126470" lon="-49.0065650">
        <ele>962.0</ele>
        <time>2021-04-17T14:39:03Z</time>
      </trkpt>
      <trkpt lat="-25.5126520" lon="-49.0066830">
        <ele>960.8</ele>
        <time>2021-04-17T14:39:07Z</time>
      </trkpt>
      <trkpt lat="-25.5125650" lon="-49.0068310">
        <ele>958.7</ele>
        <time>2021-04-17T14:39:10Z</time>
      </trkpt>
      <trkpt lat="-25.5123660" lon="-49.0071260">
        <ele>956.5</ele>
        <time>2021-04-17T14:39:14Z</time>
      </trkpt>
      <trkpt lat="-25.5121490" lon="-49.0074950">
        <ele>957.2</ele>
        <time>2021-04-17T14:39:19Z</time>
      </trkpt>
      <trkpt lat="-25.5121190" lon="-49.0075490">
        <ele>957.0</ele>
        <time>2021-04-17T14:39:20Z</time>
      </trkpt>
      <trkpt lat="-25.5119840" lon="-49.0078060">
        <ele>954.6</ele>
        <time>2021-04-17T14:39:24Z</time>
      </trkpt>
      <trkpt lat="-25.5119510" lon="-49.0078610">
        <ele>953.9</ele>
        <time>2021-04-17T14:39:25Z</time>
      </trkpt>
      <trkpt lat="-25.5118710" lon="-49.0079870">
        <ele>952.0</ele>
        <time>2021-04-17T14:39:27Z</time>
      </trkpt>
      <trkpt lat="-25.5118260" lon="-49.0081260">
        <ele>950.0</ele>
        <time>2021-04-17T14:39:29Z</time>
      </trkpt>
      <trkpt lat="-25.5117700" lon="-49.0083650">
        <ele>947.6</ele>
        <time>2021-04-17T14:39:32Z</time>
      </trkpt>
      <trkpt lat="-25.5117000" lon="-49.0085740">
        <ele>947.1</ele>
        <time>2021-04-17T14:39:34Z</time>
      </trkpt>
      <trkpt lat="-25.5116540" lon="-49.0086600">
        <ele>947.4</ele>
        <time>2021-04-17T14:39:35Z</time>
      </trkpt>
      <trkpt lat="-25.5115880" lon="-49.0087470">
        <ele>948.1</ele>
        <time>2021-04-17T14:39:36Z</time>
      </trkpt>
      <trkpt lat="-25.5115440" lon="-49.0087970">
        <ele>948.5</ele>
        <time>2021-04-17T14:39:37Z</time>
      </trkpt>
      <trkpt lat="-25.5114190" lon="-49.0089530">
        <ele>950.2</ele>
        <time>2021-04-17T14:39:40Z</time>
      </trkpt>
      <trkpt lat="-25.5113820" lon="-49.0090100">
        <ele>950.8</ele>
        <time>2021-04-17T14:39:41Z</time>
      </trkpt>
      <trkpt lat="-25.5112630" lon="-49.0092060">
        <ele>952.9</ele>
        <time>2021-04-17T14:39:46Z</time>
      </trkpt>
      <trkpt lat="-25.5111590" lon="-49.0093830">
        <ele>954.1</ele>
        <time>2021-04-17T14:39:52Z</time>
      </trkpt>
      <trkpt lat="-25.5110340" lon="-49.0095740">
        <ele>952.9</ele>
        <time>2021-04-17T14:39:59Z</time>
      </trkpt>
      <trkpt lat="-25.5109710" lon="-49.0096560">
        <ele>951.8</ele>
        <time>2021-04-17T14:40:01Z</time>
      </trkpt>
      <trkpt lat="-25.5108770" lon="-49.0097830">
        <ele>950.0</ele>
        <time>2021-04-17T14:40:03Z</time>
      </trkpt>
      <trkpt lat="-25.5107260" lon="-49.0099820">
        <ele>948.2</ele>
        <time>2021-04-17T14:40:06Z</time>
      </trkpt>
      <trkpt lat="-25.5106760" lon="-49.0100630">
        <ele>947.9</ele>
        <time>2021-04-17T14:40:07Z</time>
      </trkpt>
      <trkpt lat="-25.5105810" lon="-49.0102220">
        <ele>947.7</ele>
        <time>2021-04-17T14:40:09Z</time>
      </trkpt>
      <trkpt lat="-25.5104000" lon="-49.0104970">
        <ele>948.5</ele>
        <time>2021-04-17T14:40:13Z</time>
      </trkpt>
      <trkpt lat="-25.5102860" lon="-49.0107060">
        <ele>949.7</ele>
        <time>2021-04-17T14:40:17Z</time>
      </trkpt>
      <trkpt lat="-25.5102750" lon="-49.0107400">
        <ele>949.9</ele>
        <time>2021-04-17T14:40:18Z</time>
      </trkpt>
      <trkpt lat="-25.5102610" lon="-49.0109020">
        <ele>950.8</ele>
        <time>2021-04-17T14:40:22Z</time>
      </trkpt>
      <trkpt lat="-25.5102840" lon="-49.0111990">
        <ele>952.0</ele>
        <time>2021-04-17T14:40:28Z</time>
      </trkpt>
      <trkpt lat="-25.5102980" lon="-49.0112510">
        <ele>951.9</ele>
        <time>2021-04-17T14:40:29Z</time>
      </trkpt>
      <trkpt lat="-25.5103520" lon="-49.0114350">
        <ele>950.7</ele>
        <time>2021-04-17T14:40:32Z</time>
      </trkpt>
      <trkpt lat="-25.5103880" lon="-49.0115050">
        <ele>950.1</ele>
        <time>2021-04-17T14:40:33Z</time>
      </trkpt>
      <trkpt lat="-25.5104400" lon="-49.0115750">
        <ele>949.4</ele>
        <time>2021-04-17T14:40:34Z</time>
      </trkpt>
      <trkpt lat="-25.5105490" lon="-49.0117130">
        <ele>948.6</ele>
        <time>2021-04-17T14:40:36Z</time>
      </trkpt>
      <trkpt lat="-25.5107060" lon="-49.0118910">
        <ele>948.8</ele>
        <time>2021-04-17T14:40:39Z</time>
      </trkpt>
      <trkpt lat="-25.5107880" lon="-49.0119730">
        <ele>949.1</ele>
        <time>2021-04-17T14:40:41Z</time>
      </trkpt>
      <trkpt lat="-25.5108260" lon="-49.0120190">
        <ele>949.1</ele>
        <time>2021-04-17T14:40:42Z</time>
      </trkpt>
      <trkpt lat="-25.5109070" lon="-49.0121200">
        <ele>949.0</ele>
        <time>2021-04-17T14:40:44Z</time>
      </trkpt>
      <trkpt lat="-25.5109500" lon="-49.0121760">
        <ele>948.8</ele>
        <time>2021-04-17T14:40:45Z</time>
      </trkpt>
      <trkpt lat="-25.5109860" lon="-49.0122400">
        <ele>948.6</ele>
        <time>2021-04-17T14:40:46Z</time>
      </trkpt>
      <trkpt lat="-25.5110880" lon="-49.0124380">
        <ele>948.2</ele>
        <time>2021-04-17T14:40:49Z</time>
      </trkpt>
      <trkpt lat="-25.5112410" lon="-49.0126690">
        <ele>948.1</ele>
        <time>2021-04-17T14:40:54Z</time>
      </trkpt>
      <trkpt lat="-25.5113010" lon="-49.0127430">
        <ele>947.9</ele>
        <time>2021-04-17T14:40:56Z</time>
      </trkpt>
      <trkpt lat="-25.5114090" lon="-49.0128810">
        <ele>947.1</ele>
        <time>2021-04-17T14:40:59Z</time>
      </trkpt>
      <trkpt lat="-25.5114480" lon="-49.0129380">
        <ele>946.6</ele>
        <time>2021-04-17T14:41:00Z</time>
      </trkpt>
      <trkpt lat="-25.5115120" lon="-49.0131560">
        <ele>945.2</ele>
        <time>2021-04-17T14:41:03Z</time>
      </trkpt>
      <trkpt lat="-25.5115110" lon="-49.0132360">
        <ele>944.8</ele>
        <time>2021-04-17T14:41:04Z</time>
      </trkpt>
      <trkpt lat="-25.5114670" lon="-49.0136420">
        <ele>943.7</ele>
        <time>2021-04-17T14:41:09Z</time>
      </trkpt>
      <trkpt lat="-25.5113300" lon="-49.0139180">
        <ele>943.4</ele>
        <time>2021-04-17T14:41:13Z</time>
      </trkpt>
      <trkpt lat="-25.5112890" lon="-49.0139760">
        <ele>943.4</ele>
        <time>2021-04-17T14:41:14Z</time>
      </trkpt>
      <trkpt lat="-25.5111600" lon="-49.0141450">
        <ele>943.5</ele>
        <time>2021-04-17T14:41:17Z</time>
      </trkpt>
      <trkpt lat="-25.5110210" lon="-49.0142920">
        <ele>943.8</ele>
        <time>2021-04-17T14:41:20Z</time>
      </trkpt>
      <trkpt lat="-25.5109680" lon="-49.0144180">
        <ele>944.0</ele>
        <time>2021-04-17T14:41:22Z</time>
      </trkpt>
      <trkpt lat="-25.5109500" lon="-49.0145450">
        <ele>944.2</ele>
        <time>2021-04-17T14:41:24Z</time>
      </trkpt>
      <trkpt lat="-25.5109660" lon="-49.0146630">
        <ele>944.4</ele>
        <time>2021-04-17T14:41:26Z</time>
      </trkpt>
      <trkpt lat="-25.5110020" lon="-49.0147700">
        <ele>944.3</ele>
        <time>2021-04-17T14:41:28Z</time>
      </trkpt>
      <trkpt lat="-25.5110610" lon="-49.0148870">
        <ele>943.7</ele>
        <time>2021-04-17T14:41:30Z</time>
      </trkpt>
      <trkpt lat="-25.5111030" lon="-49.0149500">
        <ele>943.2</ele>
        <time>2021-04-17T14:41:31Z</time>
      </trkpt>
      <trkpt lat="-25.5111540" lon="-49.0150130">
        <ele>942.6</ele>
        <time>2021-04-17T14:41:32Z</time>
      </trkpt>
      <trkpt lat="-25.5113230" lon="-49.0152140">
        <ele>941.3</ele>
        <time>2021-04-17T14:41:35Z</time>
      </trkpt>
      <trkpt lat="-25.5114190" lon="-49.0153650">
        <ele>940.7</ele>
        <time>2021-04-17T14:41:37Z</time>
      </trkpt>
      <trkpt lat="-25.5114610" lon="-49.0155260">
        <ele>939.5</ele>
        <time>2021-04-17T14:41:39Z</time>
      </trkpt>
      <trkpt lat="-25.5114320" lon="-49.0156670">
        <ele>937.9</ele>
        <time>2021-04-17T14:41:41Z</time>
      </trkpt>
      <trkpt lat="-25.5113910" lon="-49.0157470">
        <ele>937.0</ele>
        <time>2021-04-17T14:41:42Z</time>
      </trkpt>
      <trkpt lat="-25.5112030" lon="-49.0160410">
        <ele>935.6</ele>
        <time>2021-04-17T14:41:45Z</time>
      </trkpt>
      <trkpt lat="-25.5110860" lon="-49.0163690">
        <ele>936.9</ele>
        <time>2021-04-17T14:41:49Z</time>
      </trkpt>
      <trkpt lat="-25.5109900" lon="-49.0166150">
        <ele>937.9</ele>
        <time>2021-04-17T14:41:53Z</time>
      </trkpt>
      <trkpt lat="-25.5108940" lon="-49.0167780">
        <ele>938.6</ele>
        <time>2021-04-17T14:41:56Z</time>
      </trkpt>
      <trkpt lat="-25.5108180" lon="-49.0168720">
        <ele>939.1</ele>
        <time>2021-04-17T14:41:58Z</time>
      </trkpt>
      <trkpt lat="-25.5107830" lon="-49.0169110">
        <ele>939.3</ele>
        <time>2021-04-17T14:41:59Z</time>
      </trkpt>
      <trkpt lat="-25.5106810" lon="-49.0170050">
        <ele>939.9</ele>
        <time>2021-04-17T14:42:02Z</time>
      </trkpt>
      <trkpt lat="-25.5106460" lon="-49.0170370">
        <ele>940.1</ele>
        <time>2021-04-17T14:42:03Z</time>
      </trkpt>
      <trkpt lat="-25.5104740" lon="-49.0172130">
        <ele>942.0</ele>
        <time>2021-04-17T14:42:09Z</time>
      </trkpt>
      <trkpt lat="-25.5103780" lon="-49.0173460">
        <ele>943.9</ele>
        <time>2021-04-17T14:42:14Z</time>
      </trkpt>
      <trkpt lat="-25.5103510" lon="-49.0174660">
        <ele>945.5</ele>
        <time>2021-04-17T14:42:20Z</time>
      </trkpt>
      <trkpt lat="-25.5103600" lon="-49.0175780">
        <ele>947.0</ele>
        <time>2021-04-17T14:42:26Z</time>
      </trkpt>
      <trkpt lat="-25.5103630" lon="-49.0175950">
        <ele>947.2</ele>
        <time>2021-04-17T14:42:27Z</time>
      </trkpt>
      <trkpt lat="-25.5103790" lon="-49.0176670">
        <ele>948.2</ele>
        <time>2021-04-17T14:42:31Z</time>
      </trkpt>
      <trkpt lat="-25.5103850" lon="-49.0177250">
        <ele>948.9</ele>
        <time>2021-04-17T14:42:34Z</time>
      </trkpt>
      <trkpt lat="-25.5103960" lon="-49.0177620">
        <ele>949.4</ele>
        <time>2021-04-17T14:42:36Z</time>
      </trkpt>
      <trkpt lat="-25.5104040" lon="-49.0178050">
        <ele>949.9</ele>
        <time>2021-04-17T14:42:38Z</time>
      </trkpt>
      <trkpt lat="-25.5104210" lon="-49.0178590">
        <ele>950.6</ele>
        <time>2021-04-17T14:42:41Z</time>
      </trkpt>
      <trkpt lat="-25.5104350" lon="-49.0178920">
        <ele>951.1</ele>
        <time>2021-04-17T14:42:43Z</time>
      </trkpt>
      <trkpt lat="-25.5104490" lon="-49.0179180">
        <ele>951.4</ele>
        <time>2021-04-17T14:42:45Z</time>
      </trkpt>
      <trkpt lat="-25.5105200" lon="-49.0180310">
        <ele>952.9</ele>
        <time>2021-04-17T14:42:53Z</time>
      </trkpt>
      <trkpt lat="-25.5106150" lon="-49.0181710">
        <ele>954.6</ele>
        <time>2021-04-17T14:43:03Z</time>
      </trkpt>
      <trkpt lat="-25.5106690" lon="-49.0182690">
        <ele>955.7</ele>
        <time>2021-04-17T14:43:10Z</time>
      </trkpt>
      <trkpt lat="-25.5107140" lon="-49.0183810">
        <ele>956.7</ele>
        <time>2021-04-17T14:43:17Z</time>
      </trkpt>
      <trkpt lat="-25.5107600" lon="-49.0185260">
        <ele>957.9</ele>
        <time>2021-04-17T14:43:26Z</time>
      </trkpt>
      <trkpt lat="-25.5107730" lon="-49.0187070">
        <ele>958.2</ele>
        <time>2021-04-17T14:43:37Z</time>
      </trkpt>
      <trkpt lat="-25.5107760" lon="-49.0188930">
        <ele>957.3</ele>
        <time>2021-04-17T14:43:42Z</time>
      </trkpt>
      <trkpt lat="-25.5107900" lon="-49.0191480">
        <ele>956.3</ele>
        <time>2021-04-17T14:43:46Z</time>
      </trkpt>
      <trkpt lat="-25.5108100" lon="-49.0194890">
        <ele>956.3</ele>
        <time>2021-04-17T14:43:51Z</time>
      </trkpt>
      <trkpt lat="-25.5108190" lon="-49.0195550">
        <ele>956.6</ele>
        <time>2021-04-17T14:43:52Z</time>
      </trkpt>
      <trkpt lat="-25.5107930" lon="-49.0198180">
        <ele>957.7</ele>
        <time>2021-04-17T14:43:57Z</time>
      </trkpt>
      <trkpt lat="-25.5107950" lon="-49.0200390">
        <ele>958.2</ele>
        <time>2021-04-17T14:44:03Z</time>
      </trkpt>
      <trkpt lat="-25.5108610" lon="-49.0202280">
        <ele>958.0</ele>
        <time>2021-04-17T14:44:08Z</time>
      </trkpt>
      <trkpt lat="-25.5110190" lon="-49.0204910">
        <ele>957.2</ele>
        <time>2021-04-17T14:44:15Z</time>
      </trkpt>
      <trkpt lat="-25.5111260" lon="-49.0206590">
        <ele>956.1</ele>
        <time>2021-04-17T14:44:19Z</time>
      </trkpt>
      <trkpt lat="-25.5111450" lon="-49.0207230">
        <ele>955.8</ele>
        <time>2021-04-17T14:44:20Z</time>
      </trkpt>
      <trkpt lat="-25.5111530" lon="-49.0209030">
        <ele>955.2</ele>
        <time>2021-04-17T14:44:23Z</time>
      </trkpt>
      <trkpt lat="-25.5111370" lon="-49.0209630">
        <ele>955.2</ele>
        <time>2021-04-17T14:44:24Z</time>
      </trkpt>
      <trkpt lat="-25.5110590" lon="-49.0212440">
        <ele>955.4</ele>
        <time>2021-04-17T14:44:28Z</time>
      </trkpt>
      <trkpt lat="-25.5109990" lon="-49.0215720">
        <ele>954.0</ele>
        <time>2021-04-17T14:44:33Z</time>
      </trkpt>
      <trkpt lat="-25.5110080" lon="-49.0217840">
        <ele>952.2</ele>
        <time>2021-04-17T14:44:36Z</time>
      </trkpt>
      <trkpt lat="-25.5109880" lon="-49.0219530">
        <ele>950.8</ele>
        <time>2021-04-17T14:44:38Z</time>
      </trkpt>
      <trkpt lat="-25.5109040" lon="-49.0221250">
        <ele>949.5</ele>
        <time>2021-04-17T14:44:40Z</time>
      </trkpt>
      <trkpt lat="-25.5108480" lon="-49.0222030">
        <ele>949.2</ele>
        <time>2021-04-17T14:44:41Z</time>
      </trkpt>
      <trkpt lat="-25.5106590" lon="-49.0224090">
        <ele>948.6</ele>
        <time>2021-04-17T14:44:44Z</time>
      </trkpt>
      <trkpt lat="-25.5105890" lon="-49.0224690">
        <ele>948.6</ele>
        <time>2021-04-17T14:44:45Z</time>
      </trkpt>
      <trkpt lat="-25.5102350" lon="-49.0227430">
        <ele>948.2</ele>
        <time>2021-04-17T14:44:50Z</time>
      </trkpt>
      <trkpt lat="-25.5101730" lon="-49.0228000">
        <ele>947.9</ele>
        <time>2021-04-17T14:44:51Z</time>
      </trkpt>
      <trkpt lat="-25.5100680" lon="-49.0229290">
        <ele>946.8</ele>
        <time>2021-04-17T14:44:53Z</time>
      </trkpt>
      <trkpt lat="-25.5099720" lon="-49.0230830">
        <ele>944.9</ele>
        <time>2021-04-17T14:44:55Z</time>
      </trkpt>
      <trkpt lat="-25.5096730" lon="-49.0233250">
        <ele>939.8</ele>
        <time>2021-04-17T14:44:59Z</time>
      </trkpt>
      <trkpt lat="-25.5095060" lon="-49.0234730">
        <ele>936.3</ele>
        <time>2021-04-17T14:45:01Z</time>
      </trkpt>
      <trkpt lat="-25.5093590" lon="-49.0236520">
        <ele>933.0</ele>
        <time>2021-04-17T14:45:03Z</time>
      </trkpt>
      <trkpt lat="-25.5090540" lon="-49.0240450">
        <ele>928.6</ele>
        <time>2021-04-17T14:45:07Z</time>
      </trkpt>
      <trkpt lat="-25.5088330" lon="-49.0243000">
        <ele>926.9</ele>
        <time>2021-04-17T14:45:10Z</time>
      </trkpt>
      <trkpt lat="-25.5087850" lon="-49.0243800">
        <ele>926.5</ele>
        <time>2021-04-17T14:45:11Z</time>
      </trkpt>
      <trkpt lat="-25.5087510" lon="-49.0244600">
        <ele>926.1</ele>
        <time>2021-04-17T14:45:12Z</time>
      </trkpt>
      <trkpt lat="-25.5087170" lon="-49.0246070">
        <ele>925.3</ele>
        <time>2021-04-17T14:45:14Z</time>
      </trkpt>
      <trkpt lat="-25.5087130" lon="-49.0247820">
        <ele>924.4</ele>
        <time>2021-04-17T14:45:17Z</time>
      </trkpt>
      <trkpt lat="-25.5087080" lon="-49.0248400">
        <ele>924.1</ele>
        <time>2021-04-17T14:45:18Z</time>
      </trkpt>
      <trkpt lat="-25.5086820" lon="-49.0249510">
        <ele>923.4</ele>
        <time>2021-04-17T14:45:20Z</time>
      </trkpt>
      <trkpt lat="-25.5086500" lon="-49.0250140">
        <ele>923.0</ele>
        <time>2021-04-17T14:45:21Z</time>
      </trkpt>
      <trkpt lat="-25.5086110" lon="-49.0250660">
        <ele>922.6</ele>
        <time>2021-04-17T14:45:22Z</time>
      </trkpt>
      <trkpt lat="-25.5085620" lon="-49.0251130">
        <ele>922.2</ele>
        <time>2021-04-17T14:45:23Z</time>
      </trkpt>
      <trkpt lat="-25.5083960" lon="-49.0252380">
        <ele>921.0</ele>
        <time>2021-04-17T14:45:26Z</time>
      </trkpt>
      <trkpt lat="-25.5082400" lon="-49.0253680">
        <ele>920.4</ele>
        <time>2021-04-17T14:45:29Z</time>
      </trkpt>
      <trkpt lat="-25.5081810" lon="-49.0254310">
        <ele>920.3</ele>
        <time>2021-04-17T14:45:30Z</time>
      </trkpt>
      <trkpt lat="-25.5081410" lon="-49.0254870">
        <ele>920.2</ele>
        <time>2021-04-17T14:45:31Z</time>
      </trkpt>
      <trkpt lat="-25.5079520" lon="-49.0257230">
        <ele>919.9</ele>
        <time>2021-04-17T14:45:36Z</time>
      </trkpt>
      <trkpt lat="-25.5077200" lon="-49.0260870">
        <ele>919.0</ele>
        <time>2021-04-17T14:45:43Z</time>
      </trkpt>
      <trkpt lat="-25.5075010" lon="-49.0263730">
        <ele>916.8</ele>
        <time>2021-04-17T14:45:48Z</time>
      </trkpt>
      <trkpt lat="-25.5073000" lon="-49.0266570">
        <ele>915.3</ele>
        <time>2021-04-17T14:45:52Z</time>
      </trkpt>
      <trkpt lat="-25.5072610" lon="-49.0267360">
        <ele>915.2</ele>
        <time>2021-04-17T14:45:53Z</time>
      </trkpt>
      <trkpt lat="-25.5071590" lon="-49.0270990">
        <ele>915.3</ele>
        <time>2021-04-17T14:45:58Z</time>
      </trkpt>
      <trkpt lat="-25.5071850" lon="-49.0272100">
        <ele>915.3</ele>
        <time>2021-04-17T14:46:00Z</time>
      </trkpt>
      <trkpt lat="-25.5072200" lon="-49.0272610">
        <ele>914.8</ele>
        <time>2021-04-17T14:46:01Z</time>
      </trkpt>
      <trkpt lat="-25.5072680" lon="-49.0273090">
        <ele>914.2</ele>
        <time>2021-04-17T14:46:02Z</time>
      </trkpt>
      <trkpt lat="-25.5074480" lon="-49.0274430">
        <ele>912.1</ele>
        <time>2021-04-17T14:46:05Z</time>
      </trkpt>
      <trkpt lat="-25.5078160" lon="-49.0276770">
        <ele>907.1</ele>
        <time>2021-04-17T14:46:10Z</time>
      </trkpt>
      <trkpt lat="-25.5083790" lon="-49.0279800">
        <ele>899.7</ele>
        <time>2021-04-17T14:46:17Z</time>
      </trkpt>
      <trkpt lat="-25.5084530" lon="-49.0280180">
        <ele>898.8</ele>
        <time>2021-04-17T14:46:18Z</time>
      </trkpt>
      <trkpt lat="-25.5088150" lon="-49.0282020">
        <ele>895.4</ele>
        <time>2021-04-17T14:46:23Z</time>
      </trkpt>
      <trkpt lat="-25.5088690" lon="-49.0282480">
        <ele>895.0</ele>
        <time>2021-04-17T14:46:24Z</time>
      </trkpt>
      <trkpt lat="-25.5089000" lon="-49.0282990">
        <ele>894.8</ele>
        <time>2021-04-17T14:46:25Z</time>
      </trkpt>
      <trkpt lat="-25.5089060" lon="-49.0283530">
        <ele>894.6</ele>
        <time>2021-04-17T14:46:26Z</time>
      </trkpt>
      <trkpt lat="-25.5088880" lon="-49.0284030">
        <ele>894.5</ele>
        <time>2021-04-17T14:46:27Z</time>
      </trkpt>
      <trkpt lat="-25.5088160" lon="-49.0284650">
        <ele>894.1</ele>
        <time>2021-04-17T14:46:29Z</time>
      </trkpt>
      <trkpt lat="-25.5087220" lon="-49.0284990">
        <ele>893.9</ele>
        <time>2021-04-17T14:46:31Z</time>
      </trkpt>
      <trkpt lat="-25.5085670" lon="-49.0285380">
        <ele>893.8</ele>
        <time>2021-04-17T14:46:34Z</time>
      </trkpt>
      <trkpt lat="-25.5083140" lon="-49.0286300">
        <ele>893.6</ele>
        <time>2021-04-17T14:46:39Z</time>
      </trkpt>
      <trkpt lat="-25.5081590" lon="-49.0286800">
        <ele>893.6</ele>
        <time>2021-04-17T14:46:42Z</time>
      </trkpt>
      <trkpt lat="-25.5080070" lon="-49.0287320">
        <ele>893.5</ele>
        <time>2021-04-17T14:46:45Z</time>
      </trkpt>
      <trkpt lat="-25.5079140" lon="-49.0287900">
        <ele>893.4</ele>
        <time>2021-04-17T14:46:47Z</time>
      </trkpt>
      <trkpt lat="-25.5078710" lon="-49.0288290">
        <ele>893.4</ele>
        <time>2021-04-17T14:46:48Z</time>
      </trkpt>
      <trkpt lat="-25.5076380" lon="-49.0291040">
        <ele>893.8</ele>
        <time>2021-04-17T14:46:54Z</time>
      </trkpt>
      <trkpt lat="-25.5075050" lon="-49.0292150">
        <ele>894.3</ele>
        <time>2021-04-17T14:46:57Z</time>
      </trkpt>
      <trkpt lat="-25.5074240" lon="-49.0292920">
        <ele>894.7</ele>
        <time>2021-04-17T14:46:59Z</time>
      </trkpt>
      <trkpt lat="-25.5074020" lon="-49.0293250">
        <ele>894.9</ele>
        <time>2021-04-17T14:47:00Z</time>
      </trkpt>
      <trkpt lat="-25.5073750" lon="-49.0293690">
        <ele>895.0</ele>
        <time>2021-04-17T14:47:01Z</time>
      </trkpt>
      <trkpt lat="-25.5073370" lon="-49.0294740">
        <ele>895.4</ele>
        <time>2021-04-17T14:47:03Z</time>
      </trkpt>
      <trkpt lat="-25.5073320" lon="-49.0295140">
        <ele>895.5</ele>
        <time>2021-04-17T14:47:04Z</time>
      </trkpt>
      <trkpt lat="-25.5073300" lon="-49.0295620">
        <ele>895.7</ele>
        <time>2021-04-17T14:47:05Z</time>
      </trkpt>
      <trkpt lat="-25.5073350" lon="-49.0297080">
        <ele>896.1</ele>
        <time>2021-04-17T14:47:08Z</time>
      </trkpt>
      <trkpt lat="-25.5073340" lon="-49.0298000">
        <ele>896.4</ele>
        <time>2021-04-17T14:47:10Z</time>
      </trkpt>
      <trkpt lat="-25.5073280" lon="-49.0299460">
        <ele>896.6</ele>
        <time>2021-04-17T14:47:13Z</time>
      </trkpt>
      <trkpt lat="-25.5073260" lon="-49.0299890">
        <ele>896.6</ele>
        <time>2021-04-17T14:47:14Z</time>
      </trkpt>
      <trkpt lat="-25.5072980" lon="-49.0301730">
        <ele>896.9</ele>
        <time>2021-04-17T14:47:18Z</time>
      </trkpt>
      <trkpt lat="-25.5072790" lon="-49.0302700">
        <ele>897.0</ele>
        <time>2021-04-17T14:47:20Z</time>
      </trkpt>
      <trkpt lat="-25.5072230" lon="-49.0304120">
        <ele>897.2</ele>
        <time>2021-04-17T14:47:23Z</time>
      </trkpt>
      <trkpt lat="-25.5071990" lon="-49.0304540">
        <ele>897.2</ele>
        <time>2021-04-17T14:47:24Z</time>
      </trkpt>
      <trkpt lat="-25.5071490" lon="-49.0305330">
        <ele>897.3</ele>
        <time>2021-04-17T14:47:26Z</time>
      </trkpt>
      <trkpt lat="-25.5070570" lon="-49.0306210">
        <ele>897.5</ele>
        <time>2021-04-17T14:47:29Z</time>
      </trkpt>
      <trkpt lat="-25.5068880" lon="-49.0306930">
        <ele>897.8</ele>
        <time>2021-04-17T14:47:34Z</time>
      </trkpt>
      <trkpt lat="-25.5066250" lon="-49.0306900">
        <ele>898.3</ele>
        <time>2021-04-17T14:47:42Z</time>
      </trkpt>
      <trkpt lat="-25.5064470" lon="-49.0305880">
        <ele>899.0</ele>
        <time>2021-04-17T14:47:49Z</time>
      </trkpt>
      <trkpt lat="-25.5063590" lon="-49.0305200">
        <ele>899.6</ele>
        <time>2021-04-17T14:47:54Z</time>
      </trkpt>
      <trkpt lat="-25.5062850" lon="-49.0304880">
        <ele>900.1</ele>
        <time>2021-04-17T14:47:58Z</time>
      </trkpt>
      <trkpt lat="-25.5062130" lon="-49.0304720">
        <ele>900.6</ele>
        <time>2021-04-17T14:48:02Z</time>
      </trkpt>
      <trkpt lat="-25.5061930" lon="-49.0304670">
        <ele>900.8</ele>
        <time>2021-04-17T14:48:03Z</time>
      </trkpt>
      <trkpt lat="-25.5061530" lon="-49.0304570">
        <ele>901.2</ele>
        <time>2021-04-17T14:48:06Z</time>
      </trkpt>
      <trkpt lat="-25.5061500" lon="-49.0304550">
        <ele>901.2</ele>
        <time>2021-04-17T14:48:08Z</time>
      </trkpt>
      <trkpt lat="-25.5061380" lon="-49.0304630">
        <ele>901.3</ele>
        <time>2021-04-17T14:48:17Z</time>
      </trkpt>
      <trkpt lat="-25.5061270" lon="-49.0304680">
        <ele>901.4</ele>
        <time>2021-04-17T14:48:18Z</time>
      </trkpt>
      <trkpt lat="-25.5060340" lon="-49.0304610">
        <ele>902.4</ele>
        <time>2021-04-17T14:48:25Z</time>
      </trkpt>
      <trkpt lat="-25.5059850" lon="-49.0304540">
        <ele>903.0</ele>
        <time>2021-04-17T14:48:28Z</time>
      </trkpt>
      <trkpt lat="-25.5059340" lon="-49.0304480">
        <ele>903.6</ele>
        <time>2021-04-17T14:48:31Z</time>
      </trkpt>
      <trkpt lat="-25.5058830" lon="-49.0304390">
        <ele>904.3</ele>
        <time>2021-04-17T14:48:34Z</time>
      </trkpt>
      <trkpt lat="-25.5057630" lon="-49.0304070">
        <ele>906.1</ele>
        <time>2021-04-17T14:48:42Z</time>
      </trkpt>
      <trkpt lat="-25.5056760" lon="-49.0303880">
        <ele>907.4</ele>
        <time>2021-04-17T14:48:48Z</time>
      </trkpt>
      <trkpt lat="-25.5056030" lon="-49.0303630">
        <ele>908.5</ele>
        <time>2021-04-17T14:48:53Z</time>
      </trkpt>
      <trkpt lat="-25.5055140" lon="-49.0303330">
        <ele>909.9</ele>
        <time>2021-04-17T14:48:59Z</time>
      </trkpt>
      <trkpt lat="-25.5054120" lon="-49.0303000">
        <ele>911.6</ele>
        <time>2021-04-17T14:49:06Z</time>
      </trkpt>
      <trkpt lat="-25.5053830" lon="-49.0302950">
        <ele>912.1</ele>
        <time>2021-04-17T14:49:08Z</time>
      </trkpt>
      <trkpt lat="-25.5052410" lon="-49.0302800">
        <ele>914.4</ele>
        <time>2021-04-17T14:49:18Z</time>
      </trkpt>
      <trkpt lat="-25.5051070" lon="-49.0302620">
        <ele>916.0</ele>
        <time>2021-04-17T14:49:27Z</time>
      </trkpt>
      <trkpt lat="-25.5050100" lon="-49.0302670">
        <ele>916.7</ele>
        <time>2021-04-17T14:49:34Z</time>
      </trkpt>
      <trkpt lat="-25.5050100" lon="-49.0302670">
        <ele>916.7</ele>
        <time>2021-04-17T14:49:40Z</time>
      </trkpt>
      <trkpt lat="-25.5050100" lon="-49.0302670">
        <ele>916.7</ele>
        <time>2021-04-17T14:49:49Z</time>
      </trkpt>
      <trkpt lat="-25.5050100" lon="-49.0302680">
        <ele>916.7</ele>
        <time>2021-04-17T14:49:56Z</time>
      </trkpt>
      <trkpt lat="-25.5050100" lon="-49.0302800">
        <ele>916.8</ele>
        <time>2021-04-17T14:50:00Z</time>
      </trkpt>
      <trkpt lat="-25.5049770" lon="-49.0303090">
        <ele>917.0</ele>
        <time>2021-04-17T14:50:04Z</time>
      </trkpt>
      <trkpt lat="-25.5049610" lon="-49.0303250">
        <ele>917.0</ele>
        <time>2021-04-17T14:50:05Z</time>
      </trkpt>
      <trkpt lat="-25.5048860" lon="-49.0304230">
        <ele>917.1</ele>
        <time>2021-04-17T14:50:10Z</time>
      </trkpt>
      <trkpt lat="-25.5048660" lon="-49.0304380">
        <ele>917.1</ele>
        <time>2021-04-17T14:50:11Z</time>
      </trkpt>
      <trkpt lat="-25.5047440" lon="-49.0305490">
        <ele>917.6</ele>
        <time>2021-04-17T14:50:16Z</time>
      </trkpt>
      <trkpt lat="-25.5045990" lon="-49.0306650">
        <ele>919.1</ele>
        <time>2021-04-17T14:50:23Z</time>
      </trkpt>
      <trkpt lat="-25.5045770" lon="-49.0306770">
        <ele>919.4</ele>
        <time>2021-04-17T14:50:25Z</time>
      </trkpt>
      <trkpt lat="-25.5045340" lon="-49.0306960">
        <ele>920.0</ele>
        <time>2021-04-17T14:50:28Z</time>
      </trkpt>
      <trkpt lat="-25.5044150" lon="-49.0307420">
        <ele>921.4</ele>
        <time>2021-04-17T14:50:35Z</time>
      </trkpt>
      <trkpt lat="-25.5043140" lon="-49.0308120">
        <ele>922.6</ele>
        <time>2021-04-17T14:50:40Z</time>
      </trkpt>
      <trkpt lat="-25.5042960" lon="-49.0308270">
        <ele>922.8</ele>
        <time>2021-04-17T14:50:41Z</time>
      </trkpt>
      <trkpt lat="-25.5042840" lon="-49.0308390">
        <ele>923.0</ele>
        <time>2021-04-17T14:50:42Z</time>
      </trkpt>
      <trkpt lat="-25.5042640" lon="-49.0308530">
        <ele>923.1</ele>
        <time>2021-04-17T14:50:44Z</time>
      </trkpt>
      <trkpt lat="-25.5042510" lon="-49.0308540">
        <ele>923.2</ele>
        <time>2021-04-17T14:50:45Z</time>
      </trkpt>
      <trkpt lat="-25.5042340" lon="-49.0308530">
        <ele>923.4</ele>
        <time>2021-04-17T14:50:46Z</time>
      </trkpt>
      <trkpt lat="-25.5041810" lon="-49.0309100">
        <ele>923.9</ele>
        <time>2021-04-17T14:50:50Z</time>
      </trkpt>
      <trkpt lat="-25.5041630" lon="-49.0309300">
        <ele>924.0</ele>
        <time>2021-04-17T14:50:51Z</time>
      </trkpt>
      <trkpt lat="-25.5041180" lon="-49.0309730">
        <ele>924.4</ele>
        <time>2021-04-17T14:50:54Z</time>
      </trkpt>
      <trkpt lat="-25.5040690" lon="-49.0310050">
        <ele>924.8</ele>
        <time>2021-04-17T14:50:56Z</time>
      </trkpt>
      <trkpt lat="-25.5040450" lon="-49.0310210">
        <ele>925.0</ele>
        <time>2021-04-17T14:50:58Z</time>
      </trkpt>
      <trkpt lat="-25.5040040" lon="-49.0310690">
        <ele>925.5</ele>
        <time>2021-04-17T14:51:00Z</time>
      </trkpt>
      <trkpt lat="-25.5039720" lon="-49.0311090">
        <ele>926.0</ele>
        <time>2021-04-17T14:51:02Z</time>
      </trkpt>
      <trkpt lat="-25.5039000" lon="-49.0311940">
        <ele>927.2</ele>
        <time>2021-04-17T14:51:06Z</time>
      </trkpt>
      <trkpt lat="-25.5038770" lon="-49.0312160">
        <ele>927.6</ele>
        <time>2021-04-17T14:51:08Z</time>
      </trkpt>
      <trkpt lat="-25.5037550" lon="-49.0313090">
        <ele>929.5</ele>
        <time>2021-04-17T14:51:14Z</time>
      </trkpt>
      <trkpt lat="-25.5037480" lon="-49.0313280">
        <ele>929.7</ele>
        <time>2021-04-17T14:51:15Z</time>
      </trkpt>
      <trkpt lat="-25.5036900" lon="-49.0314370">
        <ele>930.8</ele>
        <time>2021-04-17T14:51:24Z</time>
      </trkpt>
      <trkpt lat="-25.5036180" lon="-49.0315320">
        <ele>931.5</ele>
        <time>2021-04-17T14:51:31Z</time>
      </trkpt>
      <trkpt lat="-25.5035900" lon="-49.0315500">
        <ele>931.6</ele>
        <time>2021-04-17T14:51:33Z</time>
      </trkpt>
      <trkpt lat="-25.5035340" lon="-49.0316130">
        <ele>931.7</ele>
        <time>2021-04-17T14:51:38Z</time>
      </trkpt>
      <trkpt lat="-25.5034450" lon="-49.0316630">
        <ele>931.7</ele>
        <time>2021-04-17T14:51:44Z</time>
      </trkpt>
      <trkpt lat="-25.5032900" lon="-49.0317360">
        <ele>930.8</ele>
        <time>2021-04-17T14:51:50Z</time>
      </trkpt>
      <trkpt lat="-25.5031130" lon="-49.0318010">
        <ele>929.2</ele>
        <time>2021-04-17T14:51:54Z</time>
      </trkpt>
      <trkpt lat="-25.5028350" lon="-49.0319080">
        <ele>927.3</ele>
        <time>2021-04-17T14:51:58Z</time>
      </trkpt>
      <trkpt lat="-25.5026410" lon="-49.0319670">
        <ele>927.6</ele>
        <time>2021-04-17T14:52:01Z</time>
      </trkpt>
      <trkpt lat="-25.5025610" lon="-49.0319820">
        <ele>928.0</ele>
        <time>2021-04-17T14:52:03Z</time>
      </trkpt>
      <trkpt lat="-25.5024140" lon="-49.0319450">
        <ele>928.6</ele>
        <time>2021-04-17T14:52:08Z</time>
      </trkpt>
      <trkpt lat="-25.5022870" lon="-49.0318750">
        <ele>928.6</ele>
        <time>2021-04-17T14:52:12Z</time>
      </trkpt>
      <trkpt lat="-25.5022220" lon="-49.0318300">
        <ele>928.6</ele>
        <time>2021-04-17T14:52:14Z</time>
      </trkpt>
      <trkpt lat="-25.5021210" lon="-49.0317670">
        <ele>928.7</ele>
        <time>2021-04-17T14:52:17Z</time>
      </trkpt>
      <trkpt lat="-25.5020910" lon="-49.0317490">
        <ele>928.7</ele>
        <time>2021-04-17T14:52:18Z</time>
      </trkpt>
      <trkpt lat="-25.5019880" lon="-49.0316990">
        <ele>929.0</ele>
        <time>2021-04-17T14:52:21Z</time>
      </trkpt>
      <trkpt lat="-25.5018800" lon="-49.0316390">
        <ele>929.6</ele>
        <time>2021-04-17T14:52:25Z</time>
      </trkpt>
      <trkpt lat="-25.5016060" lon="-49.0314450">
        <ele>931.0</ele>
        <time>2021-04-17T14:52:35Z</time>
      </trkpt>
      <trkpt lat="-25.5014820" lon="-49.0313420">
        <ele>931.6</ele>
        <time>2021-04-17T14:52:40Z</time>
      </trkpt>
      <trkpt lat="-25.5014610" lon="-49.0313290">
        <ele>931.7</ele>
        <time>2021-04-17T14:52:41Z</time>
      </trkpt>
      <trkpt lat="-25.5012820" lon="-49.0312280">
        <ele>933.4</ele>
        <time>2021-04-17T14:52:50Z</time>
      </trkpt>
      <trkpt lat="-25.5011370" lon="-49.0311280">
        <ele>935.1</ele>
        <time>2021-04-17T14:52:58Z</time>
      </trkpt>
      <trkpt lat="-25.5010420" lon="-49.0310900">
        <ele>935.8</ele>
        <time>2021-04-17T14:53:04Z</time>
      </trkpt>
      <trkpt lat="-25.5010240" lon="-49.0310850">
        <ele>936.0</ele>
        <time>2021-04-17T14:53:05Z</time>
      </trkpt>
      <trkpt lat="-25.5008840" lon="-49.0309720">
        <ele>936.4</ele>
        <time>2021-04-17T14:53:12Z</time>
      </trkpt>
      <trkpt lat="-25.5007360" lon="-49.0307510">
        <ele>935.9</ele>
        <time>2021-04-17T14:53:20Z</time>
      </trkpt>
      <trkpt lat="-25.5005970" lon="-49.0305580">
        <ele>935.7</ele>
        <time>2021-04-17T14:53:26Z</time>
      </trkpt>
      <trkpt lat="-25.5004360" lon="-49.0304040">
        <ele>935.9</ele>
        <time>2021-04-17T14:53:32Z</time>
      </trkpt>
      <trkpt lat="-25.5003120" lon="-49.0303000">
        <ele>936.3</ele>
        <time>2021-04-17T14:53:37Z</time>
      </trkpt>
      <trkpt lat="-25.5001420" lon="-49.0301650">
        <ele>937.3</ele>
        <time>2021-04-17T14:53:44Z</time>
      </trkpt>
      <trkpt lat="-25.5001170" lon="-49.0301380">
        <ele>937.5</ele>
        <time>2021-04-17T14:53:45Z</time>
      </trkpt>
      <trkpt lat="-25.4999830" lon="-49.0300550">
        <ele>938.4</ele>
        <time>2021-04-17T14:53:51Z</time>
      </trkpt>
      <trkpt lat="-25.4998340" lon="-49.0300170">
        <ele>939.6</ele>
        <time>2021-04-17T14:53:57Z</time>
      </trkpt>
      <trkpt lat="-25.4997320" lon="-49.0299830">
        <ele>940.5</ele>
        <time>2021-04-17T14:54:02Z</time>
      </trkpt>
      <trkpt lat="-25.4997090" lon="-49.0299800">
        <ele>940.7</ele>
        <time>2021-04-17T14:54:03Z</time>
      </trkpt>
      <trkpt lat="-25.4996630" lon="-49.0299780">
        <ele>941.0</ele>
        <time>2021-04-17T14:54:06Z</time>
      </trkpt>
      <trkpt lat="-25.4996070" lon="-49.0299690">
        <ele>941.5</ele>
        <time>2021-04-17T14:54:09Z</time>
      </trkpt>
      <trkpt lat="-25.4995830" lon="-49.0299560">
        <ele>941.7</ele>
        <time>2021-04-17T14:54:11Z</time>
      </trkpt>
      <trkpt lat="-25.4995710" lon="-49.0299490">
        <ele>941.8</ele>
        <time>2021-04-17T14:54:12Z</time>
      </trkpt>
      <trkpt lat="-25.4995590" lon="-49.0299460">
        <ele>941.9</ele>
        <time>2021-04-17T14:54:13Z</time>
      </trkpt>
      <trkpt lat="-25.4994970" lon="-49.0299880">
        <ele>942.6</ele>
        <time>2021-04-17T14:54:17Z</time>
      </trkpt>
      <trkpt lat="-25.4994440" lon="-49.0300110">
        <ele>943.3</ele>
        <time>2021-04-17T14:54:21Z</time>
      </trkpt>
      <trkpt lat="-25.4994060" lon="-49.0300310">
        <ele>943.8</ele>
        <time>2021-04-17T14:54:23Z</time>
      </trkpt>
      <trkpt lat="-25.4993350" lon="-49.0300600">
        <ele>944.7</ele>
        <time>2021-04-17T14:54:26Z</time>
      </trkpt>
      <trkpt lat="-25.4993040" lon="-49.0300650">
        <ele>945.1</ele>
        <time>2021-04-17T14:54:28Z</time>
      </trkpt>
      <trkpt lat="-25.4992870" lon="-49.0300700">
        <ele>945.3</ele>
        <time>2021-04-17T14:54:29Z</time>
      </trkpt>
      <trkpt lat="-25.4992700" lon="-49.0300730">
        <ele>945.5</ele>
        <time>2021-04-17T14:54:31Z</time>
      </trkpt>
      <trkpt lat="-25.4992180" lon="-49.0300450">
        <ele>946.2</ele>
        <time>2021-04-17T14:54:33Z</time>
      </trkpt>
      <trkpt lat="-25.4991360" lon="-49.0300220">
        <ele>947.3</ele>
        <time>2021-04-17T14:54:37Z</time>
      </trkpt>
      <trkpt lat="-25.4991020" lon="-49.0300220">
        <ele>947.7</ele>
        <time>2021-04-17T14:54:39Z</time>
      </trkpt>
      <trkpt lat="-25.4990910" lon="-49.0300330">
        <ele>947.9</ele>
        <time>2021-04-17T14:54:41Z</time>
      </trkpt>
      <trkpt lat="-25.4990860" lon="-49.0300340">
        <ele>948.0</ele>
        <time>2021-04-17T14:54:42Z</time>
      </trkpt>
      <trkpt lat="-25.4990660" lon="-49.0300290">
        <ele>948.2</ele>
        <time>2021-04-17T14:54:44Z</time>
      </trkpt>
      <trkpt lat="-25.4990410" lon="-49.0300330">
        <ele>948.5</ele>
        <time>2021-04-17T14:54:45Z</time>
      </trkpt>
      <trkpt lat="-25.4990160" lon="-49.0300360">
        <ele>948.7</ele>
        <time>2021-04-17T14:54:46Z</time>
      </trkpt>
      <trkpt lat="-25.4989620" lon="-49.0299980">
        <ele>949.3</ele>
        <time>2021-04-17T14:54:50Z</time>
      </trkpt>
      <trkpt lat="-25.4989480" lon="-49.0299660">
        <ele>949.5</ele>
        <time>2021-04-17T14:54:53Z</time>
      </trkpt>
      <trkpt lat="-25.4989090" lon="-49.0299080">
        <ele>949.9</ele>
        <time>2021-04-17T14:54:56Z</time>
      </trkpt>
      <trkpt lat="-25.4988190" lon="-49.0298490">
        <ele>950.3</ele>
        <time>2021-04-17T14:55:02Z</time>
      </trkpt>
      <trkpt lat="-25.4986890" lon="-49.0297400">
        <ele>950.8</ele>
        <time>2021-04-17T14:55:10Z</time>
      </trkpt>
      <trkpt lat="-25.4986390" lon="-49.0296670">
        <ele>951.2</ele>
        <time>2021-04-17T14:55:15Z</time>
      </trkpt>
      <trkpt lat="-25.4985620" lon="-49.0295660">
        <ele>951.8</ele>
        <time>2021-04-17T14:55:22Z</time>
      </trkpt>
      <trkpt lat="-25.4985420" lon="-49.0294800">
        <ele>952.4</ele>
        <time>2021-04-17T14:55:27Z</time>
      </trkpt>
      <trkpt lat="-25.4985320" lon="-49.0294330">
        <ele>952.7</ele>
        <time>2021-04-17T14:55:30Z</time>
      </trkpt>
      <trkpt lat="-25.4985370" lon="-49.0294050">
        <ele>953.0</ele>
        <time>2021-04-17T14:55:32Z</time>
      </trkpt>
      <trkpt lat="-25.4985360" lon="-49.0293940">
        <ele>953.1</ele>
        <time>2021-04-17T14:55:33Z</time>
      </trkpt>
      <trkpt lat="-25.4985160" lon="-49.0292930">
        <ele>954.2</ele>
        <time>2021-04-17T14:55:39Z</time>
      </trkpt>
      <trkpt lat="-25.4985000" lon="-49.0292210">
        <ele>955.1</ele>
        <time>2021-04-17T14:55:43Z</time>
      </trkpt>
      <trkpt lat="-25.4985040" lon="-49.0291880">
        <ele>955.5</ele>
        <time>2021-04-17T14:55:45Z</time>
      </trkpt>
      <trkpt lat="-25.4985040" lon="-49.0291590">
        <ele>955.9</ele>
        <time>2021-04-17T14:55:47Z</time>
      </trkpt>
      <trkpt lat="-25.4984950" lon="-49.0291330">
        <ele>956.2</ele>
        <time>2021-04-17T14:55:49Z</time>
      </trkpt>
      <trkpt lat="-25.4984000" lon="-49.0290420">
        <ele>958.0</ele>
        <time>2021-04-17T14:55:57Z</time>
      </trkpt>
      <trkpt lat="-25.4983320" lon="-49.0290530">
        <ele>959.0</ele>
        <time>2021-04-17T14:56:02Z</time>
      </trkpt>
      <trkpt lat="-25.4983010" lon="-49.0290600">
        <ele>959.4</ele>
        <time>2021-04-17T14:56:04Z</time>
      </trkpt>
      <trkpt lat="-25.4982730" lon="-49.0290650">
        <ele>959.8</ele>
        <time>2021-04-17T14:56:06Z</time>
      </trkpt>
      <trkpt lat="-25.4982590" lon="-49.0290670">
        <ele>960.0</ele>
        <time>2021-04-17T14:56:08Z</time>
      </trkpt>
      <trkpt lat="-25.4982430" lon="-49.0290760">
        <ele>960.2</ele>
        <time>2021-04-17T14:56:13Z</time>
      </trkpt>
      <trkpt lat="-25.4982240" lon="-49.0290780">
        <ele>960.4</ele>
        <time>2021-04-17T14:56:15Z</time>
      </trkpt>
      <trkpt lat="-25.4982170" lon="-49.0290800">
        <ele>960.5</ele>
        <time>2021-04-17T14:56:16Z</time>
      </trkpt>
      <trkpt lat="-25.4981750" lon="-49.0290760">
        <ele>961.0</ele>
        <time>2021-04-17T14:56:18Z</time>
      </trkpt>
      <trkpt lat="-25.4981550" lon="-49.0290780">
        <ele>961.2</ele>
        <time>2021-04-17T14:56:19Z</time>
      </trkpt>
      <trkpt lat="-25.4981210" lon="-49.0290850">
        <ele>961.5</ele>
        <time>2021-04-17T14:56:21Z</time>
      </trkpt>
      <trkpt lat="-25.4980430" lon="-49.0291210">
        <ele>962.4</ele>
        <time>2021-04-17T14:56:24Z</time>
      </trkpt>
      <trkpt lat="-25.4980120" lon="-49.0291400">
        <ele>962.7</ele>
        <time>2021-04-17T14:56:25Z</time>
      </trkpt>
      <trkpt lat="-25.4979110" lon="-49.0291840">
        <ele>963.5</ele>
        <time>2021-04-17T14:56:29Z</time>
      </trkpt>
      <trkpt lat="-25.4978820" lon="-49.0292100">
        <ele>963.7</ele>
        <time>2021-04-17T14:56:31Z</time>
      </trkpt>
      <trkpt lat="-25.4978670" lon="-49.0292260">
        <ele>963.8</ele>
        <time>2021-04-17T14:56:32Z</time>
      </trkpt>
      <trkpt lat="-25.4978610" lon="-49.0292450">
        <ele>963.8</ele>
        <time>2021-04-17T14:56:33Z</time>
      </trkpt>
      <trkpt lat="-25.4978520" lon="-49.0292720">
        <ele>964.0</ele>
        <time>2021-04-17T14:56:35Z</time>
      </trkpt>
      <trkpt lat="-25.4978480" lon="-49.0292760">
        <ele>964.0</ele>
        <time>2021-04-17T14:56:37Z</time>
      </trkpt>
      <trkpt lat="-25.4978440" lon="-49.0292850">
        <ele>964.0</ele>
        <time>2021-04-17T14:56:38Z</time>
      </trkpt>
      <trkpt lat="-25.4977850" lon="-49.0293510">
        <ele>964.3</ele>
        <time>2021-04-17T14:56:43Z</time>
      </trkpt>
      <trkpt lat="-25.4977120" lon="-49.0294250">
        <ele>964.7</ele>
        <time>2021-04-17T14:56:49Z</time>
      </trkpt>
      <trkpt lat="-25.4976800" lon="-49.0294490">
        <ele>964.9</ele>
        <time>2021-04-17T14:56:51Z</time>
      </trkpt>
      <trkpt lat="-25.4976610" lon="-49.0294780">
        <ele>965.0</ele>
        <time>2021-04-17T14:56:53Z</time>
      </trkpt>
      <trkpt lat="-25.4975310" lon="-49.0295980">
        <ele>965.7</ele>
        <time>2021-04-17T14:57:00Z</time>
      </trkpt>
      <trkpt lat="-25.4974400" lon="-49.0296880">
        <ele>966.1</ele>
        <time>2021-04-17T14:57:06Z</time>
      </trkpt>
      <trkpt lat="-25.4974170" lon="-49.0296850">
        <ele>966.2</ele>
        <time>2021-04-17T14:57:07Z</time>
      </trkpt>
      <trkpt lat="-25.4972990" lon="-49.0297760">
        <ele>966.7</ele>
        <time>2021-04-17T14:57:12Z</time>
      </trkpt>
      <trkpt lat="-25.4972360" lon="-49.0298480">
        <ele>967.0</ele>
        <time>2021-04-17T14:57:16Z</time>
      </trkpt>
      <trkpt lat="-25.4971740" lon="-49.0299130">
        <ele>967.3</ele>
        <time>2021-04-17T14:57:20Z</time>
      </trkpt>
      <trkpt lat="-25.4971560" lon="-49.0300100">
        <ele>967.5</ele>
        <time>2021-04-17T14:57:24Z</time>
      </trkpt>
      <trkpt lat="-25.4971190" lon="-49.0300710">
        <ele>967.6</ele>
        <time>2021-04-17T14:57:27Z</time>
      </trkpt>
      <trkpt lat="-25.4970110" lon="-49.0302450">
        <ele>967.7</ele>
        <time>2021-04-17T14:57:34Z</time>
      </trkpt>
      <trkpt lat="-25.4969490" lon="-49.0304440">
        <ele>967.9</ele>
        <time>2021-04-17T14:57:39Z</time>
      </trkpt>
      <trkpt lat="-25.4968670" lon="-49.0306360">
        <ele>968.3</ele>
        <time>2021-04-17T14:57:43Z</time>
      </trkpt>
      <trkpt lat="-25.4968330" lon="-49.0306750">
        <ele>968.4</ele>
        <time>2021-04-17T14:57:44Z</time>
      </trkpt>
      <trkpt lat="-25.4966790" lon="-49.0308130">
        <ele>969.5</ele>
        <time>2021-04-17T14:57:49Z</time>
      </trkpt>
      <trkpt lat="-25.4965720" lon="-49.0308920">
        <ele>970.4</ele>
        <time>2021-04-17T14:57:54Z</time>
      </trkpt>
      <trkpt lat="-25.4964150" lon="-49.0309910">
        <ele>971.3</ele>
        <time>2021-04-17T14:58:02Z</time>
      </trkpt>
      <trkpt lat="-25.4963130" lon="-49.0311390">
        <ele>971.4</ele>
        <time>2021-04-17T14:58:10Z</time>
      </trkpt>
      <trkpt lat="-25.4961940" lon="-49.0313010">
        <ele>971.0</ele>
        <time>2021-04-17T14:58:17Z</time>
      </trkpt>
      <trkpt lat="-25.4960050" lon="-49.0314670">
        <ele>970.1</ele>
        <time>2021-04-17T14:58:24Z</time>
      </trkpt>
      <trkpt lat="-25.4957750" lon="-49.0315780">
        <ele>969.4</ele>
        <time>2021-04-17T14:58:29Z</time>
      </trkpt>
      <trkpt lat="-25.4954870" lon="-49.0316340">
        <ele>969.1</ele>
        <time>2021-04-17T14:58:35Z</time>
      </trkpt>
      <trkpt lat="-25.4954010" lon="-49.0316260">
        <ele>969.1</ele>
        <time>2021-04-17T14:58:37Z</time>
      </trkpt>
      <trkpt lat="-25.4952610" lon="-49.0315820">
        <ele>969.3</ele>
        <time>2021-04-17T14:58:40Z</time>
      </trkpt>
      <trkpt lat="-25.4950790" lon="-49.0315330">
        <ele>969.4</ele>
        <time>2021-04-17T14:58:45Z</time>
      </trkpt>
      <trkpt lat="-25.4949180" lon="-49.0314970">
        <ele>969.1</ele>
        <time>2021-04-17T14:58:49Z</time>
      </trkpt>
      <trkpt lat="-25.4948740" lon="-49.0314880">
        <ele>969.0</ele>
        <time>2021-04-17T14:58:50Z</time>
      </trkpt>
      <trkpt lat="-25.4946980" lon="-49.0314620">
        <ele>968.7</ele>
        <time>2021-04-17T14:58:54Z</time>
      </trkpt>
      <trkpt lat="-25.4946560" lon="-49.0314550">
        <ele>968.6</ele>
        <time>2021-04-17T14:58:55Z</time>
      </trkpt>
      <trkpt lat="-25.4945720" lon="-49.0314350">
        <ele>968.6</ele>
        <time>2021-04-17T14:58:57Z</time>
      </trkpt>
      <trkpt lat="-25.4945270" lon="-49.0314280">
        <ele>968.5</ele>
        <time>2021-04-17T14:58:58Z</time>
      </trkpt>
      <trkpt lat="-25.4943470" lon="-49.0314190">
        <ele>968.5</ele>
        <time>2021-04-17T14:59:02Z</time>
      </trkpt>
      <trkpt lat="-25.4942050" lon="-49.0314310">
        <ele>968.5</ele>
        <time>2021-04-17T14:59:05Z</time>
      </trkpt>
      <trkpt lat="-25.4941320" lon="-49.0314780">
        <ele>968.5</ele>
        <time>2021-04-17T14:59:07Z</time>
      </trkpt>
      <trkpt lat="-25.4940960" lon="-49.0315320">
        <ele>968.5</ele>
        <time>2021-04-17T14:59:09Z</time>
      </trkpt>
      <trkpt lat="-25.4940850" lon="-49.0315610">
        <ele>968.5</ele>
        <time>2021-04-17T14:59:10Z</time>
      </trkpt>
      <trkpt lat="-25.4940210" lon="-49.0316770">
        <ele>968.6</ele>
        <time>2021-04-17T14:59:16Z</time>
      </trkpt>
      <trkpt lat="-25.4940140" lon="-49.0316890">
        <ele>968.6</ele>
        <time>2021-04-17T14:59:21Z</time>
      </trkpt>
      <trkpt lat="-25.4940120" lon="-49.0317130">
        <ele>968.5</ele>
        <time>2021-04-17T14:59:29Z</time>
      </trkpt>
      <trkpt lat="-25.4940080" lon="-49.0317280">
        <ele>968.5</ele>
        <time>2021-04-17T14:59:30Z</time>
      </trkpt>
      <trkpt lat="-25.4939820" lon="-49.0318530">
        <ele>968.4</ele>
        <time>2021-04-17T14:59:35Z</time>
      </trkpt>
      <trkpt lat="-25.4939370" lon="-49.0319670">
        <ele>968.2</ele>
        <time>2021-04-17T14:59:38Z</time>
      </trkpt>
      <trkpt lat="-25.4939150" lon="-49.0320530">
        <ele>968.1</ele>
        <time>2021-04-17T14:59:40Z</time>
      </trkpt>
      <trkpt lat="-25.4938440" lon="-49.0323340">
        <ele>968.0</ele>
        <time>2021-04-17T14:59:46Z</time>
      </trkpt>
      <trkpt lat="-25.4938110" lon="-49.0324720">
        <ele>968.1</ele>
        <time>2021-04-17T14:59:49Z</time>
      </trkpt>
      <trkpt lat="-25.4937550" lon="-49.0326800">
        <ele>968.3</ele>
        <time>2021-04-17T14:59:54Z</time>
      </trkpt>
      <trkpt lat="-25.4937240" lon="-49.0328090">
        <ele>968.4</ele>
        <time>2021-04-17T14:59:57Z</time>
      </trkpt>
      <trkpt lat="-25.4936930" lon="-49.0329460">
        <ele>968.7</ele>
        <time>2021-04-17T15:00:00Z</time>
      </trkpt>
      <trkpt lat="-25.4936050" lon="-49.0332000">
        <ele>969.5</ele>
        <time>2021-04-17T15:00:06Z</time>
      </trkpt>
      <trkpt lat="-25.4935730" lon="-49.0332760">
        <ele>969.8</ele>
        <time>2021-04-17T15:00:08Z</time>
      </trkpt>
      <trkpt lat="-25.4935320" lon="-49.0333800">
        <ele>969.9</ele>
        <time>2021-04-17T15:00:11Z</time>
      </trkpt>
      <trkpt lat="-25.4934930" lon="-49.0334600">
        <ele>969.9</ele>
        <time>2021-04-17T15:00:13Z</time>
      </trkpt>
      <trkpt lat="-25.4934360" lon="-49.0335740">
        <ele>969.8</ele>
        <time>2021-04-17T15:00:16Z</time>
      </trkpt>
      <trkpt lat="-25.4933730" lon="-49.0338220">
        <ele>969.6</ele>
        <time>2021-04-17T15:00:21Z</time>
      </trkpt>
      <trkpt lat="-25.4933470" lon="-49.0339580">
        <ele>969.4</ele>
        <time>2021-04-17T15:00:24Z</time>
      </trkpt>
      <trkpt lat="-25.4933220" lon="-49.0341990">
        <ele>969.1</ele>
        <time>2021-04-17T15:00:28Z</time>
      </trkpt>
      <trkpt lat="-25.4932890" lon="-49.0343880">
        <ele>968.8</ele>
        <time>2021-04-17T15:00:31Z</time>
      </trkpt>
      <trkpt lat="-25.4932290" lon="-49.0345490">
        <ele>968.7</ele>
        <time>2021-04-17T15:00:34Z</time>
      </trkpt>
      <trkpt lat="-25.4930830" lon="-49.0348030">
        <ele>968.7</ele>
        <time>2021-04-17T15:00:39Z</time>
      </trkpt>
      <trkpt lat="-25.4929660" lon="-49.0349210">
        <ele>968.8</ele>
        <time>2021-04-17T15:00:42Z</time>
      </trkpt>
      <trkpt lat="-25.4928830" lon="-49.0349800">
        <ele>968.7</ele>
        <time>2021-04-17T15:00:44Z</time>
      </trkpt>
      <trkpt lat="-25.4927090" lon="-49.0350660">
        <ele>968.3</ele>
        <time>2021-04-17T15:00:48Z</time>
      </trkpt>
      <trkpt lat="-25.4924500" lon="-49.0352010">
        <ele>967.4</ele>
        <time>2021-04-17T15:00:53Z</time>
      </trkpt>
      <trkpt lat="-25.4924090" lon="-49.0352460">
        <ele>967.2</ele>
        <time>2021-04-17T15:00:54Z</time>
      </trkpt>
      <trkpt lat="-25.4923720" lon="-49.0352990">
        <ele>966.9</ele>
        <time>2021-04-17T15:00:55Z</time>
      </trkpt>
      <trkpt lat="-25.4923290" lon="-49.0354200">
        <ele>966.2</ele>
        <time>2021-04-17T15:00:57Z</time>
      </trkpt>
      <trkpt lat="-25.4923220" lon="-49.0354850">
        <ele>965.8</ele>
        <time>2021-04-17T15:00:58Z</time>
      </trkpt>
      <trkpt lat="-25.4923260" lon="-49.0355580">
        <ele>965.3</ele>
        <time>2021-04-17T15:00:59Z</time>
      </trkpt>
      <trkpt lat="-25.4923320" lon="-49.0358070">
        <ele>963.8</ele>
        <time>2021-04-17T15:01:02Z</time>
      </trkpt>
      <trkpt lat="-25.4922370" lon="-49.0361520">
        <ele>962.6</ele>
        <time>2021-04-17T15:01:06Z</time>
      </trkpt>
      <trkpt lat="-25.4921990" lon="-49.0362230">
        <ele>962.4</ele>
        <time>2021-04-17T15:01:07Z</time>
      </trkpt>
      <trkpt lat="-25.4920300" lon="-49.0365030">
        <ele>962.0</ele>
        <time>2021-04-17T15:01:11Z</time>
      </trkpt>
      <trkpt lat="-25.4918100" lon="-49.0368040">
        <ele>961.9</ele>
        <time>2021-04-17T15:01:16Z</time>
      </trkpt>
      <trkpt lat="-25.4916810" lon="-49.0369850">
        <ele>961.7</ele>
        <time>2021-04-17T15:01:19Z</time>
      </trkpt>
      <trkpt lat="-25.4915790" lon="-49.0371690">
        <ele>961.0</ele>
        <time>2021-04-17T15:01:22Z</time>
      </trkpt>
      <trkpt lat="-25.4914330" lon="-49.0374900">
        <ele>960.0</ele>
        <time>2021-04-17T15:01:26Z</time>
      </trkpt>
      <trkpt lat="-25.4913770" lon="-49.0376590">
        <ele>959.8</ele>
        <time>2021-04-17T15:01:28Z</time>
      </trkpt>
      <trkpt lat="-25.4912830" lon="-49.0380480">
        <ele>959.9</ele>
        <time>2021-04-17T15:01:33Z</time>
      </trkpt>
      <trkpt lat="-25.4912420" lon="-49.0382180">
        <ele>959.5</ele>
        <time>2021-04-17T15:01:35Z</time>
      </trkpt>
      <trkpt lat="-25.4911170" lon="-49.0387560">
        <ele>956.1</ele>
        <time>2021-04-17T15:01:41Z</time>
      </trkpt>
      <trkpt lat="-25.4910670" lon="-49.0390630">
        <ele>953.9</ele>
        <time>2021-04-17T15:01:44Z</time>
      </trkpt>
      <trkpt lat="-25.4910560" lon="-49.0392710">
        <ele>952.3</ele>
        <time>2021-04-17T15:01:46Z</time>
      </trkpt>
      <trkpt lat="-25.4910440" lon="-49.0393830">
        <ele>951.4</ele>
        <time>2021-04-17T15:01:47Z</time>
      </trkpt>
      <trkpt lat="-25.4909720" lon="-49.0397270">
        <ele>948.0</ele>
        <time>2021-04-17T15:01:50Z</time>
      </trkpt>
      <trkpt lat="-25.4908760" lon="-49.0401050">
        <ele>944.3</ele>
        <time>2021-04-17T15:01:53Z</time>
      </trkpt>
      <trkpt lat="-25.4908060" lon="-49.0403640">
        <ele>942.2</ele>
        <time>2021-04-17T15:01:55Z</time>
      </trkpt>
      <trkpt lat="-25.4905810" lon="-49.0409590">
        <ele>939.3</ele>
        <time>2021-04-17T15:02:00Z</time>
      </trkpt>
      <trkpt lat="-25.4905130" lon="-49.0411910">
        <ele>938.8</ele>
        <time>2021-04-17T15:02:02Z</time>
      </trkpt>
      <trkpt lat="-25.4904900" lon="-49.0414330">
        <ele>938.5</ele>
        <time>2021-04-17T15:02:04Z</time>
      </trkpt>
      <trkpt lat="-25.4904750" lon="-49.0418760">
        <ele>938.1</ele>
        <time>2021-04-17T15:02:08Z</time>
      </trkpt>
      <trkpt lat="-25.4904650" lon="-49.0419820">
        <ele>938.1</ele>
        <time>2021-04-17T15:02:09Z</time>
      </trkpt>
      <trkpt lat="-25.4903910" lon="-49.0425460">
        <ele>938.7</ele>
        <time>2021-04-17T15:02:15Z</time>
      </trkpt>
      <trkpt lat="-25.4903980" lon="-49.0427250">
        <ele>939.3</ele>
        <time>2021-04-17T15:02:17Z</time>
      </trkpt>
      <trkpt lat="-25.4904160" lon="-49.0428860">
        <ele>940.1</ele>
        <time>2021-04-17T15:02:19Z</time>
      </trkpt>
      <trkpt lat="-25.4904290" lon="-49.0430280">
        <ele>940.8</ele>
        <time>2021-04-17T15:02:21Z</time>
      </trkpt>
      <trkpt lat="-25.4904250" lon="-49.0431480">
        <ele>941.7</ele>
        <time>2021-04-17T15:02:23Z</time>
      </trkpt>
      <trkpt lat="-25.4904020" lon="-49.0433460">
        <ele>943.2</ele>
        <time>2021-04-17T15:02:27Z</time>
      </trkpt>
      <trkpt lat="-25.4903930" lon="-49.0433870">
        <ele>943.6</ele>
        <time>2021-04-17T15:02:28Z</time>
      </trkpt>
      <trkpt lat="-25.4903060" lon="-49.0434950">
        <ele>944.6</ele>
        <time>2021-04-17T15:02:32Z</time>
      </trkpt>
      <trkpt lat="-25.4902850" lon="-49.0435130">
        <ele>944.8</ele>
        <time>2021-04-17T15:02:33Z</time>
      </trkpt>
      <trkpt lat="-25.4902440" lon="-49.0435440">
        <ele>945.2</ele>
        <time>2021-04-17T15:02:35Z</time>
      </trkpt>
      <trkpt lat="-25.4901350" lon="-49.0436120">
        <ele>946.1</ele>
        <time>2021-04-17T15:02:40Z</time>
      </trkpt>
      <trkpt lat="-25.4900310" lon="-49.0437110">
        <ele>947.1</ele>
        <time>2021-04-17T15:02:46Z</time>
      </trkpt>
      <trkpt lat="-25.4899940" lon="-49.0437590">
        <ele>947.4</ele>
        <time>2021-04-17T15:02:48Z</time>
      </trkpt>
      <trkpt lat="-25.4899460" lon="-49.0438560">
        <ele>948.1</ele>
        <time>2021-04-17T15:02:52Z</time>
      </trkpt>
      <trkpt lat="-25.4899400" lon="-49.0438810">
        <ele>948.2</ele>
        <time>2021-04-17T15:02:53Z</time>
      </trkpt>
      <trkpt lat="-25.4899020" lon="-49.0440800">
        <ele>949.0</ele>
        <time>2021-04-17T15:03:01Z</time>
      </trkpt>
      <trkpt lat="-25.4899170" lon="-49.0442560">
        <ele>949.3</ele>
        <time>2021-04-17T15:03:07Z</time>
      </trkpt>
      <trkpt lat="-25.4899410" lon="-49.0445110">
        <ele>949.6</ele>
        <time>2021-04-17T15:03:15Z</time>
      </trkpt>
      <trkpt lat="-25.4899360" lon="-49.0447920">
        <ele>949.6</ele>
        <time>2021-04-17T15:03:22Z</time>
      </trkpt>
      <trkpt lat="-25.4899540" lon="-49.0450310">
        <ele>949.3</ele>
        <time>2021-04-17T15:03:28Z</time>
      </trkpt>
      <trkpt lat="-25.4899480" lon="-49.0450820">
        <ele>949.3</ele>
        <time>2021-04-17T15:03:29Z</time>
      </trkpt>
      <trkpt lat="-25.4899250" lon="-49.0451760">
        <ele>949.1</ele>
        <time>2021-04-17T15:03:31Z</time>
      </trkpt>
      <trkpt lat="-25.4898740" lon="-49.0452610">
        <ele>949.0</ele>
        <time>2021-04-17T15:03:33Z</time>
      </trkpt>
      <trkpt lat="-25.4898420" lon="-49.0452990">
        <ele>948.9</ele>
        <time>2021-04-17T15:03:34Z</time>
      </trkpt>
      <trkpt lat="-25.4897680" lon="-49.0453680">
        <ele>949.1</ele>
        <time>2021-04-17T15:03:36Z</time>
      </trkpt>
      <trkpt lat="-25.4896740" lon="-49.0454270">
        <ele>949.1</ele>
        <time>2021-04-17T15:03:38Z</time>
      </trkpt>
      <trkpt lat="-25.4895900" lon="-49.0454630">
        <ele>949.2</ele>
        <time>2021-04-17T15:03:40Z</time>
      </trkpt>
      <trkpt lat="-25.4894800" lon="-49.0455120">
        <ele>949.2</ele>
        <time>2021-04-17T15:03:43Z</time>
      </trkpt>
      <trkpt lat="-25.4893970" lon="-49.0455490">
        <ele>949.2</ele>
        <time>2021-04-17T15:03:45Z</time>
      </trkpt>
      <trkpt lat="-25.4892570" lon="-49.0456890">
        <ele>948.6</ele>
        <time>2021-04-17T15:03:49Z</time>
      </trkpt>
      <trkpt lat="-25.4892210" lon="-49.0457390">
        <ele>948.2</ele>
        <time>2021-04-17T15:03:50Z</time>
      </trkpt>
      <trkpt lat="-25.4890810" lon="-49.0459260">
        <ele>946.7</ele>
        <time>2021-04-17T15:03:53Z</time>
      </trkpt>
      <trkpt lat="-25.4890030" lon="-49.0460350">
        <ele>946.2</ele>
        <time>2021-04-17T15:03:55Z</time>
      </trkpt>
      <trkpt lat="-25.4888870" lon="-49.0462300">
        <ele>945.6</ele>
        <time>2021-04-17T15:03:58Z</time>
      </trkpt>
      <trkpt lat="-25.4888490" lon="-49.0463690">
        <ele>945.3</ele>
        <time>2021-04-17T15:04:00Z</time>
      </trkpt>
      <trkpt lat="-25.4887960" lon="-49.0465710">
        <ele>945.1</ele>
        <time>2021-04-17T15:04:03Z</time>
      </trkpt>
      <trkpt lat="-25.4887510" lon="-49.0467670">
        <ele>945.0</ele>
        <time>2021-04-17T15:04:06Z</time>
      </trkpt>
      <trkpt lat="-25.4887340" lon="-49.0468260">
        <ele>945.1</ele>
        <time>2021-04-17T15:04:07Z</time>
      </trkpt>
      <trkpt lat="-25.4886420" lon="-49.0470740">
        <ele>945.2</ele>
        <time>2021-04-17T15:04:12Z</time>
      </trkpt>
      <trkpt lat="-25.4886210" lon="-49.0471160">
        <ele>945.2</ele>
        <time>2021-04-17T15:04:13Z</time>
      </trkpt>
      <trkpt lat="-25.4885810" lon="-49.0472000">
        <ele>945.4</ele>
        <time>2021-04-17T15:04:15Z</time>
      </trkpt>
      <trkpt lat="-25.4885250" lon="-49.0473850">
        <ele>946.0</ele>
        <time>2021-04-17T15:04:19Z</time>
      </trkpt>
      <trkpt lat="-25.4884790" lon="-49.0476080">
        <ele>946.9</ele>
        <time>2021-04-17T15:04:24Z</time>
      </trkpt>
      <trkpt lat="-25.4884560" lon="-49.0476900">
        <ele>947.0</ele>
        <time>2021-04-17T15:04:26Z</time>
      </trkpt>
      <trkpt lat="-25.4884280" lon="-49.0477860">
        <ele>946.9</ele>
        <time>2021-04-17T15:04:28Z</time>
      </trkpt>
      <trkpt lat="-25.4884360" lon="-49.0479660">
        <ele>946.5</ele>
        <time>2021-04-17T15:04:31Z</time>
      </trkpt>
      <trkpt lat="-25.4884580" lon="-49.0482690">
        <ele>946.0</ele>
        <time>2021-04-17T15:04:36Z</time>
      </trkpt>
      <trkpt lat="-25.4884690" lon="-49.0483500">
        <ele>945.9</ele>
        <time>2021-04-17T15:04:37Z</time>
      </trkpt>
      <trkpt lat="-25.4884920" lon="-49.0485450">
        <ele>945.7</ele>
        <time>2021-04-17T15:04:40Z</time>
      </trkpt>
      <trkpt lat="-25.4885100" lon="-49.0486710">
        <ele>945.6</ele>
        <time>2021-04-17T15:04:42Z</time>
      </trkpt>
      <trkpt lat="-25.4885160" lon="-49.0490580">
        <ele>945.8</ele>
        <time>2021-04-17T15:04:49Z</time>
      </trkpt>
      <trkpt lat="-25.4885170" lon="-49.0491130">
        <ele>945.9</ele>
        <time>2021-04-17T15:04:50Z</time>
      </trkpt>
      <trkpt lat="-25.4885000" lon="-49.0492640">
        <ele>946.1</ele>
        <time>2021-04-17T15:04:53Z</time>
      </trkpt>
      <trkpt lat="-25.4884650" lon="-49.0493810">
        <ele>946.4</ele>
        <time>2021-04-17T15:04:55Z</time>
      </trkpt>
      <trkpt lat="-25.4884310" lon="-49.0495030">
        <ele>946.6</ele>
        <time>2021-04-17T15:04:57Z</time>
      </trkpt>
      <trkpt lat="-25.4884100" lon="-49.0495520">
        <ele>946.7</ele>
        <time>2021-04-17T15:04:58Z</time>
      </trkpt>
      <trkpt lat="-25.4883300" lon="-49.0497470">
        <ele>946.5</ele>
        <time>2021-04-17T15:05:02Z</time>
      </trkpt>
      <trkpt lat="-25.4881990" lon="-49.0500790">
        <ele>944.5</ele>
        <time>2021-04-17T15:05:07Z</time>
      </trkpt>
      <trkpt lat="-25.4879930" lon="-49.0505850">
        <ele>943.0</ele>
        <time>2021-04-17T15:05:14Z</time>
      </trkpt>
      <trkpt lat="-25.4878500" lon="-49.0508960">
        <ele>943.2</ele>
        <time>2021-04-17T15:05:19Z</time>
      </trkpt>
      <trkpt lat="-25.4878050" lon="-49.0510190">
        <ele>943.2</ele>
        <time>2021-04-17T15:05:21Z</time>
      </trkpt>
      <trkpt lat="-25.4877990" lon="-49.0511230">
        <ele>943.1</ele>
        <time>2021-04-17T15:05:23Z</time>
      </trkpt>
      <trkpt lat="-25.4878040" lon="-49.0511950">
        <ele>942.9</ele>
        <time>2021-04-17T15:05:24Z</time>
      </trkpt>
      <trkpt lat="-25.4878530" lon="-49.0514180">
        <ele>942.5</ele>
        <time>2021-04-17T15:05:28Z</time>
      </trkpt>
      <trkpt lat="-25.4878720" lon="-49.0515740">
        <ele>942.2</ele>
        <time>2021-04-17T15:05:31Z</time>
      </trkpt>
      <trkpt lat="-25.4878760" lon="-49.0516620">
        <ele>941.9</ele>
        <time>2021-04-17T15:05:33Z</time>
      </trkpt>
      <trkpt lat="-25.4878800" lon="-49.0518450">
        <ele>941.3</ele>
        <time>2021-04-17T15:05:36Z</time>
      </trkpt>
      <trkpt lat="-25.4878990" lon="-49.0519650">
        <ele>940.9</ele>
        <time>2021-04-17T15:05:38Z</time>
      </trkpt>
      <trkpt lat="-25.4879620" lon="-49.0522590">
        <ele>939.6</ele>
        <time>2021-04-17T15:05:42Z</time>
      </trkpt>
      <trkpt lat="-25.4880930" lon="-49.0527130">
        <ele>938.5</ele>
        <time>2021-04-17T15:05:48Z</time>
      </trkpt>
      <trkpt lat="-25.4881720" lon="-49.0529890">
        <ele>938.1</ele>
        <time>2021-04-17T15:05:52Z</time>
      </trkpt>
      <trkpt lat="-25.4882040" lon="-49.0531370">
        <ele>937.9</ele>
        <time>2021-04-17T15:05:54Z</time>
      </trkpt>
      <trkpt lat="-25.4883260" lon="-49.0535910">
        <ele>937.5</ele>
        <time>2021-04-17T15:06:01Z</time>
      </trkpt>
      <trkpt lat="-25.4883820" lon="-49.0537730">
        <ele>936.7</ele>
        <time>2021-04-17T15:06:04Z</time>
      </trkpt>
      <trkpt lat="-25.4883880" lon="-49.0539120">
        <ele>936.0</ele>
        <time>2021-04-17T15:06:06Z</time>
      </trkpt>
      <trkpt lat="-25.4884010" lon="-49.0543420">
        <ele>933.3</ele>
        <time>2021-04-17T15:06:11Z</time>
      </trkpt>
      <trkpt lat="-25.4884440" lon="-49.0549040">
        <ele>931.3</ele>
        <time>2021-04-17T15:06:17Z</time>
      </trkpt>
      <trkpt lat="-25.4884260" lon="-49.0551810">
        <ele>931.0</ele>
        <time>2021-04-17T15:06:20Z</time>
      </trkpt>
      <trkpt lat="-25.4884110" lon="-49.0553570">
        <ele>930.9</ele>
        <time>2021-04-17T15:06:22Z</time>
      </trkpt>
      <trkpt lat="-25.4883740" lon="-49.0558630">
        <ele>930.8</ele>
        <time>2021-04-17T15:06:28Z</time>
      </trkpt>
      <trkpt lat="-25.4884170" lon="-49.0562020">
        <ele>930.9</ele>
        <time>2021-04-17T15:06:33Z</time>
      </trkpt>
      <trkpt lat="-25.4884320" lon="-49.0562500">
        <ele>930.9</ele>
        <time>2021-04-17T15:06:34Z</time>
      </trkpt>
      <trkpt lat="-25.4884650" lon="-49.0563740">
        <ele>930.8</ele>
        <time>2021-04-17T15:06:36Z</time>
      </trkpt>
      <trkpt lat="-25.4884810" lon="-49.0564950">
        <ele>930.4</ele>
        <time>2021-04-17T15:06:38Z</time>
      </trkpt>
      <trkpt lat="-25.4885040" lon="-49.0567470">
        <ele>928.8</ele>
        <time>2021-04-17T15:06:41Z</time>
      </trkpt>
      <trkpt lat="-25.4885320" lon="-49.0569240">
        <ele>927.6</ele>
        <time>2021-04-17T15:06:43Z</time>
      </trkpt>
      <trkpt lat="-25.4885900" lon="-49.0573330">
        <ele>925.2</ele>
        <time>2021-04-17T15:06:47Z</time>
      </trkpt>
      <trkpt lat="-25.4886530" lon="-49.0579090">
        <ele>920.8</ele>
        <time>2021-04-17T15:06:52Z</time>
      </trkpt>
      <trkpt lat="-25.4886970" lon="-49.0585850">
        <ele>918.6</ele>
        <time>2021-04-17T15:06:57Z</time>
      </trkpt>
      <trkpt lat="-25.4887240" lon="-49.0589770">
        <ele>918.1</ele>
        <time>2021-04-17T15:07:00Z</time>
      </trkpt>
      <trkpt lat="-25.4887540" lon="-49.0593430">
        <ele>918.3</ele>
        <time>2021-04-17T15:07:03Z</time>
      </trkpt>
      <trkpt lat="-25.4887720" lon="-49.0595730">
        <ele>919.1</ele>
        <time>2021-04-17T15:07:05Z</time>
      </trkpt>
      <trkpt lat="-25.4887740" lon="-49.0599350">
        <ele>921.5</ele>
        <time>2021-04-17T15:07:09Z</time>
      </trkpt>
      <trkpt lat="-25.4888200" lon="-49.0600470">
        <ele>922.0</ele>
        <time>2021-04-17T15:07:11Z</time>
      </trkpt>
      <trkpt lat="-25.4889380" lon="-49.0601320">
        <ele>922.1</ele>
        <time>2021-04-17T15:07:14Z</time>
      </trkpt>
      <trkpt lat="-25.4889740" lon="-49.0601520">
        <ele>922.0</ele>
        <time>2021-04-17T15:07:15Z</time>
      </trkpt>
      <trkpt lat="-25.4891960" lon="-49.0603030">
        <ele>921.7</ele>
        <time>2021-04-17T15:07:19Z</time>
      </trkpt>
      <trkpt lat="-25.4893050" lon="-49.0603770">
        <ele>921.6</ele>
        <time>2021-04-17T15:07:21Z</time>
      </trkpt>
      <trkpt lat="-25.4894560" lon="-49.0605070">
        <ele>921.7</ele>
        <time>2021-04-17T15:07:24Z</time>
      </trkpt>
      <trkpt lat="-25.4896870" lon="-49.0607320">
        <ele>921.8</ele>
        <time>2021-04-17T15:07:29Z</time>
      </trkpt>
      <trkpt lat="-25.4897630" lon="-49.0608330">
        <ele>922.0</ele>
        <time>2021-04-17T15:07:31Z</time>
      </trkpt>
      <trkpt lat="-25.4898910" lon="-49.0609900">
        <ele>922.6</ele>
        <time>2021-04-17T15:07:35Z</time>
      </trkpt>
      <trkpt lat="-25.4899130" lon="-49.0610190">
        <ele>922.6</ele>
        <time>2021-04-17T15:07:36Z</time>
      </trkpt>
      <trkpt lat="-25.4900010" lon="-49.0611880">
        <ele>922.6</ele>
        <time>2021-04-17T15:07:41Z</time>
      </trkpt>
      <trkpt lat="-25.4900710" lon="-49.0613050">
        <ele>922.4</ele>
        <time>2021-04-17T15:07:44Z</time>
      </trkpt>
      <trkpt lat="-25.4901210" lon="-49.0614220">
        <ele>922.0</ele>
        <time>2021-04-17T15:07:46Z</time>
      </trkpt>
      <trkpt lat="-25.4901340" lon="-49.0614700">
        <ele>921.9</ele>
        <time>2021-04-17T15:07:47Z</time>
      </trkpt>
      <trkpt lat="-25.4901520" lon="-49.0615820">
        <ele>921.5</ele>
        <time>2021-04-17T15:07:49Z</time>
      </trkpt>
      <trkpt lat="-25.4901490" lon="-49.0617080">
        <ele>921.0</ele>
        <time>2021-04-17T15:07:51Z</time>
      </trkpt>
      <trkpt lat="-25.4901480" lon="-49.0619590">
        <ele>919.7</ele>
        <time>2021-04-17T15:07:55Z</time>
      </trkpt>
      <trkpt lat="-25.4901600" lon="-49.0621020">
        <ele>918.7</ele>
        <time>2021-04-17T15:07:57Z</time>
      </trkpt>
      <trkpt lat="-25.4902470" lon="-49.0625750">
        <ele>916.0</ele>
        <time>2021-04-17T15:08:03Z</time>
      </trkpt>
      <trkpt lat="-25.4902950" lon="-49.0628160">
        <ele>915.1</ele>
        <time>2021-04-17T15:08:06Z</time>
      </trkpt>
      <trkpt lat="-25.4903650" lon="-49.0631580">
        <ele>914.1</ele>
        <time>2021-04-17T15:08:10Z</time>
      </trkpt>
      <trkpt lat="-25.4903680" lon="-49.0637310">
        <ele>913.7</ele>
        <time>2021-04-17T15:08:17Z</time>
      </trkpt>
      <trkpt lat="-25.4903590" lon="-49.0641140">
        <ele>913.7</ele>
        <time>2021-04-17T15:08:22Z</time>
      </trkpt>
      <trkpt lat="-25.4903610" lon="-49.0642640">
        <ele>913.8</ele>
        <time>2021-04-17T15:08:24Z</time>
      </trkpt>
      <trkpt lat="-25.4903650" lon="-49.0644150">
        <ele>913.9</ele>
        <time>2021-04-17T15:08:26Z</time>
      </trkpt>
      <trkpt lat="-25.4903750" lon="-49.0645630">
        <ele>914.2</ele>
        <time>2021-04-17T15:08:28Z</time>
      </trkpt>
      <trkpt lat="-25.4904010" lon="-49.0647580">
        <ele>915.1</ele>
        <time>2021-04-17T15:08:31Z</time>
      </trkpt>
      <trkpt lat="-25.4904140" lon="-49.0648070">
        <ele>915.4</ele>
        <time>2021-04-17T15:08:32Z</time>
      </trkpt>
      <trkpt lat="-25.4904600" lon="-49.0649870">
        <ele>916.6</ele>
        <time>2021-04-17T15:08:36Z</time>
      </trkpt>
      <trkpt lat="-25.4905120" lon="-49.0651810">
        <ele>917.8</ele>
        <time>2021-04-17T15:08:41Z</time>
      </trkpt>
      <trkpt lat="-25.4905880" lon="-49.0653930">
        <ele>918.6</ele>
        <time>2021-04-17T15:08:45Z</time>
      </trkpt>
      <trkpt lat="-25.4905970" lon="-49.0654480">
        <ele>918.7</ele>
        <time>2021-04-17T15:08:46Z</time>
      </trkpt>
      <trkpt lat="-25.4906600" lon="-49.0657540">
        <ele>918.6</ele>
        <time>2021-04-17T15:08:51Z</time>
      </trkpt>
      <trkpt lat="-25.4906720" lon="-49.0659550">
        <ele>918.2</ele>
        <time>2021-04-17T15:08:54Z</time>
      </trkpt>
      <trkpt lat="-25.4907870" lon="-49.0662860">
        <ele>917.6</ele>
        <time>2021-04-17T15:08:59Z</time>
      </trkpt>
      <trkpt lat="-25.4908970" lon="-49.0667160">
        <ele>917.1</ele>
        <time>2021-04-17T15:09:06Z</time>
      </trkpt>
      <trkpt lat="-25.4910280" lon="-49.0671770">
        <ele>917.0</ele>
        <time>2021-04-17T15:09:14Z</time>
      </trkpt>
      <trkpt lat="-25.4912330" lon="-49.0677610">
        <ele>916.2</ele>
        <time>2021-04-17T15:09:24Z</time>
      </trkpt>
      <trkpt lat="-25.4914280" lon="-49.0681470">
        <ele>914.7</ele>
        <time>2021-04-17T15:09:30Z</time>
      </trkpt>
      <trkpt lat="-25.4914780" lon="-49.0682870">
        <ele>914.3</ele>
        <time>2021-04-17T15:09:32Z</time>
      </trkpt>
      <trkpt lat="-25.4915040" lon="-49.0684410">
        <ele>913.9</ele>
        <time>2021-04-17T15:09:34Z</time>
      </trkpt>
      <trkpt lat="-25.4915610" lon="-49.0689380">
        <ele>912.5</ele>
        <time>2021-04-17T15:09:40Z</time>
      </trkpt>
      <trkpt lat="-25.4915810" lon="-49.0690980">
        <ele>912.2</ele>
        <time>2021-04-17T15:09:42Z</time>
      </trkpt>
      <trkpt lat="-25.4916130" lon="-49.0693300">
        <ele>911.9</ele>
        <time>2021-04-17T15:09:45Z</time>
      </trkpt>
      <trkpt lat="-25.4916680" lon="-49.0698200">
        <ele>912.4</ele>
        <time>2021-04-17T15:09:51Z</time>
      </trkpt>
      <trkpt lat="-25.4916540" lon="-49.0700190">
        <ele>912.6</ele>
        <time>2021-04-17T15:09:54Z</time>
      </trkpt>
      <trkpt lat="-25.4916320" lon="-49.0700580">
        <ele>912.6</ele>
        <time>2021-04-17T15:09:55Z</time>
      </trkpt>
      <trkpt lat="-25.4915890" lon="-49.0701230">
        <ele>912.5</ele>
        <time>2021-04-17T15:09:56Z</time>
      </trkpt>
      <trkpt lat="-25.4914540" lon="-49.0702590">
        <ele>912.2</ele>
        <time>2021-04-17T15:09:59Z</time>
      </trkpt>
      <trkpt lat="-25.4910240" lon="-49.0706780">
        <ele>910.3</ele>
        <time>2021-04-17T15:10:07Z</time>
      </trkpt>
      <trkpt lat="-25.4905970" lon="-49.0711590">
        <ele>908.0</ele>
        <time>2021-04-17T15:10:15Z</time>
      </trkpt>
      <trkpt lat="-25.4904840" lon="-49.0712910">
        <ele>907.7</ele>
        <time>2021-04-17T15:10:17Z</time>
      </trkpt>
      <trkpt lat="-25.4901580" lon="-49.0717060">
        <ele>907.1</ele>
        <time>2021-04-17T15:10:23Z</time>
      </trkpt>
      <trkpt lat="-25.4898000" lon="-49.0721850">
        <ele>906.7</ele>
        <time>2021-04-17T15:10:30Z</time>
      </trkpt>
      <trkpt lat="-25.4894030" lon="-49.0726050">
        <ele>906.6</ele>
        <time>2021-04-17T15:10:37Z</time>
      </trkpt>
      <trkpt lat="-25.4890470" lon="-49.0729270">
        <ele>906.8</ele>
        <time>2021-04-17T15:10:43Z</time>
      </trkpt>
      <trkpt lat="-25.4889390" lon="-49.0730220">
        <ele>906.9</ele>
        <time>2021-04-17T15:10:45Z</time>
      </trkpt>
      <trkpt lat="-25.4886130" lon="-49.0733240">
        <ele>907.0</ele>
        <time>2021-04-17T15:10:51Z</time>
      </trkpt>
      <trkpt lat="-25.4885090" lon="-49.0734210">
        <ele>907.1</ele>
        <time>2021-04-17T15:10:53Z</time>
      </trkpt>
      <trkpt lat="-25.4881180" lon="-49.0737500">
        <ele>907.0</ele>
        <time>2021-04-17T15:11:00Z</time>
      </trkpt>
      <trkpt lat="-25.4880590" lon="-49.0737820">
        <ele>906.9</ele>
        <time>2021-04-17T15:11:01Z</time>
      </trkpt>
      <trkpt lat="-25.4878250" lon="-49.0739130">
        <ele>906.3</ele>
        <time>2021-04-17T15:11:05Z</time>
      </trkpt>
      <trkpt lat="-25.4874420" lon="-49.0740680">
        <ele>904.3</ele>
        <time>2021-04-17T15:11:10Z</time>
      </trkpt>
      <trkpt lat="-25.4869250" lon="-49.0742590">
        <ele>902.6</ele>
        <time>2021-04-17T15:11:16Z</time>
      </trkpt>
      <trkpt lat="-25.4868550" lon="-49.0742870">
        <ele>902.5</ele>
        <time>2021-04-17T15:11:17Z</time>
      </trkpt>
      <trkpt lat="-25.4862650" lon="-49.0745200">
        <ele>901.9</ele>
        <time>2021-04-17T15:11:24Z</time>
      </trkpt>
      <trkpt lat="-25.4860410" lon="-49.0746000">
        <ele>901.6</ele>
        <time>2021-04-17T15:11:27Z</time>
      </trkpt>
      <trkpt lat="-25.4854750" lon="-49.0748410">
        <ele>900.6</ele>
        <time>2021-04-17T15:11:34Z</time>
      </trkpt>
      <trkpt lat="-25.4849350" lon="-49.0750360">
        <ele>899.6</ele>
        <time>2021-04-17T15:11:41Z</time>
      </trkpt>
      <trkpt lat="-25.4848590" lon="-49.0750620">
        <ele>899.5</ele>
        <time>2021-04-17T15:11:42Z</time>
      </trkpt>
      <trkpt lat="-25.4845020" lon="-49.0751720">
        <ele>899.2</ele>
        <time>2021-04-17T15:11:47Z</time>
      </trkpt>
      <trkpt lat="-25.4841420" lon="-49.0752190">
        <ele>898.8</ele>
        <time>2021-04-17T15:11:52Z</time>
      </trkpt>
      <trkpt lat="-25.4837960" lon="-49.0752910">
        <ele>898.3</ele>
        <time>2021-04-17T15:11:57Z</time>
      </trkpt>
      <trkpt lat="-25.4837150" lon="-49.0753290">
        <ele>898.2</ele>
        <time>2021-04-17T15:11:58Z</time>
      </trkpt>
      <trkpt lat="-25.4836520" lon="-49.0753710">
        <ele>898.0</ele>
        <time>2021-04-17T15:11:59Z</time>
      </trkpt>
      <trkpt lat="-25.4835390" lon="-49.0754850">
        <ele>897.6</ele>
        <time>2021-04-17T15:12:01Z</time>
      </trkpt>
      <trkpt lat="-25.4834870" lon="-49.0755490">
        <ele>897.3</ele>
        <time>2021-04-17T15:12:02Z</time>
      </trkpt>
      <trkpt lat="-25.4833840" lon="-49.0756580">
        <ele>896.8</ele>
        <time>2021-04-17T15:12:04Z</time>
      </trkpt>
      <trkpt lat="-25.4832330" lon="-49.0757580">
        <ele>896.4</ele>
        <time>2021-04-17T15:12:06Z</time>
      </trkpt>
      <trkpt lat="-25.4826530" lon="-49.0759970">
        <ele>895.8</ele>
        <time>2021-04-17T15:12:14Z</time>
      </trkpt>
      <trkpt lat="-25.4825820" lon="-49.0760220">
        <ele>895.8</ele>
        <time>2021-04-17T15:12:15Z</time>
      </trkpt>
      <trkpt lat="-25.4820510" lon="-49.0762850">
        <ele>895.9</ele>
        <time>2021-04-17T15:12:23Z</time>
      </trkpt>
      <trkpt lat="-25.4816930" lon="-49.0765110">
        <ele>895.6</ele>
        <time>2021-04-17T15:12:29Z</time>
      </trkpt>
      <trkpt lat="-25.4813000" lon="-49.0767730">
        <ele>894.4</ele>
        <time>2021-04-17T15:12:35Z</time>
      </trkpt>
      <trkpt lat="-25.4810140" lon="-49.0770860">
        <ele>894.2</ele>
        <time>2021-04-17T15:12:40Z</time>
      </trkpt>
      <trkpt lat="-25.4806170" lon="-49.0775540">
        <ele>894.8</ele>
        <time>2021-04-17T15:12:48Z</time>
      </trkpt>
      <trkpt lat="-25.4803290" lon="-49.0778920">
        <ele>895.0</ele>
        <time>2021-04-17T15:12:54Z</time>
      </trkpt>
      <trkpt lat="-25.4801760" lon="-49.0780310">
        <ele>895.1</ele>
        <time>2021-04-17T15:12:57Z</time>
      </trkpt>
      <trkpt lat="-25.4801220" lon="-49.0780640">
        <ele>895.1</ele>
        <time>2021-04-17T15:12:58Z</time>
      </trkpt>
      <trkpt lat="-25.4800630" lon="-49.0780910">
        <ele>895.1</ele>
        <time>2021-04-17T15:12:59Z</time>
      </trkpt>
      <trkpt lat="-25.4799370" lon="-49.0781280">
        <ele>895.1</ele>
        <time>2021-04-17T15:13:01Z</time>
      </trkpt>
      <trkpt lat="-25.4798740" lon="-49.0781330">
        <ele>895.1</ele>
        <time>2021-04-17T15:13:02Z</time>
      </trkpt>
      <trkpt lat="-25.4798110" lon="-49.0781260">
        <ele>895.1</ele>
        <time>2021-04-17T15:13:03Z</time>
      </trkpt>
      <trkpt lat="-25.4796900" lon="-49.0780770">
        <ele>895.1</ele>
        <time>2021-04-17T15:13:05Z</time>
      </trkpt>
      <trkpt lat="-25.4795920" lon="-49.0780060">
        <ele>895.1</ele>
        <time>2021-04-17T15:13:07Z</time>
      </trkpt>
      <trkpt lat="-25.4795070" lon="-49.0779040">
        <ele>895.2</ele>
        <time>2021-04-17T15:13:09Z</time>
      </trkpt>
      <trkpt lat="-25.4793680" lon="-49.0776850">
        <ele>895.9</ele>
        <time>2021-04-17T15:13:13Z</time>
      </trkpt>
      <trkpt lat="-25.4793190" lon="-49.0775860">
        <ele>896.5</ele>
        <time>2021-04-17T15:13:15Z</time>
      </trkpt>
      <trkpt lat="-25.4792400" lon="-49.0774180">
        <ele>897.8</ele>
        <time>2021-04-17T15:13:19Z</time>
      </trkpt>
      <trkpt lat="-25.4791150" lon="-49.0772470">
        <ele>899.5</ele>
        <time>2021-04-17T15:13:24Z</time>
      </trkpt>
      <trkpt lat="-25.4790210" lon="-49.0771400">
        <ele>900.7</ele>
        <time>2021-04-17T15:13:28Z</time>
      </trkpt>
      <trkpt lat="-25.4788740" lon="-49.0770210">
        <ele>902.1</ele>
        <time>2021-04-17T15:13:34Z</time>
      </trkpt>
      <trkpt lat="-25.4787190" lon="-49.0769210">
        <ele>902.6</ele>
        <time>2021-04-17T15:13:40Z</time>
      </trkpt>
      <trkpt lat="-25.4785060" lon="-49.0767890">
        <ele>902.6</ele>
        <time>2021-04-17T15:13:47Z</time>
      </trkpt>
      <trkpt lat="-25.4781960" lon="-49.0767660">
        <ele>902.8</ele>
        <time>2021-04-17T15:13:56Z</time>
      </trkpt>
      <trkpt lat="-25.4778640" lon="-49.0767630">
        <ele>903.3</ele>
        <time>2021-04-17T15:14:05Z</time>
      </trkpt>
      <trkpt lat="-25.4775670" lon="-49.0767800">
        <ele>904.6</ele>
        <time>2021-04-17T15:14:14Z</time>
      </trkpt>
      <trkpt lat="-25.4775330" lon="-49.0767860">
        <ele>904.8</ele>
        <time>2021-04-17T15:14:15Z</time>
      </trkpt>
      <trkpt lat="-25.4773260" lon="-49.0768830">
        <ele>906.4</ele>
        <time>2021-04-17T15:14:22Z</time>
      </trkpt>
      <trkpt lat="-25.4772180" lon="-49.0770440">
        <ele>907.4</ele>
        <time>2021-04-17T15:14:28Z</time>
      </trkpt>
      <trkpt lat="-25.4770550" lon="-49.0771850">
        <ele>908.1</ele>
        <time>2021-04-17T15:14:35Z</time>
      </trkpt>
      <trkpt lat="-25.4768290" lon="-49.0772950">
        <ele>908.8</ele>
        <time>2021-04-17T15:14:45Z</time>
      </trkpt>
      <trkpt lat="-25.4767130" lon="-49.0773530">
        <ele>909.2</ele>
        <time>2021-04-17T15:14:52Z</time>
      </trkpt>
      <trkpt lat="-25.4766800" lon="-49.0773690">
        <ele>909.3</ele>
        <time>2021-04-17T15:14:55Z</time>
      </trkpt>
      <trkpt lat="-25.4766730" lon="-49.0773760">
        <ele>909.3</ele>
        <time>2021-04-17T15:14:57Z</time>
      </trkpt>
      <trkpt lat="-25.4766770" lon="-49.0773780">
        <ele>909.3</ele>
        <time>2021-04-17T15:15:03Z</time>
      </trkpt>
      <trkpt lat="-25.4766770" lon="-49.0773780">
        <ele>909.3</ele>
        <time>2021-04-17T15:15:04Z</time>
      </trkpt>
      <trkpt lat="-25.4766770" lon="-49.0773780">
        <ele>909.3</ele>
        <time>2021-04-17T15:15:10Z</time>
      </trkpt>
      <trkpt lat="-25.4766770" lon="-49.0773780">
        <ele>909.3</ele>
        <time>2021-04-17T15:15:14Z</time>
      </trkpt>
      <trkpt lat="-25.4766770" lon="-49.0773780">
        <ele>909.3</ele>
        <time>2021-04-17T15:15:34Z</time>
      </trkpt>
      <trkpt lat="-25.4766770" lon="-49.0773780">
        <ele>909.3</ele>
        <time>2021-04-17T15:15:36Z</time>
      </trkpt>
      <trkpt lat="-25.4766770" lon="-49.0773780">
        <ele>909.3</ele>
        <time>2021-04-17T15:15:38Z</time>
      </trkpt>
      <trkpt lat="-25.4766770" lon="-49.0773780">
        <ele>909.3</ele>
        <time>2021-04-17T15:15:40Z</time>
      </trkpt>
      <trkpt lat="-25.4766760" lon="-49.0773760">
        <ele>909.3</ele>
        <time>2021-04-17T15:15:42Z</time>
      </trkpt>
      <trkpt lat="-25.4766730" lon="-49.0773740">
        <ele>909.3</ele>
        <time>2021-04-17T15:15:44Z</time>
      </trkpt>
      <trkpt lat="-25.4766730" lon="-49.0773740">
        <ele>909.3</ele>
        <time>2021-04-17T15:15:47Z</time>
      </trkpt>
      <trkpt lat="-25.4766720" lon="-49.0773750">
        <ele>909.4</ele>
        <time>2021-04-17T15:15:50Z</time>
      </trkpt>
      <trkpt lat="-25.4766280" lon="-49.0774070">
        <ele>909.5</ele>
        <time>2021-04-17T15:15:53Z</time>
      </trkpt>
      <trkpt lat="-25.4764590" lon="-49.0775010">
        <ele>910.0</ele>
        <time>2021-04-17T15:16:00Z</time>
      </trkpt>
      <trkpt lat="-25.4764330" lon="-49.0775120">
        <ele>910.0</ele>
        <time>2021-04-17T15:16:01Z</time>
      </trkpt>
      <trkpt lat="-25.4762540" lon="-49.0776340">
        <ele>910.4</ele>
        <time>2021-04-17T15:16:07Z</time>
      </trkpt>
      <trkpt lat="-25.4760910" lon="-49.0777660">
        <ele>910.8</ele>
        <time>2021-04-17T15:16:12Z</time>
      </trkpt>
      <trkpt lat="-25.4760230" lon="-49.0778440">
        <ele>910.9</ele>
        <time>2021-04-17T15:16:15Z</time>
      </trkpt>
      <trkpt lat="-25.4759600" lon="-49.0779220">
        <ele>911.0</ele>
        <time>2021-04-17T15:16:18Z</time>
      </trkpt>
      <trkpt lat="-25.4758550" lon="-49.0780150">
        <ele>911.1</ele>
        <time>2021-04-17T15:16:22Z</time>
      </trkpt>
      <trkpt lat="-25.4758280" lon="-49.0780400">
        <ele>911.1</ele>
        <time>2021-04-17T15:16:23Z</time>
      </trkpt>
      <trkpt lat="-25.4756640" lon="-49.0781770">
        <ele>911.3</ele>
        <time>2021-04-17T15:16:30Z</time>
      </trkpt>
      <trkpt lat="-25.4754060" lon="-49.0784250">
        <ele>911.5</ele>
        <time>2021-04-17T15:16:39Z</time>
      </trkpt>
      <trkpt lat="-25.4751630" lon="-49.0786670">
        <ele>911.9</ele>
        <time>2021-04-17T15:16:47Z</time>
      </trkpt>
      <trkpt lat="-25.4749700" lon="-49.0788600">
        <ele>912.3</ele>
        <time>2021-04-17T15:16:53Z</time>
      </trkpt>
      <trkpt lat="-25.4748960" lon="-49.0789250">
        <ele>912.5</ele>
        <time>2021-04-17T15:16:55Z</time>
      </trkpt>
      <trkpt lat="-25.4748690" lon="-49.0789570">
        <ele>912.5</ele>
        <time>2021-04-17T15:16:56Z</time>
      </trkpt>
      <trkpt lat="-25.4746000" lon="-49.0792430">
        <ele>912.6</ele>
        <time>2021-04-17T15:17:05Z</time>
      </trkpt>
      <trkpt lat="-25.4744820" lon="-49.0793820">
        <ele>912.3</ele>
        <time>2021-04-17T15:17:09Z</time>
      </trkpt>
      <trkpt lat="-25.4744090" lon="-49.0795070">
        <ele>911.9</ele>
        <time>2021-04-17T15:17:12Z</time>
      </trkpt>
      <trkpt lat="-25.4742450" lon="-49.0798360">
        <ele>911.1</ele>
        <time>2021-04-17T15:17:18Z</time>
      </trkpt>
      <trkpt lat="-25.4740780" lon="-49.0802620">
        <ele>910.3</ele>
        <time>2021-04-17T15:17:26Z</time>
      </trkpt>
      <trkpt lat="-25.4739370" lon="-49.0805450">
        <ele>910.0</ele>
        <time>2021-04-17T15:17:31Z</time>
      </trkpt>
      <trkpt lat="-25.4738970" lon="-49.0805940">
        <ele>909.9</ele>
        <time>2021-04-17T15:17:32Z</time>
      </trkpt>
      <trkpt lat="-25.4738490" lon="-49.0806400">
        <ele>909.8</ele>
        <time>2021-04-17T15:17:33Z</time>
      </trkpt>
      <trkpt lat="-25.4737560" lon="-49.0806980">
        <ele>909.8</ele>
        <time>2021-04-17T15:17:35Z</time>
      </trkpt>
      <trkpt lat="-25.4736910" lon="-49.0807340">
        <ele>909.7</ele>
        <time>2021-04-17T15:17:36Z</time>
      </trkpt>
      <trkpt lat="-25.4734720" lon="-49.0808350">
        <ele>909.5</ele>
        <time>2021-04-17T15:17:40Z</time>
      </trkpt>
      <trkpt lat="-25.4733510" lon="-49.0808690">
        <ele>909.4</ele>
        <time>2021-04-17T15:17:42Z</time>
      </trkpt>
      <trkpt lat="-25.4730000" lon="-49.0810280">
        <ele>909.4</ele>
        <time>2021-04-17T15:17:48Z</time>
      </trkpt>
      <trkpt lat="-25.4726710" lon="-49.0811960">
        <ele>909.5</ele>
        <time>2021-04-17T15:17:54Z</time>
      </trkpt>
      <trkpt lat="-25.4721560" lon="-49.0814390">
        <ele>909.5</ele>
        <time>2021-04-17T15:18:03Z</time>
      </trkpt>
      <trkpt lat="-25.4720850" lon="-49.0814640">
        <ele>909.5</ele>
        <time>2021-04-17T15:18:04Z</time>
      </trkpt>
      <trkpt lat="-25.4718670" lon="-49.0815310">
        <ele>909.5</ele>
        <time>2021-04-17T15:18:08Z</time>
      </trkpt>
      <trkpt lat="-25.4717130" lon="-49.0815750">
        <ele>909.3</ele>
        <time>2021-04-17T15:18:11Z</time>
      </trkpt>
      <trkpt lat="-25.4713900" lon="-49.0816720">
        <ele>908.8</ele>
        <time>2021-04-17T15:18:18Z</time>
      </trkpt>
      <trkpt lat="-25.4712510" lon="-49.0817170">
        <ele>908.5</ele>
        <time>2021-04-17T15:18:21Z</time>
      </trkpt>
      <trkpt lat="-25.4710330" lon="-49.0818070">
        <ele>907.9</ele>
        <time>2021-04-17T15:18:25Z</time>
      </trkpt>
      <trkpt lat="-25.4706020" lon="-49.0819660">
        <ele>906.7</ele>
        <time>2021-04-17T15:18:32Z</time>
      </trkpt>
      <trkpt lat="-25.4700690" lon="-49.0821390">
        <ele>906.0</ele>
        <time>2021-04-17T15:18:41Z</time>
      </trkpt>
      <trkpt lat="-25.4700020" lon="-49.0821640">
        <ele>906.0</ele>
        <time>2021-04-17T15:18:42Z</time>
      </trkpt>
      <trkpt lat="-25.4698470" lon="-49.0822320">
        <ele>905.9</ele>
        <time>2021-04-17T15:18:45Z</time>
      </trkpt>
      <trkpt lat="-25.4694990" lon="-49.0823670">
        <ele>905.7</ele>
        <time>2021-04-17T15:18:51Z</time>
      </trkpt>
      <trkpt lat="-25.4692700" lon="-49.0824210">
        <ele>905.5</ele>
        <time>2021-04-17T15:18:56Z</time>
      </trkpt>
      <trkpt lat="-25.4692350" lon="-49.0824170">
        <ele>905.5</ele>
        <time>2021-04-17T15:18:59Z</time>
      </trkpt>
      <trkpt lat="-25.4692350" lon="-49.0824170">
        <ele>905.5</ele>
        <time>2021-04-17T15:19:03Z</time>
      </trkpt>
      <trkpt lat="-25.4692350" lon="-49.0824170">
        <ele>905.5</ele>
        <time>2021-04-17T15:19:09Z</time>
      </trkpt>
      <trkpt lat="-25.4692350" lon="-49.0824170">
        <ele>905.5</ele>
        <time>2021-04-17T15:19:19Z</time>
      </trkpt>
      <trkpt lat="-25.4692350" lon="-49.0824170">
        <ele>905.5</ele>
        <time>2021-04-17T15:19:27Z</time>
      </trkpt>
      <trkpt lat="-25.4692350" lon="-49.0824170">
        <ele>905.5</ele>
        <time>2021-04-17T15:19:43Z</time>
      </trkpt>
      <trkpt lat="-25.4692350" lon="-49.0824170">
        <ele>905.5</ele>
        <time>2021-04-17T15:19:49Z</time>
      </trkpt>
      <trkpt lat="-25.4692350" lon="-49.0824170">
        <ele>905.5</ele>
        <time>2021-04-17T15:19:54Z</time>
      </trkpt>
      <trkpt lat="-25.4692330" lon="-49.0824180">
        <ele>905.5</ele>
        <time>2021-04-17T15:19:58Z</time>
      </trkpt>
      <trkpt lat="-25.4691560" lon="-49.0824350">
        <ele>905.3</ele>
        <time>2021-04-17T15:20:01Z</time>
      </trkpt>
      <trkpt lat="-25.4689220" lon="-49.0824580">
        <ele>904.6</ele>
        <time>2021-04-17T15:20:06Z</time>
      </trkpt>
      <trkpt lat="-25.4684250" lon="-49.0824920">
        <ele>903.7</ele>
        <time>2021-04-17T15:20:15Z</time>
      </trkpt>
      <trkpt lat="-25.4678650" lon="-49.0825330">
        <ele>903.2</ele>
        <time>2021-04-17T15:20:25Z</time>
      </trkpt>
      <trkpt lat="-25.4678060" lon="-49.0825390">
        <ele>903.1</ele>
        <time>2021-04-17T15:20:26Z</time>
      </trkpt>
      <trkpt lat="-25.4675960" lon="-49.0825650">
        <ele>903.0</ele>
        <time>2021-04-17T15:20:30Z</time>
      </trkpt>
      <trkpt lat="-25.4674300" lon="-49.0825790">
        <ele>902.7</ele>
        <time>2021-04-17T15:20:33Z</time>
      </trkpt>
      <trkpt lat="-25.4673150" lon="-49.0825930">
        <ele>902.2</ele>
        <time>2021-04-17T15:20:35Z</time>
      </trkpt>
      <trkpt lat="-25.4671970" lon="-49.0826040">
        <ele>901.8</ele>
        <time>2021-04-17T15:20:37Z</time>
      </trkpt>
      <trkpt lat="-25.4670100" lon="-49.0826230">
        <ele>901.3</ele>
        <time>2021-04-17T15:20:40Z</time>
      </trkpt>
      <trkpt lat="-25.4668190" lon="-49.0826440">
        <ele>901.0</ele>
        <time>2021-04-17T15:20:43Z</time>
      </trkpt>
      <trkpt lat="-25.4662390" lon="-49.0827360">
        <ele>900.4</ele>
        <time>2021-04-17T15:20:52Z</time>
      </trkpt>
      <trkpt lat="-25.4661020" lon="-49.0827540">
        <ele>900.3</ele>
        <time>2021-04-17T15:20:54Z</time>
      </trkpt>
      <trkpt lat="-25.4655990" lon="-49.0827940">
        <ele>899.6</ele>
        <time>2021-04-17T15:21:02Z</time>
      </trkpt>
      <trkpt lat="-25.4651910" lon="-49.0827940">
        <ele>899.0</ele>
        <time>2021-04-17T15:21:08Z</time>
      </trkpt>
      <trkpt lat="-25.4647210" lon="-49.0828150">
        <ele>898.2</ele>
        <time>2021-04-17T15:21:15Z</time>
      </trkpt>
      <trkpt lat="-25.4643060" lon="-49.0828540">
        <ele>897.9</ele>
        <time>2021-04-17T15:21:21Z</time>
      </trkpt>
      <trkpt lat="-25.4639290" lon="-49.0828970">
        <ele>897.6</ele>
        <time>2021-04-17T15:21:27Z</time>
      </trkpt>
      <trkpt lat="-25.4633430" lon="-49.0829410">
        <ele>897.5</ele>
        <time>2021-04-17T15:21:36Z</time>
      </trkpt>
      <trkpt lat="-25.4631530" lon="-49.0829520">
        <ele>897.5</ele>
        <time>2021-04-17T15:21:40Z</time>
      </trkpt>
      <trkpt lat="-25.4631160" lon="-49.0829460">
        <ele>897.4</ele>
        <time>2021-04-17T15:21:41Z</time>
      </trkpt>
      <trkpt lat="-25.4627550" lon="-49.0828790">
        <ele>896.2</ele>
        <time>2021-04-17T15:21:48Z</time>
      </trkpt>
      <trkpt lat="-25.4624330" lon="-49.0828330">
        <ele>895.1</ele>
        <time>2021-04-17T15:21:53Z</time>
      </trkpt>
      <trkpt lat="-25.4622160" lon="-49.0827880">
        <ele>894.3</ele>
        <time>2021-04-17T15:21:56Z</time>
      </trkpt>
      <trkpt lat="-25.4619230" lon="-49.0827080">
        <ele>893.7</ele>
        <time>2021-04-17T15:22:00Z</time>
      </trkpt>
      <trkpt lat="-25.4617140" lon="-49.0826450">
        <ele>893.5</ele>
        <time>2021-04-17T15:22:03Z</time>
      </trkpt>
      <trkpt lat="-25.4615820" lon="-49.0826030">
        <ele>893.5</ele>
        <time>2021-04-17T15:22:05Z</time>
      </trkpt>
      <trkpt lat="-25.4613850" lon="-49.0825390">
        <ele>893.4</ele>
        <time>2021-04-17T15:22:08Z</time>
      </trkpt>
      <trkpt lat="-25.4611800" lon="-49.0824660">
        <ele>893.3</ele>
        <time>2021-04-17T15:22:11Z</time>
      </trkpt>
      <trkpt lat="-25.4606620" lon="-49.0822900">
        <ele>893.3</ele>
        <time>2021-04-17T15:22:19Z</time>
      </trkpt>
      <trkpt lat="-25.4605470" lon="-49.0822660">
        <ele>893.5</ele>
        <time>2021-04-17T15:22:21Z</time>
      </trkpt>
      <trkpt lat="-25.4604110" lon="-49.0822530">
        <ele>893.7</ele>
        <time>2021-04-17T15:22:23Z</time>
      </trkpt>
      <trkpt lat="-25.4603060" lon="-49.0822790">
        <ele>894.0</ele>
        <time>2021-04-17T15:22:25Z</time>
      </trkpt>
      <trkpt lat="-25.4601470" lon="-49.0823750">
        <ele>894.6</ele>
        <time>2021-04-17T15:22:29Z</time>
      </trkpt>
      <trkpt lat="-25.4601180" lon="-49.0824050">
        <ele>894.7</ele>
        <time>2021-04-17T15:22:30Z</time>
      </trkpt>
      <trkpt lat="-25.4600950" lon="-49.0824400">
        <ele>894.8</ele>
        <time>2021-04-17T15:22:31Z</time>
      </trkpt>
      <trkpt lat="-25.4600750" lon="-49.0825220">
        <ele>894.7</ele>
        <time>2021-04-17T15:22:33Z</time>
      </trkpt>
      <trkpt lat="-25.4600800" lon="-49.0825650">
        <ele>894.5</ele>
        <time>2021-04-17T15:22:34Z</time>
      </trkpt>
      <trkpt lat="-25.4600880" lon="-49.0826080">
        <ele>894.4</ele>
        <time>2021-04-17T15:22:35Z</time>
      </trkpt>
      <trkpt lat="-25.4601150" lon="-49.0827010">
        <ele>894.0</ele>
        <time>2021-04-17T15:22:37Z</time>
      </trkpt>
      <trkpt lat="-25.4601480" lon="-49.0828030">
        <ele>893.7</ele>
        <time>2021-04-17T15:22:39Z</time>
      </trkpt>
      <trkpt lat="-25.4602710" lon="-49.0832210">
        <ele>892.5</ele>
        <time>2021-04-17T15:22:45Z</time>
      </trkpt>
      <trkpt lat="-25.4603760" lon="-49.0835450">
        <ele>892.0</ele>
        <time>2021-04-17T15:22:49Z</time>
      </trkpt>
      <trkpt lat="-25.4605190" lon="-49.0840030">
        <ele>892.1</ele>
        <time>2021-04-17T15:22:55Z</time>
      </trkpt>
      <trkpt lat="-25.4607070" lon="-49.0846250">
        <ele>893.3</ele>
        <time>2021-04-17T15:23:04Z</time>
      </trkpt>
      <trkpt lat="-25.4607950" lon="-49.0849470">
        <ele>894.0</ele>
        <time>2021-04-17T15:23:09Z</time>
      </trkpt>
      <trkpt lat="-25.4608510" lon="-49.0851330">
        <ele>894.4</ele>
        <time>2021-04-17T15:23:12Z</time>
      </trkpt>
      <trkpt lat="-25.4609530" lon="-49.0855440">
        <ele>895.3</ele>
        <time>2021-04-17T15:23:19Z</time>
      </trkpt>
      <trkpt lat="-25.4609890" lon="-49.0856530">
        <ele>895.5</ele>
        <time>2021-04-17T15:23:21Z</time>
      </trkpt>
      <trkpt lat="-25.4610840" lon="-49.0858820">
        <ele>896.3</ele>
        <time>2021-04-17T15:23:26Z</time>
      </trkpt>
      <trkpt lat="-25.4610890" lon="-49.0859260">
        <ele>896.4</ele>
        <time>2021-04-17T15:23:27Z</time>
      </trkpt>
      <trkpt lat="-25.4610910" lon="-49.0860130">
        <ele>896.7</ele>
        <time>2021-04-17T15:23:29Z</time>
      </trkpt>
      <trkpt lat="-25.4611240" lon="-49.0861290">
        <ele>897.1</ele>
        <time>2021-04-17T15:23:32Z</time>
      </trkpt>
      <trkpt lat="-25.4612720" lon="-49.0866410">
        <ele>898.5</ele>
        <time>2021-04-17T15:23:43Z</time>
      </trkpt>
      <trkpt lat="-25.4613570" lon="-49.0870380">
        <ele>899.5</ele>
        <time>2021-04-17T15:23:51Z</time>
      </trkpt>
      <trkpt lat="-25.4613800" lon="-49.0871320">
        <ele>899.7</ele>
        <time>2021-04-17T15:23:53Z</time>
      </trkpt>
      <trkpt lat="-25.4615190" lon="-49.0876110">
        <ele>900.9</ele>
        <time>2021-04-17T15:24:03Z</time>
      </trkpt>
      <trkpt lat="-25.4616240" lon="-49.0879990">
        <ele>901.9</ele>
        <time>2021-04-17T15:24:11Z</time>
      </trkpt>
      <trkpt lat="-25.4617030" lon="-49.0882580">
        <ele>902.5</ele>
        <time>2021-04-17T15:24:17Z</time>
      </trkpt>
      <trkpt lat="-25.4617180" lon="-49.0883410">
        <ele>902.8</ele>
        <time>2021-04-17T15:24:19Z</time>
      </trkpt>
      <trkpt lat="-25.4617900" lon="-49.0884520">
        <ele>903.1</ele>
        <time>2021-04-17T15:24:23Z</time>
      </trkpt>
      <trkpt lat="-25.4618030" lon="-49.0884840">
        <ele>903.1</ele>
        <time>2021-04-17T15:24:24Z</time>
      </trkpt>
      <trkpt lat="-25.4618070" lon="-49.0885620">
        <ele>903.3</ele>
        <time>2021-04-17T15:24:26Z</time>
      </trkpt>
      <trkpt lat="-25.4618040" lon="-49.0887310">
        <ele>903.5</ele>
        <time>2021-04-17T15:24:32Z</time>
      </trkpt>
      <trkpt lat="-25.4618040" lon="-49.0887310">
        <ele>903.5</ele>
        <time>2021-04-17T15:24:34Z</time>
      </trkpt>
      <trkpt lat="-25.4618040" lon="-49.0887310">
        <ele>903.5</ele>
        <time>2021-04-17T15:24:37Z</time>
      </trkpt>
      <trkpt lat="-25.4618040" lon="-49.0887430">
        <ele>903.6</ele>
        <time>2021-04-17T15:24:39Z</time>
      </trkpt>
      <trkpt lat="-25.4618040" lon="-49.0887430">
        <ele>903.6</ele>
        <time>2021-04-17T15:24:44Z</time>
      </trkpt>
      <trkpt lat="-25.4618190" lon="-49.0888940">
        <ele>903.8</ele>
        <time>2021-04-17T15:24:46Z</time>
      </trkpt>
      <trkpt lat="-25.4618250" lon="-49.0889300">
        <ele>903.8</ele>
        <time>2021-04-17T15:24:47Z</time>
      </trkpt>
      <trkpt lat="-25.4618390" lon="-49.0889780">
        <ele>903.9</ele>
        <time>2021-04-17T15:24:49Z</time>
      </trkpt>
      <trkpt lat="-25.4618060" lon="-49.0891580">
        <ele>904.1</ele>
        <time>2021-04-17T15:24:56Z</time>
      </trkpt>
      <trkpt lat="-25.4618130" lon="-49.0891770">
        <ele>904.1</ele>
        <time>2021-04-17T15:25:03Z</time>
      </trkpt>
      <trkpt lat="-25.4618160" lon="-49.0891890">
        <ele>904.1</ele>
        <time>2021-04-17T15:25:04Z</time>
      </trkpt>
      <trkpt lat="-25.4618070" lon="-49.0892890">
        <ele>904.2</ele>
        <time>2021-04-17T15:25:10Z</time>
      </trkpt>
      <trkpt lat="-25.4617990" lon="-49.0894900">
        <ele>904.4</ele>
        <time>2021-04-17T15:25:15Z</time>
      </trkpt>
      <trkpt lat="-25.4617630" lon="-49.0898090">
        <ele>904.8</ele>
        <time>2021-04-17T15:25:22Z</time>
      </trkpt>
      <trkpt lat="-25.4617480" lon="-49.0898550">
        <ele>904.9</ele>
        <time>2021-04-17T15:25:23Z</time>
      </trkpt>
      <trkpt lat="-25.4616720" lon="-49.0901010">
        <ele>905.1</ele>
        <time>2021-04-17T15:25:28Z</time>
      </trkpt>
      <trkpt lat="-25.4615750" lon="-49.0904040">
        <ele>905.4</ele>
        <time>2021-04-17T15:25:34Z</time>
      </trkpt>
      <trkpt lat="-25.4615390" lon="-49.0905080">
        <ele>905.5</ele>
        <time>2021-04-17T15:25:36Z</time>
      </trkpt>
      <trkpt lat="-25.4614490" lon="-49.0908040">
        <ele>905.7</ele>
        <time>2021-04-17T15:25:42Z</time>
      </trkpt>
      <trkpt lat="-25.4614130" lon="-49.0909260">
        <ele>905.8</ele>
        <time>2021-04-17T15:25:45Z</time>
      </trkpt>
      <trkpt lat="-25.4613760" lon="-49.0910340">
        <ele>905.8</ele>
        <time>2021-04-17T15:25:49Z</time>
      </trkpt>
      <trkpt lat="-25.4613550" lon="-49.0910450">
        <ele>905.8</ele>
        <time>2021-04-17T15:25:50Z</time>
      </trkpt>
      <trkpt lat="-25.4612530" lon="-49.0910880">
        <ele>905.9</ele>
        <time>2021-04-17T15:25:55Z</time>
      </trkpt>
      <trkpt lat="-25.4612230" lon="-49.0911050">
        <ele>905.9</ele>
        <time>2021-04-17T15:25:57Z</time>
      </trkpt>
      <trkpt lat="-25.4611890" lon="-49.0911950">
        <ele>906.0</ele>
        <time>2021-04-17T15:26:02Z</time>
      </trkpt>
      <trkpt lat="-25.4610880" lon="-49.0912530">
        <ele>906.0</ele>
        <time>2021-04-17T15:26:06Z</time>
      </trkpt>
      <trkpt lat="-25.4610740" lon="-49.0912760">
        <ele>906.0</ele>
        <time>2021-04-17T15:26:07Z</time>
      </trkpt>
      <trkpt lat="-25.4610510" lon="-49.0913730">
        <ele>906.0</ele>
        <time>2021-04-17T15:26:10Z</time>
      </trkpt>
      <trkpt lat="-25.4610140" lon="-49.0915080">
        <ele>906.1</ele>
        <time>2021-04-17T15:26:13Z</time>
      </trkpt>
      <trkpt lat="-25.4609690" lon="-49.0916150">
        <ele>906.1</ele>
        <time>2021-04-17T15:26:15Z</time>
      </trkpt>
      <trkpt lat="-25.4608980" lon="-49.0917850">
        <ele>906.3</ele>
        <time>2021-04-17T15:26:18Z</time>
      </trkpt>
      <trkpt lat="-25.4608660" lon="-49.0919580">
        <ele>906.4</ele>
        <time>2021-04-17T15:26:21Z</time>
      </trkpt>
      <trkpt lat="-25.4608540" lon="-49.0920070">
        <ele>906.5</ele>
        <time>2021-04-17T15:26:22Z</time>
      </trkpt>
      <trkpt lat="-25.4608110" lon="-49.0921320">
        <ele>906.6</ele>
        <time>2021-04-17T15:26:25Z</time>
      </trkpt>
      <trkpt lat="-25.4607610" lon="-49.0922920">
        <ele>906.7</ele>
        <time>2021-04-17T15:26:29Z</time>
      </trkpt>
      <trkpt lat="-25.4607320" lon="-49.0923770">
        <ele>906.8</ele>
        <time>2021-04-17T15:26:31Z</time>
      </trkpt>
      <trkpt lat="-25.4606110" lon="-49.0927490">
        <ele>907.2</ele>
        <time>2021-04-17T15:26:39Z</time>
      </trkpt>
      <trkpt lat="-25.4605950" lon="-49.0927980">
        <ele>907.2</ele>
        <time>2021-04-17T15:26:40Z</time>
      </trkpt>
      <trkpt lat="-25.4605340" lon="-49.0929860">
        <ele>907.3</ele>
        <time>2021-04-17T15:26:44Z</time>
      </trkpt>
      <trkpt lat="-25.4604460" lon="-49.0932620">
        <ele>907.5</ele>
        <time>2021-04-17T15:26:49Z</time>
      </trkpt>
      <trkpt lat="-25.4603300" lon="-49.0935620">
        <ele>907.6</ele>
        <time>2021-04-17T15:26:55Z</time>
      </trkpt>
      <trkpt lat="-25.4602420" lon="-49.0937650">
        <ele>907.7</ele>
        <time>2021-04-17T15:27:00Z</time>
      </trkpt>
      <trkpt lat="-25.4602150" lon="-49.0938540">
        <ele>907.7</ele>
        <time>2021-04-17T15:27:02Z</time>
      </trkpt>
      <trkpt lat="-25.4601810" lon="-49.0940100">
        <ele>907.7</ele>
        <time>2021-04-17T15:27:05Z</time>
      </trkpt>
      <trkpt lat="-25.4600530" lon="-49.0944530">
        <ele>907.7</ele>
        <time>2021-04-17T15:27:13Z</time>
      </trkpt>
      <trkpt lat="-25.4599170" lon="-49.0948880">
        <ele>907.7</ele>
        <time>2021-04-17T15:27:21Z</time>
      </trkpt>
      <trkpt lat="-25.4597740" lon="-49.0953570">
        <ele>907.9</ele>
        <time>2021-04-17T15:27:29Z</time>
      </trkpt>
      <trkpt lat="-25.4597250" lon="-49.0955510">
        <ele>907.7</ele>
        <time>2021-04-17T15:27:32Z</time>
      </trkpt>
      <trkpt lat="-25.4596880" lon="-49.0956620">
        <ele>907.8</ele>
        <time>2021-04-17T15:27:34Z</time>
      </trkpt>
      <trkpt lat="-25.4595840" lon="-49.0959740">
        <ele>907.9</ele>
        <time>2021-04-17T15:27:40Z</time>
      </trkpt>
      <trkpt lat="-25.4595400" lon="-49.0960880">
        <ele>908.0</ele>
        <time>2021-04-17T15:27:42Z</time>
      </trkpt>
      <trkpt lat="-25.4593750" lon="-49.0965890">
        <ele>908.2</ele>
        <time>2021-04-17T15:27:50Z</time>
      </trkpt>
      <trkpt lat="-25.4591900" lon="-49.0971220">
        <ele>908.5</ele>
        <time>2021-04-17T15:27:58Z</time>
      </trkpt>
      <trkpt lat="-25.4590940" lon="-49.0973960">
        <ele>908.8</ele>
        <time>2021-04-17T15:28:02Z</time>
      </trkpt>
      <trkpt lat="-25.4589150" lon="-49.0979400">
        <ele>909.1</ele>
        <time>2021-04-17T15:28:10Z</time>
      </trkpt>
      <trkpt lat="-25.4587210" lon="-49.0985470">
        <ele>909.5</ele>
        <time>2021-04-17T15:28:19Z</time>
      </trkpt>
      <trkpt lat="-25.4587010" lon="-49.0986150">
        <ele>909.5</ele>
        <time>2021-04-17T15:28:20Z</time>
      </trkpt>
      <trkpt lat="-25.4585060" lon="-49.0992340">
        <ele>910.0</ele>
        <time>2021-04-17T15:28:29Z</time>
      </trkpt>
      <trkpt lat="-25.4584820" lon="-49.0993050">
        <ele>910.1</ele>
        <time>2021-04-17T15:28:30Z</time>
      </trkpt>
      <trkpt lat="-25.4583040" lon="-49.0998560">
        <ele>910.0</ele>
        <time>2021-04-17T15:28:38Z</time>
      </trkpt>
      <trkpt lat="-25.4581190" lon="-49.1004450">
        <ele>909.9</ele>
        <time>2021-04-17T15:28:46Z</time>
      </trkpt>
      <trkpt lat="-25.4580450" lon="-49.1006690">
        <ele>909.8</ele>
        <time>2021-04-17T15:28:49Z</time>
      </trkpt>
      <trkpt lat="-25.4578390" lon="-49.1012800">
        <ele>909.4</ele>
        <time>2021-04-17T15:28:57Z</time>
      </trkpt>
      <trkpt lat="-25.4577870" lon="-49.1014340">
        <ele>909.2</ele>
        <time>2021-04-17T15:28:59Z</time>
      </trkpt>
      <trkpt lat="-25.4575800" lon="-49.1020590">
        <ele>908.4</ele>
        <time>2021-04-17T15:29:07Z</time>
      </trkpt>
      <trkpt lat="-25.4574590" lon="-49.1024480">
        <ele>907.9</ele>
        <time>2021-04-17T15:29:12Z</time>
      </trkpt>
      <trkpt lat="-25.4572710" lon="-49.1030120">
        <ele>906.7</ele>
        <time>2021-04-17T15:29:19Z</time>
      </trkpt>
      <trkpt lat="-25.4572470" lon="-49.1030940">
        <ele>906.5</ele>
        <time>2021-04-17T15:29:20Z</time>
      </trkpt>
      <trkpt lat="-25.4571470" lon="-49.1034180">
        <ele>905.8</ele>
        <time>2021-04-17T15:29:24Z</time>
      </trkpt>
      <trkpt lat="-25.4570450" lon="-49.1037360">
        <ele>905.2</ele>
        <time>2021-04-17T15:29:28Z</time>
      </trkpt>
      <trkpt lat="-25.4569940" lon="-49.1039010">
        <ele>904.9</ele>
        <time>2021-04-17T15:29:30Z</time>
      </trkpt>
      <trkpt lat="-25.4569660" lon="-49.1039830">
        <ele>904.8</ele>
        <time>2021-04-17T15:29:31Z</time>
      </trkpt>
      <trkpt lat="-25.4567640" lon="-49.1045810">
        <ele>903.5</ele>
        <time>2021-04-17T15:29:38Z</time>
      </trkpt>
      <trkpt lat="-25.4565480" lon="-49.1052320">
        <ele>902.1</ele>
        <time>2021-04-17T15:29:45Z</time>
      </trkpt>
      <trkpt lat="-25.4564830" lon="-49.1054350">
        <ele>901.8</ele>
        <time>2021-04-17T15:29:47Z</time>
      </trkpt>
      <trkpt lat="-25.4562860" lon="-49.1060520">
        <ele>900.5</ele>
        <time>2021-04-17T15:29:53Z</time>
      </trkpt>
      <trkpt lat="-25.4562230" lon="-49.1062650">
        <ele>900.1</ele>
        <time>2021-04-17T15:29:55Z</time>
      </trkpt>
      <trkpt lat="-25.4560890" lon="-49.1066810">
        <ele>899.4</ele>
        <time>2021-04-17T15:29:59Z</time>
      </trkpt>
      <trkpt lat="-25.4559130" lon="-49.1071980">
        <ele>898.4</ele>
        <time>2021-04-17T15:30:04Z</time>
      </trkpt>
      <trkpt lat="-25.4557100" lon="-49.1078210">
        <ele>897.0</ele>
        <time>2021-04-17T15:30:10Z</time>
      </trkpt>
      <trkpt lat="-25.4555080" lon="-49.1084490">
        <ele>895.8</ele>
        <time>2021-04-17T15:30:16Z</time>
      </trkpt>
      <trkpt lat="-25.4554370" lon="-49.1086600">
        <ele>895.4</ele>
        <time>2021-04-17T15:30:18Z</time>
      </trkpt>
      <trkpt lat="-25.4552300" lon="-49.1092820">
        <ele>894.1</ele>
        <time>2021-04-17T15:30:24Z</time>
      </trkpt>
      <trkpt lat="-25.4551250" lon="-49.1095900">
        <ele>893.6</ele>
        <time>2021-04-17T15:30:27Z</time>
      </trkpt>
      <trkpt lat="-25.4549200" lon="-49.1102160">
        <ele>892.5</ele>
        <time>2021-04-17T15:30:33Z</time>
      </trkpt>
      <trkpt lat="-25.4547210" lon="-49.1108520">
        <ele>891.5</ele>
        <time>2021-04-17T15:30:39Z</time>
      </trkpt>
      <trkpt lat="-25.4545110" lon="-49.1114670">
        <ele>890.1</ele>
        <time>2021-04-17T15:30:45Z</time>
      </trkpt>
      <trkpt lat="-25.4544430" lon="-49.1116740">
        <ele>889.6</ele>
        <time>2021-04-17T15:30:47Z</time>
      </trkpt>
      <trkpt lat="-25.4542410" lon="-49.1122930">
        <ele>888.2</ele>
        <time>2021-04-17T15:30:53Z</time>
      </trkpt>
      <trkpt lat="-25.4540560" lon="-49.1128150">
        <ele>887.0</ele>
        <time>2021-04-17T15:30:58Z</time>
      </trkpt>
      <trkpt lat="-25.4538500" lon="-49.1134550">
        <ele>885.6</ele>
        <time>2021-04-17T15:31:04Z</time>
      </trkpt>
      <trkpt lat="-25.4537820" lon="-49.1136700">
        <ele>885.2</ele>
        <time>2021-04-17T15:31:06Z</time>
      </trkpt>
      <trkpt lat="-25.4535840" lon="-49.1142920">
        <ele>884.2</ele>
        <time>2021-04-17T15:31:12Z</time>
      </trkpt>
      <trkpt lat="-25.4534950" lon="-49.1145760">
        <ele>883.9</ele>
        <time>2021-04-17T15:31:15Z</time>
      </trkpt>
      <trkpt lat="-25.4534310" lon="-49.1147350">
        <ele>883.7</ele>
        <time>2021-04-17T15:31:17Z</time>
      </trkpt>
      <trkpt lat="-25.4533770" lon="-49.1148610">
        <ele>883.6</ele>
        <time>2021-04-17T15:31:19Z</time>
      </trkpt>
      <trkpt lat="-25.4533110" lon="-49.1150950">
        <ele>883.4</ele>
        <time>2021-04-17T15:31:23Z</time>
      </trkpt>
      <trkpt lat="-25.4532930" lon="-49.1151510">
        <ele>883.3</ele>
        <time>2021-04-17T15:31:24Z</time>
      </trkpt>
      <trkpt lat="-25.4531930" lon="-49.1154010">
        <ele>883.1</ele>
        <time>2021-04-17T15:31:29Z</time>
      </trkpt>
      <trkpt lat="-25.4531730" lon="-49.1154580">
        <ele>883.1</ele>
        <time>2021-04-17T15:31:30Z</time>
      </trkpt>
      <trkpt lat="-25.4530940" lon="-49.1156960">
        <ele>882.9</ele>
        <time>2021-04-17T15:31:34Z</time>
      </trkpt>
      <trkpt lat="-25.4529790" lon="-49.1160440">
        <ele>882.7</ele>
        <time>2021-04-17T15:31:40Z</time>
      </trkpt>
      <trkpt lat="-25.4528830" lon="-49.1163420">
        <ele>882.6</ele>
        <time>2021-04-17T15:31:45Z</time>
      </trkpt>
      <trkpt lat="-25.4528070" lon="-49.1165790">
        <ele>882.5</ele>
        <time>2021-04-17T15:31:49Z</time>
      </trkpt>
      <trkpt lat="-25.4527670" lon="-49.1167000">
        <ele>882.5</ele>
        <time>2021-04-17T15:31:51Z</time>
      </trkpt>
      <trkpt lat="-25.4525690" lon="-49.1172610">
        <ele>882.4</ele>
        <time>2021-04-17T15:32:00Z</time>
      </trkpt>
      <trkpt lat="-25.4524470" lon="-49.1175780">
        <ele>882.3</ele>
        <time>2021-04-17T15:32:05Z</time>
      </trkpt>
      <trkpt lat="-25.4523100" lon="-49.1178810">
        <ele>882.2</ele>
        <time>2021-04-17T15:32:10Z</time>
      </trkpt>
      <trkpt lat="-25.4520890" lon="-49.1184060">
        <ele>882.0</ele>
        <time>2021-04-17T15:32:19Z</time>
      </trkpt>
      <trkpt lat="-25.4518930" lon="-49.1189740">
        <ele>882.0</ele>
        <time>2021-04-17T15:32:28Z</time>
      </trkpt>
      <trkpt lat="-25.4517020" lon="-49.1195850">
        <ele>882.0</ele>
        <time>2021-04-17T15:32:37Z</time>
      </trkpt>
      <trkpt lat="-25.4515470" lon="-49.1202340">
        <ele>882.0</ele>
        <time>2021-04-17T15:32:46Z</time>
      </trkpt>
      <trkpt lat="-25.4514190" lon="-49.1207560">
        <ele>881.9</ele>
        <time>2021-04-17T15:32:53Z</time>
      </trkpt>
      <trkpt lat="-25.4512540" lon="-49.1213430">
        <ele>882.0</ele>
        <time>2021-04-17T15:33:01Z</time>
      </trkpt>
      <trkpt lat="-25.4512320" lon="-49.1214160">
        <ele>882.0</ele>
        <time>2021-04-17T15:33:02Z</time>
      </trkpt>
      <trkpt lat="-25.4511620" lon="-49.1216270">
        <ele>882.0</ele>
        <time>2021-04-17T15:33:05Z</time>
      </trkpt>
      <trkpt lat="-25.4510130" lon="-49.1220590">
        <ele>881.9</ele>
        <time>2021-04-17T15:33:11Z</time>
      </trkpt>
      <trkpt lat="-25.4509900" lon="-49.1221290">
        <ele>881.9</ele>
        <time>2021-04-17T15:33:12Z</time>
      </trkpt>
      <trkpt lat="-25.4507970" lon="-49.1227510">
        <ele>882.0</ele>
        <time>2021-04-17T15:33:21Z</time>
      </trkpt>
      <trkpt lat="-25.4506020" lon="-49.1233490">
        <ele>882.1</ele>
        <time>2021-04-17T15:33:30Z</time>
      </trkpt>
      <trkpt lat="-25.4505580" lon="-49.1234800">
        <ele>882.1</ele>
        <time>2021-04-17T15:33:32Z</time>
      </trkpt>
      <trkpt lat="-25.4503620" lon="-49.1240790">
        <ele>882.3</ele>
        <time>2021-04-17T15:33:41Z</time>
      </trkpt>
      <trkpt lat="-25.4502970" lon="-49.1242780">
        <ele>882.3</ele>
        <time>2021-04-17T15:33:44Z</time>
      </trkpt>
      <trkpt lat="-25.4501090" lon="-49.1248320">
        <ele>882.5</ele>
        <time>2021-04-17T15:33:52Z</time>
      </trkpt>
      <trkpt lat="-25.4499580" lon="-49.1253090">
        <ele>882.5</ele>
        <time>2021-04-17T15:33:59Z</time>
      </trkpt>
      <trkpt lat="-25.4497520" lon="-49.1258880">
        <ele>882.2</ele>
        <time>2021-04-17T15:34:07Z</time>
      </trkpt>
      <trkpt lat="-25.4497290" lon="-49.1259620">
        <ele>882.2</ele>
        <time>2021-04-17T15:34:08Z</time>
      </trkpt>
      <trkpt lat="-25.4495820" lon="-49.1264180">
        <ele>882.0</ele>
        <time>2021-04-17T15:34:14Z</time>
      </trkpt>
      <trkpt lat="-25.4495340" lon="-49.1265660">
        <ele>881.9</ele>
        <time>2021-04-17T15:34:16Z</time>
      </trkpt>
      <trkpt lat="-25.4493310" lon="-49.1271690">
        <ele>881.3</ele>
        <time>2021-04-17T15:34:24Z</time>
      </trkpt>
      <trkpt lat="-25.4493070" lon="-49.1272450">
        <ele>881.2</ele>
        <time>2021-04-17T15:34:25Z</time>
      </trkpt>
      <trkpt lat="-25.4491200" lon="-49.1278400">
        <ele>880.8</ele>
        <time>2021-04-17T15:34:33Z</time>
      </trkpt>
      <trkpt lat="-25.4490490" lon="-49.1280560">
        <ele>880.7</ele>
        <time>2021-04-17T15:34:36Z</time>
      </trkpt>
      <trkpt lat="-25.4488670" lon="-49.1286320">
        <ele>880.8</ele>
        <time>2021-04-17T15:34:44Z</time>
      </trkpt>
      <trkpt lat="-25.4488000" lon="-49.1288520">
        <ele>880.8</ele>
        <time>2021-04-17T15:34:47Z</time>
      </trkpt>
      <trkpt lat="-25.4486260" lon="-49.1293510">
        <ele>880.8</ele>
        <time>2021-04-17T15:34:54Z</time>
      </trkpt>
      <trkpt lat="-25.4484230" lon="-49.1299830">
        <ele>880.9</ele>
        <time>2021-04-17T15:35:03Z</time>
      </trkpt>
      <trkpt lat="-25.4483720" lon="-49.1301280">
        <ele>880.9</ele>
        <time>2021-04-17T15:35:05Z</time>
      </trkpt>
      <trkpt lat="-25.4483250" lon="-49.1302720">
        <ele>880.8</ele>
        <time>2021-04-17T15:35:07Z</time>
      </trkpt>
      <trkpt lat="-25.4481600" lon="-49.1307750">
        <ele>880.8</ele>
        <time>2021-04-17T15:35:14Z</time>
      </trkpt>
      <trkpt lat="-25.4481340" lon="-49.1308470">
        <ele>880.8</ele>
        <time>2021-04-17T15:35:15Z</time>
      </trkpt>
      <trkpt lat="-25.4480640" lon="-49.1310630">
        <ele>880.8</ele>
        <time>2021-04-17T15:35:18Z</time>
      </trkpt>
      <trkpt lat="-25.4478770" lon="-49.1316410">
        <ele>880.8</ele>
        <time>2021-04-17T15:35:26Z</time>
      </trkpt>
      <trkpt lat="-25.4476850" lon="-49.1322270">
        <ele>880.9</ele>
        <time>2021-04-17T15:35:34Z</time>
      </trkpt>
      <trkpt lat="-25.4476370" lon="-49.1323710">
        <ele>880.9</ele>
        <time>2021-04-17T15:35:36Z</time>
      </trkpt>
      <trkpt lat="-25.4474420" lon="-49.1329500">
        <ele>880.8</ele>
        <time>2021-04-17T15:35:44Z</time>
      </trkpt>
      <trkpt lat="-25.4474220" lon="-49.1330260">
        <ele>880.8</ele>
        <time>2021-04-17T15:35:45Z</time>
      </trkpt>
      <trkpt lat="-25.4472300" lon="-49.1336190">
        <ele>880.8</ele>
        <time>2021-04-17T15:35:53Z</time>
      </trkpt>
      <trkpt lat="-25.4471610" lon="-49.1338470">
        <ele>880.8</ele>
        <time>2021-04-17T15:35:56Z</time>
      </trkpt>
      <trkpt lat="-25.4469730" lon="-49.1344300">
        <ele>880.8</ele>
        <time>2021-04-17T15:36:04Z</time>
      </trkpt>
      <trkpt lat="-25.4468590" lon="-49.1347920">
        <ele>880.7</ele>
        <time>2021-04-17T15:36:09Z</time>
      </trkpt>
      <trkpt lat="-25.4466730" lon="-49.1353920">
        <ele>880.7</ele>
        <time>2021-04-17T15:36:17Z</time>
      </trkpt>
      <trkpt lat="-25.4465980" lon="-49.1356150">
        <ele>880.7</ele>
        <time>2021-04-17T15:36:20Z</time>
      </trkpt>
      <trkpt lat="-25.4463840" lon="-49.1362410">
        <ele>880.6</ele>
        <time>2021-04-17T15:36:28Z</time>
      </trkpt>
      <trkpt lat="-25.4463570" lon="-49.1363190">
        <ele>880.6</ele>
        <time>2021-04-17T15:36:29Z</time>
      </trkpt>
      <trkpt lat="-25.4461440" lon="-49.1369210">
        <ele>880.7</ele>
        <time>2021-04-17T15:36:37Z</time>
      </trkpt>
      <trkpt lat="-25.4460840" lon="-49.1370640">
        <ele>880.7</ele>
        <time>2021-04-17T15:36:39Z</time>
      </trkpt>
      <trkpt lat="-25.4457800" lon="-49.1375980">
        <ele>880.7</ele>
        <time>2021-04-17T15:36:47Z</time>
      </trkpt>
      <trkpt lat="-25.4455350" lon="-49.1380830">
        <ele>880.7</ele>
        <time>2021-04-17T15:36:54Z</time>
      </trkpt>
      <trkpt lat="-25.4454830" lon="-49.1382360">
        <ele>880.7</ele>
        <time>2021-04-17T15:36:56Z</time>
      </trkpt>
      <trkpt lat="-25.4453150" lon="-49.1387640">
        <ele>880.6</ele>
        <time>2021-04-17T15:37:03Z</time>
      </trkpt>
      <trkpt lat="-25.4451230" lon="-49.1393480">
        <ele>880.6</ele>
        <time>2021-04-17T15:37:11Z</time>
      </trkpt>
      <trkpt lat="-25.4449830" lon="-49.1397870">
        <ele>880.6</ele>
        <time>2021-04-17T15:37:17Z</time>
      </trkpt>
      <trkpt lat="-25.4448770" lon="-49.1403240">
        <ele>880.6</ele>
        <time>2021-04-17T15:37:24Z</time>
      </trkpt>
      <trkpt lat="-25.4448400" lon="-49.1408070">
        <ele>880.5</ele>
        <time>2021-04-17T15:37:30Z</time>
      </trkpt>
      <trkpt lat="-25.4446980" lon="-49.1414110">
        <ele>880.6</ele>
        <time>2021-04-17T15:37:38Z</time>
      </trkpt>
      <trkpt lat="-25.4444880" lon="-49.1420390">
        <ele>880.6</ele>
        <time>2021-04-17T15:37:46Z</time>
      </trkpt>
      <trkpt lat="-25.4442810" lon="-49.1426600">
        <ele>880.5</ele>
        <time>2021-04-17T15:37:54Z</time>
      </trkpt>
      <trkpt lat="-25.4442050" lon="-49.1429050">
        <ele>880.5</ele>
        <time>2021-04-17T15:37:57Z</time>
      </trkpt>
      <trkpt lat="-25.4440200" lon="-49.1434860">
        <ele>880.4</ele>
        <time>2021-04-17T15:38:04Z</time>
      </trkpt>
      <trkpt lat="-25.4439070" lon="-49.1438240">
        <ele>880.4</ele>
        <time>2021-04-17T15:38:08Z</time>
      </trkpt>
      <trkpt lat="-25.4437070" lon="-49.1444470">
        <ele>880.2</ele>
        <time>2021-04-17T15:38:15Z</time>
      </trkpt>
      <trkpt lat="-25.4436510" lon="-49.1446310">
        <ele>880.2</ele>
        <time>2021-04-17T15:38:17Z</time>
      </trkpt>
      <trkpt lat="-25.4434340" lon="-49.1452580">
        <ele>880.3</ele>
        <time>2021-04-17T15:38:24Z</time>
      </trkpt>
      <trkpt lat="-25.4432920" lon="-49.1455990">
        <ele>880.3</ele>
        <time>2021-04-17T15:38:28Z</time>
      </trkpt>
      <trkpt lat="-25.4430490" lon="-49.1461340">
        <ele>880.3</ele>
        <time>2021-04-17T15:38:35Z</time>
      </trkpt>
      <trkpt lat="-25.4429720" lon="-49.1462970">
        <ele>880.4</ele>
        <time>2021-04-17T15:38:37Z</time>
      </trkpt>
      <trkpt lat="-25.4427750" lon="-49.1468070">
        <ele>880.6</ele>
        <time>2021-04-17T15:38:44Z</time>
      </trkpt>
      <trkpt lat="-25.4426140" lon="-49.1473100">
        <ele>880.7</ele>
        <time>2021-04-17T15:38:51Z</time>
      </trkpt>
      <trkpt lat="-25.4424470" lon="-49.1478810">
        <ele>880.6</ele>
        <time>2021-04-17T15:38:59Z</time>
      </trkpt>
      <trkpt lat="-25.4424280" lon="-49.1479550">
        <ele>880.6</ele>
        <time>2021-04-17T15:39:00Z</time>
      </trkpt>
      <trkpt lat="-25.4422940" lon="-49.1485750">
        <ele>880.4</ele>
        <time>2021-04-17T15:39:08Z</time>
      </trkpt>
      <trkpt lat="-25.4422750" lon="-49.1486560">
        <ele>880.4</ele>
        <time>2021-04-17T15:39:09Z</time>
      </trkpt>
      <trkpt lat="-25.4421140" lon="-49.1492860">
        <ele>880.4</ele>
        <time>2021-04-17T15:39:17Z</time>
      </trkpt>
      <trkpt lat="-25.4419130" lon="-49.1498690">
        <ele>880.4</ele>
        <time>2021-04-17T15:39:25Z</time>
      </trkpt>
      <trkpt lat="-25.4418860" lon="-49.1499360">
        <ele>880.4</ele>
        <time>2021-04-17T15:39:26Z</time>
      </trkpt>
      <trkpt lat="-25.4417460" lon="-49.1503190">
        <ele>880.4</ele>
        <time>2021-04-17T15:39:32Z</time>
      </trkpt>
      <trkpt lat="-25.4416170" lon="-49.1507110">
        <ele>880.5</ele>
        <time>2021-04-17T15:39:39Z</time>
      </trkpt>
      <trkpt lat="-25.4415170" lon="-49.1510030">
        <ele>880.6</ele>
        <time>2021-04-17T15:39:45Z</time>
      </trkpt>
      <trkpt lat="-25.4414950" lon="-49.1510480">
        <ele>880.6</ele>
        <time>2021-04-17T15:39:46Z</time>
      </trkpt>
      <trkpt lat="-25.4414610" lon="-49.1510980">
        <ele>880.6</ele>
        <time>2021-04-17T15:39:47Z</time>
      </trkpt>
      <trkpt lat="-25.4414020" lon="-49.1511900">
        <ele>880.6</ele>
        <time>2021-04-17T15:39:49Z</time>
      </trkpt>
      <trkpt lat="-25.4413740" lon="-49.1512910">
        <ele>880.6</ele>
        <time>2021-04-17T15:39:51Z</time>
      </trkpt>
      <trkpt lat="-25.4413780" lon="-49.1513940">
        <ele>880.6</ele>
        <time>2021-04-17T15:39:53Z</time>
      </trkpt>
      <trkpt lat="-25.4413650" lon="-49.1514860">
        <ele>880.6</ele>
        <time>2021-04-17T15:39:55Z</time>
      </trkpt>
      <trkpt lat="-25.4413260" lon="-49.1516000">
        <ele>880.6</ele>
        <time>2021-04-17T15:39:57Z</time>
      </trkpt>
      <trkpt lat="-25.4412980" lon="-49.1517120">
        <ele>880.6</ele>
        <time>2021-04-17T15:39:59Z</time>
      </trkpt>
      <trkpt lat="-25.4412810" lon="-49.1518270">
        <ele>880.6</ele>
        <time>2021-04-17T15:40:01Z</time>
      </trkpt>
      <trkpt lat="-25.4412490" lon="-49.1519350">
        <ele>880.5</ele>
        <time>2021-04-17T15:40:03Z</time>
      </trkpt>
      <trkpt lat="-25.4411930" lon="-49.1520970">
        <ele>880.5</ele>
        <time>2021-04-17T15:40:06Z</time>
      </trkpt>
      <trkpt lat="-25.4411220" lon="-49.1523060">
        <ele>880.5</ele>
        <time>2021-04-17T15:40:10Z</time>
      </trkpt>
      <trkpt lat="-25.4409280" lon="-49.1528880">
        <ele>880.5</ele>
        <time>2021-04-17T15:40:20Z</time>
      </trkpt>
      <trkpt lat="-25.4408120" lon="-49.1532500">
        <ele>880.6</ele>
        <time>2021-04-17T15:40:27Z</time>
      </trkpt>
      <trkpt lat="-25.4407700" lon="-49.1534150">
        <ele>880.6</ele>
        <time>2021-04-17T15:40:31Z</time>
      </trkpt>
      <trkpt lat="-25.4407720" lon="-49.1535510">
        <ele>880.6</ele>
        <time>2021-04-17T15:40:35Z</time>
      </trkpt>
      <trkpt lat="-25.4406600" lon="-49.1539000">
        <ele>880.6</ele>
        <time>2021-04-17T15:40:43Z</time>
      </trkpt>
      <trkpt lat="-25.4405540" lon="-49.1542340">
        <ele>880.6</ele>
        <time>2021-04-17T15:40:50Z</time>
      </trkpt>
      <trkpt lat="-25.4403980" lon="-49.1546730">
        <ele>880.8</ele>
        <time>2021-04-17T15:40:59Z</time>
      </trkpt>
      <trkpt lat="-25.4402710" lon="-49.1550740">
        <ele>880.8</ele>
        <time>2021-04-17T15:41:07Z</time>
      </trkpt>
      <trkpt lat="-25.4401310" lon="-49.1554940">
        <ele>880.7</ele>
        <time>2021-04-17T15:41:15Z</time>
      </trkpt>
      <trkpt lat="-25.4399730" lon="-49.1559660">
        <ele>880.7</ele>
        <time>2021-04-17T15:41:24Z</time>
      </trkpt>
      <trkpt lat="-25.4398080" lon="-49.1564580">
        <ele>880.7</ele>
        <time>2021-04-17T15:41:34Z</time>
      </trkpt>
      <trkpt lat="-25.4397490" lon="-49.1566530">
        <ele>880.7</ele>
        <time>2021-04-17T15:41:38Z</time>
      </trkpt>
      <trkpt lat="-25.4397320" lon="-49.1567520">
        <ele>880.7</ele>
        <time>2021-04-17T15:41:40Z</time>
      </trkpt>
      <trkpt lat="-25.4397170" lon="-49.1568010">
        <ele>880.7</ele>
        <time>2021-04-17T15:41:41Z</time>
      </trkpt>
      <trkpt lat="-25.4396070" lon="-49.1571510">
        <ele>880.7</ele>
        <time>2021-04-17T15:41:47Z</time>
      </trkpt>
      <trkpt lat="-25.4394780" lon="-49.1574940">
        <ele>880.6</ele>
        <time>2021-04-17T15:41:54Z</time>
      </trkpt>
      <trkpt lat="-25.4392850" lon="-49.1580590">
        <ele>880.6</ele>
        <time>2021-04-17T15:42:04Z</time>
      </trkpt>
      <trkpt lat="-25.4392630" lon="-49.1581160">
        <ele>880.6</ele>
        <time>2021-04-17T15:42:05Z</time>
      </trkpt>
      <trkpt lat="-25.4391450" lon="-49.1584000">
        <ele>880.7</ele>
        <time>2021-04-17T15:42:10Z</time>
      </trkpt>
      <trkpt lat="-25.4390550" lon="-49.1586730">
        <ele>880.7</ele>
        <time>2021-04-17T15:42:15Z</time>
      </trkpt>
      <trkpt lat="-25.4390390" lon="-49.1587140">
        <ele>880.7</ele>
        <time>2021-04-17T15:42:16Z</time>
      </trkpt>
      <trkpt lat="-25.4390030" lon="-49.1587990">
        <ele>880.7</ele>
        <time>2021-04-17T15:42:19Z</time>
      </trkpt>
      <trkpt lat="-25.4389630" lon="-49.1589810">
        <ele>880.7</ele>
        <time>2021-04-17T15:42:24Z</time>
      </trkpt>
      <trkpt lat="-25.4389280" lon="-49.1591190">
        <ele>880.8</ele>
        <time>2021-04-17T15:42:27Z</time>
      </trkpt>
      <trkpt lat="-25.4388920" lon="-49.1592210">
        <ele>880.8</ele>
        <time>2021-04-17T15:42:29Z</time>
      </trkpt>
      <trkpt lat="-25.4387900" lon="-49.1595080">
        <ele>880.7</ele>
        <time>2021-04-17T15:42:35Z</time>
      </trkpt>
      <trkpt lat="-25.4387710" lon="-49.1595520">
        <ele>880.7</ele>
        <time>2021-04-17T15:42:36Z</time>
      </trkpt>
      <trkpt lat="-25.4386750" lon="-49.1597850">
        <ele>880.7</ele>
        <time>2021-04-17T15:42:42Z</time>
      </trkpt>
      <trkpt lat="-25.4386160" lon="-49.1599050">
        <ele>880.6</ele>
        <time>2021-04-17T15:42:46Z</time>
      </trkpt>
      <trkpt lat="-25.4386330" lon="-49.1599490">
        <ele>880.6</ele>
        <time>2021-04-17T15:42:50Z</time>
      </trkpt>
      <trkpt lat="-25.4386330" lon="-49.1599490">
        <ele>880.6</ele>
        <time>2021-04-17T15:42:59Z</time>
      </trkpt>
      <trkpt lat="-25.4386330" lon="-49.1599490">
        <ele>880.6</ele>
        <time>2021-04-17T15:43:07Z</time>
      </trkpt>
      <trkpt lat="-25.4386320" lon="-49.1599510">
        <ele>880.6</ele>
        <time>2021-04-17T15:43:18Z</time>
      </trkpt>
      <trkpt lat="-25.4386030" lon="-49.1600380">
        <ele>880.6</ele>
        <time>2021-04-17T15:43:21Z</time>
      </trkpt>
      <trkpt lat="-25.4385440" lon="-49.1602810">
        <ele>880.5</ele>
        <time>2021-04-17T15:43:26Z</time>
      </trkpt>
      <trkpt lat="-25.4384390" lon="-49.1605850">
        <ele>880.3</ele>
        <time>2021-04-17T15:43:31Z</time>
      </trkpt>
      <trkpt lat="-25.4382900" lon="-49.1609980">
        <ele>880.2</ele>
        <time>2021-04-17T15:43:38Z</time>
      </trkpt>
      <trkpt lat="-25.4382240" lon="-49.1611560">
        <ele>880.2</ele>
        <time>2021-04-17T15:43:41Z</time>
      </trkpt>
      <trkpt lat="-25.4381610" lon="-49.1613710">
        <ele>880.2</ele>
        <time>2021-04-17T15:43:45Z</time>
      </trkpt>
      <trkpt lat="-25.4381750" lon="-49.1614770">
        <ele>880.1</ele>
        <time>2021-04-17T15:43:47Z</time>
      </trkpt>
      <trkpt lat="-25.4383210" lon="-49.1617340">
        <ele>879.8</ele>
        <time>2021-04-17T15:43:52Z</time>
      </trkpt>
      <trkpt lat="-25.4383690" lon="-49.1617600">
        <ele>879.6</ele>
        <time>2021-04-17T15:43:53Z</time>
      </trkpt>
      <trkpt lat="-25.4384050" lon="-49.1618710">
        <ele>879.5</ele>
        <time>2021-04-17T15:43:55Z</time>
      </trkpt>
      <trkpt lat="-25.4383290" lon="-49.1621090">
        <ele>879.3</ele>
        <time>2021-04-17T15:44:00Z</time>
      </trkpt>
      <trkpt lat="-25.4383170" lon="-49.1621680">
        <ele>879.3</ele>
        <time>2021-04-17T15:44:01Z</time>
      </trkpt>
      <trkpt lat="-25.4383220" lon="-49.1625380">
        <ele>879.2</ele>
        <time>2021-04-17T15:44:07Z</time>
      </trkpt>
      <trkpt lat="-25.4383900" lon="-49.1631560">
        <ele>879.2</ele>
        <time>2021-04-17T15:44:17Z</time>
      </trkpt>
      <trkpt lat="-25.4384480" lon="-49.1636050">
        <ele>879.1</ele>
        <time>2021-04-17T15:44:25Z</time>
      </trkpt>
      <trkpt lat="-25.4385310" lon="-49.1641140">
        <ele>879.1</ele>
        <time>2021-04-17T15:44:33Z</time>
      </trkpt>
      <trkpt lat="-25.4385750" lon="-49.1645980">
        <ele>878.9</ele>
        <time>2021-04-17T15:44:41Z</time>
      </trkpt>
      <trkpt lat="-25.4386490" lon="-49.1652460">
        <ele>878.7</ele>
        <time>2021-04-17T15:44:51Z</time>
      </trkpt>
      <trkpt lat="-25.4386570" lon="-49.1653090">
        <ele>878.7</ele>
        <time>2021-04-17T15:44:52Z</time>
      </trkpt>
      <trkpt lat="-25.4387230" lon="-49.1659080">
        <ele>878.7</ele>
        <time>2021-04-17T15:45:01Z</time>
      </trkpt>
      <trkpt lat="-25.4387300" lon="-49.1659730">
        <ele>878.7</ele>
        <time>2021-04-17T15:45:02Z</time>
      </trkpt>
      <trkpt lat="-25.4387570" lon="-49.1662300">
        <ele>878.9</ele>
        <time>2021-04-17T15:45:06Z</time>
      </trkpt>
      <trkpt lat="-25.4387860" lon="-49.1665380">
        <ele>879.2</ele>
        <time>2021-04-17T15:45:11Z</time>
      </trkpt>
      <trkpt lat="-25.4388400" lon="-49.1671320">
        <ele>879.1</ele>
        <time>2021-04-17T15:45:20Z</time>
      </trkpt>
      <trkpt lat="-25.4388940" lon="-49.1677480">
        <ele>879.2</ele>
        <time>2021-04-17T15:45:29Z</time>
      </trkpt>
      <trkpt lat="-25.4389380" lon="-49.1683690">
        <ele>879.5</ele>
        <time>2021-04-17T15:45:38Z</time>
      </trkpt>
      <trkpt lat="-25.4389940" lon="-49.1689150">
        <ele>880.0</ele>
        <time>2021-04-17T15:45:47Z</time>
      </trkpt>
      <trkpt lat="-25.4390550" lon="-49.1694640">
        <ele>879.2</ele>
        <time>2021-04-17T15:45:55Z</time>
      </trkpt>
      <trkpt lat="-25.4391350" lon="-49.1700720">
        <ele>878.7</ele>
        <time>2021-04-17T15:46:04Z</time>
      </trkpt>
      <trkpt lat="-25.4391440" lon="-49.1701380">
        <ele>878.7</ele>
        <time>2021-04-17T15:46:05Z</time>
      </trkpt>
      <trkpt lat="-25.4392140" lon="-49.1707500">
        <ele>879.1</ele>
        <time>2021-04-17T15:46:14Z</time>
      </trkpt>
      <trkpt lat="-25.4392600" lon="-49.1710790">
        <ele>879.8</ele>
        <time>2021-04-17T15:46:19Z</time>
      </trkpt>
      <trkpt lat="-25.4392980" lon="-49.1714510">
        <ele>880.6</ele>
        <time>2021-04-17T15:46:25Z</time>
      </trkpt>
      <trkpt lat="-25.4393690" lon="-49.1721040">
        <ele>881.1</ele>
        <time>2021-04-17T15:46:35Z</time>
      </trkpt>
      <trkpt lat="-25.4393760" lon="-49.1721710">
        <ele>881.2</ele>
        <time>2021-04-17T15:46:36Z</time>
      </trkpt>
      <trkpt lat="-25.4394520" lon="-49.1727750">
        <ele>882.0</ele>
        <time>2021-04-17T15:46:45Z</time>
      </trkpt>
      <trkpt lat="-25.4395160" lon="-49.1732580">
        <ele>883.2</ele>
        <time>2021-04-17T15:46:53Z</time>
      </trkpt>
      <trkpt lat="-25.4395750" lon="-49.1737070">
        <ele>884.2</ele>
        <time>2021-04-17T15:47:01Z</time>
      </trkpt>
      <trkpt lat="-25.4396420" lon="-49.1742630">
        <ele>884.5</ele>
        <time>2021-04-17T15:47:11Z</time>
      </trkpt>
      <trkpt lat="-25.4397020" lon="-49.1747140">
        <ele>884.6</ele>
        <time>2021-04-17T15:47:19Z</time>
      </trkpt>
      <trkpt lat="-25.4397490" lon="-49.1751420">
        <ele>884.6</ele>
        <time>2021-04-17T15:47:27Z</time>
      </trkpt>
      <trkpt lat="-25.4397770" lon="-49.1754250">
        <ele>884.6</ele>
        <time>2021-04-17T15:47:33Z</time>
      </trkpt>
      <trkpt lat="-25.4398250" lon="-49.1758130">
        <ele>884.6</ele>
        <time>2021-04-17T15:47:42Z</time>
      </trkpt>
      <trkpt lat="-25.4398500" lon="-49.1761170">
        <ele>884.6</ele>
        <time>2021-04-17T15:47:48Z</time>
      </trkpt>
      <trkpt lat="-25.4398980" lon="-49.1764690">
        <ele>884.8</ele>
        <time>2021-04-17T15:47:55Z</time>
      </trkpt>
      <trkpt lat="-25.4398930" lon="-49.1767110">
        <ele>885.3</ele>
        <time>2021-04-17T15:48:01Z</time>
      </trkpt>
      <trkpt lat="-25.4398840" lon="-49.1767530">
        <ele>885.3</ele>
        <time>2021-04-17T15:48:06Z</time>
      </trkpt>
      <trkpt lat="-25.4398810" lon="-49.1767770">
        <ele>885.3</ele>
        <time>2021-04-17T15:48:11Z</time>
      </trkpt>
      <trkpt lat="-25.4398930" lon="-49.1767890">
        <ele>885.3</ele>
        <time>2021-04-17T15:48:12Z</time>
      </trkpt>
      <trkpt lat="-25.4399760" lon="-49.1768370">
        <ele>885.2</ele>
        <time>2021-04-17T15:48:16Z</time>
      </trkpt>
      <trkpt lat="-25.4399940" lon="-49.1768680">
        <ele>885.2</ele>
        <time>2021-04-17T15:48:17Z</time>
      </trkpt>
      <trkpt lat="-25.4400440" lon="-49.1770620">
        <ele>885.1</ele>
        <time>2021-04-17T15:48:22Z</time>
      </trkpt>
      <trkpt lat="-25.4400690" lon="-49.1772550">
        <ele>885.1</ele>
        <time>2021-04-17T15:48:27Z</time>
      </trkpt>
      <trkpt lat="-25.4400810" lon="-49.1773200">
        <ele>885.0</ele>
        <time>2021-04-17T15:48:30Z</time>
      </trkpt>
      <trkpt lat="-25.4400830" lon="-49.1773260">
        <ele>885.0</ele>
        <time>2021-04-17T15:48:31Z</time>
      </trkpt>
      <trkpt lat="-25.4400800" lon="-49.1773410">
        <ele>885.0</ele>
        <time>2021-04-17T15:48:36Z</time>
      </trkpt>
      <trkpt lat="-25.4400810" lon="-49.1773590">
        <ele>885.0</ele>
        <time>2021-04-17T15:48:37Z</time>
      </trkpt>
      <trkpt lat="-25.4400910" lon="-49.1775390">
        <ele>885.0</ele>
        <time>2021-04-17T15:48:42Z</time>
      </trkpt>
      <trkpt lat="-25.4400940" lon="-49.1775850">
        <ele>885.0</ele>
        <time>2021-04-17T15:48:43Z</time>
      </trkpt>
      <trkpt lat="-25.4401300" lon="-49.1779350">
        <ele>884.9</ele>
        <time>2021-04-17T15:48:50Z</time>
      </trkpt>
      <trkpt lat="-25.4401350" lon="-49.1779890">
        <ele>884.8</ele>
        <time>2021-04-17T15:48:51Z</time>
      </trkpt>
      <trkpt lat="-25.4402290" lon="-49.1783170">
        <ele>884.8</ele>
        <time>2021-04-17T15:48:57Z</time>
      </trkpt>
      <trkpt lat="-25.4404100" lon="-49.1789000">
        <ele>884.8</ele>
        <time>2021-04-17T15:49:07Z</time>
      </trkpt>
      <trkpt lat="-25.4405770" lon="-49.1794620">
        <ele>885.0</ele>
        <time>2021-04-17T15:49:16Z</time>
      </trkpt>
      <trkpt lat="-25.4407570" lon="-49.1800380">
        <ele>885.3</ele>
        <time>2021-04-17T15:49:25Z</time>
      </trkpt>
      <trkpt lat="-25.4408030" lon="-49.1801680">
        <ele>885.2</ele>
        <time>2021-04-17T15:49:27Z</time>
      </trkpt>
      <trkpt lat="-25.4410050" lon="-49.1807540">
        <ele>885.3</ele>
        <time>2021-04-17T15:49:36Z</time>
      </trkpt>
      <trkpt lat="-25.4410280" lon="-49.1808210">
        <ele>885.3</ele>
        <time>2021-04-17T15:49:37Z</time>
      </trkpt>
      <trkpt lat="-25.4412380" lon="-49.1813980">
        <ele>885.7</ele>
        <time>2021-04-17T15:49:46Z</time>
      </trkpt>
      <trkpt lat="-25.4413670" lon="-49.1817450">
        <ele>886.2</ele>
        <time>2021-04-17T15:49:52Z</time>
      </trkpt>
      <trkpt lat="-25.4414450" lon="-49.1819100">
        <ele>886.3</ele>
        <time>2021-04-17T15:49:55Z</time>
      </trkpt>
      <trkpt lat="-25.4417340" lon="-49.1823450">
        <ele>886.4</ele>
        <time>2021-04-17T15:50:04Z</time>
      </trkpt>
      <trkpt lat="-25.4420280" lon="-49.1827150">
        <ele>886.6</ele>
        <time>2021-04-17T15:50:12Z</time>
      </trkpt>
      <trkpt lat="-25.4420650" lon="-49.1827620">
        <ele>886.6</ele>
        <time>2021-04-17T15:50:13Z</time>
      </trkpt>
      <trkpt lat="-25.4422160" lon="-49.1829570">
        <ele>886.7</ele>
        <time>2021-04-17T15:50:17Z</time>
      </trkpt>
      <trkpt lat="-25.4425080" lon="-49.1832450">
        <ele>886.9</ele>
        <time>2021-04-17T15:50:24Z</time>
      </trkpt>
      <trkpt lat="-25.4429320" lon="-49.1836710">
        <ele>886.6</ele>
        <time>2021-04-17T15:50:34Z</time>
      </trkpt>
      <trkpt lat="-25.4433040" lon="-49.1840530">
        <ele>886.5</ele>
        <time>2021-04-17T15:50:43Z</time>
      </trkpt>
      <trkpt lat="-25.4436830" lon="-49.1844620">
        <ele>886.6</ele>
        <time>2021-04-17T15:50:52Z</time>
      </trkpt>
      <trkpt lat="-25.4440730" lon="-49.1848850">
        <ele>886.7</ele>
        <time>2021-04-17T15:51:02Z</time>
      </trkpt>
      <trkpt lat="-25.4444490" lon="-49.1852860">
        <ele>886.9</ele>
        <time>2021-04-17T15:51:11Z</time>
      </trkpt>
      <trkpt lat="-25.4447950" lon="-49.1856690">
        <ele>886.9</ele>
        <time>2021-04-17T15:51:19Z</time>
      </trkpt>
      <trkpt lat="-25.4452050" lon="-49.1861360">
        <ele>887.2</ele>
        <time>2021-04-17T15:51:29Z</time>
      </trkpt>
      <trkpt lat="-25.4454130" lon="-49.1863730">
        <ele>887.3</ele>
        <time>2021-04-17T15:51:34Z</time>
      </trkpt>
      <trkpt lat="-25.4454830" lon="-49.1864690">
        <ele>887.3</ele>
        <time>2021-04-17T15:51:36Z</time>
      </trkpt>
      <trkpt lat="-25.4456930" lon="-49.1867510">
        <ele>887.2</ele>
        <time>2021-04-17T15:51:42Z</time>
      </trkpt>
      <trkpt lat="-25.4459580" lon="-49.1871280">
        <ele>887.2</ele>
        <time>2021-04-17T15:51:49Z</time>
      </trkpt>
      <trkpt lat="-25.4460390" lon="-49.1872360">
        <ele>887.2</ele>
        <time>2021-04-17T15:51:51Z</time>
      </trkpt>
      <trkpt lat="-25.4461290" lon="-49.1872900">
        <ele>887.2</ele>
        <time>2021-04-17T15:51:53Z</time>
      </trkpt>
      <trkpt lat="-25.4465920" lon="-49.1875280">
        <ele>886.9</ele>
        <time>2021-04-17T15:52:01Z</time>
      </trkpt>
      <trkpt lat="-25.4466970" lon="-49.1876030">
        <ele>886.8</ele>
        <time>2021-04-17T15:52:03Z</time>
      </trkpt>
      <trkpt lat="-25.4468620" lon="-49.1876850">
        <ele>886.6</ele>
        <time>2021-04-17T15:52:06Z</time>
      </trkpt>
      <trkpt lat="-25.4470580" lon="-49.1877820">
        <ele>886.6</ele>
        <time>2021-04-17T15:52:10Z</time>
      </trkpt>
      <trkpt lat="-25.4471040" lon="-49.1878020">
        <ele>886.6</ele>
        <time>2021-04-17T15:52:11Z</time>
      </trkpt>
      <trkpt lat="-25.4471910" lon="-49.1878410">
        <ele>886.7</ele>
        <time>2021-04-17T15:52:13Z</time>
      </trkpt>
      <trkpt lat="-25.4473380" lon="-49.1879080">
        <ele>887.0</ele>
        <time>2021-04-17T15:52:17Z</time>
      </trkpt>
      <trkpt lat="-25.4474210" lon="-49.1880030">
        <ele>887.1</ele>
        <time>2021-04-17T15:52:20Z</time>
      </trkpt>
      <trkpt lat="-25.4474570" lon="-49.1880290">
        <ele>887.0</ele>
        <time>2021-04-17T15:52:21Z</time>
      </trkpt>
      <trkpt lat="-25.4474970" lon="-49.1880510">
        <ele>886.9</ele>
        <time>2021-04-17T15:52:22Z</time>
      </trkpt>
      <trkpt lat="-25.4476840" lon="-49.1881410">
        <ele>886.7</ele>
        <time>2021-04-17T15:52:26Z</time>
      </trkpt>
      <trkpt lat="-25.4479190" lon="-49.1883070">
        <ele>886.4</ele>
        <time>2021-04-17T15:52:31Z</time>
      </trkpt>
      <trkpt lat="-25.4479700" lon="-49.1883370">
        <ele>886.4</ele>
        <time>2021-04-17T15:52:32Z</time>
      </trkpt>
      <trkpt lat="-25.4482450" lon="-49.1884670">
        <ele>886.3</ele>
        <time>2021-04-17T15:52:37Z</time>
      </trkpt>
      <trkpt lat="-25.4487800" lon="-49.1887230">
        <ele>886.1</ele>
        <time>2021-04-17T15:52:47Z</time>
      </trkpt>
      <trkpt lat="-25.4489560" lon="-49.1888110">
        <ele>886.0</ele>
        <time>2021-04-17T15:52:50Z</time>
      </trkpt>
      <trkpt lat="-25.4492340" lon="-49.1889510">
        <ele>885.9</ele>
        <time>2021-04-17T15:52:55Z</time>
      </trkpt>
      <trkpt lat="-25.4497440" lon="-49.1892000">
        <ele>885.6</ele>
        <time>2021-04-17T15:53:04Z</time>
      </trkpt>
      <trkpt lat="-25.4502780" lon="-49.1894530">
        <ele>885.5</ele>
        <time>2021-04-17T15:53:13Z</time>
      </trkpt>
      <trkpt lat="-25.4503370" lon="-49.1894830">
        <ele>885.4</ele>
        <time>2021-04-17T15:53:14Z</time>
      </trkpt>
      <trkpt lat="-25.4508630" lon="-49.1897390">
        <ele>885.3</ele>
        <time>2021-04-17T15:53:23Z</time>
      </trkpt>
      <trkpt lat="-25.4513850" lon="-49.1900030">
        <ele>885.0</ele>
        <time>2021-04-17T15:53:32Z</time>
      </trkpt>
      <trkpt lat="-25.4514950" lon="-49.1900590">
        <ele>885.0</ele>
        <time>2021-04-17T15:53:34Z</time>
      </trkpt>
      <trkpt lat="-25.4520110" lon="-49.1903210">
        <ele>884.7</ele>
        <time>2021-04-17T15:53:43Z</time>
      </trkpt>
      <trkpt lat="-25.4520690" lon="-49.1903510">
        <ele>884.7</ele>
        <time>2021-04-17T15:53:44Z</time>
      </trkpt>
      <trkpt lat="-25.4526010" lon="-49.1906250">
        <ele>884.5</ele>
        <time>2021-04-17T15:53:53Z</time>
      </trkpt>
      <trkpt lat="-25.4527850" lon="-49.1907130">
        <ele>884.4</ele>
        <time>2021-04-17T15:53:56Z</time>
      </trkpt>
      <trkpt lat="-25.4532790" lon="-49.1909580">
        <ele>884.5</ele>
        <time>2021-04-17T15:54:04Z</time>
      </trkpt>
      <trkpt lat="-25.4538340" lon="-49.1912260">
        <ele>884.7</ele>
        <time>2021-04-17T15:54:13Z</time>
      </trkpt>
      <trkpt lat="-25.4538940" lon="-49.1912530">
        <ele>884.7</ele>
        <time>2021-04-17T15:54:14Z</time>
      </trkpt>
      <trkpt lat="-25.4543720" lon="-49.1914880">
        <ele>884.8</ele>
        <time>2021-04-17T15:54:22Z</time>
      </trkpt>
      <trkpt lat="-25.4548750" lon="-49.1917260">
        <ele>885.2</ele>
        <time>2021-04-17T15:54:31Z</time>
      </trkpt>
      <trkpt lat="-25.4549290" lon="-49.1917530">
        <ele>885.2</ele>
        <time>2021-04-17T15:54:32Z</time>
      </trkpt>
      <trkpt lat="-25.4552060" lon="-49.1918980">
        <ele>884.9</ele>
        <time>2021-04-17T15:54:37Z</time>
      </trkpt>
      <trkpt lat="-25.4554460" lon="-49.1920180">
        <ele>884.5</ele>
        <time>2021-04-17T15:54:41Z</time>
      </trkpt>
      <trkpt lat="-25.4559500" lon="-49.1922660">
        <ele>884.0</ele>
        <time>2021-04-17T15:54:50Z</time>
      </trkpt>
      <trkpt lat="-25.4562940" lon="-49.1924440">
        <ele>883.6</ele>
        <time>2021-04-17T15:54:56Z</time>
      </trkpt>
      <trkpt lat="-25.4563500" lon="-49.1924820">
        <ele>883.5</ele>
        <time>2021-04-17T15:54:57Z</time>
      </trkpt>
      <trkpt lat="-25.4567920" lon="-49.1927080">
        <ele>882.0</ele>
        <time>2021-04-17T15:55:04Z</time>
      </trkpt>
      <trkpt lat="-25.4569180" lon="-49.1927720">
        <ele>881.6</ele>
        <time>2021-04-17T15:55:06Z</time>
      </trkpt>
      <trkpt lat="-25.4571270" lon="-49.1928750">
        <ele>881.3</ele>
        <time>2021-04-17T15:55:09Z</time>
      </trkpt>
      <trkpt lat="-25.4576870" lon="-49.1931460">
        <ele>880.9</ele>
        <time>2021-04-17T15:55:17Z</time>
      </trkpt>
      <trkpt lat="-25.4580910" lon="-49.1933640">
        <ele>880.2</ele>
        <time>2021-04-17T15:55:23Z</time>
      </trkpt>
      <trkpt lat="-25.4582100" lon="-49.1934660">
        <ele>879.9</ele>
        <time>2021-04-17T15:55:25Z</time>
      </trkpt>
      <trkpt lat="-25.4583140" lon="-49.1936010">
        <ele>879.5</ele>
        <time>2021-04-17T15:55:27Z</time>
      </trkpt>
      <trkpt lat="-25.4584710" lon="-49.1939400">
        <ele>878.7</ele>
        <time>2021-04-17T15:55:31Z</time>
      </trkpt>
      <trkpt lat="-25.4586200" lon="-49.1944970">
        <ele>878.0</ele>
        <time>2021-04-17T15:55:37Z</time>
      </trkpt>
      <trkpt lat="-25.4587690" lon="-49.1950420">
        <ele>878.0</ele>
        <time>2021-04-17T15:55:43Z</time>
      </trkpt>
      <trkpt lat="-25.4588200" lon="-49.1952110">
        <ele>878.0</ele>
        <time>2021-04-17T15:55:45Z</time>
      </trkpt>
      <trkpt lat="-25.4589760" lon="-49.1958090">
        <ele>878.2</ele>
        <time>2021-04-17T15:55:52Z</time>
      </trkpt>
      <trkpt lat="-25.4590400" lon="-49.1960500">
        <ele>878.2</ele>
        <time>2021-04-17T15:55:55Z</time>
      </trkpt>
      <trkpt lat="-25.4591380" lon="-49.1964070">
        <ele>878.4</ele>
        <time>2021-04-17T15:56:00Z</time>
      </trkpt>
      <trkpt lat="-25.4591600" lon="-49.1964710">
        <ele>878.4</ele>
        <time>2021-04-17T15:56:01Z</time>
      </trkpt>
      <trkpt lat="-25.4592790" lon="-49.1966940">
        <ele>878.6</ele>
        <time>2021-04-17T15:56:05Z</time>
      </trkpt>
      <trkpt lat="-25.4594910" lon="-49.1970590">
        <ele>878.6</ele>
        <time>2021-04-17T15:56:11Z</time>
      </trkpt>
      <trkpt lat="-25.4595100" lon="-49.1971300">
        <ele>878.6</ele>
        <time>2021-04-17T15:56:12Z</time>
      </trkpt>
      <trkpt lat="-25.4596180" lon="-49.1977200">
        <ele>878.5</ele>
        <time>2021-04-17T15:56:20Z</time>
      </trkpt>
      <trkpt lat="-25.4597470" lon="-49.1983530">
        <ele>878.4</ele>
        <time>2021-04-17T15:56:29Z</time>
      </trkpt>
      <trkpt lat="-25.4598760" lon="-49.1988810">
        <ele>878.9</ele>
        <time>2021-04-17T15:56:37Z</time>
      </trkpt>
      <trkpt lat="-25.4600100" lon="-49.1992060">
        <ele>879.7</ele>
        <time>2021-04-17T15:56:43Z</time>
      </trkpt>
      <trkpt lat="-25.4601490" lon="-49.1995900">
        <ele>879.8</ele>
        <time>2021-04-17T15:56:51Z</time>
      </trkpt>
      <trkpt lat="-25.4603010" lon="-49.2001000">
        <ele>879.9</ele>
        <time>2021-04-17T15:56:59Z</time>
      </trkpt>
      <trkpt lat="-25.4603890" lon="-49.2004100">
        <ele>880.3</ele>
        <time>2021-04-17T15:57:05Z</time>
      </trkpt>
      <trkpt lat="-25.4604020" lon="-49.2004900">
        <ele>880.4</ele>
        <time>2021-04-17T15:57:09Z</time>
      </trkpt>
      <trkpt lat="-25.4604140" lon="-49.2005030">
        <ele>880.4</ele>
        <time>2021-04-17T15:57:13Z</time>
      </trkpt>
      <trkpt lat="-25.4604620" lon="-49.2006270">
        <ele>880.3</ele>
        <time>2021-04-17T15:57:17Z</time>
      </trkpt>
      <trkpt lat="-25.4605730" lon="-49.2009030">
        <ele>880.2</ele>
        <time>2021-04-17T15:57:23Z</time>
      </trkpt>
      <trkpt lat="-25.4606540" lon="-49.2011800">
        <ele>880.2</ele>
        <time>2021-04-17T15:57:28Z</time>
      </trkpt>
      <trkpt lat="-25.4607470" lon="-49.2015200">
        <ele>880.7</ele>
        <time>2021-04-17T15:57:34Z</time>
      </trkpt>
      <trkpt lat="-25.4607480" lon="-49.2015740">
        <ele>880.8</ele>
        <time>2021-04-17T15:57:35Z</time>
      </trkpt>
      <trkpt lat="-25.4607300" lon="-49.2016260">
        <ele>880.9</ele>
        <time>2021-04-17T15:57:36Z</time>
      </trkpt>
      <trkpt lat="-25.4606990" lon="-49.2016560">
        <ele>880.8</ele>
        <time>2021-04-17T15:57:37Z</time>
      </trkpt>
      <trkpt lat="-25.4603340" lon="-49.2018280">
        <ele>881.0</ele>
        <time>2021-04-17T15:57:44Z</time>
      </trkpt>
      <trkpt lat="-25.4598650" lon="-49.2020010">
        <ele>880.9</ele>
        <time>2021-04-17T15:57:53Z</time>
      </trkpt>
      <trkpt lat="-25.4594120" lon="-49.2021590">
        <ele>880.9</ele>
        <time>2021-04-17T15:58:02Z</time>
      </trkpt>
      <trkpt lat="-25.4593650" lon="-49.2021880">
        <ele>880.9</ele>
        <time>2021-04-17T15:58:03Z</time>
      </trkpt>
      <trkpt lat="-25.4593100" lon="-49.2022850">
        <ele>881.0</ele>
        <time>2021-04-17T15:58:05Z</time>
      </trkpt>
      <trkpt lat="-25.4593150" lon="-49.2024640">
        <ele>881.1</ele>
        <time>2021-04-17T15:58:08Z</time>
      </trkpt>
      <trkpt lat="-25.4593300" lon="-49.2025220">
        <ele>881.1</ele>
        <time>2021-04-17T15:58:09Z</time>
      </trkpt>
      <trkpt lat="-25.4594420" lon="-49.2028700">
        <ele>881.4</ele>
        <time>2021-04-17T15:58:15Z</time>
      </trkpt>
      <trkpt lat="-25.4594730" lon="-49.2029760">
        <ele>881.5</ele>
        <time>2021-04-17T15:58:17Z</time>
      </trkpt>
      <trkpt lat="-25.4596330" lon="-49.2034770">
        <ele>881.9</ele>
        <time>2021-04-17T15:58:25Z</time>
      </trkpt>
      <trkpt lat="-25.4598090" lon="-49.2040360">
        <ele>882.4</ele>
        <time>2021-04-17T15:58:34Z</time>
      </trkpt>
      <trkpt lat="-25.4599680" lon="-49.2045320">
        <ele>883.0</ele>
        <time>2021-04-17T15:58:42Z</time>
      </trkpt>
      <trkpt lat="-25.4601440" lon="-49.2050890">
        <ele>883.8</ele>
        <time>2021-04-17T15:58:51Z</time>
      </trkpt>
      <trkpt lat="-25.4602890" lon="-49.2055820">
        <ele>884.4</ele>
        <time>2021-04-17T15:58:59Z</time>
      </trkpt>
      <trkpt lat="-25.4604230" lon="-49.2060490">
        <ele>885.0</ele>
        <time>2021-04-17T15:59:07Z</time>
      </trkpt>
      <trkpt lat="-25.4606290" lon="-49.2066680">
        <ele>886.2</ele>
        <time>2021-04-17T15:59:17Z</time>
      </trkpt>
      <trkpt lat="-25.4607860" lon="-49.2071680">
        <ele>887.0</ele>
        <time>2021-04-17T15:59:25Z</time>
      </trkpt>
      <trkpt lat="-25.4609290" lon="-49.2076610">
        <ele>887.8</ele>
        <time>2021-04-17T15:59:33Z</time>
      </trkpt>
      <trkpt lat="-25.4610550" lon="-49.2080270">
        <ele>888.4</ele>
        <time>2021-04-17T15:59:39Z</time>
      </trkpt>
      <trkpt lat="-25.4611500" lon="-49.2083350">
        <ele>889.4</ele>
        <time>2021-04-17T15:59:44Z</time>
      </trkpt>
      <trkpt lat="-25.4613260" lon="-49.2089150">
        <ele>890.8</ele>
        <time>2021-04-17T15:59:54Z</time>
      </trkpt>
      <trkpt lat="-25.4615000" lon="-49.2095050">
        <ele>891.6</ele>
        <time>2021-04-17T16:00:04Z</time>
      </trkpt>
      <trkpt lat="-25.4616740" lon="-49.2100490">
        <ele>892.6</ele>
        <time>2021-04-17T16:00:14Z</time>
      </trkpt>
      <trkpt lat="-25.4618450" lon="-49.2105990">
        <ele>893.9</ele>
        <time>2021-04-17T16:00:24Z</time>
      </trkpt>
      <trkpt lat="-25.4618570" lon="-49.2106510">
        <ele>894.0</ele>
        <time>2021-04-17T16:00:25Z</time>
      </trkpt>
      <trkpt lat="-25.4619160" lon="-49.2108410">
        <ele>894.4</ele>
        <time>2021-04-17T16:00:29Z</time>
      </trkpt>
      <trkpt lat="-25.4619890" lon="-49.2110790">
        <ele>894.8</ele>
        <time>2021-04-17T16:00:36Z</time>
      </trkpt>
      <trkpt lat="-25.4619870" lon="-49.2110940">
        <ele>894.8</ele>
        <time>2021-04-17T16:00:40Z</time>
      </trkpt>
      <trkpt lat="-25.4619930" lon="-49.2111160">
        <ele>894.8</ele>
        <time>2021-04-17T16:00:43Z</time>
      </trkpt>
      <trkpt lat="-25.4620030" lon="-49.2111560">
        <ele>894.8</ele>
        <time>2021-04-17T16:00:45Z</time>
      </trkpt>
      <trkpt lat="-25.4620220" lon="-49.2112300">
        <ele>894.6</ele>
        <time>2021-04-17T16:00:49Z</time>
      </trkpt>
      <trkpt lat="-25.4620350" lon="-49.2112700">
        <ele>894.5</ele>
        <time>2021-04-17T16:00:52Z</time>
      </trkpt>
      <trkpt lat="-25.4620810" lon="-49.2113860">
        <ele>894.6</ele>
        <time>2021-04-17T16:00:56Z</time>
      </trkpt>
      <trkpt lat="-25.4620930" lon="-49.2114170">
        <ele>894.6</ele>
        <time>2021-04-17T16:00:57Z</time>
      </trkpt>
      <trkpt lat="-25.4621690" lon="-49.2116670">
        <ele>895.0</ele>
        <time>2021-04-17T16:01:03Z</time>
      </trkpt>
      <trkpt lat="-25.4621800" lon="-49.2117100">
        <ele>895.1</ele>
        <time>2021-04-17T16:01:04Z</time>
      </trkpt>
      <trkpt lat="-25.4623060" lon="-49.2120730">
        <ele>896.4</ele>
        <time>2021-04-17T16:01:12Z</time>
      </trkpt>
      <trkpt lat="-25.4623530" lon="-49.2122080">
        <ele>897.4</ele>
        <time>2021-04-17T16:01:15Z</time>
      </trkpt>
      <trkpt lat="-25.4624180" lon="-49.2124140">
        <ele>899.0</ele>
        <time>2021-04-17T16:01:20Z</time>
      </trkpt>
      <trkpt lat="-25.4624810" lon="-49.2125760">
        <ele>900.1</ele>
        <time>2021-04-17T16:01:24Z</time>
      </trkpt>
      <trkpt lat="-25.4624950" lon="-49.2126210">
        <ele>900.3</ele>
        <time>2021-04-17T16:01:25Z</time>
      </trkpt>
      <trkpt lat="-25.4625630" lon="-49.2128810">
        <ele>901.5</ele>
        <time>2021-04-17T16:01:32Z</time>
      </trkpt>
      <trkpt lat="-25.4625720" lon="-49.2129170">
        <ele>901.6</ele>
        <time>2021-04-17T16:01:33Z</time>
      </trkpt>
      <trkpt lat="-25.4626500" lon="-49.2131870">
        <ele>903.0</ele>
        <time>2021-04-17T16:01:40Z</time>
      </trkpt>
      <trkpt lat="-25.4626950" lon="-49.2133350">
        <ele>903.7</ele>
        <time>2021-04-17T16:01:44Z</time>
      </trkpt>
      <trkpt lat="-25.4628050" lon="-49.2136670">
        <ele>905.0</ele>
        <time>2021-04-17T16:01:53Z</time>
      </trkpt>
      <trkpt lat="-25.4628220" lon="-49.2137080">
        <ele>905.1</ele>
        <time>2021-04-17T16:01:54Z</time>
      </trkpt>
      <trkpt lat="-25.4629260" lon="-49.2140670">
        <ele>905.9</ele>
        <time>2021-04-17T16:02:04Z</time>
      </trkpt>
      <trkpt lat="-25.4629260" lon="-49.2141450">
        <ele>906.0</ele>
        <time>2021-04-17T16:02:06Z</time>
      </trkpt>
      <trkpt lat="-25.4629540" lon="-49.2142570">
        <ele>906.2</ele>
        <time>2021-04-17T16:02:09Z</time>
      </trkpt>
      <trkpt lat="-25.4630410" lon="-49.2145420">
        <ele>906.6</ele>
        <time>2021-04-17T16:02:16Z</time>
      </trkpt>
      <trkpt lat="-25.4630600" lon="-49.2146120">
        <ele>906.7</ele>
        <time>2021-04-17T16:02:20Z</time>
      </trkpt>
      <trkpt lat="-25.4631130" lon="-49.2147500">
        <ele>906.8</ele>
        <time>2021-04-17T16:02:25Z</time>
      </trkpt>
      <trkpt lat="-25.4631930" lon="-49.2149030">
        <ele>906.9</ele>
        <time>2021-04-17T16:02:31Z</time>
      </trkpt>
      <trkpt lat="-25.4632420" lon="-49.2150430">
        <ele>906.8</ele>
        <time>2021-04-17T16:02:35Z</time>
      </trkpt>
      <trkpt lat="-25.4632520" lon="-49.2150800">
        <ele>906.8</ele>
        <time>2021-04-17T16:02:36Z</time>
      </trkpt>
      <trkpt lat="-25.4633190" lon="-49.2152920">
        <ele>906.8</ele>
        <time>2021-04-17T16:02:41Z</time>
      </trkpt>
      <trkpt lat="-25.4633510" lon="-49.2153740">
        <ele>906.9</ele>
        <time>2021-04-17T16:02:43Z</time>
      </trkpt>
      <trkpt lat="-25.4633910" lon="-49.2155770">
        <ele>907.0</ele>
        <time>2021-04-17T16:02:49Z</time>
      </trkpt>
      <trkpt lat="-25.4633910" lon="-49.2155830">
        <ele>907.0</ele>
        <time>2021-04-17T16:02:52Z</time>
      </trkpt>
      <trkpt lat="-25.4633910" lon="-49.2155830">
        <ele>907.0</ele>
        <time>2021-04-17T16:02:58Z</time>
      </trkpt>
      <trkpt lat="-25.4633910" lon="-49.2155830">
        <ele>907.0</ele>
        <time>2021-04-17T16:03:07Z</time>
      </trkpt>
      <trkpt lat="-25.4633890" lon="-49.2155800">
        <ele>907.0</ele>
        <time>2021-04-17T16:03:19Z</time>
      </trkpt>
      <trkpt lat="-25.4633890" lon="-49.2155790">
        <ele>907.0</ele>
        <time>2021-04-17T16:03:22Z</time>
      </trkpt>
      <trkpt lat="-25.4633890" lon="-49.2155790">
        <ele>907.0</ele>
        <time>2021-04-17T16:03:27Z</time>
      </trkpt>
      <trkpt lat="-25.4633900" lon="-49.2155800">
        <ele>907.1</ele>
        <time>2021-04-17T16:03:31Z</time>
      </trkpt>
      <trkpt lat="-25.4634190" lon="-49.2156350">
        <ele>907.1</ele>
        <time>2021-04-17T16:03:34Z</time>
      </trkpt>
      <trkpt lat="-25.4634720" lon="-49.2156690">
        <ele>907.3</ele>
        <time>2021-04-17T16:03:37Z</time>
      </trkpt>
      <trkpt lat="-25.4635030" lon="-49.2156680">
        <ele>907.2</ele>
        <time>2021-04-17T16:03:38Z</time>
      </trkpt>
      <trkpt lat="-25.4635630" lon="-49.2156530">
        <ele>907.0</ele>
        <time>2021-04-17T16:03:40Z</time>
      </trkpt>
      <trkpt lat="-25.4636740" lon="-49.2156130">
        <ele>906.7</ele>
        <time>2021-04-17T16:03:43Z</time>
      </trkpt>
      <trkpt lat="-25.4637840" lon="-49.2155840">
        <ele>906.3</ele>
        <time>2021-04-17T16:03:46Z</time>
      </trkpt>
      <trkpt lat="-25.4639000" lon="-49.2155660">
        <ele>905.9</ele>
        <time>2021-04-17T16:03:48Z</time>
      </trkpt>
      <trkpt lat="-25.4639540" lon="-49.2155490">
        <ele>905.8</ele>
        <time>2021-04-17T16:03:49Z</time>
      </trkpt>
      <trkpt lat="-25.4644530" lon="-49.2153720">
        <ele>903.9</ele>
        <time>2021-04-17T16:03:58Z</time>
      </trkpt>
      <trkpt lat="-25.4648740" lon="-49.2152200">
        <ele>901.2</ele>
        <time>2021-04-17T16:04:04Z</time>
      </trkpt>
      <trkpt lat="-25.4649670" lon="-49.2152380">
        <ele>900.7</ele>
        <time>2021-04-17T16:04:06Z</time>
      </trkpt>
      <trkpt lat="-25.4650210" lon="-49.2153420">
        <ele>900.7</ele>
        <time>2021-04-17T16:04:08Z</time>
      </trkpt>
      <trkpt lat="-25.4650380" lon="-49.2153980">
        <ele>900.8</ele>
        <time>2021-04-17T16:04:09Z</time>
      </trkpt>
      <trkpt lat="-25.4651470" lon="-49.2158300">
        <ele>901.7</ele>
        <time>2021-04-17T16:04:17Z</time>
      </trkpt>
      <trkpt lat="-25.4651880" lon="-49.2160130">
        <ele>902.1</ele>
        <time>2021-04-17T16:04:20Z</time>
      </trkpt>
      <trkpt lat="-25.4652640" lon="-49.2162120">
        <ele>902.3</ele>
        <time>2021-04-17T16:04:24Z</time>
      </trkpt>
      <trkpt lat="-25.4652640" lon="-49.2162120">
        <ele>902.3</ele>
        <time>2021-04-17T16:04:27Z</time>
      </trkpt>
      <trkpt lat="-25.4652730" lon="-49.2162390">
        <ele>902.4</ele>
        <time>2021-04-17T16:04:28Z</time>
      </trkpt>
      <trkpt lat="-25.4652820" lon="-49.2162670">
        <ele>902.4</ele>
        <time>2021-04-17T16:04:29Z</time>
      </trkpt>
      <trkpt lat="-25.4652900" lon="-49.2162940">
        <ele>902.5</ele>
        <time>2021-04-17T16:04:30Z</time>
      </trkpt>
      <trkpt lat="-25.4652990" lon="-49.2163220">
        <ele>902.5</ele>
        <time>2021-04-17T16:04:31Z</time>
      </trkpt>
      <trkpt lat="-25.4654720" lon="-49.2168710">
        <ele>903.6</ele>
        <time>2021-04-17T16:04:36Z</time>
      </trkpt>
      <trkpt lat="-25.4655080" lon="-49.2170420">
        <ele>903.9</ele>
        <time>2021-04-17T16:04:39Z</time>
      </trkpt>
      <trkpt lat="-25.4655730" lon="-49.2172540">
        <ele>904.1</ele>
        <time>2021-04-17T16:04:43Z</time>
      </trkpt>
      <trkpt lat="-25.4656090" lon="-49.2173980">
        <ele>904.4</ele>
        <time>2021-04-17T16:04:46Z</time>
      </trkpt>
      <trkpt lat="-25.4657400" lon="-49.2178240">
        <ele>905.3</ele>
        <time>2021-04-17T16:04:54Z</time>
      </trkpt>
      <trkpt lat="-25.4657830" lon="-49.2179550">
        <ele>905.7</ele>
        <time>2021-04-17T16:04:57Z</time>
      </trkpt>
      <trkpt lat="-25.4658410" lon="-49.2180950">
        <ele>906.0</ele>
        <time>2021-04-17T16:05:00Z</time>
      </trkpt>
      <trkpt lat="-25.4659190" lon="-49.2183940">
        <ele>906.6</ele>
        <time>2021-04-17T16:05:06Z</time>
      </trkpt>
      <trkpt lat="-25.4659320" lon="-49.2184410">
        <ele>906.7</ele>
        <time>2021-04-17T16:05:07Z</time>
      </trkpt>
      <trkpt lat="-25.4659280" lon="-49.2185190">
        <ele>906.8</ele>
        <time>2021-04-17T16:05:09Z</time>
      </trkpt>
      <trkpt lat="-25.4658730" lon="-49.2185660">
        <ele>907.0</ele>
        <time>2021-04-17T16:05:12Z</time>
      </trkpt>
      <trkpt lat="-25.4658500" lon="-49.2186030">
        <ele>907.1</ele>
        <time>2021-04-17T16:05:14Z</time>
      </trkpt>
      <trkpt lat="-25.4658620" lon="-49.2186170">
        <ele>907.1</ele>
        <time>2021-04-17T16:05:15Z</time>
      </trkpt>
      <trkpt lat="-25.4659500" lon="-49.2186450">
        <ele>907.3</ele>
        <time>2021-04-17T16:05:18Z</time>
      </trkpt>
      <trkpt lat="-25.4659770" lon="-49.2186730">
        <ele>907.4</ele>
        <time>2021-04-17T16:05:19Z</time>
      </trkpt>
      <trkpt lat="-25.4660420" lon="-49.2188430">
        <ele>907.9</ele>
        <time>2021-04-17T16:05:23Z</time>
      </trkpt>
      <trkpt lat="-25.4662050" lon="-49.2192670">
        <ele>909.3</ele>
        <time>2021-04-17T16:05:32Z</time>
      </trkpt>
      <trkpt lat="-25.4663260" lon="-49.2196040">
        <ele>910.2</ele>
        <time>2021-04-17T16:05:39Z</time>
      </trkpt>
      <trkpt lat="-25.4664350" lon="-49.2199290">
        <ele>911.5</ele>
        <time>2021-04-17T16:05:46Z</time>
      </trkpt>
      <trkpt lat="-25.4664500" lon="-49.2200370">
        <ele>912.1</ele>
        <time>2021-04-17T16:05:48Z</time>
      </trkpt>
      <trkpt lat="-25.4665680" lon="-49.2203990">
        <ele>913.7</ele>
        <time>2021-04-17T16:05:56Z</time>
      </trkpt>
      <trkpt lat="-25.4666380" lon="-49.2206600">
        <ele>914.5</ele>
        <time>2021-04-17T16:06:02Z</time>
      </trkpt>
      <trkpt lat="-25.4666520" lon="-49.2207050">
        <ele>914.6</ele>
        <time>2021-04-17T16:06:03Z</time>
      </trkpt>
      <trkpt lat="-25.4666620" lon="-49.2207520">
        <ele>914.7</ele>
        <time>2021-04-17T16:06:04Z</time>
      </trkpt>
      <trkpt lat="-25.4667060" lon="-49.2209460">
        <ele>915.0</ele>
        <time>2021-04-17T16:06:09Z</time>
      </trkpt>
      <trkpt lat="-25.4668020" lon="-49.2212440">
        <ele>915.2</ele>
        <time>2021-04-17T16:06:17Z</time>
      </trkpt>
      <trkpt lat="-25.4668860" lon="-49.2215440">
        <ele>915.4</ele>
        <time>2021-04-17T16:06:25Z</time>
      </trkpt>
      <trkpt lat="-25.4669050" lon="-49.2216090">
        <ele>915.5</ele>
        <time>2021-04-17T16:06:30Z</time>
      </trkpt>
      <trkpt lat="-25.4669160" lon="-49.2216130">
        <ele>915.5</ele>
        <time>2021-04-17T16:06:35Z</time>
      </trkpt>
      <trkpt lat="-25.4669160" lon="-49.2216130">
        <ele>915.5</ele>
        <time>2021-04-17T16:06:36Z</time>
      </trkpt>
      <trkpt lat="-25.4669090" lon="-49.2216160">
        <ele>915.6</ele>
        <time>2021-04-17T16:06:40Z</time>
      </trkpt>
      <trkpt lat="-25.4669090" lon="-49.2216160">
        <ele>915.6</ele>
        <time>2021-04-17T16:06:43Z</time>
      </trkpt>
      <trkpt lat="-25.4669090" lon="-49.2216160">
        <ele>915.6</ele>
        <time>2021-04-17T16:06:45Z</time>
      </trkpt>
      <trkpt lat="-25.4669090" lon="-49.2216150">
        <ele>915.6</ele>
        <time>2021-04-17T16:06:51Z</time>
      </trkpt>
      <trkpt lat="-25.4669060" lon="-49.2216140">
        <ele>915.6</ele>
        <time>2021-04-17T16:06:54Z</time>
      </trkpt>
      <trkpt lat="-25.4669060" lon="-49.2216140">
        <ele>915.6</ele>
        <time>2021-04-17T16:06:56Z</time>
      </trkpt>
      <trkpt lat="-25.4669060" lon="-49.2216130">
        <ele>915.6</ele>
        <time>2021-04-17T16:07:05Z</time>
      </trkpt>
      <trkpt lat="-25.4669110" lon="-49.2216360">
        <ele>915.6</ele>
        <time>2021-04-17T16:07:09Z</time>
      </trkpt>
      <trkpt lat="-25.4669280" lon="-49.2216930">
        <ele>915.8</ele>
        <time>2021-04-17T16:07:11Z</time>
      </trkpt>
      <trkpt lat="-25.4669980" lon="-49.2218830">
        <ele>917.3</ele>
        <time>2021-04-17T16:07:17Z</time>
      </trkpt>
      <trkpt lat="-25.4670550" lon="-49.2219660">
        <ele>918.3</ele>
        <time>2021-04-17T16:07:20Z</time>
      </trkpt>
      <trkpt lat="-25.4671290" lon="-49.2219950">
        <ele>918.2</ele>
        <time>2021-04-17T16:07:22Z</time>
      </trkpt>
      <trkpt lat="-25.4673290" lon="-49.2219290">
        <ele>918.2</ele>
        <time>2021-04-17T16:07:27Z</time>
      </trkpt>
      <trkpt lat="-25.4674650" lon="-49.2218680">
        <ele>918.1</ele>
        <time>2021-04-17T16:07:30Z</time>
      </trkpt>
      <trkpt lat="-25.4676360" lon="-49.2217800">
        <ele>918.1</ele>
        <time>2021-04-17T16:07:34Z</time>
      </trkpt>
      <trkpt lat="-25.4679530" lon="-49.2215580">
        <ele>918.0</ele>
        <time>2021-04-17T16:07:41Z</time>
      </trkpt>
      <trkpt lat="-25.4683080" lon="-49.2212520">
        <ele>918.0</ele>
        <time>2021-04-17T16:07:49Z</time>
      </trkpt>
      <trkpt lat="-25.4685500" lon="-49.2210350">
        <ele>918.2</ele>
        <time>2021-04-17T16:07:55Z</time>
      </trkpt>
      <trkpt lat="-25.4688170" lon="-49.2207300">
        <ele>918.6</ele>
        <time>2021-04-17T16:08:03Z</time>
      </trkpt>
      <trkpt lat="-25.4690570" lon="-49.2204050">
        <ele>918.4</ele>
        <time>2021-04-17T16:08:11Z</time>
      </trkpt>
      <trkpt lat="-25.4692390" lon="-49.2201540">
        <ele>917.9</ele>
        <time>2021-04-17T16:08:16Z</time>
      </trkpt>
      <trkpt lat="-25.4694220" lon="-49.2198810">
        <ele>917.4</ele>
        <time>2021-04-17T16:08:21Z</time>
      </trkpt>
      <trkpt lat="-25.4695830" lon="-49.2196460">
        <ele>916.9</ele>
        <time>2021-04-17T16:08:25Z</time>
      </trkpt>
      <trkpt lat="-25.4698370" lon="-49.2192690">
        <ele>916.7</ele>
        <time>2021-04-17T16:08:32Z</time>
      </trkpt>
      <trkpt lat="-25.4699190" lon="-49.2192450">
        <ele>916.8</ele>
        <time>2021-04-17T16:08:34Z</time>
      </trkpt>
      <trkpt lat="-25.4699800" lon="-49.2193170">
        <ele>916.9</ele>
        <time>2021-04-17T16:08:36Z</time>
      </trkpt>
      <trkpt lat="-25.4700020" lon="-49.2193570">
        <ele>916.9</ele>
        <time>2021-04-17T16:08:37Z</time>
      </trkpt>
      <trkpt lat="-25.4701810" lon="-49.2196580">
        <ele>917.2</ele>
        <time>2021-04-17T16:08:44Z</time>
      </trkpt>
      <trkpt lat="-25.4702040" lon="-49.2196970">
        <ele>917.3</ele>
        <time>2021-04-17T16:08:45Z</time>
      </trkpt>
      <trkpt lat="-25.4704390" lon="-49.2200710">
        <ele>917.8</ele>
        <time>2021-04-17T16:08:53Z</time>
      </trkpt>
      <trkpt lat="-25.4705540" lon="-49.2202550">
        <ele>918.1</ele>
        <time>2021-04-17T16:08:57Z</time>
      </trkpt>
      <trkpt lat="-25.4706910" lon="-49.2204670">
        <ele>918.5</ele>
        <time>2021-04-17T16:09:02Z</time>
      </trkpt>
      <trkpt lat="-25.4708300" lon="-49.2206810">
        <ele>918.7</ele>
        <time>2021-04-17T16:09:07Z</time>
      </trkpt>
      <trkpt lat="-25.4709730" lon="-49.2209260">
        <ele>918.8</ele>
        <time>2021-04-17T16:09:13Z</time>
      </trkpt>
      <trkpt lat="-25.4710290" lon="-49.2210560">
        <ele>918.9</ele>
        <time>2021-04-17T16:09:18Z</time>
      </trkpt>
      <trkpt lat="-25.4710460" lon="-49.2210540">
        <ele>918.9</ele>
        <time>2021-04-17T16:09:21Z</time>
      </trkpt>
      <trkpt lat="-25.4710640" lon="-49.2210420">
        <ele>918.9</ele>
        <time>2021-04-17T16:09:22Z</time>
      </trkpt>
      <trkpt lat="-25.4711110" lon="-49.2209280">
        <ele>919.1</ele>
        <time>2021-04-17T16:09:26Z</time>
      </trkpt>
      <trkpt lat="-25.4712680" lon="-49.2207280">
        <ele>919.6</ele>
        <time>2021-04-17T16:09:31Z</time>
      </trkpt>
      <trkpt lat="-25.4714370" lon="-49.2204860">
        <ele>919.7</ele>
        <time>2021-04-17T16:09:36Z</time>
      </trkpt>
      <trkpt lat="-25.4714530" lon="-49.2204340">
        <ele>919.7</ele>
        <time>2021-04-17T16:09:37Z</time>
      </trkpt>
      <trkpt lat="-25.4714640" lon="-49.2203850">
        <ele>919.8</ele>
        <time>2021-04-17T16:09:38Z</time>
      </trkpt>
      <trkpt lat="-25.4714830" lon="-49.2203000">
        <ele>919.8</ele>
        <time>2021-04-17T16:09:41Z</time>
      </trkpt>
      <trkpt lat="-25.4714760" lon="-49.2201720">
        <ele>919.7</ele>
        <time>2021-04-17T16:09:47Z</time>
      </trkpt>
      <trkpt lat="-25.4714800" lon="-49.2201490">
        <ele>919.7</ele>
        <time>2021-04-17T16:09:48Z</time>
      </trkpt>
      <trkpt lat="-25.4715180" lon="-49.2201190">
        <ele>919.7</ele>
        <time>2021-04-17T16:09:50Z</time>
      </trkpt>
      <trkpt lat="-25.4715250" lon="-49.2201190">
        <ele>919.6</ele>
        <time>2021-04-17T16:09:54Z</time>
      </trkpt>
      <trkpt lat="-25.4715200" lon="-49.2201170">
        <ele>919.6</ele>
        <time>2021-04-17T16:10:00Z</time>
      </trkpt>
    </trkseg>
  </trk>
</gpx>
